<?xml version="1.0" encoding="UTF-8" standalone="no" ?>
<gpx xmlns="http://www.topografix.com/GPX/1/1" xmlns:xsi="http://www.w3.org/2001/XMLSchema-instance" xsi:schemaLocation="http://www.topografix.com/GPX/1/1 http://www.topografix.com/GPX/1/1/gpx.xsd" version="1.1" creator="VisuGPX - https://www.visugpx.com">
  <metadata>
    <name>Mazamet Naviguer</name>
  </metadata>
  <trk>
    <name><![CDATA[Mazamet Naviguer]]></name>
    <trkseg>
      <trkpt lat="43.477" lon="2.38228">
        <ele>367.20001220703</ele>
        <time>2019-06-02T07:33:23Z</time>
      </trkpt>
      <trkpt lat="43.47693" lon="2.38223">
        <ele>367</ele>
        <time>2019-06-02T07:33:32Z</time>
      </trkpt>
      <trkpt lat="43.47692" lon="2.38222">
        <ele>367.20001220703</ele>
        <time>2019-06-02T07:33:33Z</time>
      </trkpt>
      <trkpt lat="43.47689" lon="2.3822">
        <ele>367.20001220703</ele>
        <time>2019-06-02T07:33:36Z</time>
      </trkpt>
      <trkpt lat="43.47687" lon="2.3822">
        <ele>367.39999389648</ele>
        <time>2019-06-02T07:33:38Z</time>
      </trkpt>
      <trkpt lat="43.47686" lon="2.38218">
        <ele>368.20001220703</ele>
        <time>2019-06-02T07:33:42Z</time>
      </trkpt>
      <trkpt lat="43.47683" lon="2.38217">
        <ele>368</ele>
        <time>2019-06-02T07:33:46Z</time>
      </trkpt>
      <trkpt lat="43.4768" lon="2.38215">
        <ele>367.79998779297</ele>
        <time>2019-06-02T07:33:49Z</time>
      </trkpt>
      <trkpt lat="43.47679" lon="2.38215">
        <ele>367.79998779297</ele>
        <time>2019-06-02T07:33:50Z</time>
      </trkpt>
      <trkpt lat="43.47675" lon="2.38216">
        <ele>368.20001220703</ele>
        <time>2019-06-02T07:33:53Z</time>
      </trkpt>
      <trkpt lat="43.47671" lon="2.38219">
        <ele>367.60000610352</ele>
        <time>2019-06-02T07:33:59Z</time>
      </trkpt>
      <trkpt lat="43.47663" lon="2.38224">
        <ele>367.39999389648</ele>
        <time>2019-06-02T07:34:04Z</time>
      </trkpt>
      <trkpt lat="43.47659" lon="2.38224">
        <ele>367.60000610352</ele>
        <time>2019-06-02T07:34:07Z</time>
      </trkpt>
      <trkpt lat="43.47655" lon="2.38224">
        <ele>368</ele>
        <time>2019-06-02T07:34:10Z</time>
      </trkpt>
      <trkpt lat="43.47652" lon="2.38221">
        <ele>368.20001220703</ele>
        <time>2019-06-02T07:34:14Z</time>
      </trkpt>
      <trkpt lat="43.47648" lon="2.38219">
        <ele>368.60000610352</ele>
        <time>2019-06-02T07:34:19Z</time>
      </trkpt>
      <trkpt lat="43.47648" lon="2.38219">
        <ele>368.39999389648</ele>
        <time>2019-06-02T07:34:21Z</time>
      </trkpt>
      <trkpt lat="43.47647" lon="2.38222">
        <ele>368.39999389648</ele>
        <time>2019-06-02T07:34:24Z</time>
      </trkpt>
      <trkpt lat="43.47645" lon="2.38227">
        <ele>368</ele>
        <time>2019-06-02T07:34:27Z</time>
      </trkpt>
      <trkpt lat="43.47644" lon="2.38233">
        <ele>367.39999389648</ele>
        <time>2019-06-02T07:34:30Z</time>
      </trkpt>
      <trkpt lat="43.47644" lon="2.38237">
        <ele>366.79998779297</ele>
        <time>2019-06-02T07:34:32Z</time>
      </trkpt>
      <trkpt lat="43.47643" lon="2.38238">
        <ele>367.39999389648</ele>
        <time>2019-06-02T07:34:33Z</time>
      </trkpt>
      <trkpt lat="43.47643" lon="2.3824">
        <ele>368</ele>
        <time>2019-06-02T07:34:34Z</time>
      </trkpt>
      <trkpt lat="43.4764" lon="2.38247">
        <ele>367.79998779297</ele>
        <time>2019-06-02T07:34:38Z</time>
      </trkpt>
      <trkpt lat="43.47638" lon="2.38252">
        <ele>368</ele>
        <time>2019-06-02T07:34:43Z</time>
      </trkpt>
      <trkpt lat="43.47638" lon="2.38252">
        <ele>367.39999389648</ele>
        <time>2019-06-02T07:34:45Z</time>
      </trkpt>
      <trkpt lat="43.47639" lon="2.38252">
        <ele>367</ele>
        <time>2019-06-02T07:34:50Z</time>
      </trkpt>
      <trkpt lat="43.47651" lon="2.38225">
        <ele>367</ele>
        <time>2019-06-02T07:35:43Z</time>
      </trkpt>
      <trkpt lat="43.47646" lon="2.38231">
        <ele>368</ele>
        <time>2019-06-02T07:35:44Z</time>
      </trkpt>
      <trkpt lat="43.47644" lon="2.38234">
        <ele>368</ele>
        <time>2019-06-02T07:35:46Z</time>
      </trkpt>
      <trkpt lat="43.47641" lon="2.38238">
        <ele>368</ele>
        <time>2019-06-02T07:35:50Z</time>
      </trkpt>
      <trkpt lat="43.4764" lon="2.38239">
        <ele>368</ele>
        <time>2019-06-02T07:35:56Z</time>
      </trkpt>
      <trkpt lat="43.47639" lon="2.38233">
        <ele>367.60000610352</ele>
        <time>2019-06-02T07:36:00Z</time>
      </trkpt>
      <trkpt lat="43.47638" lon="2.38229">
        <ele>367.39999389648</ele>
        <time>2019-06-02T07:36:02Z</time>
      </trkpt>
      <trkpt lat="43.47636" lon="2.38221">
        <ele>367.39999389648</ele>
        <time>2019-06-02T07:36:09Z</time>
      </trkpt>
      <trkpt lat="43.47635" lon="2.38216">
        <ele>367</ele>
        <time>2019-06-02T07:36:16Z</time>
      </trkpt>
      <trkpt lat="43.47635" lon="2.38213">
        <ele>367</ele>
        <time>2019-06-02T07:36:19Z</time>
      </trkpt>
      <trkpt lat="43.47634" lon="2.3821">
        <ele>366.79998779297</ele>
        <time>2019-06-02T07:36:23Z</time>
      </trkpt>
      <trkpt lat="43.47633" lon="2.38209">
        <ele>367</ele>
        <time>2019-06-02T07:36:24Z</time>
      </trkpt>
      <trkpt lat="43.4763" lon="2.38205">
        <ele>367</ele>
        <time>2019-06-02T07:36:33Z</time>
      </trkpt>
      <trkpt lat="43.47627" lon="2.38199">
        <ele>366.60000610352</ele>
        <time>2019-06-02T07:36:41Z</time>
      </trkpt>
      <trkpt lat="43.4763" lon="2.38202">
        <ele>366.60000610352</ele>
        <time>2019-06-02T07:36:48Z</time>
      </trkpt>
      <trkpt lat="43.47631" lon="2.38202">
        <ele>366.60000610352</ele>
        <time>2019-06-02T07:36:54Z</time>
      </trkpt>
      <trkpt lat="43.47631" lon="2.38202">
        <ele>366.60000610352</ele>
        <time>2019-06-02T07:36:55Z</time>
      </trkpt>
      <trkpt lat="43.47632" lon="2.38202">
        <ele>367</ele>
        <time>2019-06-02T07:36:59Z</time>
      </trkpt>
      <trkpt lat="43.47633" lon="2.38203">
        <ele>367.20001220703</ele>
        <time>2019-06-02T07:37:04Z</time>
      </trkpt>
      <trkpt lat="43.47634" lon="2.38205">
        <ele>367</ele>
        <time>2019-06-02T07:37:11Z</time>
      </trkpt>
      <trkpt lat="43.47634" lon="2.38206">
        <ele>367.20001220703</ele>
        <time>2019-06-02T07:37:15Z</time>
      </trkpt>
      <trkpt lat="43.47635" lon="2.38207">
        <ele>367.20001220703</ele>
        <time>2019-06-02T07:37:19Z</time>
      </trkpt>
      <trkpt lat="43.47635" lon="2.38207">
        <ele>367</ele>
        <time>2019-06-02T07:37:22Z</time>
      </trkpt>
      <trkpt lat="43.47636" lon="2.38207">
        <ele>367.20001220703</ele>
        <time>2019-06-02T07:37:24Z</time>
      </trkpt>
      <trkpt lat="43.47636" lon="2.38209">
        <ele>367.39999389648</ele>
        <time>2019-06-02T07:37:28Z</time>
      </trkpt>
      <trkpt lat="43.47635" lon="2.38212">
        <ele>367.39999389648</ele>
        <time>2019-06-02T07:37:32Z</time>
      </trkpt>
      <trkpt lat="43.47634" lon="2.38217">
        <ele>367.39999389648</ele>
        <time>2019-06-02T07:37:36Z</time>
      </trkpt>
      <trkpt lat="43.47634" lon="2.38216">
        <ele>367.39999389648</ele>
        <time>2019-06-02T07:37:39Z</time>
      </trkpt>
      <trkpt lat="43.47632" lon="2.38213">
        <ele>367.39999389648</ele>
        <time>2019-06-02T07:37:47Z</time>
      </trkpt>
      <trkpt lat="43.47632" lon="2.38211">
        <ele>367.39999389648</ele>
        <time>2019-06-02T07:37:48Z</time>
      </trkpt>
      <trkpt lat="43.47629" lon="2.38204">
        <ele>367.39999389648</ele>
        <time>2019-06-02T07:37:52Z</time>
      </trkpt>
      <trkpt lat="43.47627" lon="2.382">
        <ele>367</ele>
        <time>2019-06-02T07:37:55Z</time>
      </trkpt>
      <trkpt lat="43.47627" lon="2.38195">
        <ele>367</ele>
        <time>2019-06-02T07:37:59Z</time>
      </trkpt>
      <trkpt lat="43.47627" lon="2.38193">
        <ele>366.79998779297</ele>
        <time>2019-06-02T07:38:00Z</time>
      </trkpt>
      <trkpt lat="43.47625" lon="2.38189">
        <ele>366.60000610352</ele>
        <time>2019-06-02T07:38:02Z</time>
      </trkpt>
      <trkpt lat="43.47624" lon="2.38189">
        <ele>367</ele>
        <time>2019-06-02T07:38:03Z</time>
      </trkpt>
      <trkpt lat="43.47624" lon="2.38188">
        <ele>367</ele>
        <time>2019-06-02T07:38:04Z</time>
      </trkpt>
      <trkpt lat="43.47623" lon="2.38188">
        <ele>367</ele>
        <time>2019-06-02T07:38:05Z</time>
      </trkpt>
      <trkpt lat="43.47623" lon="2.38186">
        <ele>367.39999389648</ele>
        <time>2019-06-02T07:38:06Z</time>
      </trkpt>
      <trkpt lat="43.47622" lon="2.38184">
        <ele>367.60000610352</ele>
        <time>2019-06-02T07:38:08Z</time>
      </trkpt>
      <trkpt lat="43.47619" lon="2.38186">
        <ele>367.20001220703</ele>
        <time>2019-06-02T07:38:10Z</time>
      </trkpt>
      <trkpt lat="43.47615" lon="2.38186">
        <ele>367.39999389648</ele>
        <time>2019-06-02T07:38:13Z</time>
      </trkpt>
      <trkpt lat="43.4761" lon="2.38188">
        <ele>367.39999389648</ele>
        <time>2019-06-02T07:38:20Z</time>
      </trkpt>
      <trkpt lat="43.47609" lon="2.38188">
        <ele>367.20001220703</ele>
        <time>2019-06-02T07:38:21Z</time>
      </trkpt>
      <trkpt lat="43.47607" lon="2.38187">
        <ele>367</ele>
        <time>2019-06-02T07:38:24Z</time>
      </trkpt>
      <trkpt lat="43.47604" lon="2.38185">
        <ele>367.20001220703</ele>
        <time>2019-06-02T07:38:26Z</time>
      </trkpt>
      <trkpt lat="43.47603" lon="2.3818">
        <ele>366.79998779297</ele>
        <time>2019-06-02T07:38:32Z</time>
      </trkpt>
      <trkpt lat="43.47604" lon="2.38179">
        <ele>366.39999389648</ele>
        <time>2019-06-02T07:38:33Z</time>
      </trkpt>
      <trkpt lat="43.47605" lon="2.38174">
        <ele>366.20001220703</ele>
        <time>2019-06-02T07:38:36Z</time>
      </trkpt>
      <trkpt lat="43.47605" lon="2.38174">
        <ele>365.79998779297</ele>
        <time>2019-06-02T07:38:37Z</time>
      </trkpt>
      <trkpt lat="43.47606" lon="2.38171">
        <ele>365</ele>
        <time>2019-06-02T07:38:41Z</time>
      </trkpt>
      <trkpt lat="43.47607" lon="2.38171">
        <ele>364.79998779297</ele>
        <time>2019-06-02T07:38:42Z</time>
      </trkpt>
      <trkpt lat="43.47609" lon="2.38161">
        <ele>364</ele>
        <time>2019-06-02T07:38:47Z</time>
      </trkpt>
      <trkpt lat="43.47609" lon="2.3816">
        <ele>363.79998779297</ele>
        <time>2019-06-02T07:38:48Z</time>
      </trkpt>
      <trkpt lat="43.47609" lon="2.38158">
        <ele>363.20001220703</ele>
        <time>2019-06-02T07:38:50Z</time>
      </trkpt>
      <trkpt lat="43.47611" lon="2.38153">
        <ele>362.79998779297</ele>
        <time>2019-06-02T07:38:53Z</time>
      </trkpt>
      <trkpt lat="43.47611" lon="2.38151">
        <ele>362.60000610352</ele>
        <time>2019-06-02T07:38:54Z</time>
      </trkpt>
      <trkpt lat="43.47614" lon="2.38143">
        <ele>362</ele>
        <time>2019-06-02T07:39:01Z</time>
      </trkpt>
      <trkpt lat="43.4762" lon="2.38129">
        <ele>361.79998779297</ele>
        <time>2019-06-02T07:39:08Z</time>
      </trkpt>
      <trkpt lat="43.47624" lon="2.3812">
        <ele>361.60000610352</ele>
        <time>2019-06-02T07:39:12Z</time>
      </trkpt>
      <trkpt lat="43.47626" lon="2.38118">
        <ele>361.39999389648</ele>
        <time>2019-06-02T07:39:13Z</time>
      </trkpt>
      <trkpt lat="43.47629" lon="2.38111">
        <ele>361.39999389648</ele>
        <time>2019-06-02T07:39:16Z</time>
      </trkpt>
      <trkpt lat="43.4763" lon="2.3811">
        <ele>361.20001220703</ele>
        <time>2019-06-02T07:39:19Z</time>
      </trkpt>
      <trkpt lat="43.47633" lon="2.38107">
        <ele>361.39999389648</ele>
        <time>2019-06-02T07:39:22Z</time>
      </trkpt>
      <trkpt lat="43.47635" lon="2.38102">
        <ele>361.39999389648</ele>
        <time>2019-06-02T07:39:25Z</time>
      </trkpt>
      <trkpt lat="43.47635" lon="2.38099">
        <ele>361.20001220703</ele>
        <time>2019-06-02T07:39:31Z</time>
      </trkpt>
      <trkpt lat="43.47636" lon="2.38093">
        <ele>361.39999389648</ele>
        <time>2019-06-02T07:39:39Z</time>
      </trkpt>
      <trkpt lat="43.47637" lon="2.3809">
        <ele>361.39999389648</ele>
        <time>2019-06-02T07:39:41Z</time>
      </trkpt>
      <trkpt lat="43.47641" lon="2.38085">
        <ele>361.60000610352</ele>
        <time>2019-06-02T07:39:44Z</time>
      </trkpt>
      <trkpt lat="43.47641" lon="2.38084">
        <ele>361.60000610352</ele>
        <time>2019-06-02T07:39:45Z</time>
      </trkpt>
      <trkpt lat="43.47648" lon="2.38079">
        <ele>362.20001220703</ele>
        <time>2019-06-02T07:39:52Z</time>
      </trkpt>
      <trkpt lat="43.4765" lon="2.38076">
        <ele>361.79998779297</ele>
        <time>2019-06-02T07:39:56Z</time>
      </trkpt>
      <trkpt lat="43.4765" lon="2.38077">
        <ele>361.79998779297</ele>
        <time>2019-06-02T07:39:57Z</time>
      </trkpt>
      <trkpt lat="43.47651" lon="2.38077">
        <ele>362.39999389648</ele>
        <time>2019-06-02T07:40:00Z</time>
      </trkpt>
      <trkpt lat="43.4765" lon="2.38077">
        <ele>362.60000610352</ele>
        <time>2019-06-02T07:40:01Z</time>
      </trkpt>
      <trkpt lat="43.47652" lon="2.38075">
        <ele>362.60000610352</ele>
        <time>2019-06-02T07:40:02Z</time>
      </trkpt>
      <trkpt lat="43.47654" lon="2.38073">
        <ele>362.60000610352</ele>
        <time>2019-06-02T07:40:03Z</time>
      </trkpt>
      <trkpt lat="43.47655" lon="2.38071">
        <ele>362.60000610352</ele>
        <time>2019-06-02T07:40:05Z</time>
      </trkpt>
      <trkpt lat="43.47657" lon="2.38074">
        <ele>362.60000610352</ele>
        <time>2019-06-02T07:40:09Z</time>
      </trkpt>
      <trkpt lat="43.4766" lon="2.38071">
        <ele>362.60000610352</ele>
        <time>2019-06-02T07:40:10Z</time>
      </trkpt>
      <trkpt lat="43.47669" lon="2.3807">
        <ele>362.39999389648</ele>
        <time>2019-06-02T07:40:14Z</time>
      </trkpt>
      <trkpt lat="43.47683" lon="2.38065">
        <ele>362.79998779297</ele>
        <time>2019-06-02T07:40:19Z</time>
      </trkpt>
      <trkpt lat="43.47688" lon="2.38069">
        <ele>362.79998779297</ele>
        <time>2019-06-02T07:40:24Z</time>
      </trkpt>
      <trkpt lat="43.47688" lon="2.38073">
        <ele>362.39999389648</ele>
        <time>2019-06-02T07:40:28Z</time>
      </trkpt>
      <trkpt lat="43.4769" lon="2.38074">
        <ele>362</ele>
        <time>2019-06-02T07:40:30Z</time>
      </trkpt>
      <trkpt lat="43.47693" lon="2.38075">
        <ele>361.79998779297</ele>
        <time>2019-06-02T07:40:34Z</time>
      </trkpt>
      <trkpt lat="43.47696" lon="2.38073">
        <ele>361.60000610352</ele>
        <time>2019-06-02T07:40:35Z</time>
      </trkpt>
      <trkpt lat="43.47698" lon="2.38071">
        <ele>361.20001220703</ele>
        <time>2019-06-02T07:40:36Z</time>
      </trkpt>
      <trkpt lat="43.47704" lon="2.38069">
        <ele>360.79998779297</ele>
        <time>2019-06-02T07:40:41Z</time>
      </trkpt>
      <trkpt lat="43.47707" lon="2.38068">
        <ele>360.60000610352</ele>
        <time>2019-06-02T07:40:43Z</time>
      </trkpt>
      <trkpt lat="43.47707" lon="2.38071">
        <ele>360.39999389648</ele>
        <time>2019-06-02T07:40:45Z</time>
      </trkpt>
      <trkpt lat="43.47708" lon="2.38072">
        <ele>360.39999389648</ele>
        <time>2019-06-02T07:40:46Z</time>
      </trkpt>
      <trkpt lat="43.47712" lon="2.38073">
        <ele>360.20001220703</ele>
        <time>2019-06-02T07:40:50Z</time>
      </trkpt>
      <trkpt lat="43.47714" lon="2.38075">
        <ele>360</ele>
        <time>2019-06-02T07:40:51Z</time>
      </trkpt>
      <trkpt lat="43.47717" lon="2.38075">
        <ele>359.39999389648</ele>
        <time>2019-06-02T07:40:55Z</time>
      </trkpt>
      <trkpt lat="43.47718" lon="2.38075">
        <ele>359.20001220703</ele>
        <time>2019-06-02T07:40:56Z</time>
      </trkpt>
      <trkpt lat="43.47719" lon="2.38076">
        <ele>358.79998779297</ele>
        <time>2019-06-02T07:40:57Z</time>
      </trkpt>
      <trkpt lat="43.47723" lon="2.38083">
        <ele>358.39999389648</ele>
        <time>2019-06-02T07:41:03Z</time>
      </trkpt>
      <trkpt lat="43.47725" lon="2.38084">
        <ele>358.39999389648</ele>
        <time>2019-06-02T07:41:04Z</time>
      </trkpt>
      <trkpt lat="43.4773" lon="2.38086">
        <ele>358.20001220703</ele>
        <time>2019-06-02T07:41:07Z</time>
      </trkpt>
      <trkpt lat="43.47731" lon="2.38086">
        <ele>358</ele>
        <time>2019-06-02T07:41:08Z</time>
      </trkpt>
      <trkpt lat="43.47736" lon="2.38085">
        <ele>357.39999389648</ele>
        <time>2019-06-02T07:41:15Z</time>
      </trkpt>
      <trkpt lat="43.47742" lon="2.38086">
        <ele>357.20001220703</ele>
        <time>2019-06-02T07:41:20Z</time>
      </trkpt>
      <trkpt lat="43.47746" lon="2.38087">
        <ele>357.20001220703</ele>
        <time>2019-06-02T07:41:23Z</time>
      </trkpt>
      <trkpt lat="43.47746" lon="2.38087">
        <ele>357</ele>
        <time>2019-06-02T07:41:24Z</time>
      </trkpt>
      <trkpt lat="43.4775" lon="2.38085">
        <ele>357.20001220703</ele>
        <time>2019-06-02T07:41:27Z</time>
      </trkpt>
      <trkpt lat="43.47752" lon="2.38083">
        <ele>357.20001220703</ele>
        <time>2019-06-02T07:41:29Z</time>
      </trkpt>
      <trkpt lat="43.47756" lon="2.38076">
        <ele>356.79998779297</ele>
        <time>2019-06-02T07:41:35Z</time>
      </trkpt>
      <trkpt lat="43.47758" lon="2.38074">
        <ele>356.60000610352</ele>
        <time>2019-06-02T07:41:37Z</time>
      </trkpt>
      <trkpt lat="43.47759" lon="2.38064">
        <ele>356.39999389648</ele>
        <time>2019-06-02T07:41:43Z</time>
      </trkpt>
      <trkpt lat="43.4776" lon="2.38063">
        <ele>356.60000610352</ele>
        <time>2019-06-02T07:41:45Z</time>
      </trkpt>
      <trkpt lat="43.47762" lon="2.38059">
        <ele>356.79998779297</ele>
        <time>2019-06-02T07:41:48Z</time>
      </trkpt>
      <trkpt lat="43.47765" lon="2.38052">
        <ele>357.60000610352</ele>
        <time>2019-06-02T07:41:56Z</time>
      </trkpt>
      <trkpt lat="43.47765" lon="2.3805">
        <ele>357.60000610352</ele>
        <time>2019-06-02T07:41:57Z</time>
      </trkpt>
      <trkpt lat="43.47767" lon="2.38044">
        <ele>358.20001220703</ele>
        <time>2019-06-02T07:42:03Z</time>
      </trkpt>
      <trkpt lat="43.47767" lon="2.38041">
        <ele>358.79998779297</ele>
        <time>2019-06-02T07:42:05Z</time>
      </trkpt>
      <trkpt lat="43.47767" lon="2.38039">
        <ele>359</ele>
        <time>2019-06-02T07:42:06Z</time>
      </trkpt>
      <trkpt lat="43.4777" lon="2.38036">
        <ele>359.39999389648</ele>
        <time>2019-06-02T07:42:09Z</time>
      </trkpt>
      <trkpt lat="43.47772" lon="2.38033">
        <ele>359.60000610352</ele>
        <time>2019-06-02T07:42:12Z</time>
      </trkpt>
      <trkpt lat="43.47774" lon="2.38026">
        <ele>360.39999389648</ele>
        <time>2019-06-02T07:42:19Z</time>
      </trkpt>
      <trkpt lat="43.47775" lon="2.38019">
        <ele>361.20001220703</ele>
        <time>2019-06-02T07:42:27Z</time>
      </trkpt>
      <trkpt lat="43.47775" lon="2.38016">
        <ele>361.60000610352</ele>
        <time>2019-06-02T07:42:31Z</time>
      </trkpt>
      <trkpt lat="43.47775" lon="2.38016">
        <ele>361.79998779297</ele>
        <time>2019-06-02T07:42:33Z</time>
      </trkpt>
      <trkpt lat="43.47773" lon="2.38014">
        <ele>361.79998779297</ele>
        <time>2019-06-02T07:42:35Z</time>
      </trkpt>
      <trkpt lat="43.47768" lon="2.38012">
        <ele>362.60000610352</ele>
        <time>2019-06-02T07:42:39Z</time>
      </trkpt>
      <trkpt lat="43.47768" lon="2.38012">
        <ele>362.60000610352</ele>
        <time>2019-06-02T07:42:40Z</time>
      </trkpt>
      <trkpt lat="43.47763" lon="2.38012">
        <ele>363.39999389648</ele>
        <time>2019-06-02T07:42:45Z</time>
      </trkpt>
      <trkpt lat="43.47763" lon="2.38009">
        <ele>363.60000610352</ele>
        <time>2019-06-02T07:42:47Z</time>
      </trkpt>
      <trkpt lat="43.47764" lon="2.38007">
        <ele>363.60000610352</ele>
        <time>2019-06-02T07:42:48Z</time>
      </trkpt>
      <trkpt lat="43.47764" lon="2.38006">
        <ele>363.60000610352</ele>
        <time>2019-06-02T07:42:49Z</time>
      </trkpt>
      <trkpt lat="43.47767" lon="2.37999">
        <ele>363.79998779297</ele>
        <time>2019-06-02T07:42:53Z</time>
      </trkpt>
      <trkpt lat="43.47767" lon="2.37998">
        <ele>364</ele>
        <time>2019-06-02T07:42:54Z</time>
      </trkpt>
      <trkpt lat="43.47766" lon="2.37997">
        <ele>364.39999389648</ele>
        <time>2019-06-02T07:42:55Z</time>
      </trkpt>
      <trkpt lat="43.47766" lon="2.37995">
        <ele>364.60000610352</ele>
        <time>2019-06-02T07:42:56Z</time>
      </trkpt>
      <trkpt lat="43.47766" lon="2.37994">
        <ele>365.20001220703</ele>
        <time>2019-06-02T07:42:58Z</time>
      </trkpt>
      <trkpt lat="43.47767" lon="2.37991">
        <ele>365.60000610352</ele>
        <time>2019-06-02T07:43:00Z</time>
      </trkpt>
      <trkpt lat="43.47768" lon="2.3799">
        <ele>365.79998779297</ele>
        <time>2019-06-02T07:43:01Z</time>
      </trkpt>
      <trkpt lat="43.47768" lon="2.37989">
        <ele>366</ele>
        <time>2019-06-02T07:43:02Z</time>
      </trkpt>
      <trkpt lat="43.47766" lon="2.37989">
        <ele>366.79998779297</ele>
        <time>2019-06-02T07:43:07Z</time>
      </trkpt>
      <trkpt lat="43.47766" lon="2.37991">
        <ele>367.20001220703</ele>
        <time>2019-06-02T07:43:10Z</time>
      </trkpt>
      <trkpt lat="43.47766" lon="2.37995">
        <ele>368</ele>
        <time>2019-06-02T07:43:14Z</time>
      </trkpt>
      <trkpt lat="43.47764" lon="2.37998">
        <ele>368.39999389648</ele>
        <time>2019-06-02T07:43:18Z</time>
      </trkpt>
      <trkpt lat="43.47764" lon="2.37999">
        <ele>368.60000610352</ele>
        <time>2019-06-02T07:43:19Z</time>
      </trkpt>
      <trkpt lat="43.47765" lon="2.38">
        <ele>368.79998779297</ele>
        <time>2019-06-02T07:43:21Z</time>
      </trkpt>
      <trkpt lat="43.47765" lon="2.38">
        <ele>369</ele>
        <time>2019-06-02T07:43:22Z</time>
      </trkpt>
      <trkpt lat="43.47766" lon="2.38002">
        <ele>369.39999389648</ele>
        <time>2019-06-02T07:43:26Z</time>
      </trkpt>
      <trkpt lat="43.47769" lon="2.38002">
        <ele>369.79998779297</ele>
        <time>2019-06-02T07:43:28Z</time>
      </trkpt>
      <trkpt lat="43.4777" lon="2.38004">
        <ele>370</ele>
        <time>2019-06-02T07:43:30Z</time>
      </trkpt>
      <trkpt lat="43.47766" lon="2.38008">
        <ele>370.20001220703</ele>
        <time>2019-06-02T07:43:32Z</time>
      </trkpt>
      <trkpt lat="43.47766" lon="2.38009">
        <ele>370.39999389648</ele>
        <time>2019-06-02T07:43:33Z</time>
      </trkpt>
      <trkpt lat="43.4776" lon="2.38014">
        <ele>370.79998779297</ele>
        <time>2019-06-02T07:43:40Z</time>
      </trkpt>
      <trkpt lat="43.47759" lon="2.38016">
        <ele>371.20001220703</ele>
        <time>2019-06-02T07:43:42Z</time>
      </trkpt>
      <trkpt lat="43.47758" lon="2.38017">
        <ele>371.79998779297</ele>
        <time>2019-06-02T07:43:49Z</time>
      </trkpt>
      <trkpt lat="43.47759" lon="2.38019">
        <ele>372.20001220703</ele>
        <time>2019-06-02T07:43:54Z</time>
      </trkpt>
      <trkpt lat="43.47759" lon="2.38019">
        <ele>372.39999389648</ele>
        <time>2019-06-02T07:43:56Z</time>
      </trkpt>
      <trkpt lat="43.47753" lon="2.38021">
        <ele>373.20001220703</ele>
        <time>2019-06-02T07:44:02Z</time>
      </trkpt>
      <trkpt lat="43.47749" lon="2.38025">
        <ele>373.39999389648</ele>
        <time>2019-06-02T07:44:06Z</time>
      </trkpt>
      <trkpt lat="43.47742" lon="2.38026">
        <ele>374.20001220703</ele>
        <time>2019-06-02T07:44:12Z</time>
      </trkpt>
      <trkpt lat="43.47735" lon="2.38032">
        <ele>375</ele>
        <time>2019-06-02T07:44:16Z</time>
      </trkpt>
      <trkpt lat="43.47732" lon="2.38036">
        <ele>375.39999389648</ele>
        <time>2019-06-02T07:44:20Z</time>
      </trkpt>
      <trkpt lat="43.47731" lon="2.38036">
        <ele>375.79998779297</ele>
        <time>2019-06-02T07:44:24Z</time>
      </trkpt>
      <trkpt lat="43.47726" lon="2.38038">
        <ele>376.39999389648</ele>
        <time>2019-06-02T07:44:31Z</time>
      </trkpt>
      <trkpt lat="43.47725" lon="2.38039">
        <ele>376.60000610352</ele>
        <time>2019-06-02T07:44:33Z</time>
      </trkpt>
      <trkpt lat="43.47723" lon="2.38042">
        <ele>377.39999389648</ele>
        <time>2019-06-02T07:44:38Z</time>
      </trkpt>
      <trkpt lat="43.47721" lon="2.38039">
        <ele>377.79998779297</ele>
        <time>2019-06-02T07:44:43Z</time>
      </trkpt>
      <trkpt lat="43.47709" lon="2.3803">
        <ele>378.60000610352</ele>
        <time>2019-06-02T07:44:49Z</time>
      </trkpt>
      <trkpt lat="43.47707" lon="2.38029">
        <ele>378.60000610352</ele>
        <time>2019-06-02T07:44:50Z</time>
      </trkpt>
      <trkpt lat="43.47704" lon="2.38023">
        <ele>379.39999389648</ele>
        <time>2019-06-02T07:44:57Z</time>
      </trkpt>
      <trkpt lat="43.47703" lon="2.38026">
        <ele>379.79998779297</ele>
        <time>2019-06-02T07:44:59Z</time>
      </trkpt>
      <trkpt lat="43.47701" lon="2.38029">
        <ele>380.60000610352</ele>
        <time>2019-06-02T07:45:04Z</time>
      </trkpt>
      <trkpt lat="43.477" lon="2.38028">
        <ele>380.79998779297</ele>
        <time>2019-06-02T07:45:08Z</time>
      </trkpt>
      <trkpt lat="43.47698" lon="2.38026">
        <ele>381.20001220703</ele>
        <time>2019-06-02T07:45:11Z</time>
      </trkpt>
      <trkpt lat="43.47698" lon="2.38023">
        <ele>382</ele>
        <time>2019-06-02T07:45:15Z</time>
      </trkpt>
      <trkpt lat="43.47696" lon="2.38024">
        <ele>382.20001220703</ele>
        <time>2019-06-02T07:45:18Z</time>
      </trkpt>
      <trkpt lat="43.47693" lon="2.38027">
        <ele>382.79998779297</ele>
        <time>2019-06-02T07:45:27Z</time>
      </trkpt>
      <trkpt lat="43.47693" lon="2.38032">
        <ele>383</ele>
        <time>2019-06-02T07:45:29Z</time>
      </trkpt>
      <trkpt lat="43.47695" lon="2.38031">
        <ele>384</ele>
        <time>2019-06-02T07:45:35Z</time>
      </trkpt>
      <trkpt lat="43.47696" lon="2.38029">
        <ele>384.20001220703</ele>
        <time>2019-06-02T07:45:37Z</time>
      </trkpt>
      <trkpt lat="43.47688" lon="2.38027">
        <ele>384.79998779297</ele>
        <time>2019-06-02T07:45:44Z</time>
      </trkpt>
      <trkpt lat="43.47687" lon="2.38023">
        <ele>385.20001220703</ele>
        <time>2019-06-02T07:45:50Z</time>
      </trkpt>
      <trkpt lat="43.47684" lon="2.38023">
        <ele>385.79998779297</ele>
        <time>2019-06-02T07:45:53Z</time>
      </trkpt>
      <trkpt lat="43.47679" lon="2.3803">
        <ele>386.39999389648</ele>
        <time>2019-06-02T07:45:58Z</time>
      </trkpt>
      <trkpt lat="43.47677" lon="2.38032">
        <ele>386.39999389648</ele>
        <time>2019-06-02T07:46:00Z</time>
      </trkpt>
      <trkpt lat="43.4767" lon="2.38035">
        <ele>387.20001220703</ele>
        <time>2019-06-02T07:46:07Z</time>
      </trkpt>
      <trkpt lat="43.4767" lon="2.38035">
        <ele>387.39999389648</ele>
        <time>2019-06-02T07:46:08Z</time>
      </trkpt>
      <trkpt lat="43.47666" lon="2.38035">
        <ele>387.79998779297</ele>
        <time>2019-06-02T07:46:14Z</time>
      </trkpt>
      <trkpt lat="43.47664" lon="2.38036">
        <ele>388.39999389648</ele>
        <time>2019-06-02T07:46:19Z</time>
      </trkpt>
      <trkpt lat="43.47664" lon="2.38035">
        <ele>388.60000610352</ele>
        <time>2019-06-02T07:46:21Z</time>
      </trkpt>
      <trkpt lat="43.47654" lon="2.38044">
        <ele>389.60000610352</ele>
        <time>2019-06-02T07:46:29Z</time>
      </trkpt>
      <trkpt lat="43.47652" lon="2.38042">
        <ele>390.20001220703</ele>
        <time>2019-06-02T07:46:36Z</time>
      </trkpt>
      <trkpt lat="43.47653" lon="2.38037">
        <ele>390.60000610352</ele>
        <time>2019-06-02T07:46:41Z</time>
      </trkpt>
      <trkpt lat="43.47654" lon="2.38032">
        <ele>391.20001220703</ele>
        <time>2019-06-02T07:46:45Z</time>
      </trkpt>
      <trkpt lat="43.47654" lon="2.38031">
        <ele>391.79998779297</ele>
        <time>2019-06-02T07:46:48Z</time>
      </trkpt>
      <trkpt lat="43.4765" lon="2.38026">
        <ele>392.39999389648</ele>
        <time>2019-06-02T07:46:55Z</time>
      </trkpt>
      <trkpt lat="43.47649" lon="2.38023">
        <ele>392.79998779297</ele>
        <time>2019-06-02T07:46:59Z</time>
      </trkpt>
      <trkpt lat="43.47647" lon="2.38021">
        <ele>393.60000610352</ele>
        <time>2019-06-02T07:47:05Z</time>
      </trkpt>
      <trkpt lat="43.47646" lon="2.3802">
        <ele>393.79998779297</ele>
        <time>2019-06-02T07:47:08Z</time>
      </trkpt>
      <trkpt lat="43.47634" lon="2.38018">
        <ele>394.39999389648</ele>
        <time>2019-06-02T07:47:14Z</time>
      </trkpt>
      <trkpt lat="43.47634" lon="2.38019">
        <ele>394.60000610352</ele>
        <time>2019-06-02T07:47:16Z</time>
      </trkpt>
      <trkpt lat="43.4763" lon="2.3802">
        <ele>394.79998779297</ele>
        <time>2019-06-02T07:47:18Z</time>
      </trkpt>
      <trkpt lat="43.47629" lon="2.38019">
        <ele>395</ele>
        <time>2019-06-02T07:47:22Z</time>
      </trkpt>
      <trkpt lat="43.47631" lon="2.38015">
        <ele>395.79998779297</ele>
        <time>2019-06-02T07:47:32Z</time>
      </trkpt>
      <trkpt lat="43.47629" lon="2.38016">
        <ele>396</ele>
        <time>2019-06-02T07:47:35Z</time>
      </trkpt>
      <trkpt lat="43.47628" lon="2.38014">
        <ele>396.60000610352</ele>
        <time>2019-06-02T07:47:41Z</time>
      </trkpt>
      <trkpt lat="43.47627" lon="2.38014">
        <ele>397</ele>
        <time>2019-06-02T07:47:44Z</time>
      </trkpt>
      <trkpt lat="43.47628" lon="2.38011">
        <ele>397.79998779297</ele>
        <time>2019-06-02T07:47:50Z</time>
      </trkpt>
      <trkpt lat="43.47628" lon="2.38009">
        <ele>398</ele>
        <time>2019-06-02T07:47:51Z</time>
      </trkpt>
      <trkpt lat="43.47628" lon="2.38007">
        <ele>398.20001220703</ele>
        <time>2019-06-02T07:47:52Z</time>
      </trkpt>
      <trkpt lat="43.47623" lon="2.38001">
        <ele>398.79998779297</ele>
        <time>2019-06-02T07:47:55Z</time>
      </trkpt>
      <trkpt lat="43.4762" lon="2.38">
        <ele>399</ele>
        <time>2019-06-02T07:47:57Z</time>
      </trkpt>
      <trkpt lat="43.47619" lon="2.38">
        <ele>399</ele>
        <time>2019-06-02T07:47:58Z</time>
      </trkpt>
      <trkpt lat="43.47612" lon="2.38004">
        <ele>399.60000610352</ele>
        <time>2019-06-02T07:48:04Z</time>
      </trkpt>
      <trkpt lat="43.4761" lon="2.38007">
        <ele>400.39999389648</ele>
        <time>2019-06-02T07:48:09Z</time>
      </trkpt>
      <trkpt lat="43.47609" lon="2.38007">
        <ele>400.60000610352</ele>
        <time>2019-06-02T07:48:13Z</time>
      </trkpt>
      <trkpt lat="43.47605" lon="2.38001">
        <ele>401.39999389648</ele>
        <time>2019-06-02T07:48:19Z</time>
      </trkpt>
      <trkpt lat="43.47604" lon="2.37999">
        <ele>401.60000610352</ele>
        <time>2019-06-02T07:48:20Z</time>
      </trkpt>
      <trkpt lat="43.47601" lon="2.37999">
        <ele>402.39999389648</ele>
        <time>2019-06-02T07:48:27Z</time>
      </trkpt>
      <trkpt lat="43.47596" lon="2.38">
        <ele>403</ele>
        <time>2019-06-02T07:48:33Z</time>
      </trkpt>
      <trkpt lat="43.47595" lon="2.37998">
        <ele>403.60000610352</ele>
        <time>2019-06-02T07:48:36Z</time>
      </trkpt>
      <trkpt lat="43.47592" lon="2.37996">
        <ele>404</ele>
        <time>2019-06-02T07:48:40Z</time>
      </trkpt>
      <trkpt lat="43.47586" lon="2.38008">
        <ele>404.60000610352</ele>
        <time>2019-06-02T07:48:45Z</time>
      </trkpt>
      <trkpt lat="43.47585" lon="2.38013">
        <ele>405</ele>
        <time>2019-06-02T07:48:47Z</time>
      </trkpt>
      <trkpt lat="43.47585" lon="2.3801">
        <ele>405.60000610352</ele>
        <time>2019-06-02T07:48:52Z</time>
      </trkpt>
      <trkpt lat="43.47584" lon="2.38008">
        <ele>406</ele>
        <time>2019-06-02T07:48:54Z</time>
      </trkpt>
      <trkpt lat="43.47579" lon="2.38007">
        <ele>406.79998779297</ele>
        <time>2019-06-02T07:49:01Z</time>
      </trkpt>
      <trkpt lat="43.47581" lon="2.38009">
        <ele>406.79998779297</ele>
        <time>2019-06-02T07:49:03Z</time>
      </trkpt>
      <trkpt lat="43.47584" lon="2.38012">
        <ele>407.60000610352</ele>
        <time>2019-06-02T07:49:10Z</time>
      </trkpt>
      <trkpt lat="43.47584" lon="2.38012">
        <ele>407.79998779297</ele>
        <time>2019-06-02T07:49:11Z</time>
      </trkpt>
      <trkpt lat="43.47586" lon="2.38012">
        <ele>408.60000610352</ele>
        <time>2019-06-02T07:49:19Z</time>
      </trkpt>
      <trkpt lat="43.47582" lon="2.38011">
        <ele>409</ele>
        <time>2019-06-02T07:49:22Z</time>
      </trkpt>
      <trkpt lat="43.4758" lon="2.38011">
        <ele>409.39999389648</ele>
        <time>2019-06-02T07:49:26Z</time>
      </trkpt>
      <trkpt lat="43.47583" lon="2.38012">
        <ele>409.39999389648</ele>
        <time>2019-06-02T07:49:29Z</time>
      </trkpt>
      <trkpt lat="43.47585" lon="2.38012">
        <ele>409.60000610352</ele>
        <time>2019-06-02T07:49:33Z</time>
      </trkpt>
      <trkpt lat="43.47587" lon="2.38009">
        <ele>410</ele>
        <time>2019-06-02T07:49:37Z</time>
      </trkpt>
      <trkpt lat="43.47587" lon="2.38006">
        <ele>410.39999389648</ele>
        <time>2019-06-02T07:49:40Z</time>
      </trkpt>
      <trkpt lat="43.47584" lon="2.38002">
        <ele>411</ele>
        <time>2019-06-02T07:49:45Z</time>
      </trkpt>
      <trkpt lat="43.47584" lon="2.37995">
        <ele>411.60000610352</ele>
        <time>2019-06-02T07:49:49Z</time>
      </trkpt>
      <trkpt lat="43.47586" lon="2.37993">
        <ele>411.60000610352</ele>
        <time>2019-06-02T07:49:50Z</time>
      </trkpt>
      <trkpt lat="43.47587" lon="2.37991">
        <ele>412</ele>
        <time>2019-06-02T07:49:54Z</time>
      </trkpt>
      <trkpt lat="43.47584" lon="2.37993">
        <ele>412.39999389648</ele>
        <time>2019-06-02T07:49:56Z</time>
      </trkpt>
      <trkpt lat="43.4758" lon="2.37994">
        <ele>412.79998779297</ele>
        <time>2019-06-02T07:50:01Z</time>
      </trkpt>
      <trkpt lat="43.47578" lon="2.37994">
        <ele>413.20001220703</ele>
        <time>2019-06-02T07:50:03Z</time>
      </trkpt>
      <trkpt lat="43.47578" lon="2.37994">
        <ele>413.39999389648</ele>
        <time>2019-06-02T07:50:04Z</time>
      </trkpt>
      <trkpt lat="43.47579" lon="2.37987">
        <ele>414.20001220703</ele>
        <time>2019-06-02T07:50:10Z</time>
      </trkpt>
      <trkpt lat="43.47579" lon="2.37987">
        <ele>414.60000610352</ele>
        <time>2019-06-02T07:50:12Z</time>
      </trkpt>
      <trkpt lat="43.47582" lon="2.37986">
        <ele>415.20001220703</ele>
        <time>2019-06-02T07:50:17Z</time>
      </trkpt>
      <trkpt lat="43.47583" lon="2.37985">
        <ele>415.39999389648</ele>
        <time>2019-06-02T07:50:18Z</time>
      </trkpt>
      <trkpt lat="43.47586" lon="2.37983">
        <ele>416.20001220703</ele>
        <time>2019-06-02T07:50:26Z</time>
      </trkpt>
      <trkpt lat="43.47588" lon="2.37981">
        <ele>417.39999389648</ele>
        <time>2019-06-02T07:50:32Z</time>
      </trkpt>
      <trkpt lat="43.47589" lon="2.37981">
        <ele>417.60000610352</ele>
        <time>2019-06-02T07:50:34Z</time>
      </trkpt>
      <trkpt lat="43.47592" lon="2.37975">
        <ele>418.20001220703</ele>
        <time>2019-06-02T07:50:41Z</time>
      </trkpt>
      <trkpt lat="43.47593" lon="2.37973">
        <ele>418.39999389648</ele>
        <time>2019-06-02T07:50:44Z</time>
      </trkpt>
      <trkpt lat="43.47594" lon="2.37969">
        <ele>419.39999389648</ele>
        <time>2019-06-02T07:50:50Z</time>
      </trkpt>
      <trkpt lat="43.47596" lon="2.3797">
        <ele>419.60000610352</ele>
        <time>2019-06-02T07:50:51Z</time>
      </trkpt>
      <trkpt lat="43.47595" lon="2.37965">
        <ele>420</ele>
        <time>2019-06-02T07:50:58Z</time>
      </trkpt>
      <trkpt lat="43.47592" lon="2.37969">
        <ele>420.60000610352</ele>
        <time>2019-06-02T07:51:01Z</time>
      </trkpt>
      <trkpt lat="43.4759" lon="2.37965">
        <ele>421</ele>
        <time>2019-06-02T07:51:05Z</time>
      </trkpt>
      <trkpt lat="43.47595" lon="2.37968">
        <ele>421.79998779297</ele>
        <time>2019-06-02T07:51:12Z</time>
      </trkpt>
      <trkpt lat="43.47595" lon="2.37967">
        <ele>422</ele>
        <time>2019-06-02T07:51:14Z</time>
      </trkpt>
      <trkpt lat="43.47602" lon="2.37962">
        <ele>422.60000610352</ele>
        <time>2019-06-02T07:51:19Z</time>
      </trkpt>
      <trkpt lat="43.47605" lon="2.37961">
        <ele>422.79998779297</ele>
        <time>2019-06-02T07:51:21Z</time>
      </trkpt>
      <trkpt lat="43.47611" lon="2.37957">
        <ele>423.20001220703</ele>
        <time>2019-06-02T07:51:27Z</time>
      </trkpt>
      <trkpt lat="43.47614" lon="2.37955">
        <ele>423.79998779297</ele>
        <time>2019-06-02T07:51:32Z</time>
      </trkpt>
      <trkpt lat="43.47613" lon="2.37955">
        <ele>424.20001220703</ele>
        <time>2019-06-02T07:51:34Z</time>
      </trkpt>
      <trkpt lat="43.47601" lon="2.37953">
        <ele>424.79998779297</ele>
        <time>2019-06-02T07:51:41Z</time>
      </trkpt>
      <trkpt lat="43.47602" lon="2.37953">
        <ele>424.79998779297</ele>
        <time>2019-06-02T07:51:42Z</time>
      </trkpt>
      <trkpt lat="43.47605" lon="2.37951">
        <ele>425.79998779297</ele>
        <time>2019-06-02T07:51:52Z</time>
      </trkpt>
      <trkpt lat="43.47607" lon="2.37949">
        <ele>426</ele>
        <time>2019-06-02T07:51:54Z</time>
      </trkpt>
      <trkpt lat="43.47609" lon="2.37946">
        <ele>426.79998779297</ele>
        <time>2019-06-02T07:52:00Z</time>
      </trkpt>
      <trkpt lat="43.47603" lon="2.37943">
        <ele>427.20001220703</ele>
        <time>2019-06-02T07:52:05Z</time>
      </trkpt>
      <trkpt lat="43.47602" lon="2.37941">
        <ele>427.39999389648</ele>
        <time>2019-06-02T07:52:08Z</time>
      </trkpt>
      <trkpt lat="43.47603" lon="2.37951">
        <ele>428.20001220703</ele>
        <time>2019-06-02T07:52:14Z</time>
      </trkpt>
      <trkpt lat="43.47602" lon="2.3795">
        <ele>428.39999389648</ele>
        <time>2019-06-02T07:52:15Z</time>
      </trkpt>
      <trkpt lat="43.47599" lon="2.37951">
        <ele>429.39999389648</ele>
        <time>2019-06-02T07:52:22Z</time>
      </trkpt>
      <trkpt lat="43.47598" lon="2.37952">
        <ele>429.79998779297</ele>
        <time>2019-06-02T07:52:25Z</time>
      </trkpt>
      <trkpt lat="43.47597" lon="2.3795">
        <ele>430.39999389648</ele>
        <time>2019-06-02T07:52:28Z</time>
      </trkpt>
      <trkpt lat="43.47592" lon="2.37956">
        <ele>431</ele>
        <time>2019-06-02T07:52:34Z</time>
      </trkpt>
      <trkpt lat="43.4759" lon="2.37958">
        <ele>431.39999389648</ele>
        <time>2019-06-02T07:52:40Z</time>
      </trkpt>
      <trkpt lat="43.47589" lon="2.37958">
        <ele>431.60000610352</ele>
        <time>2019-06-02T07:52:42Z</time>
      </trkpt>
      <trkpt lat="43.47589" lon="2.37957">
        <ele>432.60000610352</ele>
        <time>2019-06-02T07:52:47Z</time>
      </trkpt>
      <trkpt lat="43.47588" lon="2.37953">
        <ele>433</ele>
        <time>2019-06-02T07:52:52Z</time>
      </trkpt>
      <trkpt lat="43.47583" lon="2.37948">
        <ele>433.79998779297</ele>
        <time>2019-06-02T07:52:58Z</time>
      </trkpt>
      <trkpt lat="43.4758" lon="2.37944">
        <ele>434.79998779297</ele>
        <time>2019-06-02T07:53:04Z</time>
      </trkpt>
      <trkpt lat="43.4758" lon="2.37944">
        <ele>435</ele>
        <time>2019-06-02T07:53:05Z</time>
      </trkpt>
      <trkpt lat="43.4758" lon="2.3794">
        <ele>435.79998779297</ele>
        <time>2019-06-02T07:53:12Z</time>
      </trkpt>
      <trkpt lat="43.47579" lon="2.3794">
        <ele>436</ele>
        <time>2019-06-02T07:53:14Z</time>
      </trkpt>
      <trkpt lat="43.47577" lon="2.37938">
        <ele>436.79998779297</ele>
        <time>2019-06-02T07:53:19Z</time>
      </trkpt>
      <trkpt lat="43.47572" lon="2.3794">
        <ele>437</ele>
        <time>2019-06-02T07:53:22Z</time>
      </trkpt>
      <trkpt lat="43.47569" lon="2.37941">
        <ele>437.60000610352</ele>
        <time>2019-06-02T07:53:27Z</time>
      </trkpt>
      <trkpt lat="43.47566" lon="2.37941">
        <ele>438.20001220703</ele>
        <time>2019-06-02T07:53:33Z</time>
      </trkpt>
      <trkpt lat="43.47566" lon="2.37941">
        <ele>438.39999389648</ele>
        <time>2019-06-02T07:53:34Z</time>
      </trkpt>
      <trkpt lat="43.47569" lon="2.37948">
        <ele>439</ele>
        <time>2019-06-02T07:53:43Z</time>
      </trkpt>
      <trkpt lat="43.47566" lon="2.37946">
        <ele>439.20001220703</ele>
        <time>2019-06-02T07:53:46Z</time>
      </trkpt>
      <trkpt lat="43.47566" lon="2.37944">
        <ele>440</ele>
        <time>2019-06-02T07:53:51Z</time>
      </trkpt>
      <trkpt lat="43.47567" lon="2.37941">
        <ele>440.39999389648</ele>
        <time>2019-06-02T07:53:55Z</time>
      </trkpt>
      <trkpt lat="43.47569" lon="2.37939">
        <ele>440.60000610352</ele>
        <time>2019-06-02T07:53:58Z</time>
      </trkpt>
      <trkpt lat="43.4757" lon="2.37934">
        <ele>441.39999389648</ele>
        <time>2019-06-02T07:54:05Z</time>
      </trkpt>
      <trkpt lat="43.47572" lon="2.37932">
        <ele>441.79998779297</ele>
        <time>2019-06-02T07:54:07Z</time>
      </trkpt>
      <trkpt lat="43.47574" lon="2.37929">
        <ele>442.39999389648</ele>
        <time>2019-06-02T07:54:15Z</time>
      </trkpt>
      <trkpt lat="43.47574" lon="2.37928">
        <ele>443.39999389648</ele>
        <time>2019-06-02T07:54:22Z</time>
      </trkpt>
      <trkpt lat="43.47574" lon="2.37928">
        <ele>443.60000610352</ele>
        <time>2019-06-02T07:54:23Z</time>
      </trkpt>
      <trkpt lat="43.47573" lon="2.3793">
        <ele>444.20001220703</ele>
        <time>2019-06-02T07:54:29Z</time>
      </trkpt>
      <trkpt lat="43.47573" lon="2.37931">
        <ele>444.60000610352</ele>
        <time>2019-06-02T07:54:32Z</time>
      </trkpt>
      <trkpt lat="43.47576" lon="2.3793">
        <ele>445</ele>
        <time>2019-06-02T07:54:36Z</time>
      </trkpt>
      <trkpt lat="43.47583" lon="2.37926">
        <ele>445.60000610352</ele>
        <time>2019-06-02T07:54:44Z</time>
      </trkpt>
      <trkpt lat="43.47584" lon="2.37925">
        <ele>445.79998779297</ele>
        <time>2019-06-02T07:54:45Z</time>
      </trkpt>
      <trkpt lat="43.47586" lon="2.37921">
        <ele>446.60000610352</ele>
        <time>2019-06-02T07:54:51Z</time>
      </trkpt>
      <trkpt lat="43.47586" lon="2.3792">
        <ele>446.60000610352</ele>
        <time>2019-06-02T07:54:52Z</time>
      </trkpt>
      <trkpt lat="43.47586" lon="2.37918">
        <ele>446.79998779297</ele>
        <time>2019-06-02T07:54:54Z</time>
      </trkpt>
      <trkpt lat="43.47584" lon="2.37914">
        <ele>447.60000610352</ele>
        <time>2019-06-02T07:54:59Z</time>
      </trkpt>
      <trkpt lat="43.47583" lon="2.37914">
        <ele>447.79998779297</ele>
        <time>2019-06-02T07:55:01Z</time>
      </trkpt>
      <trkpt lat="43.4758" lon="2.37913">
        <ele>448.60000610352</ele>
        <time>2019-06-02T07:55:06Z</time>
      </trkpt>
      <trkpt lat="43.47578" lon="2.37916">
        <ele>448.79998779297</ele>
        <time>2019-06-02T07:55:10Z</time>
      </trkpt>
      <trkpt lat="43.4758" lon="2.37914">
        <ele>449.60000610352</ele>
        <time>2019-06-02T07:55:15Z</time>
      </trkpt>
      <trkpt lat="43.47581" lon="2.37912">
        <ele>450</ele>
        <time>2019-06-02T07:55:18Z</time>
      </trkpt>
      <trkpt lat="43.47584" lon="2.37909">
        <ele>450.39999389648</ele>
        <time>2019-06-02T07:55:23Z</time>
      </trkpt>
      <trkpt lat="43.47581" lon="2.37904">
        <ele>451</ele>
        <time>2019-06-02T07:55:30Z</time>
      </trkpt>
      <trkpt lat="43.47582" lon="2.37906">
        <ele>451</ele>
        <time>2019-06-02T07:55:36Z</time>
      </trkpt>
      <trkpt lat="43.47582" lon="2.37906">
        <ele>451</ele>
        <time>2019-06-02T07:55:37Z</time>
      </trkpt>
      <trkpt lat="43.47582" lon="2.37905">
        <ele>450.60000610352</ele>
        <time>2019-06-02T07:55:42Z</time>
      </trkpt>
      <trkpt lat="43.47582" lon="2.37904">
        <ele>450.79998779297</ele>
        <time>2019-06-02T07:55:44Z</time>
      </trkpt>
      <trkpt lat="43.47584" lon="2.37901">
        <ele>450.79998779297</ele>
        <time>2019-06-02T07:55:49Z</time>
      </trkpt>
      <trkpt lat="43.47586" lon="2.37901">
        <ele>450.60000610352</ele>
        <time>2019-06-02T07:55:53Z</time>
      </trkpt>
      <trkpt lat="43.47588" lon="2.37902">
        <ele>450.20001220703</ele>
        <time>2019-06-02T07:56:00Z</time>
      </trkpt>
      <trkpt lat="43.4759" lon="2.37905">
        <ele>450.20001220703</ele>
        <time>2019-06-02T07:56:08Z</time>
      </trkpt>
      <trkpt lat="43.4759" lon="2.37904">
        <ele>450.20001220703</ele>
        <time>2019-06-02T07:56:11Z</time>
      </trkpt>
      <trkpt lat="43.47592" lon="2.37903">
        <ele>450.39999389648</ele>
        <time>2019-06-02T07:56:15Z</time>
      </trkpt>
      <trkpt lat="43.47593" lon="2.37903">
        <ele>450.39999389648</ele>
        <time>2019-06-02T07:56:16Z</time>
      </trkpt>
      <trkpt lat="43.47596" lon="2.37904">
        <ele>450.79998779297</ele>
        <time>2019-06-02T07:56:25Z</time>
      </trkpt>
      <trkpt lat="43.47591" lon="2.37905">
        <ele>450.79998779297</ele>
        <time>2019-06-02T07:56:33Z</time>
      </trkpt>
      <trkpt lat="43.47591" lon="2.37904">
        <ele>450.60000610352</ele>
        <time>2019-06-02T07:56:39Z</time>
      </trkpt>
      <trkpt lat="43.47591" lon="2.37904">
        <ele>450.39999389648</ele>
        <time>2019-06-02T07:56:41Z</time>
      </trkpt>
      <trkpt lat="43.47592" lon="2.37904">
        <ele>450.20001220703</ele>
        <time>2019-06-02T07:56:43Z</time>
      </trkpt>
      <trkpt lat="43.47592" lon="2.37902">
        <ele>450.20001220703</ele>
        <time>2019-06-02T07:56:49Z</time>
      </trkpt>
      <trkpt lat="43.47593" lon="2.37901">
        <ele>450</ele>
        <time>2019-06-02T07:56:51Z</time>
      </trkpt>
      <trkpt lat="43.47592" lon="2.37902">
        <ele>449.60000610352</ele>
        <time>2019-06-02T07:56:58Z</time>
      </trkpt>
      <trkpt lat="43.47591" lon="2.37902">
        <ele>449.60000610352</ele>
        <time>2019-06-02T07:57:00Z</time>
      </trkpt>
      <trkpt lat="43.47591" lon="2.37902">
        <ele>449.60000610352</ele>
        <time>2019-06-02T07:57:02Z</time>
      </trkpt>
      <trkpt lat="43.47591" lon="2.37902">
        <ele>449.79998779297</ele>
        <time>2019-06-02T07:57:11Z</time>
      </trkpt>
      <trkpt lat="43.47591" lon="2.37902">
        <ele>449.79998779297</ele>
        <time>2019-06-02T07:57:13Z</time>
      </trkpt>
      <trkpt lat="43.47592" lon="2.37901">
        <ele>449.79998779297</ele>
        <time>2019-06-02T07:57:21Z</time>
      </trkpt>
      <trkpt lat="43.47594" lon="2.37902">
        <ele>449.79998779297</ele>
        <time>2019-06-02T07:57:25Z</time>
      </trkpt>
      <trkpt lat="43.47595" lon="2.37902">
        <ele>449.79998779297</ele>
        <time>2019-06-02T07:57:26Z</time>
      </trkpt>
      <trkpt lat="43.47595" lon="2.37902">
        <ele>450</ele>
        <time>2019-06-02T07:57:30Z</time>
      </trkpt>
      <trkpt lat="43.47595" lon="2.37902">
        <ele>450</ele>
        <time>2019-06-02T07:57:31Z</time>
      </trkpt>
      <trkpt lat="43.47597" lon="2.37902">
        <ele>450</ele>
        <time>2019-06-02T07:57:38Z</time>
      </trkpt>
      <trkpt lat="43.47597" lon="2.37896">
        <ele>449.79998779297</ele>
        <time>2019-06-02T07:57:48Z</time>
      </trkpt>
      <trkpt lat="43.47593" lon="2.37896">
        <ele>449.79998779297</ele>
        <time>2019-06-02T07:57:55Z</time>
      </trkpt>
      <trkpt lat="43.47591" lon="2.37898">
        <ele>450</ele>
        <time>2019-06-02T07:58:09Z</time>
      </trkpt>
      <trkpt lat="43.47593" lon="2.37898">
        <ele>449.79998779297</ele>
        <time>2019-06-02T07:58:16Z</time>
      </trkpt>
      <trkpt lat="43.47593" lon="2.37898">
        <ele>446</ele>
        <time>2019-06-02T07:58:17Z</time>
      </trkpt>
      <trkpt lat="43.47594" lon="2.37898">
        <ele>447.60000610352</ele>
        <time>2019-06-02T07:58:18Z</time>
      </trkpt>
      <trkpt lat="43.47595" lon="2.37899">
        <ele>448.79998779297</ele>
        <time>2019-06-02T07:58:20Z</time>
      </trkpt>
      <trkpt lat="43.47598" lon="2.37899">
        <ele>450</ele>
        <time>2019-06-02T07:58:22Z</time>
      </trkpt>
      <trkpt lat="43.47597" lon="2.37898">
        <ele>449.60000610352</ele>
        <time>2019-06-02T07:58:23Z</time>
      </trkpt>
      <trkpt lat="43.47597" lon="2.37901">
        <ele>449.20001220703</ele>
        <time>2019-06-02T07:58:29Z</time>
      </trkpt>
      <trkpt lat="43.47595" lon="2.37902">
        <ele>449.39999389648</ele>
        <time>2019-06-02T07:58:31Z</time>
      </trkpt>
      <trkpt lat="43.47591" lon="2.37901">
        <ele>449.79998779297</ele>
        <time>2019-06-02T07:58:37Z</time>
      </trkpt>
      <trkpt lat="43.47592" lon="2.37901">
        <ele>449.79998779297</ele>
        <time>2019-06-02T07:58:38Z</time>
      </trkpt>
      <trkpt lat="43.47586" lon="2.37901">
        <ele>449.39999389648</ele>
        <time>2019-06-02T07:58:45Z</time>
      </trkpt>
      <trkpt lat="43.47587" lon="2.37901">
        <ele>449</ele>
        <time>2019-06-02T07:58:48Z</time>
      </trkpt>
      <trkpt lat="43.47587" lon="2.379">
        <ele>449</ele>
        <time>2019-06-02T07:58:49Z</time>
      </trkpt>
      <trkpt lat="43.4759" lon="2.37901">
        <ele>448.79998779297</ele>
        <time>2019-06-02T07:58:52Z</time>
      </trkpt>
      <trkpt lat="43.47594" lon="2.37898">
        <ele>449.79998779297</ele>
        <time>2019-06-02T07:59:01Z</time>
      </trkpt>
      <trkpt lat="43.47594" lon="2.37899">
        <ele>450.20001220703</ele>
        <time>2019-06-02T07:59:03Z</time>
      </trkpt>
      <trkpt lat="43.47596" lon="2.379">
        <ele>451.20001220703</ele>
        <time>2019-06-02T07:59:05Z</time>
      </trkpt>
      <trkpt lat="43.47597" lon="2.379">
        <ele>450</ele>
        <time>2019-06-02T07:59:07Z</time>
      </trkpt>
      <trkpt lat="43.47597" lon="2.37898">
        <ele>451.39999389648</ele>
        <time>2019-06-02T07:59:09Z</time>
      </trkpt>
      <trkpt lat="43.47597" lon="2.37897">
        <ele>452</ele>
        <time>2019-06-02T07:59:11Z</time>
      </trkpt>
      <trkpt lat="43.47597" lon="2.37896">
        <ele>452.60000610352</ele>
        <time>2019-06-02T07:59:13Z</time>
      </trkpt>
      <trkpt lat="43.47601" lon="2.37899">
        <ele>452.20001220703</ele>
        <time>2019-06-02T07:59:17Z</time>
      </trkpt>
      <trkpt lat="43.47604" lon="2.37899">
        <ele>451.79998779297</ele>
        <time>2019-06-02T07:59:24Z</time>
      </trkpt>
      <trkpt lat="43.47601" lon="2.37895">
        <ele>452.79998779297</ele>
        <time>2019-06-02T07:59:28Z</time>
      </trkpt>
      <trkpt lat="43.476" lon="2.37888">
        <ele>453.60000610352</ele>
        <time>2019-06-02T07:59:33Z</time>
      </trkpt>
      <trkpt lat="43.47601" lon="2.37887">
        <ele>454</ele>
        <time>2019-06-02T07:59:34Z</time>
      </trkpt>
      <trkpt lat="43.47601" lon="2.37885">
        <ele>454.79998779297</ele>
        <time>2019-06-02T07:59:36Z</time>
      </trkpt>
      <trkpt lat="43.47601" lon="2.37882">
        <ele>455.60000610352</ele>
        <time>2019-06-02T07:59:40Z</time>
      </trkpt>
      <trkpt lat="43.47602" lon="2.37882">
        <ele>455.79998779297</ele>
        <time>2019-06-02T07:59:42Z</time>
      </trkpt>
      <trkpt lat="43.47607" lon="2.37881">
        <ele>456.20001220703</ele>
        <time>2019-06-02T07:59:47Z</time>
      </trkpt>
      <trkpt lat="43.47609" lon="2.37881">
        <ele>456.60000610352</ele>
        <time>2019-06-02T07:59:49Z</time>
      </trkpt>
      <trkpt lat="43.4761" lon="2.37881">
        <ele>456.79998779297</ele>
        <time>2019-06-02T07:59:50Z</time>
      </trkpt>
      <trkpt lat="43.47612" lon="2.3788">
        <ele>457.79998779297</ele>
        <time>2019-06-02T07:59:55Z</time>
      </trkpt>
      <trkpt lat="43.47614" lon="2.37878">
        <ele>458.39999389648</ele>
        <time>2019-06-02T07:59:58Z</time>
      </trkpt>
      <trkpt lat="43.47611" lon="2.37876">
        <ele>458.79998779297</ele>
        <time>2019-06-02T08:00:01Z</time>
      </trkpt>
      <trkpt lat="43.47613" lon="2.37874">
        <ele>459</ele>
        <time>2019-06-02T08:00:03Z</time>
      </trkpt>
      <trkpt lat="43.47613" lon="2.37873">
        <ele>459</ele>
        <time>2019-06-02T08:00:04Z</time>
      </trkpt>
      <trkpt lat="43.47615" lon="2.37873">
        <ele>460</ele>
        <time>2019-06-02T08:00:09Z</time>
      </trkpt>
      <trkpt lat="43.47617" lon="2.37873">
        <ele>460.39999389648</ele>
        <time>2019-06-02T08:00:11Z</time>
      </trkpt>
      <trkpt lat="43.47616" lon="2.37875">
        <ele>460.60000610352</ele>
        <time>2019-06-02T08:00:15Z</time>
      </trkpt>
      <trkpt lat="43.47613" lon="2.37877">
        <ele>461</ele>
        <time>2019-06-02T08:00:18Z</time>
      </trkpt>
      <trkpt lat="43.47613" lon="2.37878">
        <ele>461.20001220703</ele>
        <time>2019-06-02T08:00:20Z</time>
      </trkpt>
      <trkpt lat="43.47615" lon="2.37882">
        <ele>461.39999389648</ele>
        <time>2019-06-02T08:00:21Z</time>
      </trkpt>
      <trkpt lat="43.47616" lon="2.37881">
        <ele>461.39999389648</ele>
        <time>2019-06-02T08:00:22Z</time>
      </trkpt>
      <trkpt lat="43.4762" lon="2.3788">
        <ele>462</ele>
        <time>2019-06-02T08:00:26Z</time>
      </trkpt>
      <trkpt lat="43.47624" lon="2.37878">
        <ele>462</ele>
        <time>2019-06-02T08:00:30Z</time>
      </trkpt>
      <trkpt lat="43.47629" lon="2.37873">
        <ele>461.79998779297</ele>
        <time>2019-06-02T08:00:35Z</time>
      </trkpt>
      <trkpt lat="43.47629" lon="2.37873">
        <ele>461.79998779297</ele>
        <time>2019-06-02T08:00:38Z</time>
      </trkpt>
      <trkpt lat="43.47629" lon="2.37872">
        <ele>461.79998779297</ele>
        <time>2019-06-02T08:00:41Z</time>
      </trkpt>
      <trkpt lat="43.47629" lon="2.37872">
        <ele>461.79998779297</ele>
        <time>2019-06-02T08:00:43Z</time>
      </trkpt>
      <trkpt lat="43.4763" lon="2.37871">
        <ele>461.79998779297</ele>
        <time>2019-06-02T08:00:44Z</time>
      </trkpt>
      <trkpt lat="43.47631" lon="2.3787">
        <ele>462</ele>
        <time>2019-06-02T08:00:46Z</time>
      </trkpt>
      <trkpt lat="43.47632" lon="2.3787">
        <ele>462.20001220703</ele>
        <time>2019-06-02T08:00:48Z</time>
      </trkpt>
      <trkpt lat="43.47635" lon="2.37869">
        <ele>461.79998779297</ele>
        <time>2019-06-02T08:00:52Z</time>
      </trkpt>
      <trkpt lat="43.47637" lon="2.37869">
        <ele>461.39999389648</ele>
        <time>2019-06-02T08:00:56Z</time>
      </trkpt>
      <trkpt lat="43.47638" lon="2.37869">
        <ele>461.39999389648</ele>
        <time>2019-06-02T08:00:58Z</time>
      </trkpt>
      <trkpt lat="43.47638" lon="2.37877">
        <ele>461.20001220703</ele>
        <time>2019-06-02T08:01:00Z</time>
      </trkpt>
      <trkpt lat="43.47643" lon="2.37883">
        <ele>461</ele>
        <time>2019-06-02T08:01:03Z</time>
      </trkpt>
      <trkpt lat="43.4765" lon="2.37879">
        <ele>460</ele>
        <time>2019-06-02T08:01:08Z</time>
      </trkpt>
      <trkpt lat="43.47653" lon="2.37878">
        <ele>459.39999389648</ele>
        <time>2019-06-02T08:01:12Z</time>
      </trkpt>
      <trkpt lat="43.47654" lon="2.37879">
        <ele>459.39999389648</ele>
        <time>2019-06-02T08:01:13Z</time>
      </trkpt>
      <trkpt lat="43.47655" lon="2.37883">
        <ele>458.60000610352</ele>
        <time>2019-06-02T08:01:18Z</time>
      </trkpt>
      <trkpt lat="43.47655" lon="2.37884">
        <ele>458.20001220703</ele>
        <time>2019-06-02T08:01:19Z</time>
      </trkpt>
      <trkpt lat="43.47654" lon="2.37886">
        <ele>457.60000610352</ele>
        <time>2019-06-02T08:01:24Z</time>
      </trkpt>
      <trkpt lat="43.47657" lon="2.3789">
        <ele>457.39999389648</ele>
        <time>2019-06-02T08:01:25Z</time>
      </trkpt>
      <trkpt lat="43.47655" lon="2.37895">
        <ele>457</ele>
        <time>2019-06-02T08:01:28Z</time>
      </trkpt>
      <trkpt lat="43.47655" lon="2.37895">
        <ele>457</ele>
        <time>2019-06-02T08:01:29Z</time>
      </trkpt>
      <trkpt lat="43.47655" lon="2.37896">
        <ele>457</ele>
        <time>2019-06-02T08:01:31Z</time>
      </trkpt>
      <trkpt lat="43.47654" lon="2.37899">
        <ele>457</ele>
        <time>2019-06-02T08:01:33Z</time>
      </trkpt>
      <trkpt lat="43.47652" lon="2.37899">
        <ele>457</ele>
        <time>2019-06-02T08:01:34Z</time>
      </trkpt>
      <trkpt lat="43.47653" lon="2.37899">
        <ele>457.20001220703</ele>
        <time>2019-06-02T08:01:36Z</time>
      </trkpt>
      <trkpt lat="43.47658" lon="2.37893">
        <ele>457.60000610352</ele>
        <time>2019-06-02T08:01:43Z</time>
      </trkpt>
      <trkpt lat="43.47666" lon="2.37892">
        <ele>458</ele>
        <time>2019-06-02T08:01:49Z</time>
      </trkpt>
      <trkpt lat="43.47664" lon="2.37891">
        <ele>457.79998779297</ele>
        <time>2019-06-02T08:01:53Z</time>
      </trkpt>
      <trkpt lat="43.47663" lon="2.3789">
        <ele>457.79998779297</ele>
        <time>2019-06-02T08:01:54Z</time>
      </trkpt>
      <trkpt lat="43.47662" lon="2.37884">
        <ele>458</ele>
        <time>2019-06-02T08:02:00Z</time>
      </trkpt>
      <trkpt lat="43.47664" lon="2.37883">
        <ele>458.79998779297</ele>
        <time>2019-06-02T08:02:05Z</time>
      </trkpt>
      <trkpt lat="43.47665" lon="2.37882">
        <ele>459.20001220703</ele>
        <time>2019-06-02T08:02:07Z</time>
      </trkpt>
      <trkpt lat="43.47667" lon="2.37884">
        <ele>459.39999389648</ele>
        <time>2019-06-02T08:02:09Z</time>
      </trkpt>
      <trkpt lat="43.4767" lon="2.37885">
        <ele>459.60000610352</ele>
        <time>2019-06-02T08:02:13Z</time>
      </trkpt>
      <trkpt lat="43.47669" lon="2.37886">
        <ele>459.79998779297</ele>
        <time>2019-06-02T08:02:14Z</time>
      </trkpt>
      <trkpt lat="43.47668" lon="2.37886">
        <ele>459.60000610352</ele>
        <time>2019-06-02T08:02:17Z</time>
      </trkpt>
      <trkpt lat="43.47668" lon="2.37886">
        <ele>459.60000610352</ele>
        <time>2019-06-02T08:02:19Z</time>
      </trkpt>
      <trkpt lat="43.47668" lon="2.37886">
        <ele>459.79998779297</ele>
        <time>2019-06-02T08:02:20Z</time>
      </trkpt>
      <trkpt lat="43.47668" lon="2.37886">
        <ele>459.79998779297</ele>
        <time>2019-06-02T08:02:22Z</time>
      </trkpt>
      <trkpt lat="43.47668" lon="2.37885">
        <ele>459.79998779297</ele>
        <time>2019-06-02T08:02:26Z</time>
      </trkpt>
      <trkpt lat="43.47667" lon="2.37885">
        <ele>459.79998779297</ele>
        <time>2019-06-02T08:02:28Z</time>
      </trkpt>
      <trkpt lat="43.47669" lon="2.37884">
        <ele>459.79998779297</ele>
        <time>2019-06-02T08:02:34Z</time>
      </trkpt>
      <trkpt lat="43.4767" lon="2.37884">
        <ele>459.79998779297</ele>
        <time>2019-06-02T08:02:36Z</time>
      </trkpt>
      <trkpt lat="43.47668" lon="2.37881">
        <ele>459.60000610352</ele>
        <time>2019-06-02T08:02:41Z</time>
      </trkpt>
      <trkpt lat="43.47666" lon="2.3788">
        <ele>459.60000610352</ele>
        <time>2019-06-02T08:02:43Z</time>
      </trkpt>
      <trkpt lat="43.47664" lon="2.37875">
        <ele>459.39999389648</ele>
        <time>2019-06-02T08:02:47Z</time>
      </trkpt>
      <trkpt lat="43.47663" lon="2.37871">
        <ele>459.79998779297</ele>
        <time>2019-06-02T08:02:54Z</time>
      </trkpt>
      <trkpt lat="43.47663" lon="2.37871">
        <ele>459.39999389648</ele>
        <time>2019-06-02T08:02:56Z</time>
      </trkpt>
      <trkpt lat="43.47663" lon="2.37871">
        <ele>458.79998779297</ele>
        <time>2019-06-02T08:02:58Z</time>
      </trkpt>
      <trkpt lat="43.47664" lon="2.37871">
        <ele>458.39999389648</ele>
        <time>2019-06-02T08:02:59Z</time>
      </trkpt>
      <trkpt lat="43.47665" lon="2.37871">
        <ele>457.20001220703</ele>
        <time>2019-06-02T08:03:02Z</time>
      </trkpt>
      <trkpt lat="43.47666" lon="2.37871">
        <ele>456.39999389648</ele>
        <time>2019-06-02T08:03:04Z</time>
      </trkpt>
      <trkpt lat="43.47666" lon="2.37871">
        <ele>456</ele>
        <time>2019-06-02T08:03:05Z</time>
      </trkpt>
      <trkpt lat="43.47665" lon="2.3787">
        <ele>455.79998779297</ele>
        <time>2019-06-02T08:03:06Z</time>
      </trkpt>
      <trkpt lat="43.47667" lon="2.37857">
        <ele>455</ele>
        <time>2019-06-02T08:03:09Z</time>
      </trkpt>
      <trkpt lat="43.47667" lon="2.37853">
        <ele>454.79998779297</ele>
        <time>2019-06-02T08:03:12Z</time>
      </trkpt>
      <trkpt lat="43.47668" lon="2.37847">
        <ele>454.39999389648</ele>
        <time>2019-06-02T08:03:19Z</time>
      </trkpt>
      <trkpt lat="43.47666" lon="2.37846">
        <ele>454.39999389648</ele>
        <time>2019-06-02T08:03:25Z</time>
      </trkpt>
      <trkpt lat="43.47665" lon="2.37846">
        <ele>454.39999389648</ele>
        <time>2019-06-02T08:03:28Z</time>
      </trkpt>
      <trkpt lat="43.47662" lon="2.37846">
        <ele>454.39999389648</ele>
        <time>2019-06-02T08:03:31Z</time>
      </trkpt>
      <trkpt lat="43.47662" lon="2.37848">
        <ele>454.20001220703</ele>
        <time>2019-06-02T08:03:37Z</time>
      </trkpt>
      <trkpt lat="43.47661" lon="2.37848">
        <ele>454.20001220703</ele>
        <time>2019-06-02T08:03:44Z</time>
      </trkpt>
      <trkpt lat="43.47661" lon="2.37844">
        <ele>454.20001220703</ele>
        <time>2019-06-02T08:03:49Z</time>
      </trkpt>
      <trkpt lat="43.47663" lon="2.37845">
        <ele>454</ele>
        <time>2019-06-02T08:03:52Z</time>
      </trkpt>
      <trkpt lat="43.47666" lon="2.37847">
        <ele>453.20001220703</ele>
        <time>2019-06-02T08:03:56Z</time>
      </trkpt>
      <trkpt lat="43.47668" lon="2.37846">
        <ele>453.20001220703</ele>
        <time>2019-06-02T08:03:57Z</time>
      </trkpt>
      <trkpt lat="43.47669" lon="2.37846">
        <ele>453</ele>
        <time>2019-06-02T08:03:59Z</time>
      </trkpt>
      <trkpt lat="43.47672" lon="2.37846">
        <ele>451.79998779297</ele>
        <time>2019-06-02T08:04:02Z</time>
      </trkpt>
      <trkpt lat="43.47673" lon="2.37847">
        <ele>451.39999389648</ele>
        <time>2019-06-02T08:04:05Z</time>
      </trkpt>
      <trkpt lat="43.47674" lon="2.37848">
        <ele>450.79998779297</ele>
        <time>2019-06-02T08:04:08Z</time>
      </trkpt>
      <trkpt lat="43.47676" lon="2.37846">
        <ele>450.20001220703</ele>
        <time>2019-06-02T08:04:11Z</time>
      </trkpt>
      <trkpt lat="43.47676" lon="2.37846">
        <ele>450</ele>
        <time>2019-06-02T08:04:12Z</time>
      </trkpt>
      <trkpt lat="43.47676" lon="2.37844">
        <ele>449.79998779297</ele>
        <time>2019-06-02T08:04:14Z</time>
      </trkpt>
      <trkpt lat="43.47675" lon="2.37842">
        <ele>448.79998779297</ele>
        <time>2019-06-02T08:04:18Z</time>
      </trkpt>
      <trkpt lat="43.47675" lon="2.37841">
        <ele>448.60000610352</ele>
        <time>2019-06-02T08:04:19Z</time>
      </trkpt>
      <trkpt lat="43.47672" lon="2.37837">
        <ele>447.79998779297</ele>
        <time>2019-06-02T08:04:25Z</time>
      </trkpt>
      <trkpt lat="43.47672" lon="2.37836">
        <ele>447.60000610352</ele>
        <time>2019-06-02T08:04:26Z</time>
      </trkpt>
      <trkpt lat="43.47673" lon="2.37833">
        <ele>447.20001220703</ele>
        <time>2019-06-02T08:04:28Z</time>
      </trkpt>
      <trkpt lat="43.47673" lon="2.37832">
        <ele>447.20001220703</ele>
        <time>2019-06-02T08:04:30Z</time>
      </trkpt>
      <trkpt lat="43.47674" lon="2.37829">
        <ele>446.39999389648</ele>
        <time>2019-06-02T08:04:33Z</time>
      </trkpt>
      <trkpt lat="43.47673" lon="2.37828">
        <ele>445.60000610352</ele>
        <time>2019-06-02T08:04:36Z</time>
      </trkpt>
      <trkpt lat="43.47673" lon="2.37827">
        <ele>445.60000610352</ele>
        <time>2019-06-02T08:04:37Z</time>
      </trkpt>
      <trkpt lat="43.47673" lon="2.37827">
        <ele>445.39999389648</ele>
        <time>2019-06-02T08:04:38Z</time>
      </trkpt>
      <trkpt lat="43.47674" lon="2.37825">
        <ele>445</ele>
        <time>2019-06-02T08:04:39Z</time>
      </trkpt>
      <trkpt lat="43.47674" lon="2.37821">
        <ele>444.20001220703</ele>
        <time>2019-06-02T08:04:42Z</time>
      </trkpt>
      <trkpt lat="43.47674" lon="2.37821">
        <ele>443.79998779297</ele>
        <time>2019-06-02T08:04:43Z</time>
      </trkpt>
      <trkpt lat="43.47672" lon="2.37818">
        <ele>443.20001220703</ele>
        <time>2019-06-02T08:04:47Z</time>
      </trkpt>
      <trkpt lat="43.47671" lon="2.37816">
        <ele>441.60000610352</ele>
        <time>2019-06-02T08:04:50Z</time>
      </trkpt>
      <trkpt lat="43.4767" lon="2.37812">
        <ele>440.39999389648</ele>
        <time>2019-06-02T08:04:54Z</time>
      </trkpt>
      <trkpt lat="43.4767" lon="2.3781">
        <ele>440.39999389648</ele>
        <time>2019-06-02T08:04:55Z</time>
      </trkpt>
      <trkpt lat="43.4767" lon="2.37809">
        <ele>440.20001220703</ele>
        <time>2019-06-02T08:04:56Z</time>
      </trkpt>
      <trkpt lat="43.4767" lon="2.37807">
        <ele>440.20001220703</ele>
        <time>2019-06-02T08:04:57Z</time>
      </trkpt>
      <trkpt lat="43.47671" lon="2.37804">
        <ele>439.79998779297</ele>
        <time>2019-06-02T08:04:58Z</time>
      </trkpt>
      <trkpt lat="43.47671" lon="2.37801">
        <ele>439.20001220703</ele>
        <time>2019-06-02T08:05:00Z</time>
      </trkpt>
      <trkpt lat="43.4767" lon="2.378">
        <ele>439</ele>
        <time>2019-06-02T08:05:01Z</time>
      </trkpt>
      <trkpt lat="43.4767" lon="2.37797">
        <ele>438</ele>
        <time>2019-06-02T08:05:03Z</time>
      </trkpt>
      <trkpt lat="43.47669" lon="2.37794">
        <ele>437</ele>
        <time>2019-06-02T08:05:07Z</time>
      </trkpt>
      <trkpt lat="43.47669" lon="2.37793">
        <ele>436.79998779297</ele>
        <time>2019-06-02T08:05:08Z</time>
      </trkpt>
      <trkpt lat="43.4767" lon="2.37792">
        <ele>436</ele>
        <time>2019-06-02T08:05:11Z</time>
      </trkpt>
      <trkpt lat="43.47671" lon="2.37788">
        <ele>435</ele>
        <time>2019-06-02T08:05:15Z</time>
      </trkpt>
      <trkpt lat="43.47671" lon="2.37788">
        <ele>434.79998779297</ele>
        <time>2019-06-02T08:05:16Z</time>
      </trkpt>
      <trkpt lat="43.47674" lon="2.37789">
        <ele>434.20001220703</ele>
        <time>2019-06-02T08:05:23Z</time>
      </trkpt>
      <trkpt lat="43.47676" lon="2.3779">
        <ele>434</ele>
        <time>2019-06-02T08:05:26Z</time>
      </trkpt>
      <trkpt lat="43.47676" lon="2.37791">
        <ele>433.60000610352</ele>
        <time>2019-06-02T08:05:27Z</time>
      </trkpt>
      <trkpt lat="43.47676" lon="2.37792">
        <ele>433.39999389648</ele>
        <time>2019-06-02T08:05:28Z</time>
      </trkpt>
      <trkpt lat="43.47676" lon="2.37793">
        <ele>433.39999389648</ele>
        <time>2019-06-02T08:05:29Z</time>
      </trkpt>
      <trkpt lat="43.47677" lon="2.37795">
        <ele>433.20001220703</ele>
        <time>2019-06-02T08:05:30Z</time>
      </trkpt>
      <trkpt lat="43.4768" lon="2.37803">
        <ele>432.79998779297</ele>
        <time>2019-06-02T08:05:35Z</time>
      </trkpt>
      <trkpt lat="43.47684" lon="2.37809">
        <ele>432.79998779297</ele>
        <time>2019-06-02T08:05:40Z</time>
      </trkpt>
      <trkpt lat="43.47684" lon="2.3781">
        <ele>432.79998779297</ele>
        <time>2019-06-02T08:05:41Z</time>
      </trkpt>
      <trkpt lat="43.47686" lon="2.37812">
        <ele>432.60000610352</ele>
        <time>2019-06-02T08:05:43Z</time>
      </trkpt>
      <trkpt lat="43.47687" lon="2.37814">
        <ele>432.39999389648</ele>
        <time>2019-06-02T08:05:45Z</time>
      </trkpt>
      <trkpt lat="43.47688" lon="2.37816">
        <ele>432</ele>
        <time>2019-06-02T08:05:48Z</time>
      </trkpt>
      <trkpt lat="43.47689" lon="2.37818">
        <ele>431.60000610352</ele>
        <time>2019-06-02T08:05:51Z</time>
      </trkpt>
      <trkpt lat="43.47691" lon="2.37822">
        <ele>431</ele>
        <time>2019-06-02T08:05:55Z</time>
      </trkpt>
      <trkpt lat="43.47691" lon="2.37824">
        <ele>430.20001220703</ele>
        <time>2019-06-02T08:05:57Z</time>
      </trkpt>
      <trkpt lat="43.47692" lon="2.37826">
        <ele>429.60000610352</ele>
        <time>2019-06-02T08:06:00Z</time>
      </trkpt>
      <trkpt lat="43.47691" lon="2.37827">
        <ele>429.39999389648</ele>
        <time>2019-06-02T08:06:01Z</time>
      </trkpt>
      <trkpt lat="43.47694" lon="2.37827">
        <ele>429.20001220703</ele>
        <time>2019-06-02T08:06:03Z</time>
      </trkpt>
      <trkpt lat="43.47695" lon="2.37828">
        <ele>429</ele>
        <time>2019-06-02T08:06:04Z</time>
      </trkpt>
      <trkpt lat="43.47697" lon="2.37829">
        <ele>428.39999389648</ele>
        <time>2019-06-02T08:06:06Z</time>
      </trkpt>
      <trkpt lat="43.47698" lon="2.37831">
        <ele>428</ele>
        <time>2019-06-02T08:06:07Z</time>
      </trkpt>
      <trkpt lat="43.47701" lon="2.37833">
        <ele>426.60000610352</ele>
        <time>2019-06-02T08:06:11Z</time>
      </trkpt>
      <trkpt lat="43.47702" lon="2.37834">
        <ele>426.20001220703</ele>
        <time>2019-06-02T08:06:12Z</time>
      </trkpt>
      <trkpt lat="43.47703" lon="2.37837">
        <ele>425.39999389648</ele>
        <time>2019-06-02T08:06:15Z</time>
      </trkpt>
      <trkpt lat="43.47704" lon="2.37839">
        <ele>425.20001220703</ele>
        <time>2019-06-02T08:06:16Z</time>
      </trkpt>
      <trkpt lat="43.47707" lon="2.37841">
        <ele>424.39999389648</ele>
        <time>2019-06-02T08:06:19Z</time>
      </trkpt>
      <trkpt lat="43.47708" lon="2.37842">
        <ele>424.39999389648</ele>
        <time>2019-06-02T08:06:20Z</time>
      </trkpt>
      <trkpt lat="43.47712" lon="2.37844">
        <ele>423.20001220703</ele>
        <time>2019-06-02T08:06:26Z</time>
      </trkpt>
      <trkpt lat="43.47712" lon="2.37844">
        <ele>423</ele>
        <time>2019-06-02T08:06:28Z</time>
      </trkpt>
      <trkpt lat="43.47711" lon="2.37841">
        <ele>422.20001220703</ele>
        <time>2019-06-02T08:06:32Z</time>
      </trkpt>
      <trkpt lat="43.4771" lon="2.37839">
        <ele>421</ele>
        <time>2019-06-02T08:06:35Z</time>
      </trkpt>
      <trkpt lat="43.47708" lon="2.37839">
        <ele>420.79998779297</ele>
        <time>2019-06-02T08:06:36Z</time>
      </trkpt>
      <trkpt lat="43.47709" lon="2.3784">
        <ele>420</ele>
        <time>2019-06-02T08:06:40Z</time>
      </trkpt>
      <trkpt lat="43.47709" lon="2.3784">
        <ele>419.79998779297</ele>
        <time>2019-06-02T08:06:41Z</time>
      </trkpt>
      <trkpt lat="43.47711" lon="2.3784">
        <ele>419</ele>
        <time>2019-06-02T08:06:44Z</time>
      </trkpt>
      <trkpt lat="43.47712" lon="2.3784">
        <ele>418.79998779297</ele>
        <time>2019-06-02T08:06:45Z</time>
      </trkpt>
      <trkpt lat="43.47715" lon="2.37841">
        <ele>417.60000610352</ele>
        <time>2019-06-02T08:06:48Z</time>
      </trkpt>
      <trkpt lat="43.47716" lon="2.37842">
        <ele>416.79998779297</ele>
        <time>2019-06-02T08:06:51Z</time>
      </trkpt>
      <trkpt lat="43.47717" lon="2.37841">
        <ele>416.60000610352</ele>
        <time>2019-06-02T08:06:52Z</time>
      </trkpt>
      <trkpt lat="43.47718" lon="2.3784">
        <ele>415.60000610352</ele>
        <time>2019-06-02T08:06:55Z</time>
      </trkpt>
      <trkpt lat="43.47719" lon="2.3784">
        <ele>415.39999389648</ele>
        <time>2019-06-02T08:06:56Z</time>
      </trkpt>
      <trkpt lat="43.47721" lon="2.37839">
        <ele>414.79998779297</ele>
        <time>2019-06-02T08:06:59Z</time>
      </trkpt>
      <trkpt lat="43.47723" lon="2.37837">
        <ele>414.20001220703</ele>
        <time>2019-06-02T08:07:01Z</time>
      </trkpt>
      <trkpt lat="43.47725" lon="2.37836">
        <ele>413.39999389648</ele>
        <time>2019-06-02T08:07:04Z</time>
      </trkpt>
      <trkpt lat="43.47726" lon="2.37834">
        <ele>413.39999389648</ele>
        <time>2019-06-02T08:07:06Z</time>
      </trkpt>
      <trkpt lat="43.47729" lon="2.37833">
        <ele>413</ele>
        <time>2019-06-02T08:07:08Z</time>
      </trkpt>
      <trkpt lat="43.47732" lon="2.37833">
        <ele>412</ele>
        <time>2019-06-02T08:07:11Z</time>
      </trkpt>
      <trkpt lat="43.47733" lon="2.37832">
        <ele>411.79998779297</ele>
        <time>2019-06-02T08:07:12Z</time>
      </trkpt>
      <trkpt lat="43.47737" lon="2.37831">
        <ele>410.60000610352</ele>
        <time>2019-06-02T08:07:16Z</time>
      </trkpt>
      <trkpt lat="43.47738" lon="2.37831">
        <ele>410.39999389648</ele>
        <time>2019-06-02T08:07:17Z</time>
      </trkpt>
      <trkpt lat="43.4774" lon="2.3783">
        <ele>410</ele>
        <time>2019-06-02T08:07:20Z</time>
      </trkpt>
      <trkpt lat="43.47741" lon="2.37827">
        <ele>409.60000610352</ele>
        <time>2019-06-02T08:07:22Z</time>
      </trkpt>
      <trkpt lat="43.47742" lon="2.37826">
        <ele>409.20001220703</ele>
        <time>2019-06-02T08:07:23Z</time>
      </trkpt>
      <trkpt lat="43.47745" lon="2.37821">
        <ele>408.20001220703</ele>
        <time>2019-06-02T08:07:28Z</time>
      </trkpt>
      <trkpt lat="43.47748" lon="2.37816">
        <ele>408</ele>
        <time>2019-06-02T08:07:33Z</time>
      </trkpt>
      <trkpt lat="43.47748" lon="2.37816">
        <ele>408</ele>
        <time>2019-06-02T08:07:34Z</time>
      </trkpt>
      <trkpt lat="43.47752" lon="2.37811">
        <ele>407.79998779297</ele>
        <time>2019-06-02T08:07:40Z</time>
      </trkpt>
      <trkpt lat="43.47751" lon="2.37811">
        <ele>407.39999389648</ele>
        <time>2019-06-02T08:07:49Z</time>
      </trkpt>
      <trkpt lat="43.47751" lon="2.37811">
        <ele>407.39999389648</ele>
        <time>2019-06-02T08:07:54Z</time>
      </trkpt>
      <trkpt lat="43.47751" lon="2.37811">
        <ele>407.39999389648</ele>
        <time>2019-06-02T08:07:55Z</time>
      </trkpt>
      <trkpt lat="43.47751" lon="2.37811">
        <ele>407.39999389648</ele>
        <time>2019-06-02T08:07:56Z</time>
      </trkpt>
      <trkpt lat="43.47751" lon="2.37811">
        <ele>407.20001220703</ele>
        <time>2019-06-02T08:07:59Z</time>
      </trkpt>
      <trkpt lat="43.47751" lon="2.37811">
        <ele>407.20001220703</ele>
        <time>2019-06-02T08:08:01Z</time>
      </trkpt>
      <trkpt lat="43.47751" lon="2.37811">
        <ele>407.20001220703</ele>
        <time>2019-06-02T08:08:02Z</time>
      </trkpt>
      <trkpt lat="43.47751" lon="2.37812">
        <ele>407.20001220703</ele>
        <time>2019-06-02T08:08:04Z</time>
      </trkpt>
      <trkpt lat="43.47751" lon="2.37812">
        <ele>406.39999389648</ele>
        <time>2019-06-02T08:08:13Z</time>
      </trkpt>
      <trkpt lat="43.47751" lon="2.37812">
        <ele>406.20001220703</ele>
        <time>2019-06-02T08:08:21Z</time>
      </trkpt>
      <trkpt lat="43.47751" lon="2.37812">
        <ele>406.60000610352</ele>
        <time>2019-06-02T08:08:31Z</time>
      </trkpt>
      <trkpt lat="43.47751" lon="2.37812">
        <ele>406.39999389648</ele>
        <time>2019-06-02T08:08:33Z</time>
      </trkpt>
      <trkpt lat="43.47751" lon="2.37813">
        <ele>406.20001220703</ele>
        <time>2019-06-02T08:08:37Z</time>
      </trkpt>
      <trkpt lat="43.4775" lon="2.37813">
        <ele>406.39999389648</ele>
        <time>2019-06-02T08:08:41Z</time>
      </trkpt>
      <trkpt lat="43.4775" lon="2.37813">
        <ele>406.60000610352</ele>
        <time>2019-06-02T08:08:46Z</time>
      </trkpt>
      <trkpt lat="43.4775" lon="2.37813">
        <ele>406</ele>
        <time>2019-06-02T08:08:52Z</time>
      </trkpt>
      <trkpt lat="43.47749" lon="2.37814">
        <ele>406.60000610352</ele>
        <time>2019-06-02T08:09:11Z</time>
      </trkpt>
      <trkpt lat="43.47749" lon="2.37814">
        <ele>406.79998779297</ele>
        <time>2019-06-02T08:09:19Z</time>
      </trkpt>
      <trkpt lat="43.47749" lon="2.37814">
        <ele>406.79998779297</ele>
        <time>2019-06-02T08:09:27Z</time>
      </trkpt>
      <trkpt lat="43.47749" lon="2.37814">
        <ele>406.79998779297</ele>
        <time>2019-06-02T08:09:33Z</time>
      </trkpt>
      <trkpt lat="43.47749" lon="2.37814">
        <ele>407.20001220703</ele>
        <time>2019-06-02T08:09:35Z</time>
      </trkpt>
      <trkpt lat="43.47749" lon="2.37814">
        <ele>407.20001220703</ele>
        <time>2019-06-02T08:09:38Z</time>
      </trkpt>
      <trkpt lat="43.47749" lon="2.37814">
        <ele>406.60000610352</ele>
        <time>2019-06-02T08:09:40Z</time>
      </trkpt>
      <trkpt lat="43.47749" lon="2.37815">
        <ele>406.60000610352</ele>
        <time>2019-06-02T08:09:42Z</time>
      </trkpt>
      <trkpt lat="43.47748" lon="2.37817">
        <ele>406.60000610352</ele>
        <time>2019-06-02T08:09:48Z</time>
      </trkpt>
      <trkpt lat="43.4775" lon="2.37817">
        <ele>406.60000610352</ele>
        <time>2019-06-02T08:09:49Z</time>
      </trkpt>
      <trkpt lat="43.4775" lon="2.37819">
        <ele>406.79998779297</ele>
        <time>2019-06-02T08:09:53Z</time>
      </trkpt>
      <trkpt lat="43.47748" lon="2.37826">
        <ele>406.20001220703</ele>
        <time>2019-06-02T08:10:11Z</time>
      </trkpt>
      <trkpt lat="43.47745" lon="2.37831">
        <ele>406.60000610352</ele>
        <time>2019-06-02T08:10:17Z</time>
      </trkpt>
      <trkpt lat="43.47742" lon="2.37831">
        <ele>406.79998779297</ele>
        <time>2019-06-02T08:10:20Z</time>
      </trkpt>
      <trkpt lat="43.47739" lon="2.37833">
        <ele>407.79998779297</ele>
        <time>2019-06-02T08:10:25Z</time>
      </trkpt>
      <trkpt lat="43.47735" lon="2.37833">
        <ele>408.20001220703</ele>
        <time>2019-06-02T08:10:28Z</time>
      </trkpt>
      <trkpt lat="43.47733" lon="2.37833">
        <ele>408.20001220703</ele>
        <time>2019-06-02T08:10:30Z</time>
      </trkpt>
      <trkpt lat="43.4773" lon="2.37836">
        <ele>408.60000610352</ele>
        <time>2019-06-02T08:10:33Z</time>
      </trkpt>
      <trkpt lat="43.47729" lon="2.37835">
        <ele>409.20001220703</ele>
        <time>2019-06-02T08:10:39Z</time>
      </trkpt>
      <trkpt lat="43.47729" lon="2.37835">
        <ele>409.20001220703</ele>
        <time>2019-06-02T08:10:40Z</time>
      </trkpt>
      <trkpt lat="43.47729" lon="2.37836">
        <ele>409.39999389648</ele>
        <time>2019-06-02T08:10:45Z</time>
      </trkpt>
      <trkpt lat="43.47725" lon="2.37836">
        <ele>410.20001220703</ele>
        <time>2019-06-02T08:10:48Z</time>
      </trkpt>
      <trkpt lat="43.47724" lon="2.37837">
        <ele>410.60000610352</ele>
        <time>2019-06-02T08:10:51Z</time>
      </trkpt>
      <trkpt lat="43.47722" lon="2.37837">
        <ele>411.20001220703</ele>
        <time>2019-06-02T08:10:57Z</time>
      </trkpt>
      <trkpt lat="43.47721" lon="2.3784">
        <ele>412.39999389648</ele>
        <time>2019-06-02T08:11:02Z</time>
      </trkpt>
      <trkpt lat="43.47721" lon="2.3784">
        <ele>412.60000610352</ele>
        <time>2019-06-02T08:11:04Z</time>
      </trkpt>
      <trkpt lat="43.4772" lon="2.37838">
        <ele>412.60000610352</ele>
        <time>2019-06-02T08:11:05Z</time>
      </trkpt>
      <trkpt lat="43.4772" lon="2.37837">
        <ele>413</ele>
        <time>2019-06-02T08:11:07Z</time>
      </trkpt>
      <trkpt lat="43.47718" lon="2.37836">
        <ele>413.39999389648</ele>
        <time>2019-06-02T08:11:10Z</time>
      </trkpt>
      <trkpt lat="43.47719" lon="2.37831">
        <ele>413.39999389648</ele>
        <time>2019-06-02T08:11:12Z</time>
      </trkpt>
      <trkpt lat="43.47719" lon="2.37834">
        <ele>413.20001220703</ele>
        <time>2019-06-02T08:11:20Z</time>
      </trkpt>
      <trkpt lat="43.47719" lon="2.37834">
        <ele>413.20001220703</ele>
        <time>2019-06-02T08:11:21Z</time>
      </trkpt>
      <trkpt lat="43.47719" lon="2.37834">
        <ele>413.39999389648</ele>
        <time>2019-06-02T08:11:22Z</time>
      </trkpt>
      <trkpt lat="43.47719" lon="2.37834">
        <ele>413.60000610352</ele>
        <time>2019-06-02T08:11:23Z</time>
      </trkpt>
      <trkpt lat="43.47718" lon="2.37834">
        <ele>414</ele>
        <time>2019-06-02T08:11:26Z</time>
      </trkpt>
      <trkpt lat="43.47717" lon="2.37835">
        <ele>414</ele>
        <time>2019-06-02T08:11:28Z</time>
      </trkpt>
      <trkpt lat="43.47716" lon="2.37835">
        <ele>414</ele>
        <time>2019-06-02T08:11:30Z</time>
      </trkpt>
      <trkpt lat="43.47715" lon="2.37836">
        <ele>414</ele>
        <time>2019-06-02T08:11:32Z</time>
      </trkpt>
      <trkpt lat="43.47715" lon="2.37836">
        <ele>414.20001220703</ele>
        <time>2019-06-02T08:11:34Z</time>
      </trkpt>
      <trkpt lat="43.47713" lon="2.37835">
        <ele>414.39999389648</ele>
        <time>2019-06-02T08:11:39Z</time>
      </trkpt>
      <trkpt lat="43.47712" lon="2.37836">
        <ele>414.60000610352</ele>
        <time>2019-06-02T08:11:40Z</time>
      </trkpt>
      <trkpt lat="43.47711" lon="2.37836">
        <ele>414.79998779297</ele>
        <time>2019-06-02T08:11:41Z</time>
      </trkpt>
      <trkpt lat="43.47707" lon="2.37835">
        <ele>415.39999389648</ele>
        <time>2019-06-02T08:11:44Z</time>
      </trkpt>
      <trkpt lat="43.47706" lon="2.37834">
        <ele>415.60000610352</ele>
        <time>2019-06-02T08:11:45Z</time>
      </trkpt>
      <trkpt lat="43.47705" lon="2.37836">
        <ele>416.20001220703</ele>
        <time>2019-06-02T08:11:48Z</time>
      </trkpt>
      <trkpt lat="43.47706" lon="2.37838">
        <ele>416.60000610352</ele>
        <time>2019-06-02T08:11:52Z</time>
      </trkpt>
      <trkpt lat="43.47706" lon="2.37841">
        <ele>417</ele>
        <time>2019-06-02T08:11:56Z</time>
      </trkpt>
      <trkpt lat="43.47707" lon="2.37844">
        <ele>417.60000610352</ele>
        <time>2019-06-02T08:12:02Z</time>
      </trkpt>
      <trkpt lat="43.47711" lon="2.37845">
        <ele>418</ele>
        <time>2019-06-02T08:12:05Z</time>
      </trkpt>
      <trkpt lat="43.4771" lon="2.37847">
        <ele>418.39999389648</ele>
        <time>2019-06-02T08:12:10Z</time>
      </trkpt>
      <trkpt lat="43.47709" lon="2.37849">
        <ele>418.79998779297</ele>
        <time>2019-06-02T08:12:13Z</time>
      </trkpt>
      <trkpt lat="43.47709" lon="2.37847">
        <ele>419.39999389648</ele>
        <time>2019-06-02T08:12:17Z</time>
      </trkpt>
      <trkpt lat="43.47708" lon="2.37845">
        <ele>419.39999389648</ele>
        <time>2019-06-02T08:12:20Z</time>
      </trkpt>
      <trkpt lat="43.47707" lon="2.37844">
        <ele>419.60000610352</ele>
        <time>2019-06-02T08:12:23Z</time>
      </trkpt>
      <trkpt lat="43.47706" lon="2.37843">
        <ele>419.79998779297</ele>
        <time>2019-06-02T08:12:25Z</time>
      </trkpt>
      <trkpt lat="43.47704" lon="2.37843">
        <ele>420</ele>
        <time>2019-06-02T08:12:29Z</time>
      </trkpt>
      <trkpt lat="43.47704" lon="2.37843">
        <ele>420</ele>
        <time>2019-06-02T08:12:31Z</time>
      </trkpt>
      <trkpt lat="43.47701" lon="2.37841">
        <ele>420.39999389648</ele>
        <time>2019-06-02T08:12:38Z</time>
      </trkpt>
      <trkpt lat="43.47701" lon="2.3784">
        <ele>420.79998779297</ele>
        <time>2019-06-02T08:12:40Z</time>
      </trkpt>
      <trkpt lat="43.477" lon="2.37837">
        <ele>421.60000610352</ele>
        <time>2019-06-02T08:12:46Z</time>
      </trkpt>
      <trkpt lat="43.47699" lon="2.37834">
        <ele>421.79998779297</ele>
        <time>2019-06-02T08:12:48Z</time>
      </trkpt>
      <trkpt lat="43.47694" lon="2.37829">
        <ele>422.60000610352</ele>
        <time>2019-06-02T08:12:54Z</time>
      </trkpt>
      <trkpt lat="43.47693" lon="2.37828">
        <ele>423</ele>
        <time>2019-06-02T08:12:56Z</time>
      </trkpt>
      <trkpt lat="43.47693" lon="2.37827">
        <ele>423.60000610352</ele>
        <time>2019-06-02T08:13:01Z</time>
      </trkpt>
      <trkpt lat="43.47691" lon="2.37826">
        <ele>424</ele>
        <time>2019-06-02T08:13:04Z</time>
      </trkpt>
      <trkpt lat="43.47687" lon="2.37826">
        <ele>424.60000610352</ele>
        <time>2019-06-02T08:13:09Z</time>
      </trkpt>
      <trkpt lat="43.47687" lon="2.37826">
        <ele>425.20001220703</ele>
        <time>2019-06-02T08:13:12Z</time>
      </trkpt>
      <trkpt lat="43.47685" lon="2.37823">
        <ele>426.20001220703</ele>
        <time>2019-06-02T08:13:17Z</time>
      </trkpt>
      <trkpt lat="43.47684" lon="2.37821">
        <ele>426.79998779297</ele>
        <time>2019-06-02T08:13:24Z</time>
      </trkpt>
      <trkpt lat="43.47681" lon="2.37821">
        <ele>427.20001220703</ele>
        <time>2019-06-02T08:13:27Z</time>
      </trkpt>
      <trkpt lat="43.47678" lon="2.37817">
        <ele>428.20001220703</ele>
        <time>2019-06-02T08:13:33Z</time>
      </trkpt>
      <trkpt lat="43.47677" lon="2.37817">
        <ele>428.20001220703</ele>
        <time>2019-06-02T08:13:34Z</time>
      </trkpt>
      <trkpt lat="43.47675" lon="2.37816">
        <ele>428.20001220703</ele>
        <time>2019-06-02T08:13:37Z</time>
      </trkpt>
      <trkpt lat="43.47675" lon="2.37813">
        <ele>428.39999389648</ele>
        <time>2019-06-02T08:13:39Z</time>
      </trkpt>
      <trkpt lat="43.47675" lon="2.37809">
        <ele>428.60000610352</ele>
        <time>2019-06-02T08:13:42Z</time>
      </trkpt>
      <trkpt lat="43.47675" lon="2.37802">
        <ele>428.60000610352</ele>
        <time>2019-06-02T08:13:47Z</time>
      </trkpt>
      <trkpt lat="43.47677" lon="2.37796">
        <ele>428.60000610352</ele>
        <time>2019-06-02T08:13:54Z</time>
      </trkpt>
      <trkpt lat="43.47676" lon="2.37792">
        <ele>428.79998779297</ele>
        <time>2019-06-02T08:14:01Z</time>
      </trkpt>
      <trkpt lat="43.47676" lon="2.37792">
        <ele>429</ele>
        <time>2019-06-02T08:14:02Z</time>
      </trkpt>
      <trkpt lat="43.47675" lon="2.37792">
        <ele>429.60000610352</ele>
        <time>2019-06-02T08:14:04Z</time>
      </trkpt>
      <trkpt lat="43.47674" lon="2.37795">
        <ele>430.60000610352</ele>
        <time>2019-06-02T08:14:09Z</time>
      </trkpt>
      <trkpt lat="43.47674" lon="2.37795">
        <ele>430.60000610352</ele>
        <time>2019-06-02T08:14:10Z</time>
      </trkpt>
      <trkpt lat="43.47674" lon="2.37799">
        <ele>431.39999389648</ele>
        <time>2019-06-02T08:14:16Z</time>
      </trkpt>
      <trkpt lat="43.47673" lon="2.37799">
        <ele>431.60000610352</ele>
        <time>2019-06-02T08:14:17Z</time>
      </trkpt>
      <trkpt lat="43.47675" lon="2.37802">
        <ele>432.60000610352</ele>
        <time>2019-06-02T08:14:22Z</time>
      </trkpt>
      <trkpt lat="43.47675" lon="2.37803">
        <ele>432.79998779297</ele>
        <time>2019-06-02T08:14:23Z</time>
      </trkpt>
      <trkpt lat="43.47674" lon="2.37808">
        <ele>433.60000610352</ele>
        <time>2019-06-02T08:14:31Z</time>
      </trkpt>
      <trkpt lat="43.47674" lon="2.37808">
        <ele>433.79998779297</ele>
        <time>2019-06-02T08:14:32Z</time>
      </trkpt>
      <trkpt lat="43.47673" lon="2.37809">
        <ele>434</ele>
        <time>2019-06-02T08:14:33Z</time>
      </trkpt>
      <trkpt lat="43.47673" lon="2.37812">
        <ele>434.39999389648</ele>
        <time>2019-06-02T08:14:37Z</time>
      </trkpt>
      <trkpt lat="43.47673" lon="2.37814">
        <ele>434.79998779297</ele>
        <time>2019-06-02T08:14:40Z</time>
      </trkpt>
      <trkpt lat="43.47672" lon="2.37818">
        <ele>436</ele>
        <time>2019-06-02T08:14:46Z</time>
      </trkpt>
      <trkpt lat="43.47673" lon="2.37819">
        <ele>436</ele>
        <time>2019-06-02T08:14:47Z</time>
      </trkpt>
      <trkpt lat="43.47673" lon="2.37822">
        <ele>436.39999389648</ele>
        <time>2019-06-02T08:14:50Z</time>
      </trkpt>
      <trkpt lat="43.47671" lon="2.37823">
        <ele>437</ele>
        <time>2019-06-02T08:14:52Z</time>
      </trkpt>
      <trkpt lat="43.47671" lon="2.37824">
        <ele>437.39999389648</ele>
        <time>2019-06-02T08:14:53Z</time>
      </trkpt>
      <trkpt lat="43.4767" lon="2.37825">
        <ele>437.60000610352</ele>
        <time>2019-06-02T08:14:55Z</time>
      </trkpt>
      <trkpt lat="43.4767" lon="2.37825">
        <ele>437.79998779297</ele>
        <time>2019-06-02T08:14:57Z</time>
      </trkpt>
      <trkpt lat="43.47671" lon="2.37826">
        <ele>438</ele>
        <time>2019-06-02T08:15:00Z</time>
      </trkpt>
      <trkpt lat="43.4767" lon="2.37826">
        <ele>438.20001220703</ele>
        <time>2019-06-02T08:15:01Z</time>
      </trkpt>
      <trkpt lat="43.47669" lon="2.37826">
        <ele>438.39999389648</ele>
        <time>2019-06-02T08:15:03Z</time>
      </trkpt>
      <trkpt lat="43.4767" lon="2.37829">
        <ele>439</ele>
        <time>2019-06-02T08:15:08Z</time>
      </trkpt>
      <trkpt lat="43.4767" lon="2.37829">
        <ele>439.20001220703</ele>
        <time>2019-06-02T08:15:09Z</time>
      </trkpt>
      <trkpt lat="43.47671" lon="2.3783">
        <ele>439.39999389648</ele>
        <time>2019-06-02T08:15:11Z</time>
      </trkpt>
      <trkpt lat="43.47671" lon="2.37831">
        <ele>439.60000610352</ele>
        <time>2019-06-02T08:15:12Z</time>
      </trkpt>
      <trkpt lat="43.47673" lon="2.37833">
        <ele>440</ele>
        <time>2019-06-02T08:15:14Z</time>
      </trkpt>
      <trkpt lat="43.47674" lon="2.37834">
        <ele>440.39999389648</ele>
        <time>2019-06-02T08:15:15Z</time>
      </trkpt>
      <trkpt lat="43.47675" lon="2.37836">
        <ele>440.79998779297</ele>
        <time>2019-06-02T08:15:20Z</time>
      </trkpt>
      <trkpt lat="43.47675" lon="2.37837">
        <ele>441</ele>
        <time>2019-06-02T08:15:22Z</time>
      </trkpt>
      <trkpt lat="43.47675" lon="2.37839">
        <ele>441.20001220703</ele>
        <time>2019-06-02T08:15:25Z</time>
      </trkpt>
      <trkpt lat="43.47675" lon="2.37839">
        <ele>441.39999389648</ele>
        <time>2019-06-02T08:15:26Z</time>
      </trkpt>
      <trkpt lat="43.47674" lon="2.37841">
        <ele>441.79998779297</ele>
        <time>2019-06-02T08:15:28Z</time>
      </trkpt>
      <trkpt lat="43.47675" lon="2.37843">
        <ele>442.39999389648</ele>
        <time>2019-06-02T08:15:31Z</time>
      </trkpt>
      <trkpt lat="43.47675" lon="2.37844">
        <ele>442.79998779297</ele>
        <time>2019-06-02T08:15:32Z</time>
      </trkpt>
      <trkpt lat="43.47677" lon="2.37845">
        <ele>443.39999389648</ele>
        <time>2019-06-02T08:15:38Z</time>
      </trkpt>
      <trkpt lat="43.47676" lon="2.37847">
        <ele>443.60000610352</ele>
        <time>2019-06-02T08:15:42Z</time>
      </trkpt>
      <trkpt lat="43.47676" lon="2.37847">
        <ele>443.79998779297</ele>
        <time>2019-06-02T08:15:43Z</time>
      </trkpt>
      <trkpt lat="43.47675" lon="2.37849">
        <ele>444.60000610352</ele>
        <time>2019-06-02T08:15:49Z</time>
      </trkpt>
      <trkpt lat="43.47671" lon="2.37849">
        <ele>445.39999389648</ele>
        <time>2019-06-02T08:15:56Z</time>
      </trkpt>
      <trkpt lat="43.4767" lon="2.37848">
        <ele>445.60000610352</ele>
        <time>2019-06-02T08:15:59Z</time>
      </trkpt>
      <trkpt lat="43.47668" lon="2.37848">
        <ele>446.20001220703</ele>
        <time>2019-06-02T08:16:02Z</time>
      </trkpt>
      <trkpt lat="43.47668" lon="2.37848">
        <ele>446.20001220703</ele>
        <time>2019-06-02T08:16:03Z</time>
      </trkpt>
      <trkpt lat="43.47664" lon="2.37848">
        <ele>446.79998779297</ele>
        <time>2019-06-02T08:16:06Z</time>
      </trkpt>
      <trkpt lat="43.47662" lon="2.37848">
        <ele>447</ele>
        <time>2019-06-02T08:16:08Z</time>
      </trkpt>
      <trkpt lat="43.47661" lon="2.37847">
        <ele>447.79998779297</ele>
        <time>2019-06-02T08:16:15Z</time>
      </trkpt>
      <trkpt lat="43.47661" lon="2.37849">
        <ele>447.79998779297</ele>
        <time>2019-06-02T08:16:16Z</time>
      </trkpt>
      <trkpt lat="43.47662" lon="2.3785">
        <ele>448</ele>
        <time>2019-06-02T08:16:18Z</time>
      </trkpt>
      <trkpt lat="43.47666" lon="2.37853">
        <ele>448.20001220703</ele>
        <time>2019-06-02T08:16:21Z</time>
      </trkpt>
      <trkpt lat="43.4767" lon="2.37854">
        <ele>448</ele>
        <time>2019-06-02T08:16:25Z</time>
      </trkpt>
      <trkpt lat="43.4767" lon="2.37855">
        <ele>447.79998779297</ele>
        <time>2019-06-02T08:16:26Z</time>
      </trkpt>
      <trkpt lat="43.47672" lon="2.37857">
        <ele>447.79998779297</ele>
        <time>2019-06-02T08:16:29Z</time>
      </trkpt>
      <trkpt lat="43.47674" lon="2.37861">
        <ele>448</ele>
        <time>2019-06-02T08:16:36Z</time>
      </trkpt>
      <trkpt lat="43.47673" lon="2.3786">
        <ele>447.79998779297</ele>
        <time>2019-06-02T08:16:39Z</time>
      </trkpt>
      <trkpt lat="43.47672" lon="2.3786">
        <ele>447.20001220703</ele>
        <time>2019-06-02T08:16:43Z</time>
      </trkpt>
      <trkpt lat="43.47673" lon="2.37861">
        <ele>447</ele>
        <time>2019-06-02T08:16:50Z</time>
      </trkpt>
      <trkpt lat="43.47673" lon="2.37861">
        <ele>446.79998779297</ele>
        <time>2019-06-02T08:16:52Z</time>
      </trkpt>
      <trkpt lat="43.47673" lon="2.37861">
        <ele>447</ele>
        <time>2019-06-02T08:16:58Z</time>
      </trkpt>
      <trkpt lat="43.47673" lon="2.37861">
        <ele>447.20001220703</ele>
        <time>2019-06-02T08:17:04Z</time>
      </trkpt>
      <trkpt lat="43.47673" lon="2.37862">
        <ele>447.39999389648</ele>
        <time>2019-06-02T08:17:07Z</time>
      </trkpt>
      <trkpt lat="43.47673" lon="2.37861">
        <ele>447.39999389648</ele>
        <time>2019-06-02T08:17:10Z</time>
      </trkpt>
      <trkpt lat="43.47674" lon="2.3786">
        <ele>447.39999389648</ele>
        <time>2019-06-02T08:17:13Z</time>
      </trkpt>
      <trkpt lat="43.47673" lon="2.3786">
        <ele>447.39999389648</ele>
        <time>2019-06-02T08:17:20Z</time>
      </trkpt>
      <trkpt lat="43.47674" lon="2.37861">
        <ele>446.79998779297</ele>
        <time>2019-06-02T08:17:28Z</time>
      </trkpt>
      <trkpt lat="43.47673" lon="2.3786">
        <ele>446.60000610352</ele>
        <time>2019-06-02T08:17:35Z</time>
      </trkpt>
      <trkpt lat="43.47674" lon="2.37859">
        <ele>447</ele>
        <time>2019-06-02T08:17:41Z</time>
      </trkpt>
      <trkpt lat="43.47674" lon="2.37858">
        <ele>447</ele>
        <time>2019-06-02T08:17:48Z</time>
      </trkpt>
      <trkpt lat="43.47673" lon="2.37858">
        <ele>446.79998779297</ele>
        <time>2019-06-02T08:17:54Z</time>
      </trkpt>
      <trkpt lat="43.47673" lon="2.37858">
        <ele>447</ele>
        <time>2019-06-02T08:17:57Z</time>
      </trkpt>
      <trkpt lat="43.47671" lon="2.3786">
        <ele>447.20001220703</ele>
        <time>2019-06-02T08:18:04Z</time>
      </trkpt>
      <trkpt lat="43.47672" lon="2.37859">
        <ele>446.39999389648</ele>
        <time>2019-06-02T08:18:11Z</time>
      </trkpt>
      <trkpt lat="43.47673" lon="2.37859">
        <ele>446.20001220703</ele>
        <time>2019-06-02T08:18:15Z</time>
      </trkpt>
      <trkpt lat="43.47672" lon="2.37858">
        <ele>446.20001220703</ele>
        <time>2019-06-02T08:18:19Z</time>
      </trkpt>
      <trkpt lat="43.47673" lon="2.3786">
        <ele>446.20001220703</ele>
        <time>2019-06-02T08:18:26Z</time>
      </trkpt>
      <trkpt lat="43.47673" lon="2.3786">
        <ele>446.20001220703</ele>
        <time>2019-06-02T08:18:27Z</time>
      </trkpt>
      <trkpt lat="43.47674" lon="2.37861">
        <ele>437.39999389648</ele>
        <time>2019-06-02T08:18:28Z</time>
      </trkpt>
      <trkpt lat="43.47674" lon="2.37861">
        <ele>442.20001220703</ele>
        <time>2019-06-02T08:18:29Z</time>
      </trkpt>
      <trkpt lat="43.47674" lon="2.37862">
        <ele>444.60000610352</ele>
        <time>2019-06-02T08:18:30Z</time>
      </trkpt>
      <trkpt lat="43.47674" lon="2.37863">
        <ele>446.20001220703</ele>
        <time>2019-06-02T08:18:32Z</time>
      </trkpt>
      <trkpt lat="43.47674" lon="2.37862">
        <ele>447.20001220703</ele>
        <time>2019-06-02T08:18:34Z</time>
      </trkpt>
      <trkpt lat="43.47673" lon="2.37863">
        <ele>446.79998779297</ele>
        <time>2019-06-02T08:18:43Z</time>
      </trkpt>
      <trkpt lat="43.47673" lon="2.37862">
        <ele>446.79998779297</ele>
        <time>2019-06-02T08:18:47Z</time>
      </trkpt>
      <trkpt lat="43.47672" lon="2.37861">
        <ele>446.60000610352</ele>
        <time>2019-06-02T08:18:52Z</time>
      </trkpt>
      <trkpt lat="43.47671" lon="2.3786">
        <ele>446.20001220703</ele>
        <time>2019-06-02T08:18:54Z</time>
      </trkpt>
      <trkpt lat="43.47672" lon="2.37862">
        <ele>445.60000610352</ele>
        <time>2019-06-02T08:19:01Z</time>
      </trkpt>
      <trkpt lat="43.47675" lon="2.37864">
        <ele>445.79998779297</ele>
        <time>2019-06-02T08:19:08Z</time>
      </trkpt>
      <trkpt lat="43.47675" lon="2.37863">
        <ele>445.60000610352</ele>
        <time>2019-06-02T08:19:13Z</time>
      </trkpt>
      <trkpt lat="43.47675" lon="2.37861">
        <ele>445.60000610352</ele>
        <time>2019-06-02T08:19:16Z</time>
      </trkpt>
      <trkpt lat="43.47675" lon="2.37861">
        <ele>447.39999389648</ele>
        <time>2019-06-02T08:19:17Z</time>
      </trkpt>
      <trkpt lat="43.47675" lon="2.37861">
        <ele>447</ele>
        <time>2019-06-02T08:19:21Z</time>
      </trkpt>
      <trkpt lat="43.47676" lon="2.37863">
        <ele>446.79998779297</ele>
        <time>2019-06-02T08:19:24Z</time>
      </trkpt>
      <trkpt lat="43.47676" lon="2.37863">
        <ele>446.79998779297</ele>
        <time>2019-06-02T08:19:26Z</time>
      </trkpt>
      <trkpt lat="43.47675" lon="2.37863">
        <ele>446.60000610352</ele>
        <time>2019-06-02T08:19:29Z</time>
      </trkpt>
      <trkpt lat="43.47675" lon="2.37863">
        <ele>446.60000610352</ele>
        <time>2019-06-02T08:19:31Z</time>
      </trkpt>
      <trkpt lat="43.47676" lon="2.37863">
        <ele>446.60000610352</ele>
        <time>2019-06-02T08:19:38Z</time>
      </trkpt>
      <trkpt lat="43.47678" lon="2.37863">
        <ele>446.60000610352</ele>
        <time>2019-06-02T08:19:46Z</time>
      </trkpt>
      <trkpt lat="43.47679" lon="2.37863">
        <ele>446.60000610352</ele>
        <time>2019-06-02T08:19:49Z</time>
      </trkpt>
      <trkpt lat="43.4768" lon="2.37862">
        <ele>446.60000610352</ele>
        <time>2019-06-02T08:19:54Z</time>
      </trkpt>
      <trkpt lat="43.47679" lon="2.3786">
        <ele>446.39999389648</ele>
        <time>2019-06-02T08:20:03Z</time>
      </trkpt>
      <trkpt lat="43.4768" lon="2.3786">
        <ele>446.20001220703</ele>
        <time>2019-06-02T08:20:04Z</time>
      </trkpt>
      <trkpt lat="43.47678" lon="2.3786">
        <ele>446.20001220703</ele>
        <time>2019-06-02T08:20:08Z</time>
      </trkpt>
      <trkpt lat="43.47679" lon="2.37861">
        <ele>446.20001220703</ele>
        <time>2019-06-02T08:20:12Z</time>
      </trkpt>
      <trkpt lat="43.4768" lon="2.37861">
        <ele>446.20001220703</ele>
        <time>2019-06-02T08:20:18Z</time>
      </trkpt>
      <trkpt lat="43.47686" lon="2.37862">
        <ele>446.20001220703</ele>
        <time>2019-06-02T08:20:23Z</time>
      </trkpt>
      <trkpt lat="43.47686" lon="2.37858">
        <ele>446.20001220703</ele>
        <time>2019-06-02T08:20:26Z</time>
      </trkpt>
      <trkpt lat="43.47688" lon="2.37857">
        <ele>446.20001220703</ele>
        <time>2019-06-02T08:20:27Z</time>
      </trkpt>
      <trkpt lat="43.47693" lon="2.37855">
        <ele>446.20001220703</ele>
        <time>2019-06-02T08:20:32Z</time>
      </trkpt>
      <trkpt lat="43.47688" lon="2.37861">
        <ele>446.20001220703</ele>
        <time>2019-06-02T08:20:40Z</time>
      </trkpt>
      <trkpt lat="43.47678" lon="2.37866">
        <ele>446.20001220703</ele>
        <time>2019-06-02T08:20:48Z</time>
      </trkpt>
      <trkpt lat="43.4767" lon="2.37864">
        <ele>446.20001220703</ele>
        <time>2019-06-02T08:20:57Z</time>
      </trkpt>
      <trkpt lat="43.4767" lon="2.37864">
        <ele>446.20001220703</ele>
        <time>2019-06-02T08:21:05Z</time>
      </trkpt>
      <trkpt lat="43.47671" lon="2.37864">
        <ele>446.20001220703</ele>
        <time>2019-06-02T08:21:06Z</time>
      </trkpt>
      <trkpt lat="43.47672" lon="2.37865">
        <ele>446.20001220703</ele>
        <time>2019-06-02T08:21:10Z</time>
      </trkpt>
      <trkpt lat="43.4767" lon="2.37866">
        <ele>446.20001220703</ele>
        <time>2019-06-02T08:21:13Z</time>
      </trkpt>
      <trkpt lat="43.47671" lon="2.37865">
        <ele>446.20001220703</ele>
        <time>2019-06-02T08:21:24Z</time>
      </trkpt>
      <trkpt lat="43.47671" lon="2.37863">
        <ele>446.20001220703</ele>
        <time>2019-06-02T08:21:31Z</time>
      </trkpt>
      <trkpt lat="43.47673" lon="2.37862">
        <ele>446.20001220703</ele>
        <time>2019-06-02T08:21:39Z</time>
      </trkpt>
      <trkpt lat="43.47674" lon="2.37862">
        <ele>446.20001220703</ele>
        <time>2019-06-02T08:21:41Z</time>
      </trkpt>
      <trkpt lat="43.47675" lon="2.37862">
        <ele>446.20001220703</ele>
        <time>2019-06-02T08:21:47Z</time>
      </trkpt>
      <trkpt lat="43.47675" lon="2.37863">
        <ele>446.20001220703</ele>
        <time>2019-06-02T08:21:48Z</time>
      </trkpt>
      <trkpt lat="43.47674" lon="2.37863">
        <ele>446.20001220703</ele>
        <time>2019-06-02T08:21:55Z</time>
      </trkpt>
      <trkpt lat="43.47678" lon="2.37864">
        <ele>446.20001220703</ele>
        <time>2019-06-02T08:22:04Z</time>
      </trkpt>
      <trkpt lat="43.47677" lon="2.37864">
        <ele>446.20001220703</ele>
        <time>2019-06-02T08:22:13Z</time>
      </trkpt>
      <trkpt lat="43.47677" lon="2.37864">
        <ele>446.20001220703</ele>
        <time>2019-06-02T08:22:27Z</time>
      </trkpt>
      <trkpt lat="43.47677" lon="2.37863">
        <ele>446.20001220703</ele>
        <time>2019-06-02T08:22:28Z</time>
      </trkpt>
      <trkpt lat="43.47677" lon="2.37863">
        <ele>446.20001220703</ele>
        <time>2019-06-02T08:22:29Z</time>
      </trkpt>
      <trkpt lat="43.47676" lon="2.37864">
        <ele>446.20001220703</ele>
        <time>2019-06-02T08:22:35Z</time>
      </trkpt>
      <trkpt lat="43.47676" lon="2.37865">
        <ele>446.79998779297</ele>
        <time>2019-06-02T08:22:39Z</time>
      </trkpt>
      <trkpt lat="43.47676" lon="2.37865">
        <ele>446.79998779297</ele>
        <time>2019-06-02T08:22:40Z</time>
      </trkpt>
      <trkpt lat="43.47676" lon="2.37865">
        <ele>436.20001220703</ele>
        <time>2019-06-02T08:22:41Z</time>
      </trkpt>
      <trkpt lat="43.47676" lon="2.37865">
        <ele>435.79998779297</ele>
        <time>2019-06-02T08:22:44Z</time>
      </trkpt>
      <trkpt lat="43.47676" lon="2.37865">
        <ele>435.79998779297</ele>
        <time>2019-06-02T08:22:45Z</time>
      </trkpt>
      <trkpt lat="43.47676" lon="2.37865">
        <ele>436.20001220703</ele>
        <time>2019-06-02T08:22:46Z</time>
      </trkpt>
      <trkpt lat="43.47676" lon="2.37865">
        <ele>436.20001220703</ele>
        <time>2019-06-02T08:22:48Z</time>
      </trkpt>
      <trkpt lat="43.47676" lon="2.37866">
        <ele>435.79998779297</ele>
        <time>2019-06-02T08:22:49Z</time>
      </trkpt>
      <trkpt lat="43.47676" lon="2.37866">
        <ele>436.20001220703</ele>
        <time>2019-06-02T08:22:53Z</time>
      </trkpt>
      <trkpt lat="43.47676" lon="2.37866">
        <ele>436.20001220703</ele>
        <time>2019-06-02T08:22:54Z</time>
      </trkpt>
      <trkpt lat="43.47671" lon="2.37867">
        <ele>435.79998779297</ele>
        <time>2019-06-02T08:23:02Z</time>
      </trkpt>
      <trkpt lat="43.47671" lon="2.37867">
        <ele>435.60000610352</ele>
        <time>2019-06-02T08:23:06Z</time>
      </trkpt>
      <trkpt lat="43.47674" lon="2.37867">
        <ele>435.79998779297</ele>
        <time>2019-06-02T08:23:09Z</time>
      </trkpt>
      <trkpt lat="43.47671" lon="2.37868">
        <ele>435.79998779297</ele>
        <time>2019-06-02T08:23:17Z</time>
      </trkpt>
      <trkpt lat="43.47672" lon="2.37868">
        <ele>435.79998779297</ele>
        <time>2019-06-02T08:23:18Z</time>
      </trkpt>
      <trkpt lat="43.47671" lon="2.37868">
        <ele>435.79998779297</ele>
        <time>2019-06-02T08:23:20Z</time>
      </trkpt>
      <trkpt lat="43.47674" lon="2.37866">
        <ele>435.79998779297</ele>
        <time>2019-06-02T08:23:23Z</time>
      </trkpt>
      <trkpt lat="43.47674" lon="2.37867">
        <ele>435.79998779297</ele>
        <time>2019-06-02T08:23:26Z</time>
      </trkpt>
      <trkpt lat="43.47678" lon="2.37865">
        <ele>436</ele>
        <time>2019-06-02T08:23:35Z</time>
      </trkpt>
      <trkpt lat="43.47679" lon="2.37864">
        <ele>436</ele>
        <time>2019-06-02T08:23:42Z</time>
      </trkpt>
      <trkpt lat="43.47682" lon="2.37862">
        <ele>436</ele>
        <time>2019-06-02T08:23:48Z</time>
      </trkpt>
      <trkpt lat="43.47678" lon="2.37862">
        <ele>436.20001220703</ele>
        <time>2019-06-02T08:23:56Z</time>
      </trkpt>
      <trkpt lat="43.47679" lon="2.37864">
        <ele>436</ele>
        <time>2019-06-02T08:24:05Z</time>
      </trkpt>
      <trkpt lat="43.4768" lon="2.37864">
        <ele>435.79998779297</ele>
        <time>2019-06-02T08:24:09Z</time>
      </trkpt>
      <trkpt lat="43.4768" lon="2.37864">
        <ele>435.79998779297</ele>
        <time>2019-06-02T08:24:12Z</time>
      </trkpt>
      <trkpt lat="43.47678" lon="2.37864">
        <ele>436</ele>
        <time>2019-06-02T08:24:18Z</time>
      </trkpt>
      <trkpt lat="43.47676" lon="2.37863">
        <ele>436</ele>
        <time>2019-06-02T08:24:23Z</time>
      </trkpt>
      <trkpt lat="43.47676" lon="2.37862">
        <ele>436.60000610352</ele>
        <time>2019-06-02T08:24:29Z</time>
      </trkpt>
      <trkpt lat="43.47674" lon="2.37866">
        <ele>436.60000610352</ele>
        <time>2019-06-02T08:24:34Z</time>
      </trkpt>
      <trkpt lat="43.47671" lon="2.37866">
        <ele>436</ele>
        <time>2019-06-02T08:24:38Z</time>
      </trkpt>
      <trkpt lat="43.47671" lon="2.37869">
        <ele>436</ele>
        <time>2019-06-02T08:24:44Z</time>
      </trkpt>
      <trkpt lat="43.4767" lon="2.3787">
        <ele>436</ele>
        <time>2019-06-02T08:24:49Z</time>
      </trkpt>
      <trkpt lat="43.47674" lon="2.37867">
        <ele>436</ele>
        <time>2019-06-02T08:24:55Z</time>
      </trkpt>
      <trkpt lat="43.47675" lon="2.37869">
        <ele>436</ele>
        <time>2019-06-02T08:25:03Z</time>
      </trkpt>
      <trkpt lat="43.47676" lon="2.37866">
        <ele>436</ele>
        <time>2019-06-02T08:25:09Z</time>
      </trkpt>
      <trkpt lat="43.47675" lon="2.37863">
        <ele>436</ele>
        <time>2019-06-02T08:25:15Z</time>
      </trkpt>
      <trkpt lat="43.47676" lon="2.37862">
        <ele>436</ele>
        <time>2019-06-02T08:25:21Z</time>
      </trkpt>
      <trkpt lat="43.47675" lon="2.37863">
        <ele>436</ele>
        <time>2019-06-02T08:25:30Z</time>
      </trkpt>
      <trkpt lat="43.47674" lon="2.37863">
        <ele>436</ele>
        <time>2019-06-02T08:25:33Z</time>
      </trkpt>
      <trkpt lat="43.47674" lon="2.37863">
        <ele>436.20001220703</ele>
        <time>2019-06-02T08:25:37Z</time>
      </trkpt>
      <trkpt lat="43.47672" lon="2.37861">
        <ele>436.60000610352</ele>
        <time>2019-06-02T08:25:44Z</time>
      </trkpt>
      <trkpt lat="43.47673" lon="2.37861">
        <ele>436.79998779297</ele>
        <time>2019-06-02T08:25:48Z</time>
      </trkpt>
      <trkpt lat="43.47674" lon="2.37861">
        <ele>436.39999389648</ele>
        <time>2019-06-02T08:25:50Z</time>
      </trkpt>
      <trkpt lat="43.47674" lon="2.37861">
        <ele>435.60000610352</ele>
        <time>2019-06-02T08:25:58Z</time>
      </trkpt>
      <trkpt lat="43.47675" lon="2.37862">
        <ele>436</ele>
        <time>2019-06-02T08:26:06Z</time>
      </trkpt>
      <trkpt lat="43.47676" lon="2.37863">
        <ele>436</ele>
        <time>2019-06-02T08:26:09Z</time>
      </trkpt>
      <trkpt lat="43.47678" lon="2.37864">
        <ele>436.20001220703</ele>
        <time>2019-06-02T08:26:13Z</time>
      </trkpt>
      <trkpt lat="43.47677" lon="2.37863">
        <ele>436.60000610352</ele>
        <time>2019-06-02T08:26:19Z</time>
      </trkpt>
      <trkpt lat="43.47676" lon="2.37864">
        <ele>436.79998779297</ele>
        <time>2019-06-02T08:26:25Z</time>
      </trkpt>
      <trkpt lat="43.47675" lon="2.37864">
        <ele>437.39999389648</ele>
        <time>2019-06-02T08:26:28Z</time>
      </trkpt>
      <trkpt lat="43.47675" lon="2.37865">
        <ele>438</ele>
        <time>2019-06-02T08:26:30Z</time>
      </trkpt>
      <trkpt lat="43.47675" lon="2.37865">
        <ele>438.60000610352</ele>
        <time>2019-06-02T08:26:32Z</time>
      </trkpt>
      <trkpt lat="43.47673" lon="2.37864">
        <ele>439.60000610352</ele>
        <time>2019-06-02T08:26:36Z</time>
      </trkpt>
      <trkpt lat="43.47672" lon="2.37863">
        <ele>440</ele>
        <time>2019-06-02T08:26:38Z</time>
      </trkpt>
      <trkpt lat="43.4767" lon="2.37861">
        <ele>440.20001220703</ele>
        <time>2019-06-02T08:26:46Z</time>
      </trkpt>
      <trkpt lat="43.4767" lon="2.37861">
        <ele>440.39999389648</ele>
        <time>2019-06-02T08:26:49Z</time>
      </trkpt>
      <trkpt lat="43.47673" lon="2.37859">
        <ele>440.20001220703</ele>
        <time>2019-06-02T08:26:54Z</time>
      </trkpt>
      <trkpt lat="43.47674" lon="2.37859">
        <ele>440.20001220703</ele>
        <time>2019-06-02T08:26:55Z</time>
      </trkpt>
      <trkpt lat="43.47673" lon="2.37859">
        <ele>439.60000610352</ele>
        <time>2019-06-02T08:27:00Z</time>
      </trkpt>
      <trkpt lat="43.47673" lon="2.3786">
        <ele>439.79998779297</ele>
        <time>2019-06-02T08:27:04Z</time>
      </trkpt>
      <trkpt lat="43.47672" lon="2.37859">
        <ele>440</ele>
        <time>2019-06-02T08:27:07Z</time>
      </trkpt>
      <trkpt lat="43.47671" lon="2.3786">
        <ele>440.20001220703</ele>
        <time>2019-06-02T08:27:13Z</time>
      </trkpt>
      <trkpt lat="43.47672" lon="2.3786">
        <ele>440</ele>
        <time>2019-06-02T08:27:14Z</time>
      </trkpt>
      <trkpt lat="43.47672" lon="2.3786">
        <ele>440</ele>
        <time>2019-06-02T08:27:15Z</time>
      </trkpt>
      <trkpt lat="43.47673" lon="2.37863">
        <ele>439.79998779297</ele>
        <time>2019-06-02T08:27:18Z</time>
      </trkpt>
      <trkpt lat="43.47672" lon="2.37867">
        <ele>440.39999389648</ele>
        <time>2019-06-02T08:27:21Z</time>
      </trkpt>
      <trkpt lat="43.47673" lon="2.3787">
        <ele>440.79998779297</ele>
        <time>2019-06-02T08:27:23Z</time>
      </trkpt>
      <trkpt lat="43.47672" lon="2.37872">
        <ele>441</ele>
        <time>2019-06-02T08:27:25Z</time>
      </trkpt>
      <trkpt lat="43.47672" lon="2.37873">
        <ele>441.20001220703</ele>
        <time>2019-06-02T08:27:26Z</time>
      </trkpt>
      <trkpt lat="43.47673" lon="2.37876">
        <ele>441.20001220703</ele>
        <time>2019-06-02T08:27:29Z</time>
      </trkpt>
      <trkpt lat="43.47674" lon="2.37881">
        <ele>441.20001220703</ele>
        <time>2019-06-02T08:27:36Z</time>
      </trkpt>
      <trkpt lat="43.47674" lon="2.37885">
        <ele>441.39999389648</ele>
        <time>2019-06-02T08:27:43Z</time>
      </trkpt>
      <trkpt lat="43.47673" lon="2.37884">
        <ele>441</ele>
        <time>2019-06-02T08:27:48Z</time>
      </trkpt>
      <trkpt lat="43.47673" lon="2.37884">
        <ele>441</ele>
        <time>2019-06-02T08:27:50Z</time>
      </trkpt>
      <trkpt lat="43.47672" lon="2.37884">
        <ele>440.79998779297</ele>
        <time>2019-06-02T08:27:56Z</time>
      </trkpt>
      <trkpt lat="43.4767" lon="2.37886">
        <ele>440.79998779297</ele>
        <time>2019-06-02T08:28:03Z</time>
      </trkpt>
      <trkpt lat="43.4767" lon="2.37886">
        <ele>440.79998779297</ele>
        <time>2019-06-02T08:28:16Z</time>
      </trkpt>
      <trkpt lat="43.4767" lon="2.37886">
        <ele>440.79998779297</ele>
        <time>2019-06-02T08:28:18Z</time>
      </trkpt>
      <trkpt lat="43.4767" lon="2.37886">
        <ele>440.60000610352</ele>
        <time>2019-06-02T08:28:21Z</time>
      </trkpt>
      <trkpt lat="43.47669" lon="2.37887">
        <ele>440.39999389648</ele>
        <time>2019-06-02T08:28:25Z</time>
      </trkpt>
      <trkpt lat="43.47668" lon="2.37887">
        <ele>440.20001220703</ele>
        <time>2019-06-02T08:28:27Z</time>
      </trkpt>
      <trkpt lat="43.47666" lon="2.37886">
        <ele>439.60000610352</ele>
        <time>2019-06-02T08:28:31Z</time>
      </trkpt>
      <trkpt lat="43.47666" lon="2.37887">
        <ele>439.39999389648</ele>
        <time>2019-06-02T08:28:32Z</time>
      </trkpt>
      <trkpt lat="43.47666" lon="2.37888">
        <ele>439</ele>
        <time>2019-06-02T08:28:33Z</time>
      </trkpt>
      <trkpt lat="43.47665" lon="2.3789">
        <ele>438.60000610352</ele>
        <time>2019-06-02T08:28:36Z</time>
      </trkpt>
      <trkpt lat="43.47665" lon="2.37891">
        <ele>438.39999389648</ele>
        <time>2019-06-02T08:28:38Z</time>
      </trkpt>
      <trkpt lat="43.47662" lon="2.37893">
        <ele>437.79998779297</ele>
        <time>2019-06-02T08:28:43Z</time>
      </trkpt>
      <trkpt lat="43.4766" lon="2.37892">
        <ele>437.79998779297</ele>
        <time>2019-06-02T08:28:46Z</time>
      </trkpt>
      <trkpt lat="43.47658" lon="2.37892">
        <ele>437.39999389648</ele>
        <time>2019-06-02T08:28:51Z</time>
      </trkpt>
      <trkpt lat="43.47659" lon="2.3789">
        <ele>437</ele>
        <time>2019-06-02T08:28:53Z</time>
      </trkpt>
      <trkpt lat="43.47656" lon="2.37883">
        <ele>438</ele>
        <time>2019-06-02T08:29:03Z</time>
      </trkpt>
      <trkpt lat="43.47655" lon="2.37881">
        <ele>436</ele>
        <time>2019-06-02T08:29:06Z</time>
      </trkpt>
      <trkpt lat="43.47655" lon="2.37881">
        <ele>435</ele>
        <time>2019-06-02T08:29:08Z</time>
      </trkpt>
      <trkpt lat="43.47655" lon="2.37882">
        <ele>434.79998779297</ele>
        <time>2019-06-02T08:29:09Z</time>
      </trkpt>
      <trkpt lat="43.47654" lon="2.37884">
        <ele>435</ele>
        <time>2019-06-02T08:29:15Z</time>
      </trkpt>
      <trkpt lat="43.47654" lon="2.37884">
        <ele>435</ele>
        <time>2019-06-02T08:29:18Z</time>
      </trkpt>
      <trkpt lat="43.47653" lon="2.37883">
        <ele>434.79998779297</ele>
        <time>2019-06-02T08:29:27Z</time>
      </trkpt>
      <trkpt lat="43.4765" lon="2.37882">
        <ele>435.60000610352</ele>
        <time>2019-06-02T08:29:36Z</time>
      </trkpt>
      <trkpt lat="43.47649" lon="2.37882">
        <ele>435.79998779297</ele>
        <time>2019-06-02T08:29:38Z</time>
      </trkpt>
      <trkpt lat="43.47647" lon="2.37882">
        <ele>436</ele>
        <time>2019-06-02T08:29:40Z</time>
      </trkpt>
      <trkpt lat="43.47646" lon="2.37882">
        <ele>436</ele>
        <time>2019-06-02T08:29:42Z</time>
      </trkpt>
      <trkpt lat="43.47645" lon="2.37883">
        <ele>436</ele>
        <time>2019-06-02T08:29:44Z</time>
      </trkpt>
      <trkpt lat="43.47645" lon="2.37882">
        <ele>436.39999389648</ele>
        <time>2019-06-02T08:29:46Z</time>
      </trkpt>
      <trkpt lat="43.4764" lon="2.37883">
        <ele>437</ele>
        <time>2019-06-02T08:29:51Z</time>
      </trkpt>
      <trkpt lat="43.47637" lon="2.37883">
        <ele>437</ele>
        <time>2019-06-02T08:29:52Z</time>
      </trkpt>
      <trkpt lat="43.47631" lon="2.37882">
        <ele>437.20001220703</ele>
        <time>2019-06-02T08:29:58Z</time>
      </trkpt>
      <trkpt lat="43.47629" lon="2.37882">
        <ele>437.39999389648</ele>
        <time>2019-06-02T08:30:00Z</time>
      </trkpt>
      <trkpt lat="43.47622" lon="2.37881">
        <ele>437.79998779297</ele>
        <time>2019-06-02T08:30:06Z</time>
      </trkpt>
      <trkpt lat="43.4762" lon="2.37881">
        <ele>438</ele>
        <time>2019-06-02T08:30:08Z</time>
      </trkpt>
      <trkpt lat="43.47616" lon="2.3788">
        <ele>438.60000610352</ele>
        <time>2019-06-02T08:30:11Z</time>
      </trkpt>
      <trkpt lat="43.47612" lon="2.37879">
        <ele>439</ele>
        <time>2019-06-02T08:30:15Z</time>
      </trkpt>
      <trkpt lat="43.47612" lon="2.37878">
        <ele>439.20001220703</ele>
        <time>2019-06-02T08:30:16Z</time>
      </trkpt>
      <trkpt lat="43.4761" lon="2.37877">
        <ele>439.79998779297</ele>
        <time>2019-06-02T08:30:18Z</time>
      </trkpt>
      <trkpt lat="43.47609" lon="2.37878">
        <ele>440.20001220703</ele>
        <time>2019-06-02T08:30:20Z</time>
      </trkpt>
      <trkpt lat="43.47607" lon="2.37877">
        <ele>440.60000610352</ele>
        <time>2019-06-02T08:30:22Z</time>
      </trkpt>
      <trkpt lat="43.47605" lon="2.3788">
        <ele>441.39999389648</ele>
        <time>2019-06-02T08:30:28Z</time>
      </trkpt>
      <trkpt lat="43.47604" lon="2.3788">
        <ele>442</ele>
        <time>2019-06-02T08:30:30Z</time>
      </trkpt>
      <trkpt lat="43.47602" lon="2.37879">
        <ele>442.20001220703</ele>
        <time>2019-06-02T08:30:32Z</time>
      </trkpt>
      <trkpt lat="43.47601" lon="2.37878">
        <ele>442.20001220703</ele>
        <time>2019-06-02T08:30:33Z</time>
      </trkpt>
      <trkpt lat="43.47601" lon="2.37878">
        <ele>442.39999389648</ele>
        <time>2019-06-02T08:30:34Z</time>
      </trkpt>
      <trkpt lat="43.47601" lon="2.37878">
        <ele>442.39999389648</ele>
        <time>2019-06-02T08:30:35Z</time>
      </trkpt>
      <trkpt lat="43.476" lon="2.37877">
        <ele>442.60000610352</ele>
        <time>2019-06-02T08:30:37Z</time>
      </trkpt>
      <trkpt lat="43.47601" lon="2.37878">
        <ele>443</ele>
        <time>2019-06-02T08:30:40Z</time>
      </trkpt>
      <trkpt lat="43.47602" lon="2.37879">
        <ele>443.20001220703</ele>
        <time>2019-06-02T08:30:44Z</time>
      </trkpt>
      <trkpt lat="43.47603" lon="2.37879">
        <ele>443.20001220703</ele>
        <time>2019-06-02T08:30:46Z</time>
      </trkpt>
      <trkpt lat="43.47604" lon="2.37879">
        <ele>442.79998779297</ele>
        <time>2019-06-02T08:30:51Z</time>
      </trkpt>
      <trkpt lat="43.47605" lon="2.37881">
        <ele>442.79998779297</ele>
        <time>2019-06-02T08:31:00Z</time>
      </trkpt>
      <trkpt lat="43.47607" lon="2.37882">
        <ele>443.20001220703</ele>
        <time>2019-06-02T08:31:07Z</time>
      </trkpt>
      <trkpt lat="43.47609" lon="2.37883">
        <ele>443.39999389648</ele>
        <time>2019-06-02T08:31:11Z</time>
      </trkpt>
      <trkpt lat="43.47613" lon="2.37886">
        <ele>443.20001220703</ele>
        <time>2019-06-02T08:31:14Z</time>
      </trkpt>
      <trkpt lat="43.47613" lon="2.37884">
        <ele>443.20001220703</ele>
        <time>2019-06-02T08:31:17Z</time>
      </trkpt>
      <trkpt lat="43.47612" lon="2.37884">
        <ele>443.20001220703</ele>
        <time>2019-06-02T08:31:21Z</time>
      </trkpt>
      <trkpt lat="43.47606" lon="2.37878">
        <ele>443.39999389648</ele>
        <time>2019-06-02T08:31:23Z</time>
      </trkpt>
      <trkpt lat="43.47606" lon="2.37875">
        <ele>443.39999389648</ele>
        <time>2019-06-02T08:31:26Z</time>
      </trkpt>
      <trkpt lat="43.47606" lon="2.37874">
        <ele>443.39999389648</ele>
        <time>2019-06-02T08:31:28Z</time>
      </trkpt>
      <trkpt lat="43.47605" lon="2.37875">
        <ele>443.39999389648</ele>
        <time>2019-06-02T08:31:35Z</time>
      </trkpt>
      <trkpt lat="43.47605" lon="2.37874">
        <ele>443.20001220703</ele>
        <time>2019-06-02T08:31:37Z</time>
      </trkpt>
      <trkpt lat="43.47603" lon="2.37873">
        <ele>443.20001220703</ele>
        <time>2019-06-02T08:31:38Z</time>
      </trkpt>
      <trkpt lat="43.476" lon="2.37872">
        <ele>443</ele>
        <time>2019-06-02T08:31:39Z</time>
      </trkpt>
      <trkpt lat="43.47599" lon="2.37872">
        <ele>443</ele>
        <time>2019-06-02T08:31:42Z</time>
      </trkpt>
      <trkpt lat="43.47599" lon="2.37873">
        <ele>443</ele>
        <time>2019-06-02T08:31:43Z</time>
      </trkpt>
      <trkpt lat="43.47599" lon="2.37874">
        <ele>443</ele>
        <time>2019-06-02T08:31:44Z</time>
      </trkpt>
      <trkpt lat="43.47602" lon="2.37874">
        <ele>443.39999389648</ele>
        <time>2019-06-02T08:31:48Z</time>
      </trkpt>
      <trkpt lat="43.47602" lon="2.37874">
        <ele>443.39999389648</ele>
        <time>2019-06-02T08:31:51Z</time>
      </trkpt>
      <trkpt lat="43.47604" lon="2.37874">
        <ele>443.20001220703</ele>
        <time>2019-06-02T08:31:57Z</time>
      </trkpt>
      <trkpt lat="43.47608" lon="2.37875">
        <ele>443</ele>
        <time>2019-06-02T08:32:00Z</time>
      </trkpt>
      <trkpt lat="43.47607" lon="2.37874">
        <ele>443.79998779297</ele>
        <time>2019-06-02T08:32:06Z</time>
      </trkpt>
      <trkpt lat="43.47607" lon="2.37874">
        <ele>443.79998779297</ele>
        <time>2019-06-02T08:32:07Z</time>
      </trkpt>
      <trkpt lat="43.47607" lon="2.37874">
        <ele>443.79998779297</ele>
        <time>2019-06-02T08:32:09Z</time>
      </trkpt>
      <trkpt lat="43.47606" lon="2.37874">
        <ele>443.20001220703</ele>
        <time>2019-06-02T08:32:14Z</time>
      </trkpt>
      <trkpt lat="43.47606" lon="2.37872">
        <ele>443.79998779297</ele>
        <time>2019-06-02T08:32:23Z</time>
      </trkpt>
      <trkpt lat="43.47605" lon="2.37871">
        <ele>443.39999389648</ele>
        <time>2019-06-02T08:32:31Z</time>
      </trkpt>
      <trkpt lat="43.47606" lon="2.37871">
        <ele>443.20001220703</ele>
        <time>2019-06-02T08:32:41Z</time>
      </trkpt>
      <trkpt lat="43.47607" lon="2.37871">
        <ele>443.39999389648</ele>
        <time>2019-06-02T08:32:49Z</time>
      </trkpt>
      <trkpt lat="43.47605" lon="2.37875">
        <ele>443.60000610352</ele>
        <time>2019-06-02T08:32:58Z</time>
      </trkpt>
      <trkpt lat="43.47605" lon="2.37877">
        <ele>444</ele>
        <time>2019-06-02T08:33:09Z</time>
      </trkpt>
      <trkpt lat="43.47606" lon="2.37877">
        <ele>444</ele>
        <time>2019-06-02T08:33:15Z</time>
      </trkpt>
      <trkpt lat="43.47607" lon="2.37877">
        <ele>443.79998779297</ele>
        <time>2019-06-02T08:33:20Z</time>
      </trkpt>
      <trkpt lat="43.47611" lon="2.37879">
        <ele>443.79998779297</ele>
        <time>2019-06-02T08:33:30Z</time>
      </trkpt>
      <trkpt lat="43.47613" lon="2.3788">
        <ele>444</ele>
        <time>2019-06-02T08:33:39Z</time>
      </trkpt>
      <trkpt lat="43.47616" lon="2.37883">
        <ele>444.20001220703</ele>
        <time>2019-06-02T08:33:44Z</time>
      </trkpt>
      <trkpt lat="43.47616" lon="2.37883">
        <ele>444.20001220703</ele>
        <time>2019-06-02T08:33:45Z</time>
      </trkpt>
      <trkpt lat="43.4761" lon="2.3788">
        <ele>444.20001220703</ele>
        <time>2019-06-02T08:33:52Z</time>
      </trkpt>
      <trkpt lat="43.47608" lon="2.3788">
        <ele>443.60000610352</ele>
        <time>2019-06-02T08:33:59Z</time>
      </trkpt>
      <trkpt lat="43.47608" lon="2.37879">
        <ele>443.39999389648</ele>
        <time>2019-06-02T08:34:00Z</time>
      </trkpt>
      <trkpt lat="43.47607" lon="2.37879">
        <ele>443.39999389648</ele>
        <time>2019-06-02T08:34:02Z</time>
      </trkpt>
      <trkpt lat="43.47608" lon="2.37878">
        <ele>444.20001220703</ele>
        <time>2019-06-02T08:34:09Z</time>
      </trkpt>
      <trkpt lat="43.47611" lon="2.37876">
        <ele>444.60000610352</ele>
        <time>2019-06-02T08:34:13Z</time>
      </trkpt>
      <trkpt lat="43.47614" lon="2.37874">
        <ele>445.60000610352</ele>
        <time>2019-06-02T08:34:18Z</time>
      </trkpt>
      <trkpt lat="43.47617" lon="2.37872">
        <ele>446.79998779297</ele>
        <time>2019-06-02T08:34:24Z</time>
      </trkpt>
      <trkpt lat="43.47618" lon="2.37871">
        <ele>447.20001220703</ele>
        <time>2019-06-02T08:34:27Z</time>
      </trkpt>
      <trkpt lat="43.47618" lon="2.37871">
        <ele>447.39999389648</ele>
        <time>2019-06-02T08:34:28Z</time>
      </trkpt>
      <trkpt lat="43.47619" lon="2.37869">
        <ele>447.60000610352</ele>
        <time>2019-06-02T08:34:29Z</time>
      </trkpt>
      <trkpt lat="43.47619" lon="2.37866">
        <ele>448</ele>
        <time>2019-06-02T08:34:31Z</time>
      </trkpt>
      <trkpt lat="43.47618" lon="2.37864">
        <ele>448.60000610352</ele>
        <time>2019-06-02T08:34:33Z</time>
      </trkpt>
      <trkpt lat="43.47615" lon="2.37861">
        <ele>449</ele>
        <time>2019-06-02T08:34:36Z</time>
      </trkpt>
      <trkpt lat="43.47613" lon="2.3786">
        <ele>449.39999389648</ele>
        <time>2019-06-02T08:34:38Z</time>
      </trkpt>
      <trkpt lat="43.47612" lon="2.3786">
        <ele>449.60000610352</ele>
        <time>2019-06-02T08:34:39Z</time>
      </trkpt>
      <trkpt lat="43.47611" lon="2.3786">
        <ele>449.79998779297</ele>
        <time>2019-06-02T08:34:40Z</time>
      </trkpt>
      <trkpt lat="43.47609" lon="2.37859">
        <ele>450</ele>
        <time>2019-06-02T08:34:42Z</time>
      </trkpt>
      <trkpt lat="43.47605" lon="2.37858">
        <ele>450.60000610352</ele>
        <time>2019-06-02T08:34:46Z</time>
      </trkpt>
      <trkpt lat="43.47603" lon="2.37858">
        <ele>451</ele>
        <time>2019-06-02T08:34:48Z</time>
      </trkpt>
      <trkpt lat="43.47599" lon="2.37856">
        <ele>451.39999389648</ele>
        <time>2019-06-02T08:34:52Z</time>
      </trkpt>
      <trkpt lat="43.47597" lon="2.37855">
        <ele>452.20001220703</ele>
        <time>2019-06-02T08:34:55Z</time>
      </trkpt>
      <trkpt lat="43.47596" lon="2.37855">
        <ele>452.39999389648</ele>
        <time>2019-06-02T08:34:56Z</time>
      </trkpt>
      <trkpt lat="43.47592" lon="2.37859">
        <ele>453.20001220703</ele>
        <time>2019-06-02T08:35:03Z</time>
      </trkpt>
      <trkpt lat="43.4759" lon="2.37859">
        <ele>453.60000610352</ele>
        <time>2019-06-02T08:35:05Z</time>
      </trkpt>
      <trkpt lat="43.47589" lon="2.37859">
        <ele>454</ele>
        <time>2019-06-02T08:35:07Z</time>
      </trkpt>
      <trkpt lat="43.47589" lon="2.37861">
        <ele>454.39999389648</ele>
        <time>2019-06-02T08:35:09Z</time>
      </trkpt>
      <trkpt lat="43.4759" lon="2.37867">
        <ele>454.79998779297</ele>
        <time>2019-06-02T08:35:12Z</time>
      </trkpt>
      <trkpt lat="43.47589" lon="2.37868">
        <ele>455</ele>
        <time>2019-06-02T08:35:13Z</time>
      </trkpt>
      <trkpt lat="43.47587" lon="2.37868">
        <ele>455.39999389648</ele>
        <time>2019-06-02T08:35:16Z</time>
      </trkpt>
      <trkpt lat="43.47586" lon="2.37867">
        <ele>456</ele>
        <time>2019-06-02T08:35:20Z</time>
      </trkpt>
      <trkpt lat="43.47584" lon="2.37865">
        <ele>456.60000610352</ele>
        <time>2019-06-02T08:35:24Z</time>
      </trkpt>
      <trkpt lat="43.47583" lon="2.37863">
        <ele>457</ele>
        <time>2019-06-02T08:35:27Z</time>
      </trkpt>
      <trkpt lat="43.47584" lon="2.37862">
        <ele>457.79998779297</ele>
        <time>2019-06-02T08:35:32Z</time>
      </trkpt>
      <trkpt lat="43.47585" lon="2.3786">
        <ele>458.20001220703</ele>
        <time>2019-06-02T08:35:35Z</time>
      </trkpt>
      <trkpt lat="43.47587" lon="2.37855">
        <ele>458.79998779297</ele>
        <time>2019-06-02T08:35:40Z</time>
      </trkpt>
      <trkpt lat="43.47588" lon="2.37856">
        <ele>459.39999389648</ele>
        <time>2019-06-02T08:35:43Z</time>
      </trkpt>
      <trkpt lat="43.4759" lon="2.37857">
        <ele>459.60000610352</ele>
        <time>2019-06-02T08:35:45Z</time>
      </trkpt>
      <trkpt lat="43.47591" lon="2.37858">
        <ele>459.79998779297</ele>
        <time>2019-06-02T08:35:46Z</time>
      </trkpt>
      <trkpt lat="43.47595" lon="2.37855">
        <ele>460.20001220703</ele>
        <time>2019-06-02T08:35:50Z</time>
      </trkpt>
      <trkpt lat="43.47597" lon="2.37854">
        <ele>460.60000610352</ele>
        <time>2019-06-02T08:35:52Z</time>
      </trkpt>
      <trkpt lat="43.47598" lon="2.37854">
        <ele>460.79998779297</ele>
        <time>2019-06-02T08:35:53Z</time>
      </trkpt>
      <trkpt lat="43.476" lon="2.37852">
        <ele>461</ele>
        <time>2019-06-02T08:35:55Z</time>
      </trkpt>
      <trkpt lat="43.47599" lon="2.37847">
        <ele>461.39999389648</ele>
        <time>2019-06-02T08:36:02Z</time>
      </trkpt>
      <trkpt lat="43.47597" lon="2.37843">
        <ele>462</ele>
        <time>2019-06-02T08:36:07Z</time>
      </trkpt>
      <trkpt lat="43.47596" lon="2.37841">
        <ele>462.39999389648</ele>
        <time>2019-06-02T08:36:10Z</time>
      </trkpt>
      <trkpt lat="43.47595" lon="2.3784">
        <ele>463</ele>
        <time>2019-06-02T08:36:14Z</time>
      </trkpt>
      <trkpt lat="43.47594" lon="2.3784">
        <ele>463.20001220703</ele>
        <time>2019-06-02T08:36:19Z</time>
      </trkpt>
      <trkpt lat="43.47592" lon="2.37843">
        <ele>463.60000610352</ele>
        <time>2019-06-02T08:36:26Z</time>
      </trkpt>
      <trkpt lat="43.4759" lon="2.37843">
        <ele>464</ele>
        <time>2019-06-02T08:36:28Z</time>
      </trkpt>
      <trkpt lat="43.47588" lon="2.37844">
        <ele>464.60000610352</ele>
        <time>2019-06-02T08:36:33Z</time>
      </trkpt>
      <trkpt lat="43.47586" lon="2.37844">
        <ele>464.60000610352</ele>
        <time>2019-06-02T08:36:35Z</time>
      </trkpt>
      <trkpt lat="43.47584" lon="2.37844">
        <ele>465.20001220703</ele>
        <time>2019-06-02T08:36:38Z</time>
      </trkpt>
      <trkpt lat="43.4758" lon="2.37842">
        <ele>465.60000610352</ele>
        <time>2019-06-02T08:36:42Z</time>
      </trkpt>
      <trkpt lat="43.4758" lon="2.37841">
        <ele>466.20001220703</ele>
        <time>2019-06-02T08:36:48Z</time>
      </trkpt>
      <trkpt lat="43.47579" lon="2.3784">
        <ele>466.39999389648</ele>
        <time>2019-06-02T08:36:50Z</time>
      </trkpt>
      <trkpt lat="43.47578" lon="2.37833">
        <ele>467.20001220703</ele>
        <time>2019-06-02T08:36:58Z</time>
      </trkpt>
      <trkpt lat="43.47573" lon="2.3783">
        <ele>467.20001220703</ele>
        <time>2019-06-02T08:36:59Z</time>
      </trkpt>
      <trkpt lat="43.47571" lon="2.37825">
        <ele>468</ele>
        <time>2019-06-02T08:37:05Z</time>
      </trkpt>
      <trkpt lat="43.47569" lon="2.37824">
        <ele>468.39999389648</ele>
        <time>2019-06-02T08:37:08Z</time>
      </trkpt>
      <trkpt lat="43.47569" lon="2.37816">
        <ele>469.20001220703</ele>
        <time>2019-06-02T08:37:14Z</time>
      </trkpt>
      <trkpt lat="43.47566" lon="2.37819">
        <ele>469.39999389648</ele>
        <time>2019-06-02T08:37:17Z</time>
      </trkpt>
      <trkpt lat="43.47564" lon="2.37821">
        <ele>470</ele>
        <time>2019-06-02T08:37:22Z</time>
      </trkpt>
      <trkpt lat="43.47562" lon="2.37821">
        <ele>470.39999389648</ele>
        <time>2019-06-02T08:37:25Z</time>
      </trkpt>
      <trkpt lat="43.4756" lon="2.37819">
        <ele>471</ele>
        <time>2019-06-02T08:37:31Z</time>
      </trkpt>
      <trkpt lat="43.47557" lon="2.37817">
        <ele>471.60000610352</ele>
        <time>2019-06-02T08:37:34Z</time>
      </trkpt>
      <trkpt lat="43.47553" lon="2.37817">
        <ele>472.20001220703</ele>
        <time>2019-06-02T08:37:39Z</time>
      </trkpt>
      <trkpt lat="43.4755" lon="2.37815">
        <ele>472.60000610352</ele>
        <time>2019-06-02T08:37:43Z</time>
      </trkpt>
      <trkpt lat="43.47549" lon="2.37814">
        <ele>472.60000610352</ele>
        <time>2019-06-02T08:37:44Z</time>
      </trkpt>
      <trkpt lat="43.47547" lon="2.37812">
        <ele>473</ele>
        <time>2019-06-02T08:37:48Z</time>
      </trkpt>
      <trkpt lat="43.47545" lon="2.37813">
        <ele>473.60000610352</ele>
        <time>2019-06-02T08:37:52Z</time>
      </trkpt>
      <trkpt lat="43.47544" lon="2.37812">
        <ele>473.60000610352</ele>
        <time>2019-06-02T08:37:53Z</time>
      </trkpt>
      <trkpt lat="43.47544" lon="2.37809">
        <ele>474</ele>
        <time>2019-06-02T08:37:57Z</time>
      </trkpt>
      <trkpt lat="43.47542" lon="2.37812">
        <ele>474.20001220703</ele>
        <time>2019-06-02T08:38:05Z</time>
      </trkpt>
      <trkpt lat="43.4754" lon="2.37813">
        <ele>474.39999389648</ele>
        <time>2019-06-02T08:38:07Z</time>
      </trkpt>
      <trkpt lat="43.47536" lon="2.37814">
        <ele>474.79998779297</ele>
        <time>2019-06-02T08:38:13Z</time>
      </trkpt>
      <trkpt lat="43.47536" lon="2.37813">
        <ele>475</ele>
        <time>2019-06-02T08:38:15Z</time>
      </trkpt>
      <trkpt lat="43.47533" lon="2.37813">
        <ele>475.39999389648</ele>
        <time>2019-06-02T08:38:18Z</time>
      </trkpt>
      <trkpt lat="43.47533" lon="2.37812">
        <ele>475.79998779297</ele>
        <time>2019-06-02T08:38:20Z</time>
      </trkpt>
      <trkpt lat="43.4753" lon="2.37812">
        <ele>476</ele>
        <time>2019-06-02T08:38:22Z</time>
      </trkpt>
      <trkpt lat="43.47514" lon="2.37808">
        <ele>476.39999389648</ele>
        <time>2019-06-02T08:38:27Z</time>
      </trkpt>
      <trkpt lat="43.47511" lon="2.37813">
        <ele>476.60000610352</ele>
        <time>2019-06-02T08:38:29Z</time>
      </trkpt>
      <trkpt lat="43.47509" lon="2.37815">
        <ele>477</ele>
        <time>2019-06-02T08:38:32Z</time>
      </trkpt>
      <trkpt lat="43.4751" lon="2.37818">
        <ele>477.60000610352</ele>
        <time>2019-06-02T08:38:36Z</time>
      </trkpt>
      <trkpt lat="43.4751" lon="2.3782">
        <ele>478</ele>
        <time>2019-06-02T08:38:39Z</time>
      </trkpt>
      <trkpt lat="43.47507" lon="2.37823">
        <ele>478.79998779297</ele>
        <time>2019-06-02T08:38:44Z</time>
      </trkpt>
      <trkpt lat="43.47506" lon="2.37823">
        <ele>479.20001220703</ele>
        <time>2019-06-02T08:38:46Z</time>
      </trkpt>
      <trkpt lat="43.47505" lon="2.37823">
        <ele>479.39999389648</ele>
        <time>2019-06-02T08:38:47Z</time>
      </trkpt>
      <trkpt lat="43.47505" lon="2.37821">
        <ele>479.79998779297</ele>
        <time>2019-06-02T08:38:50Z</time>
      </trkpt>
      <trkpt lat="43.47505" lon="2.3782">
        <ele>480.39999389648</ele>
        <time>2019-06-02T08:38:53Z</time>
      </trkpt>
      <trkpt lat="43.47508" lon="2.37821">
        <ele>480.79998779297</ele>
        <time>2019-06-02T08:38:56Z</time>
      </trkpt>
      <trkpt lat="43.47512" lon="2.3782">
        <ele>481.39999389648</ele>
        <time>2019-06-02T08:39:00Z</time>
      </trkpt>
      <trkpt lat="43.47516" lon="2.37819">
        <ele>482</ele>
        <time>2019-06-02T08:39:03Z</time>
      </trkpt>
      <trkpt lat="43.47517" lon="2.37818">
        <ele>482.39999389648</ele>
        <time>2019-06-02T08:39:05Z</time>
      </trkpt>
      <trkpt lat="43.47519" lon="2.37814">
        <ele>483.20001220703</ele>
        <time>2019-06-02T08:39:11Z</time>
      </trkpt>
      <trkpt lat="43.47518" lon="2.37811">
        <ele>483.39999389648</ele>
        <time>2019-06-02T08:39:13Z</time>
      </trkpt>
      <trkpt lat="43.47515" lon="2.37807">
        <ele>483.79998779297</ele>
        <time>2019-06-02T08:39:17Z</time>
      </trkpt>
      <trkpt lat="43.47512" lon="2.37799">
        <ele>484.60000610352</ele>
        <time>2019-06-02T08:39:22Z</time>
      </trkpt>
      <trkpt lat="43.47511" lon="2.37797">
        <ele>484.79998779297</ele>
        <time>2019-06-02T08:39:24Z</time>
      </trkpt>
      <trkpt lat="43.47511" lon="2.37795">
        <ele>485.20001220703</ele>
        <time>2019-06-02T08:39:32Z</time>
      </trkpt>
      <trkpt lat="43.47512" lon="2.37795">
        <ele>485.60000610352</ele>
        <time>2019-06-02T08:39:38Z</time>
      </trkpt>
      <trkpt lat="43.47513" lon="2.37794">
        <ele>486</ele>
        <time>2019-06-02T08:39:42Z</time>
      </trkpt>
      <trkpt lat="43.47513" lon="2.37791">
        <ele>486.60000610352</ele>
        <time>2019-06-02T08:39:44Z</time>
      </trkpt>
      <trkpt lat="43.47514" lon="2.37787">
        <ele>487</ele>
        <time>2019-06-02T08:39:50Z</time>
      </trkpt>
      <trkpt lat="43.47507" lon="2.37781">
        <ele>487.60000610352</ele>
        <time>2019-06-02T08:39:59Z</time>
      </trkpt>
      <trkpt lat="43.47505" lon="2.37779">
        <ele>487.79998779297</ele>
        <time>2019-06-02T08:40:00Z</time>
      </trkpt>
      <trkpt lat="43.47507" lon="2.37775">
        <ele>488.79998779297</ele>
        <time>2019-06-02T08:40:03Z</time>
      </trkpt>
      <trkpt lat="43.47507" lon="2.37774">
        <ele>489</ele>
        <time>2019-06-02T08:40:04Z</time>
      </trkpt>
      <trkpt lat="43.4751" lon="2.37772">
        <ele>489.39999389648</ele>
        <time>2019-06-02T08:40:07Z</time>
      </trkpt>
      <trkpt lat="43.47515" lon="2.37772">
        <ele>489.60000610352</ele>
        <time>2019-06-02T08:40:11Z</time>
      </trkpt>
      <trkpt lat="43.47516" lon="2.37772">
        <ele>489.60000610352</ele>
        <time>2019-06-02T08:40:12Z</time>
      </trkpt>
      <trkpt lat="43.47516" lon="2.37766">
        <ele>489.39999389648</ele>
        <time>2019-06-02T08:40:17Z</time>
      </trkpt>
      <trkpt lat="43.47516" lon="2.37766">
        <ele>489.20001220703</ele>
        <time>2019-06-02T08:40:24Z</time>
      </trkpt>
      <trkpt lat="43.47516" lon="2.37766">
        <ele>489.20001220703</ele>
        <time>2019-06-02T08:40:25Z</time>
      </trkpt>
      <trkpt lat="43.47515" lon="2.37763">
        <ele>489.79998779297</ele>
        <time>2019-06-02T08:40:30Z</time>
      </trkpt>
      <trkpt lat="43.47514" lon="2.37762">
        <ele>490</ele>
        <time>2019-06-02T08:40:32Z</time>
      </trkpt>
      <trkpt lat="43.47513" lon="2.37764">
        <ele>490</ele>
        <time>2019-06-02T08:40:36Z</time>
      </trkpt>
      <trkpt lat="43.47513" lon="2.37766">
        <ele>490</ele>
        <time>2019-06-02T08:40:39Z</time>
      </trkpt>
      <trkpt lat="43.47515" lon="2.37768">
        <ele>490</ele>
        <time>2019-06-02T08:40:41Z</time>
      </trkpt>
      <trkpt lat="43.47521" lon="2.37772">
        <ele>489.39999389648</ele>
        <time>2019-06-02T08:40:46Z</time>
      </trkpt>
      <trkpt lat="43.47523" lon="2.3777">
        <ele>489.39999389648</ele>
        <time>2019-06-02T08:40:53Z</time>
      </trkpt>
      <trkpt lat="43.47523" lon="2.37766">
        <ele>489.20001220703</ele>
        <time>2019-06-02T08:41:01Z</time>
      </trkpt>
      <trkpt lat="43.47523" lon="2.37766">
        <ele>489.20001220703</ele>
        <time>2019-06-02T08:41:02Z</time>
      </trkpt>
      <trkpt lat="43.47522" lon="2.37766">
        <ele>489.20001220703</ele>
        <time>2019-06-02T08:41:11Z</time>
      </trkpt>
      <trkpt lat="43.47522" lon="2.37766">
        <ele>489.39999389648</ele>
        <time>2019-06-02T08:41:15Z</time>
      </trkpt>
      <trkpt lat="43.47523" lon="2.37766">
        <ele>489.20001220703</ele>
        <time>2019-06-02T08:41:18Z</time>
      </trkpt>
      <trkpt lat="43.47524" lon="2.37766">
        <ele>494.39999389648</ele>
        <time>2019-06-02T08:41:20Z</time>
      </trkpt>
      <trkpt lat="43.47524" lon="2.37766">
        <ele>492</ele>
        <time>2019-06-02T08:41:21Z</time>
      </trkpt>
      <trkpt lat="43.47525" lon="2.37767">
        <ele>490.79998779297</ele>
        <time>2019-06-02T08:41:22Z</time>
      </trkpt>
      <trkpt lat="43.47526" lon="2.37767">
        <ele>489.79998779297</ele>
        <time>2019-06-02T08:41:24Z</time>
      </trkpt>
      <trkpt lat="43.47527" lon="2.37768">
        <ele>489.60000610352</ele>
        <time>2019-06-02T08:41:25Z</time>
      </trkpt>
      <trkpt lat="43.4753" lon="2.37771">
        <ele>489.39999389648</ele>
        <time>2019-06-02T08:41:30Z</time>
      </trkpt>
      <trkpt lat="43.47531" lon="2.37773">
        <ele>489.39999389648</ele>
        <time>2019-06-02T08:41:31Z</time>
      </trkpt>
      <trkpt lat="43.47537" lon="2.37779">
        <ele>489.39999389648</ele>
        <time>2019-06-02T08:41:37Z</time>
      </trkpt>
      <trkpt lat="43.47537" lon="2.3778">
        <ele>489.39999389648</ele>
        <time>2019-06-02T08:41:38Z</time>
      </trkpt>
      <trkpt lat="43.47542" lon="2.37784">
        <ele>489.79998779297</ele>
        <time>2019-06-02T08:41:42Z</time>
      </trkpt>
      <trkpt lat="43.47545" lon="2.37784">
        <ele>489.79998779297</ele>
        <time>2019-06-02T08:41:44Z</time>
      </trkpt>
      <trkpt lat="43.47551" lon="2.37786">
        <ele>490.60000610352</ele>
        <time>2019-06-02T08:41:50Z</time>
      </trkpt>
      <trkpt lat="43.47552" lon="2.37787">
        <ele>490.79998779297</ele>
        <time>2019-06-02T08:41:52Z</time>
      </trkpt>
      <trkpt lat="43.47553" lon="2.37791">
        <ele>491.60000610352</ele>
        <time>2019-06-02T08:41:59Z</time>
      </trkpt>
      <trkpt lat="43.47554" lon="2.37791">
        <ele>491.79998779297</ele>
        <time>2019-06-02T08:42:00Z</time>
      </trkpt>
      <trkpt lat="43.47559" lon="2.3779">
        <ele>492.60000610352</ele>
        <time>2019-06-02T08:42:06Z</time>
      </trkpt>
      <trkpt lat="43.47561" lon="2.37791">
        <ele>492.60000610352</ele>
        <time>2019-06-02T08:42:08Z</time>
      </trkpt>
      <trkpt lat="43.47562" lon="2.37794">
        <ele>493</ele>
        <time>2019-06-02T08:42:10Z</time>
      </trkpt>
      <trkpt lat="43.47561" lon="2.37796">
        <ele>493.20001220703</ele>
        <time>2019-06-02T08:42:13Z</time>
      </trkpt>
      <trkpt lat="43.47561" lon="2.37797">
        <ele>493.20001220703</ele>
        <time>2019-06-02T08:42:14Z</time>
      </trkpt>
      <trkpt lat="43.47559" lon="2.37798">
        <ele>494</ele>
        <time>2019-06-02T08:42:19Z</time>
      </trkpt>
      <trkpt lat="43.47559" lon="2.37798">
        <ele>494.39999389648</ele>
        <time>2019-06-02T08:42:20Z</time>
      </trkpt>
      <trkpt lat="43.47558" lon="2.37799">
        <ele>495</ele>
        <time>2019-06-02T08:42:22Z</time>
      </trkpt>
      <trkpt lat="43.47558" lon="2.37799">
        <ele>495.60000610352</ele>
        <time>2019-06-02T08:42:24Z</time>
      </trkpt>
      <trkpt lat="43.47556" lon="2.37799">
        <ele>495.79998779297</ele>
        <time>2019-06-02T08:42:26Z</time>
      </trkpt>
      <trkpt lat="43.47556" lon="2.37799">
        <ele>496.20001220703</ele>
        <time>2019-06-02T08:42:27Z</time>
      </trkpt>
      <trkpt lat="43.47554" lon="2.37799">
        <ele>497.20001220703</ele>
        <time>2019-06-02T08:42:33Z</time>
      </trkpt>
      <trkpt lat="43.47553" lon="2.37798">
        <ele>497.20001220703</ele>
        <time>2019-06-02T08:42:34Z</time>
      </trkpt>
      <trkpt lat="43.47551" lon="2.37796">
        <ele>498.20001220703</ele>
        <time>2019-06-02T08:42:40Z</time>
      </trkpt>
      <trkpt lat="43.47551" lon="2.37795">
        <ele>498.20001220703</ele>
        <time>2019-06-02T08:42:41Z</time>
      </trkpt>
      <trkpt lat="43.4755" lon="2.37794">
        <ele>499.39999389648</ele>
        <time>2019-06-02T08:42:45Z</time>
      </trkpt>
      <trkpt lat="43.47548" lon="2.37795">
        <ele>500</ele>
        <time>2019-06-02T08:42:49Z</time>
      </trkpt>
      <trkpt lat="43.47548" lon="2.37796">
        <ele>500.60000610352</ele>
        <time>2019-06-02T08:42:52Z</time>
      </trkpt>
      <trkpt lat="43.47545" lon="2.37796">
        <ele>501.20001220703</ele>
        <time>2019-06-02T08:42:56Z</time>
      </trkpt>
      <trkpt lat="43.47545" lon="2.37797">
        <ele>501.39999389648</ele>
        <time>2019-06-02T08:42:57Z</time>
      </trkpt>
      <trkpt lat="43.47545" lon="2.37797">
        <ele>501.60000610352</ele>
        <time>2019-06-02T08:42:58Z</time>
      </trkpt>
      <trkpt lat="43.47543" lon="2.37797">
        <ele>502.60000610352</ele>
        <time>2019-06-02T08:43:05Z</time>
      </trkpt>
      <trkpt lat="43.4754" lon="2.37794">
        <ele>503.60000610352</ele>
        <time>2019-06-02T08:43:12Z</time>
      </trkpt>
      <trkpt lat="43.4754" lon="2.37792">
        <ele>503.79998779297</ele>
        <time>2019-06-02T08:43:14Z</time>
      </trkpt>
      <trkpt lat="43.47539" lon="2.3779">
        <ele>503.79998779297</ele>
        <time>2019-06-02T08:43:17Z</time>
      </trkpt>
      <trkpt lat="43.47539" lon="2.37789">
        <ele>503.39999389648</ele>
        <time>2019-06-02T08:43:20Z</time>
      </trkpt>
      <trkpt lat="43.47539" lon="2.37788">
        <ele>503.39999389648</ele>
        <time>2019-06-02T08:43:27Z</time>
      </trkpt>
      <trkpt lat="43.47538" lon="2.37787">
        <ele>503.60000610352</ele>
        <time>2019-06-02T08:43:36Z</time>
      </trkpt>
      <trkpt lat="43.47538" lon="2.37786">
        <ele>503.39999389648</ele>
        <time>2019-06-02T08:43:37Z</time>
      </trkpt>
      <trkpt lat="43.47537" lon="2.37783">
        <ele>503.20001220703</ele>
        <time>2019-06-02T08:43:43Z</time>
      </trkpt>
      <trkpt lat="43.47537" lon="2.37783">
        <ele>502.79998779297</ele>
        <time>2019-06-02T08:43:48Z</time>
      </trkpt>
      <trkpt lat="43.47537" lon="2.37783">
        <ele>502.60000610352</ele>
        <time>2019-06-02T08:43:49Z</time>
      </trkpt>
      <trkpt lat="43.47537" lon="2.37783">
        <ele>502.60000610352</ele>
        <time>2019-06-02T08:43:50Z</time>
      </trkpt>
      <trkpt lat="43.47537" lon="2.37784">
        <ele>502.60000610352</ele>
        <time>2019-06-02T08:43:54Z</time>
      </trkpt>
      <trkpt lat="43.47539" lon="2.37787">
        <ele>502.79998779297</ele>
        <time>2019-06-02T08:44:02Z</time>
      </trkpt>
      <trkpt lat="43.47538" lon="2.37788">
        <ele>502.79998779297</ele>
        <time>2019-06-02T08:44:04Z</time>
      </trkpt>
      <trkpt lat="43.47539" lon="2.37789">
        <ele>503</ele>
        <time>2019-06-02T08:44:09Z</time>
      </trkpt>
      <trkpt lat="43.47537" lon="2.3779">
        <ele>503.60000610352</ele>
        <time>2019-06-02T08:44:16Z</time>
      </trkpt>
      <trkpt lat="43.47537" lon="2.3779">
        <ele>503.79998779297</ele>
        <time>2019-06-02T08:44:18Z</time>
      </trkpt>
      <trkpt lat="43.47537" lon="2.3779">
        <ele>503.79998779297</ele>
        <time>2019-06-02T08:44:20Z</time>
      </trkpt>
      <trkpt lat="43.47536" lon="2.37789">
        <ele>503.79998779297</ele>
        <time>2019-06-02T08:44:22Z</time>
      </trkpt>
      <trkpt lat="43.47537" lon="2.3779">
        <ele>503.79998779297</ele>
        <time>2019-06-02T08:44:23Z</time>
      </trkpt>
      <trkpt lat="43.4754" lon="2.37789">
        <ele>503.20001220703</ele>
        <time>2019-06-02T08:44:30Z</time>
      </trkpt>
      <trkpt lat="43.47542" lon="2.3779">
        <ele>503.20001220703</ele>
        <time>2019-06-02T08:44:33Z</time>
      </trkpt>
      <trkpt lat="43.47544" lon="2.37792">
        <ele>503.20001220703</ele>
        <time>2019-06-02T08:44:36Z</time>
      </trkpt>
      <trkpt lat="43.47545" lon="2.37792">
        <ele>503.20001220703</ele>
        <time>2019-06-02T08:44:39Z</time>
      </trkpt>
      <trkpt lat="43.47545" lon="2.37792">
        <ele>503.39999389648</ele>
        <time>2019-06-02T08:44:41Z</time>
      </trkpt>
      <trkpt lat="43.47545" lon="2.37792">
        <ele>503.39999389648</ele>
        <time>2019-06-02T08:44:42Z</time>
      </trkpt>
      <trkpt lat="43.47545" lon="2.37792">
        <ele>503.20001220703</ele>
        <time>2019-06-02T08:44:43Z</time>
      </trkpt>
      <trkpt lat="43.47547" lon="2.37794">
        <ele>503.39999389648</ele>
        <time>2019-06-02T08:44:51Z</time>
      </trkpt>
      <trkpt lat="43.47548" lon="2.37794">
        <ele>503</ele>
        <time>2019-06-02T08:44:58Z</time>
      </trkpt>
      <trkpt lat="43.47548" lon="2.37794">
        <ele>501</ele>
        <time>2019-06-02T08:44:59Z</time>
      </trkpt>
      <trkpt lat="43.47547" lon="2.37795">
        <ele>502</ele>
        <time>2019-06-02T08:45:02Z</time>
      </trkpt>
      <trkpt lat="43.47547" lon="2.37795">
        <ele>502.20001220703</ele>
        <time>2019-06-02T08:45:03Z</time>
      </trkpt>
      <trkpt lat="43.47547" lon="2.37795">
        <ele>502.20001220703</ele>
        <time>2019-06-02T08:45:11Z</time>
      </trkpt>
      <trkpt lat="43.47546" lon="2.37796">
        <ele>502.20001220703</ele>
        <time>2019-06-02T08:45:17Z</time>
      </trkpt>
      <trkpt lat="43.47547" lon="2.37798">
        <ele>502.20001220703</ele>
        <time>2019-06-02T08:45:20Z</time>
      </trkpt>
      <trkpt lat="43.47546" lon="2.37801">
        <ele>502.20001220703</ele>
        <time>2019-06-02T08:45:23Z</time>
      </trkpt>
      <trkpt lat="43.47544" lon="2.37801">
        <ele>502.20001220703</ele>
        <time>2019-06-02T08:45:27Z</time>
      </trkpt>
      <trkpt lat="43.47543" lon="2.378">
        <ele>502.20001220703</ele>
        <time>2019-06-02T08:45:29Z</time>
      </trkpt>
      <trkpt lat="43.47542" lon="2.378">
        <ele>502.20001220703</ele>
        <time>2019-06-02T08:45:31Z</time>
      </trkpt>
      <trkpt lat="43.47541" lon="2.378">
        <ele>502.20001220703</ele>
        <time>2019-06-02T08:45:33Z</time>
      </trkpt>
      <trkpt lat="43.47541" lon="2.378">
        <ele>502.20001220703</ele>
        <time>2019-06-02T08:45:38Z</time>
      </trkpt>
      <trkpt lat="43.47541" lon="2.378">
        <ele>502.20001220703</ele>
        <time>2019-06-02T08:45:46Z</time>
      </trkpt>
      <trkpt lat="43.47536" lon="2.37802">
        <ele>502.20001220703</ele>
        <time>2019-06-02T08:45:51Z</time>
      </trkpt>
      <trkpt lat="43.47533" lon="2.37803">
        <ele>502.20001220703</ele>
        <time>2019-06-02T08:45:54Z</time>
      </trkpt>
      <trkpt lat="43.47533" lon="2.37803">
        <ele>502.20001220703</ele>
        <time>2019-06-02T08:45:55Z</time>
      </trkpt>
      <trkpt lat="43.47532" lon="2.37803">
        <ele>502.20001220703</ele>
        <time>2019-06-02T08:45:58Z</time>
      </trkpt>
      <trkpt lat="43.47532" lon="2.37803">
        <ele>496.20001220703</ele>
        <time>2019-06-02T08:46:00Z</time>
      </trkpt>
      <trkpt lat="43.47533" lon="2.37804">
        <ele>495.79998779297</ele>
        <time>2019-06-02T08:46:02Z</time>
      </trkpt>
      <trkpt lat="43.47533" lon="2.37803">
        <ele>495.60000610352</ele>
        <time>2019-06-02T08:46:06Z</time>
      </trkpt>
      <trkpt lat="43.47531" lon="2.37806">
        <ele>495.39999389648</ele>
        <time>2019-06-02T08:46:11Z</time>
      </trkpt>
      <trkpt lat="43.47532" lon="2.37806">
        <ele>495.39999389648</ele>
        <time>2019-06-02T08:46:13Z</time>
      </trkpt>
      <trkpt lat="43.47531" lon="2.37802">
        <ele>495.39999389648</ele>
        <time>2019-06-02T08:46:19Z</time>
      </trkpt>
      <trkpt lat="43.47531" lon="2.37803">
        <ele>495.20001220703</ele>
        <time>2019-06-02T08:46:20Z</time>
      </trkpt>
      <trkpt lat="43.4753" lon="2.37803">
        <ele>495</ele>
        <time>2019-06-02T08:46:21Z</time>
      </trkpt>
      <trkpt lat="43.47529" lon="2.37801">
        <ele>494.20001220703</ele>
        <time>2019-06-02T08:46:24Z</time>
      </trkpt>
      <trkpt lat="43.47528" lon="2.37801">
        <ele>494</ele>
        <time>2019-06-02T08:46:25Z</time>
      </trkpt>
      <trkpt lat="43.47526" lon="2.37799">
        <ele>494</ele>
        <time>2019-06-02T08:46:28Z</time>
      </trkpt>
      <trkpt lat="43.47526" lon="2.37798">
        <ele>494.20001220703</ele>
        <time>2019-06-02T08:46:29Z</time>
      </trkpt>
      <trkpt lat="43.47524" lon="2.37795">
        <ele>494.79998779297</ele>
        <time>2019-06-02T08:46:33Z</time>
      </trkpt>
      <trkpt lat="43.47523" lon="2.37792">
        <ele>494.79998779297</ele>
        <time>2019-06-02T08:46:35Z</time>
      </trkpt>
      <trkpt lat="43.47523" lon="2.37786">
        <ele>494.79998779297</ele>
        <time>2019-06-02T08:46:41Z</time>
      </trkpt>
      <trkpt lat="43.47521" lon="2.37783">
        <ele>494.60000610352</ele>
        <time>2019-06-02T08:46:45Z</time>
      </trkpt>
      <trkpt lat="43.4752" lon="2.37781">
        <ele>494.20001220703</ele>
        <time>2019-06-02T08:46:48Z</time>
      </trkpt>
      <trkpt lat="43.47522" lon="2.37781">
        <ele>493.39999389648</ele>
        <time>2019-06-02T08:46:53Z</time>
      </trkpt>
      <trkpt lat="43.47522" lon="2.37781">
        <ele>493</ele>
        <time>2019-06-02T08:46:56Z</time>
      </trkpt>
      <trkpt lat="43.47522" lon="2.3778">
        <ele>493</ele>
        <time>2019-06-02T08:47:00Z</time>
      </trkpt>
      <trkpt lat="43.47522" lon="2.3778">
        <ele>493.20001220703</ele>
        <time>2019-06-02T08:47:01Z</time>
      </trkpt>
      <trkpt lat="43.47522" lon="2.3778">
        <ele>493.20001220703</ele>
        <time>2019-06-02T08:47:03Z</time>
      </trkpt>
      <trkpt lat="43.47522" lon="2.3778">
        <ele>493.20001220703</ele>
        <time>2019-06-02T08:47:07Z</time>
      </trkpt>
      <trkpt lat="43.47523" lon="2.3778">
        <ele>493.20001220703</ele>
        <time>2019-06-02T08:47:10Z</time>
      </trkpt>
      <trkpt lat="43.47525" lon="2.37778">
        <ele>492.60000610352</ele>
        <time>2019-06-02T08:47:17Z</time>
      </trkpt>
      <trkpt lat="43.47525" lon="2.37777">
        <ele>492</ele>
        <time>2019-06-02T08:47:21Z</time>
      </trkpt>
      <trkpt lat="43.47527" lon="2.37777">
        <ele>491.79998779297</ele>
        <time>2019-06-02T08:47:25Z</time>
      </trkpt>
      <trkpt lat="43.47527" lon="2.37777">
        <ele>491</ele>
        <time>2019-06-02T08:47:28Z</time>
      </trkpt>
      <trkpt lat="43.47527" lon="2.37777">
        <ele>490.79998779297</ele>
        <time>2019-06-02T08:47:29Z</time>
      </trkpt>
      <trkpt lat="43.47527" lon="2.37776">
        <ele>490.79998779297</ele>
        <time>2019-06-02T08:47:30Z</time>
      </trkpt>
      <trkpt lat="43.47528" lon="2.37774">
        <ele>490.39999389648</ele>
        <time>2019-06-02T08:47:33Z</time>
      </trkpt>
      <trkpt lat="43.47527" lon="2.37772">
        <ele>490.20001220703</ele>
        <time>2019-06-02T08:47:36Z</time>
      </trkpt>
      <trkpt lat="43.47526" lon="2.3777">
        <ele>489.79998779297</ele>
        <time>2019-06-02T08:47:38Z</time>
      </trkpt>
      <trkpt lat="43.47523" lon="2.37768">
        <ele>488.79998779297</ele>
        <time>2019-06-02T08:47:44Z</time>
      </trkpt>
      <trkpt lat="43.47522" lon="2.37767">
        <ele>488.60000610352</ele>
        <time>2019-06-02T08:47:46Z</time>
      </trkpt>
      <trkpt lat="43.47521" lon="2.37766">
        <ele>487.79998779297</ele>
        <time>2019-06-02T08:47:52Z</time>
      </trkpt>
      <trkpt lat="43.47521" lon="2.37765">
        <ele>487.60000610352</ele>
        <time>2019-06-02T08:47:53Z</time>
      </trkpt>
      <trkpt lat="43.47519" lon="2.37766">
        <ele>487.20001220703</ele>
        <time>2019-06-02T08:47:58Z</time>
      </trkpt>
      <trkpt lat="43.47519" lon="2.37765">
        <ele>487.39999389648</ele>
        <time>2019-06-02T08:48:00Z</time>
      </trkpt>
      <trkpt lat="43.47517" lon="2.37764">
        <ele>487.60000610352</ele>
        <time>2019-06-02T08:48:05Z</time>
      </trkpt>
      <trkpt lat="43.47516" lon="2.37765">
        <ele>487.79998779297</ele>
        <time>2019-06-02T08:48:08Z</time>
      </trkpt>
      <trkpt lat="43.47515" lon="2.37765">
        <ele>488.39999389648</ele>
        <time>2019-06-02T08:48:13Z</time>
      </trkpt>
      <trkpt lat="43.47514" lon="2.37764">
        <ele>488.20001220703</ele>
        <time>2019-06-02T08:48:17Z</time>
      </trkpt>
      <trkpt lat="43.47513" lon="2.37764">
        <ele>488.20001220703</ele>
        <time>2019-06-02T08:48:20Z</time>
      </trkpt>
      <trkpt lat="43.47514" lon="2.37764">
        <ele>488.20001220703</ele>
        <time>2019-06-02T08:48:25Z</time>
      </trkpt>
      <trkpt lat="43.47514" lon="2.37764">
        <ele>488.20001220703</ele>
        <time>2019-06-02T08:48:26Z</time>
      </trkpt>
      <trkpt lat="43.47514" lon="2.37764">
        <ele>488.20001220703</ele>
        <time>2019-06-02T08:48:27Z</time>
      </trkpt>
      <trkpt lat="43.47514" lon="2.37764">
        <ele>488.20001220703</ele>
        <time>2019-06-02T08:48:30Z</time>
      </trkpt>
      <trkpt lat="43.47514" lon="2.37763">
        <ele>488.20001220703</ele>
        <time>2019-06-02T08:48:34Z</time>
      </trkpt>
      <trkpt lat="43.47514" lon="2.37764">
        <ele>488.20001220703</ele>
        <time>2019-06-02T08:48:35Z</time>
      </trkpt>
      <trkpt lat="43.47514" lon="2.37764">
        <ele>488.20001220703</ele>
        <time>2019-06-02T08:48:39Z</time>
      </trkpt>
      <trkpt lat="43.47513" lon="2.37768">
        <ele>488.39999389648</ele>
        <time>2019-06-02T08:48:45Z</time>
      </trkpt>
      <trkpt lat="43.47514" lon="2.37769">
        <ele>488.60000610352</ele>
        <time>2019-06-02T08:48:47Z</time>
      </trkpt>
      <trkpt lat="43.47512" lon="2.37767">
        <ele>488.79998779297</ele>
        <time>2019-06-02T08:48:49Z</time>
      </trkpt>
      <trkpt lat="43.47512" lon="2.37765">
        <ele>489</ele>
        <time>2019-06-02T08:48:52Z</time>
      </trkpt>
      <trkpt lat="43.47513" lon="2.37764">
        <ele>489</ele>
        <time>2019-06-02T08:48:58Z</time>
      </trkpt>
      <trkpt lat="43.47513" lon="2.37763">
        <ele>489</ele>
        <time>2019-06-02T08:49:05Z</time>
      </trkpt>
      <trkpt lat="43.47511" lon="2.37762">
        <ele>489</ele>
        <time>2019-06-02T08:49:12Z</time>
      </trkpt>
      <trkpt lat="43.47511" lon="2.37762">
        <ele>489</ele>
        <time>2019-06-02T08:49:13Z</time>
      </trkpt>
      <trkpt lat="43.4751" lon="2.37762">
        <ele>489</ele>
        <time>2019-06-02T08:49:20Z</time>
      </trkpt>
      <trkpt lat="43.47511" lon="2.37762">
        <ele>489</ele>
        <time>2019-06-02T08:49:23Z</time>
      </trkpt>
      <trkpt lat="43.47512" lon="2.37764">
        <ele>489</ele>
        <time>2019-06-02T08:49:29Z</time>
      </trkpt>
      <trkpt lat="43.47513" lon="2.37766">
        <ele>489.20001220703</ele>
        <time>2019-06-02T08:49:37Z</time>
      </trkpt>
      <trkpt lat="43.47512" lon="2.37764">
        <ele>489.39999389648</ele>
        <time>2019-06-02T08:49:43Z</time>
      </trkpt>
      <trkpt lat="43.47511" lon="2.37763">
        <ele>489.39999389648</ele>
        <time>2019-06-02T08:49:44Z</time>
      </trkpt>
      <trkpt lat="43.47511" lon="2.37763">
        <ele>489.20001220703</ele>
        <time>2019-06-02T08:49:46Z</time>
      </trkpt>
      <trkpt lat="43.47511" lon="2.37763">
        <ele>489.20001220703</ele>
        <time>2019-06-02T08:49:49Z</time>
      </trkpt>
      <trkpt lat="43.4751" lon="2.37763">
        <ele>489.20001220703</ele>
        <time>2019-06-02T08:49:50Z</time>
      </trkpt>
      <trkpt lat="43.47509" lon="2.37763">
        <ele>489.39999389648</ele>
        <time>2019-06-02T08:49:52Z</time>
      </trkpt>
      <trkpt lat="43.4751" lon="2.37764">
        <ele>489.39999389648</ele>
        <time>2019-06-02T08:49:56Z</time>
      </trkpt>
      <trkpt lat="43.4751" lon="2.37765">
        <ele>489.39999389648</ele>
        <time>2019-06-02T08:49:58Z</time>
      </trkpt>
      <trkpt lat="43.47513" lon="2.37766">
        <ele>489.39999389648</ele>
        <time>2019-06-02T08:50:01Z</time>
      </trkpt>
      <trkpt lat="43.47515" lon="2.37766">
        <ele>490.39999389648</ele>
        <time>2019-06-02T08:50:04Z</time>
      </trkpt>
      <trkpt lat="43.47515" lon="2.37766">
        <ele>489.60000610352</ele>
        <time>2019-06-02T08:50:11Z</time>
      </trkpt>
      <trkpt lat="43.47515" lon="2.37766">
        <ele>489.60000610352</ele>
        <time>2019-06-02T08:50:12Z</time>
      </trkpt>
      <trkpt lat="43.47515" lon="2.37768">
        <ele>489.60000610352</ele>
        <time>2019-06-02T08:50:18Z</time>
      </trkpt>
      <trkpt lat="43.47514" lon="2.37766">
        <ele>489.60000610352</ele>
        <time>2019-06-02T08:50:23Z</time>
      </trkpt>
      <trkpt lat="43.47514" lon="2.37765">
        <ele>489.60000610352</ele>
        <time>2019-06-02T08:50:27Z</time>
      </trkpt>
      <trkpt lat="43.47515" lon="2.37764">
        <ele>489.60000610352</ele>
        <time>2019-06-02T08:50:34Z</time>
      </trkpt>
      <trkpt lat="43.47515" lon="2.37762">
        <ele>489.60000610352</ele>
        <time>2019-06-02T08:50:42Z</time>
      </trkpt>
      <trkpt lat="43.47515" lon="2.37762">
        <ele>489.60000610352</ele>
        <time>2019-06-02T08:50:46Z</time>
      </trkpt>
      <trkpt lat="43.47515" lon="2.37763">
        <ele>489.60000610352</ele>
        <time>2019-06-02T08:50:49Z</time>
      </trkpt>
      <trkpt lat="43.47514" lon="2.37762">
        <ele>489.60000610352</ele>
        <time>2019-06-02T08:50:53Z</time>
      </trkpt>
      <trkpt lat="43.47513" lon="2.37763">
        <ele>489.60000610352</ele>
        <time>2019-06-02T08:50:55Z</time>
      </trkpt>
      <trkpt lat="43.47512" lon="2.37762">
        <ele>489.60000610352</ele>
        <time>2019-06-02T08:50:57Z</time>
      </trkpt>
      <trkpt lat="43.47512" lon="2.37761">
        <ele>489.60000610352</ele>
        <time>2019-06-02T08:51:03Z</time>
      </trkpt>
      <trkpt lat="43.47511" lon="2.37761">
        <ele>489.60000610352</ele>
        <time>2019-06-02T08:51:07Z</time>
      </trkpt>
      <trkpt lat="43.47511" lon="2.3776">
        <ele>489.60000610352</ele>
        <time>2019-06-02T08:51:09Z</time>
      </trkpt>
      <trkpt lat="43.47512" lon="2.3776">
        <ele>489.60000610352</ele>
        <time>2019-06-02T08:51:11Z</time>
      </trkpt>
      <trkpt lat="43.47512" lon="2.37758">
        <ele>489.60000610352</ele>
        <time>2019-06-02T08:51:18Z</time>
      </trkpt>
      <trkpt lat="43.47512" lon="2.37757">
        <ele>489.60000610352</ele>
        <time>2019-06-02T08:51:20Z</time>
      </trkpt>
      <trkpt lat="43.47512" lon="2.37758">
        <ele>489.60000610352</ele>
        <time>2019-06-02T08:51:28Z</time>
      </trkpt>
      <trkpt lat="43.47513" lon="2.37757">
        <ele>489.60000610352</ele>
        <time>2019-06-02T08:51:31Z</time>
      </trkpt>
      <trkpt lat="43.47511" lon="2.37757">
        <ele>489.60000610352</ele>
        <time>2019-06-02T08:51:40Z</time>
      </trkpt>
      <trkpt lat="43.47511" lon="2.37757">
        <ele>489.60000610352</ele>
        <time>2019-06-02T08:51:43Z</time>
      </trkpt>
      <trkpt lat="43.47511" lon="2.37758">
        <ele>489.60000610352</ele>
        <time>2019-06-02T08:51:45Z</time>
      </trkpt>
      <trkpt lat="43.47512" lon="2.37759">
        <ele>489.60000610352</ele>
        <time>2019-06-02T08:51:48Z</time>
      </trkpt>
      <trkpt lat="43.47512" lon="2.37759">
        <ele>489.60000610352</ele>
        <time>2019-06-02T08:51:49Z</time>
      </trkpt>
      <trkpt lat="43.47511" lon="2.37759">
        <ele>489.60000610352</ele>
        <time>2019-06-02T08:51:57Z</time>
      </trkpt>
      <trkpt lat="43.4751" lon="2.37761">
        <ele>489.60000610352</ele>
        <time>2019-06-02T08:52:08Z</time>
      </trkpt>
      <trkpt lat="43.4751" lon="2.37761">
        <ele>489.60000610352</ele>
        <time>2019-06-02T08:52:11Z</time>
      </trkpt>
      <trkpt lat="43.4751" lon="2.37761">
        <ele>489.60000610352</ele>
        <time>2019-06-02T08:52:13Z</time>
      </trkpt>
      <trkpt lat="43.47509" lon="2.3776">
        <ele>489.60000610352</ele>
        <time>2019-06-02T08:52:17Z</time>
      </trkpt>
      <trkpt lat="43.4751" lon="2.37759">
        <ele>489.60000610352</ele>
        <time>2019-06-02T08:52:22Z</time>
      </trkpt>
      <trkpt lat="43.4751" lon="2.3776">
        <ele>489.60000610352</ele>
        <time>2019-06-02T08:52:25Z</time>
      </trkpt>
      <trkpt lat="43.47511" lon="2.37761">
        <ele>489.60000610352</ele>
        <time>2019-06-02T08:52:28Z</time>
      </trkpt>
      <trkpt lat="43.4751" lon="2.37762">
        <ele>489.60000610352</ele>
        <time>2019-06-02T08:52:33Z</time>
      </trkpt>
      <trkpt lat="43.47511" lon="2.37761">
        <ele>489.60000610352</ele>
        <time>2019-06-02T08:52:35Z</time>
      </trkpt>
      <trkpt lat="43.47511" lon="2.37761">
        <ele>489.60000610352</ele>
        <time>2019-06-02T08:52:37Z</time>
      </trkpt>
      <trkpt lat="43.47511" lon="2.37762">
        <ele>489.60000610352</ele>
        <time>2019-06-02T08:52:39Z</time>
      </trkpt>
      <trkpt lat="43.47511" lon="2.37762">
        <ele>489.60000610352</ele>
        <time>2019-06-02T08:52:40Z</time>
      </trkpt>
      <trkpt lat="43.47509" lon="2.37763">
        <ele>489.60000610352</ele>
        <time>2019-06-02T08:52:47Z</time>
      </trkpt>
      <trkpt lat="43.47509" lon="2.37762">
        <ele>489.60000610352</ele>
        <time>2019-06-02T08:52:53Z</time>
      </trkpt>
      <trkpt lat="43.47509" lon="2.37762">
        <ele>489.60000610352</ele>
        <time>2019-06-02T08:52:59Z</time>
      </trkpt>
      <trkpt lat="43.47391" lon="2.3763">
        <ele>484.20001220703</ele>
        <time>2019-06-02T08:59:11Z</time>
      </trkpt>
      <trkpt lat="43.4739" lon="2.37629">
        <ele>484.20001220703</ele>
        <time>2019-06-02T08:59:12Z</time>
      </trkpt>
      <trkpt lat="43.47387" lon="2.37629">
        <ele>484.60000610352</ele>
        <time>2019-06-02T08:59:15Z</time>
      </trkpt>
      <trkpt lat="43.47384" lon="2.37628">
        <ele>485</ele>
        <time>2019-06-02T08:59:17Z</time>
      </trkpt>
      <trkpt lat="43.47383" lon="2.37628">
        <ele>485.20001220703</ele>
        <time>2019-06-02T08:59:18Z</time>
      </trkpt>
      <trkpt lat="43.47379" lon="2.37629">
        <ele>485.60000610352</ele>
        <time>2019-06-02T08:59:22Z</time>
      </trkpt>
      <trkpt lat="43.47376" lon="2.37627">
        <ele>486.20001220703</ele>
        <time>2019-06-02T08:59:25Z</time>
      </trkpt>
      <trkpt lat="43.47375" lon="2.37628">
        <ele>486.20001220703</ele>
        <time>2019-06-02T08:59:26Z</time>
      </trkpt>
      <trkpt lat="43.47373" lon="2.37628">
        <ele>486.39999389648</ele>
        <time>2019-06-02T08:59:28Z</time>
      </trkpt>
      <trkpt lat="43.47362" lon="2.37628">
        <ele>487</ele>
        <time>2019-06-02T08:59:37Z</time>
      </trkpt>
      <trkpt lat="43.47359" lon="2.37629">
        <ele>486.79998779297</ele>
        <time>2019-06-02T08:59:39Z</time>
      </trkpt>
      <trkpt lat="43.47355" lon="2.37629">
        <ele>487</ele>
        <time>2019-06-02T08:59:43Z</time>
      </trkpt>
      <trkpt lat="43.47354" lon="2.37627">
        <ele>487.20001220703</ele>
        <time>2019-06-02T08:59:44Z</time>
      </trkpt>
      <trkpt lat="43.47346" lon="2.37624">
        <ele>486.60000610352</ele>
        <time>2019-06-02T08:59:50Z</time>
      </trkpt>
      <trkpt lat="43.47341" lon="2.37619">
        <ele>486.20001220703</ele>
        <time>2019-06-02T08:59:55Z</time>
      </trkpt>
      <trkpt lat="43.47338" lon="2.37616">
        <ele>486.20001220703</ele>
        <time>2019-06-02T08:59:58Z</time>
      </trkpt>
      <trkpt lat="43.47329" lon="2.37616">
        <ele>486.20001220703</ele>
        <time>2019-06-02T09:00:06Z</time>
      </trkpt>
      <trkpt lat="43.47324" lon="2.37618">
        <ele>487</ele>
        <time>2019-06-02T09:00:11Z</time>
      </trkpt>
      <trkpt lat="43.47323" lon="2.37618">
        <ele>487.20001220703</ele>
        <time>2019-06-02T09:00:12Z</time>
      </trkpt>
      <trkpt lat="43.47316" lon="2.37621">
        <ele>486.60000610352</ele>
        <time>2019-06-02T09:00:19Z</time>
      </trkpt>
      <trkpt lat="43.47311" lon="2.3762">
        <ele>486.60000610352</ele>
        <time>2019-06-02T09:00:23Z</time>
      </trkpt>
      <trkpt lat="43.47309" lon="2.37619">
        <ele>486.60000610352</ele>
        <time>2019-06-02T09:00:25Z</time>
      </trkpt>
      <trkpt lat="43.47299" lon="2.37616">
        <ele>486.20001220703</ele>
        <time>2019-06-02T09:00:31Z</time>
      </trkpt>
      <trkpt lat="43.47297" lon="2.37619">
        <ele>485</ele>
        <time>2019-06-02T09:00:33Z</time>
      </trkpt>
      <trkpt lat="43.4729" lon="2.37622">
        <ele>485</ele>
        <time>2019-06-02T09:00:39Z</time>
      </trkpt>
      <trkpt lat="43.47283" lon="2.37626">
        <ele>484.60000610352</ele>
        <time>2019-06-02T09:00:46Z</time>
      </trkpt>
      <trkpt lat="43.47272" lon="2.37623">
        <ele>484</ele>
        <time>2019-06-02T09:00:54Z</time>
      </trkpt>
      <trkpt lat="43.47271" lon="2.37622">
        <ele>483.79998779297</ele>
        <time>2019-06-02T09:00:55Z</time>
      </trkpt>
      <trkpt lat="43.47264" lon="2.37618">
        <ele>483.20001220703</ele>
        <time>2019-06-02T09:01:02Z</time>
      </trkpt>
      <trkpt lat="43.47258" lon="2.37616">
        <ele>482.79998779297</ele>
        <time>2019-06-02T09:01:08Z</time>
      </trkpt>
      <trkpt lat="43.47257" lon="2.37616">
        <ele>482.79998779297</ele>
        <time>2019-06-02T09:01:09Z</time>
      </trkpt>
      <trkpt lat="43.47255" lon="2.37615">
        <ele>482.60000610352</ele>
        <time>2019-06-02T09:01:11Z</time>
      </trkpt>
      <trkpt lat="43.47251" lon="2.37614">
        <ele>482.20001220703</ele>
        <time>2019-06-02T09:01:16Z</time>
      </trkpt>
      <trkpt lat="43.4725" lon="2.37614">
        <ele>481.79998779297</ele>
        <time>2019-06-02T09:01:18Z</time>
      </trkpt>
      <trkpt lat="43.47248" lon="2.37614">
        <ele>481.79998779297</ele>
        <time>2019-06-02T09:01:22Z</time>
      </trkpt>
      <trkpt lat="43.47246" lon="2.37612">
        <ele>481.60000610352</ele>
        <time>2019-06-02T09:01:23Z</time>
      </trkpt>
      <trkpt lat="43.47242" lon="2.37608">
        <ele>481.39999389648</ele>
        <time>2019-06-02T09:01:27Z</time>
      </trkpt>
      <trkpt lat="43.47236" lon="2.37604">
        <ele>480.79998779297</ele>
        <time>2019-06-02T09:01:32Z</time>
      </trkpt>
      <trkpt lat="43.47232" lon="2.37601">
        <ele>480.79998779297</ele>
        <time>2019-06-02T09:01:34Z</time>
      </trkpt>
      <trkpt lat="43.47222" lon="2.37603">
        <ele>480.60000610352</ele>
        <time>2019-06-02T09:01:42Z</time>
      </trkpt>
      <trkpt lat="43.47218" lon="2.37607">
        <ele>481</ele>
        <time>2019-06-02T09:01:49Z</time>
      </trkpt>
      <trkpt lat="43.47215" lon="2.3761">
        <ele>481.60000610352</ele>
        <time>2019-06-02T09:01:54Z</time>
      </trkpt>
      <trkpt lat="43.47212" lon="2.37611">
        <ele>481.79998779297</ele>
        <time>2019-06-02T09:01:59Z</time>
      </trkpt>
      <trkpt lat="43.4721" lon="2.37612">
        <ele>481.39999389648</ele>
        <time>2019-06-02T09:02:01Z</time>
      </trkpt>
      <trkpt lat="43.47209" lon="2.37614">
        <ele>481.79998779297</ele>
        <time>2019-06-02T09:02:04Z</time>
      </trkpt>
      <trkpt lat="43.47206" lon="2.37613">
        <ele>481.79998779297</ele>
        <time>2019-06-02T09:02:06Z</time>
      </trkpt>
      <trkpt lat="43.47205" lon="2.37613">
        <ele>481.79998779297</ele>
        <time>2019-06-02T09:02:07Z</time>
      </trkpt>
      <trkpt lat="43.47195" lon="2.37616">
        <ele>482.39999389648</ele>
        <time>2019-06-02T09:02:14Z</time>
      </trkpt>
      <trkpt lat="43.47192" lon="2.37615">
        <ele>482.60000610352</ele>
        <time>2019-06-02T09:02:18Z</time>
      </trkpt>
      <trkpt lat="43.4719" lon="2.37614">
        <ele>483</ele>
        <time>2019-06-02T09:02:20Z</time>
      </trkpt>
      <trkpt lat="43.4719" lon="2.37614">
        <ele>483</ele>
        <time>2019-06-02T09:02:21Z</time>
      </trkpt>
      <trkpt lat="43.47186" lon="2.37613">
        <ele>483.39999389648</ele>
        <time>2019-06-02T09:02:25Z</time>
      </trkpt>
      <trkpt lat="43.47184" lon="2.37613">
        <ele>483.79998779297</ele>
        <time>2019-06-02T09:02:27Z</time>
      </trkpt>
      <trkpt lat="43.47182" lon="2.37613">
        <ele>484</ele>
        <time>2019-06-02T09:02:29Z</time>
      </trkpt>
      <trkpt lat="43.47179" lon="2.37615">
        <ele>484</ele>
        <time>2019-06-02T09:02:33Z</time>
      </trkpt>
      <trkpt lat="43.47178" lon="2.37615">
        <ele>484.20001220703</ele>
        <time>2019-06-02T09:02:34Z</time>
      </trkpt>
      <trkpt lat="43.47169" lon="2.37621">
        <ele>484.79998779297</ele>
        <time>2019-06-02T09:02:43Z</time>
      </trkpt>
      <trkpt lat="43.47167" lon="2.37621">
        <ele>485</ele>
        <time>2019-06-02T09:02:46Z</time>
      </trkpt>
      <trkpt lat="43.47165" lon="2.37621">
        <ele>485.39999389648</ele>
        <time>2019-06-02T09:02:48Z</time>
      </trkpt>
      <trkpt lat="43.47162" lon="2.37624">
        <ele>486</ele>
        <time>2019-06-02T09:02:52Z</time>
      </trkpt>
      <trkpt lat="43.47161" lon="2.37624">
        <ele>486.20001220703</ele>
        <time>2019-06-02T09:02:53Z</time>
      </trkpt>
      <trkpt lat="43.47157" lon="2.37626">
        <ele>486.60000610352</ele>
        <time>2019-06-02T09:02:56Z</time>
      </trkpt>
      <trkpt lat="43.47153" lon="2.37624">
        <ele>487</ele>
        <time>2019-06-02T09:03:00Z</time>
      </trkpt>
      <trkpt lat="43.47152" lon="2.37624">
        <ele>487.20001220703</ele>
        <time>2019-06-02T09:03:01Z</time>
      </trkpt>
      <trkpt lat="43.4715" lon="2.37622">
        <ele>487.39999389648</ele>
        <time>2019-06-02T09:03:03Z</time>
      </trkpt>
      <trkpt lat="43.47148" lon="2.37619">
        <ele>487.60000610352</ele>
        <time>2019-06-02T09:03:05Z</time>
      </trkpt>
      <trkpt lat="43.47145" lon="2.37616">
        <ele>487.79998779297</ele>
        <time>2019-06-02T09:03:07Z</time>
      </trkpt>
      <trkpt lat="43.47143" lon="2.37614">
        <ele>488</ele>
        <time>2019-06-02T09:03:09Z</time>
      </trkpt>
      <trkpt lat="43.47142" lon="2.37612">
        <ele>488.20001220703</ele>
        <time>2019-06-02T09:03:10Z</time>
      </trkpt>
      <trkpt lat="43.47141" lon="2.37602">
        <ele>488.79998779297</ele>
        <time>2019-06-02T09:03:15Z</time>
      </trkpt>
      <trkpt lat="43.47148" lon="2.37597">
        <ele>489.20001220703</ele>
        <time>2019-06-02T09:03:21Z</time>
      </trkpt>
      <trkpt lat="43.47148" lon="2.37596">
        <ele>489.39999389648</ele>
        <time>2019-06-02T09:03:22Z</time>
      </trkpt>
      <trkpt lat="43.4715" lon="2.37592">
        <ele>490</ele>
        <time>2019-06-02T09:03:28Z</time>
      </trkpt>
      <trkpt lat="43.4715" lon="2.37587">
        <ele>490.39999389648</ele>
        <time>2019-06-02T09:03:34Z</time>
      </trkpt>
      <trkpt lat="43.47149" lon="2.37584">
        <ele>490.60000610352</ele>
        <time>2019-06-02T09:03:36Z</time>
      </trkpt>
      <trkpt lat="43.47149" lon="2.37574">
        <ele>491.39999389648</ele>
        <time>2019-06-02T09:03:42Z</time>
      </trkpt>
      <trkpt lat="43.47152" lon="2.37572">
        <ele>492</ele>
        <time>2019-06-02T09:03:44Z</time>
      </trkpt>
      <trkpt lat="43.47156" lon="2.37567">
        <ele>492.39999389648</ele>
        <time>2019-06-02T09:03:51Z</time>
      </trkpt>
      <trkpt lat="43.47156" lon="2.37567">
        <ele>492.60000610352</ele>
        <time>2019-06-02T09:03:52Z</time>
      </trkpt>
      <trkpt lat="43.47156" lon="2.37562">
        <ele>493</ele>
        <time>2019-06-02T09:03:56Z</time>
      </trkpt>
      <trkpt lat="43.47155" lon="2.3756">
        <ele>493.20001220703</ele>
        <time>2019-06-02T09:03:58Z</time>
      </trkpt>
      <trkpt lat="43.47154" lon="2.37559">
        <ele>493.20001220703</ele>
        <time>2019-06-02T09:03:59Z</time>
      </trkpt>
      <trkpt lat="43.47155" lon="2.37556">
        <ele>493.60000610352</ele>
        <time>2019-06-02T09:04:01Z</time>
      </trkpt>
      <trkpt lat="43.47151" lon="2.37549">
        <ele>494.39999389648</ele>
        <time>2019-06-02T09:04:09Z</time>
      </trkpt>
      <trkpt lat="43.4715" lon="2.37546">
        <ele>494.79998779297</ele>
        <time>2019-06-02T09:04:12Z</time>
      </trkpt>
      <trkpt lat="43.47145" lon="2.37534">
        <ele>495</ele>
        <time>2019-06-02T09:04:20Z</time>
      </trkpt>
      <trkpt lat="43.47144" lon="2.37531">
        <ele>495.20001220703</ele>
        <time>2019-06-02T09:04:21Z</time>
      </trkpt>
      <trkpt lat="43.47144" lon="2.37528">
        <ele>495.79998779297</ele>
        <time>2019-06-02T09:04:23Z</time>
      </trkpt>
      <trkpt lat="43.4714" lon="2.37524">
        <ele>496.39999389648</ele>
        <time>2019-06-02T09:04:28Z</time>
      </trkpt>
      <trkpt lat="43.4714" lon="2.37521">
        <ele>496.79998779297</ele>
        <time>2019-06-02T09:04:31Z</time>
      </trkpt>
      <trkpt lat="43.47137" lon="2.37512">
        <ele>497.79998779297</ele>
        <time>2019-06-02T09:04:37Z</time>
      </trkpt>
      <trkpt lat="43.47137" lon="2.37512">
        <ele>497.79998779297</ele>
        <time>2019-06-02T09:04:38Z</time>
      </trkpt>
      <trkpt lat="43.47135" lon="2.37503">
        <ele>499</ele>
        <time>2019-06-02T09:04:45Z</time>
      </trkpt>
      <trkpt lat="43.47135" lon="2.375">
        <ele>499</ele>
        <time>2019-06-02T09:04:46Z</time>
      </trkpt>
      <trkpt lat="43.47137" lon="2.37491">
        <ele>500</ele>
        <time>2019-06-02T09:04:52Z</time>
      </trkpt>
      <trkpt lat="43.47136" lon="2.3749">
        <ele>500.20001220703</ele>
        <time>2019-06-02T09:04:54Z</time>
      </trkpt>
      <trkpt lat="43.47136" lon="2.37484">
        <ele>501.20001220703</ele>
        <time>2019-06-02T09:05:02Z</time>
      </trkpt>
      <trkpt lat="43.47132" lon="2.37476">
        <ele>502.20001220703</ele>
        <time>2019-06-02T09:05:09Z</time>
      </trkpt>
      <trkpt lat="43.47132" lon="2.37473">
        <ele>502.39999389648</ele>
        <time>2019-06-02T09:05:11Z</time>
      </trkpt>
      <trkpt lat="43.47133" lon="2.37465">
        <ele>502.39999389648</ele>
        <time>2019-06-02T09:05:21Z</time>
      </trkpt>
      <trkpt lat="43.47135" lon="2.37458">
        <ele>501.20001220703</ele>
        <time>2019-06-02T09:05:28Z</time>
      </trkpt>
      <trkpt lat="43.47135" lon="2.37457">
        <ele>501</ele>
        <time>2019-06-02T09:05:29Z</time>
      </trkpt>
      <trkpt lat="43.47137" lon="2.37447">
        <ele>500.39999389648</ele>
        <time>2019-06-02T09:05:35Z</time>
      </trkpt>
      <trkpt lat="43.47137" lon="2.37447">
        <ele>500.20001220703</ele>
        <time>2019-06-02T09:05:36Z</time>
      </trkpt>
      <trkpt lat="43.47138" lon="2.37445">
        <ele>499.60000610352</ele>
        <time>2019-06-02T09:05:39Z</time>
      </trkpt>
      <trkpt lat="43.47139" lon="2.37441">
        <ele>499.39999389648</ele>
        <time>2019-06-02T09:05:43Z</time>
      </trkpt>
      <trkpt lat="43.47139" lon="2.37435">
        <ele>499.20001220703</ele>
        <time>2019-06-02T09:05:47Z</time>
      </trkpt>
      <trkpt lat="43.47139" lon="2.37434">
        <ele>499.20001220703</ele>
        <time>2019-06-02T09:05:48Z</time>
      </trkpt>
      <trkpt lat="43.47139" lon="2.3743">
        <ele>498.79998779297</ele>
        <time>2019-06-02T09:05:51Z</time>
      </trkpt>
      <trkpt lat="43.47139" lon="2.37429">
        <ele>498.79998779297</ele>
        <time>2019-06-02T09:05:52Z</time>
      </trkpt>
      <trkpt lat="43.47143" lon="2.37423">
        <ele>498.39999389648</ele>
        <time>2019-06-02T09:05:56Z</time>
      </trkpt>
      <trkpt lat="43.47146" lon="2.37419">
        <ele>498.20001220703</ele>
        <time>2019-06-02T09:05:59Z</time>
      </trkpt>
      <trkpt lat="43.47146" lon="2.37412">
        <ele>498.20001220703</ele>
        <time>2019-06-02T09:06:06Z</time>
      </trkpt>
      <trkpt lat="43.47145" lon="2.37407">
        <ele>498</ele>
        <time>2019-06-02T09:06:08Z</time>
      </trkpt>
      <trkpt lat="43.47146" lon="2.37402">
        <ele>497.79998779297</ele>
        <time>2019-06-02T09:06:13Z</time>
      </trkpt>
      <trkpt lat="43.4715" lon="2.37391">
        <ele>497.60000610352</ele>
        <time>2019-06-02T09:06:21Z</time>
      </trkpt>
      <trkpt lat="43.47152" lon="2.37381">
        <ele>497.79998779297</ele>
        <time>2019-06-02T09:06:26Z</time>
      </trkpt>
      <trkpt lat="43.47155" lon="2.37375">
        <ele>498</ele>
        <time>2019-06-02T09:06:30Z</time>
      </trkpt>
      <trkpt lat="43.47156" lon="2.37368">
        <ele>498.20001220703</ele>
        <time>2019-06-02T09:06:35Z</time>
      </trkpt>
      <trkpt lat="43.47157" lon="2.37364">
        <ele>498.20001220703</ele>
        <time>2019-06-02T09:06:38Z</time>
      </trkpt>
      <trkpt lat="43.47157" lon="2.37356">
        <ele>498.20001220703</ele>
        <time>2019-06-02T09:06:46Z</time>
      </trkpt>
      <trkpt lat="43.47155" lon="2.3735">
        <ele>498.39999389648</ele>
        <time>2019-06-02T09:06:54Z</time>
      </trkpt>
      <trkpt lat="43.47154" lon="2.37344">
        <ele>498.39999389648</ele>
        <time>2019-06-02T09:07:02Z</time>
      </trkpt>
      <trkpt lat="43.47152" lon="2.37335">
        <ele>498.20001220703</ele>
        <time>2019-06-02T09:07:09Z</time>
      </trkpt>
      <trkpt lat="43.47149" lon="2.37326">
        <ele>498.20001220703</ele>
        <time>2019-06-02T09:07:17Z</time>
      </trkpt>
      <trkpt lat="43.47147" lon="2.37316">
        <ele>497.79998779297</ele>
        <time>2019-06-02T09:07:24Z</time>
      </trkpt>
      <trkpt lat="43.47147" lon="2.37311">
        <ele>498.20001220703</ele>
        <time>2019-06-02T09:07:29Z</time>
      </trkpt>
      <trkpt lat="43.47146" lon="2.37309">
        <ele>498.39999389648</ele>
        <time>2019-06-02T09:07:31Z</time>
      </trkpt>
      <trkpt lat="43.47142" lon="2.37304">
        <ele>498.20001220703</ele>
        <time>2019-06-02T09:07:35Z</time>
      </trkpt>
      <trkpt lat="43.47141" lon="2.37302">
        <ele>498.39999389648</ele>
        <time>2019-06-02T09:07:37Z</time>
      </trkpt>
      <trkpt lat="43.4714" lon="2.37301">
        <ele>499.20001220703</ele>
        <time>2019-06-02T09:07:39Z</time>
      </trkpt>
      <trkpt lat="43.47137" lon="2.37293">
        <ele>499.39999389648</ele>
        <time>2019-06-02T09:07:43Z</time>
      </trkpt>
      <trkpt lat="43.47134" lon="2.37287">
        <ele>499</ele>
        <time>2019-06-02T09:07:48Z</time>
      </trkpt>
      <trkpt lat="43.47133" lon="2.37285">
        <ele>499.20001220703</ele>
        <time>2019-06-02T09:07:50Z</time>
      </trkpt>
      <trkpt lat="43.47132" lon="2.37278">
        <ele>498.79998779297</ele>
        <time>2019-06-02T09:07:55Z</time>
      </trkpt>
      <trkpt lat="43.47132" lon="2.37276">
        <ele>498.79998779297</ele>
        <time>2019-06-02T09:07:58Z</time>
      </trkpt>
      <trkpt lat="43.47128" lon="2.37271">
        <ele>499.39999389648</ele>
        <time>2019-06-02T09:08:03Z</time>
      </trkpt>
      <trkpt lat="43.47126" lon="2.37268">
        <ele>500</ele>
        <time>2019-06-02T09:08:06Z</time>
      </trkpt>
      <trkpt lat="43.47126" lon="2.37267">
        <ele>500.20001220703</ele>
        <time>2019-06-02T09:08:07Z</time>
      </trkpt>
      <trkpt lat="43.47127" lon="2.37261">
        <ele>500.60000610352</ele>
        <time>2019-06-02T09:08:14Z</time>
      </trkpt>
      <trkpt lat="43.47127" lon="2.37258">
        <ele>500.79998779297</ele>
        <time>2019-06-02T09:08:18Z</time>
      </trkpt>
      <trkpt lat="43.47126" lon="2.37257">
        <ele>500.60000610352</ele>
        <time>2019-06-02T09:08:20Z</time>
      </trkpt>
      <trkpt lat="43.47127" lon="2.37256">
        <ele>500.39999389648</ele>
        <time>2019-06-02T09:08:21Z</time>
      </trkpt>
      <trkpt lat="43.47126" lon="2.37255">
        <ele>500.39999389648</ele>
        <time>2019-06-02T09:08:22Z</time>
      </trkpt>
      <trkpt lat="43.47124" lon="2.37253">
        <ele>500</ele>
        <time>2019-06-02T09:08:24Z</time>
      </trkpt>
      <trkpt lat="43.4712" lon="2.37248">
        <ele>499.39999389648</ele>
        <time>2019-06-02T09:08:30Z</time>
      </trkpt>
      <trkpt lat="43.47121" lon="2.37244">
        <ele>500</ele>
        <time>2019-06-02T09:08:37Z</time>
      </trkpt>
      <trkpt lat="43.47123" lon="2.37236">
        <ele>499.60000610352</ele>
        <time>2019-06-02T09:08:45Z</time>
      </trkpt>
      <trkpt lat="43.4712" lon="2.37233">
        <ele>500.20001220703</ele>
        <time>2019-06-02T09:08:52Z</time>
      </trkpt>
      <trkpt lat="43.47118" lon="2.3723">
        <ele>500.20001220703</ele>
        <time>2019-06-02T09:08:53Z</time>
      </trkpt>
      <trkpt lat="43.47116" lon="2.37224">
        <ele>501</ele>
        <time>2019-06-02T09:09:00Z</time>
      </trkpt>
      <trkpt lat="43.47117" lon="2.37222">
        <ele>501.39999389648</ele>
        <time>2019-06-02T09:09:02Z</time>
      </trkpt>
      <trkpt lat="43.47118" lon="2.3722">
        <ele>502.39999389648</ele>
        <time>2019-06-02T09:09:06Z</time>
      </trkpt>
      <trkpt lat="43.47122" lon="2.37217">
        <ele>502.79998779297</ele>
        <time>2019-06-02T09:09:09Z</time>
      </trkpt>
      <trkpt lat="43.47122" lon="2.37212">
        <ele>503.39999389648</ele>
        <time>2019-06-02T09:09:14Z</time>
      </trkpt>
      <trkpt lat="43.47122" lon="2.37211">
        <ele>503.39999389648</ele>
        <time>2019-06-02T09:09:15Z</time>
      </trkpt>
      <trkpt lat="43.47121" lon="2.3721">
        <ele>503.39999389648</ele>
        <time>2019-06-02T09:09:17Z</time>
      </trkpt>
      <trkpt lat="43.47117" lon="2.37205">
        <ele>502.60000610352</ele>
        <time>2019-06-02T09:09:24Z</time>
      </trkpt>
      <trkpt lat="43.47117" lon="2.37205">
        <ele>502.39999389648</ele>
        <time>2019-06-02T09:09:25Z</time>
      </trkpt>
      <trkpt lat="43.47113" lon="2.372">
        <ele>501.39999389648</ele>
        <time>2019-06-02T09:09:29Z</time>
      </trkpt>
      <trkpt lat="43.4711" lon="2.37195">
        <ele>501</ele>
        <time>2019-06-02T09:09:32Z</time>
      </trkpt>
      <trkpt lat="43.47109" lon="2.37193">
        <ele>500.79998779297</ele>
        <time>2019-06-02T09:09:33Z</time>
      </trkpt>
      <trkpt lat="43.47106" lon="2.37191">
        <ele>500.39999389648</ele>
        <time>2019-06-02T09:09:37Z</time>
      </trkpt>
      <trkpt lat="43.47106" lon="2.3719">
        <ele>500.20001220703</ele>
        <time>2019-06-02T09:09:38Z</time>
      </trkpt>
      <trkpt lat="43.47105" lon="2.37186">
        <ele>499.79998779297</ele>
        <time>2019-06-02T09:09:41Z</time>
      </trkpt>
      <trkpt lat="43.47105" lon="2.37185">
        <ele>499.20001220703</ele>
        <time>2019-06-02T09:09:42Z</time>
      </trkpt>
      <trkpt lat="43.47104" lon="2.3718">
        <ele>499.20001220703</ele>
        <time>2019-06-02T09:09:46Z</time>
      </trkpt>
      <trkpt lat="43.47103" lon="2.37178">
        <ele>499.20001220703</ele>
        <time>2019-06-02T09:09:47Z</time>
      </trkpt>
      <trkpt lat="43.47105" lon="2.37174">
        <ele>499.20001220703</ele>
        <time>2019-06-02T09:09:49Z</time>
      </trkpt>
      <trkpt lat="43.47105" lon="2.37172">
        <ele>499.20001220703</ele>
        <time>2019-06-02T09:09:51Z</time>
      </trkpt>
      <trkpt lat="43.47102" lon="2.37164">
        <ele>499.20001220703</ele>
        <time>2019-06-02T09:09:58Z</time>
      </trkpt>
      <trkpt lat="43.47112" lon="2.37149">
        <ele>499.20001220703</ele>
        <time>2019-06-02T09:10:06Z</time>
      </trkpt>
      <trkpt lat="43.47107" lon="2.37141">
        <ele>499.20001220703</ele>
        <time>2019-06-02T09:10:14Z</time>
      </trkpt>
      <trkpt lat="43.47107" lon="2.37137">
        <ele>499.20001220703</ele>
        <time>2019-06-02T09:10:19Z</time>
      </trkpt>
      <trkpt lat="43.47105" lon="2.37135">
        <ele>499.20001220703</ele>
        <time>2019-06-02T09:10:23Z</time>
      </trkpt>
      <trkpt lat="43.47103" lon="2.37133">
        <ele>499.20001220703</ele>
        <time>2019-06-02T09:10:27Z</time>
      </trkpt>
      <trkpt lat="43.47103" lon="2.37131">
        <ele>499.20001220703</ele>
        <time>2019-06-02T09:10:32Z</time>
      </trkpt>
      <trkpt lat="43.47102" lon="2.37129">
        <ele>499.20001220703</ele>
        <time>2019-06-02T09:10:35Z</time>
      </trkpt>
      <trkpt lat="43.471" lon="2.37128">
        <ele>499.20001220703</ele>
        <time>2019-06-02T09:10:38Z</time>
      </trkpt>
      <trkpt lat="43.47099" lon="2.37126">
        <ele>499.20001220703</ele>
        <time>2019-06-02T09:10:40Z</time>
      </trkpt>
      <trkpt lat="43.47098" lon="2.37123">
        <ele>507.20001220703</ele>
        <time>2019-06-02T09:10:43Z</time>
      </trkpt>
      <trkpt lat="43.47097" lon="2.37122">
        <ele>507</ele>
        <time>2019-06-02T09:10:44Z</time>
      </trkpt>
      <trkpt lat="43.47095" lon="2.37121">
        <ele>507</ele>
        <time>2019-06-02T09:10:47Z</time>
      </trkpt>
      <trkpt lat="43.47094" lon="2.3712">
        <ele>507.39999389648</ele>
        <time>2019-06-02T09:10:48Z</time>
      </trkpt>
      <trkpt lat="43.47093" lon="2.37118">
        <ele>507.39999389648</ele>
        <time>2019-06-02T09:10:51Z</time>
      </trkpt>
      <trkpt lat="43.47092" lon="2.37116">
        <ele>507.60000610352</ele>
        <time>2019-06-02T09:10:54Z</time>
      </trkpt>
      <trkpt lat="43.47091" lon="2.37114">
        <ele>507.79998779297</ele>
        <time>2019-06-02T09:10:56Z</time>
      </trkpt>
      <trkpt lat="43.4709" lon="2.37114">
        <ele>508</ele>
        <time>2019-06-02T09:10:57Z</time>
      </trkpt>
      <trkpt lat="43.47089" lon="2.37113">
        <ele>508.20001220703</ele>
        <time>2019-06-02T09:10:58Z</time>
      </trkpt>
      <trkpt lat="43.47087" lon="2.37113">
        <ele>508.60000610352</ele>
        <time>2019-06-02T09:11:00Z</time>
      </trkpt>
      <trkpt lat="43.47082" lon="2.37113">
        <ele>509</ele>
        <time>2019-06-02T09:11:04Z</time>
      </trkpt>
      <trkpt lat="43.4708" lon="2.37113">
        <ele>509.20001220703</ele>
        <time>2019-06-02T09:11:06Z</time>
      </trkpt>
      <trkpt lat="43.4708" lon="2.37114">
        <ele>509.39999389648</ele>
        <time>2019-06-02T09:11:07Z</time>
      </trkpt>
      <trkpt lat="43.47076" lon="2.37117">
        <ele>509.79998779297</ele>
        <time>2019-06-02T09:11:14Z</time>
      </trkpt>
      <trkpt lat="43.47072" lon="2.37118">
        <ele>510.39999389648</ele>
        <time>2019-06-02T09:11:21Z</time>
      </trkpt>
      <trkpt lat="43.47071" lon="2.37118">
        <ele>510.39999389648</ele>
        <time>2019-06-02T09:11:22Z</time>
      </trkpt>
      <trkpt lat="43.47067" lon="2.37117">
        <ele>511.39999389648</ele>
        <time>2019-06-02T09:11:28Z</time>
      </trkpt>
      <trkpt lat="43.47064" lon="2.37116">
        <ele>512</ele>
        <time>2019-06-02T09:11:31Z</time>
      </trkpt>
      <trkpt lat="43.4706" lon="2.37118">
        <ele>512.40002441406</ele>
        <time>2019-06-02T09:11:36Z</time>
      </trkpt>
      <trkpt lat="43.47057" lon="2.37118">
        <ele>512.79998779297</ele>
        <time>2019-06-02T09:11:40Z</time>
      </trkpt>
      <trkpt lat="43.4705" lon="2.37112">
        <ele>513.59997558594</ele>
        <time>2019-06-02T09:11:47Z</time>
      </trkpt>
      <trkpt lat="43.47049" lon="2.3711">
        <ele>513.79998779297</ele>
        <time>2019-06-02T09:11:49Z</time>
      </trkpt>
      <trkpt lat="43.47046" lon="2.37107">
        <ele>513.79998779297</ele>
        <time>2019-06-02T09:11:57Z</time>
      </trkpt>
      <trkpt lat="43.47044" lon="2.37103">
        <ele>513.40002441406</ele>
        <time>2019-06-02T09:12:03Z</time>
      </trkpt>
      <trkpt lat="43.47041" lon="2.37098">
        <ele>512.40002441406</ele>
        <time>2019-06-02T09:12:09Z</time>
      </trkpt>
      <trkpt lat="43.47039" lon="2.37093">
        <ele>512.20001220703</ele>
        <time>2019-06-02T09:12:11Z</time>
      </trkpt>
      <trkpt lat="43.47037" lon="2.37082">
        <ele>511.79998779297</ele>
        <time>2019-06-02T09:12:17Z</time>
      </trkpt>
      <trkpt lat="43.47036" lon="2.37082">
        <ele>511.79998779297</ele>
        <time>2019-06-02T09:12:18Z</time>
      </trkpt>
      <trkpt lat="43.47035" lon="2.3708">
        <ele>511.60000610352</ele>
        <time>2019-06-02T09:12:20Z</time>
      </trkpt>
      <trkpt lat="43.47031" lon="2.37078">
        <ele>511.39999389648</ele>
        <time>2019-06-02T09:12:25Z</time>
      </trkpt>
      <trkpt lat="43.4703" lon="2.37077">
        <ele>511.39999389648</ele>
        <time>2019-06-02T09:12:27Z</time>
      </trkpt>
      <trkpt lat="43.47024" lon="2.37072">
        <ele>511.39999389648</ele>
        <time>2019-06-02T09:12:35Z</time>
      </trkpt>
      <trkpt lat="43.47019" lon="2.37066">
        <ele>511.20001220703</ele>
        <time>2019-06-02T09:12:41Z</time>
      </trkpt>
      <trkpt lat="43.47018" lon="2.37063">
        <ele>511.39999389648</ele>
        <time>2019-06-02T09:12:44Z</time>
      </trkpt>
      <trkpt lat="43.47015" lon="2.3706">
        <ele>512.20001220703</ele>
        <time>2019-06-02T09:12:47Z</time>
      </trkpt>
      <trkpt lat="43.47014" lon="2.3706">
        <ele>511.79998779297</ele>
        <time>2019-06-02T09:12:48Z</time>
      </trkpt>
      <trkpt lat="43.47011" lon="2.37055">
        <ele>510.60000610352</ele>
        <time>2019-06-02T09:12:52Z</time>
      </trkpt>
      <trkpt lat="43.4701" lon="2.37054">
        <ele>510.79998779297</ele>
        <time>2019-06-02T09:12:53Z</time>
      </trkpt>
      <trkpt lat="43.47003" lon="2.37047">
        <ele>510.39999389648</ele>
        <time>2019-06-02T09:13:02Z</time>
      </trkpt>
      <trkpt lat="43.46997" lon="2.37044">
        <ele>510.79998779297</ele>
        <time>2019-06-02T09:13:10Z</time>
      </trkpt>
      <trkpt lat="43.46992" lon="2.37043">
        <ele>511.20001220703</ele>
        <time>2019-06-02T09:13:15Z</time>
      </trkpt>
      <trkpt lat="43.4699" lon="2.37042">
        <ele>511</ele>
        <time>2019-06-02T09:13:16Z</time>
      </trkpt>
      <trkpt lat="43.46988" lon="2.37041">
        <ele>511.20001220703</ele>
        <time>2019-06-02T09:13:18Z</time>
      </trkpt>
      <trkpt lat="43.46986" lon="2.37039">
        <ele>511</ele>
        <time>2019-06-02T09:13:20Z</time>
      </trkpt>
      <trkpt lat="43.46985" lon="2.37037">
        <ele>510.79998779297</ele>
        <time>2019-06-02T09:13:21Z</time>
      </trkpt>
      <trkpt lat="43.46985" lon="2.37035">
        <ele>510.79998779297</ele>
        <time>2019-06-02T09:13:22Z</time>
      </trkpt>
      <trkpt lat="43.46984" lon="2.37033">
        <ele>510.79998779297</ele>
        <time>2019-06-02T09:13:24Z</time>
      </trkpt>
      <trkpt lat="43.46982" lon="2.37031">
        <ele>510.79998779297</ele>
        <time>2019-06-02T09:13:25Z</time>
      </trkpt>
      <trkpt lat="43.46981" lon="2.3703">
        <ele>510.79998779297</ele>
        <time>2019-06-02T09:13:26Z</time>
      </trkpt>
      <trkpt lat="43.4698" lon="2.37028">
        <ele>510.39999389648</ele>
        <time>2019-06-02T09:13:28Z</time>
      </trkpt>
      <trkpt lat="43.46979" lon="2.37028">
        <ele>510.39999389648</ele>
        <time>2019-06-02T09:13:29Z</time>
      </trkpt>
      <trkpt lat="43.46979" lon="2.37027">
        <ele>510.20001220703</ele>
        <time>2019-06-02T09:13:30Z</time>
      </trkpt>
      <trkpt lat="43.46976" lon="2.37023">
        <ele>510.20001220703</ele>
        <time>2019-06-02T09:13:33Z</time>
      </trkpt>
      <trkpt lat="43.46973" lon="2.3702">
        <ele>510.20001220703</ele>
        <time>2019-06-02T09:13:38Z</time>
      </trkpt>
      <trkpt lat="43.46971" lon="2.37018">
        <ele>510</ele>
        <time>2019-06-02T09:13:41Z</time>
      </trkpt>
      <trkpt lat="43.4697" lon="2.37018">
        <ele>510</ele>
        <time>2019-06-02T09:13:43Z</time>
      </trkpt>
      <trkpt lat="43.46968" lon="2.37017">
        <ele>510</ele>
        <time>2019-06-02T09:13:45Z</time>
      </trkpt>
      <trkpt lat="43.46966" lon="2.37016">
        <ele>510</ele>
        <time>2019-06-02T09:13:48Z</time>
      </trkpt>
      <trkpt lat="43.46961" lon="2.37013">
        <ele>510.60000610352</ele>
        <time>2019-06-02T09:13:53Z</time>
      </trkpt>
      <trkpt lat="43.4696" lon="2.37012">
        <ele>510.60000610352</ele>
        <time>2019-06-02T09:13:55Z</time>
      </trkpt>
      <trkpt lat="43.46956" lon="2.3701">
        <ele>510.60000610352</ele>
        <time>2019-06-02T09:13:58Z</time>
      </trkpt>
      <trkpt lat="43.46954" lon="2.37009">
        <ele>510.60000610352</ele>
        <time>2019-06-02T09:14:00Z</time>
      </trkpt>
      <trkpt lat="43.4695" lon="2.37006">
        <ele>509</ele>
        <time>2019-06-02T09:14:04Z</time>
      </trkpt>
      <trkpt lat="43.46947" lon="2.37002">
        <ele>508</ele>
        <time>2019-06-02T09:14:08Z</time>
      </trkpt>
      <trkpt lat="43.46946" lon="2.37001">
        <ele>508</ele>
        <time>2019-06-02T09:14:09Z</time>
      </trkpt>
      <trkpt lat="43.46944" lon="2.36997">
        <ele>507.60000610352</ele>
        <time>2019-06-02T09:14:11Z</time>
      </trkpt>
      <trkpt lat="43.46939" lon="2.36991">
        <ele>507</ele>
        <time>2019-06-02T09:14:16Z</time>
      </trkpt>
      <trkpt lat="43.46939" lon="2.3699">
        <ele>506.79998779297</ele>
        <time>2019-06-02T09:14:17Z</time>
      </trkpt>
      <trkpt lat="43.46935" lon="2.36984">
        <ele>505.79998779297</ele>
        <time>2019-06-02T09:14:22Z</time>
      </trkpt>
      <trkpt lat="43.46935" lon="2.36981">
        <ele>505.79998779297</ele>
        <time>2019-06-02T09:14:23Z</time>
      </trkpt>
      <trkpt lat="43.46932" lon="2.36978">
        <ele>505.39999389648</ele>
        <time>2019-06-02T09:14:27Z</time>
      </trkpt>
      <trkpt lat="43.46929" lon="2.36975">
        <ele>505.20001220703</ele>
        <time>2019-06-02T09:14:29Z</time>
      </trkpt>
      <trkpt lat="43.46925" lon="2.36974">
        <ele>505</ele>
        <time>2019-06-02T09:14:32Z</time>
      </trkpt>
      <trkpt lat="43.46921" lon="2.36972">
        <ele>504.60000610352</ele>
        <time>2019-06-02T09:14:37Z</time>
      </trkpt>
      <trkpt lat="43.4692" lon="2.36972">
        <ele>504.39999389648</ele>
        <time>2019-06-02T09:14:38Z</time>
      </trkpt>
      <trkpt lat="43.4692" lon="2.3697">
        <ele>504.39999389648</ele>
        <time>2019-06-02T09:14:39Z</time>
      </trkpt>
      <trkpt lat="43.46916" lon="2.36968">
        <ele>503.79998779297</ele>
        <time>2019-06-02T09:14:45Z</time>
      </trkpt>
      <trkpt lat="43.46914" lon="2.36969">
        <ele>503.60000610352</ele>
        <time>2019-06-02T09:14:47Z</time>
      </trkpt>
      <trkpt lat="43.46913" lon="2.36969">
        <ele>503.39999389648</ele>
        <time>2019-06-02T09:14:49Z</time>
      </trkpt>
      <trkpt lat="43.46912" lon="2.36968">
        <ele>503.20001220703</ele>
        <time>2019-06-02T09:14:51Z</time>
      </trkpt>
      <trkpt lat="43.46911" lon="2.36968">
        <ele>503</ele>
        <time>2019-06-02T09:14:52Z</time>
      </trkpt>
      <trkpt lat="43.46905" lon="2.3697">
        <ele>503.20001220703</ele>
        <time>2019-06-02T09:14:59Z</time>
      </trkpt>
      <trkpt lat="43.46901" lon="2.36963">
        <ele>502.60000610352</ele>
        <time>2019-06-02T09:15:06Z</time>
      </trkpt>
      <trkpt lat="43.469" lon="2.36961">
        <ele>502.60000610352</ele>
        <time>2019-06-02T09:15:08Z</time>
      </trkpt>
      <trkpt lat="43.46897" lon="2.36955">
        <ele>502</ele>
        <time>2019-06-02T09:15:12Z</time>
      </trkpt>
      <trkpt lat="43.46896" lon="2.36952">
        <ele>501.39999389648</ele>
        <time>2019-06-02T09:15:14Z</time>
      </trkpt>
      <trkpt lat="43.46895" lon="2.3695">
        <ele>501.20001220703</ele>
        <time>2019-06-02T09:15:15Z</time>
      </trkpt>
      <trkpt lat="43.46894" lon="2.36946">
        <ele>500.60000610352</ele>
        <time>2019-06-02T09:15:19Z</time>
      </trkpt>
      <trkpt lat="43.46894" lon="2.36944">
        <ele>500.39999389648</ele>
        <time>2019-06-02T09:15:21Z</time>
      </trkpt>
      <trkpt lat="43.46895" lon="2.36938">
        <ele>500.39999389648</ele>
        <time>2019-06-02T09:15:25Z</time>
      </trkpt>
      <trkpt lat="43.46895" lon="2.36934">
        <ele>500.39999389648</ele>
        <time>2019-06-02T09:15:27Z</time>
      </trkpt>
      <trkpt lat="43.46894" lon="2.36931">
        <ele>500.39999389648</ele>
        <time>2019-06-02T09:15:28Z</time>
      </trkpt>
      <trkpt lat="43.46892" lon="2.3692">
        <ele>500.60000610352</ele>
        <time>2019-06-02T09:15:34Z</time>
      </trkpt>
      <trkpt lat="43.4689" lon="2.36915">
        <ele>500.79998779297</ele>
        <time>2019-06-02T09:15:40Z</time>
      </trkpt>
      <trkpt lat="43.46888" lon="2.36908">
        <ele>501</ele>
        <time>2019-06-02T09:15:47Z</time>
      </trkpt>
      <trkpt lat="43.46887" lon="2.36907">
        <ele>501.20001220703</ele>
        <time>2019-06-02T09:15:49Z</time>
      </trkpt>
      <trkpt lat="43.46886" lon="2.36907">
        <ele>501.39999389648</ele>
        <time>2019-06-02T09:15:50Z</time>
      </trkpt>
      <trkpt lat="43.46886" lon="2.36906">
        <ele>501.39999389648</ele>
        <time>2019-06-02T09:15:51Z</time>
      </trkpt>
      <trkpt lat="43.46884" lon="2.36904">
        <ele>501.60000610352</ele>
        <time>2019-06-02T09:15:53Z</time>
      </trkpt>
      <trkpt lat="43.46883" lon="2.36903">
        <ele>501.60000610352</ele>
        <time>2019-06-02T09:15:54Z</time>
      </trkpt>
      <trkpt lat="43.46879" lon="2.36899">
        <ele>502.39999389648</ele>
        <time>2019-06-02T09:16:02Z</time>
      </trkpt>
      <trkpt lat="43.46878" lon="2.36898">
        <ele>502.60000610352</ele>
        <time>2019-06-02T09:16:03Z</time>
      </trkpt>
      <trkpt lat="43.46871" lon="2.36895">
        <ele>503</ele>
        <time>2019-06-02T09:16:09Z</time>
      </trkpt>
      <trkpt lat="43.46865" lon="2.36889">
        <ele>503.20001220703</ele>
        <time>2019-06-02T09:16:15Z</time>
      </trkpt>
      <trkpt lat="43.46862" lon="2.36883">
        <ele>503.39999389648</ele>
        <time>2019-06-02T09:16:22Z</time>
      </trkpt>
      <trkpt lat="43.46858" lon="2.36882">
        <ele>503.39999389648</ele>
        <time>2019-06-02T09:16:30Z</time>
      </trkpt>
      <trkpt lat="43.46858" lon="2.36882">
        <ele>503.60000610352</ele>
        <time>2019-06-02T09:16:31Z</time>
      </trkpt>
      <trkpt lat="43.46856" lon="2.36881">
        <ele>504.60000610352</ele>
        <time>2019-06-02T09:16:34Z</time>
      </trkpt>
      <trkpt lat="43.46854" lon="2.36881">
        <ele>505.20001220703</ele>
        <time>2019-06-02T09:16:39Z</time>
      </trkpt>
      <trkpt lat="43.46853" lon="2.3688">
        <ele>505.39999389648</ele>
        <time>2019-06-02T09:16:42Z</time>
      </trkpt>
      <trkpt lat="43.46852" lon="2.36879">
        <ele>505.60000610352</ele>
        <time>2019-06-02T09:16:45Z</time>
      </trkpt>
      <trkpt lat="43.46849" lon="2.36877">
        <ele>505.20001220703</ele>
        <time>2019-06-02T09:16:50Z</time>
      </trkpt>
      <trkpt lat="43.46845" lon="2.36873">
        <ele>505.20001220703</ele>
        <time>2019-06-02T09:16:53Z</time>
      </trkpt>
      <trkpt lat="43.46837" lon="2.36869">
        <ele>505.79998779297</ele>
        <time>2019-06-02T09:16:59Z</time>
      </trkpt>
      <trkpt lat="43.46835" lon="2.36868">
        <ele>505.79998779297</ele>
        <time>2019-06-02T09:17:00Z</time>
      </trkpt>
      <trkpt lat="43.46834" lon="2.36866">
        <ele>505.79998779297</ele>
        <time>2019-06-02T09:17:01Z</time>
      </trkpt>
      <trkpt lat="43.46833" lon="2.36865">
        <ele>505.79998779297</ele>
        <time>2019-06-02T09:17:02Z</time>
      </trkpt>
      <trkpt lat="43.46832" lon="2.36863">
        <ele>505.79998779297</ele>
        <time>2019-06-02T09:17:03Z</time>
      </trkpt>
      <trkpt lat="43.4683" lon="2.36863">
        <ele>505.79998779297</ele>
        <time>2019-06-02T09:17:05Z</time>
      </trkpt>
      <trkpt lat="43.46828" lon="2.36861">
        <ele>505.60000610352</ele>
        <time>2019-06-02T09:17:07Z</time>
      </trkpt>
      <trkpt lat="43.46825" lon="2.36856">
        <ele>506</ele>
        <time>2019-06-02T09:17:12Z</time>
      </trkpt>
      <trkpt lat="43.46824" lon="2.36855">
        <ele>506.20001220703</ele>
        <time>2019-06-02T09:17:13Z</time>
      </trkpt>
      <trkpt lat="43.46819" lon="2.3685">
        <ele>505.79998779297</ele>
        <time>2019-06-02T09:17:19Z</time>
      </trkpt>
      <trkpt lat="43.46816" lon="2.36844">
        <ele>505.60000610352</ele>
        <time>2019-06-02T09:17:26Z</time>
      </trkpt>
      <trkpt lat="43.46809" lon="2.36835">
        <ele>505.39999389648</ele>
        <time>2019-06-02T09:17:34Z</time>
      </trkpt>
      <trkpt lat="43.46804" lon="2.3683">
        <ele>505.60000610352</ele>
        <time>2019-06-02T09:17:42Z</time>
      </trkpt>
      <trkpt lat="43.46803" lon="2.36829">
        <ele>505.79998779297</ele>
        <time>2019-06-02T09:17:43Z</time>
      </trkpt>
      <trkpt lat="43.46799" lon="2.36825">
        <ele>506.39999389648</ele>
        <time>2019-06-02T09:17:47Z</time>
      </trkpt>
      <trkpt lat="43.46795" lon="2.36822">
        <ele>506.20001220703</ele>
        <time>2019-06-02T09:17:53Z</time>
      </trkpt>
      <trkpt lat="43.46794" lon="2.3682">
        <ele>505.60000610352</ele>
        <time>2019-06-02T09:17:57Z</time>
      </trkpt>
      <trkpt lat="43.46793" lon="2.36817">
        <ele>505.39999389648</ele>
        <time>2019-06-02T09:18:00Z</time>
      </trkpt>
      <trkpt lat="43.46792" lon="2.36816">
        <ele>505.39999389648</ele>
        <time>2019-06-02T09:18:01Z</time>
      </trkpt>
      <trkpt lat="43.46784" lon="2.36808">
        <ele>506</ele>
        <time>2019-06-02T09:18:09Z</time>
      </trkpt>
      <trkpt lat="43.46778" lon="2.36805">
        <ele>506.20001220703</ele>
        <time>2019-06-02T09:18:16Z</time>
      </trkpt>
      <trkpt lat="43.46774" lon="2.36801">
        <ele>506.60000610352</ele>
        <time>2019-06-02T09:18:21Z</time>
      </trkpt>
      <trkpt lat="43.46771" lon="2.368">
        <ele>506.79998779297</ele>
        <time>2019-06-02T09:18:24Z</time>
      </trkpt>
      <trkpt lat="43.46764" lon="2.368">
        <ele>506.79998779297</ele>
        <time>2019-06-02T09:18:31Z</time>
      </trkpt>
      <trkpt lat="43.4676" lon="2.368">
        <ele>506.79998779297</ele>
        <time>2019-06-02T09:18:34Z</time>
      </trkpt>
      <trkpt lat="43.46758" lon="2.36801">
        <ele>506.79998779297</ele>
        <time>2019-06-02T09:18:36Z</time>
      </trkpt>
      <trkpt lat="43.46755" lon="2.36802">
        <ele>507</ele>
        <time>2019-06-02T09:18:39Z</time>
      </trkpt>
      <trkpt lat="43.46752" lon="2.36802">
        <ele>507.39999389648</ele>
        <time>2019-06-02T09:18:42Z</time>
      </trkpt>
      <trkpt lat="43.46751" lon="2.36802">
        <ele>507.39999389648</ele>
        <time>2019-06-02T09:18:43Z</time>
      </trkpt>
      <trkpt lat="43.46749" lon="2.36803">
        <ele>507.60000610352</ele>
        <time>2019-06-02T09:18:45Z</time>
      </trkpt>
      <trkpt lat="43.46749" lon="2.36803">
        <ele>507.79998779297</ele>
        <time>2019-06-02T09:18:46Z</time>
      </trkpt>
      <trkpt lat="43.46748" lon="2.36804">
        <ele>507.79998779297</ele>
        <time>2019-06-02T09:18:47Z</time>
      </trkpt>
      <trkpt lat="43.46741" lon="2.36807">
        <ele>508.39999389648</ele>
        <time>2019-06-02T09:18:54Z</time>
      </trkpt>
      <trkpt lat="43.46737" lon="2.36808">
        <ele>508.20001220703</ele>
        <time>2019-06-02T09:19:01Z</time>
      </trkpt>
      <trkpt lat="43.46732" lon="2.36811">
        <ele>509</ele>
        <time>2019-06-02T09:19:06Z</time>
      </trkpt>
      <trkpt lat="43.4673" lon="2.36812">
        <ele>509.20001220703</ele>
        <time>2019-06-02T09:19:09Z</time>
      </trkpt>
      <trkpt lat="43.46726" lon="2.36818">
        <ele>510</ele>
        <time>2019-06-02T09:19:15Z</time>
      </trkpt>
      <trkpt lat="43.46724" lon="2.36821">
        <ele>510.39999389648</ele>
        <time>2019-06-02T09:19:18Z</time>
      </trkpt>
      <trkpt lat="43.46718" lon="2.36828">
        <ele>511</ele>
        <time>2019-06-02T09:19:25Z</time>
      </trkpt>
      <trkpt lat="43.46715" lon="2.36827">
        <ele>511.20001220703</ele>
        <time>2019-06-02T09:19:30Z</time>
      </trkpt>
      <trkpt lat="43.46712" lon="2.36832">
        <ele>511.20001220703</ele>
        <time>2019-06-02T09:19:36Z</time>
      </trkpt>
      <trkpt lat="43.46712" lon="2.36834">
        <ele>511.20001220703</ele>
        <time>2019-06-02T09:19:37Z</time>
      </trkpt>
      <trkpt lat="43.46707" lon="2.36839">
        <ele>511.79998779297</ele>
        <time>2019-06-02T09:19:44Z</time>
      </trkpt>
      <trkpt lat="43.46701" lon="2.36845">
        <ele>511.60000610352</ele>
        <time>2019-06-02T09:19:52Z</time>
      </trkpt>
      <trkpt lat="43.46695" lon="2.36852">
        <ele>511.39999389648</ele>
        <time>2019-06-02T09:19:59Z</time>
      </trkpt>
      <trkpt lat="43.46695" lon="2.36853">
        <ele>511.39999389648</ele>
        <time>2019-06-02T09:20:00Z</time>
      </trkpt>
      <trkpt lat="43.46692" lon="2.36858">
        <ele>512</ele>
        <time>2019-06-02T09:20:06Z</time>
      </trkpt>
      <trkpt lat="43.46691" lon="2.36859">
        <ele>512</ele>
        <time>2019-06-02T09:20:07Z</time>
      </trkpt>
      <trkpt lat="43.46684" lon="2.36864">
        <ele>512.20001220703</ele>
        <time>2019-06-02T09:20:14Z</time>
      </trkpt>
      <trkpt lat="43.46676" lon="2.36868">
        <ele>512.79998779297</ele>
        <time>2019-06-02T09:20:22Z</time>
      </trkpt>
      <trkpt lat="43.46672" lon="2.3687">
        <ele>513.40002441406</ele>
        <time>2019-06-02T09:20:26Z</time>
      </trkpt>
      <trkpt lat="43.46668" lon="2.36877">
        <ele>514.20001220703</ele>
        <time>2019-06-02T09:20:30Z</time>
      </trkpt>
      <trkpt lat="43.46668" lon="2.36877">
        <ele>514.59997558594</ele>
        <time>2019-06-02T09:20:31Z</time>
      </trkpt>
      <trkpt lat="43.46663" lon="2.36881">
        <ele>515.20001220703</ele>
        <time>2019-06-02T09:20:38Z</time>
      </trkpt>
      <trkpt lat="43.46664" lon="2.36883">
        <ele>515.59997558594</ele>
        <time>2019-06-02T09:20:41Z</time>
      </trkpt>
      <trkpt lat="43.46664" lon="2.36885">
        <ele>516</ele>
        <time>2019-06-02T09:20:43Z</time>
      </trkpt>
      <trkpt lat="43.46661" lon="2.3689">
        <ele>516.40002441406</ele>
        <time>2019-06-02T09:20:49Z</time>
      </trkpt>
      <trkpt lat="43.4666" lon="2.36891">
        <ele>516.40002441406</ele>
        <time>2019-06-02T09:20:51Z</time>
      </trkpt>
      <trkpt lat="43.46659" lon="2.36892">
        <ele>516.79998779297</ele>
        <time>2019-06-02T09:20:53Z</time>
      </trkpt>
      <trkpt lat="43.46656" lon="2.36897">
        <ele>517.79998779297</ele>
        <time>2019-06-02T09:21:00Z</time>
      </trkpt>
      <trkpt lat="43.46654" lon="2.36906">
        <ele>518.79998779297</ele>
        <time>2019-06-02T09:21:09Z</time>
      </trkpt>
      <trkpt lat="43.46651" lon="2.36908">
        <ele>518.79998779297</ele>
        <time>2019-06-02T09:21:13Z</time>
      </trkpt>
      <trkpt lat="43.46648" lon="2.3691">
        <ele>519.79998779297</ele>
        <time>2019-06-02T09:21:18Z</time>
      </trkpt>
      <trkpt lat="43.46648" lon="2.3691">
        <ele>520</ele>
        <time>2019-06-02T09:21:19Z</time>
      </trkpt>
      <trkpt lat="43.46644" lon="2.36912">
        <ele>520.20001220703</ele>
        <time>2019-06-02T09:21:26Z</time>
      </trkpt>
      <trkpt lat="43.4664" lon="2.36913">
        <ele>520.20001220703</ele>
        <time>2019-06-02T09:21:33Z</time>
      </trkpt>
      <trkpt lat="43.46639" lon="2.36914">
        <ele>520.40002441406</ele>
        <time>2019-06-02T09:21:34Z</time>
      </trkpt>
      <trkpt lat="43.4663" lon="2.36916">
        <ele>521.20001220703</ele>
        <time>2019-06-02T09:21:42Z</time>
      </trkpt>
      <trkpt lat="43.46629" lon="2.36916">
        <ele>521.40002441406</ele>
        <time>2019-06-02T09:21:43Z</time>
      </trkpt>
      <trkpt lat="43.46622" lon="2.36917">
        <ele>521.79998779297</ele>
        <time>2019-06-02T09:21:51Z</time>
      </trkpt>
      <trkpt lat="43.4662" lon="2.36915">
        <ele>521.79998779297</ele>
        <time>2019-06-02T09:21:53Z</time>
      </trkpt>
      <trkpt lat="43.46615" lon="2.36915">
        <ele>522.20001220703</ele>
        <time>2019-06-02T09:21:58Z</time>
      </trkpt>
      <trkpt lat="43.46605" lon="2.36917">
        <ele>522.59997558594</ele>
        <time>2019-06-02T09:22:07Z</time>
      </trkpt>
      <trkpt lat="43.466" lon="2.36919">
        <ele>522.59997558594</ele>
        <time>2019-06-02T09:22:13Z</time>
      </trkpt>
      <trkpt lat="43.46598" lon="2.36918">
        <ele>522.59997558594</ele>
        <time>2019-06-02T09:22:15Z</time>
      </trkpt>
      <trkpt lat="43.46597" lon="2.36918">
        <ele>522.59997558594</ele>
        <time>2019-06-02T09:22:16Z</time>
      </trkpt>
      <trkpt lat="43.46589" lon="2.3692">
        <ele>523</ele>
        <time>2019-06-02T09:22:24Z</time>
      </trkpt>
      <trkpt lat="43.46586" lon="2.36921">
        <ele>523.20001220703</ele>
        <time>2019-06-02T09:22:26Z</time>
      </trkpt>
      <trkpt lat="43.46583" lon="2.36922">
        <ele>523.40002441406</ele>
        <time>2019-06-02T09:22:28Z</time>
      </trkpt>
      <trkpt lat="43.46578" lon="2.36923">
        <ele>523.20001220703</ele>
        <time>2019-06-02T09:22:33Z</time>
      </trkpt>
      <trkpt lat="43.46573" lon="2.36922">
        <ele>524</ele>
        <time>2019-06-02T09:22:39Z</time>
      </trkpt>
      <trkpt lat="43.46572" lon="2.36922">
        <ele>524.20001220703</ele>
        <time>2019-06-02T09:22:40Z</time>
      </trkpt>
      <trkpt lat="43.46569" lon="2.36922">
        <ele>524.79998779297</ele>
        <time>2019-06-02T09:22:42Z</time>
      </trkpt>
      <trkpt lat="43.46559" lon="2.36924">
        <ele>524.59997558594</ele>
        <time>2019-06-02T09:22:50Z</time>
      </trkpt>
      <trkpt lat="43.46557" lon="2.36923">
        <ele>524.79998779297</ele>
        <time>2019-06-02T09:22:52Z</time>
      </trkpt>
      <trkpt lat="43.46555" lon="2.36923">
        <ele>525</ele>
        <time>2019-06-02T09:22:55Z</time>
      </trkpt>
      <trkpt lat="43.46554" lon="2.36923">
        <ele>525.20001220703</ele>
        <time>2019-06-02T09:22:56Z</time>
      </trkpt>
      <trkpt lat="43.46552" lon="2.36922">
        <ele>525.40002441406</ele>
        <time>2019-06-02T09:23:00Z</time>
      </trkpt>
      <trkpt lat="43.46549" lon="2.36921">
        <ele>525.40002441406</ele>
        <time>2019-06-02T09:23:02Z</time>
      </trkpt>
      <trkpt lat="43.46543" lon="2.36916">
        <ele>525</ele>
        <time>2019-06-02T09:23:09Z</time>
      </trkpt>
      <trkpt lat="43.46542" lon="2.36915">
        <ele>525</ele>
        <time>2019-06-02T09:23:10Z</time>
      </trkpt>
      <trkpt lat="43.46535" lon="2.36912">
        <ele>525.59997558594</ele>
        <time>2019-06-02T09:23:17Z</time>
      </trkpt>
      <trkpt lat="43.46529" lon="2.36909">
        <ele>525.79998779297</ele>
        <time>2019-06-02T09:23:24Z</time>
      </trkpt>
      <trkpt lat="43.46525" lon="2.36909">
        <ele>525.79998779297</ele>
        <time>2019-06-02T09:23:27Z</time>
      </trkpt>
      <trkpt lat="43.46523" lon="2.36907">
        <ele>525.79998779297</ele>
        <time>2019-06-02T09:23:32Z</time>
      </trkpt>
      <trkpt lat="43.46522" lon="2.36906">
        <ele>525.40002441406</ele>
        <time>2019-06-02T09:23:33Z</time>
      </trkpt>
      <trkpt lat="43.46517" lon="2.36896">
        <ele>525.20001220703</ele>
        <time>2019-06-02T09:23:42Z</time>
      </trkpt>
      <trkpt lat="43.46514" lon="2.36893">
        <ele>525.20001220703</ele>
        <time>2019-06-02T09:23:44Z</time>
      </trkpt>
      <trkpt lat="43.46509" lon="2.36888">
        <ele>525.79998779297</ele>
        <time>2019-06-02T09:23:50Z</time>
      </trkpt>
      <trkpt lat="43.46505" lon="2.36883">
        <ele>525</ele>
        <time>2019-06-02T09:23:56Z</time>
      </trkpt>
      <trkpt lat="43.465" lon="2.36878">
        <ele>524.59997558594</ele>
        <time>2019-06-02T09:24:02Z</time>
      </trkpt>
      <trkpt lat="43.46499" lon="2.36875">
        <ele>524.59997558594</ele>
        <time>2019-06-02T09:24:05Z</time>
      </trkpt>
      <trkpt lat="43.46498" lon="2.36874">
        <ele>525</ele>
        <time>2019-06-02T09:24:08Z</time>
      </trkpt>
      <trkpt lat="43.46499" lon="2.36874">
        <ele>525</ele>
        <time>2019-06-02T09:24:11Z</time>
      </trkpt>
      <trkpt lat="43.465" lon="2.36874">
        <ele>525</ele>
        <time>2019-06-02T09:24:14Z</time>
      </trkpt>
      <trkpt lat="43.465" lon="2.36874">
        <ele>524.79998779297</ele>
        <time>2019-06-02T09:24:22Z</time>
      </trkpt>
      <trkpt lat="43.465" lon="2.36874">
        <ele>524.40002441406</ele>
        <time>2019-06-02T09:24:30Z</time>
      </trkpt>
      <trkpt lat="43.46499" lon="2.36873">
        <ele>524</ele>
        <time>2019-06-02T09:24:37Z</time>
      </trkpt>
      <trkpt lat="43.46499" lon="2.36874">
        <ele>524</ele>
        <time>2019-06-02T09:24:40Z</time>
      </trkpt>
      <trkpt lat="43.46499" lon="2.36873">
        <ele>524.40002441406</ele>
        <time>2019-06-02T09:24:47Z</time>
      </trkpt>
      <trkpt lat="43.46499" lon="2.36874">
        <ele>524.40002441406</ele>
        <time>2019-06-02T09:24:49Z</time>
      </trkpt>
      <trkpt lat="43.465" lon="2.36874">
        <ele>524.40002441406</ele>
        <time>2019-06-02T09:24:56Z</time>
      </trkpt>
      <trkpt lat="43.465" lon="2.36874">
        <ele>524.79998779297</ele>
        <time>2019-06-02T09:25:03Z</time>
      </trkpt>
      <trkpt lat="43.46501" lon="2.36873">
        <ele>524.79998779297</ele>
        <time>2019-06-02T09:25:05Z</time>
      </trkpt>
      <trkpt lat="43.46501" lon="2.36873">
        <ele>524.79998779297</ele>
        <time>2019-06-02T09:25:08Z</time>
      </trkpt>
      <trkpt lat="43.46502" lon="2.36873">
        <ele>524.59997558594</ele>
        <time>2019-06-02T09:25:12Z</time>
      </trkpt>
      <trkpt lat="43.46502" lon="2.36873">
        <ele>524.40002441406</ele>
        <time>2019-06-02T09:25:14Z</time>
      </trkpt>
      <trkpt lat="43.46502" lon="2.36874">
        <ele>524.20001220703</ele>
        <time>2019-06-02T09:25:20Z</time>
      </trkpt>
      <trkpt lat="43.46501" lon="2.36873">
        <ele>524.79998779297</ele>
        <time>2019-06-02T09:25:27Z</time>
      </trkpt>
      <trkpt lat="43.46502" lon="2.36874">
        <ele>524.20001220703</ele>
        <time>2019-06-02T09:25:33Z</time>
      </trkpt>
      <trkpt lat="43.46502" lon="2.36873">
        <ele>524</ele>
        <time>2019-06-02T09:25:37Z</time>
      </trkpt>
      <trkpt lat="43.46501" lon="2.36873">
        <ele>524</ele>
        <time>2019-06-02T09:25:39Z</time>
      </trkpt>
      <trkpt lat="43.46501" lon="2.36874">
        <ele>524</ele>
        <time>2019-06-02T09:25:47Z</time>
      </trkpt>
      <trkpt lat="43.465" lon="2.36874">
        <ele>524</ele>
        <time>2019-06-02T09:25:55Z</time>
      </trkpt>
      <trkpt lat="43.465" lon="2.36875">
        <ele>524</ele>
        <time>2019-06-02T09:26:04Z</time>
      </trkpt>
      <trkpt lat="43.46499" lon="2.36876">
        <ele>524</ele>
        <time>2019-06-02T09:26:07Z</time>
      </trkpt>
      <trkpt lat="43.46499" lon="2.36876">
        <ele>524</ele>
        <time>2019-06-02T09:26:11Z</time>
      </trkpt>
      <trkpt lat="43.46499" lon="2.36877">
        <ele>524</ele>
        <time>2019-06-02T09:26:13Z</time>
      </trkpt>
      <trkpt lat="43.46498" lon="2.36876">
        <ele>524</ele>
        <time>2019-06-02T09:26:16Z</time>
      </trkpt>
      <trkpt lat="43.46497" lon="2.36876">
        <ele>524</ele>
        <time>2019-06-02T09:26:19Z</time>
      </trkpt>
      <trkpt lat="43.46496" lon="2.36876">
        <ele>524</ele>
        <time>2019-06-02T09:26:22Z</time>
      </trkpt>
      <trkpt lat="43.46495" lon="2.36876">
        <ele>524</ele>
        <time>2019-06-02T09:26:24Z</time>
      </trkpt>
      <trkpt lat="43.46495" lon="2.36876">
        <ele>524</ele>
        <time>2019-06-02T09:26:34Z</time>
      </trkpt>
      <trkpt lat="43.46495" lon="2.36876">
        <ele>524</ele>
        <time>2019-06-02T09:26:37Z</time>
      </trkpt>
      <trkpt lat="43.46495" lon="2.36876">
        <ele>524</ele>
        <time>2019-06-02T09:26:39Z</time>
      </trkpt>
      <trkpt lat="43.46495" lon="2.36876">
        <ele>524</ele>
        <time>2019-06-02T09:26:40Z</time>
      </trkpt>
      <trkpt lat="43.46495" lon="2.36876">
        <ele>524</ele>
        <time>2019-06-02T09:26:41Z</time>
      </trkpt>
      <trkpt lat="43.46495" lon="2.36876">
        <ele>524</ele>
        <time>2019-06-02T09:26:49Z</time>
      </trkpt>
      <trkpt lat="43.46495" lon="2.36876">
        <ele>524</ele>
        <time>2019-06-02T09:26:51Z</time>
      </trkpt>
      <trkpt lat="43.46494" lon="2.36875">
        <ele>524</ele>
        <time>2019-06-02T09:26:58Z</time>
      </trkpt>
      <trkpt lat="43.46494" lon="2.36875">
        <ele>524</ele>
        <time>2019-06-02T09:27:05Z</time>
      </trkpt>
      <trkpt lat="43.46494" lon="2.36875">
        <ele>524</ele>
        <time>2019-06-02T09:27:06Z</time>
      </trkpt>
      <trkpt lat="43.46493" lon="2.36876">
        <ele>524</ele>
        <time>2019-06-02T09:27:11Z</time>
      </trkpt>
      <trkpt lat="43.46494" lon="2.36876">
        <ele>524</ele>
        <time>2019-06-02T09:27:15Z</time>
      </trkpt>
      <trkpt lat="43.46496" lon="2.36877">
        <ele>524</ele>
        <time>2019-06-02T09:27:23Z</time>
      </trkpt>
      <trkpt lat="43.46496" lon="2.36877">
        <ele>524</ele>
        <time>2019-06-02T09:27:27Z</time>
      </trkpt>
      <trkpt lat="43.46496" lon="2.36876">
        <ele>524</ele>
        <time>2019-06-02T09:27:31Z</time>
      </trkpt>
      <trkpt lat="43.46496" lon="2.36875">
        <ele>524</ele>
        <time>2019-06-02T09:27:35Z</time>
      </trkpt>
      <trkpt lat="43.46497" lon="2.36875">
        <ele>524</ele>
        <time>2019-06-02T09:27:37Z</time>
      </trkpt>
      <trkpt lat="43.46497" lon="2.36876">
        <ele>524</ele>
        <time>2019-06-02T09:27:40Z</time>
      </trkpt>
      <trkpt lat="43.46497" lon="2.36876">
        <ele>524</ele>
        <time>2019-06-02T09:27:45Z</time>
      </trkpt>
      <trkpt lat="43.46496" lon="2.36875">
        <ele>524</ele>
        <time>2019-06-02T09:27:48Z</time>
      </trkpt>
      <trkpt lat="43.46496" lon="2.36875">
        <ele>524</ele>
        <time>2019-06-02T09:27:49Z</time>
      </trkpt>
      <trkpt lat="43.46495" lon="2.36872">
        <ele>524</ele>
        <time>2019-06-02T09:27:52Z</time>
      </trkpt>
      <trkpt lat="43.46495" lon="2.36872">
        <ele>524</ele>
        <time>2019-06-02T09:27:54Z</time>
      </trkpt>
      <trkpt lat="43.46494" lon="2.36871">
        <ele>524</ele>
        <time>2019-06-02T09:27:57Z</time>
      </trkpt>
      <trkpt lat="43.46494" lon="2.3687">
        <ele>524</ele>
        <time>2019-06-02T09:27:58Z</time>
      </trkpt>
      <trkpt lat="43.46493" lon="2.3687">
        <ele>524</ele>
        <time>2019-06-02T09:28:00Z</time>
      </trkpt>
      <trkpt lat="43.46493" lon="2.36871">
        <ele>524</ele>
        <time>2019-06-02T09:28:05Z</time>
      </trkpt>
      <trkpt lat="43.46491" lon="2.36871">
        <ele>524</ele>
        <time>2019-06-02T09:28:10Z</time>
      </trkpt>
      <trkpt lat="43.46489" lon="2.36871">
        <ele>524</ele>
        <time>2019-06-02T09:28:13Z</time>
      </trkpt>
      <trkpt lat="43.46488" lon="2.3687">
        <ele>524</ele>
        <time>2019-06-02T09:28:15Z</time>
      </trkpt>
      <trkpt lat="43.46488" lon="2.36869">
        <ele>524</ele>
        <time>2019-06-02T09:28:21Z</time>
      </trkpt>
      <trkpt lat="43.46488" lon="2.36869">
        <ele>524</ele>
        <time>2019-06-02T09:28:22Z</time>
      </trkpt>
      <trkpt lat="43.46489" lon="2.36869">
        <ele>524</ele>
        <time>2019-06-02T09:28:23Z</time>
      </trkpt>
      <trkpt lat="43.46489" lon="2.36869">
        <ele>524</ele>
        <time>2019-06-02T09:28:25Z</time>
      </trkpt>
      <trkpt lat="43.46489" lon="2.36869">
        <ele>524</ele>
        <time>2019-06-02T09:28:26Z</time>
      </trkpt>
      <trkpt lat="43.46489" lon="2.36869">
        <ele>524</ele>
        <time>2019-06-02T09:28:27Z</time>
      </trkpt>
      <trkpt lat="43.46489" lon="2.36869">
        <ele>524</ele>
        <time>2019-06-02T09:28:31Z</time>
      </trkpt>
      <trkpt lat="43.4649" lon="2.36867">
        <ele>524</ele>
        <time>2019-06-02T09:28:36Z</time>
      </trkpt>
      <trkpt lat="43.46489" lon="2.36868">
        <ele>524</ele>
        <time>2019-06-02T09:28:39Z</time>
      </trkpt>
      <trkpt lat="43.46488" lon="2.36868">
        <ele>524</ele>
        <time>2019-06-02T09:28:42Z</time>
      </trkpt>
      <trkpt lat="43.46488" lon="2.36868">
        <ele>524</ele>
        <time>2019-06-02T09:28:43Z</time>
      </trkpt>
      <trkpt lat="43.46488" lon="2.36869">
        <ele>524</ele>
        <time>2019-06-02T09:28:46Z</time>
      </trkpt>
      <trkpt lat="43.46486" lon="2.36868">
        <ele>524</ele>
        <time>2019-06-02T09:28:54Z</time>
      </trkpt>
      <trkpt lat="43.46486" lon="2.36869">
        <ele>524</ele>
        <time>2019-06-02T09:29:00Z</time>
      </trkpt>
      <trkpt lat="43.46489" lon="2.36866">
        <ele>524</ele>
        <time>2019-06-02T09:29:08Z</time>
      </trkpt>
      <trkpt lat="43.46488" lon="2.36866">
        <ele>524</ele>
        <time>2019-06-02T09:29:09Z</time>
      </trkpt>
      <trkpt lat="43.46487" lon="2.36864">
        <ele>524</ele>
        <time>2019-06-02T09:29:11Z</time>
      </trkpt>
      <trkpt lat="43.46484" lon="2.3686">
        <ele>524</ele>
        <time>2019-06-02T09:29:15Z</time>
      </trkpt>
      <trkpt lat="43.46481" lon="2.36856">
        <ele>524.40002441406</ele>
        <time>2019-06-02T09:29:20Z</time>
      </trkpt>
      <trkpt lat="43.4648" lon="2.36855">
        <ele>524.40002441406</ele>
        <time>2019-06-02T09:29:21Z</time>
      </trkpt>
      <trkpt lat="43.46479" lon="2.36854">
        <ele>524.59997558594</ele>
        <time>2019-06-02T09:29:22Z</time>
      </trkpt>
      <trkpt lat="43.46476" lon="2.36851">
        <ele>525</ele>
        <time>2019-06-02T09:29:25Z</time>
      </trkpt>
      <trkpt lat="43.46474" lon="2.36851">
        <ele>525.20001220703</ele>
        <time>2019-06-02T09:29:27Z</time>
      </trkpt>
      <trkpt lat="43.46473" lon="2.3685">
        <ele>525.40002441406</ele>
        <time>2019-06-02T09:29:28Z</time>
      </trkpt>
      <trkpt lat="43.46471" lon="2.36849">
        <ele>525.59997558594</ele>
        <time>2019-06-02T09:29:30Z</time>
      </trkpt>
      <trkpt lat="43.4647" lon="2.36849">
        <ele>525.59997558594</ele>
        <time>2019-06-02T09:29:31Z</time>
      </trkpt>
      <trkpt lat="43.46467" lon="2.36849">
        <ele>525.59997558594</ele>
        <time>2019-06-02T09:29:34Z</time>
      </trkpt>
      <trkpt lat="43.46465" lon="2.36848">
        <ele>526</ele>
        <time>2019-06-02T09:29:37Z</time>
      </trkpt>
      <trkpt lat="43.46464" lon="2.36848">
        <ele>526.20001220703</ele>
        <time>2019-06-02T09:29:38Z</time>
      </trkpt>
      <trkpt lat="43.46463" lon="2.36848">
        <ele>526.40002441406</ele>
        <time>2019-06-02T09:29:39Z</time>
      </trkpt>
      <trkpt lat="43.46458" lon="2.36848">
        <ele>527</ele>
        <time>2019-06-02T09:29:43Z</time>
      </trkpt>
      <trkpt lat="43.46457" lon="2.36848">
        <ele>527</ele>
        <time>2019-06-02T09:29:44Z</time>
      </trkpt>
      <trkpt lat="43.46454" lon="2.36848">
        <ele>527.59997558594</ele>
        <time>2019-06-02T09:29:47Z</time>
      </trkpt>
      <trkpt lat="43.46452" lon="2.36847">
        <ele>527.59997558594</ele>
        <time>2019-06-02T09:29:50Z</time>
      </trkpt>
      <trkpt lat="43.46451" lon="2.36847">
        <ele>527.79998779297</ele>
        <time>2019-06-02T09:29:51Z</time>
      </trkpt>
      <trkpt lat="43.46447" lon="2.36843">
        <ele>528.40002441406</ele>
        <time>2019-06-02T09:29:59Z</time>
      </trkpt>
      <trkpt lat="43.46446" lon="2.36844">
        <ele>528.59997558594</ele>
        <time>2019-06-02T09:30:00Z</time>
      </trkpt>
      <trkpt lat="43.46443" lon="2.36845">
        <ele>529</ele>
        <time>2019-06-02T09:30:05Z</time>
      </trkpt>
      <trkpt lat="43.46441" lon="2.36845">
        <ele>529.20001220703</ele>
        <time>2019-06-02T09:30:08Z</time>
      </trkpt>
      <trkpt lat="43.46438" lon="2.36844">
        <ele>530</ele>
        <time>2019-06-02T09:30:10Z</time>
      </trkpt>
      <trkpt lat="43.46435" lon="2.36845">
        <ele>530.79998779297</ele>
        <time>2019-06-02T09:30:15Z</time>
      </trkpt>
      <trkpt lat="43.46434" lon="2.36845">
        <ele>531</ele>
        <time>2019-06-02T09:30:16Z</time>
      </trkpt>
      <trkpt lat="43.46427" lon="2.36848">
        <ele>532.20001220703</ele>
        <time>2019-06-02T09:30:23Z</time>
      </trkpt>
      <trkpt lat="43.46426" lon="2.36848">
        <ele>532.59997558594</ele>
        <time>2019-06-02T09:30:25Z</time>
      </trkpt>
      <trkpt lat="43.46425" lon="2.36849">
        <ele>533</ele>
        <time>2019-06-02T09:30:26Z</time>
      </trkpt>
      <trkpt lat="43.46424" lon="2.36849">
        <ele>533.20001220703</ele>
        <time>2019-06-02T09:30:27Z</time>
      </trkpt>
      <trkpt lat="43.46423" lon="2.36849">
        <ele>533.79998779297</ele>
        <time>2019-06-02T09:30:30Z</time>
      </trkpt>
      <trkpt lat="43.46421" lon="2.36848">
        <ele>534.20001220703</ele>
        <time>2019-06-02T09:30:33Z</time>
      </trkpt>
      <trkpt lat="43.46419" lon="2.36842">
        <ele>534.20001220703</ele>
        <time>2019-06-02T09:30:35Z</time>
      </trkpt>
      <trkpt lat="43.46415" lon="2.36837">
        <ele>534.79998779297</ele>
        <time>2019-06-02T09:30:42Z</time>
      </trkpt>
      <trkpt lat="43.46414" lon="2.36838">
        <ele>534.79998779297</ele>
        <time>2019-06-02T09:30:43Z</time>
      </trkpt>
      <trkpt lat="43.46411" lon="2.36836">
        <ele>535.20001220703</ele>
        <time>2019-06-02T09:30:49Z</time>
      </trkpt>
      <trkpt lat="43.46409" lon="2.36835">
        <ele>535.59997558594</ele>
        <time>2019-06-02T09:30:51Z</time>
      </trkpt>
      <trkpt lat="43.464" lon="2.36837">
        <ele>536.40002441406</ele>
        <time>2019-06-02T09:30:59Z</time>
      </trkpt>
      <trkpt lat="43.46399" lon="2.36835">
        <ele>536.79998779297</ele>
        <time>2019-06-02T09:31:01Z</time>
      </trkpt>
      <trkpt lat="43.46395" lon="2.36833">
        <ele>537.59997558594</ele>
        <time>2019-06-02T09:31:06Z</time>
      </trkpt>
      <trkpt lat="43.4639" lon="2.36833">
        <ele>538</ele>
        <time>2019-06-02T09:31:11Z</time>
      </trkpt>
      <trkpt lat="43.46379" lon="2.36837">
        <ele>538.40002441406</ele>
        <time>2019-06-02T09:31:19Z</time>
      </trkpt>
      <trkpt lat="43.46379" lon="2.36832">
        <ele>538.59997558594</ele>
        <time>2019-06-02T09:31:21Z</time>
      </trkpt>
      <trkpt lat="43.46378" lon="2.36829">
        <ele>538.59997558594</ele>
        <time>2019-06-02T09:31:25Z</time>
      </trkpt>
      <trkpt lat="43.46378" lon="2.3683">
        <ele>538.40002441406</ele>
        <time>2019-06-02T09:31:30Z</time>
      </trkpt>
      <trkpt lat="43.46376" lon="2.36829">
        <ele>538.59997558594</ele>
        <time>2019-06-02T09:31:33Z</time>
      </trkpt>
      <trkpt lat="43.4637" lon="2.36832">
        <ele>538.79998779297</ele>
        <time>2019-06-02T09:31:43Z</time>
      </trkpt>
      <trkpt lat="43.46368" lon="2.36833">
        <ele>538.79998779297</ele>
        <time>2019-06-02T09:31:44Z</time>
      </trkpt>
      <trkpt lat="43.46366" lon="2.36833">
        <ele>539.20001220703</ele>
        <time>2019-06-02T09:31:47Z</time>
      </trkpt>
      <trkpt lat="43.4636" lon="2.36837">
        <ele>539.59997558594</ele>
        <time>2019-06-02T09:31:55Z</time>
      </trkpt>
      <trkpt lat="43.46357" lon="2.36836">
        <ele>539.79998779297</ele>
        <time>2019-06-02T09:31:58Z</time>
      </trkpt>
      <trkpt lat="43.4635" lon="2.36839">
        <ele>539.59997558594</ele>
        <time>2019-06-02T09:32:03Z</time>
      </trkpt>
      <trkpt lat="43.46344" lon="2.36839">
        <ele>539.79998779297</ele>
        <time>2019-06-02T09:32:10Z</time>
      </trkpt>
      <trkpt lat="43.46342" lon="2.36839">
        <ele>539.79998779297</ele>
        <time>2019-06-02T09:32:12Z</time>
      </trkpt>
      <trkpt lat="43.46335" lon="2.36841">
        <ele>539.79998779297</ele>
        <time>2019-06-02T09:32:20Z</time>
      </trkpt>
      <trkpt lat="43.46329" lon="2.36841">
        <ele>540</ele>
        <time>2019-06-02T09:32:26Z</time>
      </trkpt>
      <trkpt lat="43.46327" lon="2.36841">
        <ele>540.20001220703</ele>
        <time>2019-06-02T09:32:27Z</time>
      </trkpt>
      <trkpt lat="43.46321" lon="2.36836">
        <ele>540.40002441406</ele>
        <time>2019-06-02T09:32:30Z</time>
      </trkpt>
      <trkpt lat="43.46319" lon="2.36833">
        <ele>540.59997558594</ele>
        <time>2019-06-02T09:32:31Z</time>
      </trkpt>
      <trkpt lat="43.46318" lon="2.36832">
        <ele>540.79998779297</ele>
        <time>2019-06-02T09:32:32Z</time>
      </trkpt>
      <trkpt lat="43.46314" lon="2.3683">
        <ele>541</ele>
        <time>2019-06-02T09:32:35Z</time>
      </trkpt>
      <trkpt lat="43.46313" lon="2.3683">
        <ele>541</ele>
        <time>2019-06-02T09:32:36Z</time>
      </trkpt>
      <trkpt lat="43.46309" lon="2.3683">
        <ele>541.40002441406</ele>
        <time>2019-06-02T09:32:39Z</time>
      </trkpt>
      <trkpt lat="43.46306" lon="2.36828">
        <ele>541.79998779297</ele>
        <time>2019-06-02T09:32:42Z</time>
      </trkpt>
      <trkpt lat="43.46305" lon="2.36827">
        <ele>541.79998779297</ele>
        <time>2019-06-02T09:32:43Z</time>
      </trkpt>
      <trkpt lat="43.46298" lon="2.36822">
        <ele>542.59997558594</ele>
        <time>2019-06-02T09:32:51Z</time>
      </trkpt>
      <trkpt lat="43.46297" lon="2.36822">
        <ele>542.79998779297</ele>
        <time>2019-06-02T09:32:53Z</time>
      </trkpt>
      <trkpt lat="43.4629" lon="2.36821">
        <ele>543</ele>
        <time>2019-06-02T09:32:58Z</time>
      </trkpt>
      <trkpt lat="43.46283" lon="2.36817">
        <ele>543.59997558594</ele>
        <time>2019-06-02T09:33:06Z</time>
      </trkpt>
      <trkpt lat="43.46277" lon="2.36815">
        <ele>543.79998779297</ele>
        <time>2019-06-02T09:33:12Z</time>
      </trkpt>
      <trkpt lat="43.46277" lon="2.36814">
        <ele>544</ele>
        <time>2019-06-02T09:33:13Z</time>
      </trkpt>
      <trkpt lat="43.46274" lon="2.36809">
        <ele>544</ele>
        <time>2019-06-02T09:33:20Z</time>
      </trkpt>
      <trkpt lat="43.4627" lon="2.36806">
        <ele>544.20001220703</ele>
        <time>2019-06-02T09:33:26Z</time>
      </trkpt>
      <trkpt lat="43.46269" lon="2.36805">
        <ele>544.20001220703</ele>
        <time>2019-06-02T09:33:28Z</time>
      </trkpt>
      <trkpt lat="43.46267" lon="2.36803">
        <ele>544.20001220703</ele>
        <time>2019-06-02T09:33:32Z</time>
      </trkpt>
      <trkpt lat="43.46258" lon="2.368">
        <ele>543.59997558594</ele>
        <time>2019-06-02T09:33:40Z</time>
      </trkpt>
      <trkpt lat="43.46253" lon="2.36798">
        <ele>543.59997558594</ele>
        <time>2019-06-02T09:33:46Z</time>
      </trkpt>
      <trkpt lat="43.46251" lon="2.36797">
        <ele>543.59997558594</ele>
        <time>2019-06-02T09:33:48Z</time>
      </trkpt>
      <trkpt lat="43.46244" lon="2.36796">
        <ele>543.79998779297</ele>
        <time>2019-06-02T09:33:55Z</time>
      </trkpt>
      <trkpt lat="43.46242" lon="2.36795">
        <ele>544</ele>
        <time>2019-06-02T09:33:56Z</time>
      </trkpt>
      <trkpt lat="43.46234" lon="2.36783">
        <ele>544.79998779297</ele>
        <time>2019-06-02T09:34:05Z</time>
      </trkpt>
      <trkpt lat="43.46232" lon="2.36782">
        <ele>545</ele>
        <time>2019-06-02T09:34:07Z</time>
      </trkpt>
      <trkpt lat="43.46226" lon="2.3678">
        <ele>545.40002441406</ele>
        <time>2019-06-02T09:34:12Z</time>
      </trkpt>
      <trkpt lat="43.4622" lon="2.36774">
        <ele>545.79998779297</ele>
        <time>2019-06-02T09:34:19Z</time>
      </trkpt>
      <trkpt lat="43.46212" lon="2.36764">
        <ele>545.59997558594</ele>
        <time>2019-06-02T09:34:28Z</time>
      </trkpt>
      <trkpt lat="43.46209" lon="2.36761">
        <ele>545.59997558594</ele>
        <time>2019-06-02T09:34:31Z</time>
      </trkpt>
      <trkpt lat="43.46205" lon="2.36758">
        <ele>546</ele>
        <time>2019-06-02T09:34:34Z</time>
      </trkpt>
      <trkpt lat="43.46199" lon="2.36756">
        <ele>547.20001220703</ele>
        <time>2019-06-02T09:34:38Z</time>
      </trkpt>
      <trkpt lat="43.46198" lon="2.36755">
        <ele>547.59997558594</ele>
        <time>2019-06-02T09:34:39Z</time>
      </trkpt>
      <trkpt lat="43.46195" lon="2.36752">
        <ele>548.20001220703</ele>
        <time>2019-06-02T09:34:44Z</time>
      </trkpt>
      <trkpt lat="43.46194" lon="2.36752">
        <ele>548.40002441406</ele>
        <time>2019-06-02T09:34:45Z</time>
      </trkpt>
      <trkpt lat="43.46193" lon="2.36753">
        <ele>548.40002441406</ele>
        <time>2019-06-02T09:34:46Z</time>
      </trkpt>
      <trkpt lat="43.46189" lon="2.36751">
        <ele>548.59997558594</ele>
        <time>2019-06-02T09:34:50Z</time>
      </trkpt>
      <trkpt lat="43.46187" lon="2.36749">
        <ele>548.59997558594</ele>
        <time>2019-06-02T09:34:55Z</time>
      </trkpt>
      <trkpt lat="43.46186" lon="2.36748">
        <ele>548.79998779297</ele>
        <time>2019-06-02T09:34:57Z</time>
      </trkpt>
      <trkpt lat="43.46179" lon="2.36746">
        <ele>548.20001220703</ele>
        <time>2019-06-02T09:35:04Z</time>
      </trkpt>
      <trkpt lat="43.46176" lon="2.36746">
        <ele>547.79998779297</ele>
        <time>2019-06-02T09:35:08Z</time>
      </trkpt>
      <trkpt lat="43.46172" lon="2.36742">
        <ele>548.59997558594</ele>
        <time>2019-06-02T09:35:13Z</time>
      </trkpt>
      <trkpt lat="43.46166" lon="2.3674">
        <ele>549.20001220703</ele>
        <time>2019-06-02T09:35:19Z</time>
      </trkpt>
      <trkpt lat="43.46158" lon="2.36741">
        <ele>549.40002441406</ele>
        <time>2019-06-02T09:35:26Z</time>
      </trkpt>
      <trkpt lat="43.46156" lon="2.36742">
        <ele>549.40002441406</ele>
        <time>2019-06-02T09:35:27Z</time>
      </trkpt>
      <trkpt lat="43.46153" lon="2.36739">
        <ele>549.79998779297</ele>
        <time>2019-06-02T09:35:29Z</time>
      </trkpt>
      <trkpt lat="43.46146" lon="2.3674">
        <ele>550.20001220703</ele>
        <time>2019-06-02T09:35:33Z</time>
      </trkpt>
      <trkpt lat="43.46143" lon="2.36741">
        <ele>550.40002441406</ele>
        <time>2019-06-02T09:35:37Z</time>
      </trkpt>
      <trkpt lat="43.46139" lon="2.36739">
        <ele>550.79998779297</ele>
        <time>2019-06-02T09:35:41Z</time>
      </trkpt>
      <trkpt lat="43.46136" lon="2.36737">
        <ele>551</ele>
        <time>2019-06-02T09:35:44Z</time>
      </trkpt>
      <trkpt lat="43.46131" lon="2.36735">
        <ele>551</ele>
        <time>2019-06-02T09:35:49Z</time>
      </trkpt>
      <trkpt lat="43.4613" lon="2.36734">
        <ele>551.20001220703</ele>
        <time>2019-06-02T09:35:51Z</time>
      </trkpt>
      <trkpt lat="43.4613" lon="2.36733">
        <ele>551.40002441406</ele>
        <time>2019-06-02T09:35:52Z</time>
      </trkpt>
      <trkpt lat="43.4613" lon="2.36734">
        <ele>551.79998779297</ele>
        <time>2019-06-02T09:35:55Z</time>
      </trkpt>
      <trkpt lat="43.46129" lon="2.36733">
        <ele>551.79998779297</ele>
        <time>2019-06-02T09:35:57Z</time>
      </trkpt>
      <trkpt lat="43.46126" lon="2.36732">
        <ele>552</ele>
        <time>2019-06-02T09:35:59Z</time>
      </trkpt>
      <trkpt lat="43.46117" lon="2.36733">
        <ele>552.40002441406</ele>
        <time>2019-06-02T09:36:05Z</time>
      </trkpt>
      <trkpt lat="43.46116" lon="2.36732">
        <ele>552.40002441406</ele>
        <time>2019-06-02T09:36:06Z</time>
      </trkpt>
      <trkpt lat="43.46115" lon="2.3673">
        <ele>552.59997558594</ele>
        <time>2019-06-02T09:36:09Z</time>
      </trkpt>
      <trkpt lat="43.46112" lon="2.36728">
        <ele>552.79998779297</ele>
        <time>2019-06-02T09:36:13Z</time>
      </trkpt>
      <trkpt lat="43.46102" lon="2.3673">
        <ele>553.20001220703</ele>
        <time>2019-06-02T09:36:21Z</time>
      </trkpt>
      <trkpt lat="43.46095" lon="2.3673">
        <ele>553</ele>
        <time>2019-06-02T09:36:29Z</time>
      </trkpt>
      <trkpt lat="43.4609" lon="2.36726">
        <ele>553</ele>
        <time>2019-06-02T09:36:34Z</time>
      </trkpt>
      <trkpt lat="43.46087" lon="2.36727">
        <ele>553.40002441406</ele>
        <time>2019-06-02T09:36:38Z</time>
      </trkpt>
      <trkpt lat="43.46086" lon="2.36728">
        <ele>553.40002441406</ele>
        <time>2019-06-02T09:36:40Z</time>
      </trkpt>
      <trkpt lat="43.46084" lon="2.36728">
        <ele>553.59997558594</ele>
        <time>2019-06-02T09:36:42Z</time>
      </trkpt>
      <trkpt lat="43.46081" lon="2.36731">
        <ele>553.79998779297</ele>
        <time>2019-06-02T09:36:47Z</time>
      </trkpt>
      <trkpt lat="43.46076" lon="2.36729">
        <ele>554</ele>
        <time>2019-06-02T09:36:51Z</time>
      </trkpt>
      <trkpt lat="43.46067" lon="2.36726">
        <ele>554</ele>
        <time>2019-06-02T09:36:55Z</time>
      </trkpt>
      <trkpt lat="43.46058" lon="2.36724">
        <ele>554.40002441406</ele>
        <time>2019-06-02T09:37:01Z</time>
      </trkpt>
      <trkpt lat="43.46054" lon="2.36724">
        <ele>554.59997558594</ele>
        <time>2019-06-02T09:37:06Z</time>
      </trkpt>
      <trkpt lat="43.46053" lon="2.36724">
        <ele>554.59997558594</ele>
        <time>2019-06-02T09:37:07Z</time>
      </trkpt>
      <trkpt lat="43.46051" lon="2.36717">
        <ele>554.59997558594</ele>
        <time>2019-06-02T09:37:12Z</time>
      </trkpt>
      <trkpt lat="43.46049" lon="2.36716">
        <ele>554.79998779297</ele>
        <time>2019-06-02T09:37:14Z</time>
      </trkpt>
      <trkpt lat="43.46043" lon="2.36709">
        <ele>555</ele>
        <time>2019-06-02T09:37:21Z</time>
      </trkpt>
      <trkpt lat="43.46037" lon="2.36706">
        <ele>555.20001220703</ele>
        <time>2019-06-02T09:37:26Z</time>
      </trkpt>
      <trkpt lat="43.46034" lon="2.36705">
        <ele>555.40002441406</ele>
        <time>2019-06-02T09:37:28Z</time>
      </trkpt>
      <trkpt lat="43.46031" lon="2.36702">
        <ele>555.40002441406</ele>
        <time>2019-06-02T09:37:31Z</time>
      </trkpt>
      <trkpt lat="43.46029" lon="2.367">
        <ele>555.40002441406</ele>
        <time>2019-06-02T09:37:34Z</time>
      </trkpt>
      <trkpt lat="43.46029" lon="2.36698">
        <ele>555.59997558594</ele>
        <time>2019-06-02T09:37:35Z</time>
      </trkpt>
      <trkpt lat="43.46028" lon="2.36695">
        <ele>555.79998779297</ele>
        <time>2019-06-02T09:37:37Z</time>
      </trkpt>
      <trkpt lat="43.46027" lon="2.36687">
        <ele>556.40002441406</ele>
        <time>2019-06-02T09:37:42Z</time>
      </trkpt>
      <trkpt lat="43.46025" lon="2.36685">
        <ele>556.40002441406</ele>
        <time>2019-06-02T09:37:44Z</time>
      </trkpt>
      <trkpt lat="43.46021" lon="2.36681">
        <ele>556.59997558594</ele>
        <time>2019-06-02T09:37:48Z</time>
      </trkpt>
      <trkpt lat="43.46021" lon="2.36678">
        <ele>556.79998779297</ele>
        <time>2019-06-02T09:37:50Z</time>
      </trkpt>
      <trkpt lat="43.4602" lon="2.36667">
        <ele>556.59997558594</ele>
        <time>2019-06-02T09:37:56Z</time>
      </trkpt>
      <trkpt lat="43.46018" lon="2.36655">
        <ele>556.79998779297</ele>
        <time>2019-06-02T09:38:05Z</time>
      </trkpt>
      <trkpt lat="43.46018" lon="2.36645">
        <ele>557.20001220703</ele>
        <time>2019-06-02T09:38:13Z</time>
      </trkpt>
      <trkpt lat="43.46016" lon="2.3664">
        <ele>557.40002441406</ele>
        <time>2019-06-02T09:38:19Z</time>
      </trkpt>
      <trkpt lat="43.46015" lon="2.36639">
        <ele>557.40002441406</ele>
        <time>2019-06-02T09:38:20Z</time>
      </trkpt>
      <trkpt lat="43.46013" lon="2.36636">
        <ele>557.40002441406</ele>
        <time>2019-06-02T09:38:24Z</time>
      </trkpt>
      <trkpt lat="43.46009" lon="2.36634">
        <ele>557.40002441406</ele>
        <time>2019-06-02T09:38:28Z</time>
      </trkpt>
      <trkpt lat="43.46009" lon="2.36629">
        <ele>557.79998779297</ele>
        <time>2019-06-02T09:38:32Z</time>
      </trkpt>
      <trkpt lat="43.46007" lon="2.36627">
        <ele>558.20001220703</ele>
        <time>2019-06-02T09:38:36Z</time>
      </trkpt>
      <trkpt lat="43.46006" lon="2.36624">
        <ele>558.40002441406</ele>
        <time>2019-06-02T09:38:42Z</time>
      </trkpt>
      <trkpt lat="43.46006" lon="2.36624">
        <ele>558.40002441406</ele>
        <time>2019-06-02T09:38:48Z</time>
      </trkpt>
      <trkpt lat="43.46007" lon="2.36624">
        <ele>557.79998779297</ele>
        <time>2019-06-02T09:38:53Z</time>
      </trkpt>
      <trkpt lat="43.46007" lon="2.36624">
        <ele>557.59997558594</ele>
        <time>2019-06-02T09:38:56Z</time>
      </trkpt>
      <trkpt lat="43.46006" lon="2.36624">
        <ele>557.59997558594</ele>
        <time>2019-06-02T09:39:00Z</time>
      </trkpt>
      <trkpt lat="43.46007" lon="2.36624">
        <ele>557.59997558594</ele>
        <time>2019-06-02T09:39:04Z</time>
      </trkpt>
      <trkpt lat="43.46006" lon="2.36625">
        <ele>557.79998779297</ele>
        <time>2019-06-02T09:39:05Z</time>
      </trkpt>
      <trkpt lat="43.46005" lon="2.36626">
        <ele>558.20001220703</ele>
        <time>2019-06-02T09:39:08Z</time>
      </trkpt>
      <trkpt lat="43.46005" lon="2.36627">
        <ele>558</ele>
        <time>2019-06-02T09:39:19Z</time>
      </trkpt>
      <trkpt lat="43.46006" lon="2.36627">
        <ele>558</ele>
        <time>2019-06-02T09:39:25Z</time>
      </trkpt>
      <trkpt lat="43.46006" lon="2.36627">
        <ele>557.79998779297</ele>
        <time>2019-06-02T09:39:29Z</time>
      </trkpt>
      <trkpt lat="43.46006" lon="2.36627">
        <ele>557.79998779297</ele>
        <time>2019-06-02T09:39:31Z</time>
      </trkpt>
      <trkpt lat="43.46006" lon="2.36627">
        <ele>557.79998779297</ele>
        <time>2019-06-02T09:39:32Z</time>
      </trkpt>
      <trkpt lat="43.46007" lon="2.36625">
        <ele>557.79998779297</ele>
        <time>2019-06-02T09:39:34Z</time>
      </trkpt>
      <trkpt lat="43.46007" lon="2.36625">
        <ele>557.79998779297</ele>
        <time>2019-06-02T09:39:36Z</time>
      </trkpt>
      <trkpt lat="43.46008" lon="2.36625">
        <ele>558.20001220703</ele>
        <time>2019-06-02T09:39:41Z</time>
      </trkpt>
      <trkpt lat="43.46009" lon="2.36624">
        <ele>558.20001220703</ele>
        <time>2019-06-02T09:39:43Z</time>
      </trkpt>
      <trkpt lat="43.46008" lon="2.36615">
        <ele>558.40002441406</ele>
        <time>2019-06-02T09:39:48Z</time>
      </trkpt>
      <trkpt lat="43.46007" lon="2.3661">
        <ele>558.40002441406</ele>
        <time>2019-06-02T09:39:51Z</time>
      </trkpt>
      <trkpt lat="43.46006" lon="2.36601">
        <ele>558.20001220703</ele>
        <time>2019-06-02T09:39:57Z</time>
      </trkpt>
      <trkpt lat="43.46002" lon="2.3659">
        <ele>558</ele>
        <time>2019-06-02T09:40:06Z</time>
      </trkpt>
      <trkpt lat="43.45997" lon="2.36581">
        <ele>557.40002441406</ele>
        <time>2019-06-02T09:40:14Z</time>
      </trkpt>
      <trkpt lat="43.45994" lon="2.36573">
        <ele>556.59997558594</ele>
        <time>2019-06-02T09:40:20Z</time>
      </trkpt>
      <trkpt lat="43.4599" lon="2.36571">
        <ele>556.59997558594</ele>
        <time>2019-06-02T09:40:25Z</time>
      </trkpt>
      <trkpt lat="43.45988" lon="2.3657">
        <ele>556.79998779297</ele>
        <time>2019-06-02T09:40:27Z</time>
      </trkpt>
      <trkpt lat="43.45989" lon="2.36563">
        <ele>556.79998779297</ele>
        <time>2019-06-02T09:40:32Z</time>
      </trkpt>
      <trkpt lat="43.4599" lon="2.36562">
        <ele>556.59997558594</ele>
        <time>2019-06-02T09:40:33Z</time>
      </trkpt>
      <trkpt lat="43.45993" lon="2.36556">
        <ele>555.59997558594</ele>
        <time>2019-06-02T09:40:38Z</time>
      </trkpt>
      <trkpt lat="43.45993" lon="2.36555">
        <ele>555.20001220703</ele>
        <time>2019-06-02T09:40:41Z</time>
      </trkpt>
      <trkpt lat="43.45996" lon="2.36553">
        <ele>554.40002441406</ele>
        <time>2019-06-02T09:40:47Z</time>
      </trkpt>
      <trkpt lat="43.45997" lon="2.3655">
        <ele>554</ele>
        <time>2019-06-02T09:40:49Z</time>
      </trkpt>
      <trkpt lat="43.45998" lon="2.36548">
        <ele>553.20001220703</ele>
        <time>2019-06-02T09:40:51Z</time>
      </trkpt>
      <trkpt lat="43.46" lon="2.36548">
        <ele>552.79998779297</ele>
        <time>2019-06-02T09:40:52Z</time>
      </trkpt>
      <trkpt lat="43.46001" lon="2.36545">
        <ele>552.20001220703</ele>
        <time>2019-06-02T09:40:54Z</time>
      </trkpt>
      <trkpt lat="43.46004" lon="2.36535">
        <ele>551.40002441406</ele>
        <time>2019-06-02T09:41:00Z</time>
      </trkpt>
      <trkpt lat="43.46004" lon="2.36532">
        <ele>551</ele>
        <time>2019-06-02T09:41:02Z</time>
      </trkpt>
      <trkpt lat="43.46002" lon="2.36528">
        <ele>550.20001220703</ele>
        <time>2019-06-02T09:41:08Z</time>
      </trkpt>
      <trkpt lat="43.45999" lon="2.36527">
        <ele>550</ele>
        <time>2019-06-02T09:41:10Z</time>
      </trkpt>
      <trkpt lat="43.45998" lon="2.36522">
        <ele>550</ele>
        <time>2019-06-02T09:41:11Z</time>
      </trkpt>
      <trkpt lat="43.45996" lon="2.36518">
        <ele>550</ele>
        <time>2019-06-02T09:41:13Z</time>
      </trkpt>
      <trkpt lat="43.45995" lon="2.36514">
        <ele>550</ele>
        <time>2019-06-02T09:41:14Z</time>
      </trkpt>
      <trkpt lat="43.45992" lon="2.36512">
        <ele>550</ele>
        <time>2019-06-02T09:41:16Z</time>
      </trkpt>
      <trkpt lat="43.4599" lon="2.3651">
        <ele>550</ele>
        <time>2019-06-02T09:41:20Z</time>
      </trkpt>
      <trkpt lat="43.45989" lon="2.36509">
        <ele>549.79998779297</ele>
        <time>2019-06-02T09:41:21Z</time>
      </trkpt>
      <trkpt lat="43.45988" lon="2.36508">
        <ele>549.40002441406</ele>
        <time>2019-06-02T09:41:23Z</time>
      </trkpt>
      <trkpt lat="43.45986" lon="2.36506">
        <ele>549</ele>
        <time>2019-06-02T09:41:25Z</time>
      </trkpt>
      <trkpt lat="43.45985" lon="2.36504">
        <ele>548.59997558594</ele>
        <time>2019-06-02T09:41:28Z</time>
      </trkpt>
      <trkpt lat="43.45979" lon="2.36499">
        <ele>548.40002441406</ele>
        <time>2019-06-02T09:41:35Z</time>
      </trkpt>
      <trkpt lat="43.45976" lon="2.36487">
        <ele>548.20001220703</ele>
        <time>2019-06-02T09:41:40Z</time>
      </trkpt>
      <trkpt lat="43.45973" lon="2.36483">
        <ele>548</ele>
        <time>2019-06-02T09:41:43Z</time>
      </trkpt>
      <trkpt lat="43.45965" lon="2.36467">
        <ele>548</ele>
        <time>2019-06-02T09:41:51Z</time>
      </trkpt>
      <trkpt lat="43.45965" lon="2.36466">
        <ele>547.79998779297</ele>
        <time>2019-06-02T09:41:52Z</time>
      </trkpt>
      <trkpt lat="43.45961" lon="2.36464">
        <ele>547.40002441406</ele>
        <time>2019-06-02T09:41:57Z</time>
      </trkpt>
      <trkpt lat="43.45955" lon="2.36462">
        <ele>547.40002441406</ele>
        <time>2019-06-02T09:42:04Z</time>
      </trkpt>
      <trkpt lat="43.45953" lon="2.36457">
        <ele>547.20001220703</ele>
        <time>2019-06-02T09:42:11Z</time>
      </trkpt>
      <trkpt lat="43.45953" lon="2.36452">
        <ele>546.79998779297</ele>
        <time>2019-06-02T09:42:16Z</time>
      </trkpt>
      <trkpt lat="43.45952" lon="2.3645">
        <ele>546.79998779297</ele>
        <time>2019-06-02T09:42:19Z</time>
      </trkpt>
      <trkpt lat="43.45951" lon="2.36449">
        <ele>546.79998779297</ele>
        <time>2019-06-02T09:42:20Z</time>
      </trkpt>
      <trkpt lat="43.45949" lon="2.36444">
        <ele>547.59997558594</ele>
        <time>2019-06-02T09:42:25Z</time>
      </trkpt>
      <trkpt lat="43.45949" lon="2.36442">
        <ele>547.79998779297</ele>
        <time>2019-06-02T09:42:27Z</time>
      </trkpt>
      <trkpt lat="43.45949" lon="2.3644">
        <ele>548</ele>
        <time>2019-06-02T09:42:28Z</time>
      </trkpt>
      <trkpt lat="43.4595" lon="2.36429">
        <ele>548.79998779297</ele>
        <time>2019-06-02T09:42:35Z</time>
      </trkpt>
      <trkpt lat="43.45952" lon="2.36426">
        <ele>549</ele>
        <time>2019-06-02T09:42:36Z</time>
      </trkpt>
      <trkpt lat="43.45952" lon="2.36424">
        <ele>549.20001220703</ele>
        <time>2019-06-02T09:42:37Z</time>
      </trkpt>
      <trkpt lat="43.45952" lon="2.36421">
        <ele>549.40002441406</ele>
        <time>2019-06-02T09:42:39Z</time>
      </trkpt>
      <trkpt lat="43.45953" lon="2.36416">
        <ele>550</ele>
        <time>2019-06-02T09:42:42Z</time>
      </trkpt>
      <trkpt lat="43.45953" lon="2.36414">
        <ele>550</ele>
        <time>2019-06-02T09:42:43Z</time>
      </trkpt>
      <trkpt lat="43.45954" lon="2.36409">
        <ele>551</ele>
        <time>2019-06-02T09:42:46Z</time>
      </trkpt>
      <trkpt lat="43.45956" lon="2.36405">
        <ele>551.40002441406</ele>
        <time>2019-06-02T09:42:48Z</time>
      </trkpt>
      <trkpt lat="43.4596" lon="2.364">
        <ele>551.40002441406</ele>
        <time>2019-06-02T09:42:54Z</time>
      </trkpt>
      <trkpt lat="43.45959" lon="2.36399">
        <ele>551.79998779297</ele>
        <time>2019-06-02T09:42:55Z</time>
      </trkpt>
      <trkpt lat="43.45957" lon="2.36396">
        <ele>552.20001220703</ele>
        <time>2019-06-02T09:42:57Z</time>
      </trkpt>
      <trkpt lat="43.45957" lon="2.36391">
        <ele>552.79998779297</ele>
        <time>2019-06-02T09:43:00Z</time>
      </trkpt>
      <trkpt lat="43.45956" lon="2.36389">
        <ele>552.79998779297</ele>
        <time>2019-06-02T09:43:01Z</time>
      </trkpt>
      <trkpt lat="43.45956" lon="2.36382">
        <ele>553.40002441406</ele>
        <time>2019-06-02T09:43:06Z</time>
      </trkpt>
      <trkpt lat="43.45957" lon="2.36378">
        <ele>553.59997558594</ele>
        <time>2019-06-02T09:43:08Z</time>
      </trkpt>
      <trkpt lat="43.45958" lon="2.36377">
        <ele>553.59997558594</ele>
        <time>2019-06-02T09:43:09Z</time>
      </trkpt>
      <trkpt lat="43.45959" lon="2.36371">
        <ele>553.59997558594</ele>
        <time>2019-06-02T09:43:14Z</time>
      </trkpt>
      <trkpt lat="43.45961" lon="2.36361">
        <ele>554.20001220703</ele>
        <time>2019-06-02T09:43:22Z</time>
      </trkpt>
      <trkpt lat="43.45961" lon="2.36354">
        <ele>554.40002441406</ele>
        <time>2019-06-02T09:43:27Z</time>
      </trkpt>
      <trkpt lat="43.45961" lon="2.36351">
        <ele>554.79998779297</ele>
        <time>2019-06-02T09:43:30Z</time>
      </trkpt>
      <trkpt lat="43.45961" lon="2.36347">
        <ele>555.40002441406</ele>
        <time>2019-06-02T09:43:36Z</time>
      </trkpt>
      <trkpt lat="43.45961" lon="2.36346">
        <ele>555.59997558594</ele>
        <time>2019-06-02T09:43:37Z</time>
      </trkpt>
      <trkpt lat="43.4596" lon="2.36345">
        <ele>555.79998779297</ele>
        <time>2019-06-02T09:43:38Z</time>
      </trkpt>
      <trkpt lat="43.45965" lon="2.36335">
        <ele>556.59997558594</ele>
        <time>2019-06-02T09:43:44Z</time>
      </trkpt>
      <trkpt lat="43.45965" lon="2.36334">
        <ele>556.59997558594</ele>
        <time>2019-06-02T09:43:45Z</time>
      </trkpt>
      <trkpt lat="43.45965" lon="2.3633">
        <ele>556.59997558594</ele>
        <time>2019-06-02T09:43:48Z</time>
      </trkpt>
      <trkpt lat="43.45965" lon="2.36329">
        <ele>556.59997558594</ele>
        <time>2019-06-02T09:43:49Z</time>
      </trkpt>
      <trkpt lat="43.45964" lon="2.36325">
        <ele>556.79998779297</ele>
        <time>2019-06-02T09:43:52Z</time>
      </trkpt>
      <trkpt lat="43.45963" lon="2.36319">
        <ele>556.79998779297</ele>
        <time>2019-06-02T09:43:59Z</time>
      </trkpt>
      <trkpt lat="43.45964" lon="2.36309">
        <ele>557.59997558594</ele>
        <time>2019-06-02T09:44:06Z</time>
      </trkpt>
      <trkpt lat="43.45962" lon="2.36303">
        <ele>558.20001220703</ele>
        <time>2019-06-02T09:44:13Z</time>
      </trkpt>
      <trkpt lat="43.45962" lon="2.36293">
        <ele>558.59997558594</ele>
        <time>2019-06-02T09:44:22Z</time>
      </trkpt>
      <trkpt lat="43.45962" lon="2.36291">
        <ele>558.79998779297</ele>
        <time>2019-06-02T09:44:23Z</time>
      </trkpt>
      <trkpt lat="43.45962" lon="2.36281">
        <ele>559.20001220703</ele>
        <time>2019-06-02T09:44:30Z</time>
      </trkpt>
      <trkpt lat="43.45961" lon="2.36279">
        <ele>559.20001220703</ele>
        <time>2019-06-02T09:44:31Z</time>
      </trkpt>
      <trkpt lat="43.45961" lon="2.36273">
        <ele>559.40002441406</ele>
        <time>2019-06-02T09:44:35Z</time>
      </trkpt>
      <trkpt lat="43.45961" lon="2.36269">
        <ele>559.59997558594</ele>
        <time>2019-06-02T09:44:37Z</time>
      </trkpt>
      <trkpt lat="43.4596" lon="2.36268">
        <ele>559.79998779297</ele>
        <time>2019-06-02T09:44:38Z</time>
      </trkpt>
      <trkpt lat="43.45961" lon="2.36266">
        <ele>559.79998779297</ele>
        <time>2019-06-02T09:44:39Z</time>
      </trkpt>
      <trkpt lat="43.45961" lon="2.36264">
        <ele>560</ele>
        <time>2019-06-02T09:44:40Z</time>
      </trkpt>
      <trkpt lat="43.45959" lon="2.36258">
        <ele>560.20001220703</ele>
        <time>2019-06-02T09:44:46Z</time>
      </trkpt>
      <trkpt lat="43.45958" lon="2.36244">
        <ele>560.59997558594</ele>
        <time>2019-06-02T09:44:55Z</time>
      </trkpt>
      <trkpt lat="43.45957" lon="2.36233">
        <ele>560.79998779297</ele>
        <time>2019-06-02T09:45:02Z</time>
      </trkpt>
      <trkpt lat="43.45958" lon="2.36227">
        <ele>560.79998779297</ele>
        <time>2019-06-02T09:45:05Z</time>
      </trkpt>
      <trkpt lat="43.45958" lon="2.36224">
        <ele>561</ele>
        <time>2019-06-02T09:45:08Z</time>
      </trkpt>
      <trkpt lat="43.45955" lon="2.36216">
        <ele>561</ele>
        <time>2019-06-02T09:45:16Z</time>
      </trkpt>
      <trkpt lat="43.45955" lon="2.36209">
        <ele>560.79998779297</ele>
        <time>2019-06-02T09:45:23Z</time>
      </trkpt>
      <trkpt lat="43.45956" lon="2.36205">
        <ele>560.79998779297</ele>
        <time>2019-06-02T09:45:25Z</time>
      </trkpt>
      <trkpt lat="43.45956" lon="2.36198">
        <ele>560.79998779297</ele>
        <time>2019-06-02T09:45:30Z</time>
      </trkpt>
      <trkpt lat="43.45956" lon="2.36193">
        <ele>560.79998779297</ele>
        <time>2019-06-02T09:45:33Z</time>
      </trkpt>
      <trkpt lat="43.4596" lon="2.36177">
        <ele>560.79998779297</ele>
        <time>2019-06-02T09:45:37Z</time>
      </trkpt>
      <trkpt lat="43.45961" lon="2.36176">
        <ele>560.79998779297</ele>
        <time>2019-06-02T09:45:38Z</time>
      </trkpt>
      <trkpt lat="43.45962" lon="2.36166">
        <ele>561</ele>
        <time>2019-06-02T09:45:45Z</time>
      </trkpt>
      <trkpt lat="43.45962" lon="2.3616">
        <ele>561.79998779297</ele>
        <time>2019-06-02T09:45:51Z</time>
      </trkpt>
      <trkpt lat="43.45963" lon="2.36159">
        <ele>561.79998779297</ele>
        <time>2019-06-02T09:45:52Z</time>
      </trkpt>
      <trkpt lat="43.45964" lon="2.36151">
        <ele>561.79998779297</ele>
        <time>2019-06-02T09:45:58Z</time>
      </trkpt>
      <trkpt lat="43.45966" lon="2.36147">
        <ele>561.79998779297</ele>
        <time>2019-06-02T09:46:02Z</time>
      </trkpt>
      <trkpt lat="43.45968" lon="2.36132">
        <ele>561.79998779297</ele>
        <time>2019-06-02T09:46:06Z</time>
      </trkpt>
      <trkpt lat="43.45968" lon="2.36115">
        <ele>562.40002441406</ele>
        <time>2019-06-02T09:46:13Z</time>
      </trkpt>
      <trkpt lat="43.45966" lon="2.36111">
        <ele>562.40002441406</ele>
        <time>2019-06-02T09:46:16Z</time>
      </trkpt>
      <trkpt lat="43.45966" lon="2.36109">
        <ele>562.59997558594</ele>
        <time>2019-06-02T09:46:18Z</time>
      </trkpt>
      <trkpt lat="43.45966" lon="2.36106">
        <ele>562.59997558594</ele>
        <time>2019-06-02T09:46:21Z</time>
      </trkpt>
      <trkpt lat="43.45966" lon="2.36102">
        <ele>562.59997558594</ele>
        <time>2019-06-02T09:46:26Z</time>
      </trkpt>
      <trkpt lat="43.45967" lon="2.361">
        <ele>562.79998779297</ele>
        <time>2019-06-02T09:46:29Z</time>
      </trkpt>
      <trkpt lat="43.45966" lon="2.36099">
        <ele>563</ele>
        <time>2019-06-02T09:46:30Z</time>
      </trkpt>
      <trkpt lat="43.45966" lon="2.36091">
        <ele>563.40002441406</ele>
        <time>2019-06-02T09:46:37Z</time>
      </trkpt>
      <trkpt lat="43.45967" lon="2.36084">
        <ele>563.59997558594</ele>
        <time>2019-06-02T09:46:44Z</time>
      </trkpt>
      <trkpt lat="43.45966" lon="2.36082">
        <ele>563.79998779297</ele>
        <time>2019-06-02T09:46:45Z</time>
      </trkpt>
      <trkpt lat="43.45965" lon="2.3608">
        <ele>563.59997558594</ele>
        <time>2019-06-02T09:46:48Z</time>
      </trkpt>
      <trkpt lat="43.45962" lon="2.36074">
        <ele>563.59997558594</ele>
        <time>2019-06-02T09:46:55Z</time>
      </trkpt>
      <trkpt lat="43.4596" lon="2.36071">
        <ele>563.79998779297</ele>
        <time>2019-06-02T09:46:59Z</time>
      </trkpt>
      <trkpt lat="43.45959" lon="2.36066">
        <ele>564.20001220703</ele>
        <time>2019-06-02T09:47:04Z</time>
      </trkpt>
      <trkpt lat="43.45957" lon="2.36051">
        <ele>564.40002441406</ele>
        <time>2019-06-02T09:47:11Z</time>
      </trkpt>
      <trkpt lat="43.45957" lon="2.36044">
        <ele>564.79998779297</ele>
        <time>2019-06-02T09:47:15Z</time>
      </trkpt>
      <trkpt lat="43.45957" lon="2.36038">
        <ele>564.59997558594</ele>
        <time>2019-06-02T09:47:19Z</time>
      </trkpt>
      <trkpt lat="43.45957" lon="2.36035">
        <ele>564.40002441406</ele>
        <time>2019-06-02T09:47:21Z</time>
      </trkpt>
      <trkpt lat="43.45958" lon="2.3603">
        <ele>564.20001220703</ele>
        <time>2019-06-02T09:47:26Z</time>
      </trkpt>
      <trkpt lat="43.45956" lon="2.36025">
        <ele>563.79998779297</ele>
        <time>2019-06-02T09:47:32Z</time>
      </trkpt>
      <trkpt lat="43.45954" lon="2.36023">
        <ele>563.79998779297</ele>
        <time>2019-06-02T09:47:34Z</time>
      </trkpt>
      <trkpt lat="43.45954" lon="2.36022">
        <ele>563.79998779297</ele>
        <time>2019-06-02T09:47:35Z</time>
      </trkpt>
      <trkpt lat="43.45953" lon="2.3602">
        <ele>563.79998779297</ele>
        <time>2019-06-02T09:47:37Z</time>
      </trkpt>
      <trkpt lat="43.45946" lon="2.36015">
        <ele>563.40002441406</ele>
        <time>2019-06-02T09:47:43Z</time>
      </trkpt>
      <trkpt lat="43.45942" lon="2.36009">
        <ele>563.40002441406</ele>
        <time>2019-06-02T09:47:48Z</time>
      </trkpt>
      <trkpt lat="43.45942" lon="2.36007">
        <ele>563.40002441406</ele>
        <time>2019-06-02T09:47:49Z</time>
      </trkpt>
      <trkpt lat="43.4594" lon="2.36002">
        <ele>563</ele>
        <time>2019-06-02T09:47:52Z</time>
      </trkpt>
      <trkpt lat="43.45941" lon="2.35985">
        <ele>563</ele>
        <time>2019-06-02T09:48:00Z</time>
      </trkpt>
      <trkpt lat="43.45937" lon="2.35983">
        <ele>562.79998779297</ele>
        <time>2019-06-02T09:48:03Z</time>
      </trkpt>
      <trkpt lat="43.45934" lon="2.35976">
        <ele>562.79998779297</ele>
        <time>2019-06-02T09:48:10Z</time>
      </trkpt>
      <trkpt lat="43.4593" lon="2.35966">
        <ele>562.59997558594</ele>
        <time>2019-06-02T09:48:16Z</time>
      </trkpt>
      <trkpt lat="43.45925" lon="2.3596">
        <ele>562.40002441406</ele>
        <time>2019-06-02T09:48:22Z</time>
      </trkpt>
      <trkpt lat="43.45921" lon="2.35952">
        <ele>562</ele>
        <time>2019-06-02T09:48:29Z</time>
      </trkpt>
      <trkpt lat="43.45917" lon="2.35941">
        <ele>562.59997558594</ele>
        <time>2019-06-02T09:48:37Z</time>
      </trkpt>
      <trkpt lat="43.45914" lon="2.35932">
        <ele>563</ele>
        <time>2019-06-02T09:48:44Z</time>
      </trkpt>
      <trkpt lat="43.45913" lon="2.35929">
        <ele>563</ele>
        <time>2019-06-02T09:48:46Z</time>
      </trkpt>
      <trkpt lat="43.4591" lon="2.35924">
        <ele>562.79998779297</ele>
        <time>2019-06-02T09:48:50Z</time>
      </trkpt>
      <trkpt lat="43.45908" lon="2.35921">
        <ele>562.79998779297</ele>
        <time>2019-06-02T09:48:53Z</time>
      </trkpt>
      <trkpt lat="43.45908" lon="2.35918">
        <ele>563</ele>
        <time>2019-06-02T09:48:55Z</time>
      </trkpt>
      <trkpt lat="43.45907" lon="2.35915">
        <ele>563.20001220703</ele>
        <time>2019-06-02T09:48:57Z</time>
      </trkpt>
      <trkpt lat="43.45907" lon="2.35912">
        <ele>563.20001220703</ele>
        <time>2019-06-02T09:48:59Z</time>
      </trkpt>
      <trkpt lat="43.45906" lon="2.35909">
        <ele>563</ele>
        <time>2019-06-02T09:49:02Z</time>
      </trkpt>
      <trkpt lat="43.45904" lon="2.35907">
        <ele>563.20001220703</ele>
        <time>2019-06-02T09:49:04Z</time>
      </trkpt>
      <trkpt lat="43.45904" lon="2.35905">
        <ele>563.20001220703</ele>
        <time>2019-06-02T09:49:05Z</time>
      </trkpt>
      <trkpt lat="43.459" lon="2.35901">
        <ele>563.20001220703</ele>
        <time>2019-06-02T09:49:09Z</time>
      </trkpt>
      <trkpt lat="43.45898" lon="2.35896">
        <ele>563</ele>
        <time>2019-06-02T09:49:15Z</time>
      </trkpt>
      <trkpt lat="43.45894" lon="2.3589">
        <ele>562</ele>
        <time>2019-06-02T09:49:21Z</time>
      </trkpt>
      <trkpt lat="43.45891" lon="2.35882">
        <ele>562.20001220703</ele>
        <time>2019-06-02T09:49:27Z</time>
      </trkpt>
      <trkpt lat="43.45891" lon="2.35881">
        <ele>562.20001220703</ele>
        <time>2019-06-02T09:49:28Z</time>
      </trkpt>
      <trkpt lat="43.45885" lon="2.35881">
        <ele>562.20001220703</ele>
        <time>2019-06-02T09:49:33Z</time>
      </trkpt>
      <trkpt lat="43.45884" lon="2.35881">
        <ele>562.20001220703</ele>
        <time>2019-06-02T09:49:34Z</time>
      </trkpt>
      <trkpt lat="43.4588" lon="2.35878">
        <ele>562.20001220703</ele>
        <time>2019-06-02T09:49:38Z</time>
      </trkpt>
      <trkpt lat="43.45879" lon="2.35878">
        <ele>562</ele>
        <time>2019-06-02T09:49:39Z</time>
      </trkpt>
      <trkpt lat="43.45875" lon="2.3588">
        <ele>562</ele>
        <time>2019-06-02T09:49:41Z</time>
      </trkpt>
      <trkpt lat="43.45872" lon="2.35879">
        <ele>562</ele>
        <time>2019-06-02T09:49:43Z</time>
      </trkpt>
      <trkpt lat="43.45864" lon="2.35877">
        <ele>561.79998779297</ele>
        <time>2019-06-02T09:49:51Z</time>
      </trkpt>
      <trkpt lat="43.45866" lon="2.35869">
        <ele>561.79998779297</ele>
        <time>2019-06-02T09:49:54Z</time>
      </trkpt>
      <trkpt lat="43.45868" lon="2.35856">
        <ele>561.79998779297</ele>
        <time>2019-06-02T09:49:57Z</time>
      </trkpt>
      <trkpt lat="43.45878" lon="2.3584">
        <ele>562.20001220703</ele>
        <time>2019-06-02T09:50:05Z</time>
      </trkpt>
      <trkpt lat="43.45888" lon="2.35835">
        <ele>562.59997558594</ele>
        <time>2019-06-02T09:50:12Z</time>
      </trkpt>
      <trkpt lat="43.45889" lon="2.35833">
        <ele>562.79998779297</ele>
        <time>2019-06-02T09:50:14Z</time>
      </trkpt>
      <trkpt lat="43.45892" lon="2.35828">
        <ele>563.79998779297</ele>
        <time>2019-06-02T09:50:21Z</time>
      </trkpt>
      <trkpt lat="43.45898" lon="2.35825">
        <ele>564.79998779297</ele>
        <time>2019-06-02T09:50:27Z</time>
      </trkpt>
      <trkpt lat="43.459" lon="2.35824">
        <ele>565</ele>
        <time>2019-06-02T09:50:29Z</time>
      </trkpt>
      <trkpt lat="43.459" lon="2.35823">
        <ele>565</ele>
        <time>2019-06-02T09:50:30Z</time>
      </trkpt>
      <trkpt lat="43.45905" lon="2.35821">
        <ele>565.79998779297</ele>
        <time>2019-06-02T09:50:35Z</time>
      </trkpt>
      <trkpt lat="43.45909" lon="2.3582">
        <ele>566</ele>
        <time>2019-06-02T09:50:37Z</time>
      </trkpt>
      <trkpt lat="43.45911" lon="2.35819">
        <ele>566.20001220703</ele>
        <time>2019-06-02T09:50:38Z</time>
      </trkpt>
      <trkpt lat="43.45924" lon="2.3582">
        <ele>566.79998779297</ele>
        <time>2019-06-02T09:50:44Z</time>
      </trkpt>
      <trkpt lat="43.45926" lon="2.35819">
        <ele>566.79998779297</ele>
        <time>2019-06-02T09:50:46Z</time>
      </trkpt>
      <trkpt lat="43.45928" lon="2.35819">
        <ele>567</ele>
        <time>2019-06-02T09:50:49Z</time>
      </trkpt>
      <trkpt lat="43.45932" lon="2.35819">
        <ele>567.59997558594</ele>
        <time>2019-06-02T09:50:54Z</time>
      </trkpt>
      <trkpt lat="43.45934" lon="2.35818">
        <ele>568</ele>
        <time>2019-06-02T09:50:57Z</time>
      </trkpt>
      <trkpt lat="43.45935" lon="2.35817">
        <ele>568.59997558594</ele>
        <time>2019-06-02T09:51:01Z</time>
      </trkpt>
      <trkpt lat="43.45935" lon="2.35817">
        <ele>568.79998779297</ele>
        <time>2019-06-02T09:51:02Z</time>
      </trkpt>
      <trkpt lat="43.45936" lon="2.35818">
        <ele>569</ele>
        <time>2019-06-02T09:51:04Z</time>
      </trkpt>
      <trkpt lat="43.45939" lon="2.35819">
        <ele>569.79998779297</ele>
        <time>2019-06-02T09:51:09Z</time>
      </trkpt>
      <trkpt lat="43.45942" lon="2.35816">
        <ele>570.20001220703</ele>
        <time>2019-06-02T09:51:12Z</time>
      </trkpt>
      <trkpt lat="43.45947" lon="2.35814">
        <ele>570.59997558594</ele>
        <time>2019-06-02T09:51:16Z</time>
      </trkpt>
      <trkpt lat="43.45952" lon="2.35812">
        <ele>571.20001220703</ele>
        <time>2019-06-02T09:51:22Z</time>
      </trkpt>
      <trkpt lat="43.45952" lon="2.35812">
        <ele>571.59997558594</ele>
        <time>2019-06-02T09:51:26Z</time>
      </trkpt>
      <trkpt lat="43.45958" lon="2.35808">
        <ele>572.20001220703</ele>
        <time>2019-06-02T09:51:34Z</time>
      </trkpt>
      <trkpt lat="43.45958" lon="2.35808">
        <ele>572.20001220703</ele>
        <time>2019-06-02T09:51:35Z</time>
      </trkpt>
      <trkpt lat="43.45961" lon="2.35812">
        <ele>572.79998779297</ele>
        <time>2019-06-02T09:51:41Z</time>
      </trkpt>
      <trkpt lat="43.45962" lon="2.35812">
        <ele>573.20001220703</ele>
        <time>2019-06-02T09:51:45Z</time>
      </trkpt>
      <trkpt lat="43.45963" lon="2.35807">
        <ele>574.40002441406</ele>
        <time>2019-06-02T09:51:50Z</time>
      </trkpt>
      <trkpt lat="43.45968" lon="2.35803">
        <ele>575</ele>
        <time>2019-06-02T09:51:58Z</time>
      </trkpt>
      <trkpt lat="43.45968" lon="2.35802">
        <ele>575.40002441406</ele>
        <time>2019-06-02T09:52:00Z</time>
      </trkpt>
      <trkpt lat="43.45969" lon="2.35796">
        <ele>576.20001220703</ele>
        <time>2019-06-02T09:52:07Z</time>
      </trkpt>
      <trkpt lat="43.4597" lon="2.35793">
        <ele>576.40002441406</ele>
        <time>2019-06-02T09:52:09Z</time>
      </trkpt>
      <trkpt lat="43.45971" lon="2.3579">
        <ele>577.20001220703</ele>
        <time>2019-06-02T09:52:15Z</time>
      </trkpt>
      <trkpt lat="43.45971" lon="2.35787">
        <ele>577.59997558594</ele>
        <time>2019-06-02T09:52:17Z</time>
      </trkpt>
      <trkpt lat="43.45974" lon="2.35784">
        <ele>578.40002441406</ele>
        <time>2019-06-02T09:52:23Z</time>
      </trkpt>
      <trkpt lat="43.45975" lon="2.35781">
        <ele>578.59997558594</ele>
        <time>2019-06-02T09:52:32Z</time>
      </trkpt>
      <trkpt lat="43.45976" lon="2.35781">
        <ele>578.59997558594</ele>
        <time>2019-06-02T09:52:33Z</time>
      </trkpt>
      <trkpt lat="43.45976" lon="2.35776">
        <ele>579.40002441406</ele>
        <time>2019-06-02T09:52:40Z</time>
      </trkpt>
      <trkpt lat="43.45976" lon="2.35776">
        <ele>579.59997558594</ele>
        <time>2019-06-02T09:52:41Z</time>
      </trkpt>
      <trkpt lat="43.45975" lon="2.35774">
        <ele>580.79998779297</ele>
        <time>2019-06-02T09:52:45Z</time>
      </trkpt>
      <trkpt lat="43.45974" lon="2.35771">
        <ele>581.20001220703</ele>
        <time>2019-06-02T09:52:49Z</time>
      </trkpt>
      <trkpt lat="43.45971" lon="2.35767">
        <ele>581.79998779297</ele>
        <time>2019-06-02T09:52:57Z</time>
      </trkpt>
      <trkpt lat="43.4597" lon="2.35768">
        <ele>581.79998779297</ele>
        <time>2019-06-02T09:52:58Z</time>
      </trkpt>
      <trkpt lat="43.45969" lon="2.35768">
        <ele>582</ele>
        <time>2019-06-02T09:52:59Z</time>
      </trkpt>
      <trkpt lat="43.45968" lon="2.35768">
        <ele>582.20001220703</ele>
        <time>2019-06-02T09:53:00Z</time>
      </trkpt>
      <trkpt lat="43.45973" lon="2.35756">
        <ele>583</ele>
        <time>2019-06-02T09:53:10Z</time>
      </trkpt>
      <trkpt lat="43.45972" lon="2.3575">
        <ele>583.59997558594</ele>
        <time>2019-06-02T09:53:15Z</time>
      </trkpt>
      <trkpt lat="43.4597" lon="2.35748">
        <ele>584</ele>
        <time>2019-06-02T09:53:19Z</time>
      </trkpt>
      <trkpt lat="43.45968" lon="2.35748">
        <ele>584</ele>
        <time>2019-06-02T09:53:20Z</time>
      </trkpt>
      <trkpt lat="43.45968" lon="2.35746">
        <ele>584</ele>
        <time>2019-06-02T09:53:21Z</time>
      </trkpt>
      <trkpt lat="43.45977" lon="2.35737">
        <ele>584.59997558594</ele>
        <time>2019-06-02T09:53:27Z</time>
      </trkpt>
      <trkpt lat="43.45979" lon="2.35737">
        <ele>584.59997558594</ele>
        <time>2019-06-02T09:53:28Z</time>
      </trkpt>
      <trkpt lat="43.45984" lon="2.3573">
        <ele>585.20001220703</ele>
        <time>2019-06-02T09:53:33Z</time>
      </trkpt>
      <trkpt lat="43.45985" lon="2.35727">
        <ele>585.40002441406</ele>
        <time>2019-06-02T09:53:35Z</time>
      </trkpt>
      <trkpt lat="43.45991" lon="2.35716">
        <ele>585.79998779297</ele>
        <time>2019-06-02T09:53:44Z</time>
      </trkpt>
      <trkpt lat="43.45992" lon="2.35714">
        <ele>586.20001220703</ele>
        <time>2019-06-02T09:53:46Z</time>
      </trkpt>
      <trkpt lat="43.45994" lon="2.35709">
        <ele>587.20001220703</ele>
        <time>2019-06-02T09:53:52Z</time>
      </trkpt>
      <trkpt lat="43.45994" lon="2.35708">
        <ele>587.40002441406</ele>
        <time>2019-06-02T09:53:53Z</time>
      </trkpt>
      <trkpt lat="43.45996" lon="2.35706">
        <ele>587.79998779297</ele>
        <time>2019-06-02T09:53:56Z</time>
      </trkpt>
      <trkpt lat="43.45998" lon="2.35703">
        <ele>588.40002441406</ele>
        <time>2019-06-02T09:54:03Z</time>
      </trkpt>
      <trkpt lat="43.46" lon="2.35699">
        <ele>588.79998779297</ele>
        <time>2019-06-02T09:54:11Z</time>
      </trkpt>
      <trkpt lat="43.46001" lon="2.35696">
        <ele>589.20001220703</ele>
        <time>2019-06-02T09:54:16Z</time>
      </trkpt>
      <trkpt lat="43.46001" lon="2.35696">
        <ele>589.40002441406</ele>
        <time>2019-06-02T09:54:17Z</time>
      </trkpt>
      <trkpt lat="43.46001" lon="2.35694">
        <ele>589.59997558594</ele>
        <time>2019-06-02T09:54:19Z</time>
      </trkpt>
      <trkpt lat="43.46003" lon="2.3569">
        <ele>589.79998779297</ele>
        <time>2019-06-02T09:54:22Z</time>
      </trkpt>
      <trkpt lat="43.46004" lon="2.35682">
        <ele>590.40002441406</ele>
        <time>2019-06-02T09:54:27Z</time>
      </trkpt>
      <trkpt lat="43.46005" lon="2.3568">
        <ele>590.59997558594</ele>
        <time>2019-06-02T09:54:28Z</time>
      </trkpt>
      <trkpt lat="43.46008" lon="2.35675">
        <ele>590.59997558594</ele>
        <time>2019-06-02T09:54:33Z</time>
      </trkpt>
      <trkpt lat="43.4601" lon="2.35673">
        <ele>591</ele>
        <time>2019-06-02T09:54:36Z</time>
      </trkpt>
      <trkpt lat="43.46012" lon="2.3567">
        <ele>591.40002441406</ele>
        <time>2019-06-02T09:54:39Z</time>
      </trkpt>
      <trkpt lat="43.46013" lon="2.35668">
        <ele>591.40002441406</ele>
        <time>2019-06-02T09:54:43Z</time>
      </trkpt>
      <trkpt lat="43.46017" lon="2.35662">
        <ele>592.20001220703</ele>
        <time>2019-06-02T09:54:51Z</time>
      </trkpt>
      <trkpt lat="43.46018" lon="2.35659">
        <ele>592.59997558594</ele>
        <time>2019-06-02T09:54:54Z</time>
      </trkpt>
      <trkpt lat="43.46016" lon="2.35653">
        <ele>592.59997558594</ele>
        <time>2019-06-02T09:54:59Z</time>
      </trkpt>
      <trkpt lat="43.46015" lon="2.35646">
        <ele>593.59997558594</ele>
        <time>2019-06-02T09:55:07Z</time>
      </trkpt>
      <trkpt lat="43.46015" lon="2.35646">
        <ele>593.59997558594</ele>
        <time>2019-06-02T09:55:08Z</time>
      </trkpt>
      <trkpt lat="43.46019" lon="2.3564">
        <ele>594.40002441406</ele>
        <time>2019-06-02T09:55:16Z</time>
      </trkpt>
      <trkpt lat="43.46018" lon="2.3564">
        <ele>594.79998779297</ele>
        <time>2019-06-02T09:55:18Z</time>
      </trkpt>
      <trkpt lat="43.46019" lon="2.35637">
        <ele>595.40002441406</ele>
        <time>2019-06-02T09:55:24Z</time>
      </trkpt>
      <trkpt lat="43.46027" lon="2.35632">
        <ele>595.79998779297</ele>
        <time>2019-06-02T09:55:30Z</time>
      </trkpt>
      <trkpt lat="43.46029" lon="2.3563">
        <ele>596.40002441406</ele>
        <time>2019-06-02T09:55:34Z</time>
      </trkpt>
      <trkpt lat="43.46031" lon="2.35627">
        <ele>597</ele>
        <time>2019-06-02T09:55:39Z</time>
      </trkpt>
      <trkpt lat="43.46031" lon="2.35624">
        <ele>597.59997558594</ele>
        <time>2019-06-02T09:55:42Z</time>
      </trkpt>
      <trkpt lat="43.46035" lon="2.35614">
        <ele>597.59997558594</ele>
        <time>2019-06-02T09:55:49Z</time>
      </trkpt>
      <trkpt lat="43.46035" lon="2.35613">
        <ele>597.59997558594</ele>
        <time>2019-06-02T09:55:50Z</time>
      </trkpt>
      <trkpt lat="43.46038" lon="2.35607">
        <ele>597.79998779297</ele>
        <time>2019-06-02T09:55:56Z</time>
      </trkpt>
      <trkpt lat="43.4604" lon="2.35604">
        <ele>598</ele>
        <time>2019-06-02T09:56:00Z</time>
      </trkpt>
      <trkpt lat="43.46042" lon="2.35602">
        <ele>598.79998779297</ele>
        <time>2019-06-02T09:56:04Z</time>
      </trkpt>
      <trkpt lat="43.46043" lon="2.356">
        <ele>599.20001220703</ele>
        <time>2019-06-02T09:56:06Z</time>
      </trkpt>
      <trkpt lat="43.46046" lon="2.35594">
        <ele>600.20001220703</ele>
        <time>2019-06-02T09:56:13Z</time>
      </trkpt>
      <trkpt lat="43.46047" lon="2.35593">
        <ele>600.40002441406</ele>
        <time>2019-06-02T09:56:14Z</time>
      </trkpt>
      <trkpt lat="43.46053" lon="2.35589">
        <ele>600.79998779297</ele>
        <time>2019-06-02T09:56:22Z</time>
      </trkpt>
      <trkpt lat="43.46056" lon="2.35584">
        <ele>600.79998779297</ele>
        <time>2019-06-02T09:56:29Z</time>
      </trkpt>
      <trkpt lat="43.46057" lon="2.35583">
        <ele>600.79998779297</ele>
        <time>2019-06-02T09:56:30Z</time>
      </trkpt>
      <trkpt lat="43.46058" lon="2.35583">
        <ele>601</ele>
        <time>2019-06-02T09:56:32Z</time>
      </trkpt>
      <trkpt lat="43.46062" lon="2.35578">
        <ele>601</ele>
        <time>2019-06-02T09:56:37Z</time>
      </trkpt>
      <trkpt lat="43.46066" lon="2.35572">
        <ele>601.40002441406</ele>
        <time>2019-06-02T09:56:43Z</time>
      </trkpt>
      <trkpt lat="43.46071" lon="2.35569">
        <ele>601.79998779297</ele>
        <time>2019-06-02T09:56:49Z</time>
      </trkpt>
      <trkpt lat="43.46073" lon="2.35564">
        <ele>602.59997558594</ele>
        <time>2019-06-02T09:56:55Z</time>
      </trkpt>
      <trkpt lat="43.46073" lon="2.35561">
        <ele>602.79998779297</ele>
        <time>2019-06-02T09:56:58Z</time>
      </trkpt>
      <trkpt lat="43.46078" lon="2.35556">
        <ele>603.40002441406</ele>
        <time>2019-06-02T09:57:07Z</time>
      </trkpt>
      <trkpt lat="43.46079" lon="2.35554">
        <ele>603.59997558594</ele>
        <time>2019-06-02T09:57:10Z</time>
      </trkpt>
      <trkpt lat="43.46081" lon="2.35553">
        <ele>603.79998779297</ele>
        <time>2019-06-02T09:57:12Z</time>
      </trkpt>
      <trkpt lat="43.46083" lon="2.3555">
        <ele>604</ele>
        <time>2019-06-02T09:57:17Z</time>
      </trkpt>
      <trkpt lat="43.46087" lon="2.35544">
        <ele>604.79998779297</ele>
        <time>2019-06-02T09:57:25Z</time>
      </trkpt>
      <trkpt lat="43.46089" lon="2.35543">
        <ele>605.20001220703</ele>
        <time>2019-06-02T09:57:27Z</time>
      </trkpt>
      <trkpt lat="43.46093" lon="2.35538">
        <ele>605.59997558594</ele>
        <time>2019-06-02T09:57:37Z</time>
      </trkpt>
      <trkpt lat="43.46096" lon="2.35532">
        <ele>605.79998779297</ele>
        <time>2019-06-02T09:57:41Z</time>
      </trkpt>
      <trkpt lat="43.46099" lon="2.35526">
        <ele>606.59997558594</ele>
        <time>2019-06-02T09:57:46Z</time>
      </trkpt>
      <trkpt lat="43.46101" lon="2.35523">
        <ele>607</ele>
        <time>2019-06-02T09:57:49Z</time>
      </trkpt>
      <trkpt lat="43.46103" lon="2.35521">
        <ele>607.20001220703</ele>
        <time>2019-06-02T09:57:51Z</time>
      </trkpt>
      <trkpt lat="43.46104" lon="2.35519">
        <ele>607.40002441406</ele>
        <time>2019-06-02T09:57:53Z</time>
      </trkpt>
      <trkpt lat="43.46103" lon="2.35516">
        <ele>607.40002441406</ele>
        <time>2019-06-02T09:57:54Z</time>
      </trkpt>
      <trkpt lat="43.46105" lon="2.35511">
        <ele>607.40002441406</ele>
        <time>2019-06-02T09:58:00Z</time>
      </trkpt>
      <trkpt lat="43.46109" lon="2.35506">
        <ele>607.79998779297</ele>
        <time>2019-06-02T09:58:07Z</time>
      </trkpt>
      <trkpt lat="43.46109" lon="2.35506">
        <ele>608</ele>
        <time>2019-06-02T09:58:08Z</time>
      </trkpt>
      <trkpt lat="43.4611" lon="2.35504">
        <ele>609</ele>
        <time>2019-06-02T09:58:11Z</time>
      </trkpt>
      <trkpt lat="43.4611" lon="2.35503">
        <ele>609.20001220703</ele>
        <time>2019-06-02T09:58:12Z</time>
      </trkpt>
      <trkpt lat="43.46111" lon="2.35502">
        <ele>609.40002441406</ele>
        <time>2019-06-02T09:58:14Z</time>
      </trkpt>
      <trkpt lat="43.46112" lon="2.35501">
        <ele>609.59997558594</ele>
        <time>2019-06-02T09:58:16Z</time>
      </trkpt>
      <trkpt lat="43.46115" lon="2.35497">
        <ele>610.40002441406</ele>
        <time>2019-06-02T09:58:21Z</time>
      </trkpt>
      <trkpt lat="43.46115" lon="2.35496">
        <ele>610.40002441406</ele>
        <time>2019-06-02T09:58:22Z</time>
      </trkpt>
      <trkpt lat="43.46116" lon="2.35492">
        <ele>610.79998779297</ele>
        <time>2019-06-02T09:58:25Z</time>
      </trkpt>
      <trkpt lat="43.46117" lon="2.35487">
        <ele>611.20001220703</ele>
        <time>2019-06-02T09:58:29Z</time>
      </trkpt>
      <trkpt lat="43.46113" lon="2.35488">
        <ele>611.40002441406</ele>
        <time>2019-06-02T09:58:34Z</time>
      </trkpt>
      <trkpt lat="43.46112" lon="2.3549">
        <ele>611.59997558594</ele>
        <time>2019-06-02T09:58:36Z</time>
      </trkpt>
      <trkpt lat="43.46109" lon="2.35499">
        <ele>612.59997558594</ele>
        <time>2019-06-02T09:58:43Z</time>
      </trkpt>
      <trkpt lat="43.46105" lon="2.35505">
        <ele>613.59997558594</ele>
        <time>2019-06-02T09:58:50Z</time>
      </trkpt>
      <trkpt lat="43.46103" lon="2.35506">
        <ele>613.59997558594</ele>
        <time>2019-06-02T09:58:53Z</time>
      </trkpt>
      <trkpt lat="43.46101" lon="2.3551">
        <ele>614</ele>
        <time>2019-06-02T09:58:57Z</time>
      </trkpt>
      <trkpt lat="43.46099" lon="2.35513">
        <ele>614.59997558594</ele>
        <time>2019-06-02T09:59:01Z</time>
      </trkpt>
      <trkpt lat="43.46098" lon="2.35513">
        <ele>614.79998779297</ele>
        <time>2019-06-02T09:59:02Z</time>
      </trkpt>
      <trkpt lat="43.46097" lon="2.35513">
        <ele>615</ele>
        <time>2019-06-02T09:59:04Z</time>
      </trkpt>
      <trkpt lat="43.46092" lon="2.35517">
        <ele>615.59997558594</ele>
        <time>2019-06-02T09:59:13Z</time>
      </trkpt>
      <trkpt lat="43.46091" lon="2.35518">
        <ele>615.79998779297</ele>
        <time>2019-06-02T09:59:15Z</time>
      </trkpt>
      <trkpt lat="43.4609" lon="2.35518">
        <ele>615.79998779297</ele>
        <time>2019-06-02T09:59:16Z</time>
      </trkpt>
      <trkpt lat="43.46088" lon="2.35519">
        <ele>616.20001220703</ele>
        <time>2019-06-02T09:59:19Z</time>
      </trkpt>
      <trkpt lat="43.46086" lon="2.3552">
        <ele>616.40002441406</ele>
        <time>2019-06-02T09:59:22Z</time>
      </trkpt>
      <trkpt lat="43.46084" lon="2.35522">
        <ele>616.59997558594</ele>
        <time>2019-06-02T09:59:24Z</time>
      </trkpt>
      <trkpt lat="43.46081" lon="2.35525">
        <ele>617</ele>
        <time>2019-06-02T09:59:28Z</time>
      </trkpt>
      <trkpt lat="43.4608" lon="2.35525">
        <ele>617.20001220703</ele>
        <time>2019-06-02T09:59:29Z</time>
      </trkpt>
      <trkpt lat="43.46078" lon="2.35527">
        <ele>617.40002441406</ele>
        <time>2019-06-02T09:59:32Z</time>
      </trkpt>
      <trkpt lat="43.46077" lon="2.35527">
        <ele>617.40002441406</ele>
        <time>2019-06-02T09:59:34Z</time>
      </trkpt>
      <trkpt lat="43.46076" lon="2.35528">
        <ele>617.40002441406</ele>
        <time>2019-06-02T09:59:35Z</time>
      </trkpt>
      <trkpt lat="43.46073" lon="2.35531">
        <ele>618</ele>
        <time>2019-06-02T09:59:41Z</time>
      </trkpt>
      <trkpt lat="43.46073" lon="2.35532">
        <ele>618.40002441406</ele>
        <time>2019-06-02T09:59:42Z</time>
      </trkpt>
      <trkpt lat="43.46071" lon="2.35533">
        <ele>618.59997558594</ele>
        <time>2019-06-02T09:59:45Z</time>
      </trkpt>
      <trkpt lat="43.46068" lon="2.35531">
        <ele>618.79998779297</ele>
        <time>2019-06-02T09:59:48Z</time>
      </trkpt>
      <trkpt lat="43.46068" lon="2.35528">
        <ele>619</ele>
        <time>2019-06-02T09:59:53Z</time>
      </trkpt>
      <trkpt lat="43.46069" lon="2.35527">
        <ele>619</ele>
        <time>2019-06-02T09:59:55Z</time>
      </trkpt>
      <trkpt lat="43.46072" lon="2.35526">
        <ele>619.40002441406</ele>
        <time>2019-06-02T09:59:59Z</time>
      </trkpt>
      <trkpt lat="43.46075" lon="2.35521">
        <ele>619.59997558594</ele>
        <time>2019-06-02T10:00:02Z</time>
      </trkpt>
      <trkpt lat="43.46075" lon="2.35516">
        <ele>619.79998779297</ele>
        <time>2019-06-02T10:00:05Z</time>
      </trkpt>
      <trkpt lat="43.46075" lon="2.35514">
        <ele>619.79998779297</ele>
        <time>2019-06-02T10:00:07Z</time>
      </trkpt>
      <trkpt lat="43.46078" lon="2.35511">
        <ele>620</ele>
        <time>2019-06-02T10:00:10Z</time>
      </trkpt>
      <trkpt lat="43.46079" lon="2.35509">
        <ele>620</ele>
        <time>2019-06-02T10:00:12Z</time>
      </trkpt>
      <trkpt lat="43.4608" lon="2.35509">
        <ele>620</ele>
        <time>2019-06-02T10:00:13Z</time>
      </trkpt>
      <trkpt lat="43.46081" lon="2.35503">
        <ele>620.20001220703</ele>
        <time>2019-06-02T10:00:19Z</time>
      </trkpt>
      <trkpt lat="43.46086" lon="2.35498">
        <ele>620.40002441406</ele>
        <time>2019-06-02T10:00:25Z</time>
      </trkpt>
      <trkpt lat="43.46094" lon="2.35492">
        <ele>621.20001220703</ele>
        <time>2019-06-02T10:00:33Z</time>
      </trkpt>
      <trkpt lat="43.46096" lon="2.35491">
        <ele>621.20001220703</ele>
        <time>2019-06-02T10:00:34Z</time>
      </trkpt>
      <trkpt lat="43.46102" lon="2.35483">
        <ele>621.59997558594</ele>
        <time>2019-06-02T10:00:42Z</time>
      </trkpt>
      <trkpt lat="43.46105" lon="2.35478">
        <ele>622</ele>
        <time>2019-06-02T10:00:49Z</time>
      </trkpt>
      <trkpt lat="43.46106" lon="2.35477">
        <ele>622</ele>
        <time>2019-06-02T10:00:50Z</time>
      </trkpt>
      <trkpt lat="43.46106" lon="2.3547">
        <ele>622</ele>
        <time>2019-06-02T10:00:55Z</time>
      </trkpt>
      <trkpt lat="43.46109" lon="2.35465">
        <ele>622</ele>
        <time>2019-06-02T10:01:02Z</time>
      </trkpt>
      <trkpt lat="43.46109" lon="2.35463">
        <ele>622</ele>
        <time>2019-06-02T10:01:05Z</time>
      </trkpt>
      <trkpt lat="43.46109" lon="2.35459">
        <ele>622.40002441406</ele>
        <time>2019-06-02T10:01:09Z</time>
      </trkpt>
      <trkpt lat="43.46109" lon="2.35458">
        <ele>622.59997558594</ele>
        <time>2019-06-02T10:01:10Z</time>
      </trkpt>
      <trkpt lat="43.46111" lon="2.35451">
        <ele>623.20001220703</ele>
        <time>2019-06-02T10:01:16Z</time>
      </trkpt>
      <trkpt lat="43.46112" lon="2.35448">
        <ele>623.40002441406</ele>
        <time>2019-06-02T10:01:18Z</time>
      </trkpt>
      <trkpt lat="43.46112" lon="2.35447">
        <ele>623.40002441406</ele>
        <time>2019-06-02T10:01:19Z</time>
      </trkpt>
      <trkpt lat="43.46111" lon="2.35441">
        <ele>623.79998779297</ele>
        <time>2019-06-02T10:01:22Z</time>
      </trkpt>
      <trkpt lat="43.46112" lon="2.35437">
        <ele>624.40002441406</ele>
        <time>2019-06-02T10:01:26Z</time>
      </trkpt>
      <trkpt lat="43.46113" lon="2.35436">
        <ele>624.59997558594</ele>
        <time>2019-06-02T10:01:28Z</time>
      </trkpt>
      <trkpt lat="43.46114" lon="2.35433">
        <ele>624.40002441406</ele>
        <time>2019-06-02T10:01:34Z</time>
      </trkpt>
      <trkpt lat="43.46114" lon="2.35432">
        <ele>624.20001220703</ele>
        <time>2019-06-02T10:01:39Z</time>
      </trkpt>
      <trkpt lat="43.46114" lon="2.3543">
        <ele>624.40002441406</ele>
        <time>2019-06-02T10:01:42Z</time>
      </trkpt>
      <trkpt lat="43.46115" lon="2.35427">
        <ele>624.40002441406</ele>
        <time>2019-06-02T10:01:45Z</time>
      </trkpt>
      <trkpt lat="43.46116" lon="2.35422">
        <ele>625.20001220703</ele>
        <time>2019-06-02T10:01:49Z</time>
      </trkpt>
      <trkpt lat="43.46115" lon="2.35415">
        <ele>625.40002441406</ele>
        <time>2019-06-02T10:01:55Z</time>
      </trkpt>
      <trkpt lat="43.46114" lon="2.35413">
        <ele>625.40002441406</ele>
        <time>2019-06-02T10:01:57Z</time>
      </trkpt>
      <trkpt lat="43.46113" lon="2.35408">
        <ele>625.40002441406</ele>
        <time>2019-06-02T10:02:01Z</time>
      </trkpt>
      <trkpt lat="43.46113" lon="2.35407">
        <ele>625.59997558594</ele>
        <time>2019-06-02T10:02:02Z</time>
      </trkpt>
      <trkpt lat="43.46114" lon="2.35401">
        <ele>626.20001220703</ele>
        <time>2019-06-02T10:02:08Z</time>
      </trkpt>
      <trkpt lat="43.46114" lon="2.354">
        <ele>626.20001220703</ele>
        <time>2019-06-02T10:02:09Z</time>
      </trkpt>
      <trkpt lat="43.46117" lon="2.35394">
        <ele>626.20001220703</ele>
        <time>2019-06-02T10:02:15Z</time>
      </trkpt>
      <trkpt lat="43.46118" lon="2.35386">
        <ele>626.40002441406</ele>
        <time>2019-06-02T10:02:21Z</time>
      </trkpt>
      <trkpt lat="43.46118" lon="2.35378">
        <ele>626.59997558594</ele>
        <time>2019-06-02T10:02:29Z</time>
      </trkpt>
      <trkpt lat="43.46119" lon="2.35374">
        <ele>627</ele>
        <time>2019-06-02T10:02:33Z</time>
      </trkpt>
      <trkpt lat="43.4612" lon="2.35371">
        <ele>627</ele>
        <time>2019-06-02T10:02:35Z</time>
      </trkpt>
      <trkpt lat="43.4612" lon="2.35363">
        <ele>627</ele>
        <time>2019-06-02T10:02:41Z</time>
      </trkpt>
      <trkpt lat="43.4612" lon="2.35359">
        <ele>627.20001220703</ele>
        <time>2019-06-02T10:02:43Z</time>
      </trkpt>
      <trkpt lat="43.46121" lon="2.35355">
        <ele>627.40002441406</ele>
        <time>2019-06-02T10:02:45Z</time>
      </trkpt>
      <trkpt lat="43.46122" lon="2.35354">
        <ele>627.40002441406</ele>
        <time>2019-06-02T10:02:46Z</time>
      </trkpt>
      <trkpt lat="43.46122" lon="2.35353">
        <ele>627.59997558594</ele>
        <time>2019-06-02T10:02:47Z</time>
      </trkpt>
      <trkpt lat="43.46124" lon="2.35345">
        <ele>627.79998779297</ele>
        <time>2019-06-02T10:02:54Z</time>
      </trkpt>
      <trkpt lat="43.46127" lon="2.35334">
        <ele>627.79998779297</ele>
        <time>2019-06-02T10:03:00Z</time>
      </trkpt>
      <trkpt lat="43.46127" lon="2.35332">
        <ele>627.79998779297</ele>
        <time>2019-06-02T10:03:01Z</time>
      </trkpt>
      <trkpt lat="43.46126" lon="2.35319">
        <ele>628</ele>
        <time>2019-06-02T10:03:08Z</time>
      </trkpt>
      <trkpt lat="43.46126" lon="2.35314">
        <ele>628</ele>
        <time>2019-06-02T10:03:11Z</time>
      </trkpt>
      <trkpt lat="43.46127" lon="2.35309">
        <ele>628</ele>
        <time>2019-06-02T10:03:14Z</time>
      </trkpt>
      <trkpt lat="43.46127" lon="2.35305">
        <ele>628.40002441406</ele>
        <time>2019-06-02T10:03:17Z</time>
      </trkpt>
      <trkpt lat="43.46127" lon="2.35302">
        <ele>628.59997558594</ele>
        <time>2019-06-02T10:03:19Z</time>
      </trkpt>
      <trkpt lat="43.46127" lon="2.353">
        <ele>628.79998779297</ele>
        <time>2019-06-02T10:03:21Z</time>
      </trkpt>
      <trkpt lat="43.46126" lon="2.35299">
        <ele>628.79998779297</ele>
        <time>2019-06-02T10:03:22Z</time>
      </trkpt>
      <trkpt lat="43.46123" lon="2.35295">
        <ele>628.59997558594</ele>
        <time>2019-06-02T10:03:26Z</time>
      </trkpt>
      <trkpt lat="43.46123" lon="2.35293">
        <ele>628.40002441406</ele>
        <time>2019-06-02T10:03:27Z</time>
      </trkpt>
      <trkpt lat="43.46121" lon="2.35288">
        <ele>628.40002441406</ele>
        <time>2019-06-02T10:03:33Z</time>
      </trkpt>
      <trkpt lat="43.46121" lon="2.35285">
        <ele>628.59997558594</ele>
        <time>2019-06-02T10:03:36Z</time>
      </trkpt>
      <trkpt lat="43.46122" lon="2.35279">
        <ele>629</ele>
        <time>2019-06-02T10:03:41Z</time>
      </trkpt>
      <trkpt lat="43.46124" lon="2.35265">
        <ele>629</ele>
        <time>2019-06-02T10:03:49Z</time>
      </trkpt>
      <trkpt lat="43.46124" lon="2.35264">
        <ele>629</ele>
        <time>2019-06-02T10:03:51Z</time>
      </trkpt>
      <trkpt lat="43.46121" lon="2.35266">
        <ele>629.20001220703</ele>
        <time>2019-06-02T10:03:58Z</time>
      </trkpt>
      <trkpt lat="43.46121" lon="2.35266">
        <ele>629.20001220703</ele>
        <time>2019-06-02T10:04:01Z</time>
      </trkpt>
      <trkpt lat="43.4612" lon="2.35266">
        <ele>629</ele>
        <time>2019-06-02T10:04:05Z</time>
      </trkpt>
      <trkpt lat="43.4612" lon="2.35267">
        <ele>629</ele>
        <time>2019-06-02T10:04:06Z</time>
      </trkpt>
      <trkpt lat="43.46121" lon="2.35267">
        <ele>629</ele>
        <time>2019-06-02T10:04:08Z</time>
      </trkpt>
      <trkpt lat="43.46122" lon="2.35269">
        <ele>629</ele>
        <time>2019-06-02T10:04:12Z</time>
      </trkpt>
      <trkpt lat="43.46122" lon="2.3527">
        <ele>629.20001220703</ele>
        <time>2019-06-02T10:04:13Z</time>
      </trkpt>
      <trkpt lat="43.46123" lon="2.3527">
        <ele>629.20001220703</ele>
        <time>2019-06-02T10:04:15Z</time>
      </trkpt>
      <trkpt lat="43.46122" lon="2.35268">
        <ele>629.20001220703</ele>
        <time>2019-06-02T10:04:22Z</time>
      </trkpt>
      <trkpt lat="43.46119" lon="2.35265">
        <ele>629.20001220703</ele>
        <time>2019-06-02T10:04:28Z</time>
      </trkpt>
      <trkpt lat="43.46121" lon="2.35261">
        <ele>629.40002441406</ele>
        <time>2019-06-02T10:04:35Z</time>
      </trkpt>
      <trkpt lat="43.46122" lon="2.3526">
        <ele>629.40002441406</ele>
        <time>2019-06-02T10:04:37Z</time>
      </trkpt>
      <trkpt lat="43.46122" lon="2.3526">
        <ele>629.20001220703</ele>
        <time>2019-06-02T10:04:39Z</time>
      </trkpt>
      <trkpt lat="43.46123" lon="2.35258">
        <ele>629.20001220703</ele>
        <time>2019-06-02T10:04:43Z</time>
      </trkpt>
      <trkpt lat="43.46123" lon="2.35257">
        <ele>629.20001220703</ele>
        <time>2019-06-02T10:04:45Z</time>
      </trkpt>
      <trkpt lat="43.46124" lon="2.35257">
        <ele>629.20001220703</ele>
        <time>2019-06-02T10:04:50Z</time>
      </trkpt>
      <trkpt lat="43.46124" lon="2.35256">
        <ele>629.20001220703</ele>
        <time>2019-06-02T10:04:51Z</time>
      </trkpt>
      <trkpt lat="43.46124" lon="2.35255">
        <ele>629.20001220703</ele>
        <time>2019-06-02T10:04:56Z</time>
      </trkpt>
      <trkpt lat="43.46124" lon="2.35255">
        <ele>629.20001220703</ele>
        <time>2019-06-02T10:04:57Z</time>
      </trkpt>
      <trkpt lat="43.46125" lon="2.35255">
        <ele>629.20001220703</ele>
        <time>2019-06-02T10:05:05Z</time>
      </trkpt>
      <trkpt lat="43.46124" lon="2.35256">
        <ele>629.20001220703</ele>
        <time>2019-06-02T10:05:17Z</time>
      </trkpt>
      <trkpt lat="43.46124" lon="2.35256">
        <ele>629.20001220703</ele>
        <time>2019-06-02T10:05:19Z</time>
      </trkpt>
      <trkpt lat="43.46126" lon="2.35256">
        <ele>629.20001220703</ele>
        <time>2019-06-02T10:05:25Z</time>
      </trkpt>
      <trkpt lat="43.46126" lon="2.35256">
        <ele>629.20001220703</ele>
        <time>2019-06-02T10:05:26Z</time>
      </trkpt>
      <trkpt lat="43.46125" lon="2.35256">
        <ele>629.20001220703</ele>
        <time>2019-06-02T10:05:28Z</time>
      </trkpt>
      <trkpt lat="43.46125" lon="2.35256">
        <ele>629.20001220703</ele>
        <time>2019-06-02T10:05:29Z</time>
      </trkpt>
      <trkpt lat="43.46125" lon="2.35256">
        <ele>629.20001220703</ele>
        <time>2019-06-02T10:05:30Z</time>
      </trkpt>
      <trkpt lat="43.46124" lon="2.35256">
        <ele>629.20001220703</ele>
        <time>2019-06-02T10:05:37Z</time>
      </trkpt>
      <trkpt lat="43.46124" lon="2.35256">
        <ele>629.20001220703</ele>
        <time>2019-06-02T10:05:40Z</time>
      </trkpt>
      <trkpt lat="43.46124" lon="2.35256">
        <ele>629.20001220703</ele>
        <time>2019-06-02T10:05:42Z</time>
      </trkpt>
      <trkpt lat="43.46124" lon="2.35256">
        <ele>629.20001220703</ele>
        <time>2019-06-02T10:05:48Z</time>
      </trkpt>
      <trkpt lat="43.46124" lon="2.35255">
        <ele>629.20001220703</ele>
        <time>2019-06-02T10:05:53Z</time>
      </trkpt>
      <trkpt lat="43.46123" lon="2.35255">
        <ele>629.20001220703</ele>
        <time>2019-06-02T10:06:00Z</time>
      </trkpt>
      <trkpt lat="43.46124" lon="2.35254">
        <ele>629.20001220703</ele>
        <time>2019-06-02T10:06:05Z</time>
      </trkpt>
      <trkpt lat="43.46124" lon="2.35254">
        <ele>629.20001220703</ele>
        <time>2019-06-02T10:06:06Z</time>
      </trkpt>
      <trkpt lat="43.46124" lon="2.35253">
        <ele>629.20001220703</ele>
        <time>2019-06-02T10:06:08Z</time>
      </trkpt>
      <trkpt lat="43.46124" lon="2.35253">
        <ele>629.20001220703</ele>
        <time>2019-06-02T10:06:11Z</time>
      </trkpt>
      <trkpt lat="43.46124" lon="2.35253">
        <ele>629.20001220703</ele>
        <time>2019-06-02T10:06:13Z</time>
      </trkpt>
      <trkpt lat="43.46124" lon="2.35253">
        <ele>629.20001220703</ele>
        <time>2019-06-02T10:06:16Z</time>
      </trkpt>
      <trkpt lat="43.46124" lon="2.35253">
        <ele>629.20001220703</ele>
        <time>2019-06-02T10:06:17Z</time>
      </trkpt>
      <trkpt lat="43.46124" lon="2.35253">
        <ele>629.20001220703</ele>
        <time>2019-06-02T10:06:21Z</time>
      </trkpt>
      <trkpt lat="43.46124" lon="2.35252">
        <ele>629.20001220703</ele>
        <time>2019-06-02T10:06:24Z</time>
      </trkpt>
      <trkpt lat="43.46124" lon="2.35251">
        <ele>629.20001220703</ele>
        <time>2019-06-02T10:06:29Z</time>
      </trkpt>
      <trkpt lat="43.46122" lon="2.35253">
        <ele>629.20001220703</ele>
        <time>2019-06-02T10:06:35Z</time>
      </trkpt>
      <trkpt lat="43.4612" lon="2.35254">
        <ele>629.20001220703</ele>
        <time>2019-06-02T10:06:40Z</time>
      </trkpt>
      <trkpt lat="43.4612" lon="2.35252">
        <ele>629.20001220703</ele>
        <time>2019-06-02T10:06:44Z</time>
      </trkpt>
      <trkpt lat="43.46121" lon="2.35251">
        <ele>629.20001220703</ele>
        <time>2019-06-02T10:06:50Z</time>
      </trkpt>
      <trkpt lat="43.46121" lon="2.3525">
        <ele>629.20001220703</ele>
        <time>2019-06-02T10:06:52Z</time>
      </trkpt>
      <trkpt lat="43.46122" lon="2.35251">
        <ele>629.20001220703</ele>
        <time>2019-06-02T10:06:59Z</time>
      </trkpt>
      <trkpt lat="43.46123" lon="2.3525">
        <ele>629.20001220703</ele>
        <time>2019-06-02T10:07:01Z</time>
      </trkpt>
      <trkpt lat="43.46123" lon="2.3525">
        <ele>629.20001220703</ele>
        <time>2019-06-02T10:07:03Z</time>
      </trkpt>
      <trkpt lat="43.46124" lon="2.35253">
        <ele>629.20001220703</ele>
        <time>2019-06-02T10:07:07Z</time>
      </trkpt>
      <trkpt lat="43.46127" lon="2.35251">
        <ele>629.20001220703</ele>
        <time>2019-06-02T10:07:15Z</time>
      </trkpt>
      <trkpt lat="43.46127" lon="2.35251">
        <ele>629.20001220703</ele>
        <time>2019-06-02T10:07:16Z</time>
      </trkpt>
      <trkpt lat="43.46127" lon="2.35251">
        <ele>629.20001220703</ele>
        <time>2019-06-02T10:07:17Z</time>
      </trkpt>
      <trkpt lat="43.46126" lon="2.35251">
        <ele>629.20001220703</ele>
        <time>2019-06-02T10:07:19Z</time>
      </trkpt>
      <trkpt lat="43.46126" lon="2.35251">
        <ele>629.20001220703</ele>
        <time>2019-06-02T10:07:22Z</time>
      </trkpt>
      <trkpt lat="43.46126" lon="2.35251">
        <ele>629.20001220703</ele>
        <time>2019-06-02T10:07:27Z</time>
      </trkpt>
      <trkpt lat="43.46126" lon="2.35252">
        <ele>629.20001220703</ele>
        <time>2019-06-02T10:07:31Z</time>
      </trkpt>
      <trkpt lat="43.46125" lon="2.35253">
        <ele>629.20001220703</ele>
        <time>2019-06-02T10:07:33Z</time>
      </trkpt>
      <trkpt lat="43.46125" lon="2.35254">
        <ele>629.20001220703</ele>
        <time>2019-06-02T10:07:35Z</time>
      </trkpt>
      <trkpt lat="43.46125" lon="2.35254">
        <ele>629.20001220703</ele>
        <time>2019-06-02T10:07:36Z</time>
      </trkpt>
      <trkpt lat="43.46119" lon="2.35253">
        <ele>629.20001220703</ele>
        <time>2019-06-02T10:07:44Z</time>
      </trkpt>
      <trkpt lat="43.46121" lon="2.35255">
        <ele>629.20001220703</ele>
        <time>2019-06-02T10:07:55Z</time>
      </trkpt>
      <trkpt lat="43.46121" lon="2.35257">
        <ele>629.20001220703</ele>
        <time>2019-06-02T10:08:04Z</time>
      </trkpt>
      <trkpt lat="43.46122" lon="2.35258">
        <ele>629.20001220703</ele>
        <time>2019-06-02T10:08:11Z</time>
      </trkpt>
      <trkpt lat="43.4612" lon="2.35256">
        <ele>629.20001220703</ele>
        <time>2019-06-02T10:08:18Z</time>
      </trkpt>
      <trkpt lat="43.4612" lon="2.35256">
        <ele>629.20001220703</ele>
        <time>2019-06-02T10:08:19Z</time>
      </trkpt>
      <trkpt lat="43.46121" lon="2.35255">
        <ele>629.20001220703</ele>
        <time>2019-06-02T10:08:21Z</time>
      </trkpt>
      <trkpt lat="43.46126" lon="2.35254">
        <ele>629.20001220703</ele>
        <time>2019-06-02T10:08:27Z</time>
      </trkpt>
      <trkpt lat="43.46133" lon="2.35252">
        <ele>629.20001220703</ele>
        <time>2019-06-02T10:08:36Z</time>
      </trkpt>
      <trkpt lat="43.46133" lon="2.35249">
        <ele>629.20001220703</ele>
        <time>2019-06-02T10:08:44Z</time>
      </trkpt>
      <trkpt lat="43.46133" lon="2.35248">
        <ele>629.20001220703</ele>
        <time>2019-06-02T10:08:45Z</time>
      </trkpt>
      <trkpt lat="43.46133" lon="2.35248">
        <ele>629.20001220703</ele>
        <time>2019-06-02T10:08:47Z</time>
      </trkpt>
      <trkpt lat="43.46133" lon="2.35248">
        <ele>629.20001220703</ele>
        <time>2019-06-02T10:08:55Z</time>
      </trkpt>
      <trkpt lat="43.46133" lon="2.35248">
        <ele>629.20001220703</ele>
        <time>2019-06-02T10:08:56Z</time>
      </trkpt>
      <trkpt lat="43.46133" lon="2.35248">
        <ele>629.20001220703</ele>
        <time>2019-06-02T10:09:02Z</time>
      </trkpt>
      <trkpt lat="43.46131" lon="2.35248">
        <ele>629.20001220703</ele>
        <time>2019-06-02T10:09:07Z</time>
      </trkpt>
      <trkpt lat="43.46127" lon="2.35251">
        <ele>629.20001220703</ele>
        <time>2019-06-02T10:09:15Z</time>
      </trkpt>
      <trkpt lat="43.46123" lon="2.35251">
        <ele>629.20001220703</ele>
        <time>2019-06-02T10:09:21Z</time>
      </trkpt>
      <trkpt lat="43.46122" lon="2.35249">
        <ele>629.20001220703</ele>
        <time>2019-06-02T10:09:30Z</time>
      </trkpt>
      <trkpt lat="43.46123" lon="2.3525">
        <ele>629.20001220703</ele>
        <time>2019-06-02T10:09:39Z</time>
      </trkpt>
      <trkpt lat="43.46127" lon="2.35252">
        <ele>629.20001220703</ele>
        <time>2019-06-02T10:09:48Z</time>
      </trkpt>
      <trkpt lat="43.46125" lon="2.35251">
        <ele>629.20001220703</ele>
        <time>2019-06-02T10:09:56Z</time>
      </trkpt>
      <trkpt lat="43.46123" lon="2.35253">
        <ele>629.20001220703</ele>
        <time>2019-06-02T10:10:01Z</time>
      </trkpt>
      <trkpt lat="43.46123" lon="2.35253">
        <ele>629.20001220703</ele>
        <time>2019-06-02T10:10:03Z</time>
      </trkpt>
      <trkpt lat="43.46125" lon="2.35253">
        <ele>629.20001220703</ele>
        <time>2019-06-02T10:10:06Z</time>
      </trkpt>
      <trkpt lat="43.46126" lon="2.35253">
        <ele>629.20001220703</ele>
        <time>2019-06-02T10:10:09Z</time>
      </trkpt>
      <trkpt lat="43.46126" lon="2.35253">
        <ele>629.20001220703</ele>
        <time>2019-06-02T10:10:10Z</time>
      </trkpt>
      <trkpt lat="43.46126" lon="2.35253">
        <ele>629.20001220703</ele>
        <time>2019-06-02T10:10:14Z</time>
      </trkpt>
      <trkpt lat="43.46127" lon="2.35252">
        <ele>629.20001220703</ele>
        <time>2019-06-02T10:10:18Z</time>
      </trkpt>
      <trkpt lat="43.46125" lon="2.35253">
        <ele>629.20001220703</ele>
        <time>2019-06-02T10:10:27Z</time>
      </trkpt>
      <trkpt lat="43.46124" lon="2.35254">
        <ele>629.20001220703</ele>
        <time>2019-06-02T10:10:37Z</time>
      </trkpt>
      <trkpt lat="43.46127" lon="2.35255">
        <ele>629.20001220703</ele>
        <time>2019-06-02T10:10:45Z</time>
      </trkpt>
      <trkpt lat="43.46129" lon="2.35253">
        <ele>629.20001220703</ele>
        <time>2019-06-02T10:10:52Z</time>
      </trkpt>
      <trkpt lat="43.46128" lon="2.35255">
        <ele>629.20001220703</ele>
        <time>2019-06-02T10:11:02Z</time>
      </trkpt>
      <trkpt lat="43.46129" lon="2.35252">
        <ele>629.20001220703</ele>
        <time>2019-06-02T10:11:09Z</time>
      </trkpt>
      <trkpt lat="43.46129" lon="2.35248">
        <ele>629.20001220703</ele>
        <time>2019-06-02T10:11:16Z</time>
      </trkpt>
      <trkpt lat="43.46128" lon="2.35247">
        <ele>629.20001220703</ele>
        <time>2019-06-02T10:11:23Z</time>
      </trkpt>
      <trkpt lat="43.46126" lon="2.3525">
        <ele>629.20001220703</ele>
        <time>2019-06-02T10:11:31Z</time>
      </trkpt>
      <trkpt lat="43.46125" lon="2.35252">
        <ele>629.20001220703</ele>
        <time>2019-06-02T10:11:39Z</time>
      </trkpt>
      <trkpt lat="43.46125" lon="2.35253">
        <ele>629.20001220703</ele>
        <time>2019-06-02T10:11:48Z</time>
      </trkpt>
      <trkpt lat="43.46125" lon="2.35253">
        <ele>629.20001220703</ele>
        <time>2019-06-02T10:11:53Z</time>
      </trkpt>
      <trkpt lat="43.46125" lon="2.35253">
        <ele>629.20001220703</ele>
        <time>2019-06-02T10:11:56Z</time>
      </trkpt>
      <trkpt lat="43.46125" lon="2.35251">
        <ele>629.20001220703</ele>
        <time>2019-06-02T10:11:59Z</time>
      </trkpt>
      <trkpt lat="43.46124" lon="2.3525">
        <ele>629.20001220703</ele>
        <time>2019-06-02T10:12:01Z</time>
      </trkpt>
      <trkpt lat="43.46123" lon="2.3525">
        <ele>629.20001220703</ele>
        <time>2019-06-02T10:12:03Z</time>
      </trkpt>
      <trkpt lat="43.46122" lon="2.35249">
        <ele>629.20001220703</ele>
        <time>2019-06-02T10:12:06Z</time>
      </trkpt>
      <trkpt lat="43.46122" lon="2.35249">
        <ele>629.20001220703</ele>
        <time>2019-06-02T10:12:09Z</time>
      </trkpt>
      <trkpt lat="43.46122" lon="2.35249">
        <ele>629.20001220703</ele>
        <time>2019-06-02T10:12:10Z</time>
      </trkpt>
      <trkpt lat="43.46123" lon="2.3525">
        <ele>629.20001220703</ele>
        <time>2019-06-02T10:12:17Z</time>
      </trkpt>
      <trkpt lat="43.46122" lon="2.3525">
        <ele>629.20001220703</ele>
        <time>2019-06-02T10:12:25Z</time>
      </trkpt>
      <trkpt lat="43.4612" lon="2.35248">
        <ele>629.20001220703</ele>
        <time>2019-06-02T10:12:34Z</time>
      </trkpt>
      <trkpt lat="43.4612" lon="2.35249">
        <ele>629.20001220703</ele>
        <time>2019-06-02T10:12:38Z</time>
      </trkpt>
      <trkpt lat="43.4612" lon="2.35249">
        <ele>629.20001220703</ele>
        <time>2019-06-02T10:12:42Z</time>
      </trkpt>
      <trkpt lat="43.4612" lon="2.35249">
        <ele>629.20001220703</ele>
        <time>2019-06-02T10:12:43Z</time>
      </trkpt>
      <trkpt lat="43.4612" lon="2.35248">
        <ele>629.20001220703</ele>
        <time>2019-06-02T10:12:47Z</time>
      </trkpt>
      <trkpt lat="43.46121" lon="2.35249">
        <ele>629.20001220703</ele>
        <time>2019-06-02T10:12:51Z</time>
      </trkpt>
      <trkpt lat="43.4612" lon="2.35249">
        <ele>629.20001220703</ele>
        <time>2019-06-02T10:12:59Z</time>
      </trkpt>
      <trkpt lat="43.4612" lon="2.35249">
        <ele>629.20001220703</ele>
        <time>2019-06-02T10:13:00Z</time>
      </trkpt>
      <trkpt lat="43.46124" lon="2.3525">
        <ele>629.20001220703</ele>
        <time>2019-06-02T10:13:06Z</time>
      </trkpt>
      <trkpt lat="43.46124" lon="2.35249">
        <ele>629.20001220703</ele>
        <time>2019-06-02T10:13:09Z</time>
      </trkpt>
      <trkpt lat="43.46124" lon="2.35249">
        <ele>629.20001220703</ele>
        <time>2019-06-02T10:13:11Z</time>
      </trkpt>
      <trkpt lat="43.46124" lon="2.35248">
        <ele>629.20001220703</ele>
        <time>2019-06-02T10:13:13Z</time>
      </trkpt>
      <trkpt lat="43.46125" lon="2.35247">
        <ele>629.20001220703</ele>
        <time>2019-06-02T10:13:14Z</time>
      </trkpt>
      <trkpt lat="43.46125" lon="2.35246">
        <ele>629.20001220703</ele>
        <time>2019-06-02T10:13:17Z</time>
      </trkpt>
      <trkpt lat="43.46124" lon="2.35247">
        <ele>629.20001220703</ele>
        <time>2019-06-02T10:13:21Z</time>
      </trkpt>
      <trkpt lat="43.46123" lon="2.35256">
        <ele>629.20001220703</ele>
        <time>2019-06-02T10:13:29Z</time>
      </trkpt>
      <trkpt lat="43.4612" lon="2.35255">
        <ele>629.20001220703</ele>
        <time>2019-06-02T10:13:37Z</time>
      </trkpt>
      <trkpt lat="43.46115" lon="2.35247">
        <ele>629.40002441406</ele>
        <time>2019-06-02T10:13:44Z</time>
      </trkpt>
      <trkpt lat="43.46115" lon="2.35246">
        <ele>629.59997558594</ele>
        <time>2019-06-02T10:13:45Z</time>
      </trkpt>
      <trkpt lat="43.46113" lon="2.35242">
        <ele>630.20001220703</ele>
        <time>2019-06-02T10:13:49Z</time>
      </trkpt>
      <trkpt lat="43.46113" lon="2.35241">
        <ele>630.20001220703</ele>
        <time>2019-06-02T10:13:51Z</time>
      </trkpt>
      <trkpt lat="43.46113" lon="2.3524">
        <ele>630.20001220703</ele>
        <time>2019-06-02T10:13:52Z</time>
      </trkpt>
      <trkpt lat="43.46113" lon="2.35239">
        <ele>630.20001220703</ele>
        <time>2019-06-02T10:13:53Z</time>
      </trkpt>
      <trkpt lat="43.46113" lon="2.35238">
        <ele>630.20001220703</ele>
        <time>2019-06-02T10:13:54Z</time>
      </trkpt>
      <trkpt lat="43.46112" lon="2.35235">
        <ele>630.40002441406</ele>
        <time>2019-06-02T10:13:58Z</time>
      </trkpt>
      <trkpt lat="43.46111" lon="2.35233">
        <ele>630.40002441406</ele>
        <time>2019-06-02T10:14:00Z</time>
      </trkpt>
      <trkpt lat="43.4611" lon="2.35233">
        <ele>630.40002441406</ele>
        <time>2019-06-02T10:14:01Z</time>
      </trkpt>
      <trkpt lat="43.46108" lon="2.35231">
        <ele>630.20001220703</ele>
        <time>2019-06-02T10:14:04Z</time>
      </trkpt>
      <trkpt lat="43.46102" lon="2.35229">
        <ele>629.59997558594</ele>
        <time>2019-06-02T10:14:10Z</time>
      </trkpt>
      <trkpt lat="43.46098" lon="2.35229">
        <ele>629.79998779297</ele>
        <time>2019-06-02T10:14:12Z</time>
      </trkpt>
      <trkpt lat="43.46096" lon="2.35227">
        <ele>630.20001220703</ele>
        <time>2019-06-02T10:14:14Z</time>
      </trkpt>
      <trkpt lat="43.46095" lon="2.35224">
        <ele>630.79998779297</ele>
        <time>2019-06-02T10:14:16Z</time>
      </trkpt>
      <trkpt lat="43.46093" lon="2.35221">
        <ele>630.79998779297</ele>
        <time>2019-06-02T10:14:18Z</time>
      </trkpt>
      <trkpt lat="43.46092" lon="2.35215">
        <ele>630.79998779297</ele>
        <time>2019-06-02T10:14:21Z</time>
      </trkpt>
      <trkpt lat="43.46092" lon="2.35213">
        <ele>630.79998779297</ele>
        <time>2019-06-02T10:14:22Z</time>
      </trkpt>
      <trkpt lat="43.46091" lon="2.35212">
        <ele>630.79998779297</ele>
        <time>2019-06-02T10:14:23Z</time>
      </trkpt>
      <trkpt lat="43.46091" lon="2.35202">
        <ele>630.59997558594</ele>
        <time>2019-06-02T10:14:30Z</time>
      </trkpt>
      <trkpt lat="43.4609" lon="2.35192">
        <ele>631</ele>
        <time>2019-06-02T10:14:36Z</time>
      </trkpt>
      <trkpt lat="43.46088" lon="2.35189">
        <ele>631</ele>
        <time>2019-06-02T10:14:39Z</time>
      </trkpt>
      <trkpt lat="43.46086" lon="2.35186">
        <ele>631</ele>
        <time>2019-06-02T10:14:41Z</time>
      </trkpt>
      <trkpt lat="43.46084" lon="2.35183">
        <ele>631.20001220703</ele>
        <time>2019-06-02T10:14:43Z</time>
      </trkpt>
      <trkpt lat="43.46083" lon="2.35179">
        <ele>632</ele>
        <time>2019-06-02T10:14:46Z</time>
      </trkpt>
      <trkpt lat="43.46081" lon="2.35178">
        <ele>632</ele>
        <time>2019-06-02T10:14:47Z</time>
      </trkpt>
      <trkpt lat="43.46076" lon="2.35176">
        <ele>632.20001220703</ele>
        <time>2019-06-02T10:14:51Z</time>
      </trkpt>
      <trkpt lat="43.46069" lon="2.35172">
        <ele>632.20001220703</ele>
        <time>2019-06-02T10:14:58Z</time>
      </trkpt>
      <trkpt lat="43.46068" lon="2.35171">
        <ele>632.20001220703</ele>
        <time>2019-06-02T10:14:59Z</time>
      </trkpt>
      <trkpt lat="43.46062" lon="2.35166">
        <ele>632.79998779297</ele>
        <time>2019-06-02T10:15:05Z</time>
      </trkpt>
      <trkpt lat="43.46058" lon="2.35165">
        <ele>633</ele>
        <time>2019-06-02T10:15:07Z</time>
      </trkpt>
      <trkpt lat="43.46055" lon="2.35163">
        <ele>633</ele>
        <time>2019-06-02T10:15:09Z</time>
      </trkpt>
      <trkpt lat="43.46053" lon="2.35159">
        <ele>633.20001220703</ele>
        <time>2019-06-02T10:15:12Z</time>
      </trkpt>
      <trkpt lat="43.4605" lon="2.35157">
        <ele>633.40002441406</ele>
        <time>2019-06-02T10:15:15Z</time>
      </trkpt>
      <trkpt lat="43.46049" lon="2.35152">
        <ele>633.59997558594</ele>
        <time>2019-06-02T10:15:18Z</time>
      </trkpt>
      <trkpt lat="43.46046" lon="2.35149">
        <ele>634</ele>
        <time>2019-06-02T10:15:22Z</time>
      </trkpt>
      <trkpt lat="43.46045" lon="2.35146">
        <ele>634</ele>
        <time>2019-06-02T10:15:25Z</time>
      </trkpt>
      <trkpt lat="43.46046" lon="2.35136">
        <ele>634</ele>
        <time>2019-06-02T10:15:31Z</time>
      </trkpt>
      <trkpt lat="43.4605" lon="2.35128">
        <ele>634.40002441406</ele>
        <time>2019-06-02T10:15:36Z</time>
      </trkpt>
      <trkpt lat="43.46052" lon="2.35124">
        <ele>634.59997558594</ele>
        <time>2019-06-02T10:15:38Z</time>
      </trkpt>
      <trkpt lat="43.46055" lon="2.35115">
        <ele>634.79998779297</ele>
        <time>2019-06-02T10:15:44Z</time>
      </trkpt>
      <trkpt lat="43.46058" lon="2.3511">
        <ele>634.79998779297</ele>
        <time>2019-06-02T10:15:48Z</time>
      </trkpt>
      <trkpt lat="43.4606" lon="2.35107">
        <ele>634.79998779297</ele>
        <time>2019-06-02T10:15:50Z</time>
      </trkpt>
      <trkpt lat="43.46061" lon="2.35103">
        <ele>635</ele>
        <time>2019-06-02T10:15:53Z</time>
      </trkpt>
      <trkpt lat="43.46062" lon="2.35101">
        <ele>635.20001220703</ele>
        <time>2019-06-02T10:15:55Z</time>
      </trkpt>
      <trkpt lat="43.46062" lon="2.351">
        <ele>635.20001220703</ele>
        <time>2019-06-02T10:15:56Z</time>
      </trkpt>
      <trkpt lat="43.46064" lon="2.35095">
        <ele>635.40002441406</ele>
        <time>2019-06-02T10:15:59Z</time>
      </trkpt>
      <trkpt lat="43.46066" lon="2.3509">
        <ele>635.59997558594</ele>
        <time>2019-06-02T10:16:03Z</time>
      </trkpt>
      <trkpt lat="43.46066" lon="2.35089">
        <ele>635.59997558594</ele>
        <time>2019-06-02T10:16:04Z</time>
      </trkpt>
      <trkpt lat="43.46066" lon="2.35081">
        <ele>636.20001220703</ele>
        <time>2019-06-02T10:16:11Z</time>
      </trkpt>
      <trkpt lat="43.46066" lon="2.35079">
        <ele>636.20001220703</ele>
        <time>2019-06-02T10:16:12Z</time>
      </trkpt>
      <trkpt lat="43.46066" lon="2.3507">
        <ele>636.20001220703</ele>
        <time>2019-06-02T10:16:18Z</time>
      </trkpt>
      <trkpt lat="43.46066" lon="2.35068">
        <ele>636.40002441406</ele>
        <time>2019-06-02T10:16:19Z</time>
      </trkpt>
      <trkpt lat="43.46068" lon="2.3506">
        <ele>636.20001220703</ele>
        <time>2019-06-02T10:16:25Z</time>
      </trkpt>
      <trkpt lat="43.46067" lon="2.35053">
        <ele>635.79998779297</ele>
        <time>2019-06-02T10:16:32Z</time>
      </trkpt>
      <trkpt lat="43.46059" lon="2.35042">
        <ele>637.40002441406</ele>
        <time>2019-06-02T10:16:38Z</time>
      </trkpt>
      <trkpt lat="43.46056" lon="2.35036">
        <ele>637.79998779297</ele>
        <time>2019-06-02T10:16:43Z</time>
      </trkpt>
      <trkpt lat="43.46054" lon="2.35032">
        <ele>638.40002441406</ele>
        <time>2019-06-02T10:16:48Z</time>
      </trkpt>
      <trkpt lat="43.46056" lon="2.35029">
        <ele>638.59997558594</ele>
        <time>2019-06-02T10:16:50Z</time>
      </trkpt>
      <trkpt lat="43.46052" lon="2.35024">
        <ele>639</ele>
        <time>2019-06-02T10:16:55Z</time>
      </trkpt>
      <trkpt lat="43.46046" lon="2.35019">
        <ele>638.79998779297</ele>
        <time>2019-06-02T10:17:02Z</time>
      </trkpt>
      <trkpt lat="43.46041" lon="2.35015">
        <ele>638.79998779297</ele>
        <time>2019-06-02T10:17:08Z</time>
      </trkpt>
      <trkpt lat="43.46038" lon="2.35013">
        <ele>639</ele>
        <time>2019-06-02T10:17:12Z</time>
      </trkpt>
      <trkpt lat="43.46035" lon="2.35012">
        <ele>639.20001220703</ele>
        <time>2019-06-02T10:17:14Z</time>
      </trkpt>
      <trkpt lat="43.46033" lon="2.35011">
        <ele>639.40002441406</ele>
        <time>2019-06-02T10:17:16Z</time>
      </trkpt>
      <trkpt lat="43.46026" lon="2.35006">
        <ele>639.59997558594</ele>
        <time>2019-06-02T10:17:21Z</time>
      </trkpt>
      <trkpt lat="43.46021" lon="2.35002">
        <ele>639.79998779297</ele>
        <time>2019-06-02T10:17:27Z</time>
      </trkpt>
      <trkpt lat="43.4602" lon="2.35001">
        <ele>639.79998779297</ele>
        <time>2019-06-02T10:17:28Z</time>
      </trkpt>
      <trkpt lat="43.46013" lon="2.34999">
        <ele>639.59997558594</ele>
        <time>2019-06-02T10:17:33Z</time>
      </trkpt>
      <trkpt lat="43.4601" lon="2.34996">
        <ele>639.59997558594</ele>
        <time>2019-06-02T10:17:38Z</time>
      </trkpt>
      <trkpt lat="43.46007" lon="2.34994">
        <ele>640</ele>
        <time>2019-06-02T10:17:46Z</time>
      </trkpt>
      <trkpt lat="43.46003" lon="2.3499">
        <ele>639.79998779297</ele>
        <time>2019-06-02T10:17:49Z</time>
      </trkpt>
      <trkpt lat="43.46" lon="2.34984">
        <ele>640.20001220703</ele>
        <time>2019-06-02T10:17:52Z</time>
      </trkpt>
      <trkpt lat="43.45999" lon="2.3498">
        <ele>640.40002441406</ele>
        <time>2019-06-02T10:17:54Z</time>
      </trkpt>
      <trkpt lat="43.45997" lon="2.34972">
        <ele>640.40002441406</ele>
        <time>2019-06-02T10:17:59Z</time>
      </trkpt>
      <trkpt lat="43.45995" lon="2.34966">
        <ele>641</ele>
        <time>2019-06-02T10:18:03Z</time>
      </trkpt>
      <trkpt lat="43.45995" lon="2.34964">
        <ele>641.40002441406</ele>
        <time>2019-06-02T10:18:05Z</time>
      </trkpt>
      <trkpt lat="43.45996" lon="2.34962">
        <ele>641.59997558594</ele>
        <time>2019-06-02T10:18:06Z</time>
      </trkpt>
      <trkpt lat="43.45997" lon="2.34961">
        <ele>641.59997558594</ele>
        <time>2019-06-02T10:18:07Z</time>
      </trkpt>
      <trkpt lat="43.46003" lon="2.34953">
        <ele>641.59997558594</ele>
        <time>2019-06-02T10:18:11Z</time>
      </trkpt>
      <trkpt lat="43.46009" lon="2.34946">
        <ele>641.79998779297</ele>
        <time>2019-06-02T10:18:16Z</time>
      </trkpt>
      <trkpt lat="43.46011" lon="2.34944">
        <ele>641.79998779297</ele>
        <time>2019-06-02T10:18:18Z</time>
      </trkpt>
      <trkpt lat="43.46012" lon="2.34942">
        <ele>641.79998779297</ele>
        <time>2019-06-02T10:18:21Z</time>
      </trkpt>
      <trkpt lat="43.46014" lon="2.34941">
        <ele>641.79998779297</ele>
        <time>2019-06-02T10:18:23Z</time>
      </trkpt>
      <trkpt lat="43.46015" lon="2.3494">
        <ele>642</ele>
        <time>2019-06-02T10:18:24Z</time>
      </trkpt>
      <trkpt lat="43.46017" lon="2.34938">
        <ele>642.40002441406</ele>
        <time>2019-06-02T10:18:26Z</time>
      </trkpt>
      <trkpt lat="43.46019" lon="2.34935">
        <ele>642.59997558594</ele>
        <time>2019-06-02T10:18:32Z</time>
      </trkpt>
      <trkpt lat="43.46021" lon="2.34935">
        <ele>642.59997558594</ele>
        <time>2019-06-02T10:18:34Z</time>
      </trkpt>
      <trkpt lat="43.46026" lon="2.34934">
        <ele>643</ele>
        <time>2019-06-02T10:18:40Z</time>
      </trkpt>
      <trkpt lat="43.46028" lon="2.3493">
        <ele>643.20001220703</ele>
        <time>2019-06-02T10:18:43Z</time>
      </trkpt>
      <trkpt lat="43.46034" lon="2.34926">
        <ele>643.40002441406</ele>
        <time>2019-06-02T10:18:46Z</time>
      </trkpt>
      <trkpt lat="43.46041" lon="2.34918">
        <ele>643.59997558594</ele>
        <time>2019-06-02T10:18:52Z</time>
      </trkpt>
      <trkpt lat="43.46041" lon="2.34916">
        <ele>643.59997558594</ele>
        <time>2019-06-02T10:18:54Z</time>
      </trkpt>
      <trkpt lat="43.46041" lon="2.34911">
        <ele>644.20001220703</ele>
        <time>2019-06-02T10:18:58Z</time>
      </trkpt>
      <trkpt lat="43.46043" lon="2.34903">
        <ele>644</ele>
        <time>2019-06-02T10:19:06Z</time>
      </trkpt>
      <trkpt lat="43.4604" lon="2.34899">
        <ele>644</ele>
        <time>2019-06-02T10:19:12Z</time>
      </trkpt>
      <trkpt lat="43.4604" lon="2.34892">
        <ele>644.20001220703</ele>
        <time>2019-06-02T10:19:18Z</time>
      </trkpt>
      <trkpt lat="43.46039" lon="2.3489">
        <ele>644.20001220703</ele>
        <time>2019-06-02T10:19:19Z</time>
      </trkpt>
      <trkpt lat="43.46038" lon="2.34885">
        <ele>644.79998779297</ele>
        <time>2019-06-02T10:19:22Z</time>
      </trkpt>
      <trkpt lat="43.46039" lon="2.34883">
        <ele>644.79998779297</ele>
        <time>2019-06-02T10:19:23Z</time>
      </trkpt>
      <trkpt lat="43.46039" lon="2.34882">
        <ele>644.79998779297</ele>
        <time>2019-06-02T10:19:24Z</time>
      </trkpt>
      <trkpt lat="43.46038" lon="2.34872">
        <ele>645</ele>
        <time>2019-06-02T10:19:32Z</time>
      </trkpt>
      <trkpt lat="43.46041" lon="2.3486">
        <ele>645.79998779297</ele>
        <time>2019-06-02T10:19:39Z</time>
      </trkpt>
      <trkpt lat="43.46041" lon="2.34859">
        <ele>645.79998779297</ele>
        <time>2019-06-02T10:19:40Z</time>
      </trkpt>
      <trkpt lat="43.46038" lon="2.34842">
        <ele>645.79998779297</ele>
        <time>2019-06-02T10:19:47Z</time>
      </trkpt>
      <trkpt lat="43.46035" lon="2.34831">
        <ele>646.40002441406</ele>
        <time>2019-06-02T10:19:52Z</time>
      </trkpt>
      <trkpt lat="43.46034" lon="2.34826">
        <ele>646.59997558594</ele>
        <time>2019-06-02T10:19:55Z</time>
      </trkpt>
      <trkpt lat="43.46027" lon="2.34822">
        <ele>646.79998779297</ele>
        <time>2019-06-02T10:19:59Z</time>
      </trkpt>
      <trkpt lat="43.46026" lon="2.34821">
        <ele>646.79998779297</ele>
        <time>2019-06-02T10:20:00Z</time>
      </trkpt>
      <trkpt lat="43.46025" lon="2.34817">
        <ele>646.79998779297</ele>
        <time>2019-06-02T10:20:02Z</time>
      </trkpt>
      <trkpt lat="43.46025" lon="2.34814">
        <ele>647</ele>
        <time>2019-06-02T10:20:09Z</time>
      </trkpt>
      <trkpt lat="43.46024" lon="2.34807">
        <ele>647.20001220703</ele>
        <time>2019-06-02T10:20:15Z</time>
      </trkpt>
      <trkpt lat="43.46022" lon="2.34804">
        <ele>647.79998779297</ele>
        <time>2019-06-02T10:20:18Z</time>
      </trkpt>
      <trkpt lat="43.46021" lon="2.34803">
        <ele>647.79998779297</ele>
        <time>2019-06-02T10:20:19Z</time>
      </trkpt>
      <trkpt lat="43.46021" lon="2.348">
        <ele>648</ele>
        <time>2019-06-02T10:20:22Z</time>
      </trkpt>
      <trkpt lat="43.4602" lon="2.34793">
        <ele>648.20001220703</ele>
        <time>2019-06-02T10:20:29Z</time>
      </trkpt>
      <trkpt lat="43.46017" lon="2.34788">
        <ele>648.40002441406</ele>
        <time>2019-06-02T10:20:33Z</time>
      </trkpt>
      <trkpt lat="43.46017" lon="2.34785">
        <ele>648.40002441406</ele>
        <time>2019-06-02T10:20:35Z</time>
      </trkpt>
      <trkpt lat="43.46016" lon="2.34778">
        <ele>648.59997558594</ele>
        <time>2019-06-02T10:20:41Z</time>
      </trkpt>
      <trkpt lat="43.46015" lon="2.34775">
        <ele>648.59997558594</ele>
        <time>2019-06-02T10:20:44Z</time>
      </trkpt>
      <trkpt lat="43.46013" lon="2.3477">
        <ele>648.59997558594</ele>
        <time>2019-06-02T10:20:47Z</time>
      </trkpt>
      <trkpt lat="43.46013" lon="2.34767">
        <ele>648.59997558594</ele>
        <time>2019-06-02T10:20:49Z</time>
      </trkpt>
      <trkpt lat="43.46014" lon="2.3476">
        <ele>648.79998779297</ele>
        <time>2019-06-02T10:20:53Z</time>
      </trkpt>
      <trkpt lat="43.46017" lon="2.34751">
        <ele>648.79998779297</ele>
        <time>2019-06-02T10:21:00Z</time>
      </trkpt>
      <trkpt lat="43.46018" lon="2.34749">
        <ele>648.59997558594</ele>
        <time>2019-06-02T10:21:01Z</time>
      </trkpt>
      <trkpt lat="43.46021" lon="2.34742">
        <ele>648.40002441406</ele>
        <time>2019-06-02T10:21:09Z</time>
      </trkpt>
      <trkpt lat="43.46021" lon="2.34743">
        <ele>648.40002441406</ele>
        <time>2019-06-02T10:21:15Z</time>
      </trkpt>
      <trkpt lat="43.46022" lon="2.34744">
        <ele>648.40002441406</ele>
        <time>2019-06-02T10:21:16Z</time>
      </trkpt>
      <trkpt lat="43.46021" lon="2.34743">
        <ele>648.20001220703</ele>
        <time>2019-06-02T10:21:21Z</time>
      </trkpt>
      <trkpt lat="43.46021" lon="2.34743">
        <ele>648</ele>
        <time>2019-06-02T10:21:23Z</time>
      </trkpt>
      <trkpt lat="43.46021" lon="2.34743">
        <ele>648</ele>
        <time>2019-06-02T10:21:24Z</time>
      </trkpt>
      <trkpt lat="43.46021" lon="2.34743">
        <ele>648</ele>
        <time>2019-06-02T10:21:30Z</time>
      </trkpt>
      <trkpt lat="43.46021" lon="2.34743">
        <ele>648.20001220703</ele>
        <time>2019-06-02T10:21:35Z</time>
      </trkpt>
      <trkpt lat="43.46021" lon="2.34743">
        <ele>648.20001220703</ele>
        <time>2019-06-02T10:21:40Z</time>
      </trkpt>
      <trkpt lat="43.46022" lon="2.34743">
        <ele>648.20001220703</ele>
        <time>2019-06-02T10:21:45Z</time>
      </trkpt>
      <trkpt lat="43.46024" lon="2.34743">
        <ele>648.20001220703</ele>
        <time>2019-06-02T10:21:48Z</time>
      </trkpt>
      <trkpt lat="43.46024" lon="2.34743">
        <ele>648.20001220703</ele>
        <time>2019-06-02T10:21:53Z</time>
      </trkpt>
      <trkpt lat="43.46024" lon="2.34743">
        <ele>648.20001220703</ele>
        <time>2019-06-02T10:21:55Z</time>
      </trkpt>
      <trkpt lat="43.46025" lon="2.34743">
        <ele>648.20001220703</ele>
        <time>2019-06-02T10:21:57Z</time>
      </trkpt>
      <trkpt lat="43.46025" lon="2.34743">
        <ele>648.20001220703</ele>
        <time>2019-06-02T10:22:02Z</time>
      </trkpt>
      <trkpt lat="43.46025" lon="2.34743">
        <ele>647.79998779297</ele>
        <time>2019-06-02T10:22:06Z</time>
      </trkpt>
      <trkpt lat="43.46025" lon="2.34743">
        <ele>647.59997558594</ele>
        <time>2019-06-02T10:22:09Z</time>
      </trkpt>
      <trkpt lat="43.46025" lon="2.34743">
        <ele>647.59997558594</ele>
        <time>2019-06-02T10:22:10Z</time>
      </trkpt>
      <trkpt lat="43.46025" lon="2.34743">
        <ele>648</ele>
        <time>2019-06-02T10:22:12Z</time>
      </trkpt>
      <trkpt lat="43.46025" lon="2.34743">
        <ele>648</ele>
        <time>2019-06-02T10:22:13Z</time>
      </trkpt>
      <trkpt lat="43.46025" lon="2.34743">
        <ele>648</ele>
        <time>2019-06-02T10:22:14Z</time>
      </trkpt>
      <trkpt lat="43.46025" lon="2.34743">
        <ele>648</ele>
        <time>2019-06-02T10:22:15Z</time>
      </trkpt>
      <trkpt lat="43.46025" lon="2.34741">
        <ele>648</ele>
        <time>2019-06-02T10:22:20Z</time>
      </trkpt>
      <trkpt lat="43.46026" lon="2.34739">
        <ele>648</ele>
        <time>2019-06-02T10:22:21Z</time>
      </trkpt>
      <trkpt lat="43.46031" lon="2.34731">
        <ele>648.20001220703</ele>
        <time>2019-06-02T10:22:26Z</time>
      </trkpt>
      <trkpt lat="43.46034" lon="2.34727">
        <ele>648.20001220703</ele>
        <time>2019-06-02T10:22:29Z</time>
      </trkpt>
      <trkpt lat="43.46038" lon="2.34722">
        <ele>648</ele>
        <time>2019-06-02T10:22:33Z</time>
      </trkpt>
      <trkpt lat="43.46039" lon="2.34721">
        <ele>648.20001220703</ele>
        <time>2019-06-02T10:22:34Z</time>
      </trkpt>
      <trkpt lat="43.46042" lon="2.34719">
        <ele>648.20001220703</ele>
        <time>2019-06-02T10:22:36Z</time>
      </trkpt>
      <trkpt lat="43.46045" lon="2.34718">
        <ele>648</ele>
        <time>2019-06-02T10:22:38Z</time>
      </trkpt>
      <trkpt lat="43.46047" lon="2.34717">
        <ele>647.59997558594</ele>
        <time>2019-06-02T10:22:40Z</time>
      </trkpt>
      <trkpt lat="43.46048" lon="2.34715">
        <ele>647.59997558594</ele>
        <time>2019-06-02T10:22:42Z</time>
      </trkpt>
      <trkpt lat="43.46053" lon="2.34714">
        <ele>647.59997558594</ele>
        <time>2019-06-02T10:22:47Z</time>
      </trkpt>
      <trkpt lat="43.46056" lon="2.34715">
        <ele>647.20001220703</ele>
        <time>2019-06-02T10:22:50Z</time>
      </trkpt>
      <trkpt lat="43.46058" lon="2.34715">
        <ele>646.79998779297</ele>
        <time>2019-06-02T10:22:52Z</time>
      </trkpt>
      <trkpt lat="43.46062" lon="2.34717">
        <ele>647</ele>
        <time>2019-06-02T10:22:56Z</time>
      </trkpt>
      <trkpt lat="43.46063" lon="2.34717">
        <ele>647.40002441406</ele>
        <time>2019-06-02T10:22:57Z</time>
      </trkpt>
      <trkpt lat="43.46064" lon="2.34717">
        <ele>648.40002441406</ele>
        <time>2019-06-02T10:22:59Z</time>
      </trkpt>
      <trkpt lat="43.46066" lon="2.34719">
        <ele>648.79998779297</ele>
        <time>2019-06-02T10:23:02Z</time>
      </trkpt>
      <trkpt lat="43.46069" lon="2.34721">
        <ele>648.20001220703</ele>
        <time>2019-06-02T10:23:06Z</time>
      </trkpt>
      <trkpt lat="43.46069" lon="2.34724">
        <ele>649</ele>
        <time>2019-06-02T10:23:10Z</time>
      </trkpt>
      <trkpt lat="43.46069" lon="2.34724">
        <ele>649</ele>
        <time>2019-06-02T10:23:11Z</time>
      </trkpt>
      <trkpt lat="43.46077" lon="2.34729">
        <ele>650</ele>
        <time>2019-06-02T10:23:17Z</time>
      </trkpt>
      <trkpt lat="43.46079" lon="2.3473">
        <ele>650.20001220703</ele>
        <time>2019-06-02T10:23:18Z</time>
      </trkpt>
      <trkpt lat="43.46086" lon="2.34733">
        <ele>650.40002441406</ele>
        <time>2019-06-02T10:23:21Z</time>
      </trkpt>
      <trkpt lat="43.4609" lon="2.34735">
        <ele>650.40002441406</ele>
        <time>2019-06-02T10:23:23Z</time>
      </trkpt>
      <trkpt lat="43.46096" lon="2.34735">
        <ele>650.59997558594</ele>
        <time>2019-06-02T10:23:26Z</time>
      </trkpt>
      <trkpt lat="43.46099" lon="2.34734">
        <ele>650.79998779297</ele>
        <time>2019-06-02T10:23:28Z</time>
      </trkpt>
      <trkpt lat="43.46103" lon="2.34734">
        <ele>650.79998779297</ele>
        <time>2019-06-02T10:23:31Z</time>
      </trkpt>
      <trkpt lat="43.46104" lon="2.34735">
        <ele>651.20001220703</ele>
        <time>2019-06-02T10:23:33Z</time>
      </trkpt>
      <trkpt lat="43.46106" lon="2.34737">
        <ele>651.59997558594</ele>
        <time>2019-06-02T10:23:37Z</time>
      </trkpt>
      <trkpt lat="43.46107" lon="2.34737">
        <ele>651.79998779297</ele>
        <time>2019-06-02T10:23:38Z</time>
      </trkpt>
      <trkpt lat="43.4611" lon="2.34736">
        <ele>651.79998779297</ele>
        <time>2019-06-02T10:23:40Z</time>
      </trkpt>
      <trkpt lat="43.46113" lon="2.34739">
        <ele>651.79998779297</ele>
        <time>2019-06-02T10:23:42Z</time>
      </trkpt>
      <trkpt lat="43.46114" lon="2.34743">
        <ele>651.79998779297</ele>
        <time>2019-06-02T10:23:44Z</time>
      </trkpt>
      <trkpt lat="43.46115" lon="2.34744">
        <ele>651.79998779297</ele>
        <time>2019-06-02T10:23:45Z</time>
      </trkpt>
      <trkpt lat="43.46115" lon="2.3475">
        <ele>652.20001220703</ele>
        <time>2019-06-02T10:23:51Z</time>
      </trkpt>
      <trkpt lat="43.46115" lon="2.34752">
        <ele>652.20001220703</ele>
        <time>2019-06-02T10:23:52Z</time>
      </trkpt>
      <trkpt lat="43.46119" lon="2.34757">
        <ele>653</ele>
        <time>2019-06-02T10:23:57Z</time>
      </trkpt>
      <trkpt lat="43.46121" lon="2.34757">
        <ele>653.20001220703</ele>
        <time>2019-06-02T10:23:58Z</time>
      </trkpt>
      <trkpt lat="43.46121" lon="2.34757">
        <ele>653.20001220703</ele>
        <time>2019-06-02T10:23:59Z</time>
      </trkpt>
      <trkpt lat="43.46121" lon="2.34759">
        <ele>653.40002441406</ele>
        <time>2019-06-02T10:24:02Z</time>
      </trkpt>
      <trkpt lat="43.46123" lon="2.34764">
        <ele>653.40002441406</ele>
        <time>2019-06-02T10:24:04Z</time>
      </trkpt>
      <trkpt lat="43.46128" lon="2.3477">
        <ele>653.79998779297</ele>
        <time>2019-06-02T10:24:09Z</time>
      </trkpt>
      <trkpt lat="43.46129" lon="2.34771">
        <ele>653.79998779297</ele>
        <time>2019-06-02T10:24:10Z</time>
      </trkpt>
      <trkpt lat="43.46133" lon="2.34782">
        <ele>654.20001220703</ele>
        <time>2019-06-02T10:24:15Z</time>
      </trkpt>
      <trkpt lat="43.46133" lon="2.34784">
        <ele>654.40002441406</ele>
        <time>2019-06-02T10:24:16Z</time>
      </trkpt>
      <trkpt lat="43.46135" lon="2.34787">
        <ele>654.40002441406</ele>
        <time>2019-06-02T10:24:17Z</time>
      </trkpt>
      <trkpt lat="43.46136" lon="2.3479">
        <ele>654.59997558594</ele>
        <time>2019-06-02T10:24:18Z</time>
      </trkpt>
      <trkpt lat="43.46139" lon="2.34805">
        <ele>654.59997558594</ele>
        <time>2019-06-02T10:24:26Z</time>
      </trkpt>
      <trkpt lat="43.46138" lon="2.34812">
        <ele>655.40002441406</ele>
        <time>2019-06-02T10:24:32Z</time>
      </trkpt>
      <trkpt lat="43.46139" lon="2.34815">
        <ele>655.79998779297</ele>
        <time>2019-06-02T10:24:34Z</time>
      </trkpt>
      <trkpt lat="43.46143" lon="2.34822">
        <ele>656.20001220703</ele>
        <time>2019-06-02T10:24:40Z</time>
      </trkpt>
      <trkpt lat="43.46143" lon="2.34824">
        <ele>656.20001220703</ele>
        <time>2019-06-02T10:24:41Z</time>
      </trkpt>
      <trkpt lat="43.46143" lon="2.3483">
        <ele>656.40002441406</ele>
        <time>2019-06-02T10:24:45Z</time>
      </trkpt>
      <trkpt lat="43.46144" lon="2.34831">
        <ele>657</ele>
        <time>2019-06-02T10:24:47Z</time>
      </trkpt>
      <trkpt lat="43.46144" lon="2.34832">
        <ele>657</ele>
        <time>2019-06-02T10:24:48Z</time>
      </trkpt>
      <trkpt lat="43.46149" lon="2.34837">
        <ele>657.59997558594</ele>
        <time>2019-06-02T10:24:53Z</time>
      </trkpt>
      <trkpt lat="43.46152" lon="2.34837">
        <ele>657.59997558594</ele>
        <time>2019-06-02T10:24:55Z</time>
      </trkpt>
      <trkpt lat="43.46154" lon="2.34838">
        <ele>657.79998779297</ele>
        <time>2019-06-02T10:24:57Z</time>
      </trkpt>
      <trkpt lat="43.46156" lon="2.3484">
        <ele>657.79998779297</ele>
        <time>2019-06-02T10:25:01Z</time>
      </trkpt>
      <trkpt lat="43.46157" lon="2.34839">
        <ele>657.79998779297</ele>
        <time>2019-06-02T10:25:06Z</time>
      </trkpt>
      <trkpt lat="43.46158" lon="2.34838">
        <ele>658.20001220703</ele>
        <time>2019-06-02T10:25:12Z</time>
      </trkpt>
      <trkpt lat="43.4616" lon="2.34838">
        <ele>658.59997558594</ele>
        <time>2019-06-02T10:25:14Z</time>
      </trkpt>
      <trkpt lat="43.46169" lon="2.34844">
        <ele>659.20001220703</ele>
        <time>2019-06-02T10:25:19Z</time>
      </trkpt>
      <trkpt lat="43.46181" lon="2.34843">
        <ele>659.59997558594</ele>
        <time>2019-06-02T10:25:24Z</time>
      </trkpt>
      <trkpt lat="43.46186" lon="2.34841">
        <ele>660</ele>
        <time>2019-06-02T10:25:26Z</time>
      </trkpt>
      <trkpt lat="43.46193" lon="2.34835">
        <ele>660</ele>
        <time>2019-06-02T10:25:32Z</time>
      </trkpt>
      <trkpt lat="43.46194" lon="2.34832">
        <ele>660.40002441406</ele>
        <time>2019-06-02T10:25:35Z</time>
      </trkpt>
      <trkpt lat="43.46195" lon="2.3483">
        <ele>660.79998779297</ele>
        <time>2019-06-02T10:25:37Z</time>
      </trkpt>
      <trkpt lat="43.46195" lon="2.34827">
        <ele>661</ele>
        <time>2019-06-02T10:25:39Z</time>
      </trkpt>
      <trkpt lat="43.46199" lon="2.34816">
        <ele>661.20001220703</ele>
        <time>2019-06-02T10:25:47Z</time>
      </trkpt>
      <trkpt lat="43.46204" lon="2.34806">
        <ele>661.79998779297</ele>
        <time>2019-06-02T10:25:54Z</time>
      </trkpt>
      <trkpt lat="43.46204" lon="2.34804">
        <ele>662</ele>
        <time>2019-06-02T10:25:55Z</time>
      </trkpt>
      <trkpt lat="43.46207" lon="2.34796">
        <ele>662.20001220703</ele>
        <time>2019-06-02T10:26:00Z</time>
      </trkpt>
      <trkpt lat="43.4621" lon="2.34789">
        <ele>662.79998779297</ele>
        <time>2019-06-02T10:26:06Z</time>
      </trkpt>
      <trkpt lat="43.46211" lon="2.34787">
        <ele>663.20001220703</ele>
        <time>2019-06-02T10:26:08Z</time>
      </trkpt>
      <trkpt lat="43.46212" lon="2.34782">
        <ele>663.40002441406</ele>
        <time>2019-06-02T10:26:13Z</time>
      </trkpt>
      <trkpt lat="43.46214" lon="2.34777">
        <ele>663.59997558594</ele>
        <time>2019-06-02T10:26:17Z</time>
      </trkpt>
      <trkpt lat="43.46214" lon="2.34775">
        <ele>663.79998779297</ele>
        <time>2019-06-02T10:26:19Z</time>
      </trkpt>
      <trkpt lat="43.46214" lon="2.34773">
        <ele>664</ele>
        <time>2019-06-02T10:26:20Z</time>
      </trkpt>
      <trkpt lat="43.46216" lon="2.34762">
        <ele>664.40002441406</ele>
        <time>2019-06-02T10:26:26Z</time>
      </trkpt>
      <trkpt lat="43.46218" lon="2.34758">
        <ele>664.79998779297</ele>
        <time>2019-06-02T10:26:30Z</time>
      </trkpt>
      <trkpt lat="43.4622" lon="2.34754">
        <ele>664.59997558594</ele>
        <time>2019-06-02T10:26:33Z</time>
      </trkpt>
      <trkpt lat="43.46222" lon="2.3475">
        <ele>665</ele>
        <time>2019-06-02T10:26:36Z</time>
      </trkpt>
      <trkpt lat="43.46223" lon="2.34744">
        <ele>665.79998779297</ele>
        <time>2019-06-02T10:26:40Z</time>
      </trkpt>
      <trkpt lat="43.46224" lon="2.34735">
        <ele>666</ele>
        <time>2019-06-02T10:26:46Z</time>
      </trkpt>
      <trkpt lat="43.46227" lon="2.34722">
        <ele>666.59997558594</ele>
        <time>2019-06-02T10:26:54Z</time>
      </trkpt>
      <trkpt lat="43.46231" lon="2.34708">
        <ele>666.20001220703</ele>
        <time>2019-06-02T10:27:02Z</time>
      </trkpt>
      <trkpt lat="43.46231" lon="2.34706">
        <ele>666.20001220703</ele>
        <time>2019-06-02T10:27:03Z</time>
      </trkpt>
      <trkpt lat="43.46232" lon="2.34702">
        <ele>666.40002441406</ele>
        <time>2019-06-02T10:27:05Z</time>
      </trkpt>
      <trkpt lat="43.46232" lon="2.34701">
        <ele>666.59997558594</ele>
        <time>2019-06-02T10:27:06Z</time>
      </trkpt>
      <trkpt lat="43.46234" lon="2.34699">
        <ele>667.20001220703</ele>
        <time>2019-06-02T10:27:08Z</time>
      </trkpt>
      <trkpt lat="43.46237" lon="2.34694">
        <ele>668</ele>
        <time>2019-06-02T10:27:13Z</time>
      </trkpt>
      <trkpt lat="43.46237" lon="2.3469">
        <ele>668.20001220703</ele>
        <time>2019-06-02T10:27:16Z</time>
      </trkpt>
      <trkpt lat="43.4624" lon="2.34684">
        <ele>668.20001220703</ele>
        <time>2019-06-02T10:27:21Z</time>
      </trkpt>
      <trkpt lat="43.46241" lon="2.34682">
        <ele>668.40002441406</ele>
        <time>2019-06-02T10:27:22Z</time>
      </trkpt>
      <trkpt lat="43.46243" lon="2.34676">
        <ele>668.79998779297</ele>
        <time>2019-06-02T10:27:28Z</time>
      </trkpt>
      <trkpt lat="43.46244" lon="2.34674">
        <ele>669</ele>
        <time>2019-06-02T10:27:30Z</time>
      </trkpt>
      <trkpt lat="43.46246" lon="2.34668">
        <ele>669</ele>
        <time>2019-06-02T10:27:35Z</time>
      </trkpt>
      <trkpt lat="43.46246" lon="2.34666">
        <ele>669</ele>
        <time>2019-06-02T10:27:36Z</time>
      </trkpt>
      <trkpt lat="43.46247" lon="2.34658">
        <ele>669.40002441406</ele>
        <time>2019-06-02T10:27:41Z</time>
      </trkpt>
      <trkpt lat="43.46249" lon="2.34652">
        <ele>669.79998779297</ele>
        <time>2019-06-02T10:27:44Z</time>
      </trkpt>
      <trkpt lat="43.46254" lon="2.34639">
        <ele>670.20001220703</ele>
        <time>2019-06-02T10:27:52Z</time>
      </trkpt>
      <trkpt lat="43.46256" lon="2.34634">
        <ele>670.40002441406</ele>
        <time>2019-06-02T10:27:55Z</time>
      </trkpt>
      <trkpt lat="43.46256" lon="2.34627">
        <ele>670.59997558594</ele>
        <time>2019-06-02T10:28:00Z</time>
      </trkpt>
      <trkpt lat="43.4626" lon="2.34621">
        <ele>670.79998779297</ele>
        <time>2019-06-02T10:28:06Z</time>
      </trkpt>
      <trkpt lat="43.4626" lon="2.34616">
        <ele>671.40002441406</ele>
        <time>2019-06-02T10:28:11Z</time>
      </trkpt>
      <trkpt lat="43.4626" lon="2.34615">
        <ele>671.40002441406</ele>
        <time>2019-06-02T10:28:12Z</time>
      </trkpt>
      <trkpt lat="43.46259" lon="2.34614">
        <ele>671.40002441406</ele>
        <time>2019-06-02T10:28:13Z</time>
      </trkpt>
      <trkpt lat="43.46257" lon="2.34612">
        <ele>671.59997558594</ele>
        <time>2019-06-02T10:28:15Z</time>
      </trkpt>
      <trkpt lat="43.46254" lon="2.34609">
        <ele>671.59997558594</ele>
        <time>2019-06-02T10:28:18Z</time>
      </trkpt>
      <trkpt lat="43.46246" lon="2.34605">
        <ele>671.59997558594</ele>
        <time>2019-06-02T10:28:25Z</time>
      </trkpt>
      <trkpt lat="43.46241" lon="2.346">
        <ele>671.40002441406</ele>
        <time>2019-06-02T10:28:32Z</time>
      </trkpt>
      <trkpt lat="43.46234" lon="2.34596">
        <ele>671</ele>
        <time>2019-06-02T10:28:38Z</time>
      </trkpt>
      <trkpt lat="43.46231" lon="2.34594">
        <ele>671.20001220703</ele>
        <time>2019-06-02T10:28:42Z</time>
      </trkpt>
      <trkpt lat="43.46229" lon="2.34594">
        <ele>671.40002441406</ele>
        <time>2019-06-02T10:28:43Z</time>
      </trkpt>
      <trkpt lat="43.46227" lon="2.34594">
        <ele>671.20001220703</ele>
        <time>2019-06-02T10:28:44Z</time>
      </trkpt>
      <trkpt lat="43.46225" lon="2.34592">
        <ele>671</ele>
        <time>2019-06-02T10:28:46Z</time>
      </trkpt>
      <trkpt lat="43.4622" lon="2.34589">
        <ele>670.79998779297</ele>
        <time>2019-06-02T10:28:50Z</time>
      </trkpt>
      <trkpt lat="43.46215" lon="2.34587">
        <ele>670.40002441406</ele>
        <time>2019-06-02T10:28:54Z</time>
      </trkpt>
      <trkpt lat="43.4621" lon="2.34586">
        <ele>669.79998779297</ele>
        <time>2019-06-02T10:28:58Z</time>
      </trkpt>
      <trkpt lat="43.46202" lon="2.34578">
        <ele>670</ele>
        <time>2019-06-02T10:29:06Z</time>
      </trkpt>
      <trkpt lat="43.46199" lon="2.34576">
        <ele>669.79998779297</ele>
        <time>2019-06-02T10:29:09Z</time>
      </trkpt>
      <trkpt lat="43.46197" lon="2.34574">
        <ele>669.79998779297</ele>
        <time>2019-06-02T10:29:12Z</time>
      </trkpt>
      <trkpt lat="43.4619" lon="2.34568">
        <ele>669.59997558594</ele>
        <time>2019-06-02T10:29:19Z</time>
      </trkpt>
      <trkpt lat="43.4619" lon="2.34568">
        <ele>669.40002441406</ele>
        <time>2019-06-02T10:29:20Z</time>
      </trkpt>
      <trkpt lat="43.46189" lon="2.34567">
        <ele>669.59997558594</ele>
        <time>2019-06-02T10:29:21Z</time>
      </trkpt>
      <trkpt lat="43.46182" lon="2.34563">
        <ele>669.79998779297</ele>
        <time>2019-06-02T10:29:27Z</time>
      </trkpt>
      <trkpt lat="43.46173" lon="2.34559">
        <ele>670</ele>
        <time>2019-06-02T10:29:36Z</time>
      </trkpt>
      <trkpt lat="43.46171" lon="2.34557">
        <ele>670</ele>
        <time>2019-06-02T10:29:38Z</time>
      </trkpt>
      <trkpt lat="43.46163" lon="2.34554">
        <ele>669.59997558594</ele>
        <time>2019-06-02T10:29:46Z</time>
      </trkpt>
      <trkpt lat="43.4616" lon="2.3455">
        <ele>669.40002441406</ele>
        <time>2019-06-02T10:29:50Z</time>
      </trkpt>
      <trkpt lat="43.46158" lon="2.34549">
        <ele>669.59997558594</ele>
        <time>2019-06-02T10:29:52Z</time>
      </trkpt>
      <trkpt lat="43.46149" lon="2.34546">
        <ele>669.40002441406</ele>
        <time>2019-06-02T10:29:58Z</time>
      </trkpt>
      <trkpt lat="43.46148" lon="2.34546">
        <ele>669.40002441406</ele>
        <time>2019-06-02T10:29:59Z</time>
      </trkpt>
      <trkpt lat="43.46142" lon="2.34542">
        <ele>669.59997558594</ele>
        <time>2019-06-02T10:30:05Z</time>
      </trkpt>
      <trkpt lat="43.46136" lon="2.34537">
        <ele>669.40002441406</ele>
        <time>2019-06-02T10:30:13Z</time>
      </trkpt>
      <trkpt lat="43.4613" lon="2.34534">
        <ele>669.40002441406</ele>
        <time>2019-06-02T10:30:20Z</time>
      </trkpt>
      <trkpt lat="43.46124" lon="2.34531">
        <ele>669.40002441406</ele>
        <time>2019-06-02T10:30:27Z</time>
      </trkpt>
      <trkpt lat="43.46121" lon="2.3453">
        <ele>669.40002441406</ele>
        <time>2019-06-02T10:30:30Z</time>
      </trkpt>
      <trkpt lat="43.46117" lon="2.34528">
        <ele>669.20001220703</ele>
        <time>2019-06-02T10:30:34Z</time>
      </trkpt>
      <trkpt lat="43.4611" lon="2.34524">
        <ele>669.20001220703</ele>
        <time>2019-06-02T10:30:40Z</time>
      </trkpt>
      <trkpt lat="43.46109" lon="2.34523">
        <ele>669.20001220703</ele>
        <time>2019-06-02T10:30:41Z</time>
      </trkpt>
      <trkpt lat="43.46104" lon="2.3452">
        <ele>669.40002441406</ele>
        <time>2019-06-02T10:30:46Z</time>
      </trkpt>
      <trkpt lat="43.46099" lon="2.34516">
        <ele>669.20001220703</ele>
        <time>2019-06-02T10:30:53Z</time>
      </trkpt>
      <trkpt lat="43.46096" lon="2.34512">
        <ele>669.20001220703</ele>
        <time>2019-06-02T10:30:58Z</time>
      </trkpt>
      <trkpt lat="43.46092" lon="2.3451">
        <ele>669.20001220703</ele>
        <time>2019-06-02T10:31:01Z</time>
      </trkpt>
      <trkpt lat="43.46081" lon="2.34506">
        <ele>669</ele>
        <time>2019-06-02T10:31:08Z</time>
      </trkpt>
      <trkpt lat="43.46076" lon="2.34503">
        <ele>669.59997558594</ele>
        <time>2019-06-02T10:31:13Z</time>
      </trkpt>
      <trkpt lat="43.46075" lon="2.34503">
        <ele>669.59997558594</ele>
        <time>2019-06-02T10:31:14Z</time>
      </trkpt>
      <trkpt lat="43.46068" lon="2.345">
        <ele>669</ele>
        <time>2019-06-02T10:31:19Z</time>
      </trkpt>
      <trkpt lat="43.46064" lon="2.345">
        <ele>669</ele>
        <time>2019-06-02T10:31:21Z</time>
      </trkpt>
      <trkpt lat="43.46056" lon="2.34499">
        <ele>668.59997558594</ele>
        <time>2019-06-02T10:31:27Z</time>
      </trkpt>
      <trkpt lat="43.4605" lon="2.34497">
        <ele>669</ele>
        <time>2019-06-02T10:31:33Z</time>
      </trkpt>
      <trkpt lat="43.4605" lon="2.34497">
        <ele>669</ele>
        <time>2019-06-02T10:31:34Z</time>
      </trkpt>
      <trkpt lat="43.4605" lon="2.34496">
        <ele>667.20001220703</ele>
        <time>2019-06-02T10:31:35Z</time>
      </trkpt>
      <trkpt lat="43.4605" lon="2.34495">
        <ele>668.59997558594</ele>
        <time>2019-06-02T10:31:37Z</time>
      </trkpt>
      <trkpt lat="43.46047" lon="2.34493">
        <ele>669</ele>
        <time>2019-06-02T10:31:40Z</time>
      </trkpt>
      <trkpt lat="43.46041" lon="2.3449">
        <ele>669</ele>
        <time>2019-06-02T10:31:47Z</time>
      </trkpt>
      <trkpt lat="43.46037" lon="2.34488">
        <ele>669</ele>
        <time>2019-06-02T10:31:50Z</time>
      </trkpt>
      <trkpt lat="43.46036" lon="2.34485">
        <ele>669</ele>
        <time>2019-06-02T10:31:53Z</time>
      </trkpt>
      <trkpt lat="43.46036" lon="2.34485">
        <ele>669</ele>
        <time>2019-06-02T10:31:54Z</time>
      </trkpt>
      <trkpt lat="43.46038" lon="2.34484">
        <ele>669</ele>
        <time>2019-06-02T10:32:00Z</time>
      </trkpt>
      <trkpt lat="43.46039" lon="2.34484">
        <ele>669</ele>
        <time>2019-06-02T10:32:06Z</time>
      </trkpt>
      <trkpt lat="43.46039" lon="2.34484">
        <ele>669</ele>
        <time>2019-06-02T10:32:07Z</time>
      </trkpt>
      <trkpt lat="43.46039" lon="2.34483">
        <ele>669</ele>
        <time>2019-06-02T10:32:12Z</time>
      </trkpt>
      <trkpt lat="43.4604" lon="2.34483">
        <ele>669</ele>
        <time>2019-06-02T10:32:14Z</time>
      </trkpt>
      <trkpt lat="43.46039" lon="2.34481">
        <ele>669</ele>
        <time>2019-06-02T10:32:21Z</time>
      </trkpt>
      <trkpt lat="43.46038" lon="2.3448">
        <ele>669</ele>
        <time>2019-06-02T10:32:26Z</time>
      </trkpt>
      <trkpt lat="43.46038" lon="2.3448">
        <ele>669</ele>
        <time>2019-06-02T10:32:28Z</time>
      </trkpt>
      <trkpt lat="43.46037" lon="2.34479">
        <ele>669</ele>
        <time>2019-06-02T10:32:31Z</time>
      </trkpt>
      <trkpt lat="43.46037" lon="2.34481">
        <ele>669</ele>
        <time>2019-06-02T10:32:34Z</time>
      </trkpt>
      <trkpt lat="43.46037" lon="2.34484">
        <ele>669</ele>
        <time>2019-06-02T10:32:38Z</time>
      </trkpt>
      <trkpt lat="43.46037" lon="2.34484">
        <ele>669</ele>
        <time>2019-06-02T10:32:41Z</time>
      </trkpt>
      <trkpt lat="43.46037" lon="2.34482">
        <ele>669</ele>
        <time>2019-06-02T10:32:48Z</time>
      </trkpt>
      <trkpt lat="43.46038" lon="2.34481">
        <ele>669</ele>
        <time>2019-06-02T10:32:53Z</time>
      </trkpt>
      <trkpt lat="43.46037" lon="2.3448">
        <ele>669</ele>
        <time>2019-06-02T10:32:55Z</time>
      </trkpt>
      <trkpt lat="43.46038" lon="2.34475">
        <ele>669</ele>
        <time>2019-06-02T10:33:02Z</time>
      </trkpt>
      <trkpt lat="43.46039" lon="2.34474">
        <ele>669</ele>
        <time>2019-06-02T10:33:04Z</time>
      </trkpt>
      <trkpt lat="43.4604" lon="2.34472">
        <ele>669</ele>
        <time>2019-06-02T10:33:10Z</time>
      </trkpt>
      <trkpt lat="43.46042" lon="2.34478">
        <ele>669</ele>
        <time>2019-06-02T10:33:13Z</time>
      </trkpt>
      <trkpt lat="43.46043" lon="2.34479">
        <ele>669</ele>
        <time>2019-06-02T10:33:14Z</time>
      </trkpt>
      <trkpt lat="43.46044" lon="2.34479">
        <ele>669</ele>
        <time>2019-06-02T10:33:15Z</time>
      </trkpt>
      <trkpt lat="43.46044" lon="2.34479">
        <ele>669</ele>
        <time>2019-06-02T10:33:16Z</time>
      </trkpt>
      <trkpt lat="43.46043" lon="2.34482">
        <ele>669</ele>
        <time>2019-06-02T10:33:21Z</time>
      </trkpt>
      <trkpt lat="43.46042" lon="2.34483">
        <ele>669</ele>
        <time>2019-06-02T10:33:23Z</time>
      </trkpt>
      <trkpt lat="43.46044" lon="2.34481">
        <ele>669</ele>
        <time>2019-06-02T10:33:26Z</time>
      </trkpt>
      <trkpt lat="43.46045" lon="2.3448">
        <ele>669</ele>
        <time>2019-06-02T10:33:28Z</time>
      </trkpt>
      <trkpt lat="43.46046" lon="2.34479">
        <ele>669</ele>
        <time>2019-06-02T10:33:29Z</time>
      </trkpt>
      <trkpt lat="43.46048" lon="2.34477">
        <ele>669</ele>
        <time>2019-06-02T10:33:33Z</time>
      </trkpt>
      <trkpt lat="43.46052" lon="2.34473">
        <ele>669</ele>
        <time>2019-06-02T10:33:37Z</time>
      </trkpt>
      <trkpt lat="43.46053" lon="2.34474">
        <ele>669</ele>
        <time>2019-06-02T10:33:40Z</time>
      </trkpt>
      <trkpt lat="43.46053" lon="2.34476">
        <ele>669</ele>
        <time>2019-06-02T10:33:43Z</time>
      </trkpt>
      <trkpt lat="43.46054" lon="2.34477">
        <ele>669</ele>
        <time>2019-06-02T10:33:45Z</time>
      </trkpt>
      <trkpt lat="43.46053" lon="2.34479">
        <ele>669</ele>
        <time>2019-06-02T10:33:51Z</time>
      </trkpt>
      <trkpt lat="43.46053" lon="2.34481">
        <ele>669</ele>
        <time>2019-06-02T10:33:53Z</time>
      </trkpt>
      <trkpt lat="43.46052" lon="2.34482">
        <ele>669</ele>
        <time>2019-06-02T10:33:55Z</time>
      </trkpt>
      <trkpt lat="43.46049" lon="2.34484">
        <ele>669</ele>
        <time>2019-06-02T10:34:01Z</time>
      </trkpt>
      <trkpt lat="43.46049" lon="2.34484">
        <ele>669</ele>
        <time>2019-06-02T10:34:02Z</time>
      </trkpt>
      <trkpt lat="43.46049" lon="2.34486">
        <ele>669</ele>
        <time>2019-06-02T10:34:10Z</time>
      </trkpt>
      <trkpt lat="43.4605" lon="2.34484">
        <ele>669</ele>
        <time>2019-06-02T10:34:17Z</time>
      </trkpt>
      <trkpt lat="43.46052" lon="2.34478">
        <ele>669</ele>
        <time>2019-06-02T10:34:24Z</time>
      </trkpt>
      <trkpt lat="43.46053" lon="2.34477">
        <ele>669</ele>
        <time>2019-06-02T10:34:25Z</time>
      </trkpt>
      <trkpt lat="43.46053" lon="2.34476">
        <ele>669</ele>
        <time>2019-06-02T10:34:26Z</time>
      </trkpt>
      <trkpt lat="43.46057" lon="2.34475">
        <ele>669</ele>
        <time>2019-06-02T10:34:33Z</time>
      </trkpt>
      <trkpt lat="43.46054" lon="2.34478">
        <ele>669</ele>
        <time>2019-06-02T10:34:40Z</time>
      </trkpt>
      <trkpt lat="43.46055" lon="2.34479">
        <ele>669</ele>
        <time>2019-06-02T10:34:44Z</time>
      </trkpt>
      <trkpt lat="43.46056" lon="2.34481">
        <ele>669</ele>
        <time>2019-06-02T10:34:48Z</time>
      </trkpt>
      <trkpt lat="43.46054" lon="2.34482">
        <ele>669</ele>
        <time>2019-06-02T10:34:56Z</time>
      </trkpt>
      <trkpt lat="43.46057" lon="2.34482">
        <ele>669</ele>
        <time>2019-06-02T10:34:59Z</time>
      </trkpt>
      <trkpt lat="43.46053" lon="2.34482">
        <ele>669</ele>
        <time>2019-06-02T10:35:03Z</time>
      </trkpt>
      <trkpt lat="43.46051" lon="2.34478">
        <ele>669</ele>
        <time>2019-06-02T10:35:10Z</time>
      </trkpt>
      <trkpt lat="43.4605" lon="2.34476">
        <ele>669</ele>
        <time>2019-06-02T10:35:17Z</time>
      </trkpt>
      <trkpt lat="43.4605" lon="2.34477">
        <ele>669</ele>
        <time>2019-06-02T10:35:25Z</time>
      </trkpt>
      <trkpt lat="43.4605" lon="2.34477">
        <ele>669</ele>
        <time>2019-06-02T10:35:26Z</time>
      </trkpt>
      <trkpt lat="43.4605" lon="2.34476">
        <ele>669</ele>
        <time>2019-06-02T10:35:27Z</time>
      </trkpt>
      <trkpt lat="43.4605" lon="2.34474">
        <ele>669</ele>
        <time>2019-06-02T10:35:29Z</time>
      </trkpt>
      <trkpt lat="43.4605" lon="2.34477">
        <ele>669</ele>
        <time>2019-06-02T10:35:33Z</time>
      </trkpt>
      <trkpt lat="43.46049" lon="2.34477">
        <ele>669</ele>
        <time>2019-06-02T10:35:34Z</time>
      </trkpt>
      <trkpt lat="43.46053" lon="2.34474">
        <ele>669</ele>
        <time>2019-06-02T10:35:44Z</time>
      </trkpt>
      <trkpt lat="43.46053" lon="2.34474">
        <ele>669</ele>
        <time>2019-06-02T10:35:56Z</time>
      </trkpt>
      <trkpt lat="43.46053" lon="2.34474">
        <ele>669</ele>
        <time>2019-06-02T10:36:01Z</time>
      </trkpt>
      <trkpt lat="43.46052" lon="2.34474">
        <ele>669</ele>
        <time>2019-06-02T10:36:05Z</time>
      </trkpt>
      <trkpt lat="43.46052" lon="2.34474">
        <ele>669</ele>
        <time>2019-06-02T10:36:06Z</time>
      </trkpt>
      <trkpt lat="43.46052" lon="2.34474">
        <ele>669</ele>
        <time>2019-06-02T10:36:11Z</time>
      </trkpt>
      <trkpt lat="43.46052" lon="2.34474">
        <ele>669</ele>
        <time>2019-06-02T10:36:16Z</time>
      </trkpt>
      <trkpt lat="43.46054" lon="2.34476">
        <ele>669</ele>
        <time>2019-06-02T10:36:20Z</time>
      </trkpt>
      <trkpt lat="43.46056" lon="2.34473">
        <ele>669</ele>
        <time>2019-06-02T10:36:25Z</time>
      </trkpt>
      <trkpt lat="43.46056" lon="2.34471">
        <ele>669</ele>
        <time>2019-06-02T10:36:29Z</time>
      </trkpt>
      <trkpt lat="43.46054" lon="2.34466">
        <ele>669</ele>
        <time>2019-06-02T10:36:39Z</time>
      </trkpt>
      <trkpt lat="43.46052" lon="2.34464">
        <ele>669</ele>
        <time>2019-06-02T10:36:46Z</time>
      </trkpt>
      <trkpt lat="43.46053" lon="2.34466">
        <ele>669</ele>
        <time>2019-06-02T10:36:49Z</time>
      </trkpt>
      <trkpt lat="43.46054" lon="2.34464">
        <ele>669</ele>
        <time>2019-06-02T10:36:57Z</time>
      </trkpt>
      <trkpt lat="43.4606" lon="2.34459">
        <ele>669</ele>
        <time>2019-06-02T10:37:05Z</time>
      </trkpt>
      <trkpt lat="43.46061" lon="2.34466">
        <ele>669</ele>
        <time>2019-06-02T10:37:08Z</time>
      </trkpt>
      <trkpt lat="43.46059" lon="2.34467">
        <ele>669</ele>
        <time>2019-06-02T10:37:13Z</time>
      </trkpt>
      <trkpt lat="43.46057" lon="2.34472">
        <ele>669</ele>
        <time>2019-06-02T10:37:19Z</time>
      </trkpt>
      <trkpt lat="43.46057" lon="2.34472">
        <ele>669</ele>
        <time>2019-06-02T10:37:22Z</time>
      </trkpt>
      <trkpt lat="43.46054" lon="2.34471">
        <ele>669</ele>
        <time>2019-06-02T10:37:26Z</time>
      </trkpt>
      <trkpt lat="43.46051" lon="2.34475">
        <ele>669</ele>
        <time>2019-06-02T10:37:31Z</time>
      </trkpt>
      <trkpt lat="43.46045" lon="2.34473">
        <ele>669</ele>
        <time>2019-06-02T10:37:40Z</time>
      </trkpt>
      <trkpt lat="43.46045" lon="2.34473">
        <ele>669</ele>
        <time>2019-06-02T10:37:42Z</time>
      </trkpt>
      <trkpt lat="43.46046" lon="2.34474">
        <ele>669</ele>
        <time>2019-06-02T10:37:45Z</time>
      </trkpt>
      <trkpt lat="43.46048" lon="2.34474">
        <ele>669</ele>
        <time>2019-06-02T10:37:50Z</time>
      </trkpt>
      <trkpt lat="43.46051" lon="2.34481">
        <ele>669</ele>
        <time>2019-06-02T10:37:56Z</time>
      </trkpt>
      <trkpt lat="43.46054" lon="2.34485">
        <ele>669</ele>
        <time>2019-06-02T10:38:01Z</time>
      </trkpt>
      <trkpt lat="43.46058" lon="2.34482">
        <ele>669</ele>
        <time>2019-06-02T10:38:06Z</time>
      </trkpt>
      <trkpt lat="43.46062" lon="2.34478">
        <ele>669</ele>
        <time>2019-06-02T10:38:08Z</time>
      </trkpt>
      <trkpt lat="43.46044" lon="2.34475">
        <ele>669</ele>
        <time>2019-06-02T10:38:09Z</time>
      </trkpt>
      <trkpt lat="43.46045" lon="2.34479">
        <ele>669</ele>
        <time>2019-06-02T10:38:15Z</time>
      </trkpt>
      <trkpt lat="43.46051" lon="2.34484">
        <ele>669</ele>
        <time>2019-06-02T10:38:23Z</time>
      </trkpt>
      <trkpt lat="43.46051" lon="2.34483">
        <ele>669</ele>
        <time>2019-06-02T10:38:24Z</time>
      </trkpt>
      <trkpt lat="43.46053" lon="2.34487">
        <ele>669</ele>
        <time>2019-06-02T10:38:31Z</time>
      </trkpt>
      <trkpt lat="43.46064" lon="2.34486">
        <ele>669</ele>
        <time>2019-06-02T10:38:37Z</time>
      </trkpt>
      <trkpt lat="43.46052" lon="2.34485">
        <ele>669</ele>
        <time>2019-06-02T10:38:38Z</time>
      </trkpt>
      <trkpt lat="43.46051" lon="2.34482">
        <ele>669</ele>
        <time>2019-06-02T10:38:46Z</time>
      </trkpt>
      <trkpt lat="43.46048" lon="2.34481">
        <ele>669</ele>
        <time>2019-06-02T10:38:51Z</time>
      </trkpt>
      <trkpt lat="43.4605" lon="2.3448">
        <ele>669</ele>
        <time>2019-06-02T10:38:52Z</time>
      </trkpt>
      <trkpt lat="43.4605" lon="2.3448">
        <ele>669</ele>
        <time>2019-06-02T10:38:54Z</time>
      </trkpt>
      <trkpt lat="43.46049" lon="2.34476">
        <ele>669</ele>
        <time>2019-06-02T10:39:01Z</time>
      </trkpt>
      <trkpt lat="43.46047" lon="2.34477">
        <ele>669</ele>
        <time>2019-06-02T10:39:09Z</time>
      </trkpt>
      <trkpt lat="43.46048" lon="2.34477">
        <ele>669</ele>
        <time>2019-06-02T10:39:12Z</time>
      </trkpt>
      <trkpt lat="43.46048" lon="2.34477">
        <ele>669</ele>
        <time>2019-06-02T10:39:16Z</time>
      </trkpt>
      <trkpt lat="43.46048" lon="2.34477">
        <ele>669</ele>
        <time>2019-06-02T10:39:20Z</time>
      </trkpt>
      <trkpt lat="43.46048" lon="2.34478">
        <ele>669</ele>
        <time>2019-06-02T10:39:25Z</time>
      </trkpt>
      <trkpt lat="43.46048" lon="2.34478">
        <ele>669</ele>
        <time>2019-06-02T10:39:29Z</time>
      </trkpt>
      <trkpt lat="43.46047" lon="2.34478">
        <ele>669</ele>
        <time>2019-06-02T10:39:34Z</time>
      </trkpt>
      <trkpt lat="43.46047" lon="2.34478">
        <ele>669</ele>
        <time>2019-06-02T10:39:35Z</time>
      </trkpt>
      <trkpt lat="43.46047" lon="2.3448">
        <ele>669</ele>
        <time>2019-06-02T10:39:36Z</time>
      </trkpt>
      <trkpt lat="43.46047" lon="2.34479">
        <ele>669</ele>
        <time>2019-06-02T10:39:38Z</time>
      </trkpt>
      <trkpt lat="43.46047" lon="2.34479">
        <ele>669</ele>
        <time>2019-06-02T10:39:40Z</time>
      </trkpt>
      <trkpt lat="43.46047" lon="2.34479">
        <ele>669</ele>
        <time>2019-06-02T10:39:42Z</time>
      </trkpt>
      <trkpt lat="43.46048" lon="2.34479">
        <ele>669</ele>
        <time>2019-06-02T10:39:45Z</time>
      </trkpt>
      <trkpt lat="43.46052" lon="2.34477">
        <ele>669</ele>
        <time>2019-06-02T10:39:48Z</time>
      </trkpt>
      <trkpt lat="43.46051" lon="2.34474">
        <ele>669</ele>
        <time>2019-06-02T10:39:49Z</time>
      </trkpt>
      <trkpt lat="43.4605" lon="2.3447">
        <ele>669</ele>
        <time>2019-06-02T10:39:51Z</time>
      </trkpt>
      <trkpt lat="43.46052" lon="2.34475">
        <ele>669</ele>
        <time>2019-06-02T10:39:55Z</time>
      </trkpt>
      <trkpt lat="43.46052" lon="2.34477">
        <ele>669</ele>
        <time>2019-06-02T10:39:57Z</time>
      </trkpt>
      <trkpt lat="43.46052" lon="2.34477">
        <ele>669</ele>
        <time>2019-06-02T10:40:06Z</time>
      </trkpt>
      <trkpt lat="43.46052" lon="2.34477">
        <ele>669</ele>
        <time>2019-06-02T10:40:07Z</time>
      </trkpt>
      <trkpt lat="43.46052" lon="2.34478">
        <ele>669</ele>
        <time>2019-06-02T10:40:16Z</time>
      </trkpt>
      <trkpt lat="43.46052" lon="2.34478">
        <ele>669</ele>
        <time>2019-06-02T10:40:19Z</time>
      </trkpt>
      <trkpt lat="43.4605" lon="2.34476">
        <ele>669</ele>
        <time>2019-06-02T10:40:29Z</time>
      </trkpt>
      <trkpt lat="43.4605" lon="2.34483">
        <ele>669</ele>
        <time>2019-06-02T10:40:36Z</time>
      </trkpt>
      <trkpt lat="43.46049" lon="2.34483">
        <ele>669</ele>
        <time>2019-06-02T10:40:45Z</time>
      </trkpt>
      <trkpt lat="43.46049" lon="2.34483">
        <ele>669</ele>
        <time>2019-06-02T10:40:47Z</time>
      </trkpt>
      <trkpt lat="43.46049" lon="2.34483">
        <ele>669</ele>
        <time>2019-06-02T10:40:48Z</time>
      </trkpt>
      <trkpt lat="43.4605" lon="2.34483">
        <ele>669</ele>
        <time>2019-06-02T10:40:49Z</time>
      </trkpt>
      <trkpt lat="43.4605" lon="2.34484">
        <ele>669</ele>
        <time>2019-06-02T10:40:52Z</time>
      </trkpt>
      <trkpt lat="43.46051" lon="2.34484">
        <ele>669</ele>
        <time>2019-06-02T10:40:53Z</time>
      </trkpt>
      <trkpt lat="43.46052" lon="2.34483">
        <ele>669</ele>
        <time>2019-06-02T10:41:03Z</time>
      </trkpt>
      <trkpt lat="43.46052" lon="2.34483">
        <ele>669</ele>
        <time>2019-06-02T10:41:06Z</time>
      </trkpt>
      <trkpt lat="43.4605" lon="2.34486">
        <ele>669</ele>
        <time>2019-06-02T10:41:14Z</time>
      </trkpt>
      <trkpt lat="43.4605" lon="2.34483">
        <ele>669</ele>
        <time>2019-06-02T10:41:20Z</time>
      </trkpt>
      <trkpt lat="43.46049" lon="2.34483">
        <ele>669</ele>
        <time>2019-06-02T10:41:25Z</time>
      </trkpt>
      <trkpt lat="43.46049" lon="2.34483">
        <ele>669</ele>
        <time>2019-06-02T10:41:26Z</time>
      </trkpt>
      <trkpt lat="43.46049" lon="2.34484">
        <ele>669</ele>
        <time>2019-06-02T10:41:37Z</time>
      </trkpt>
      <trkpt lat="43.4605" lon="2.34479">
        <ele>669</ele>
        <time>2019-06-02T10:41:45Z</time>
      </trkpt>
      <trkpt lat="43.46048" lon="2.34476">
        <ele>669</ele>
        <time>2019-06-02T10:41:53Z</time>
      </trkpt>
      <trkpt lat="43.46048" lon="2.34475">
        <ele>669</ele>
        <time>2019-06-02T10:41:55Z</time>
      </trkpt>
      <trkpt lat="43.46048" lon="2.34475">
        <ele>669</ele>
        <time>2019-06-02T10:42:00Z</time>
      </trkpt>
      <trkpt lat="43.46049" lon="2.3448">
        <ele>669</ele>
        <time>2019-06-02T10:42:05Z</time>
      </trkpt>
      <trkpt lat="43.4605" lon="2.34476">
        <ele>669</ele>
        <time>2019-06-02T10:42:10Z</time>
      </trkpt>
      <trkpt lat="43.4605" lon="2.3448">
        <ele>669</ele>
        <time>2019-06-02T10:42:18Z</time>
      </trkpt>
      <trkpt lat="43.46049" lon="2.34485">
        <ele>669</ele>
        <time>2019-06-02T10:42:20Z</time>
      </trkpt>
      <trkpt lat="43.46049" lon="2.34486">
        <ele>669</ele>
        <time>2019-06-02T10:42:22Z</time>
      </trkpt>
      <trkpt lat="43.4605" lon="2.34485">
        <ele>669</ele>
        <time>2019-06-02T10:42:25Z</time>
      </trkpt>
      <trkpt lat="43.4605" lon="2.34485">
        <ele>669</ele>
        <time>2019-06-02T10:42:26Z</time>
      </trkpt>
      <trkpt lat="43.4605" lon="2.34485">
        <ele>669</ele>
        <time>2019-06-02T10:42:27Z</time>
      </trkpt>
      <trkpt lat="43.4605" lon="2.34485">
        <ele>669</ele>
        <time>2019-06-02T10:42:31Z</time>
      </trkpt>
      <trkpt lat="43.46049" lon="2.34485">
        <ele>669</ele>
        <time>2019-06-02T10:42:32Z</time>
      </trkpt>
      <trkpt lat="43.46049" lon="2.34487">
        <ele>669</ele>
        <time>2019-06-02T10:42:40Z</time>
      </trkpt>
      <trkpt lat="43.46049" lon="2.34486">
        <ele>669</ele>
        <time>2019-06-02T10:42:51Z</time>
      </trkpt>
      <trkpt lat="43.46049" lon="2.34486">
        <ele>669</ele>
        <time>2019-06-02T10:42:53Z</time>
      </trkpt>
      <trkpt lat="43.46049" lon="2.34485">
        <ele>669</ele>
        <time>2019-06-02T10:42:58Z</time>
      </trkpt>
      <trkpt lat="43.46049" lon="2.34485">
        <ele>669</ele>
        <time>2019-06-02T10:43:02Z</time>
      </trkpt>
      <trkpt lat="43.46049" lon="2.34485">
        <ele>669</ele>
        <time>2019-06-02T10:43:07Z</time>
      </trkpt>
      <trkpt lat="43.46049" lon="2.34484">
        <ele>669</ele>
        <time>2019-06-02T10:43:11Z</time>
      </trkpt>
      <trkpt lat="43.46049" lon="2.34484">
        <ele>669</ele>
        <time>2019-06-02T10:43:14Z</time>
      </trkpt>
      <trkpt lat="43.46049" lon="2.34484">
        <ele>669</ele>
        <time>2019-06-02T10:43:21Z</time>
      </trkpt>
      <trkpt lat="43.46049" lon="2.34484">
        <ele>669</ele>
        <time>2019-06-02T10:43:24Z</time>
      </trkpt>
      <trkpt lat="43.46049" lon="2.34484">
        <ele>669</ele>
        <time>2019-06-02T10:43:28Z</time>
      </trkpt>
      <trkpt lat="43.46049" lon="2.34483">
        <ele>669</ele>
        <time>2019-06-02T10:43:33Z</time>
      </trkpt>
      <trkpt lat="43.46049" lon="2.34482">
        <ele>669</ele>
        <time>2019-06-02T10:43:34Z</time>
      </trkpt>
      <trkpt lat="43.46049" lon="2.34482">
        <ele>669</ele>
        <time>2019-06-02T10:43:36Z</time>
      </trkpt>
      <trkpt lat="43.46049" lon="2.34481">
        <ele>669</ele>
        <time>2019-06-02T10:43:38Z</time>
      </trkpt>
      <trkpt lat="43.4605" lon="2.3448">
        <ele>669</ele>
        <time>2019-06-02T10:43:44Z</time>
      </trkpt>
      <trkpt lat="43.4605" lon="2.3448">
        <ele>669</ele>
        <time>2019-06-02T10:43:47Z</time>
      </trkpt>
      <trkpt lat="43.46051" lon="2.3448">
        <ele>669</ele>
        <time>2019-06-02T10:43:52Z</time>
      </trkpt>
      <trkpt lat="43.46051" lon="2.34479">
        <ele>669</ele>
        <time>2019-06-02T10:43:59Z</time>
      </trkpt>
      <trkpt lat="43.46052" lon="2.34479">
        <ele>669</ele>
        <time>2019-06-02T10:44:00Z</time>
      </trkpt>
      <trkpt lat="43.4605" lon="2.34478">
        <ele>669</ele>
        <time>2019-06-02T10:44:07Z</time>
      </trkpt>
      <trkpt lat="43.4605" lon="2.34477">
        <ele>669</ele>
        <time>2019-06-02T10:44:11Z</time>
      </trkpt>
      <trkpt lat="43.4605" lon="2.34477">
        <ele>669</ele>
        <time>2019-06-02T10:44:12Z</time>
      </trkpt>
      <trkpt lat="43.4605" lon="2.34477">
        <ele>669</ele>
        <time>2019-06-02T10:44:14Z</time>
      </trkpt>
      <trkpt lat="43.46049" lon="2.34475">
        <ele>669</ele>
        <time>2019-06-02T10:44:21Z</time>
      </trkpt>
      <trkpt lat="43.46049" lon="2.34473">
        <ele>669</ele>
        <time>2019-06-02T10:44:26Z</time>
      </trkpt>
      <trkpt lat="43.4605" lon="2.34479">
        <ele>669</ele>
        <time>2019-06-02T10:44:37Z</time>
      </trkpt>
      <trkpt lat="43.4605" lon="2.34477">
        <ele>669</ele>
        <time>2019-06-02T10:44:39Z</time>
      </trkpt>
      <trkpt lat="43.46049" lon="2.34482">
        <ele>669</ele>
        <time>2019-06-02T10:44:42Z</time>
      </trkpt>
      <trkpt lat="43.46048" lon="2.34484">
        <ele>669</ele>
        <time>2019-06-02T10:44:54Z</time>
      </trkpt>
      <trkpt lat="43.4605" lon="2.34485">
        <ele>669</ele>
        <time>2019-06-02T10:45:10Z</time>
      </trkpt>
      <trkpt lat="43.46051" lon="2.34486">
        <ele>669</ele>
        <time>2019-06-02T10:45:17Z</time>
      </trkpt>
      <trkpt lat="43.46051" lon="2.34486">
        <ele>669</ele>
        <time>2019-06-02T10:45:32Z</time>
      </trkpt>
      <trkpt lat="43.46051" lon="2.34487">
        <ele>669</ele>
        <time>2019-06-02T10:45:49Z</time>
      </trkpt>
      <trkpt lat="43.46051" lon="2.34487">
        <ele>669</ele>
        <time>2019-06-02T10:45:51Z</time>
      </trkpt>
      <trkpt lat="43.46051" lon="2.34487">
        <ele>669</ele>
        <time>2019-06-02T10:45:53Z</time>
      </trkpt>
      <trkpt lat="43.46051" lon="2.34488">
        <ele>669</ele>
        <time>2019-06-02T10:46:06Z</time>
      </trkpt>
      <trkpt lat="43.4605" lon="2.34487">
        <ele>669</ele>
        <time>2019-06-02T10:46:28Z</time>
      </trkpt>
      <trkpt lat="43.4605" lon="2.34487">
        <ele>669</ele>
        <time>2019-06-02T10:46:31Z</time>
      </trkpt>
      <trkpt lat="43.46051" lon="2.34486">
        <ele>669</ele>
        <time>2019-06-02T10:46:37Z</time>
      </trkpt>
      <trkpt lat="43.46052" lon="2.34486">
        <ele>669</ele>
        <time>2019-06-02T10:46:42Z</time>
      </trkpt>
      <trkpt lat="43.46051" lon="2.34492">
        <ele>669</ele>
        <time>2019-06-02T10:46:53Z</time>
      </trkpt>
      <trkpt lat="43.4605" lon="2.34486">
        <ele>669</ele>
        <time>2019-06-02T10:47:10Z</time>
      </trkpt>
      <trkpt lat="43.4605" lon="2.34485">
        <ele>669</ele>
        <time>2019-06-02T10:47:13Z</time>
      </trkpt>
      <trkpt lat="43.4605" lon="2.34485">
        <ele>669</ele>
        <time>2019-06-02T10:47:14Z</time>
      </trkpt>
      <trkpt lat="43.4605" lon="2.34484">
        <ele>669</ele>
        <time>2019-06-02T10:47:16Z</time>
      </trkpt>
      <trkpt lat="43.46054" lon="2.34483">
        <ele>669</ele>
        <time>2019-06-02T10:47:30Z</time>
      </trkpt>
      <trkpt lat="43.46055" lon="2.34481">
        <ele>669</ele>
        <time>2019-06-02T10:47:40Z</time>
      </trkpt>
      <trkpt lat="43.46047" lon="2.34487">
        <ele>669</ele>
        <time>2019-06-02T10:47:50Z</time>
      </trkpt>
      <trkpt lat="43.46052" lon="2.34484">
        <ele>669</ele>
        <time>2019-06-02T10:48:10Z</time>
      </trkpt>
      <trkpt lat="43.46049" lon="2.34486">
        <ele>669</ele>
        <time>2019-06-02T10:48:27Z</time>
      </trkpt>
      <trkpt lat="43.46052" lon="2.3448">
        <ele>669</ele>
        <time>2019-06-02T10:48:46Z</time>
      </trkpt>
      <trkpt lat="43.46053" lon="2.34479">
        <ele>669</ele>
        <time>2019-06-02T10:48:48Z</time>
      </trkpt>
      <trkpt lat="43.46058" lon="2.34483">
        <ele>669</ele>
        <time>2019-06-02T10:48:51Z</time>
      </trkpt>
      <trkpt lat="43.46051" lon="2.34486">
        <ele>669</ele>
        <time>2019-06-02T10:49:00Z</time>
      </trkpt>
      <trkpt lat="43.46051" lon="2.34486">
        <ele>669</ele>
        <time>2019-06-02T10:49:01Z</time>
      </trkpt>
      <trkpt lat="43.46052" lon="2.34487">
        <ele>669</ele>
        <time>2019-06-02T10:49:04Z</time>
      </trkpt>
      <trkpt lat="43.46052" lon="2.34488">
        <ele>669</ele>
        <time>2019-06-02T10:49:07Z</time>
      </trkpt>
      <trkpt lat="43.46053" lon="2.34488">
        <ele>669</ele>
        <time>2019-06-02T10:49:09Z</time>
      </trkpt>
      <trkpt lat="43.46052" lon="2.34488">
        <ele>669</ele>
        <time>2019-06-02T10:49:14Z</time>
      </trkpt>
      <trkpt lat="43.46052" lon="2.34488">
        <ele>669</ele>
        <time>2019-06-02T10:49:17Z</time>
      </trkpt>
      <trkpt lat="43.46051" lon="2.34487">
        <ele>669</ele>
        <time>2019-06-02T10:49:20Z</time>
      </trkpt>
      <trkpt lat="43.46051" lon="2.34487">
        <ele>669</ele>
        <time>2019-06-02T10:49:21Z</time>
      </trkpt>
      <trkpt lat="43.46051" lon="2.34487">
        <ele>669</ele>
        <time>2019-06-02T10:49:23Z</time>
      </trkpt>
      <trkpt lat="43.46051" lon="2.34486">
        <ele>669</ele>
        <time>2019-06-02T10:49:25Z</time>
      </trkpt>
      <trkpt lat="43.46051" lon="2.34484">
        <ele>669</ele>
        <time>2019-06-02T10:49:29Z</time>
      </trkpt>
      <trkpt lat="43.46051" lon="2.34484">
        <ele>669</ele>
        <time>2019-06-02T10:49:30Z</time>
      </trkpt>
      <trkpt lat="43.46052" lon="2.34481">
        <ele>669</ele>
        <time>2019-06-02T10:49:37Z</time>
      </trkpt>
      <trkpt lat="43.46052" lon="2.34481">
        <ele>669</ele>
        <time>2019-06-02T10:49:38Z</time>
      </trkpt>
      <trkpt lat="43.46052" lon="2.34481">
        <ele>669</ele>
        <time>2019-06-02T10:49:41Z</time>
      </trkpt>
      <trkpt lat="43.46052" lon="2.3448">
        <ele>669</ele>
        <time>2019-06-02T10:49:45Z</time>
      </trkpt>
      <trkpt lat="43.46052" lon="2.34479">
        <ele>669</ele>
        <time>2019-06-02T10:49:49Z</time>
      </trkpt>
      <trkpt lat="43.46051" lon="2.34478">
        <ele>669</ele>
        <time>2019-06-02T10:49:57Z</time>
      </trkpt>
      <trkpt lat="43.46051" lon="2.34478">
        <ele>669</ele>
        <time>2019-06-02T10:50:00Z</time>
      </trkpt>
      <trkpt lat="43.46051" lon="2.34477">
        <ele>669</ele>
        <time>2019-06-02T10:50:01Z</time>
      </trkpt>
      <trkpt lat="43.46051" lon="2.34477">
        <ele>669</ele>
        <time>2019-06-02T10:50:04Z</time>
      </trkpt>
      <trkpt lat="43.46051" lon="2.34477">
        <ele>669</ele>
        <time>2019-06-02T10:50:05Z</time>
      </trkpt>
      <trkpt lat="43.46051" lon="2.34477">
        <ele>669</ele>
        <time>2019-06-02T10:50:06Z</time>
      </trkpt>
      <trkpt lat="43.4605" lon="2.34478">
        <ele>669</ele>
        <time>2019-06-02T10:50:09Z</time>
      </trkpt>
      <trkpt lat="43.4605" lon="2.34478">
        <ele>669</ele>
        <time>2019-06-02T10:50:10Z</time>
      </trkpt>
      <trkpt lat="43.46049" lon="2.34478">
        <ele>669</ele>
        <time>2019-06-02T10:50:14Z</time>
      </trkpt>
      <trkpt lat="43.46049" lon="2.34477">
        <ele>669</ele>
        <time>2019-06-02T10:50:19Z</time>
      </trkpt>
      <trkpt lat="43.46049" lon="2.34477">
        <ele>669</ele>
        <time>2019-06-02T10:50:22Z</time>
      </trkpt>
      <trkpt lat="43.46048" lon="2.34478">
        <ele>669</ele>
        <time>2019-06-02T10:50:34Z</time>
      </trkpt>
      <trkpt lat="43.4605" lon="2.34478">
        <ele>669</ele>
        <time>2019-06-02T10:50:42Z</time>
      </trkpt>
      <trkpt lat="43.46052" lon="2.34476">
        <ele>669</ele>
        <time>2019-06-02T10:50:45Z</time>
      </trkpt>
      <trkpt lat="43.4605" lon="2.34478">
        <ele>669</ele>
        <time>2019-06-02T10:50:48Z</time>
      </trkpt>
      <trkpt lat="43.46048" lon="2.34481">
        <ele>669</ele>
        <time>2019-06-02T10:50:52Z</time>
      </trkpt>
      <trkpt lat="43.46048" lon="2.34481">
        <ele>669</ele>
        <time>2019-06-02T10:51:00Z</time>
      </trkpt>
      <trkpt lat="43.46051" lon="2.34478">
        <ele>669</ele>
        <time>2019-06-02T10:51:02Z</time>
      </trkpt>
      <trkpt lat="43.46051" lon="2.34479">
        <ele>669</ele>
        <time>2019-06-02T10:51:08Z</time>
      </trkpt>
      <trkpt lat="43.46053" lon="2.34481">
        <ele>669</ele>
        <time>2019-06-02T10:51:14Z</time>
      </trkpt>
      <trkpt lat="43.46054" lon="2.34481">
        <ele>669</ele>
        <time>2019-06-02T10:51:15Z</time>
      </trkpt>
      <trkpt lat="43.46056" lon="2.34481">
        <ele>669</ele>
        <time>2019-06-02T10:51:17Z</time>
      </trkpt>
      <trkpt lat="43.46052" lon="2.34483">
        <ele>669</ele>
        <time>2019-06-02T10:51:25Z</time>
      </trkpt>
      <trkpt lat="43.46049" lon="2.34487">
        <ele>669</ele>
        <time>2019-06-02T10:51:32Z</time>
      </trkpt>
      <trkpt lat="43.46045" lon="2.34489">
        <ele>669</ele>
        <time>2019-06-02T10:51:35Z</time>
      </trkpt>
      <trkpt lat="43.46049" lon="2.34493">
        <ele>669</ele>
        <time>2019-06-02T10:51:40Z</time>
      </trkpt>
      <trkpt lat="43.46048" lon="2.34493">
        <ele>669</ele>
        <time>2019-06-02T10:51:43Z</time>
      </trkpt>
      <trkpt lat="43.46046" lon="2.34495">
        <ele>669</ele>
        <time>2019-06-02T10:51:49Z</time>
      </trkpt>
      <trkpt lat="43.46045" lon="2.34496">
        <ele>669</ele>
        <time>2019-06-02T10:51:52Z</time>
      </trkpt>
      <trkpt lat="43.46042" lon="2.34497">
        <ele>669</ele>
        <time>2019-06-02T10:52:01Z</time>
      </trkpt>
      <trkpt lat="43.46038" lon="2.34484">
        <ele>669</ele>
        <time>2019-06-02T10:52:05Z</time>
      </trkpt>
      <trkpt lat="43.46042" lon="2.34489">
        <ele>669</ele>
        <time>2019-06-02T10:52:11Z</time>
      </trkpt>
      <trkpt lat="43.46045" lon="2.34483">
        <ele>669</ele>
        <time>2019-06-02T10:52:19Z</time>
      </trkpt>
      <trkpt lat="43.46045" lon="2.34484">
        <ele>669</ele>
        <time>2019-06-02T10:52:27Z</time>
      </trkpt>
      <trkpt lat="43.46045" lon="2.34484">
        <ele>669</ele>
        <time>2019-06-02T10:52:30Z</time>
      </trkpt>
      <trkpt lat="43.46045" lon="2.34485">
        <ele>669</ele>
        <time>2019-06-02T10:52:46Z</time>
      </trkpt>
      <trkpt lat="43.46046" lon="2.34486">
        <ele>669</ele>
        <time>2019-06-02T10:52:56Z</time>
      </trkpt>
      <trkpt lat="43.46049" lon="2.34485">
        <ele>669</ele>
        <time>2019-06-02T10:53:03Z</time>
      </trkpt>
      <trkpt lat="43.46048" lon="2.34483">
        <ele>669</ele>
        <time>2019-06-02T10:53:06Z</time>
      </trkpt>
      <trkpt lat="43.46048" lon="2.34483">
        <ele>669</ele>
        <time>2019-06-02T10:53:07Z</time>
      </trkpt>
      <trkpt lat="43.46048" lon="2.34482">
        <ele>669</ele>
        <time>2019-06-02T10:53:10Z</time>
      </trkpt>
      <trkpt lat="43.46048" lon="2.34482">
        <ele>669</ele>
        <time>2019-06-02T10:53:12Z</time>
      </trkpt>
      <trkpt lat="43.46048" lon="2.34482">
        <ele>669</ele>
        <time>2019-06-02T10:53:14Z</time>
      </trkpt>
      <trkpt lat="43.46048" lon="2.34482">
        <ele>669</ele>
        <time>2019-06-02T10:53:15Z</time>
      </trkpt>
      <trkpt lat="43.46048" lon="2.34482">
        <ele>669</ele>
        <time>2019-06-02T10:53:16Z</time>
      </trkpt>
      <trkpt lat="43.46048" lon="2.34482">
        <ele>669</ele>
        <time>2019-06-02T10:53:23Z</time>
      </trkpt>
      <trkpt lat="43.46048" lon="2.34483">
        <ele>669</ele>
        <time>2019-06-02T10:53:44Z</time>
      </trkpt>
      <trkpt lat="43.46048" lon="2.34483">
        <ele>669</ele>
        <time>2019-06-02T10:53:57Z</time>
      </trkpt>
      <trkpt lat="43.46049" lon="2.34484">
        <ele>669</ele>
        <time>2019-06-02T10:54:11Z</time>
      </trkpt>
      <trkpt lat="43.46049" lon="2.34485">
        <ele>669</ele>
        <time>2019-06-02T10:54:13Z</time>
      </trkpt>
      <trkpt lat="43.46048" lon="2.34485">
        <ele>669</ele>
        <time>2019-06-02T10:54:18Z</time>
      </trkpt>
      <trkpt lat="43.46048" lon="2.34486">
        <ele>669</ele>
        <time>2019-06-02T10:54:29Z</time>
      </trkpt>
      <trkpt lat="43.46047" lon="2.34486">
        <ele>669</ele>
        <time>2019-06-02T10:54:42Z</time>
      </trkpt>
      <trkpt lat="43.46045" lon="2.34487">
        <ele>669</ele>
        <time>2019-06-02T10:54:56Z</time>
      </trkpt>
      <trkpt lat="43.46045" lon="2.34488">
        <ele>669</ele>
        <time>2019-06-02T10:55:01Z</time>
      </trkpt>
      <trkpt lat="43.46045" lon="2.34488">
        <ele>669</ele>
        <time>2019-06-02T10:55:18Z</time>
      </trkpt>
      <trkpt lat="43.46045" lon="2.34488">
        <ele>669</ele>
        <time>2019-06-02T10:55:21Z</time>
      </trkpt>
      <trkpt lat="43.46045" lon="2.34488">
        <ele>669</ele>
        <time>2019-06-02T10:55:46Z</time>
      </trkpt>
      <trkpt lat="43.46045" lon="2.34488">
        <ele>669</ele>
        <time>2019-06-02T10:55:47Z</time>
      </trkpt>
      <trkpt lat="43.46046" lon="2.34488">
        <ele>669</ele>
        <time>2019-06-02T10:55:49Z</time>
      </trkpt>
      <trkpt lat="43.46046" lon="2.34488">
        <ele>669</ele>
        <time>2019-06-02T10:55:52Z</time>
      </trkpt>
      <trkpt lat="43.46046" lon="2.34488">
        <ele>669</ele>
        <time>2019-06-02T10:55:53Z</time>
      </trkpt>
      <trkpt lat="43.46046" lon="2.3449">
        <ele>669</ele>
        <time>2019-06-02T10:55:59Z</time>
      </trkpt>
      <trkpt lat="43.46047" lon="2.34489">
        <ele>669</ele>
        <time>2019-06-02T10:56:00Z</time>
      </trkpt>
      <trkpt lat="43.46048" lon="2.34488">
        <ele>669</ele>
        <time>2019-06-02T10:56:02Z</time>
      </trkpt>
      <trkpt lat="43.46047" lon="2.34487">
        <ele>669</ele>
        <time>2019-06-02T10:56:04Z</time>
      </trkpt>
      <trkpt lat="43.46047" lon="2.34486">
        <ele>669</ele>
        <time>2019-06-02T10:56:06Z</time>
      </trkpt>
      <trkpt lat="43.46047" lon="2.34485">
        <ele>669</ele>
        <time>2019-06-02T10:56:10Z</time>
      </trkpt>
      <trkpt lat="43.46048" lon="2.34484">
        <ele>669</ele>
        <time>2019-06-02T10:56:13Z</time>
      </trkpt>
      <trkpt lat="43.46049" lon="2.34477">
        <ele>669</ele>
        <time>2019-06-02T10:56:22Z</time>
      </trkpt>
      <trkpt lat="43.4605" lon="2.34476">
        <ele>669</ele>
        <time>2019-06-02T10:56:26Z</time>
      </trkpt>
      <trkpt lat="43.4605" lon="2.34476">
        <ele>669</ele>
        <time>2019-06-02T10:56:27Z</time>
      </trkpt>
      <trkpt lat="43.4605" lon="2.34476">
        <ele>669</ele>
        <time>2019-06-02T10:56:28Z</time>
      </trkpt>
      <trkpt lat="43.4605" lon="2.34475">
        <ele>669</ele>
        <time>2019-06-02T10:56:38Z</time>
      </trkpt>
      <trkpt lat="43.46051" lon="2.34475">
        <ele>669</ele>
        <time>2019-06-02T10:56:44Z</time>
      </trkpt>
      <trkpt lat="43.46049" lon="2.34476">
        <ele>669</ele>
        <time>2019-06-02T10:56:59Z</time>
      </trkpt>
      <trkpt lat="43.46048" lon="2.34476">
        <ele>669</ele>
        <time>2019-06-02T10:57:00Z</time>
      </trkpt>
      <trkpt lat="43.46048" lon="2.34476">
        <ele>669</ele>
        <time>2019-06-02T10:57:01Z</time>
      </trkpt>
      <trkpt lat="43.46047" lon="2.34474">
        <ele>669</ele>
        <time>2019-06-02T10:57:12Z</time>
      </trkpt>
      <trkpt lat="43.46046" lon="2.34478">
        <ele>669</ele>
        <time>2019-06-02T10:57:22Z</time>
      </trkpt>
      <trkpt lat="43.46046" lon="2.34478">
        <ele>669</ele>
        <time>2019-06-02T10:57:27Z</time>
      </trkpt>
      <trkpt lat="43.46047" lon="2.34479">
        <ele>669</ele>
        <time>2019-06-02T10:57:36Z</time>
      </trkpt>
      <trkpt lat="43.46045" lon="2.34482">
        <ele>669</ele>
        <time>2019-06-02T10:57:48Z</time>
      </trkpt>
      <trkpt lat="43.46044" lon="2.34484">
        <ele>669</ele>
        <time>2019-06-02T10:57:53Z</time>
      </trkpt>
      <trkpt lat="43.46041" lon="2.34485">
        <ele>669</ele>
        <time>2019-06-02T10:58:05Z</time>
      </trkpt>
      <trkpt lat="43.46041" lon="2.34484">
        <ele>669</ele>
        <time>2019-06-02T10:58:09Z</time>
      </trkpt>
      <trkpt lat="43.46041" lon="2.34483">
        <ele>669</ele>
        <time>2019-06-02T10:58:12Z</time>
      </trkpt>
      <trkpt lat="43.46045" lon="2.34477">
        <ele>669</ele>
        <time>2019-06-02T10:58:15Z</time>
      </trkpt>
      <trkpt lat="43.46048" lon="2.34472">
        <ele>669</ele>
        <time>2019-06-02T10:58:17Z</time>
      </trkpt>
      <trkpt lat="43.4605" lon="2.34469">
        <ele>669</ele>
        <time>2019-06-02T10:58:20Z</time>
      </trkpt>
      <trkpt lat="43.4605" lon="2.34468">
        <ele>669</ele>
        <time>2019-06-02T10:58:25Z</time>
      </trkpt>
      <trkpt lat="43.46048" lon="2.3447">
        <ele>669</ele>
        <time>2019-06-02T10:58:33Z</time>
      </trkpt>
      <trkpt lat="43.46048" lon="2.34472">
        <ele>669</ele>
        <time>2019-06-02T10:58:42Z</time>
      </trkpt>
      <trkpt lat="43.46048" lon="2.34472">
        <ele>669</ele>
        <time>2019-06-02T10:58:45Z</time>
      </trkpt>
      <trkpt lat="43.46047" lon="2.34475">
        <ele>669</ele>
        <time>2019-06-02T10:58:54Z</time>
      </trkpt>
      <trkpt lat="43.46046" lon="2.34477">
        <ele>669</ele>
        <time>2019-06-02T10:59:03Z</time>
      </trkpt>
      <trkpt lat="43.46045" lon="2.34481">
        <ele>669</ele>
        <time>2019-06-02T10:59:12Z</time>
      </trkpt>
      <trkpt lat="43.46046" lon="2.34481">
        <ele>669</ele>
        <time>2019-06-02T10:59:21Z</time>
      </trkpt>
      <trkpt lat="43.46046" lon="2.34476">
        <ele>669</ele>
        <time>2019-06-02T10:59:29Z</time>
      </trkpt>
      <trkpt lat="43.4605" lon="2.34471">
        <ele>669</ele>
        <time>2019-06-02T10:59:34Z</time>
      </trkpt>
      <trkpt lat="43.46052" lon="2.34469">
        <ele>669</ele>
        <time>2019-06-02T10:59:36Z</time>
      </trkpt>
      <trkpt lat="43.46054" lon="2.3447">
        <ele>669</ele>
        <time>2019-06-02T10:59:41Z</time>
      </trkpt>
      <trkpt lat="43.46054" lon="2.34471">
        <ele>669</ele>
        <time>2019-06-02T10:59:44Z</time>
      </trkpt>
      <trkpt lat="43.46054" lon="2.3447">
        <ele>669</ele>
        <time>2019-06-02T10:59:45Z</time>
      </trkpt>
      <trkpt lat="43.46054" lon="2.3447">
        <ele>669</ele>
        <time>2019-06-02T10:59:53Z</time>
      </trkpt>
      <trkpt lat="43.46054" lon="2.34475">
        <ele>669</ele>
        <time>2019-06-02T10:59:58Z</time>
      </trkpt>
      <trkpt lat="43.46055" lon="2.34477">
        <ele>669</ele>
        <time>2019-06-02T11:00:01Z</time>
      </trkpt>
      <trkpt lat="43.46049" lon="2.34477">
        <ele>669</ele>
        <time>2019-06-02T11:00:10Z</time>
      </trkpt>
      <trkpt lat="43.46053" lon="2.34473">
        <ele>669</ele>
        <time>2019-06-02T11:00:15Z</time>
      </trkpt>
      <trkpt lat="43.46055" lon="2.3447">
        <ele>669</ele>
        <time>2019-06-02T11:00:17Z</time>
      </trkpt>
      <trkpt lat="43.46059" lon="2.34472">
        <ele>669</ele>
        <time>2019-06-02T11:00:25Z</time>
      </trkpt>
      <trkpt lat="43.46059" lon="2.34478">
        <ele>669</ele>
        <time>2019-06-02T11:00:32Z</time>
      </trkpt>
      <trkpt lat="43.46057" lon="2.34477">
        <ele>669</ele>
        <time>2019-06-02T11:00:38Z</time>
      </trkpt>
      <trkpt lat="43.46056" lon="2.34477">
        <ele>669</ele>
        <time>2019-06-02T11:00:40Z</time>
      </trkpt>
      <trkpt lat="43.46056" lon="2.34479">
        <ele>669</ele>
        <time>2019-06-02T11:00:48Z</time>
      </trkpt>
      <trkpt lat="43.46054" lon="2.3448">
        <ele>669</ele>
        <time>2019-06-02T11:00:54Z</time>
      </trkpt>
      <trkpt lat="43.46053" lon="2.34482">
        <ele>669</ele>
        <time>2019-06-02T11:00:55Z</time>
      </trkpt>
      <trkpt lat="43.46051" lon="2.34483">
        <ele>669</ele>
        <time>2019-06-02T11:00:56Z</time>
      </trkpt>
      <trkpt lat="43.4605" lon="2.34483">
        <ele>669</ele>
        <time>2019-06-02T11:00:59Z</time>
      </trkpt>
      <trkpt lat="43.4605" lon="2.34486">
        <ele>669</ele>
        <time>2019-06-02T11:01:05Z</time>
      </trkpt>
      <trkpt lat="43.46054" lon="2.34484">
        <ele>669</ele>
        <time>2019-06-02T11:01:10Z</time>
      </trkpt>
      <trkpt lat="43.4606" lon="2.34478">
        <ele>669</ele>
        <time>2019-06-02T11:01:19Z</time>
      </trkpt>
      <trkpt lat="43.46065" lon="2.34473">
        <ele>669</ele>
        <time>2019-06-02T11:01:27Z</time>
      </trkpt>
      <trkpt lat="43.46064" lon="2.34474">
        <ele>669</ele>
        <time>2019-06-02T11:01:29Z</time>
      </trkpt>
      <trkpt lat="43.46073" lon="2.34471">
        <ele>669</ele>
        <time>2019-06-02T11:01:38Z</time>
      </trkpt>
      <trkpt lat="43.46065" lon="2.34474">
        <ele>669</ele>
        <time>2019-06-02T11:01:45Z</time>
      </trkpt>
      <trkpt lat="43.46052" lon="2.3448">
        <ele>669</ele>
        <time>2019-06-02T11:01:53Z</time>
      </trkpt>
      <trkpt lat="43.46052" lon="2.34483">
        <ele>669</ele>
        <time>2019-06-02T11:01:58Z</time>
      </trkpt>
      <trkpt lat="43.46051" lon="2.34483">
        <ele>669</ele>
        <time>2019-06-02T11:01:59Z</time>
      </trkpt>
      <trkpt lat="43.46046" lon="2.34485">
        <ele>669</ele>
        <time>2019-06-02T11:02:09Z</time>
      </trkpt>
      <trkpt lat="43.46048" lon="2.34488">
        <ele>669</ele>
        <time>2019-06-02T11:02:15Z</time>
      </trkpt>
      <trkpt lat="43.46051" lon="2.34487">
        <ele>669</ele>
        <time>2019-06-02T11:02:18Z</time>
      </trkpt>
      <trkpt lat="43.46046" lon="2.34488">
        <ele>669</ele>
        <time>2019-06-02T11:02:24Z</time>
      </trkpt>
      <trkpt lat="43.46045" lon="2.34483">
        <ele>669</ele>
        <time>2019-06-02T11:02:31Z</time>
      </trkpt>
      <trkpt lat="43.46044" lon="2.34481">
        <ele>669</ele>
        <time>2019-06-02T11:02:33Z</time>
      </trkpt>
      <trkpt lat="43.46044" lon="2.34481">
        <ele>669</ele>
        <time>2019-06-02T11:02:45Z</time>
      </trkpt>
      <trkpt lat="43.46043" lon="2.34479">
        <ele>669</ele>
        <time>2019-06-02T11:02:52Z</time>
      </trkpt>
      <trkpt lat="43.46044" lon="2.34478">
        <ele>669</ele>
        <time>2019-06-02T11:03:03Z</time>
      </trkpt>
      <trkpt lat="43.46044" lon="2.34478">
        <ele>669</ele>
        <time>2019-06-02T11:03:05Z</time>
      </trkpt>
      <trkpt lat="43.46044" lon="2.34478">
        <ele>669</ele>
        <time>2019-06-02T11:03:06Z</time>
      </trkpt>
      <trkpt lat="43.46044" lon="2.34478">
        <ele>669</ele>
        <time>2019-06-02T11:03:16Z</time>
      </trkpt>
      <trkpt lat="43.46044" lon="2.34478">
        <ele>669</ele>
        <time>2019-06-02T11:03:25Z</time>
      </trkpt>
      <trkpt lat="43.46044" lon="2.34478">
        <ele>669</ele>
        <time>2019-06-02T11:03:27Z</time>
      </trkpt>
      <trkpt lat="43.46044" lon="2.34473">
        <ele>669</ele>
        <time>2019-06-02T11:03:35Z</time>
      </trkpt>
      <trkpt lat="43.46043" lon="2.34477">
        <ele>669</ele>
        <time>2019-06-02T11:03:42Z</time>
      </trkpt>
      <trkpt lat="43.46044" lon="2.34484">
        <ele>669</ele>
        <time>2019-06-02T11:03:50Z</time>
      </trkpt>
      <trkpt lat="43.46046" lon="2.34484">
        <ele>669</ele>
        <time>2019-06-02T11:03:57Z</time>
      </trkpt>
      <trkpt lat="43.46046" lon="2.34485">
        <ele>669</ele>
        <time>2019-06-02T11:03:59Z</time>
      </trkpt>
      <trkpt lat="43.46047" lon="2.34486">
        <ele>669</ele>
        <time>2019-06-02T11:04:02Z</time>
      </trkpt>
      <trkpt lat="43.46049" lon="2.34486">
        <ele>669</ele>
        <time>2019-06-02T11:04:08Z</time>
      </trkpt>
      <trkpt lat="43.4605" lon="2.34485">
        <ele>669</ele>
        <time>2019-06-02T11:04:15Z</time>
      </trkpt>
      <trkpt lat="43.46051" lon="2.34486">
        <ele>669</ele>
        <time>2019-06-02T11:04:18Z</time>
      </trkpt>
      <trkpt lat="43.4605" lon="2.34487">
        <ele>669</ele>
        <time>2019-06-02T11:04:26Z</time>
      </trkpt>
      <trkpt lat="43.4605" lon="2.34488">
        <ele>669</ele>
        <time>2019-06-02T11:04:27Z</time>
      </trkpt>
      <trkpt lat="43.4605" lon="2.34486">
        <ele>669</ele>
        <time>2019-06-02T11:04:29Z</time>
      </trkpt>
      <trkpt lat="43.4605" lon="2.34483">
        <ele>669</ele>
        <time>2019-06-02T11:04:33Z</time>
      </trkpt>
      <trkpt lat="43.46049" lon="2.34483">
        <ele>669</ele>
        <time>2019-06-02T11:04:39Z</time>
      </trkpt>
      <trkpt lat="43.46049" lon="2.34482">
        <ele>669</ele>
        <time>2019-06-02T11:04:41Z</time>
      </trkpt>
      <trkpt lat="43.46052" lon="2.34479">
        <ele>669</ele>
        <time>2019-06-02T11:04:48Z</time>
      </trkpt>
      <trkpt lat="43.46048" lon="2.34477">
        <ele>669</ele>
        <time>2019-06-02T11:04:56Z</time>
      </trkpt>
      <trkpt lat="43.46047" lon="2.34475">
        <ele>669</ele>
        <time>2019-06-02T11:05:02Z</time>
      </trkpt>
      <trkpt lat="43.46047" lon="2.34474">
        <ele>669</ele>
        <time>2019-06-02T11:05:03Z</time>
      </trkpt>
      <trkpt lat="43.46046" lon="2.34476">
        <ele>669</ele>
        <time>2019-06-02T11:05:12Z</time>
      </trkpt>
      <trkpt lat="43.46046" lon="2.34477">
        <ele>669</ele>
        <time>2019-06-02T11:05:17Z</time>
      </trkpt>
      <trkpt lat="43.46046" lon="2.34477">
        <ele>669</ele>
        <time>2019-06-02T11:05:19Z</time>
      </trkpt>
      <trkpt lat="43.46047" lon="2.34477">
        <ele>669</ele>
        <time>2019-06-02T11:05:22Z</time>
      </trkpt>
      <trkpt lat="43.46044" lon="2.34478">
        <ele>669</ele>
        <time>2019-06-02T11:05:25Z</time>
      </trkpt>
      <trkpt lat="43.46044" lon="2.34478">
        <ele>669</ele>
        <time>2019-06-02T11:05:29Z</time>
      </trkpt>
      <trkpt lat="43.46041" lon="2.34475">
        <ele>669</ele>
        <time>2019-06-02T11:05:37Z</time>
      </trkpt>
      <trkpt lat="43.46042" lon="2.34474">
        <ele>669</ele>
        <time>2019-06-02T11:05:39Z</time>
      </trkpt>
      <trkpt lat="43.46041" lon="2.34474">
        <ele>669</ele>
        <time>2019-06-02T11:05:41Z</time>
      </trkpt>
      <trkpt lat="43.46042" lon="2.34474">
        <ele>669</ele>
        <time>2019-06-02T11:05:44Z</time>
      </trkpt>
      <trkpt lat="43.46042" lon="2.34473">
        <ele>669</ele>
        <time>2019-06-02T11:05:51Z</time>
      </trkpt>
      <trkpt lat="43.46045" lon="2.3448">
        <ele>669</ele>
        <time>2019-06-02T11:05:57Z</time>
      </trkpt>
      <trkpt lat="43.46046" lon="2.34483">
        <ele>669</ele>
        <time>2019-06-02T11:06:06Z</time>
      </trkpt>
      <trkpt lat="43.46046" lon="2.34483">
        <ele>669</ele>
        <time>2019-06-02T11:06:07Z</time>
      </trkpt>
      <trkpt lat="43.46045" lon="2.34481">
        <ele>669</ele>
        <time>2019-06-02T11:06:11Z</time>
      </trkpt>
      <trkpt lat="43.46045" lon="2.34481">
        <ele>669</ele>
        <time>2019-06-02T11:06:14Z</time>
      </trkpt>
      <trkpt lat="43.46046" lon="2.3448">
        <ele>669</ele>
        <time>2019-06-02T11:06:23Z</time>
      </trkpt>
      <trkpt lat="43.46046" lon="2.3448">
        <ele>669</ele>
        <time>2019-06-02T11:06:26Z</time>
      </trkpt>
      <trkpt lat="43.46046" lon="2.3448">
        <ele>669</ele>
        <time>2019-06-02T11:06:29Z</time>
      </trkpt>
      <trkpt lat="43.46046" lon="2.34479">
        <ele>669</ele>
        <time>2019-06-02T11:06:33Z</time>
      </trkpt>
      <trkpt lat="43.46046" lon="2.3448">
        <ele>669</ele>
        <time>2019-06-02T11:06:37Z</time>
      </trkpt>
      <trkpt lat="43.46046" lon="2.34482">
        <ele>669</ele>
        <time>2019-06-02T11:06:44Z</time>
      </trkpt>
      <trkpt lat="43.46045" lon="2.34483">
        <ele>669</ele>
        <time>2019-06-02T11:06:51Z</time>
      </trkpt>
      <trkpt lat="43.46049" lon="2.34481">
        <ele>669</ele>
        <time>2019-06-02T11:07:01Z</time>
      </trkpt>
      <trkpt lat="43.4605" lon="2.34472">
        <ele>669</ele>
        <time>2019-06-02T11:07:07Z</time>
      </trkpt>
      <trkpt lat="43.46049" lon="2.34474">
        <ele>669</ele>
        <time>2019-06-02T11:07:14Z</time>
      </trkpt>
      <trkpt lat="43.46049" lon="2.34474">
        <ele>669</ele>
        <time>2019-06-02T11:07:16Z</time>
      </trkpt>
      <trkpt lat="43.46052" lon="2.34471">
        <ele>669</ele>
        <time>2019-06-02T11:07:21Z</time>
      </trkpt>
      <trkpt lat="43.46049" lon="2.34474">
        <ele>669</ele>
        <time>2019-06-02T11:07:22Z</time>
      </trkpt>
      <trkpt lat="43.46043" lon="2.34484">
        <ele>669</ele>
        <time>2019-06-02T11:07:29Z</time>
      </trkpt>
      <trkpt lat="43.46045" lon="2.3448">
        <ele>669</ele>
        <time>2019-06-02T11:07:37Z</time>
      </trkpt>
      <trkpt lat="43.46044" lon="2.3448">
        <ele>669</ele>
        <time>2019-06-02T11:07:44Z</time>
      </trkpt>
      <trkpt lat="43.46044" lon="2.34481">
        <ele>669</ele>
        <time>2019-06-02T11:07:53Z</time>
      </trkpt>
      <trkpt lat="43.46043" lon="2.34481">
        <ele>669</ele>
        <time>2019-06-02T11:08:05Z</time>
      </trkpt>
      <trkpt lat="43.46043" lon="2.34477">
        <ele>669</ele>
        <time>2019-06-02T11:08:14Z</time>
      </trkpt>
      <trkpt lat="43.46042" lon="2.34477">
        <ele>669</ele>
        <time>2019-06-02T11:08:18Z</time>
      </trkpt>
      <trkpt lat="43.46041" lon="2.34477">
        <ele>669</ele>
        <time>2019-06-02T11:08:21Z</time>
      </trkpt>
      <trkpt lat="43.46032" lon="2.34475">
        <ele>669</ele>
        <time>2019-06-02T11:08:31Z</time>
      </trkpt>
      <trkpt lat="43.46032" lon="2.34474">
        <ele>669</ele>
        <time>2019-06-02T11:08:36Z</time>
      </trkpt>
      <trkpt lat="43.46033" lon="2.34472">
        <ele>669</ele>
        <time>2019-06-02T11:08:39Z</time>
      </trkpt>
      <trkpt lat="43.46038" lon="2.3447">
        <ele>669</ele>
        <time>2019-06-02T11:08:47Z</time>
      </trkpt>
      <trkpt lat="43.46041" lon="2.34472">
        <ele>669</ele>
        <time>2019-06-02T11:08:53Z</time>
      </trkpt>
      <trkpt lat="43.46044" lon="2.34473">
        <ele>669</ele>
        <time>2019-06-02T11:09:04Z</time>
      </trkpt>
      <trkpt lat="43.46045" lon="2.34473">
        <ele>669</ele>
        <time>2019-06-02T11:09:09Z</time>
      </trkpt>
      <trkpt lat="43.46045" lon="2.34474">
        <ele>669</ele>
        <time>2019-06-02T11:09:12Z</time>
      </trkpt>
      <trkpt lat="43.46045" lon="2.34475">
        <ele>669</ele>
        <time>2019-06-02T11:09:14Z</time>
      </trkpt>
      <trkpt lat="43.46044" lon="2.34474">
        <ele>669</ele>
        <time>2019-06-02T11:09:15Z</time>
      </trkpt>
      <trkpt lat="43.46044" lon="2.34474">
        <ele>669</ele>
        <time>2019-06-02T11:09:18Z</time>
      </trkpt>
      <trkpt lat="43.46044" lon="2.34474">
        <ele>669</ele>
        <time>2019-06-02T11:09:20Z</time>
      </trkpt>
      <trkpt lat="43.46046" lon="2.34476">
        <ele>669</ele>
        <time>2019-06-02T11:09:24Z</time>
      </trkpt>
      <trkpt lat="43.46046" lon="2.34477">
        <ele>669</ele>
        <time>2019-06-02T11:09:28Z</time>
      </trkpt>
      <trkpt lat="43.46046" lon="2.34474">
        <ele>669</ele>
        <time>2019-06-02T11:09:38Z</time>
      </trkpt>
      <trkpt lat="43.46045" lon="2.34474">
        <ele>669</ele>
        <time>2019-06-02T11:09:41Z</time>
      </trkpt>
      <trkpt lat="43.46044" lon="2.34474">
        <ele>669</ele>
        <time>2019-06-02T11:09:47Z</time>
      </trkpt>
      <trkpt lat="43.46045" lon="2.34477">
        <ele>669</ele>
        <time>2019-06-02T11:09:52Z</time>
      </trkpt>
      <trkpt lat="43.46046" lon="2.34478">
        <ele>669</ele>
        <time>2019-06-02T11:09:55Z</time>
      </trkpt>
      <trkpt lat="43.46046" lon="2.34476">
        <ele>669</ele>
        <time>2019-06-02T11:10:03Z</time>
      </trkpt>
      <trkpt lat="43.46043" lon="2.34478">
        <ele>669</ele>
        <time>2019-06-02T11:10:10Z</time>
      </trkpt>
      <trkpt lat="43.46049" lon="2.34483">
        <ele>669</ele>
        <time>2019-06-02T11:10:19Z</time>
      </trkpt>
      <trkpt lat="43.4605" lon="2.34486">
        <ele>669</ele>
        <time>2019-06-02T11:10:26Z</time>
      </trkpt>
      <trkpt lat="43.46049" lon="2.34487">
        <ele>669</ele>
        <time>2019-06-02T11:10:39Z</time>
      </trkpt>
      <trkpt lat="43.46045" lon="2.34487">
        <ele>669</ele>
        <time>2019-06-02T11:10:46Z</time>
      </trkpt>
      <trkpt lat="43.46045" lon="2.34486">
        <ele>669</ele>
        <time>2019-06-02T11:10:48Z</time>
      </trkpt>
      <trkpt lat="43.46045" lon="2.34486">
        <ele>669</ele>
        <time>2019-06-02T11:10:56Z</time>
      </trkpt>
      <trkpt lat="43.46045" lon="2.34486">
        <ele>669</ele>
        <time>2019-06-02T11:10:59Z</time>
      </trkpt>
      <trkpt lat="43.46045" lon="2.34485">
        <ele>669</ele>
        <time>2019-06-02T11:11:01Z</time>
      </trkpt>
      <trkpt lat="43.46045" lon="2.34483">
        <ele>669</ele>
        <time>2019-06-02T11:11:03Z</time>
      </trkpt>
      <trkpt lat="43.46045" lon="2.34483">
        <ele>669</ele>
        <time>2019-06-02T11:11:05Z</time>
      </trkpt>
      <trkpt lat="43.46045" lon="2.34482">
        <ele>669</ele>
        <time>2019-06-02T11:11:07Z</time>
      </trkpt>
      <trkpt lat="43.46045" lon="2.34482">
        <ele>669</ele>
        <time>2019-06-02T11:11:09Z</time>
      </trkpt>
      <trkpt lat="43.46045" lon="2.34482">
        <ele>669</ele>
        <time>2019-06-02T11:11:12Z</time>
      </trkpt>
      <trkpt lat="43.46044" lon="2.34477">
        <ele>669</ele>
        <time>2019-06-02T11:11:18Z</time>
      </trkpt>
      <trkpt lat="43.46045" lon="2.34473">
        <ele>669</ele>
        <time>2019-06-02T11:11:30Z</time>
      </trkpt>
      <trkpt lat="43.46044" lon="2.34474">
        <ele>669</ele>
        <time>2019-06-02T11:11:41Z</time>
      </trkpt>
      <trkpt lat="43.46044" lon="2.34474">
        <ele>669</ele>
        <time>2019-06-02T11:11:44Z</time>
      </trkpt>
      <trkpt lat="43.46045" lon="2.34474">
        <ele>669</ele>
        <time>2019-06-02T11:11:51Z</time>
      </trkpt>
      <trkpt lat="43.46045" lon="2.34472">
        <ele>669</ele>
        <time>2019-06-02T11:11:58Z</time>
      </trkpt>
      <trkpt lat="43.46044" lon="2.34473">
        <ele>669</ele>
        <time>2019-06-02T11:12:00Z</time>
      </trkpt>
      <trkpt lat="43.46041" lon="2.34475">
        <ele>669</ele>
        <time>2019-06-02T11:12:11Z</time>
      </trkpt>
      <trkpt lat="43.4604" lon="2.34474">
        <ele>669</ele>
        <time>2019-06-02T11:12:15Z</time>
      </trkpt>
      <trkpt lat="43.46042" lon="2.34474">
        <ele>669</ele>
        <time>2019-06-02T11:12:17Z</time>
      </trkpt>
      <trkpt lat="43.46042" lon="2.34475">
        <ele>669</ele>
        <time>2019-06-02T11:12:18Z</time>
      </trkpt>
      <trkpt lat="43.46043" lon="2.34475">
        <ele>669</ele>
        <time>2019-06-02T11:12:19Z</time>
      </trkpt>
      <trkpt lat="43.46044" lon="2.34477">
        <ele>669</ele>
        <time>2019-06-02T11:12:25Z</time>
      </trkpt>
      <trkpt lat="43.46044" lon="2.34477">
        <ele>669</ele>
        <time>2019-06-02T11:12:26Z</time>
      </trkpt>
      <trkpt lat="43.46045" lon="2.3448">
        <ele>669</ele>
        <time>2019-06-02T11:12:31Z</time>
      </trkpt>
      <trkpt lat="43.46045" lon="2.34479">
        <ele>669</ele>
        <time>2019-06-02T11:12:44Z</time>
      </trkpt>
      <trkpt lat="43.46045" lon="2.3448">
        <ele>669</ele>
        <time>2019-06-02T11:12:51Z</time>
      </trkpt>
      <trkpt lat="43.46045" lon="2.3448">
        <ele>669</ele>
        <time>2019-06-02T11:12:57Z</time>
      </trkpt>
      <trkpt lat="43.46045" lon="2.3448">
        <ele>669</ele>
        <time>2019-06-02T11:13:01Z</time>
      </trkpt>
      <trkpt lat="43.46045" lon="2.3448">
        <ele>669</ele>
        <time>2019-06-02T11:13:05Z</time>
      </trkpt>
      <trkpt lat="43.46045" lon="2.34481">
        <ele>669</ele>
        <time>2019-06-02T11:13:07Z</time>
      </trkpt>
      <trkpt lat="43.46045" lon="2.34482">
        <ele>669</ele>
        <time>2019-06-02T11:13:14Z</time>
      </trkpt>
      <trkpt lat="43.46045" lon="2.34482">
        <ele>669</ele>
        <time>2019-06-02T11:13:15Z</time>
      </trkpt>
      <trkpt lat="43.46045" lon="2.34482">
        <ele>669</ele>
        <time>2019-06-02T11:13:20Z</time>
      </trkpt>
      <trkpt lat="43.46045" lon="2.34483">
        <ele>669</ele>
        <time>2019-06-02T11:13:29Z</time>
      </trkpt>
      <trkpt lat="43.46045" lon="2.34483">
        <ele>669</ele>
        <time>2019-06-02T11:13:35Z</time>
      </trkpt>
      <trkpt lat="43.46045" lon="2.34483">
        <ele>669</ele>
        <time>2019-06-02T11:13:44Z</time>
      </trkpt>
      <trkpt lat="43.46045" lon="2.34483">
        <ele>669</ele>
        <time>2019-06-02T11:13:46Z</time>
      </trkpt>
      <trkpt lat="43.46045" lon="2.34483">
        <ele>669</ele>
        <time>2019-06-02T11:13:48Z</time>
      </trkpt>
      <trkpt lat="43.46045" lon="2.34484">
        <ele>669</ele>
        <time>2019-06-02T11:13:54Z</time>
      </trkpt>
      <trkpt lat="43.46046" lon="2.34487">
        <ele>669</ele>
        <time>2019-06-02T11:14:04Z</time>
      </trkpt>
      <trkpt lat="43.46046" lon="2.34486">
        <ele>669</ele>
        <time>2019-06-02T11:14:13Z</time>
      </trkpt>
      <trkpt lat="43.46043" lon="2.34482">
        <ele>669</ele>
        <time>2019-06-02T11:14:22Z</time>
      </trkpt>
      <trkpt lat="43.46044" lon="2.34477">
        <ele>669</ele>
        <time>2019-06-02T11:14:29Z</time>
      </trkpt>
      <trkpt lat="43.46044" lon="2.34477">
        <ele>669</ele>
        <time>2019-06-02T11:14:36Z</time>
      </trkpt>
      <trkpt lat="43.46044" lon="2.34477">
        <ele>669</ele>
        <time>2019-06-02T11:14:39Z</time>
      </trkpt>
      <trkpt lat="43.46045" lon="2.3448">
        <ele>669</ele>
        <time>2019-06-02T11:14:48Z</time>
      </trkpt>
      <trkpt lat="43.46044" lon="2.34481">
        <ele>669</ele>
        <time>2019-06-02T11:14:58Z</time>
      </trkpt>
      <trkpt lat="43.46043" lon="2.34481">
        <ele>669</ele>
        <time>2019-06-02T11:15:06Z</time>
      </trkpt>
      <trkpt lat="43.46041" lon="2.34479">
        <ele>669</ele>
        <time>2019-06-02T11:15:16Z</time>
      </trkpt>
      <trkpt lat="43.46043" lon="2.34482">
        <ele>669</ele>
        <time>2019-06-02T11:15:24Z</time>
      </trkpt>
      <trkpt lat="43.46043" lon="2.34482">
        <ele>669</ele>
        <time>2019-06-02T11:15:28Z</time>
      </trkpt>
      <trkpt lat="43.46043" lon="2.34483">
        <ele>669</ele>
        <time>2019-06-02T11:15:35Z</time>
      </trkpt>
      <trkpt lat="43.46044" lon="2.34483">
        <ele>669</ele>
        <time>2019-06-02T11:15:44Z</time>
      </trkpt>
      <trkpt lat="43.46044" lon="2.34485">
        <ele>669</ele>
        <time>2019-06-02T11:15:53Z</time>
      </trkpt>
      <trkpt lat="43.46044" lon="2.34484">
        <ele>669</ele>
        <time>2019-06-02T11:16:04Z</time>
      </trkpt>
      <trkpt lat="43.46043" lon="2.34484">
        <ele>671</ele>
        <time>2019-06-02T11:16:05Z</time>
      </trkpt>
      <trkpt lat="43.46045" lon="2.34484">
        <ele>669</ele>
        <time>2019-06-02T11:18:02Z</time>
      </trkpt>
      <trkpt lat="43.46046" lon="2.34485">
        <ele>669</ele>
        <time>2019-06-02T11:18:07Z</time>
      </trkpt>
      <trkpt lat="43.46046" lon="2.34484">
        <ele>668.79998779297</ele>
        <time>2019-06-02T11:18:18Z</time>
      </trkpt>
      <trkpt lat="43.46046" lon="2.34485">
        <ele>668.59997558594</ele>
        <time>2019-06-02T11:18:27Z</time>
      </trkpt>
      <trkpt lat="43.46045" lon="2.34485">
        <ele>668.59997558594</ele>
        <time>2019-06-02T11:18:30Z</time>
      </trkpt>
      <trkpt lat="43.46045" lon="2.34486">
        <ele>668.59997558594</ele>
        <time>2019-06-02T11:18:32Z</time>
      </trkpt>
      <trkpt lat="43.46044" lon="2.34487">
        <ele>668.79998779297</ele>
        <time>2019-06-02T11:18:35Z</time>
      </trkpt>
      <trkpt lat="43.46045" lon="2.34487">
        <ele>669.20001220703</ele>
        <time>2019-06-02T11:18:43Z</time>
      </trkpt>
      <trkpt lat="43.46045" lon="2.34487">
        <ele>669</ele>
        <time>2019-06-02T11:18:44Z</time>
      </trkpt>
      <trkpt lat="43.46045" lon="2.34487">
        <ele>669.20001220703</ele>
        <time>2019-06-02T11:18:47Z</time>
      </trkpt>
      <trkpt lat="43.46046" lon="2.34487">
        <ele>669.20001220703</ele>
        <time>2019-06-02T11:18:53Z</time>
      </trkpt>
      <trkpt lat="43.46046" lon="2.34489">
        <ele>669.20001220703</ele>
        <time>2019-06-02T11:18:58Z</time>
      </trkpt>
      <trkpt lat="43.46046" lon="2.3449">
        <ele>669</ele>
        <time>2019-06-02T11:19:04Z</time>
      </trkpt>
      <trkpt lat="43.46045" lon="2.34491">
        <ele>669.20001220703</ele>
        <time>2019-06-02T11:19:08Z</time>
      </trkpt>
      <trkpt lat="43.46046" lon="2.34489">
        <ele>669.20001220703</ele>
        <time>2019-06-02T11:19:13Z</time>
      </trkpt>
      <trkpt lat="43.46045" lon="2.34488">
        <ele>669.20001220703</ele>
        <time>2019-06-02T11:19:22Z</time>
      </trkpt>
      <trkpt lat="43.46045" lon="2.34488">
        <ele>669.20001220703</ele>
        <time>2019-06-02T11:19:23Z</time>
      </trkpt>
      <trkpt lat="43.46045" lon="2.34489">
        <ele>669.20001220703</ele>
        <time>2019-06-02T11:19:34Z</time>
      </trkpt>
      <trkpt lat="43.46045" lon="2.34489">
        <ele>669.20001220703</ele>
        <time>2019-06-02T11:19:38Z</time>
      </trkpt>
      <trkpt lat="43.46045" lon="2.34489">
        <ele>669.20001220703</ele>
        <time>2019-06-02T11:19:46Z</time>
      </trkpt>
      <trkpt lat="43.46044" lon="2.34488">
        <ele>669.20001220703</ele>
        <time>2019-06-02T11:19:54Z</time>
      </trkpt>
      <trkpt lat="43.46044" lon="2.34488">
        <ele>669.20001220703</ele>
        <time>2019-06-02T11:20:02Z</time>
      </trkpt>
      <trkpt lat="43.46044" lon="2.34489">
        <ele>669.20001220703</ele>
        <time>2019-06-02T11:20:06Z</time>
      </trkpt>
      <trkpt lat="43.46044" lon="2.34489">
        <ele>669.20001220703</ele>
        <time>2019-06-02T11:20:09Z</time>
      </trkpt>
      <trkpt lat="43.46044" lon="2.34489">
        <ele>669.20001220703</ele>
        <time>2019-06-02T11:20:12Z</time>
      </trkpt>
      <trkpt lat="43.46044" lon="2.34489">
        <ele>669.20001220703</ele>
        <time>2019-06-02T11:20:28Z</time>
      </trkpt>
      <trkpt lat="43.46044" lon="2.34489">
        <ele>669.20001220703</ele>
        <time>2019-06-02T11:20:37Z</time>
      </trkpt>
      <trkpt lat="43.46044" lon="2.34489">
        <ele>669.20001220703</ele>
        <time>2019-06-02T11:20:43Z</time>
      </trkpt>
      <trkpt lat="43.46044" lon="2.34489">
        <ele>669.20001220703</ele>
        <time>2019-06-02T11:21:00Z</time>
      </trkpt>
      <trkpt lat="43.46044" lon="2.34485">
        <ele>669.20001220703</ele>
        <time>2019-06-02T11:21:09Z</time>
      </trkpt>
      <trkpt lat="43.46043" lon="2.34484">
        <ele>669.20001220703</ele>
        <time>2019-06-02T11:21:14Z</time>
      </trkpt>
      <trkpt lat="43.46044" lon="2.34486">
        <ele>669.20001220703</ele>
        <time>2019-06-02T11:21:26Z</time>
      </trkpt>
      <trkpt lat="43.46044" lon="2.34486">
        <ele>669.20001220703</ele>
        <time>2019-06-02T11:21:34Z</time>
      </trkpt>
      <trkpt lat="43.46042" lon="2.34486">
        <ele>669.20001220703</ele>
        <time>2019-06-02T11:21:38Z</time>
      </trkpt>
      <trkpt lat="43.46046" lon="2.34486">
        <ele>669.20001220703</ele>
        <time>2019-06-02T11:21:43Z</time>
      </trkpt>
      <trkpt lat="43.46048" lon="2.34486">
        <ele>669.20001220703</ele>
        <time>2019-06-02T11:21:50Z</time>
      </trkpt>
      <trkpt lat="43.46048" lon="2.34484">
        <ele>669.20001220703</ele>
        <time>2019-06-02T11:21:55Z</time>
      </trkpt>
      <trkpt lat="43.46048" lon="2.34484">
        <ele>669.20001220703</ele>
        <time>2019-06-02T11:21:57Z</time>
      </trkpt>
      <trkpt lat="43.46048" lon="2.34484">
        <ele>669.20001220703</ele>
        <time>2019-06-02T11:22:07Z</time>
      </trkpt>
      <trkpt lat="43.46047" lon="2.34484">
        <ele>669.20001220703</ele>
        <time>2019-06-02T11:22:11Z</time>
      </trkpt>
      <trkpt lat="43.46047" lon="2.34483">
        <ele>669.20001220703</ele>
        <time>2019-06-02T11:22:24Z</time>
      </trkpt>
      <trkpt lat="43.46047" lon="2.34482">
        <ele>669.20001220703</ele>
        <time>2019-06-02T11:22:42Z</time>
      </trkpt>
      <trkpt lat="43.46047" lon="2.34483">
        <ele>669.20001220703</ele>
        <time>2019-06-02T11:22:52Z</time>
      </trkpt>
      <trkpt lat="43.46047" lon="2.34483">
        <ele>669.20001220703</ele>
        <time>2019-06-02T11:22:55Z</time>
      </trkpt>
      <trkpt lat="43.46047" lon="2.34483">
        <ele>669.20001220703</ele>
        <time>2019-06-02T11:23:01Z</time>
      </trkpt>
      <trkpt lat="43.46047" lon="2.34483">
        <ele>669.20001220703</ele>
        <time>2019-06-02T11:23:07Z</time>
      </trkpt>
      <trkpt lat="43.46045" lon="2.34483">
        <ele>669.20001220703</ele>
        <time>2019-06-02T11:23:12Z</time>
      </trkpt>
      <trkpt lat="43.46043" lon="2.34481">
        <ele>669.20001220703</ele>
        <time>2019-06-02T11:23:17Z</time>
      </trkpt>
      <trkpt lat="43.46046" lon="2.34487">
        <ele>669.20001220703</ele>
        <time>2019-06-02T11:23:20Z</time>
      </trkpt>
      <trkpt lat="43.46048" lon="2.34488">
        <ele>669.20001220703</ele>
        <time>2019-06-02T11:23:25Z</time>
      </trkpt>
      <trkpt lat="43.46048" lon="2.34489">
        <ele>669.20001220703</ele>
        <time>2019-06-02T11:23:28Z</time>
      </trkpt>
      <trkpt lat="43.46048" lon="2.34489">
        <ele>669.20001220703</ele>
        <time>2019-06-02T11:23:37Z</time>
      </trkpt>
      <trkpt lat="43.46047" lon="2.34488">
        <ele>669.20001220703</ele>
        <time>2019-06-02T11:23:45Z</time>
      </trkpt>
      <trkpt lat="43.46046" lon="2.34488">
        <ele>669.20001220703</ele>
        <time>2019-06-02T11:23:46Z</time>
      </trkpt>
      <trkpt lat="43.46045" lon="2.34485">
        <ele>669.20001220703</ele>
        <time>2019-06-02T11:23:54Z</time>
      </trkpt>
      <trkpt lat="43.46046" lon="2.34483">
        <ele>669.20001220703</ele>
        <time>2019-06-02T11:23:58Z</time>
      </trkpt>
      <trkpt lat="43.46046" lon="2.34482">
        <ele>669.20001220703</ele>
        <time>2019-06-02T11:24:07Z</time>
      </trkpt>
      <trkpt lat="43.46046" lon="2.34482">
        <ele>669.20001220703</ele>
        <time>2019-06-02T11:24:12Z</time>
      </trkpt>
      <trkpt lat="43.46046" lon="2.34482">
        <ele>669.20001220703</ele>
        <time>2019-06-02T11:24:19Z</time>
      </trkpt>
      <trkpt lat="43.46046" lon="2.34483">
        <ele>669.20001220703</ele>
        <time>2019-06-02T11:24:29Z</time>
      </trkpt>
      <trkpt lat="43.46047" lon="2.34482">
        <ele>669.20001220703</ele>
        <time>2019-06-02T11:24:37Z</time>
      </trkpt>
      <trkpt lat="43.46047" lon="2.34483">
        <ele>669.20001220703</ele>
        <time>2019-06-02T11:24:44Z</time>
      </trkpt>
      <trkpt lat="43.46048" lon="2.34484">
        <ele>669.20001220703</ele>
        <time>2019-06-02T11:24:48Z</time>
      </trkpt>
      <trkpt lat="43.46048" lon="2.34486">
        <ele>669.20001220703</ele>
        <time>2019-06-02T11:24:55Z</time>
      </trkpt>
      <trkpt lat="43.46048" lon="2.34485">
        <ele>669.20001220703</ele>
        <time>2019-06-02T11:25:00Z</time>
      </trkpt>
      <trkpt lat="43.46047" lon="2.34483">
        <ele>669.20001220703</ele>
        <time>2019-06-02T11:25:03Z</time>
      </trkpt>
      <trkpt lat="43.46047" lon="2.34483">
        <ele>669.20001220703</ele>
        <time>2019-06-02T11:25:12Z</time>
      </trkpt>
      <trkpt lat="43.46047" lon="2.34483">
        <ele>669.20001220703</ele>
        <time>2019-06-02T11:25:13Z</time>
      </trkpt>
      <trkpt lat="43.46046" lon="2.34483">
        <ele>669.20001220703</ele>
        <time>2019-06-02T11:25:17Z</time>
      </trkpt>
      <trkpt lat="43.46046" lon="2.34483">
        <ele>669.20001220703</ele>
        <time>2019-06-02T11:25:18Z</time>
      </trkpt>
      <trkpt lat="43.46045" lon="2.34483">
        <ele>669.20001220703</ele>
        <time>2019-06-02T11:25:23Z</time>
      </trkpt>
      <trkpt lat="43.46045" lon="2.34484">
        <ele>669.20001220703</ele>
        <time>2019-06-02T11:25:25Z</time>
      </trkpt>
      <trkpt lat="43.46045" lon="2.34484">
        <ele>669.20001220703</ele>
        <time>2019-06-02T11:25:29Z</time>
      </trkpt>
      <trkpt lat="43.46045" lon="2.34484">
        <ele>669.20001220703</ele>
        <time>2019-06-02T11:25:32Z</time>
      </trkpt>
      <trkpt lat="43.46044" lon="2.34486">
        <ele>669.20001220703</ele>
        <time>2019-06-02T11:25:42Z</time>
      </trkpt>
      <trkpt lat="43.46044" lon="2.34483">
        <ele>669.20001220703</ele>
        <time>2019-06-02T11:25:47Z</time>
      </trkpt>
      <trkpt lat="43.46044" lon="2.34481">
        <ele>669.20001220703</ele>
        <time>2019-06-02T11:25:50Z</time>
      </trkpt>
      <trkpt lat="43.46042" lon="2.34477">
        <ele>669.20001220703</ele>
        <time>2019-06-02T11:25:59Z</time>
      </trkpt>
      <trkpt lat="43.46042" lon="2.34477">
        <ele>669.20001220703</ele>
        <time>2019-06-02T11:26:07Z</time>
      </trkpt>
      <trkpt lat="43.46042" lon="2.34477">
        <ele>669.20001220703</ele>
        <time>2019-06-02T11:26:08Z</time>
      </trkpt>
      <trkpt lat="43.46043" lon="2.34479">
        <ele>669.20001220703</ele>
        <time>2019-06-02T11:26:18Z</time>
      </trkpt>
      <trkpt lat="43.46044" lon="2.34479">
        <ele>669.20001220703</ele>
        <time>2019-06-02T11:26:23Z</time>
      </trkpt>
      <trkpt lat="43.46045" lon="2.34479">
        <ele>669.20001220703</ele>
        <time>2019-06-02T11:26:25Z</time>
      </trkpt>
      <trkpt lat="43.46045" lon="2.34478">
        <ele>669.20001220703</ele>
        <time>2019-06-02T11:26:36Z</time>
      </trkpt>
      <trkpt lat="43.46045" lon="2.34479">
        <ele>669.20001220703</ele>
        <time>2019-06-02T11:26:47Z</time>
      </trkpt>
      <trkpt lat="43.46043" lon="2.34478">
        <ele>669.20001220703</ele>
        <time>2019-06-02T11:26:55Z</time>
      </trkpt>
      <trkpt lat="43.4604" lon="2.34476">
        <ele>669.20001220703</ele>
        <time>2019-06-02T11:26:59Z</time>
      </trkpt>
      <trkpt lat="43.46039" lon="2.34473">
        <ele>669.20001220703</ele>
        <time>2019-06-02T11:27:04Z</time>
      </trkpt>
      <trkpt lat="43.4604" lon="2.34474">
        <ele>669.20001220703</ele>
        <time>2019-06-02T11:27:13Z</time>
      </trkpt>
      <trkpt lat="43.46039" lon="2.34478">
        <ele>669.20001220703</ele>
        <time>2019-06-02T11:27:21Z</time>
      </trkpt>
      <trkpt lat="43.46039" lon="2.34479">
        <ele>669.20001220703</ele>
        <time>2019-06-02T11:27:27Z</time>
      </trkpt>
      <trkpt lat="43.4604" lon="2.34479">
        <ele>669.20001220703</ele>
        <time>2019-06-02T11:27:35Z</time>
      </trkpt>
      <trkpt lat="43.4604" lon="2.34479">
        <ele>669.20001220703</ele>
        <time>2019-06-02T11:27:44Z</time>
      </trkpt>
      <trkpt lat="43.4604" lon="2.3448">
        <ele>669.20001220703</ele>
        <time>2019-06-02T11:27:48Z</time>
      </trkpt>
      <trkpt lat="43.46041" lon="2.34482">
        <ele>669.20001220703</ele>
        <time>2019-06-02T11:27:51Z</time>
      </trkpt>
      <trkpt lat="43.46041" lon="2.34483">
        <ele>669.20001220703</ele>
        <time>2019-06-02T11:28:00Z</time>
      </trkpt>
      <trkpt lat="43.46041" lon="2.34483">
        <ele>669.20001220703</ele>
        <time>2019-06-02T11:28:02Z</time>
      </trkpt>
      <trkpt lat="43.46039" lon="2.34485">
        <ele>669.20001220703</ele>
        <time>2019-06-02T11:28:07Z</time>
      </trkpt>
      <trkpt lat="43.46037" lon="2.34484">
        <ele>669.20001220703</ele>
        <time>2019-06-02T11:28:13Z</time>
      </trkpt>
      <trkpt lat="43.46036" lon="2.34483">
        <ele>669.20001220703</ele>
        <time>2019-06-02T11:28:21Z</time>
      </trkpt>
      <trkpt lat="43.46037" lon="2.34482">
        <ele>669.20001220703</ele>
        <time>2019-06-02T11:28:32Z</time>
      </trkpt>
      <trkpt lat="43.46037" lon="2.34481">
        <ele>669.20001220703</ele>
        <time>2019-06-02T11:28:33Z</time>
      </trkpt>
      <trkpt lat="43.46037" lon="2.34481">
        <ele>669.20001220703</ele>
        <time>2019-06-02T11:28:34Z</time>
      </trkpt>
      <trkpt lat="43.46038" lon="2.34481">
        <ele>669.20001220703</ele>
        <time>2019-06-02T11:28:37Z</time>
      </trkpt>
      <trkpt lat="43.46038" lon="2.34481">
        <ele>669.20001220703</ele>
        <time>2019-06-02T11:28:43Z</time>
      </trkpt>
      <trkpt lat="43.46038" lon="2.34482">
        <ele>669.20001220703</ele>
        <time>2019-06-02T11:28:53Z</time>
      </trkpt>
      <trkpt lat="43.46039" lon="2.34482">
        <ele>669.20001220703</ele>
        <time>2019-06-02T11:28:55Z</time>
      </trkpt>
      <trkpt lat="43.4604" lon="2.34483">
        <ele>669.20001220703</ele>
        <time>2019-06-02T11:29:03Z</time>
      </trkpt>
      <trkpt lat="43.4604" lon="2.34484">
        <ele>669.20001220703</ele>
        <time>2019-06-02T11:29:12Z</time>
      </trkpt>
      <trkpt lat="43.4604" lon="2.34481">
        <ele>669.20001220703</ele>
        <time>2019-06-02T11:29:23Z</time>
      </trkpt>
      <trkpt lat="43.4604" lon="2.34477">
        <ele>669.20001220703</ele>
        <time>2019-06-02T11:29:29Z</time>
      </trkpt>
      <trkpt lat="43.4604" lon="2.34475">
        <ele>669.20001220703</ele>
        <time>2019-06-02T11:29:33Z</time>
      </trkpt>
      <trkpt lat="43.46039" lon="2.34475">
        <ele>669.20001220703</ele>
        <time>2019-06-02T11:29:46Z</time>
      </trkpt>
      <trkpt lat="43.46036" lon="2.34478">
        <ele>669.20001220703</ele>
        <time>2019-06-02T11:29:56Z</time>
      </trkpt>
      <trkpt lat="43.46036" lon="2.34478">
        <ele>669.20001220703</ele>
        <time>2019-06-02T11:29:57Z</time>
      </trkpt>
      <trkpt lat="43.46037" lon="2.3448">
        <ele>669.20001220703</ele>
        <time>2019-06-02T11:30:01Z</time>
      </trkpt>
      <trkpt lat="43.46038" lon="2.34482">
        <ele>669.20001220703</ele>
        <time>2019-06-02T11:30:04Z</time>
      </trkpt>
      <trkpt lat="43.4604" lon="2.34482">
        <ele>669.20001220703</ele>
        <time>2019-06-02T11:30:12Z</time>
      </trkpt>
      <trkpt lat="43.46043" lon="2.34478">
        <ele>669.20001220703</ele>
        <time>2019-06-02T11:30:21Z</time>
      </trkpt>
      <trkpt lat="43.46043" lon="2.34477">
        <ele>669.20001220703</ele>
        <time>2019-06-02T11:30:31Z</time>
      </trkpt>
      <trkpt lat="43.46042" lon="2.34477">
        <ele>669.20001220703</ele>
        <time>2019-06-02T11:30:32Z</time>
      </trkpt>
      <trkpt lat="43.46042" lon="2.34476">
        <ele>669.20001220703</ele>
        <time>2019-06-02T11:30:34Z</time>
      </trkpt>
      <trkpt lat="43.4604" lon="2.34475">
        <ele>669.20001220703</ele>
        <time>2019-06-02T11:30:39Z</time>
      </trkpt>
      <trkpt lat="43.4604" lon="2.34475">
        <ele>669.20001220703</ele>
        <time>2019-06-02T11:30:41Z</time>
      </trkpt>
      <trkpt lat="43.46035" lon="2.34476">
        <ele>669.20001220703</ele>
        <time>2019-06-02T11:30:48Z</time>
      </trkpt>
      <trkpt lat="43.46035" lon="2.34477">
        <ele>669.20001220703</ele>
        <time>2019-06-02T11:30:50Z</time>
      </trkpt>
      <trkpt lat="43.46038" lon="2.34486">
        <ele>669.20001220703</ele>
        <time>2019-06-02T11:31:00Z</time>
      </trkpt>
      <trkpt lat="43.46038" lon="2.34489">
        <ele>669.20001220703</ele>
        <time>2019-06-02T11:31:10Z</time>
      </trkpt>
      <trkpt lat="43.46037" lon="2.34489">
        <ele>669.20001220703</ele>
        <time>2019-06-02T11:31:21Z</time>
      </trkpt>
      <trkpt lat="43.46037" lon="2.34489">
        <ele>669.20001220703</ele>
        <time>2019-06-02T11:31:30Z</time>
      </trkpt>
      <trkpt lat="43.46037" lon="2.34489">
        <ele>669.20001220703</ele>
        <time>2019-06-02T11:31:37Z</time>
      </trkpt>
      <trkpt lat="43.46037" lon="2.34488">
        <ele>669.20001220703</ele>
        <time>2019-06-02T11:31:42Z</time>
      </trkpt>
      <trkpt lat="43.46037" lon="2.34488">
        <ele>669.20001220703</ele>
        <time>2019-06-02T11:31:53Z</time>
      </trkpt>
      <trkpt lat="43.46037" lon="2.34487">
        <ele>669.20001220703</ele>
        <time>2019-06-02T11:32:03Z</time>
      </trkpt>
      <trkpt lat="43.46037" lon="2.34487">
        <ele>669.20001220703</ele>
        <time>2019-06-02T11:32:06Z</time>
      </trkpt>
      <trkpt lat="43.46037" lon="2.34487">
        <ele>669.20001220703</ele>
        <time>2019-06-02T11:32:10Z</time>
      </trkpt>
      <trkpt lat="43.46037" lon="2.34486">
        <ele>669.20001220703</ele>
        <time>2019-06-02T11:32:14Z</time>
      </trkpt>
      <trkpt lat="43.46038" lon="2.34485">
        <ele>669.20001220703</ele>
        <time>2019-06-02T11:32:20Z</time>
      </trkpt>
      <trkpt lat="43.46038" lon="2.34485">
        <ele>669.20001220703</ele>
        <time>2019-06-02T11:32:21Z</time>
      </trkpt>
      <trkpt lat="43.46038" lon="2.34485">
        <ele>669.20001220703</ele>
        <time>2019-06-02T11:32:23Z</time>
      </trkpt>
      <trkpt lat="43.46038" lon="2.34484">
        <ele>669.20001220703</ele>
        <time>2019-06-02T11:32:32Z</time>
      </trkpt>
      <trkpt lat="43.46038" lon="2.34484">
        <ele>669.20001220703</ele>
        <time>2019-06-02T11:32:35Z</time>
      </trkpt>
      <trkpt lat="43.46038" lon="2.34481">
        <ele>669.20001220703</ele>
        <time>2019-06-02T11:32:39Z</time>
      </trkpt>
      <trkpt lat="43.46037" lon="2.34475">
        <ele>669.20001220703</ele>
        <time>2019-06-02T11:32:43Z</time>
      </trkpt>
      <trkpt lat="43.46038" lon="2.34471">
        <ele>669.20001220703</ele>
        <time>2019-06-02T11:32:50Z</time>
      </trkpt>
      <trkpt lat="43.46038" lon="2.3447">
        <ele>669.20001220703</ele>
        <time>2019-06-02T11:32:58Z</time>
      </trkpt>
      <trkpt lat="43.46038" lon="2.34469">
        <ele>669.20001220703</ele>
        <time>2019-06-02T11:33:03Z</time>
      </trkpt>
      <trkpt lat="43.46038" lon="2.34469">
        <ele>669.20001220703</ele>
        <time>2019-06-02T11:33:06Z</time>
      </trkpt>
      <trkpt lat="43.46039" lon="2.34468">
        <ele>669.20001220703</ele>
        <time>2019-06-02T11:33:15Z</time>
      </trkpt>
      <trkpt lat="43.4604" lon="2.34468">
        <ele>669.20001220703</ele>
        <time>2019-06-02T11:33:18Z</time>
      </trkpt>
      <trkpt lat="43.46039" lon="2.34466">
        <ele>669.20001220703</ele>
        <time>2019-06-02T11:33:19Z</time>
      </trkpt>
      <trkpt lat="43.46038" lon="2.34463">
        <ele>669.20001220703</ele>
        <time>2019-06-02T11:33:24Z</time>
      </trkpt>
      <trkpt lat="43.46037" lon="2.34459">
        <ele>669.20001220703</ele>
        <time>2019-06-02T11:33:33Z</time>
      </trkpt>
      <trkpt lat="43.46037" lon="2.34459">
        <ele>669.20001220703</ele>
        <time>2019-06-02T11:33:41Z</time>
      </trkpt>
      <trkpt lat="43.46036" lon="2.34459">
        <ele>669.20001220703</ele>
        <time>2019-06-02T11:33:52Z</time>
      </trkpt>
      <trkpt lat="43.46036" lon="2.3446">
        <ele>669.20001220703</ele>
        <time>2019-06-02T11:34:01Z</time>
      </trkpt>
      <trkpt lat="43.46037" lon="2.34461">
        <ele>669.20001220703</ele>
        <time>2019-06-02T11:34:04Z</time>
      </trkpt>
      <trkpt lat="43.46037" lon="2.34461">
        <ele>669.20001220703</ele>
        <time>2019-06-02T11:34:10Z</time>
      </trkpt>
      <trkpt lat="43.46037" lon="2.34461">
        <ele>669.20001220703</ele>
        <time>2019-06-02T11:34:19Z</time>
      </trkpt>
      <trkpt lat="43.46038" lon="2.34465">
        <ele>669.20001220703</ele>
        <time>2019-06-02T11:34:28Z</time>
      </trkpt>
      <trkpt lat="43.46037" lon="2.34466">
        <ele>669.20001220703</ele>
        <time>2019-06-02T11:34:35Z</time>
      </trkpt>
      <trkpt lat="43.46037" lon="2.34468">
        <ele>669.20001220703</ele>
        <time>2019-06-02T11:34:39Z</time>
      </trkpt>
      <trkpt lat="43.46038" lon="2.34468">
        <ele>669.20001220703</ele>
        <time>2019-06-02T11:34:42Z</time>
      </trkpt>
      <trkpt lat="43.46038" lon="2.34468">
        <ele>669.20001220703</ele>
        <time>2019-06-02T11:34:43Z</time>
      </trkpt>
      <trkpt lat="43.46038" lon="2.34469">
        <ele>669.20001220703</ele>
        <time>2019-06-02T11:34:50Z</time>
      </trkpt>
      <trkpt lat="43.46038" lon="2.34469">
        <ele>669.20001220703</ele>
        <time>2019-06-02T11:34:51Z</time>
      </trkpt>
      <trkpt lat="43.4604" lon="2.3447">
        <ele>669.20001220703</ele>
        <time>2019-06-02T11:35:00Z</time>
      </trkpt>
      <trkpt lat="43.46038" lon="2.34471">
        <ele>669.20001220703</ele>
        <time>2019-06-02T11:35:09Z</time>
      </trkpt>
      <trkpt lat="43.46038" lon="2.34471">
        <ele>669.20001220703</ele>
        <time>2019-06-02T11:35:15Z</time>
      </trkpt>
      <trkpt lat="43.46038" lon="2.34472">
        <ele>669.20001220703</ele>
        <time>2019-06-02T11:35:16Z</time>
      </trkpt>
      <trkpt lat="43.46038" lon="2.34473">
        <ele>669.20001220703</ele>
        <time>2019-06-02T11:35:19Z</time>
      </trkpt>
      <trkpt lat="43.46041" lon="2.3448">
        <ele>669.20001220703</ele>
        <time>2019-06-02T11:35:27Z</time>
      </trkpt>
      <trkpt lat="43.4604" lon="2.3448">
        <ele>669.20001220703</ele>
        <time>2019-06-02T11:35:35Z</time>
      </trkpt>
      <trkpt lat="43.46038" lon="2.34479">
        <ele>669.20001220703</ele>
        <time>2019-06-02T11:35:44Z</time>
      </trkpt>
      <trkpt lat="43.46037" lon="2.34476">
        <ele>669.20001220703</ele>
        <time>2019-06-02T11:35:54Z</time>
      </trkpt>
      <trkpt lat="43.46038" lon="2.34477">
        <ele>669.20001220703</ele>
        <time>2019-06-02T11:36:02Z</time>
      </trkpt>
      <trkpt lat="43.46039" lon="2.34478">
        <ele>669.20001220703</ele>
        <time>2019-06-02T11:36:10Z</time>
      </trkpt>
      <trkpt lat="43.4604" lon="2.34478">
        <ele>669.20001220703</ele>
        <time>2019-06-02T11:36:11Z</time>
      </trkpt>
      <trkpt lat="43.4604" lon="2.34478">
        <ele>669.20001220703</ele>
        <time>2019-06-02T11:36:12Z</time>
      </trkpt>
      <trkpt lat="43.46046" lon="2.3448">
        <ele>669.20001220703</ele>
        <time>2019-06-02T11:36:21Z</time>
      </trkpt>
      <trkpt lat="43.46042" lon="2.34482">
        <ele>669.20001220703</ele>
        <time>2019-06-02T11:36:25Z</time>
      </trkpt>
      <trkpt lat="43.4604" lon="2.34483">
        <ele>669.20001220703</ele>
        <time>2019-06-02T11:36:27Z</time>
      </trkpt>
      <trkpt lat="43.46038" lon="2.34485">
        <ele>671.79998779297</ele>
        <time>2019-06-02T11:36:29Z</time>
      </trkpt>
      <trkpt lat="43.46037" lon="2.34485">
        <ele>673.20001220703</ele>
        <time>2019-06-02T11:36:30Z</time>
      </trkpt>
      <trkpt lat="43.46036" lon="2.34486">
        <ele>674.59997558594</ele>
        <time>2019-06-02T11:36:32Z</time>
      </trkpt>
      <trkpt lat="43.46035" lon="2.34486">
        <ele>675.20001220703</ele>
        <time>2019-06-02T11:36:34Z</time>
      </trkpt>
      <trkpt lat="43.46033" lon="2.34487">
        <ele>675.40002441406</ele>
        <time>2019-06-02T11:36:38Z</time>
      </trkpt>
      <trkpt lat="43.46033" lon="2.34489">
        <ele>675.40002441406</ele>
        <time>2019-06-02T11:36:40Z</time>
      </trkpt>
      <trkpt lat="43.46033" lon="2.34491">
        <ele>675.59997558594</ele>
        <time>2019-06-02T11:36:43Z</time>
      </trkpt>
      <trkpt lat="43.46031" lon="2.34497">
        <ele>675.20001220703</ele>
        <time>2019-06-02T11:36:47Z</time>
      </trkpt>
      <trkpt lat="43.46028" lon="2.34507">
        <ele>675.59997558594</ele>
        <time>2019-06-02T11:36:53Z</time>
      </trkpt>
      <trkpt lat="43.46027" lon="2.34512">
        <ele>675.59997558594</ele>
        <time>2019-06-02T11:36:57Z</time>
      </trkpt>
      <trkpt lat="43.46027" lon="2.34513">
        <ele>675.40002441406</ele>
        <time>2019-06-02T11:36:59Z</time>
      </trkpt>
      <trkpt lat="43.46027" lon="2.34516">
        <ele>675</ele>
        <time>2019-06-02T11:37:02Z</time>
      </trkpt>
      <trkpt lat="43.46029" lon="2.34519">
        <ele>674.79998779297</ele>
        <time>2019-06-02T11:37:06Z</time>
      </trkpt>
      <trkpt lat="43.46029" lon="2.3452">
        <ele>674.79998779297</ele>
        <time>2019-06-02T11:37:09Z</time>
      </trkpt>
      <trkpt lat="43.4603" lon="2.34522">
        <ele>674.79998779297</ele>
        <time>2019-06-02T11:37:12Z</time>
      </trkpt>
      <trkpt lat="43.46031" lon="2.34521">
        <ele>674.20001220703</ele>
        <time>2019-06-02T11:37:20Z</time>
      </trkpt>
      <trkpt lat="43.46033" lon="2.34524">
        <ele>674</ele>
        <time>2019-06-02T11:37:29Z</time>
      </trkpt>
      <trkpt lat="43.46035" lon="2.34524">
        <ele>674</ele>
        <time>2019-06-02T11:37:34Z</time>
      </trkpt>
      <trkpt lat="43.46037" lon="2.34524">
        <ele>674</ele>
        <time>2019-06-02T11:37:37Z</time>
      </trkpt>
      <trkpt lat="43.46038" lon="2.3453">
        <ele>674.40002441406</ele>
        <time>2019-06-02T11:37:45Z</time>
      </trkpt>
      <trkpt lat="43.46037" lon="2.34526">
        <ele>674.20001220703</ele>
        <time>2019-06-02T11:37:53Z</time>
      </trkpt>
      <trkpt lat="43.46038" lon="2.34525">
        <ele>674.20001220703</ele>
        <time>2019-06-02T11:37:54Z</time>
      </trkpt>
      <trkpt lat="43.46038" lon="2.34522">
        <ele>674.20001220703</ele>
        <time>2019-06-02T11:37:57Z</time>
      </trkpt>
      <trkpt lat="43.46037" lon="2.3452">
        <ele>674.20001220703</ele>
        <time>2019-06-02T11:37:58Z</time>
      </trkpt>
      <trkpt lat="43.46034" lon="2.34517">
        <ele>674.79998779297</ele>
        <time>2019-06-02T11:38:00Z</time>
      </trkpt>
      <trkpt lat="43.46028" lon="2.34512">
        <ele>675</ele>
        <time>2019-06-02T11:38:04Z</time>
      </trkpt>
      <trkpt lat="43.46024" lon="2.34511">
        <ele>675.40002441406</ele>
        <time>2019-06-02T11:38:08Z</time>
      </trkpt>
      <trkpt lat="43.46021" lon="2.3451">
        <ele>675.59997558594</ele>
        <time>2019-06-02T11:38:11Z</time>
      </trkpt>
      <trkpt lat="43.46019" lon="2.34506">
        <ele>675.79998779297</ele>
        <time>2019-06-02T11:38:14Z</time>
      </trkpt>
      <trkpt lat="43.46019" lon="2.34503">
        <ele>675.79998779297</ele>
        <time>2019-06-02T11:38:17Z</time>
      </trkpt>
      <trkpt lat="43.46019" lon="2.34502">
        <ele>675.79998779297</ele>
        <time>2019-06-02T11:38:18Z</time>
      </trkpt>
      <trkpt lat="43.46009" lon="2.34489">
        <ele>676.20001220703</ele>
        <time>2019-06-02T11:38:24Z</time>
      </trkpt>
      <trkpt lat="43.46007" lon="2.34488">
        <ele>676.20001220703</ele>
        <time>2019-06-02T11:38:25Z</time>
      </trkpt>
      <trkpt lat="43.46006" lon="2.34485">
        <ele>676.59997558594</ele>
        <time>2019-06-02T11:38:28Z</time>
      </trkpt>
      <trkpt lat="43.46005" lon="2.34483">
        <ele>676.40002441406</ele>
        <time>2019-06-02T11:38:29Z</time>
      </trkpt>
      <trkpt lat="43.46005" lon="2.34481">
        <ele>676.79998779297</ele>
        <time>2019-06-02T11:38:31Z</time>
      </trkpt>
      <trkpt lat="43.46001" lon="2.34478">
        <ele>677.40002441406</ele>
        <time>2019-06-02T11:38:35Z</time>
      </trkpt>
      <trkpt lat="43.46" lon="2.34478">
        <ele>677.79998779297</ele>
        <time>2019-06-02T11:38:36Z</time>
      </trkpt>
      <trkpt lat="43.46" lon="2.34477">
        <ele>678</ele>
        <time>2019-06-02T11:38:37Z</time>
      </trkpt>
      <trkpt lat="43.46001" lon="2.34474">
        <ele>677.79998779297</ele>
        <time>2019-06-02T11:38:42Z</time>
      </trkpt>
      <trkpt lat="43.46001" lon="2.34474">
        <ele>677.59997558594</ele>
        <time>2019-06-02T11:38:43Z</time>
      </trkpt>
      <trkpt lat="43.45999" lon="2.34473">
        <ele>677.40002441406</ele>
        <time>2019-06-02T11:38:51Z</time>
      </trkpt>
      <trkpt lat="43.45999" lon="2.34473">
        <ele>677.40002441406</ele>
        <time>2019-06-02T11:38:58Z</time>
      </trkpt>
      <trkpt lat="43.46008" lon="2.34478">
        <ele>677.40002441406</ele>
        <time>2019-06-02T11:39:05Z</time>
      </trkpt>
      <trkpt lat="43.46009" lon="2.34478">
        <ele>677.20001220703</ele>
        <time>2019-06-02T11:39:10Z</time>
      </trkpt>
      <trkpt lat="43.46009" lon="2.34476">
        <ele>677.20001220703</ele>
        <time>2019-06-02T11:39:14Z</time>
      </trkpt>
      <trkpt lat="43.46009" lon="2.34473">
        <ele>676.79998779297</ele>
        <time>2019-06-02T11:39:17Z</time>
      </trkpt>
      <trkpt lat="43.46005" lon="2.34475">
        <ele>677.20001220703</ele>
        <time>2019-06-02T11:39:23Z</time>
      </trkpt>
      <trkpt lat="43.46001" lon="2.34477">
        <ele>677.20001220703</ele>
        <time>2019-06-02T11:39:31Z</time>
      </trkpt>
      <trkpt lat="43.46002" lon="2.34477">
        <ele>677.40002441406</ele>
        <time>2019-06-02T11:39:35Z</time>
      </trkpt>
      <trkpt lat="43.46003" lon="2.34478">
        <ele>677.20001220703</ele>
        <time>2019-06-02T11:39:38Z</time>
      </trkpt>
      <trkpt lat="43.46003" lon="2.34477">
        <ele>677.59997558594</ele>
        <time>2019-06-02T11:39:42Z</time>
      </trkpt>
      <trkpt lat="43.46002" lon="2.34475">
        <ele>677.59997558594</ele>
        <time>2019-06-02T11:39:47Z</time>
      </trkpt>
      <trkpt lat="43.46003" lon="2.34475">
        <ele>677.59997558594</ele>
        <time>2019-06-02T11:39:48Z</time>
      </trkpt>
      <trkpt lat="43.46003" lon="2.34475">
        <ele>677.59997558594</ele>
        <time>2019-06-02T11:39:53Z</time>
      </trkpt>
      <trkpt lat="43.46003" lon="2.34475">
        <ele>677.59997558594</ele>
        <time>2019-06-02T11:39:57Z</time>
      </trkpt>
      <trkpt lat="43.46003" lon="2.34475">
        <ele>677.59997558594</ele>
        <time>2019-06-02T11:40:04Z</time>
      </trkpt>
      <trkpt lat="43.46001" lon="2.34475">
        <ele>677.59997558594</ele>
        <time>2019-06-02T11:40:13Z</time>
      </trkpt>
      <trkpt lat="43.45999" lon="2.34476">
        <ele>677.59997558594</ele>
        <time>2019-06-02T11:40:21Z</time>
      </trkpt>
      <trkpt lat="43.45999" lon="2.34476">
        <ele>677.59997558594</ele>
        <time>2019-06-02T11:40:23Z</time>
      </trkpt>
      <trkpt lat="43.45999" lon="2.34476">
        <ele>677.59997558594</ele>
        <time>2019-06-02T11:40:25Z</time>
      </trkpt>
      <trkpt lat="43.45998" lon="2.34477">
        <ele>677.59997558594</ele>
        <time>2019-06-02T11:40:29Z</time>
      </trkpt>
      <trkpt lat="43.45999" lon="2.34477">
        <ele>677.59997558594</ele>
        <time>2019-06-02T11:40:30Z</time>
      </trkpt>
      <trkpt lat="43.45999" lon="2.34477">
        <ele>677.59997558594</ele>
        <time>2019-06-02T11:40:31Z</time>
      </trkpt>
      <trkpt lat="43.46001" lon="2.34472">
        <ele>677.59997558594</ele>
        <time>2019-06-02T11:40:40Z</time>
      </trkpt>
      <trkpt lat="43.46003" lon="2.34473">
        <ele>677.59997558594</ele>
        <time>2019-06-02T11:40:47Z</time>
      </trkpt>
      <trkpt lat="43.46005" lon="2.34474">
        <ele>677.59997558594</ele>
        <time>2019-06-02T11:40:52Z</time>
      </trkpt>
      <trkpt lat="43.46006" lon="2.34474">
        <ele>677.59997558594</ele>
        <time>2019-06-02T11:40:54Z</time>
      </trkpt>
      <trkpt lat="43.46007" lon="2.34475">
        <ele>677.59997558594</ele>
        <time>2019-06-02T11:40:59Z</time>
      </trkpt>
      <trkpt lat="43.46009" lon="2.34476">
        <ele>677.59997558594</ele>
        <time>2019-06-02T11:41:02Z</time>
      </trkpt>
      <trkpt lat="43.46009" lon="2.34477">
        <ele>677.59997558594</ele>
        <time>2019-06-02T11:41:04Z</time>
      </trkpt>
      <trkpt lat="43.46011" lon="2.34478">
        <ele>677.59997558594</ele>
        <time>2019-06-02T11:41:11Z</time>
      </trkpt>
      <trkpt lat="43.46013" lon="2.34478">
        <ele>677.59997558594</ele>
        <time>2019-06-02T11:41:18Z</time>
      </trkpt>
      <trkpt lat="43.46013" lon="2.34478">
        <ele>677.59997558594</ele>
        <time>2019-06-02T11:41:19Z</time>
      </trkpt>
      <trkpt lat="43.46012" lon="2.34479">
        <ele>677.59997558594</ele>
        <time>2019-06-02T11:41:22Z</time>
      </trkpt>
      <trkpt lat="43.46006" lon="2.34479">
        <ele>677.59997558594</ele>
        <time>2019-06-02T11:41:27Z</time>
      </trkpt>
      <trkpt lat="43.46001" lon="2.34477">
        <ele>677.59997558594</ele>
        <time>2019-06-02T11:41:33Z</time>
      </trkpt>
      <trkpt lat="43.46001" lon="2.34471">
        <ele>677.59997558594</ele>
        <time>2019-06-02T11:41:40Z</time>
      </trkpt>
      <trkpt lat="43.46004" lon="2.34463">
        <ele>677.59997558594</ele>
        <time>2019-06-02T11:41:47Z</time>
      </trkpt>
      <trkpt lat="43.46004" lon="2.34463">
        <ele>677.59997558594</ele>
        <time>2019-06-02T11:41:48Z</time>
      </trkpt>
      <trkpt lat="43.46002" lon="2.34459">
        <ele>677.59997558594</ele>
        <time>2019-06-02T11:41:52Z</time>
      </trkpt>
      <trkpt lat="43.46001" lon="2.34459">
        <ele>677.59997558594</ele>
        <time>2019-06-02T11:41:53Z</time>
      </trkpt>
      <trkpt lat="43.46" lon="2.3446">
        <ele>677.59997558594</ele>
        <time>2019-06-02T11:41:56Z</time>
      </trkpt>
      <trkpt lat="43.46001" lon="2.34464">
        <ele>677.59997558594</ele>
        <time>2019-06-02T11:41:59Z</time>
      </trkpt>
      <trkpt lat="43.46004" lon="2.34467">
        <ele>677.59997558594</ele>
        <time>2019-06-02T11:42:01Z</time>
      </trkpt>
      <trkpt lat="43.46005" lon="2.3447">
        <ele>677.59997558594</ele>
        <time>2019-06-02T11:42:05Z</time>
      </trkpt>
      <trkpt lat="43.46008" lon="2.34473">
        <ele>677.59997558594</ele>
        <time>2019-06-02T11:42:08Z</time>
      </trkpt>
      <trkpt lat="43.46005" lon="2.34472">
        <ele>677.59997558594</ele>
        <time>2019-06-02T11:42:18Z</time>
      </trkpt>
      <trkpt lat="43.46" lon="2.3447">
        <ele>677.59997558594</ele>
        <time>2019-06-02T11:42:22Z</time>
      </trkpt>
      <trkpt lat="43.46005" lon="2.34469">
        <ele>677.59997558594</ele>
        <time>2019-06-02T11:42:25Z</time>
      </trkpt>
      <trkpt lat="43.46007" lon="2.34473">
        <ele>677.59997558594</ele>
        <time>2019-06-02T11:42:32Z</time>
      </trkpt>
      <trkpt lat="43.46007" lon="2.34475">
        <ele>677.59997558594</ele>
        <time>2019-06-02T11:42:41Z</time>
      </trkpt>
      <trkpt lat="43.46007" lon="2.34475">
        <ele>677.59997558594</ele>
        <time>2019-06-02T11:42:42Z</time>
      </trkpt>
      <trkpt lat="43.46007" lon="2.34475">
        <ele>677.59997558594</ele>
        <time>2019-06-02T11:42:47Z</time>
      </trkpt>
      <trkpt lat="43.46007" lon="2.34476">
        <ele>677.59997558594</ele>
        <time>2019-06-02T11:42:49Z</time>
      </trkpt>
      <trkpt lat="43.46003" lon="2.34477">
        <ele>677.59997558594</ele>
        <time>2019-06-02T11:42:59Z</time>
      </trkpt>
      <trkpt lat="43.46" lon="2.34478">
        <ele>677.59997558594</ele>
        <time>2019-06-02T11:43:07Z</time>
      </trkpt>
      <trkpt lat="43.45999" lon="2.34477">
        <ele>677.59997558594</ele>
        <time>2019-06-02T11:43:12Z</time>
      </trkpt>
      <trkpt lat="43.45999" lon="2.34477">
        <ele>677.59997558594</ele>
        <time>2019-06-02T11:43:16Z</time>
      </trkpt>
      <trkpt lat="43.45997" lon="2.34479">
        <ele>677.59997558594</ele>
        <time>2019-06-02T11:43:23Z</time>
      </trkpt>
      <trkpt lat="43.45995" lon="2.34481">
        <ele>677.59997558594</ele>
        <time>2019-06-02T11:43:25Z</time>
      </trkpt>
      <trkpt lat="43.45991" lon="2.34482">
        <ele>677.59997558594</ele>
        <time>2019-06-02T11:43:31Z</time>
      </trkpt>
      <trkpt lat="43.4599" lon="2.34482">
        <ele>677.59997558594</ele>
        <time>2019-06-02T11:43:33Z</time>
      </trkpt>
      <trkpt lat="43.45992" lon="2.34474">
        <ele>677.59997558594</ele>
        <time>2019-06-02T11:43:42Z</time>
      </trkpt>
      <trkpt lat="43.45992" lon="2.34474">
        <ele>677.59997558594</ele>
        <time>2019-06-02T11:43:51Z</time>
      </trkpt>
      <trkpt lat="43.45994" lon="2.34473">
        <ele>677.59997558594</ele>
        <time>2019-06-02T11:44:00Z</time>
      </trkpt>
      <trkpt lat="43.45994" lon="2.34473">
        <ele>677.59997558594</ele>
        <time>2019-06-02T11:44:02Z</time>
      </trkpt>
      <trkpt lat="43.45995" lon="2.34473">
        <ele>677.59997558594</ele>
        <time>2019-06-02T11:44:08Z</time>
      </trkpt>
      <trkpt lat="43.45994" lon="2.34474">
        <ele>677.59997558594</ele>
        <time>2019-06-02T11:44:10Z</time>
      </trkpt>
      <trkpt lat="43.45996" lon="2.34472">
        <ele>677.59997558594</ele>
        <time>2019-06-02T11:44:19Z</time>
      </trkpt>
      <trkpt lat="43.45996" lon="2.34472">
        <ele>677.59997558594</ele>
        <time>2019-06-02T11:44:26Z</time>
      </trkpt>
      <trkpt lat="43.45995" lon="2.34473">
        <ele>677.59997558594</ele>
        <time>2019-06-02T11:44:28Z</time>
      </trkpt>
      <trkpt lat="43.45995" lon="2.34473">
        <ele>677.59997558594</ele>
        <time>2019-06-02T11:44:32Z</time>
      </trkpt>
      <trkpt lat="43.45996" lon="2.34474">
        <ele>677.59997558594</ele>
        <time>2019-06-02T11:44:39Z</time>
      </trkpt>
      <trkpt lat="43.46002" lon="2.34477">
        <ele>677.59997558594</ele>
        <time>2019-06-02T11:44:49Z</time>
      </trkpt>
      <trkpt lat="43.46003" lon="2.34479">
        <ele>677.59997558594</ele>
        <time>2019-06-02T11:44:56Z</time>
      </trkpt>
      <trkpt lat="43.46003" lon="2.34479">
        <ele>677.59997558594</ele>
        <time>2019-06-02T11:44:58Z</time>
      </trkpt>
      <trkpt lat="43.46003" lon="2.34479">
        <ele>677.59997558594</ele>
        <time>2019-06-02T11:44:59Z</time>
      </trkpt>
      <trkpt lat="43.46005" lon="2.34479">
        <ele>677.59997558594</ele>
        <time>2019-06-02T11:45:06Z</time>
      </trkpt>
      <trkpt lat="43.46005" lon="2.34479">
        <ele>677.59997558594</ele>
        <time>2019-06-02T11:45:08Z</time>
      </trkpt>
      <trkpt lat="43.46006" lon="2.3448">
        <ele>677.59997558594</ele>
        <time>2019-06-02T11:45:10Z</time>
      </trkpt>
      <trkpt lat="43.46003" lon="2.34477">
        <ele>677.59997558594</ele>
        <time>2019-06-02T11:45:16Z</time>
      </trkpt>
      <trkpt lat="43.45995" lon="2.34468">
        <ele>677.59997558594</ele>
        <time>2019-06-02T11:45:23Z</time>
      </trkpt>
      <trkpt lat="43.45993" lon="2.34465">
        <ele>677.59997558594</ele>
        <time>2019-06-02T11:45:28Z</time>
      </trkpt>
      <trkpt lat="43.45993" lon="2.34465">
        <ele>677.59997558594</ele>
        <time>2019-06-02T11:45:31Z</time>
      </trkpt>
      <trkpt lat="43.45993" lon="2.34466">
        <ele>677.59997558594</ele>
        <time>2019-06-02T11:45:33Z</time>
      </trkpt>
      <trkpt lat="43.45993" lon="2.34467">
        <ele>677.59997558594</ele>
        <time>2019-06-02T11:45:41Z</time>
      </trkpt>
      <trkpt lat="43.45995" lon="2.34469">
        <ele>677.59997558594</ele>
        <time>2019-06-02T11:45:46Z</time>
      </trkpt>
      <trkpt lat="43.45995" lon="2.34469">
        <ele>677.59997558594</ele>
        <time>2019-06-02T11:45:47Z</time>
      </trkpt>
      <trkpt lat="43.45995" lon="2.34471">
        <ele>677.59997558594</ele>
        <time>2019-06-02T11:45:54Z</time>
      </trkpt>
      <trkpt lat="43.45996" lon="2.3447">
        <ele>677.59997558594</ele>
        <time>2019-06-02T11:45:57Z</time>
      </trkpt>
      <trkpt lat="43.45997" lon="2.34467">
        <ele>677.59997558594</ele>
        <time>2019-06-02T11:46:06Z</time>
      </trkpt>
      <trkpt lat="43.45996" lon="2.34466">
        <ele>677.59997558594</ele>
        <time>2019-06-02T11:46:13Z</time>
      </trkpt>
      <trkpt lat="43.45996" lon="2.34465">
        <ele>677.59997558594</ele>
        <time>2019-06-02T11:46:16Z</time>
      </trkpt>
      <trkpt lat="43.45996" lon="2.34465">
        <ele>677.59997558594</ele>
        <time>2019-06-02T11:46:26Z</time>
      </trkpt>
      <trkpt lat="43.45996" lon="2.34466">
        <ele>677.59997558594</ele>
        <time>2019-06-02T11:46:38Z</time>
      </trkpt>
      <trkpt lat="43.45996" lon="2.34466">
        <ele>677.59997558594</ele>
        <time>2019-06-02T11:46:40Z</time>
      </trkpt>
      <trkpt lat="43.45996" lon="2.34465">
        <ele>677.59997558594</ele>
        <time>2019-06-02T11:46:42Z</time>
      </trkpt>
      <trkpt lat="43.45998" lon="2.34465">
        <ele>677.59997558594</ele>
        <time>2019-06-02T11:46:49Z</time>
      </trkpt>
      <trkpt lat="43.45995" lon="2.34463">
        <ele>677.59997558594</ele>
        <time>2019-06-02T11:46:56Z</time>
      </trkpt>
      <trkpt lat="43.45994" lon="2.34462">
        <ele>677.59997558594</ele>
        <time>2019-06-02T11:47:05Z</time>
      </trkpt>
      <trkpt lat="43.45995" lon="2.34463">
        <ele>677.59997558594</ele>
        <time>2019-06-02T11:47:12Z</time>
      </trkpt>
      <trkpt lat="43.45995" lon="2.34463">
        <ele>677.59997558594</ele>
        <time>2019-06-02T11:47:13Z</time>
      </trkpt>
      <trkpt lat="43.45997" lon="2.34467">
        <ele>677.59997558594</ele>
        <time>2019-06-02T11:47:25Z</time>
      </trkpt>
      <trkpt lat="43.45997" lon="2.34467">
        <ele>677.59997558594</ele>
        <time>2019-06-02T11:47:32Z</time>
      </trkpt>
      <trkpt lat="43.45997" lon="2.34468">
        <ele>677.59997558594</ele>
        <time>2019-06-02T11:47:37Z</time>
      </trkpt>
      <trkpt lat="43.45996" lon="2.34468">
        <ele>677.59997558594</ele>
        <time>2019-06-02T11:47:41Z</time>
      </trkpt>
      <trkpt lat="43.45994" lon="2.34469">
        <ele>677.59997558594</ele>
        <time>2019-06-02T11:47:49Z</time>
      </trkpt>
      <trkpt lat="43.45994" lon="2.34469">
        <ele>677.59997558594</ele>
        <time>2019-06-02T11:47:51Z</time>
      </trkpt>
      <trkpt lat="43.45994" lon="2.34469">
        <ele>677.59997558594</ele>
        <time>2019-06-02T11:47:59Z</time>
      </trkpt>
      <trkpt lat="43.45996" lon="2.34469">
        <ele>677.59997558594</ele>
        <time>2019-06-02T11:48:05Z</time>
      </trkpt>
      <trkpt lat="43.45996" lon="2.34471">
        <ele>677.59997558594</ele>
        <time>2019-06-02T11:48:09Z</time>
      </trkpt>
      <trkpt lat="43.45997" lon="2.34471">
        <ele>677.59997558594</ele>
        <time>2019-06-02T11:48:11Z</time>
      </trkpt>
      <trkpt lat="43.45997" lon="2.34471">
        <ele>677.59997558594</ele>
        <time>2019-06-02T11:48:14Z</time>
      </trkpt>
      <trkpt lat="43.45997" lon="2.34471">
        <ele>677.59997558594</ele>
        <time>2019-06-02T11:48:19Z</time>
      </trkpt>
      <trkpt lat="43.45996" lon="2.34472">
        <ele>677.59997558594</ele>
        <time>2019-06-02T11:48:21Z</time>
      </trkpt>
      <trkpt lat="43.45998" lon="2.3448">
        <ele>677.59997558594</ele>
        <time>2019-06-02T11:48:29Z</time>
      </trkpt>
      <trkpt lat="43.45999" lon="2.34484">
        <ele>677.59997558594</ele>
        <time>2019-06-02T11:48:38Z</time>
      </trkpt>
      <trkpt lat="43.46" lon="2.34484">
        <ele>677.59997558594</ele>
        <time>2019-06-02T11:48:47Z</time>
      </trkpt>
      <trkpt lat="43.45999" lon="2.34484">
        <ele>677.59997558594</ele>
        <time>2019-06-02T11:48:53Z</time>
      </trkpt>
      <trkpt lat="43.45999" lon="2.34483">
        <ele>677.59997558594</ele>
        <time>2019-06-02T11:48:54Z</time>
      </trkpt>
      <trkpt lat="43.45999" lon="2.34483">
        <ele>677.59997558594</ele>
        <time>2019-06-02T11:48:55Z</time>
      </trkpt>
      <trkpt lat="43.45999" lon="2.34483">
        <ele>677.59997558594</ele>
        <time>2019-06-02T11:48:56Z</time>
      </trkpt>
      <trkpt lat="43.45996" lon="2.34479">
        <ele>677.59997558594</ele>
        <time>2019-06-02T11:49:05Z</time>
      </trkpt>
      <trkpt lat="43.45995" lon="2.34478">
        <ele>677.59997558594</ele>
        <time>2019-06-02T11:49:13Z</time>
      </trkpt>
      <trkpt lat="43.45993" lon="2.34475">
        <ele>677.59997558594</ele>
        <time>2019-06-02T11:49:15Z</time>
      </trkpt>
      <trkpt lat="43.45989" lon="2.34471">
        <ele>677.59997558594</ele>
        <time>2019-06-02T11:49:20Z</time>
      </trkpt>
      <trkpt lat="43.45988" lon="2.3447">
        <ele>677.59997558594</ele>
        <time>2019-06-02T11:49:22Z</time>
      </trkpt>
      <trkpt lat="43.45989" lon="2.3447">
        <ele>677.59997558594</ele>
        <time>2019-06-02T11:49:30Z</time>
      </trkpt>
      <trkpt lat="43.45993" lon="2.34469">
        <ele>677.59997558594</ele>
        <time>2019-06-02T11:49:39Z</time>
      </trkpt>
      <trkpt lat="43.45991" lon="2.34466">
        <ele>677.59997558594</ele>
        <time>2019-06-02T11:49:50Z</time>
      </trkpt>
      <trkpt lat="43.45993" lon="2.34468">
        <ele>677.59997558594</ele>
        <time>2019-06-02T11:49:54Z</time>
      </trkpt>
      <trkpt lat="43.45993" lon="2.34468">
        <ele>677.59997558594</ele>
        <time>2019-06-02T11:49:58Z</time>
      </trkpt>
      <trkpt lat="43.45991" lon="2.34467">
        <ele>677.59997558594</ele>
        <time>2019-06-02T11:50:01Z</time>
      </trkpt>
      <trkpt lat="43.45992" lon="2.34465">
        <ele>677.59997558594</ele>
        <time>2019-06-02T11:50:03Z</time>
      </trkpt>
      <trkpt lat="43.45994" lon="2.34464">
        <ele>677.59997558594</ele>
        <time>2019-06-02T11:50:05Z</time>
      </trkpt>
      <trkpt lat="43.45994" lon="2.34463">
        <ele>677.59997558594</ele>
        <time>2019-06-02T11:50:06Z</time>
      </trkpt>
      <trkpt lat="43.45993" lon="2.34461">
        <ele>677.59997558594</ele>
        <time>2019-06-02T11:50:10Z</time>
      </trkpt>
      <trkpt lat="43.45992" lon="2.3446">
        <ele>677.59997558594</ele>
        <time>2019-06-02T11:50:16Z</time>
      </trkpt>
      <trkpt lat="43.45992" lon="2.34459">
        <ele>677.59997558594</ele>
        <time>2019-06-02T11:50:19Z</time>
      </trkpt>
      <trkpt lat="43.45992" lon="2.34459">
        <ele>677.59997558594</ele>
        <time>2019-06-02T11:50:23Z</time>
      </trkpt>
      <trkpt lat="43.45992" lon="2.34461">
        <ele>677.59997558594</ele>
        <time>2019-06-02T11:50:27Z</time>
      </trkpt>
      <trkpt lat="43.45994" lon="2.34462">
        <ele>677.59997558594</ele>
        <time>2019-06-02T11:50:30Z</time>
      </trkpt>
      <trkpt lat="43.45995" lon="2.34462">
        <ele>677.59997558594</ele>
        <time>2019-06-02T11:50:38Z</time>
      </trkpt>
      <trkpt lat="43.45995" lon="2.34462">
        <ele>677.59997558594</ele>
        <time>2019-06-02T11:50:39Z</time>
      </trkpt>
      <trkpt lat="43.45995" lon="2.34462">
        <ele>677.59997558594</ele>
        <time>2019-06-02T11:50:43Z</time>
      </trkpt>
      <trkpt lat="43.45996" lon="2.34462">
        <ele>677.59997558594</ele>
        <time>2019-06-02T11:50:45Z</time>
      </trkpt>
      <trkpt lat="43.45996" lon="2.34461">
        <ele>677.59997558594</ele>
        <time>2019-06-02T11:50:47Z</time>
      </trkpt>
      <trkpt lat="43.45996" lon="2.34457">
        <ele>677.59997558594</ele>
        <time>2019-06-02T11:50:56Z</time>
      </trkpt>
      <trkpt lat="43.45993" lon="2.34457">
        <ele>677.59997558594</ele>
        <time>2019-06-02T11:51:03Z</time>
      </trkpt>
      <trkpt lat="43.45993" lon="2.34457">
        <ele>677.59997558594</ele>
        <time>2019-06-02T11:51:06Z</time>
      </trkpt>
      <trkpt lat="43.45992" lon="2.34457">
        <ele>677.59997558594</ele>
        <time>2019-06-02T11:51:07Z</time>
      </trkpt>
      <trkpt lat="43.4599" lon="2.34459">
        <ele>677.59997558594</ele>
        <time>2019-06-02T11:51:15Z</time>
      </trkpt>
      <trkpt lat="43.45988" lon="2.3446">
        <ele>677.59997558594</ele>
        <time>2019-06-02T11:51:19Z</time>
      </trkpt>
      <trkpt lat="43.45989" lon="2.34461">
        <ele>677.59997558594</ele>
        <time>2019-06-02T11:51:23Z</time>
      </trkpt>
      <trkpt lat="43.45989" lon="2.34461">
        <ele>677.59997558594</ele>
        <time>2019-06-02T11:51:24Z</time>
      </trkpt>
      <trkpt lat="43.45989" lon="2.34461">
        <ele>677.59997558594</ele>
        <time>2019-06-02T11:51:29Z</time>
      </trkpt>
      <trkpt lat="43.45989" lon="2.34462">
        <ele>677.59997558594</ele>
        <time>2019-06-02T11:51:31Z</time>
      </trkpt>
      <trkpt lat="43.45989" lon="2.34462">
        <ele>677.59997558594</ele>
        <time>2019-06-02T11:51:35Z</time>
      </trkpt>
      <trkpt lat="43.45994" lon="2.34464">
        <ele>677.59997558594</ele>
        <time>2019-06-02T11:51:39Z</time>
      </trkpt>
      <trkpt lat="43.46009" lon="2.34471">
        <ele>677.59997558594</ele>
        <time>2019-06-02T11:51:46Z</time>
      </trkpt>
      <trkpt lat="43.46016" lon="2.34475">
        <ele>677.40002441406</ele>
        <time>2019-06-02T11:51:52Z</time>
      </trkpt>
      <trkpt lat="43.46017" lon="2.34476">
        <ele>677.40002441406</ele>
        <time>2019-06-02T11:51:54Z</time>
      </trkpt>
      <trkpt lat="43.46022" lon="2.34478">
        <ele>677</ele>
        <time>2019-06-02T11:51:59Z</time>
      </trkpt>
      <trkpt lat="43.46024" lon="2.34478">
        <ele>676.59997558594</ele>
        <time>2019-06-02T11:52:02Z</time>
      </trkpt>
      <trkpt lat="43.46026" lon="2.34478">
        <ele>676.79998779297</ele>
        <time>2019-06-02T11:52:04Z</time>
      </trkpt>
      <trkpt lat="43.4603" lon="2.34478">
        <ele>677.20001220703</ele>
        <time>2019-06-02T11:52:09Z</time>
      </trkpt>
      <trkpt lat="43.46032" lon="2.34477">
        <ele>676.59997558594</ele>
        <time>2019-06-02T11:52:11Z</time>
      </trkpt>
      <trkpt lat="43.46038" lon="2.34478">
        <ele>676.40002441406</ele>
        <time>2019-06-02T11:52:18Z</time>
      </trkpt>
      <trkpt lat="43.46041" lon="2.34481">
        <ele>676.40002441406</ele>
        <time>2019-06-02T11:52:25Z</time>
      </trkpt>
      <trkpt lat="43.46042" lon="2.34481">
        <ele>675.79998779297</ele>
        <time>2019-06-02T11:52:29Z</time>
      </trkpt>
      <trkpt lat="43.46044" lon="2.34477">
        <ele>675.59997558594</ele>
        <time>2019-06-02T11:52:33Z</time>
      </trkpt>
      <trkpt lat="43.46045" lon="2.34474">
        <ele>675.59997558594</ele>
        <time>2019-06-02T11:52:37Z</time>
      </trkpt>
      <trkpt lat="43.46046" lon="2.34473">
        <ele>675.79998779297</ele>
        <time>2019-06-02T11:52:38Z</time>
      </trkpt>
      <trkpt lat="43.46046" lon="2.34472">
        <ele>675.79998779297</ele>
        <time>2019-06-02T11:52:39Z</time>
      </trkpt>
      <trkpt lat="43.46047" lon="2.3447">
        <ele>676</ele>
        <time>2019-06-02T11:52:41Z</time>
      </trkpt>
      <trkpt lat="43.4605" lon="2.34473">
        <ele>676.20001220703</ele>
        <time>2019-06-02T11:52:45Z</time>
      </trkpt>
      <trkpt lat="43.46053" lon="2.34481">
        <ele>675.59997558594</ele>
        <time>2019-06-02T11:52:51Z</time>
      </trkpt>
      <trkpt lat="43.4605" lon="2.34485">
        <ele>675.59997558594</ele>
        <time>2019-06-02T11:52:59Z</time>
      </trkpt>
      <trkpt lat="43.46052" lon="2.34486">
        <ele>675.59997558594</ele>
        <time>2019-06-02T11:53:08Z</time>
      </trkpt>
      <trkpt lat="43.46049" lon="2.34489">
        <ele>675.40002441406</ele>
        <time>2019-06-02T11:53:17Z</time>
      </trkpt>
      <trkpt lat="43.46052" lon="2.34488">
        <ele>675.59997558594</ele>
        <time>2019-06-02T11:53:24Z</time>
      </trkpt>
      <trkpt lat="43.46054" lon="2.34488">
        <ele>675.40002441406</ele>
        <time>2019-06-02T11:53:34Z</time>
      </trkpt>
      <trkpt lat="43.46055" lon="2.34487">
        <ele>675.40002441406</ele>
        <time>2019-06-02T11:53:36Z</time>
      </trkpt>
      <trkpt lat="43.46055" lon="2.34486">
        <ele>675.40002441406</ele>
        <time>2019-06-02T11:53:40Z</time>
      </trkpt>
      <trkpt lat="43.46055" lon="2.34485">
        <ele>675.40002441406</ele>
        <time>2019-06-02T11:53:43Z</time>
      </trkpt>
      <trkpt lat="43.46055" lon="2.34485">
        <ele>675.40002441406</ele>
        <time>2019-06-02T11:53:45Z</time>
      </trkpt>
      <trkpt lat="43.46056" lon="2.34485">
        <ele>675.40002441406</ele>
        <time>2019-06-02T11:53:52Z</time>
      </trkpt>
      <trkpt lat="43.46055" lon="2.34483">
        <ele>675.40002441406</ele>
        <time>2019-06-02T11:53:59Z</time>
      </trkpt>
      <trkpt lat="43.46054" lon="2.34483">
        <ele>675.40002441406</ele>
        <time>2019-06-02T11:54:01Z</time>
      </trkpt>
      <trkpt lat="43.46054" lon="2.34482">
        <ele>675.40002441406</ele>
        <time>2019-06-02T11:54:02Z</time>
      </trkpt>
      <trkpt lat="43.46054" lon="2.34483">
        <ele>675.40002441406</ele>
        <time>2019-06-02T11:54:09Z</time>
      </trkpt>
      <trkpt lat="43.46053" lon="2.34483">
        <ele>675.40002441406</ele>
        <time>2019-06-02T11:54:13Z</time>
      </trkpt>
      <trkpt lat="43.46053" lon="2.34483">
        <ele>675.40002441406</ele>
        <time>2019-06-02T11:54:16Z</time>
      </trkpt>
      <trkpt lat="43.46053" lon="2.34483">
        <ele>675.40002441406</ele>
        <time>2019-06-02T11:54:18Z</time>
      </trkpt>
      <trkpt lat="43.46053" lon="2.34483">
        <ele>675.40002441406</ele>
        <time>2019-06-02T11:54:23Z</time>
      </trkpt>
      <trkpt lat="43.46053" lon="2.34482">
        <ele>675.40002441406</ele>
        <time>2019-06-02T11:54:28Z</time>
      </trkpt>
      <trkpt lat="43.46053" lon="2.34484">
        <ele>675.40002441406</ele>
        <time>2019-06-02T11:54:34Z</time>
      </trkpt>
      <trkpt lat="43.46055" lon="2.34485">
        <ele>675.40002441406</ele>
        <time>2019-06-02T11:54:44Z</time>
      </trkpt>
      <trkpt lat="43.46056" lon="2.34484">
        <ele>675.40002441406</ele>
        <time>2019-06-02T11:54:52Z</time>
      </trkpt>
      <trkpt lat="43.46056" lon="2.34485">
        <ele>675.40002441406</ele>
        <time>2019-06-02T11:55:00Z</time>
      </trkpt>
      <trkpt lat="43.46056" lon="2.34485">
        <ele>675.40002441406</ele>
        <time>2019-06-02T11:55:09Z</time>
      </trkpt>
      <trkpt lat="43.46056" lon="2.34485">
        <ele>675.40002441406</ele>
        <time>2019-06-02T11:55:10Z</time>
      </trkpt>
      <trkpt lat="43.46056" lon="2.34484">
        <ele>675.40002441406</ele>
        <time>2019-06-02T11:55:13Z</time>
      </trkpt>
      <trkpt lat="43.46055" lon="2.34484">
        <ele>675.40002441406</ele>
        <time>2019-06-02T11:55:17Z</time>
      </trkpt>
      <trkpt lat="43.46056" lon="2.34482">
        <ele>675.40002441406</ele>
        <time>2019-06-02T11:55:26Z</time>
      </trkpt>
      <trkpt lat="43.46056" lon="2.34482">
        <ele>675.40002441406</ele>
        <time>2019-06-02T11:55:31Z</time>
      </trkpt>
      <trkpt lat="43.46057" lon="2.34483">
        <ele>675.40002441406</ele>
        <time>2019-06-02T11:55:35Z</time>
      </trkpt>
      <trkpt lat="43.46056" lon="2.34484">
        <ele>675.40002441406</ele>
        <time>2019-06-02T11:55:43Z</time>
      </trkpt>
      <trkpt lat="43.46055" lon="2.34485">
        <ele>675.40002441406</ele>
        <time>2019-06-02T11:55:53Z</time>
      </trkpt>
      <trkpt lat="43.46055" lon="2.34485">
        <ele>675.40002441406</ele>
        <time>2019-06-02T11:55:54Z</time>
      </trkpt>
      <trkpt lat="43.46055" lon="2.34485">
        <ele>675.40002441406</ele>
        <time>2019-06-02T11:55:55Z</time>
      </trkpt>
      <trkpt lat="43.46054" lon="2.34485">
        <ele>675.40002441406</ele>
        <time>2019-06-02T11:55:56Z</time>
      </trkpt>
      <trkpt lat="43.46054" lon="2.34485">
        <ele>675.40002441406</ele>
        <time>2019-06-02T11:56:00Z</time>
      </trkpt>
      <trkpt lat="43.46054" lon="2.34487">
        <ele>675.40002441406</ele>
        <time>2019-06-02T11:56:05Z</time>
      </trkpt>
      <trkpt lat="43.46053" lon="2.34487">
        <ele>675.40002441406</ele>
        <time>2019-06-02T11:56:09Z</time>
      </trkpt>
      <trkpt lat="43.46054" lon="2.34488">
        <ele>675.40002441406</ele>
        <time>2019-06-02T11:56:14Z</time>
      </trkpt>
      <trkpt lat="43.46054" lon="2.34488">
        <ele>675.40002441406</ele>
        <time>2019-06-02T11:56:15Z</time>
      </trkpt>
      <trkpt lat="43.46054" lon="2.34489">
        <ele>675.40002441406</ele>
        <time>2019-06-02T11:56:23Z</time>
      </trkpt>
      <trkpt lat="43.46054" lon="2.34489">
        <ele>675.40002441406</ele>
        <time>2019-06-02T11:56:24Z</time>
      </trkpt>
      <trkpt lat="43.46055" lon="2.34487">
        <ele>675.40002441406</ele>
        <time>2019-06-02T11:56:34Z</time>
      </trkpt>
      <trkpt lat="43.46051" lon="2.34487">
        <ele>675.40002441406</ele>
        <time>2019-06-02T11:56:42Z</time>
      </trkpt>
      <trkpt lat="43.46048" lon="2.34487">
        <ele>675.40002441406</ele>
        <time>2019-06-02T11:56:50Z</time>
      </trkpt>
      <trkpt lat="43.46048" lon="2.34487">
        <ele>675.40002441406</ele>
        <time>2019-06-02T11:56:52Z</time>
      </trkpt>
      <trkpt lat="43.46048" lon="2.34488">
        <ele>675.40002441406</ele>
        <time>2019-06-02T11:56:56Z</time>
      </trkpt>
      <trkpt lat="43.46048" lon="2.34489">
        <ele>675.40002441406</ele>
        <time>2019-06-02T11:56:57Z</time>
      </trkpt>
      <trkpt lat="43.46048" lon="2.34489">
        <ele>675.40002441406</ele>
        <time>2019-06-02T11:56:59Z</time>
      </trkpt>
      <trkpt lat="43.46048" lon="2.34489">
        <ele>675.40002441406</ele>
        <time>2019-06-02T11:57:00Z</time>
      </trkpt>
      <trkpt lat="43.4605" lon="2.34487">
        <ele>675.40002441406</ele>
        <time>2019-06-02T11:57:03Z</time>
      </trkpt>
      <trkpt lat="43.4605" lon="2.34488">
        <ele>675.40002441406</ele>
        <time>2019-06-02T11:57:06Z</time>
      </trkpt>
      <trkpt lat="43.46048" lon="2.34489">
        <ele>675.40002441406</ele>
        <time>2019-06-02T11:57:10Z</time>
      </trkpt>
      <trkpt lat="43.46044" lon="2.34487">
        <ele>675.40002441406</ele>
        <time>2019-06-02T11:57:17Z</time>
      </trkpt>
      <trkpt lat="43.46044" lon="2.34489">
        <ele>675.40002441406</ele>
        <time>2019-06-02T11:57:27Z</time>
      </trkpt>
      <trkpt lat="43.46045" lon="2.3449">
        <ele>675.40002441406</ele>
        <time>2019-06-02T11:57:30Z</time>
      </trkpt>
      <trkpt lat="43.46046" lon="2.3449">
        <ele>675.40002441406</ele>
        <time>2019-06-02T11:57:32Z</time>
      </trkpt>
      <trkpt lat="43.46045" lon="2.34489">
        <ele>675.40002441406</ele>
        <time>2019-06-02T11:57:34Z</time>
      </trkpt>
      <trkpt lat="43.46044" lon="2.34489">
        <ele>675.40002441406</ele>
        <time>2019-06-02T11:57:42Z</time>
      </trkpt>
      <trkpt lat="43.46043" lon="2.3449">
        <ele>675.40002441406</ele>
        <time>2019-06-02T11:57:49Z</time>
      </trkpt>
      <trkpt lat="43.46043" lon="2.3449">
        <ele>675.40002441406</ele>
        <time>2019-06-02T11:57:51Z</time>
      </trkpt>
      <trkpt lat="43.46042" lon="2.3449">
        <ele>675.40002441406</ele>
        <time>2019-06-02T11:57:54Z</time>
      </trkpt>
      <trkpt lat="43.46044" lon="2.3449">
        <ele>675.40002441406</ele>
        <time>2019-06-02T11:58:01Z</time>
      </trkpt>
      <trkpt lat="43.46046" lon="2.34489">
        <ele>675.40002441406</ele>
        <time>2019-06-02T11:58:09Z</time>
      </trkpt>
      <trkpt lat="43.46047" lon="2.34488">
        <ele>675.40002441406</ele>
        <time>2019-06-02T11:58:14Z</time>
      </trkpt>
      <trkpt lat="43.46047" lon="2.34488">
        <ele>675.40002441406</ele>
        <time>2019-06-02T11:58:17Z</time>
      </trkpt>
      <trkpt lat="43.46046" lon="2.34488">
        <ele>675.40002441406</ele>
        <time>2019-06-02T11:58:22Z</time>
      </trkpt>
      <trkpt lat="43.46046" lon="2.34487">
        <ele>675.40002441406</ele>
        <time>2019-06-02T11:58:24Z</time>
      </trkpt>
      <trkpt lat="43.46046" lon="2.34486">
        <ele>675.40002441406</ele>
        <time>2019-06-02T11:58:30Z</time>
      </trkpt>
      <trkpt lat="43.46046" lon="2.34485">
        <ele>675.40002441406</ele>
        <time>2019-06-02T11:58:31Z</time>
      </trkpt>
      <trkpt lat="43.46046" lon="2.34485">
        <ele>675.40002441406</ele>
        <time>2019-06-02T11:58:35Z</time>
      </trkpt>
      <trkpt lat="43.46045" lon="2.34483">
        <ele>675.40002441406</ele>
        <time>2019-06-02T11:58:37Z</time>
      </trkpt>
      <trkpt lat="43.46046" lon="2.34483">
        <ele>675.79998779297</ele>
        <time>2019-06-02T11:58:39Z</time>
      </trkpt>
      <trkpt lat="43.46046" lon="2.34484">
        <ele>676.40002441406</ele>
        <time>2019-06-02T11:58:41Z</time>
      </trkpt>
      <trkpt lat="43.46045" lon="2.34485">
        <ele>676.59997558594</ele>
        <time>2019-06-02T11:58:43Z</time>
      </trkpt>
      <trkpt lat="43.46045" lon="2.34485">
        <ele>676.79998779297</ele>
        <time>2019-06-02T11:58:45Z</time>
      </trkpt>
      <trkpt lat="43.46044" lon="2.34484">
        <ele>676.79998779297</ele>
        <time>2019-06-02T11:58:50Z</time>
      </trkpt>
      <trkpt lat="43.46044" lon="2.34484">
        <ele>676.79998779297</ele>
        <time>2019-06-02T11:58:51Z</time>
      </trkpt>
      <trkpt lat="43.46044" lon="2.34483">
        <ele>676.59997558594</ele>
        <time>2019-06-02T11:59:00Z</time>
      </trkpt>
      <trkpt lat="43.46045" lon="2.34482">
        <ele>676.40002441406</ele>
        <time>2019-06-02T11:59:06Z</time>
      </trkpt>
      <trkpt lat="43.46044" lon="2.34483">
        <ele>675</ele>
        <time>2019-06-02T11:59:13Z</time>
      </trkpt>
      <trkpt lat="43.46044" lon="2.34483">
        <ele>674.40002441406</ele>
        <time>2019-06-02T11:59:14Z</time>
      </trkpt>
      <trkpt lat="43.46043" lon="2.34482">
        <ele>674.20001220703</ele>
        <time>2019-06-02T11:59:18Z</time>
      </trkpt>
      <trkpt lat="43.46044" lon="2.34483">
        <ele>674.40002441406</ele>
        <time>2019-06-02T11:59:23Z</time>
      </trkpt>
      <trkpt lat="43.46046" lon="2.34488">
        <ele>674.59997558594</ele>
        <time>2019-06-02T11:59:30Z</time>
      </trkpt>
      <trkpt lat="43.46046" lon="2.34489">
        <ele>674.20001220703</ele>
        <time>2019-06-02T11:59:37Z</time>
      </trkpt>
      <trkpt lat="43.46047" lon="2.34487">
        <ele>674.40002441406</ele>
        <time>2019-06-02T11:59:43Z</time>
      </trkpt>
      <trkpt lat="43.46047" lon="2.34486">
        <ele>674.59997558594</ele>
        <time>2019-06-02T11:59:45Z</time>
      </trkpt>
      <trkpt lat="43.46046" lon="2.34485">
        <ele>674.59997558594</ele>
        <time>2019-06-02T11:59:47Z</time>
      </trkpt>
      <trkpt lat="43.46042" lon="2.34484">
        <ele>674.79998779297</ele>
        <time>2019-06-02T11:59:57Z</time>
      </trkpt>
      <trkpt lat="43.46042" lon="2.3448">
        <ele>675</ele>
        <time>2019-06-02T12:00:04Z</time>
      </trkpt>
      <trkpt lat="43.46041" lon="2.34476">
        <ele>674.59997558594</ele>
        <time>2019-06-02T12:00:12Z</time>
      </trkpt>
      <trkpt lat="43.46041" lon="2.34475">
        <ele>674.59997558594</ele>
        <time>2019-06-02T12:00:15Z</time>
      </trkpt>
      <trkpt lat="43.46041" lon="2.34475">
        <ele>674.59997558594</ele>
        <time>2019-06-02T12:00:19Z</time>
      </trkpt>
      <trkpt lat="43.46041" lon="2.34475">
        <ele>674.59997558594</ele>
        <time>2019-06-02T12:00:20Z</time>
      </trkpt>
      <trkpt lat="43.4604" lon="2.34476">
        <ele>674.59997558594</ele>
        <time>2019-06-02T12:00:21Z</time>
      </trkpt>
      <trkpt lat="43.46039" lon="2.34475">
        <ele>674.59997558594</ele>
        <time>2019-06-02T12:00:30Z</time>
      </trkpt>
      <trkpt lat="43.46039" lon="2.34475">
        <ele>674.59997558594</ele>
        <time>2019-06-02T12:00:33Z</time>
      </trkpt>
      <trkpt lat="43.46038" lon="2.34476">
        <ele>674.79998779297</ele>
        <time>2019-06-02T12:00:36Z</time>
      </trkpt>
      <trkpt lat="43.46037" lon="2.34478">
        <ele>675.20001220703</ele>
        <time>2019-06-02T12:00:40Z</time>
      </trkpt>
      <trkpt lat="43.46036" lon="2.34479">
        <ele>675.20001220703</ele>
        <time>2019-06-02T12:00:41Z</time>
      </trkpt>
      <trkpt lat="43.46035" lon="2.34478">
        <ele>674.79998779297</ele>
        <time>2019-06-02T12:00:47Z</time>
      </trkpt>
      <trkpt lat="43.46036" lon="2.34478">
        <ele>674.79998779297</ele>
        <time>2019-06-02T12:00:48Z</time>
      </trkpt>
      <trkpt lat="43.46037" lon="2.34478">
        <ele>674.79998779297</ele>
        <time>2019-06-02T12:00:52Z</time>
      </trkpt>
      <trkpt lat="43.46036" lon="2.34478">
        <ele>674.79998779297</ele>
        <time>2019-06-02T12:00:55Z</time>
      </trkpt>
      <trkpt lat="43.46036" lon="2.34478">
        <ele>674.79998779297</ele>
        <time>2019-06-02T12:00:56Z</time>
      </trkpt>
      <trkpt lat="43.46036" lon="2.34477">
        <ele>674.79998779297</ele>
        <time>2019-06-02T12:00:57Z</time>
      </trkpt>
      <trkpt lat="43.46036" lon="2.34476">
        <ele>674.79998779297</ele>
        <time>2019-06-02T12:00:59Z</time>
      </trkpt>
      <trkpt lat="43.46036" lon="2.34474">
        <ele>674.79998779297</ele>
        <time>2019-06-02T12:01:02Z</time>
      </trkpt>
      <trkpt lat="43.46035" lon="2.34473">
        <ele>674.79998779297</ele>
        <time>2019-06-02T12:01:07Z</time>
      </trkpt>
      <trkpt lat="43.46035" lon="2.34472">
        <ele>674.79998779297</ele>
        <time>2019-06-02T12:01:09Z</time>
      </trkpt>
      <trkpt lat="43.46033" lon="2.34473">
        <ele>674.79998779297</ele>
        <time>2019-06-02T12:01:17Z</time>
      </trkpt>
      <trkpt lat="43.46032" lon="2.34471">
        <ele>674.79998779297</ele>
        <time>2019-06-02T12:01:23Z</time>
      </trkpt>
      <trkpt lat="43.46033" lon="2.3447">
        <ele>674.79998779297</ele>
        <time>2019-06-02T12:01:27Z</time>
      </trkpt>
      <trkpt lat="43.46033" lon="2.34471">
        <ele>674.79998779297</ele>
        <time>2019-06-02T12:01:30Z</time>
      </trkpt>
      <trkpt lat="43.46033" lon="2.34471">
        <ele>674.79998779297</ele>
        <time>2019-06-02T12:01:31Z</time>
      </trkpt>
      <trkpt lat="43.46031" lon="2.34474">
        <ele>674.79998779297</ele>
        <time>2019-06-02T12:01:37Z</time>
      </trkpt>
      <trkpt lat="43.46031" lon="2.34474">
        <ele>674.79998779297</ele>
        <time>2019-06-02T12:01:38Z</time>
      </trkpt>
      <trkpt lat="43.46031" lon="2.34475">
        <ele>674.79998779297</ele>
        <time>2019-06-02T12:01:43Z</time>
      </trkpt>
      <trkpt lat="43.4603" lon="2.34475">
        <ele>674.79998779297</ele>
        <time>2019-06-02T12:01:44Z</time>
      </trkpt>
      <trkpt lat="43.4603" lon="2.34476">
        <ele>674.79998779297</ele>
        <time>2019-06-02T12:01:50Z</time>
      </trkpt>
      <trkpt lat="43.4603" lon="2.34476">
        <ele>674.79998779297</ele>
        <time>2019-06-02T12:01:52Z</time>
      </trkpt>
      <trkpt lat="43.46031" lon="2.34476">
        <ele>674.79998779297</ele>
        <time>2019-06-02T12:01:55Z</time>
      </trkpt>
      <trkpt lat="43.46031" lon="2.34476">
        <ele>674.79998779297</ele>
        <time>2019-06-02T12:01:57Z</time>
      </trkpt>
      <trkpt lat="43.4603" lon="2.34474">
        <ele>674.79998779297</ele>
        <time>2019-06-02T12:02:04Z</time>
      </trkpt>
      <trkpt lat="43.46029" lon="2.34473">
        <ele>674.79998779297</ele>
        <time>2019-06-02T12:02:08Z</time>
      </trkpt>
      <trkpt lat="43.46029" lon="2.34472">
        <ele>674.79998779297</ele>
        <time>2019-06-02T12:02:12Z</time>
      </trkpt>
      <trkpt lat="43.46028" lon="2.34469">
        <ele>674.79998779297</ele>
        <time>2019-06-02T12:02:16Z</time>
      </trkpt>
      <trkpt lat="43.4603" lon="2.34472">
        <ele>674.79998779297</ele>
        <time>2019-06-02T12:02:20Z</time>
      </trkpt>
      <trkpt lat="43.46034" lon="2.34472">
        <ele>674.79998779297</ele>
        <time>2019-06-02T12:02:26Z</time>
      </trkpt>
      <trkpt lat="43.46034" lon="2.34472">
        <ele>674.79998779297</ele>
        <time>2019-06-02T12:02:34Z</time>
      </trkpt>
      <trkpt lat="43.46031" lon="2.34471">
        <ele>674.79998779297</ele>
        <time>2019-06-02T12:02:41Z</time>
      </trkpt>
      <trkpt lat="43.46026" lon="2.34466">
        <ele>674.79998779297</ele>
        <time>2019-06-02T12:02:48Z</time>
      </trkpt>
      <trkpt lat="43.46026" lon="2.34467">
        <ele>674.79998779297</ele>
        <time>2019-06-02T12:02:49Z</time>
      </trkpt>
      <trkpt lat="43.46027" lon="2.34468">
        <ele>674.79998779297</ele>
        <time>2019-06-02T12:02:53Z</time>
      </trkpt>
      <trkpt lat="43.46027" lon="2.34469">
        <ele>674.79998779297</ele>
        <time>2019-06-02T12:02:58Z</time>
      </trkpt>
      <trkpt lat="43.46027" lon="2.34468">
        <ele>674.79998779297</ele>
        <time>2019-06-02T12:03:02Z</time>
      </trkpt>
      <trkpt lat="43.46027" lon="2.34465">
        <ele>674.79998779297</ele>
        <time>2019-06-02T12:03:05Z</time>
      </trkpt>
      <trkpt lat="43.46027" lon="2.34463">
        <ele>674.79998779297</ele>
        <time>2019-06-02T12:03:07Z</time>
      </trkpt>
      <trkpt lat="43.46028" lon="2.34463">
        <ele>674.79998779297</ele>
        <time>2019-06-02T12:03:09Z</time>
      </trkpt>
      <trkpt lat="43.46028" lon="2.34463">
        <ele>674.79998779297</ele>
        <time>2019-06-02T12:03:11Z</time>
      </trkpt>
      <trkpt lat="43.46027" lon="2.3446">
        <ele>674.79998779297</ele>
        <time>2019-06-02T12:03:18Z</time>
      </trkpt>
      <trkpt lat="43.46026" lon="2.34459">
        <ele>674.79998779297</ele>
        <time>2019-06-02T12:03:20Z</time>
      </trkpt>
      <trkpt lat="43.46024" lon="2.34455">
        <ele>674.79998779297</ele>
        <time>2019-06-02T12:03:24Z</time>
      </trkpt>
      <trkpt lat="43.46022" lon="2.34452">
        <ele>674.79998779297</ele>
        <time>2019-06-02T12:03:29Z</time>
      </trkpt>
      <trkpt lat="43.46022" lon="2.34452">
        <ele>674.79998779297</ele>
        <time>2019-06-02T12:03:30Z</time>
      </trkpt>
      <trkpt lat="43.46023" lon="2.34451">
        <ele>674.79998779297</ele>
        <time>2019-06-02T12:03:32Z</time>
      </trkpt>
      <trkpt lat="43.46022" lon="2.34452">
        <ele>675</ele>
        <time>2019-06-02T12:03:37Z</time>
      </trkpt>
      <trkpt lat="43.46022" lon="2.34452">
        <ele>675</ele>
        <time>2019-06-02T12:03:38Z</time>
      </trkpt>
      <trkpt lat="43.46021" lon="2.34451">
        <ele>674.79998779297</ele>
        <time>2019-06-02T12:03:42Z</time>
      </trkpt>
      <trkpt lat="43.4602" lon="2.34449">
        <ele>675</ele>
        <time>2019-06-02T12:03:44Z</time>
      </trkpt>
      <trkpt lat="43.46019" lon="2.34447">
        <ele>675</ele>
        <time>2019-06-02T12:03:46Z</time>
      </trkpt>
      <trkpt lat="43.46016" lon="2.34443">
        <ele>675.20001220703</ele>
        <time>2019-06-02T12:03:49Z</time>
      </trkpt>
      <trkpt lat="43.46013" lon="2.34435">
        <ele>675.20001220703</ele>
        <time>2019-06-02T12:03:56Z</time>
      </trkpt>
      <trkpt lat="43.46012" lon="2.34434">
        <ele>675.20001220703</ele>
        <time>2019-06-02T12:03:57Z</time>
      </trkpt>
      <trkpt lat="43.46009" lon="2.34429">
        <ele>675</ele>
        <time>2019-06-02T12:04:03Z</time>
      </trkpt>
      <trkpt lat="43.46003" lon="2.34421">
        <ele>675.20001220703</ele>
        <time>2019-06-02T12:04:11Z</time>
      </trkpt>
      <trkpt lat="43.45998" lon="2.34419">
        <ele>675.40002441406</ele>
        <time>2019-06-02T12:04:16Z</time>
      </trkpt>
      <trkpt lat="43.45998" lon="2.34417">
        <ele>675.40002441406</ele>
        <time>2019-06-02T12:04:18Z</time>
      </trkpt>
      <trkpt lat="43.45995" lon="2.34409">
        <ele>675.20001220703</ele>
        <time>2019-06-02T12:04:25Z</time>
      </trkpt>
      <trkpt lat="43.45994" lon="2.34407">
        <ele>675.20001220703</ele>
        <time>2019-06-02T12:04:27Z</time>
      </trkpt>
      <trkpt lat="43.45992" lon="2.34403">
        <ele>675.20001220703</ele>
        <time>2019-06-02T12:04:30Z</time>
      </trkpt>
      <trkpt lat="43.45991" lon="2.34402">
        <ele>675.40002441406</ele>
        <time>2019-06-02T12:04:32Z</time>
      </trkpt>
      <trkpt lat="43.45991" lon="2.34396">
        <ele>675.20001220703</ele>
        <time>2019-06-02T12:04:38Z</time>
      </trkpt>
      <trkpt lat="43.4599" lon="2.34393">
        <ele>675.40002441406</ele>
        <time>2019-06-02T12:04:42Z</time>
      </trkpt>
      <trkpt lat="43.4599" lon="2.34393">
        <ele>675.40002441406</ele>
        <time>2019-06-02T12:04:43Z</time>
      </trkpt>
      <trkpt lat="43.45988" lon="2.34393">
        <ele>675.40002441406</ele>
        <time>2019-06-02T12:04:45Z</time>
      </trkpt>
      <trkpt lat="43.45988" lon="2.34392">
        <ele>675.40002441406</ele>
        <time>2019-06-02T12:04:46Z</time>
      </trkpt>
      <trkpt lat="43.45988" lon="2.34391">
        <ele>675.40002441406</ele>
        <time>2019-06-02T12:04:48Z</time>
      </trkpt>
      <trkpt lat="43.45987" lon="2.3439">
        <ele>675.40002441406</ele>
        <time>2019-06-02T12:04:49Z</time>
      </trkpt>
      <trkpt lat="43.45988" lon="2.34386">
        <ele>675.40002441406</ele>
        <time>2019-06-02T12:04:52Z</time>
      </trkpt>
      <trkpt lat="43.45987" lon="2.34379">
        <ele>675.40002441406</ele>
        <time>2019-06-02T12:04:58Z</time>
      </trkpt>
      <trkpt lat="43.45989" lon="2.34379">
        <ele>675.40002441406</ele>
        <time>2019-06-02T12:04:59Z</time>
      </trkpt>
      <trkpt lat="43.45989" lon="2.34379">
        <ele>675.40002441406</ele>
        <time>2019-06-02T12:05:00Z</time>
      </trkpt>
      <trkpt lat="43.45994" lon="2.34378">
        <ele>675.40002441406</ele>
        <time>2019-06-02T12:05:07Z</time>
      </trkpt>
      <trkpt lat="43.45995" lon="2.34377">
        <ele>675.40002441406</ele>
        <time>2019-06-02T12:05:09Z</time>
      </trkpt>
      <trkpt lat="43.45996" lon="2.34376">
        <ele>675.40002441406</ele>
        <time>2019-06-02T12:05:10Z</time>
      </trkpt>
      <trkpt lat="43.45998" lon="2.34374">
        <ele>675.40002441406</ele>
        <time>2019-06-02T12:05:12Z</time>
      </trkpt>
      <trkpt lat="43.46" lon="2.34372">
        <ele>675.40002441406</ele>
        <time>2019-06-02T12:05:14Z</time>
      </trkpt>
      <trkpt lat="43.4601" lon="2.34368">
        <ele>675.40002441406</ele>
        <time>2019-06-02T12:05:23Z</time>
      </trkpt>
      <trkpt lat="43.46011" lon="2.34367">
        <ele>675.40002441406</ele>
        <time>2019-06-02T12:05:24Z</time>
      </trkpt>
      <trkpt lat="43.46015" lon="2.34367">
        <ele>675.79998779297</ele>
        <time>2019-06-02T12:05:28Z</time>
      </trkpt>
      <trkpt lat="43.46016" lon="2.34367">
        <ele>675.79998779297</ele>
        <time>2019-06-02T12:05:29Z</time>
      </trkpt>
      <trkpt lat="43.46018" lon="2.34367">
        <ele>675.79998779297</ele>
        <time>2019-06-02T12:05:31Z</time>
      </trkpt>
      <trkpt lat="43.46022" lon="2.34362">
        <ele>676</ele>
        <time>2019-06-02T12:05:39Z</time>
      </trkpt>
      <trkpt lat="43.46022" lon="2.34361">
        <ele>676</ele>
        <time>2019-06-02T12:05:40Z</time>
      </trkpt>
      <trkpt lat="43.46025" lon="2.34358">
        <ele>676.40002441406</ele>
        <time>2019-06-02T12:05:47Z</time>
      </trkpt>
      <trkpt lat="43.46026" lon="2.34359">
        <ele>676.40002441406</ele>
        <time>2019-06-02T12:05:50Z</time>
      </trkpt>
      <trkpt lat="43.46029" lon="2.3436">
        <ele>676.59997558594</ele>
        <time>2019-06-02T12:05:53Z</time>
      </trkpt>
      <trkpt lat="43.46032" lon="2.34358">
        <ele>676.59997558594</ele>
        <time>2019-06-02T12:05:58Z</time>
      </trkpt>
      <trkpt lat="43.46033" lon="2.34358">
        <ele>676.79998779297</ele>
        <time>2019-06-02T12:06:00Z</time>
      </trkpt>
      <trkpt lat="43.46037" lon="2.34358">
        <ele>677</ele>
        <time>2019-06-02T12:06:03Z</time>
      </trkpt>
      <trkpt lat="43.46038" lon="2.34358">
        <ele>677</ele>
        <time>2019-06-02T12:06:04Z</time>
      </trkpt>
      <trkpt lat="43.46039" lon="2.34358">
        <ele>677.20001220703</ele>
        <time>2019-06-02T12:06:05Z</time>
      </trkpt>
      <trkpt lat="43.46042" lon="2.34356">
        <ele>676.79998779297</ele>
        <time>2019-06-02T12:06:09Z</time>
      </trkpt>
      <trkpt lat="43.46044" lon="2.34355">
        <ele>676.79998779297</ele>
        <time>2019-06-02T12:06:12Z</time>
      </trkpt>
      <trkpt lat="43.46048" lon="2.34355">
        <ele>676.40002441406</ele>
        <time>2019-06-02T12:06:17Z</time>
      </trkpt>
      <trkpt lat="43.46051" lon="2.34354">
        <ele>676.40002441406</ele>
        <time>2019-06-02T12:06:21Z</time>
      </trkpt>
      <trkpt lat="43.46052" lon="2.34354">
        <ele>676.40002441406</ele>
        <time>2019-06-02T12:06:23Z</time>
      </trkpt>
      <trkpt lat="43.46057" lon="2.34352">
        <ele>676.40002441406</ele>
        <time>2019-06-02T12:06:31Z</time>
      </trkpt>
      <trkpt lat="43.46062" lon="2.3435">
        <ele>676.40002441406</ele>
        <time>2019-06-02T12:06:37Z</time>
      </trkpt>
      <trkpt lat="43.46064" lon="2.34348">
        <ele>676.40002441406</ele>
        <time>2019-06-02T12:06:39Z</time>
      </trkpt>
      <trkpt lat="43.46069" lon="2.34341">
        <ele>676.40002441406</ele>
        <time>2019-06-02T12:06:46Z</time>
      </trkpt>
      <trkpt lat="43.46069" lon="2.3434">
        <ele>676.40002441406</ele>
        <time>2019-06-02T12:06:47Z</time>
      </trkpt>
      <trkpt lat="43.4607" lon="2.34335">
        <ele>676.40002441406</ele>
        <time>2019-06-02T12:06:49Z</time>
      </trkpt>
      <trkpt lat="43.4607" lon="2.34333">
        <ele>676.40002441406</ele>
        <time>2019-06-02T12:06:51Z</time>
      </trkpt>
      <trkpt lat="43.46071" lon="2.34332">
        <ele>676.40002441406</ele>
        <time>2019-06-02T12:06:52Z</time>
      </trkpt>
      <trkpt lat="43.46071" lon="2.3433">
        <ele>676</ele>
        <time>2019-06-02T12:06:55Z</time>
      </trkpt>
      <trkpt lat="43.46072" lon="2.3433">
        <ele>675.40002441406</ele>
        <time>2019-06-02T12:06:57Z</time>
      </trkpt>
      <trkpt lat="43.46074" lon="2.34322">
        <ele>675.20001220703</ele>
        <time>2019-06-02T12:07:04Z</time>
      </trkpt>
      <trkpt lat="43.46074" lon="2.3432">
        <ele>675.20001220703</ele>
        <time>2019-06-02T12:07:05Z</time>
      </trkpt>
      <trkpt lat="43.46075" lon="2.34319">
        <ele>675.20001220703</ele>
        <time>2019-06-02T12:07:06Z</time>
      </trkpt>
      <trkpt lat="43.46078" lon="2.34311">
        <ele>675.79998779297</ele>
        <time>2019-06-02T12:07:11Z</time>
      </trkpt>
      <trkpt lat="43.46079" lon="2.3431">
        <ele>676</ele>
        <time>2019-06-02T12:07:12Z</time>
      </trkpt>
      <trkpt lat="43.46078" lon="2.34304">
        <ele>676.59997558594</ele>
        <time>2019-06-02T12:07:17Z</time>
      </trkpt>
      <trkpt lat="43.46078" lon="2.34293">
        <ele>676.40002441406</ele>
        <time>2019-06-02T12:07:22Z</time>
      </trkpt>
      <trkpt lat="43.46076" lon="2.34289">
        <ele>676.40002441406</ele>
        <time>2019-06-02T12:07:25Z</time>
      </trkpt>
      <trkpt lat="43.46076" lon="2.34288">
        <ele>676.20001220703</ele>
        <time>2019-06-02T12:07:26Z</time>
      </trkpt>
      <trkpt lat="43.46074" lon="2.34279">
        <ele>676.20001220703</ele>
        <time>2019-06-02T12:07:32Z</time>
      </trkpt>
      <trkpt lat="43.46073" lon="2.34268">
        <ele>676</ele>
        <time>2019-06-02T12:07:38Z</time>
      </trkpt>
      <trkpt lat="43.46072" lon="2.3426">
        <ele>676</ele>
        <time>2019-06-02T12:07:43Z</time>
      </trkpt>
      <trkpt lat="43.46072" lon="2.34259">
        <ele>676</ele>
        <time>2019-06-02T12:07:44Z</time>
      </trkpt>
      <trkpt lat="43.46072" lon="2.34258">
        <ele>676</ele>
        <time>2019-06-02T12:07:45Z</time>
      </trkpt>
      <trkpt lat="43.46072" lon="2.34253">
        <ele>676</ele>
        <time>2019-06-02T12:07:49Z</time>
      </trkpt>
      <trkpt lat="43.46072" lon="2.34248">
        <ele>676</ele>
        <time>2019-06-02T12:07:52Z</time>
      </trkpt>
      <trkpt lat="43.46071" lon="2.34246">
        <ele>676</ele>
        <time>2019-06-02T12:07:54Z</time>
      </trkpt>
      <trkpt lat="43.4607" lon="2.34241">
        <ele>676</ele>
        <time>2019-06-02T12:07:57Z</time>
      </trkpt>
      <trkpt lat="43.4607" lon="2.3424">
        <ele>676</ele>
        <time>2019-06-02T12:07:58Z</time>
      </trkpt>
      <trkpt lat="43.46072" lon="2.34235">
        <ele>676.20001220703</ele>
        <time>2019-06-02T12:08:04Z</time>
      </trkpt>
      <trkpt lat="43.46073" lon="2.3423">
        <ele>676.20001220703</ele>
        <time>2019-06-02T12:08:07Z</time>
      </trkpt>
      <trkpt lat="43.46072" lon="2.34221">
        <ele>676.40002441406</ele>
        <time>2019-06-02T12:08:14Z</time>
      </trkpt>
      <trkpt lat="43.46072" lon="2.34213">
        <ele>676.20001220703</ele>
        <time>2019-06-02T12:08:20Z</time>
      </trkpt>
      <trkpt lat="43.46072" lon="2.34206">
        <ele>676.20001220703</ele>
        <time>2019-06-02T12:08:24Z</time>
      </trkpt>
      <trkpt lat="43.46071" lon="2.34203">
        <ele>676</ele>
        <time>2019-06-02T12:08:26Z</time>
      </trkpt>
      <trkpt lat="43.4607" lon="2.34202">
        <ele>676.20001220703</ele>
        <time>2019-06-02T12:08:28Z</time>
      </trkpt>
      <trkpt lat="43.46068" lon="2.34195">
        <ele>676.40002441406</ele>
        <time>2019-06-02T12:08:34Z</time>
      </trkpt>
      <trkpt lat="43.46068" lon="2.34194">
        <ele>676.20001220703</ele>
        <time>2019-06-02T12:08:35Z</time>
      </trkpt>
      <trkpt lat="43.46065" lon="2.3419">
        <ele>676</ele>
        <time>2019-06-02T12:08:40Z</time>
      </trkpt>
      <trkpt lat="43.46063" lon="2.34187">
        <ele>676</ele>
        <time>2019-06-02T12:08:44Z</time>
      </trkpt>
      <trkpt lat="43.46062" lon="2.34185">
        <ele>676</ele>
        <time>2019-06-02T12:08:46Z</time>
      </trkpt>
      <trkpt lat="43.4606" lon="2.34179">
        <ele>675.79998779297</ele>
        <time>2019-06-02T12:08:51Z</time>
      </trkpt>
      <trkpt lat="43.46058" lon="2.34177">
        <ele>675.79998779297</ele>
        <time>2019-06-02T12:08:53Z</time>
      </trkpt>
      <trkpt lat="43.46058" lon="2.34172">
        <ele>675.79998779297</ele>
        <time>2019-06-02T12:08:56Z</time>
      </trkpt>
      <trkpt lat="43.46058" lon="2.3417">
        <ele>675.79998779297</ele>
        <time>2019-06-02T12:08:57Z</time>
      </trkpt>
      <trkpt lat="43.46057" lon="2.34161">
        <ele>676.20001220703</ele>
        <time>2019-06-02T12:09:04Z</time>
      </trkpt>
      <trkpt lat="43.46057" lon="2.34154">
        <ele>676.40002441406</ele>
        <time>2019-06-02T12:09:09Z</time>
      </trkpt>
      <trkpt lat="43.46057" lon="2.34152">
        <ele>676.40002441406</ele>
        <time>2019-06-02T12:09:10Z</time>
      </trkpt>
      <trkpt lat="43.46057" lon="2.34149">
        <ele>676.40002441406</ele>
        <time>2019-06-02T12:09:12Z</time>
      </trkpt>
      <trkpt lat="43.46057" lon="2.34147">
        <ele>676.59997558594</ele>
        <time>2019-06-02T12:09:13Z</time>
      </trkpt>
      <trkpt lat="43.46058" lon="2.34144">
        <ele>676.59997558594</ele>
        <time>2019-06-02T12:09:14Z</time>
      </trkpt>
      <trkpt lat="43.46058" lon="2.3414">
        <ele>676.40002441406</ele>
        <time>2019-06-02T12:09:16Z</time>
      </trkpt>
      <trkpt lat="43.46065" lon="2.3413">
        <ele>676.59997558594</ele>
        <time>2019-06-02T12:09:24Z</time>
      </trkpt>
      <trkpt lat="43.46067" lon="2.34127">
        <ele>677.20001220703</ele>
        <time>2019-06-02T12:09:27Z</time>
      </trkpt>
      <trkpt lat="43.46067" lon="2.34124">
        <ele>677</ele>
        <time>2019-06-02T12:09:30Z</time>
      </trkpt>
      <trkpt lat="43.46067" lon="2.34118">
        <ele>676.59997558594</ele>
        <time>2019-06-02T12:09:34Z</time>
      </trkpt>
      <trkpt lat="43.46067" lon="2.34115">
        <ele>676.79998779297</ele>
        <time>2019-06-02T12:09:36Z</time>
      </trkpt>
      <trkpt lat="43.46067" lon="2.34114">
        <ele>676.79998779297</ele>
        <time>2019-06-02T12:09:37Z</time>
      </trkpt>
      <trkpt lat="43.46068" lon="2.34106">
        <ele>676.40002441406</ele>
        <time>2019-06-02T12:09:43Z</time>
      </trkpt>
      <trkpt lat="43.46067" lon="2.34102">
        <ele>676.59997558594</ele>
        <time>2019-06-02T12:09:47Z</time>
      </trkpt>
      <trkpt lat="43.46068" lon="2.34099">
        <ele>676.59997558594</ele>
        <time>2019-06-02T12:09:49Z</time>
      </trkpt>
      <trkpt lat="43.46069" lon="2.3409">
        <ele>677</ele>
        <time>2019-06-02T12:09:56Z</time>
      </trkpt>
      <trkpt lat="43.46069" lon="2.34083">
        <ele>676.79998779297</ele>
        <time>2019-06-02T12:10:02Z</time>
      </trkpt>
      <trkpt lat="43.46069" lon="2.34078">
        <ele>677.20001220703</ele>
        <time>2019-06-02T12:10:05Z</time>
      </trkpt>
      <trkpt lat="43.46068" lon="2.34072">
        <ele>677.20001220703</ele>
        <time>2019-06-02T12:10:09Z</time>
      </trkpt>
      <trkpt lat="43.46065" lon="2.3406">
        <ele>676.79998779297</ele>
        <time>2019-06-02T12:10:18Z</time>
      </trkpt>
      <trkpt lat="43.46064" lon="2.34053">
        <ele>677.20001220703</ele>
        <time>2019-06-02T12:10:25Z</time>
      </trkpt>
      <trkpt lat="43.46064" lon="2.34052">
        <ele>677.20001220703</ele>
        <time>2019-06-02T12:10:26Z</time>
      </trkpt>
      <trkpt lat="43.46066" lon="2.34042">
        <ele>677.20001220703</ele>
        <time>2019-06-02T12:10:33Z</time>
      </trkpt>
      <trkpt lat="43.46069" lon="2.34032">
        <ele>677.20001220703</ele>
        <time>2019-06-02T12:10:39Z</time>
      </trkpt>
      <trkpt lat="43.46069" lon="2.3403">
        <ele>677.20001220703</ele>
        <time>2019-06-02T12:10:41Z</time>
      </trkpt>
      <trkpt lat="43.46069" lon="2.34023">
        <ele>677.20001220703</ele>
        <time>2019-06-02T12:10:45Z</time>
      </trkpt>
      <trkpt lat="43.46069" lon="2.34019">
        <ele>677.40002441406</ele>
        <time>2019-06-02T12:10:47Z</time>
      </trkpt>
      <trkpt lat="43.46068" lon="2.34017">
        <ele>677.20001220703</ele>
        <time>2019-06-02T12:10:48Z</time>
      </trkpt>
      <trkpt lat="43.46068" lon="2.34013">
        <ele>677.20001220703</ele>
        <time>2019-06-02T12:10:50Z</time>
      </trkpt>
      <trkpt lat="43.46068" lon="2.34007">
        <ele>677.20001220703</ele>
        <time>2019-06-02T12:10:54Z</time>
      </trkpt>
      <trkpt lat="43.46067" lon="2.34006">
        <ele>677.20001220703</ele>
        <time>2019-06-02T12:10:55Z</time>
      </trkpt>
      <trkpt lat="43.46067" lon="2.33995">
        <ele>677</ele>
        <time>2019-06-02T12:11:02Z</time>
      </trkpt>
      <trkpt lat="43.46068" lon="2.33991">
        <ele>676.79998779297</ele>
        <time>2019-06-02T12:11:04Z</time>
      </trkpt>
      <trkpt lat="43.46072" lon="2.33982">
        <ele>676.79998779297</ele>
        <time>2019-06-02T12:11:09Z</time>
      </trkpt>
      <trkpt lat="43.46071" lon="2.3397">
        <ele>676.59997558594</ele>
        <time>2019-06-02T12:11:15Z</time>
      </trkpt>
      <trkpt lat="43.46072" lon="2.33958">
        <ele>677.20001220703</ele>
        <time>2019-06-02T12:11:23Z</time>
      </trkpt>
      <trkpt lat="43.46072" lon="2.33957">
        <ele>677.20001220703</ele>
        <time>2019-06-02T12:11:24Z</time>
      </trkpt>
      <trkpt lat="43.46072" lon="2.33954">
        <ele>677.20001220703</ele>
        <time>2019-06-02T12:11:26Z</time>
      </trkpt>
      <trkpt lat="43.46071" lon="2.33949">
        <ele>677</ele>
        <time>2019-06-02T12:11:30Z</time>
      </trkpt>
      <trkpt lat="43.4607" lon="2.33948">
        <ele>677.20001220703</ele>
        <time>2019-06-02T12:11:31Z</time>
      </trkpt>
      <trkpt lat="43.46067" lon="2.33942">
        <ele>677</ele>
        <time>2019-06-02T12:11:38Z</time>
      </trkpt>
      <trkpt lat="43.46066" lon="2.33931">
        <ele>677.20001220703</ele>
        <time>2019-06-02T12:11:45Z</time>
      </trkpt>
      <trkpt lat="43.46065" lon="2.33926">
        <ele>677.20001220703</ele>
        <time>2019-06-02T12:11:49Z</time>
      </trkpt>
      <trkpt lat="43.46065" lon="2.33921">
        <ele>677.20001220703</ele>
        <time>2019-06-02T12:11:53Z</time>
      </trkpt>
      <trkpt lat="43.46066" lon="2.33915">
        <ele>677.20001220703</ele>
        <time>2019-06-02T12:11:58Z</time>
      </trkpt>
      <trkpt lat="43.46067" lon="2.33912">
        <ele>677.20001220703</ele>
        <time>2019-06-02T12:12:00Z</time>
      </trkpt>
      <trkpt lat="43.46068" lon="2.33911">
        <ele>677.20001220703</ele>
        <time>2019-06-02T12:12:01Z</time>
      </trkpt>
      <trkpt lat="43.46074" lon="2.33899">
        <ele>677</ele>
        <time>2019-06-02T12:12:08Z</time>
      </trkpt>
      <trkpt lat="43.46075" lon="2.33898">
        <ele>677</ele>
        <time>2019-06-02T12:12:10Z</time>
      </trkpt>
      <trkpt lat="43.46078" lon="2.33894">
        <ele>676.59997558594</ele>
        <time>2019-06-02T12:12:15Z</time>
      </trkpt>
      <trkpt lat="43.46078" lon="2.33891">
        <ele>676.59997558594</ele>
        <time>2019-06-02T12:12:17Z</time>
      </trkpt>
      <trkpt lat="43.46082" lon="2.33885">
        <ele>676.79998779297</ele>
        <time>2019-06-02T12:12:22Z</time>
      </trkpt>
      <trkpt lat="43.46085" lon="2.3388">
        <ele>677</ele>
        <time>2019-06-02T12:12:27Z</time>
      </trkpt>
      <trkpt lat="43.46086" lon="2.33879">
        <ele>677.20001220703</ele>
        <time>2019-06-02T12:12:28Z</time>
      </trkpt>
      <trkpt lat="43.46086" lon="2.33878">
        <ele>677.20001220703</ele>
        <time>2019-06-02T12:12:29Z</time>
      </trkpt>
      <trkpt lat="43.46088" lon="2.33875">
        <ele>677.40002441406</ele>
        <time>2019-06-02T12:12:33Z</time>
      </trkpt>
      <trkpt lat="43.4609" lon="2.33871">
        <ele>677.20001220703</ele>
        <time>2019-06-02T12:12:36Z</time>
      </trkpt>
      <trkpt lat="43.46091" lon="2.3387">
        <ele>677.20001220703</ele>
        <time>2019-06-02T12:12:37Z</time>
      </trkpt>
      <trkpt lat="43.46092" lon="2.33868">
        <ele>677</ele>
        <time>2019-06-02T12:12:39Z</time>
      </trkpt>
      <trkpt lat="43.46095" lon="2.33863">
        <ele>677</ele>
        <time>2019-06-02T12:12:42Z</time>
      </trkpt>
      <trkpt lat="43.46097" lon="2.33857">
        <ele>677</ele>
        <time>2019-06-02T12:12:45Z</time>
      </trkpt>
      <trkpt lat="43.461" lon="2.33852">
        <ele>676.79998779297</ele>
        <time>2019-06-02T12:12:51Z</time>
      </trkpt>
      <trkpt lat="43.46101" lon="2.33847">
        <ele>677.20001220703</ele>
        <time>2019-06-02T12:12:56Z</time>
      </trkpt>
      <trkpt lat="43.46101" lon="2.33846">
        <ele>677.20001220703</ele>
        <time>2019-06-02T12:12:57Z</time>
      </trkpt>
      <trkpt lat="43.46101" lon="2.33843">
        <ele>677.20001220703</ele>
        <time>2019-06-02T12:12:59Z</time>
      </trkpt>
      <trkpt lat="43.461" lon="2.33842">
        <ele>677.20001220703</ele>
        <time>2019-06-02T12:13:00Z</time>
      </trkpt>
      <trkpt lat="43.461" lon="2.33838">
        <ele>676.59997558594</ele>
        <time>2019-06-02T12:13:05Z</time>
      </trkpt>
      <trkpt lat="43.46099" lon="2.3383">
        <ele>677</ele>
        <time>2019-06-02T12:13:14Z</time>
      </trkpt>
      <trkpt lat="43.46096" lon="2.33823">
        <ele>677.20001220703</ele>
        <time>2019-06-02T12:13:19Z</time>
      </trkpt>
      <trkpt lat="43.46094" lon="2.33818">
        <ele>677.20001220703</ele>
        <time>2019-06-02T12:13:21Z</time>
      </trkpt>
      <trkpt lat="43.46094" lon="2.33813">
        <ele>677.20001220703</ele>
        <time>2019-06-02T12:13:23Z</time>
      </trkpt>
      <trkpt lat="43.46091" lon="2.33804">
        <ele>677.20001220703</ele>
        <time>2019-06-02T12:13:27Z</time>
      </trkpt>
      <trkpt lat="43.46091" lon="2.33801">
        <ele>677.20001220703</ele>
        <time>2019-06-02T12:13:28Z</time>
      </trkpt>
      <trkpt lat="43.46091" lon="2.33791">
        <ele>677.20001220703</ele>
        <time>2019-06-02T12:13:35Z</time>
      </trkpt>
      <trkpt lat="43.46089" lon="2.33784">
        <ele>677.20001220703</ele>
        <time>2019-06-02T12:13:40Z</time>
      </trkpt>
      <trkpt lat="43.46089" lon="2.33779">
        <ele>677.40002441406</ele>
        <time>2019-06-02T12:13:42Z</time>
      </trkpt>
      <trkpt lat="43.46088" lon="2.33773">
        <ele>677.59997558594</ele>
        <time>2019-06-02T12:13:46Z</time>
      </trkpt>
      <trkpt lat="43.46087" lon="2.33768">
        <ele>677.59997558594</ele>
        <time>2019-06-02T12:13:49Z</time>
      </trkpt>
      <trkpt lat="43.46087" lon="2.33765">
        <ele>677.40002441406</ele>
        <time>2019-06-02T12:13:53Z</time>
      </trkpt>
      <trkpt lat="43.46087" lon="2.33763">
        <ele>677.40002441406</ele>
        <time>2019-06-02T12:13:54Z</time>
      </trkpt>
      <trkpt lat="43.46087" lon="2.33761">
        <ele>677.59997558594</ele>
        <time>2019-06-02T12:13:55Z</time>
      </trkpt>
      <trkpt lat="43.46085" lon="2.33757">
        <ele>677.79998779297</ele>
        <time>2019-06-02T12:13:58Z</time>
      </trkpt>
      <trkpt lat="43.46082" lon="2.33752">
        <ele>677.79998779297</ele>
        <time>2019-06-02T12:14:01Z</time>
      </trkpt>
      <trkpt lat="43.46082" lon="2.33747">
        <ele>678</ele>
        <time>2019-06-02T12:14:04Z</time>
      </trkpt>
      <trkpt lat="43.46081" lon="2.33742">
        <ele>678</ele>
        <time>2019-06-02T12:14:07Z</time>
      </trkpt>
      <trkpt lat="43.4608" lon="2.33739">
        <ele>677.79998779297</ele>
        <time>2019-06-02T12:14:09Z</time>
      </trkpt>
      <trkpt lat="43.46078" lon="2.3373">
        <ele>677.40002441406</ele>
        <time>2019-06-02T12:14:15Z</time>
      </trkpt>
      <trkpt lat="43.46078" lon="2.33726">
        <ele>677</ele>
        <time>2019-06-02T12:14:19Z</time>
      </trkpt>
      <trkpt lat="43.46078" lon="2.33723">
        <ele>676.79998779297</ele>
        <time>2019-06-02T12:14:21Z</time>
      </trkpt>
      <trkpt lat="43.46077" lon="2.33718">
        <ele>676.79998779297</ele>
        <time>2019-06-02T12:14:26Z</time>
      </trkpt>
      <trkpt lat="43.46078" lon="2.3371">
        <ele>676.79998779297</ele>
        <time>2019-06-02T12:14:29Z</time>
      </trkpt>
      <trkpt lat="43.46078" lon="2.33707">
        <ele>676.79998779297</ele>
        <time>2019-06-02T12:14:31Z</time>
      </trkpt>
      <trkpt lat="43.46076" lon="2.33698">
        <ele>677.20001220703</ele>
        <time>2019-06-02T12:14:37Z</time>
      </trkpt>
      <trkpt lat="43.46076" lon="2.33693">
        <ele>677.59997558594</ele>
        <time>2019-06-02T12:14:42Z</time>
      </trkpt>
      <trkpt lat="43.46076" lon="2.3369">
        <ele>677.59997558594</ele>
        <time>2019-06-02T12:14:44Z</time>
      </trkpt>
      <trkpt lat="43.46075" lon="2.33689">
        <ele>677.59997558594</ele>
        <time>2019-06-02T12:14:45Z</time>
      </trkpt>
      <trkpt lat="43.46075" lon="2.33683">
        <ele>677.59997558594</ele>
        <time>2019-06-02T12:14:50Z</time>
      </trkpt>
      <trkpt lat="43.46076" lon="2.33677">
        <ele>677.59997558594</ele>
        <time>2019-06-02T12:14:53Z</time>
      </trkpt>
      <trkpt lat="43.46075" lon="2.3367">
        <ele>677.59997558594</ele>
        <time>2019-06-02T12:14:57Z</time>
      </trkpt>
      <trkpt lat="43.46071" lon="2.33665">
        <ele>677.40002441406</ele>
        <time>2019-06-02T12:15:03Z</time>
      </trkpt>
      <trkpt lat="43.46072" lon="2.33661">
        <ele>677.79998779297</ele>
        <time>2019-06-02T12:15:12Z</time>
      </trkpt>
      <trkpt lat="43.46072" lon="2.33661">
        <ele>677.59997558594</ele>
        <time>2019-06-02T12:15:13Z</time>
      </trkpt>
      <trkpt lat="43.46073" lon="2.3366">
        <ele>677.59997558594</ele>
        <time>2019-06-02T12:15:20Z</time>
      </trkpt>
      <trkpt lat="43.46073" lon="2.33659">
        <ele>677.79998779297</ele>
        <time>2019-06-02T12:15:26Z</time>
      </trkpt>
      <trkpt lat="43.46073" lon="2.33659">
        <ele>677.79998779297</ele>
        <time>2019-06-02T12:15:27Z</time>
      </trkpt>
      <trkpt lat="43.46075" lon="2.33657">
        <ele>677.20001220703</ele>
        <time>2019-06-02T12:15:37Z</time>
      </trkpt>
      <trkpt lat="43.46076" lon="2.33656">
        <ele>676.79998779297</ele>
        <time>2019-06-02T12:15:40Z</time>
      </trkpt>
      <trkpt lat="43.46077" lon="2.33655">
        <ele>676.79998779297</ele>
        <time>2019-06-02T12:15:44Z</time>
      </trkpt>
      <trkpt lat="43.46077" lon="2.33654">
        <ele>676.79998779297</ele>
        <time>2019-06-02T12:15:45Z</time>
      </trkpt>
      <trkpt lat="43.46073" lon="2.33652">
        <ele>676.79998779297</ele>
        <time>2019-06-02T12:15:54Z</time>
      </trkpt>
      <trkpt lat="43.46073" lon="2.33651">
        <ele>676.79998779297</ele>
        <time>2019-06-02T12:15:58Z</time>
      </trkpt>
      <trkpt lat="43.4607" lon="2.33646">
        <ele>676.79998779297</ele>
        <time>2019-06-02T12:16:04Z</time>
      </trkpt>
      <trkpt lat="43.46065" lon="2.33644">
        <ele>676.79998779297</ele>
        <time>2019-06-02T12:16:10Z</time>
      </trkpt>
      <trkpt lat="43.46065" lon="2.33643">
        <ele>676.79998779297</ele>
        <time>2019-06-02T12:16:11Z</time>
      </trkpt>
      <trkpt lat="43.46066" lon="2.33642">
        <ele>676.79998779297</ele>
        <time>2019-06-02T12:16:19Z</time>
      </trkpt>
      <trkpt lat="43.46068" lon="2.3365">
        <ele>676.79998779297</ele>
        <time>2019-06-02T12:16:27Z</time>
      </trkpt>
      <trkpt lat="43.46066" lon="2.33647">
        <ele>676.79998779297</ele>
        <time>2019-06-02T12:16:35Z</time>
      </trkpt>
      <trkpt lat="43.46067" lon="2.33652">
        <ele>676.79998779297</ele>
        <time>2019-06-02T12:16:44Z</time>
      </trkpt>
      <trkpt lat="43.46066" lon="2.33658">
        <ele>676.79998779297</ele>
        <time>2019-06-02T12:16:52Z</time>
      </trkpt>
      <trkpt lat="43.46069" lon="2.33659">
        <ele>676.79998779297</ele>
        <time>2019-06-02T12:17:00Z</time>
      </trkpt>
      <trkpt lat="43.4607" lon="2.33659">
        <ele>676.79998779297</ele>
        <time>2019-06-02T12:17:02Z</time>
      </trkpt>
      <trkpt lat="43.46069" lon="2.33656">
        <ele>676.79998779297</ele>
        <time>2019-06-02T12:17:04Z</time>
      </trkpt>
      <trkpt lat="43.46071" lon="2.33652">
        <ele>676.79998779297</ele>
        <time>2019-06-02T12:17:07Z</time>
      </trkpt>
      <trkpt lat="43.46071" lon="2.33652">
        <ele>676.79998779297</ele>
        <time>2019-06-02T12:17:15Z</time>
      </trkpt>
      <trkpt lat="43.4607" lon="2.3365">
        <ele>676.79998779297</ele>
        <time>2019-06-02T12:17:23Z</time>
      </trkpt>
      <trkpt lat="43.4607" lon="2.33649">
        <ele>676.79998779297</ele>
        <time>2019-06-02T12:17:24Z</time>
      </trkpt>
      <trkpt lat="43.46071" lon="2.33648">
        <ele>676.79998779297</ele>
        <time>2019-06-02T12:17:28Z</time>
      </trkpt>
      <trkpt lat="43.46071" lon="2.33648">
        <ele>676.79998779297</ele>
        <time>2019-06-02T12:17:31Z</time>
      </trkpt>
      <trkpt lat="43.46071" lon="2.33647">
        <ele>676.79998779297</ele>
        <time>2019-06-02T12:17:38Z</time>
      </trkpt>
      <trkpt lat="43.46071" lon="2.33647">
        <ele>676.79998779297</ele>
        <time>2019-06-02T12:17:39Z</time>
      </trkpt>
      <trkpt lat="43.46071" lon="2.33648">
        <ele>676.79998779297</ele>
        <time>2019-06-02T12:17:44Z</time>
      </trkpt>
      <trkpt lat="43.4607" lon="2.33649">
        <ele>676.79998779297</ele>
        <time>2019-06-02T12:17:47Z</time>
      </trkpt>
      <trkpt lat="43.46071" lon="2.3365">
        <ele>676.79998779297</ele>
        <time>2019-06-02T12:17:53Z</time>
      </trkpt>
      <trkpt lat="43.46073" lon="2.3365">
        <ele>676.79998779297</ele>
        <time>2019-06-02T12:17:57Z</time>
      </trkpt>
      <trkpt lat="43.46074" lon="2.33651">
        <ele>676.79998779297</ele>
        <time>2019-06-02T12:17:58Z</time>
      </trkpt>
      <trkpt lat="43.46074" lon="2.33651">
        <ele>676.79998779297</ele>
        <time>2019-06-02T12:17:59Z</time>
      </trkpt>
      <trkpt lat="43.46074" lon="2.33651">
        <ele>676.79998779297</ele>
        <time>2019-06-02T12:18:01Z</time>
      </trkpt>
      <trkpt lat="43.46071" lon="2.33648">
        <ele>676.79998779297</ele>
        <time>2019-06-02T12:18:08Z</time>
      </trkpt>
      <trkpt lat="43.46071" lon="2.33642">
        <ele>676.79998779297</ele>
        <time>2019-06-02T12:18:14Z</time>
      </trkpt>
      <trkpt lat="43.4607" lon="2.33641">
        <ele>676.79998779297</ele>
        <time>2019-06-02T12:18:15Z</time>
      </trkpt>
      <trkpt lat="43.46071" lon="2.33637">
        <ele>676.79998779297</ele>
        <time>2019-06-02T12:18:21Z</time>
      </trkpt>
      <trkpt lat="43.46072" lon="2.33636">
        <ele>676.79998779297</ele>
        <time>2019-06-02T12:18:22Z</time>
      </trkpt>
      <trkpt lat="43.46066" lon="2.33631">
        <ele>676.79998779297</ele>
        <time>2019-06-02T12:18:28Z</time>
      </trkpt>
      <trkpt lat="43.46065" lon="2.3363">
        <ele>676.79998779297</ele>
        <time>2019-06-02T12:18:29Z</time>
      </trkpt>
      <trkpt lat="43.46062" lon="2.33624">
        <ele>676.79998779297</ele>
        <time>2019-06-02T12:18:34Z</time>
      </trkpt>
      <trkpt lat="43.46059" lon="2.3362">
        <ele>678.20001220703</ele>
        <time>2019-06-02T12:18:38Z</time>
      </trkpt>
      <trkpt lat="43.46057" lon="2.33617">
        <ele>678.59997558594</ele>
        <time>2019-06-02T12:18:40Z</time>
      </trkpt>
      <trkpt lat="43.46054" lon="2.33615">
        <ele>678.79998779297</ele>
        <time>2019-06-02T12:18:43Z</time>
      </trkpt>
      <trkpt lat="43.46051" lon="2.33612">
        <ele>678.79998779297</ele>
        <time>2019-06-02T12:18:46Z</time>
      </trkpt>
      <trkpt lat="43.46045" lon="2.33608">
        <ele>678.59997558594</ele>
        <time>2019-06-02T12:18:51Z</time>
      </trkpt>
      <trkpt lat="43.46044" lon="2.33607">
        <ele>678.59997558594</ele>
        <time>2019-06-02T12:18:52Z</time>
      </trkpt>
      <trkpt lat="43.46042" lon="2.33606">
        <ele>678.40002441406</ele>
        <time>2019-06-02T12:18:54Z</time>
      </trkpt>
      <trkpt lat="43.46041" lon="2.33601">
        <ele>678.20001220703</ele>
        <time>2019-06-02T12:18:57Z</time>
      </trkpt>
      <trkpt lat="43.46039" lon="2.33598">
        <ele>678.40002441406</ele>
        <time>2019-06-02T12:18:59Z</time>
      </trkpt>
      <trkpt lat="43.46035" lon="2.33591">
        <ele>678.40002441406</ele>
        <time>2019-06-02T12:19:06Z</time>
      </trkpt>
      <trkpt lat="43.46034" lon="2.33585">
        <ele>678.40002441406</ele>
        <time>2019-06-02T12:19:09Z</time>
      </trkpt>
      <trkpt lat="43.46032" lon="2.33583">
        <ele>678.40002441406</ele>
        <time>2019-06-02T12:19:11Z</time>
      </trkpt>
      <trkpt lat="43.46032" lon="2.33582">
        <ele>678.59997558594</ele>
        <time>2019-06-02T12:19:12Z</time>
      </trkpt>
      <trkpt lat="43.46029" lon="2.33572">
        <ele>678.20001220703</ele>
        <time>2019-06-02T12:19:18Z</time>
      </trkpt>
      <trkpt lat="43.4603" lon="2.33569">
        <ele>678.20001220703</ele>
        <time>2019-06-02T12:19:19Z</time>
      </trkpt>
      <trkpt lat="43.46029" lon="2.33564">
        <ele>678</ele>
        <time>2019-06-02T12:19:22Z</time>
      </trkpt>
      <trkpt lat="43.46029" lon="2.3356">
        <ele>678.20001220703</ele>
        <time>2019-06-02T12:19:25Z</time>
      </trkpt>
      <trkpt lat="43.46028" lon="2.33558">
        <ele>678.40002441406</ele>
        <time>2019-06-02T12:19:27Z</time>
      </trkpt>
      <trkpt lat="43.46023" lon="2.33551">
        <ele>678.40002441406</ele>
        <time>2019-06-02T12:19:32Z</time>
      </trkpt>
      <trkpt lat="43.4602" lon="2.33547">
        <ele>678.40002441406</ele>
        <time>2019-06-02T12:19:35Z</time>
      </trkpt>
      <trkpt lat="43.46018" lon="2.33545">
        <ele>678.40002441406</ele>
        <time>2019-06-02T12:19:38Z</time>
      </trkpt>
      <trkpt lat="43.46017" lon="2.33544">
        <ele>678.40002441406</ele>
        <time>2019-06-02T12:19:39Z</time>
      </trkpt>
      <trkpt lat="43.46015" lon="2.33541">
        <ele>678.59997558594</ele>
        <time>2019-06-02T12:19:42Z</time>
      </trkpt>
      <trkpt lat="43.46015" lon="2.33539">
        <ele>678.59997558594</ele>
        <time>2019-06-02T12:19:43Z</time>
      </trkpt>
      <trkpt lat="43.46015" lon="2.33531">
        <ele>678.59997558594</ele>
        <time>2019-06-02T12:19:50Z</time>
      </trkpt>
      <trkpt lat="43.46019" lon="2.33525">
        <ele>678</ele>
        <time>2019-06-02T12:19:55Z</time>
      </trkpt>
      <trkpt lat="43.46021" lon="2.33525">
        <ele>677.59997558594</ele>
        <time>2019-06-02T12:19:57Z</time>
      </trkpt>
      <trkpt lat="43.46029" lon="2.33525">
        <ele>678.40002441406</ele>
        <time>2019-06-02T12:20:05Z</time>
      </trkpt>
      <trkpt lat="43.4603" lon="2.33525">
        <ele>678.40002441406</ele>
        <time>2019-06-02T12:20:09Z</time>
      </trkpt>
      <trkpt lat="43.46032" lon="2.33523">
        <ele>678.40002441406</ele>
        <time>2019-06-02T12:20:12Z</time>
      </trkpt>
      <trkpt lat="43.46033" lon="2.33524">
        <ele>678.40002441406</ele>
        <time>2019-06-02T12:20:13Z</time>
      </trkpt>
      <trkpt lat="43.46037" lon="2.3352">
        <ele>678.40002441406</ele>
        <time>2019-06-02T12:20:19Z</time>
      </trkpt>
      <trkpt lat="43.46043" lon="2.33516">
        <ele>678.40002441406</ele>
        <time>2019-06-02T12:20:26Z</time>
      </trkpt>
      <trkpt lat="43.46045" lon="2.33514">
        <ele>678.40002441406</ele>
        <time>2019-06-02T12:20:28Z</time>
      </trkpt>
      <trkpt lat="43.46048" lon="2.33512">
        <ele>678.40002441406</ele>
        <time>2019-06-02T12:20:32Z</time>
      </trkpt>
      <trkpt lat="43.46052" lon="2.33509">
        <ele>678.40002441406</ele>
        <time>2019-06-02T12:20:38Z</time>
      </trkpt>
      <trkpt lat="43.46053" lon="2.33509">
        <ele>678.40002441406</ele>
        <time>2019-06-02T12:20:39Z</time>
      </trkpt>
      <trkpt lat="43.46062" lon="2.33505">
        <ele>678.20001220703</ele>
        <time>2019-06-02T12:20:47Z</time>
      </trkpt>
      <trkpt lat="43.46065" lon="2.33505">
        <ele>678.20001220703</ele>
        <time>2019-06-02T12:20:49Z</time>
      </trkpt>
      <trkpt lat="43.4607" lon="2.33507">
        <ele>678.20001220703</ele>
        <time>2019-06-02T12:20:53Z</time>
      </trkpt>
      <trkpt lat="43.46078" lon="2.33509">
        <ele>678.79998779297</ele>
        <time>2019-06-02T12:21:01Z</time>
      </trkpt>
      <trkpt lat="43.4608" lon="2.3351">
        <ele>678.79998779297</ele>
        <time>2019-06-02T12:21:02Z</time>
      </trkpt>
      <trkpt lat="43.46082" lon="2.3351">
        <ele>678.79998779297</ele>
        <time>2019-06-02T12:21:04Z</time>
      </trkpt>
      <trkpt lat="43.46085" lon="2.33511">
        <ele>679</ele>
        <time>2019-06-02T12:21:07Z</time>
      </trkpt>
      <trkpt lat="43.46089" lon="2.33514">
        <ele>679</ele>
        <time>2019-06-02T12:21:11Z</time>
      </trkpt>
      <trkpt lat="43.46091" lon="2.33515">
        <ele>679.20001220703</ele>
        <time>2019-06-02T12:21:13Z</time>
      </trkpt>
      <trkpt lat="43.46093" lon="2.33516">
        <ele>679.20001220703</ele>
        <time>2019-06-02T12:21:15Z</time>
      </trkpt>
      <trkpt lat="43.46094" lon="2.33518">
        <ele>679.20001220703</ele>
        <time>2019-06-02T12:21:16Z</time>
      </trkpt>
      <trkpt lat="43.46095" lon="2.33519">
        <ele>679.20001220703</ele>
        <time>2019-06-02T12:21:17Z</time>
      </trkpt>
      <trkpt lat="43.46097" lon="2.33523">
        <ele>679.20001220703</ele>
        <time>2019-06-02T12:21:20Z</time>
      </trkpt>
      <trkpt lat="43.46098" lon="2.33523">
        <ele>679.20001220703</ele>
        <time>2019-06-02T12:21:21Z</time>
      </trkpt>
      <trkpt lat="43.46099" lon="2.33524">
        <ele>679</ele>
        <time>2019-06-02T12:21:22Z</time>
      </trkpt>
      <trkpt lat="43.46102" lon="2.33527">
        <ele>678.79998779297</ele>
        <time>2019-06-02T12:21:25Z</time>
      </trkpt>
      <trkpt lat="43.46106" lon="2.3353">
        <ele>679.79998779297</ele>
        <time>2019-06-02T12:21:31Z</time>
      </trkpt>
      <trkpt lat="43.46109" lon="2.33532">
        <ele>679.59997558594</ele>
        <time>2019-06-02T12:21:34Z</time>
      </trkpt>
      <trkpt lat="43.46113" lon="2.33535">
        <ele>679.40002441406</ele>
        <time>2019-06-02T12:21:37Z</time>
      </trkpt>
      <trkpt lat="43.46115" lon="2.33538">
        <ele>679.59997558594</ele>
        <time>2019-06-02T12:21:40Z</time>
      </trkpt>
      <trkpt lat="43.46118" lon="2.33543">
        <ele>679.79998779297</ele>
        <time>2019-06-02T12:21:43Z</time>
      </trkpt>
      <trkpt lat="43.46123" lon="2.33548">
        <ele>679.79998779297</ele>
        <time>2019-06-02T12:21:47Z</time>
      </trkpt>
      <trkpt lat="43.46126" lon="2.33552">
        <ele>680</ele>
        <time>2019-06-02T12:21:50Z</time>
      </trkpt>
      <trkpt lat="43.46129" lon="2.33555">
        <ele>680</ele>
        <time>2019-06-02T12:21:52Z</time>
      </trkpt>
      <trkpt lat="43.46131" lon="2.33562">
        <ele>679.79998779297</ele>
        <time>2019-06-02T12:21:57Z</time>
      </trkpt>
      <trkpt lat="43.46135" lon="2.33569">
        <ele>678.79998779297</ele>
        <time>2019-06-02T12:22:03Z</time>
      </trkpt>
      <trkpt lat="43.46136" lon="2.3357">
        <ele>679</ele>
        <time>2019-06-02T12:22:04Z</time>
      </trkpt>
      <trkpt lat="43.46139" lon="2.33582">
        <ele>679.20001220703</ele>
        <time>2019-06-02T12:22:10Z</time>
      </trkpt>
      <trkpt lat="43.4614" lon="2.33587">
        <ele>679</ele>
        <time>2019-06-02T12:22:12Z</time>
      </trkpt>
      <trkpt lat="43.46142" lon="2.3359">
        <ele>679</ele>
        <time>2019-06-02T12:22:14Z</time>
      </trkpt>
      <trkpt lat="43.46144" lon="2.336">
        <ele>678.59997558594</ele>
        <time>2019-06-02T12:22:21Z</time>
      </trkpt>
      <trkpt lat="43.46148" lon="2.33604">
        <ele>679.20001220703</ele>
        <time>2019-06-02T12:22:25Z</time>
      </trkpt>
      <trkpt lat="43.46149" lon="2.33604">
        <ele>679.40002441406</ele>
        <time>2019-06-02T12:22:26Z</time>
      </trkpt>
      <trkpt lat="43.46152" lon="2.33605">
        <ele>679.59997558594</ele>
        <time>2019-06-02T12:22:28Z</time>
      </trkpt>
      <trkpt lat="43.46155" lon="2.33608">
        <ele>679.79998779297</ele>
        <time>2019-06-02T12:22:32Z</time>
      </trkpt>
      <trkpt lat="43.46158" lon="2.3361">
        <ele>679</ele>
        <time>2019-06-02T12:22:36Z</time>
      </trkpt>
      <trkpt lat="43.46159" lon="2.33613">
        <ele>679</ele>
        <time>2019-06-02T12:22:38Z</time>
      </trkpt>
      <trkpt lat="43.46162" lon="2.33616">
        <ele>678.59997558594</ele>
        <time>2019-06-02T12:22:40Z</time>
      </trkpt>
      <trkpt lat="43.46163" lon="2.33618">
        <ele>678.20001220703</ele>
        <time>2019-06-02T12:22:42Z</time>
      </trkpt>
      <trkpt lat="43.46164" lon="2.3362">
        <ele>678</ele>
        <time>2019-06-02T12:22:43Z</time>
      </trkpt>
      <trkpt lat="43.46166" lon="2.33626">
        <ele>677.79998779297</ele>
        <time>2019-06-02T12:22:49Z</time>
      </trkpt>
      <trkpt lat="43.46169" lon="2.33627">
        <ele>678.40002441406</ele>
        <time>2019-06-02T12:22:51Z</time>
      </trkpt>
      <trkpt lat="43.46173" lon="2.33627">
        <ele>678.40002441406</ele>
        <time>2019-06-02T12:22:54Z</time>
      </trkpt>
      <trkpt lat="43.46176" lon="2.33629">
        <ele>678.40002441406</ele>
        <time>2019-06-02T12:22:57Z</time>
      </trkpt>
      <trkpt lat="43.46178" lon="2.33632">
        <ele>678.20001220703</ele>
        <time>2019-06-02T12:22:59Z</time>
      </trkpt>
      <trkpt lat="43.4618" lon="2.33633">
        <ele>678.20001220703</ele>
        <time>2019-06-02T12:23:00Z</time>
      </trkpt>
      <trkpt lat="43.46185" lon="2.33638">
        <ele>678.20001220703</ele>
        <time>2019-06-02T12:23:06Z</time>
      </trkpt>
      <trkpt lat="43.46186" lon="2.33639">
        <ele>678</ele>
        <time>2019-06-02T12:23:09Z</time>
      </trkpt>
      <trkpt lat="43.46187" lon="2.3364">
        <ele>678.20001220703</ele>
        <time>2019-06-02T12:23:12Z</time>
      </trkpt>
      <trkpt lat="43.46187" lon="2.33643">
        <ele>678.20001220703</ele>
        <time>2019-06-02T12:23:13Z</time>
      </trkpt>
      <trkpt lat="43.46193" lon="2.33648">
        <ele>678.20001220703</ele>
        <time>2019-06-02T12:23:17Z</time>
      </trkpt>
      <trkpt lat="43.46193" lon="2.33649">
        <ele>678</ele>
        <time>2019-06-02T12:23:18Z</time>
      </trkpt>
      <trkpt lat="43.46196" lon="2.33649">
        <ele>678</ele>
        <time>2019-06-02T12:23:20Z</time>
      </trkpt>
      <trkpt lat="43.462" lon="2.3365">
        <ele>678.40002441406</ele>
        <time>2019-06-02T12:23:24Z</time>
      </trkpt>
      <trkpt lat="43.46201" lon="2.33652">
        <ele>678.40002441406</ele>
        <time>2019-06-02T12:23:26Z</time>
      </trkpt>
      <trkpt lat="43.46203" lon="2.33654">
        <ele>678.40002441406</ele>
        <time>2019-06-02T12:23:28Z</time>
      </trkpt>
      <trkpt lat="43.46205" lon="2.33656">
        <ele>677.79998779297</ele>
        <time>2019-06-02T12:23:30Z</time>
      </trkpt>
      <trkpt lat="43.46206" lon="2.33659">
        <ele>677.20001220703</ele>
        <time>2019-06-02T12:23:32Z</time>
      </trkpt>
      <trkpt lat="43.46206" lon="2.33661">
        <ele>677</ele>
        <time>2019-06-02T12:23:33Z</time>
      </trkpt>
      <trkpt lat="43.46207" lon="2.33664">
        <ele>676.40002441406</ele>
        <time>2019-06-02T12:23:37Z</time>
      </trkpt>
      <trkpt lat="43.46209" lon="2.33665">
        <ele>676.20001220703</ele>
        <time>2019-06-02T12:23:40Z</time>
      </trkpt>
      <trkpt lat="43.46208" lon="2.33667">
        <ele>676</ele>
        <time>2019-06-02T12:23:41Z</time>
      </trkpt>
      <trkpt lat="43.46207" lon="2.33671">
        <ele>676</ele>
        <time>2019-06-02T12:23:43Z</time>
      </trkpt>
      <trkpt lat="43.46208" lon="2.33672">
        <ele>676</ele>
        <time>2019-06-02T12:23:44Z</time>
      </trkpt>
      <trkpt lat="43.46208" lon="2.33682">
        <ele>676.59997558594</ele>
        <time>2019-06-02T12:23:49Z</time>
      </trkpt>
      <trkpt lat="43.46207" lon="2.33683">
        <ele>676.20001220703</ele>
        <time>2019-06-02T12:23:53Z</time>
      </trkpt>
      <trkpt lat="43.46207" lon="2.33684">
        <ele>676.20001220703</ele>
        <time>2019-06-02T12:23:57Z</time>
      </trkpt>
      <trkpt lat="43.46209" lon="2.33688">
        <ele>676.20001220703</ele>
        <time>2019-06-02T12:24:01Z</time>
      </trkpt>
      <trkpt lat="43.46209" lon="2.3369">
        <ele>676.40002441406</ele>
        <time>2019-06-02T12:24:03Z</time>
      </trkpt>
      <trkpt lat="43.46209" lon="2.33691">
        <ele>676.40002441406</ele>
        <time>2019-06-02T12:24:04Z</time>
      </trkpt>
      <trkpt lat="43.46213" lon="2.33701">
        <ele>676.20001220703</ele>
        <time>2019-06-02T12:24:09Z</time>
      </trkpt>
      <trkpt lat="43.46214" lon="2.33702">
        <ele>676.20001220703</ele>
        <time>2019-06-02T12:24:10Z</time>
      </trkpt>
      <trkpt lat="43.46216" lon="2.33707">
        <ele>676.20001220703</ele>
        <time>2019-06-02T12:24:13Z</time>
      </trkpt>
      <trkpt lat="43.46217" lon="2.33711">
        <ele>676</ele>
        <time>2019-06-02T12:24:16Z</time>
      </trkpt>
      <trkpt lat="43.4622" lon="2.33717">
        <ele>676</ele>
        <time>2019-06-02T12:24:20Z</time>
      </trkpt>
      <trkpt lat="43.46224" lon="2.33721">
        <ele>676</ele>
        <time>2019-06-02T12:24:23Z</time>
      </trkpt>
      <trkpt lat="43.46226" lon="2.33725">
        <ele>675.79998779297</ele>
        <time>2019-06-02T12:24:27Z</time>
      </trkpt>
      <trkpt lat="43.46226" lon="2.3373">
        <ele>675.79998779297</ele>
        <time>2019-06-02T12:24:29Z</time>
      </trkpt>
      <trkpt lat="43.46227" lon="2.33731">
        <ele>675.79998779297</ele>
        <time>2019-06-02T12:24:30Z</time>
      </trkpt>
      <trkpt lat="43.46227" lon="2.33737">
        <ele>676</ele>
        <time>2019-06-02T12:24:34Z</time>
      </trkpt>
      <trkpt lat="43.46227" lon="2.3374">
        <ele>676</ele>
        <time>2019-06-02T12:24:37Z</time>
      </trkpt>
      <trkpt lat="43.46234" lon="2.33756">
        <ele>676.40002441406</ele>
        <time>2019-06-02T12:24:45Z</time>
      </trkpt>
      <trkpt lat="43.46233" lon="2.33768">
        <ele>676.59997558594</ele>
        <time>2019-06-02T12:24:51Z</time>
      </trkpt>
      <trkpt lat="43.46233" lon="2.3377">
        <ele>676.59997558594</ele>
        <time>2019-06-02T12:24:52Z</time>
      </trkpt>
      <trkpt lat="43.46233" lon="2.33779">
        <ele>676.59997558594</ele>
        <time>2019-06-02T12:24:57Z</time>
      </trkpt>
      <trkpt lat="43.46233" lon="2.33783">
        <ele>676.79998779297</ele>
        <time>2019-06-02T12:24:59Z</time>
      </trkpt>
      <trkpt lat="43.46234" lon="2.33787">
        <ele>676.59997558594</ele>
        <time>2019-06-02T12:25:02Z</time>
      </trkpt>
      <trkpt lat="43.46234" lon="2.33787">
        <ele>676.59997558594</ele>
        <time>2019-06-02T12:25:03Z</time>
      </trkpt>
      <trkpt lat="43.46235" lon="2.33788">
        <ele>676.20001220703</ele>
        <time>2019-06-02T12:25:05Z</time>
      </trkpt>
      <trkpt lat="43.46235" lon="2.3379">
        <ele>676.20001220703</ele>
        <time>2019-06-02T12:25:06Z</time>
      </trkpt>
      <trkpt lat="43.46235" lon="2.33791">
        <ele>676</ele>
        <time>2019-06-02T12:25:07Z</time>
      </trkpt>
      <trkpt lat="43.46236" lon="2.33792">
        <ele>676</ele>
        <time>2019-06-02T12:25:08Z</time>
      </trkpt>
      <trkpt lat="43.46236" lon="2.33792">
        <ele>676.20001220703</ele>
        <time>2019-06-02T12:25:09Z</time>
      </trkpt>
      <trkpt lat="43.46238" lon="2.33793">
        <ele>676.20001220703</ele>
        <time>2019-06-02T12:25:10Z</time>
      </trkpt>
      <trkpt lat="43.46238" lon="2.33793">
        <ele>676.20001220703</ele>
        <time>2019-06-02T12:25:11Z</time>
      </trkpt>
      <trkpt lat="43.46241" lon="2.33794">
        <ele>676.20001220703</ele>
        <time>2019-06-02T12:25:14Z</time>
      </trkpt>
      <trkpt lat="43.46242" lon="2.33804">
        <ele>676.40002441406</ele>
        <time>2019-06-02T12:25:18Z</time>
      </trkpt>
      <trkpt lat="43.46243" lon="2.33806">
        <ele>676.40002441406</ele>
        <time>2019-06-02T12:25:19Z</time>
      </trkpt>
      <trkpt lat="43.46247" lon="2.3382">
        <ele>676.59997558594</ele>
        <time>2019-06-02T12:25:24Z</time>
      </trkpt>
      <trkpt lat="43.46248" lon="2.33828">
        <ele>676.79998779297</ele>
        <time>2019-06-02T12:25:30Z</time>
      </trkpt>
      <trkpt lat="43.46252" lon="2.33828">
        <ele>677</ele>
        <time>2019-06-02T12:25:32Z</time>
      </trkpt>
      <trkpt lat="43.46258" lon="2.33823">
        <ele>677.20001220703</ele>
        <time>2019-06-02T12:25:36Z</time>
      </trkpt>
      <trkpt lat="43.46261" lon="2.33822">
        <ele>677.20001220703</ele>
        <time>2019-06-02T12:25:37Z</time>
      </trkpt>
      <trkpt lat="43.46262" lon="2.33824">
        <ele>677.40002441406</ele>
        <time>2019-06-02T12:25:38Z</time>
      </trkpt>
      <trkpt lat="43.46268" lon="2.33826">
        <ele>677.59997558594</ele>
        <time>2019-06-02T12:25:43Z</time>
      </trkpt>
      <trkpt lat="43.46272" lon="2.3383">
        <ele>677.59997558594</ele>
        <time>2019-06-02T12:25:48Z</time>
      </trkpt>
      <trkpt lat="43.46273" lon="2.33831">
        <ele>677.59997558594</ele>
        <time>2019-06-02T12:25:49Z</time>
      </trkpt>
      <trkpt lat="43.46276" lon="2.33832">
        <ele>677.59997558594</ele>
        <time>2019-06-02T12:25:51Z</time>
      </trkpt>
      <trkpt lat="43.46279" lon="2.33834">
        <ele>677.59997558594</ele>
        <time>2019-06-02T12:25:54Z</time>
      </trkpt>
      <trkpt lat="43.46282" lon="2.33837">
        <ele>677.59997558594</ele>
        <time>2019-06-02T12:25:57Z</time>
      </trkpt>
      <trkpt lat="43.46286" lon="2.33842">
        <ele>677.59997558594</ele>
        <time>2019-06-02T12:26:00Z</time>
      </trkpt>
      <trkpt lat="43.46288" lon="2.33845">
        <ele>677.40002441406</ele>
        <time>2019-06-02T12:26:03Z</time>
      </trkpt>
      <trkpt lat="43.46288" lon="2.33847">
        <ele>676.79998779297</ele>
        <time>2019-06-02T12:26:05Z</time>
      </trkpt>
      <trkpt lat="43.46289" lon="2.33849">
        <ele>676.79998779297</ele>
        <time>2019-06-02T12:26:07Z</time>
      </trkpt>
      <trkpt lat="43.46295" lon="2.33854">
        <ele>677.20001220703</ele>
        <time>2019-06-02T12:26:13Z</time>
      </trkpt>
      <trkpt lat="43.46298" lon="2.33857">
        <ele>677</ele>
        <time>2019-06-02T12:26:16Z</time>
      </trkpt>
      <trkpt lat="43.46302" lon="2.33861">
        <ele>676.79998779297</ele>
        <time>2019-06-02T12:26:21Z</time>
      </trkpt>
      <trkpt lat="43.46303" lon="2.33863">
        <ele>677</ele>
        <time>2019-06-02T12:26:24Z</time>
      </trkpt>
      <trkpt lat="43.46307" lon="2.33868">
        <ele>677.20001220703</ele>
        <time>2019-06-02T12:26:29Z</time>
      </trkpt>
      <trkpt lat="43.46312" lon="2.33874">
        <ele>678</ele>
        <time>2019-06-02T12:26:36Z</time>
      </trkpt>
      <trkpt lat="43.46315" lon="2.33878">
        <ele>678.20001220703</ele>
        <time>2019-06-02T12:26:40Z</time>
      </trkpt>
      <trkpt lat="43.46318" lon="2.33883">
        <ele>678.40002441406</ele>
        <time>2019-06-02T12:26:45Z</time>
      </trkpt>
      <trkpt lat="43.46328" lon="2.3389">
        <ele>678.40002441406</ele>
        <time>2019-06-02T12:26:53Z</time>
      </trkpt>
      <trkpt lat="43.46334" lon="2.33899">
        <ele>678.40002441406</ele>
        <time>2019-06-02T12:27:01Z</time>
      </trkpt>
      <trkpt lat="43.46337" lon="2.33903">
        <ele>678</ele>
        <time>2019-06-02T12:27:08Z</time>
      </trkpt>
      <trkpt lat="43.46342" lon="2.33909">
        <ele>678</ele>
        <time>2019-06-02T12:27:14Z</time>
      </trkpt>
      <trkpt lat="43.46348" lon="2.3392">
        <ele>677.79998779297</ele>
        <time>2019-06-02T12:27:22Z</time>
      </trkpt>
      <trkpt lat="43.46355" lon="2.33929">
        <ele>678.20001220703</ele>
        <time>2019-06-02T12:27:30Z</time>
      </trkpt>
      <trkpt lat="43.46356" lon="2.3393">
        <ele>678.20001220703</ele>
        <time>2019-06-02T12:27:31Z</time>
      </trkpt>
      <trkpt lat="43.4636" lon="2.33937">
        <ele>678</ele>
        <time>2019-06-02T12:27:38Z</time>
      </trkpt>
      <trkpt lat="43.46365" lon="2.33947">
        <ele>677.79998779297</ele>
        <time>2019-06-02T12:27:45Z</time>
      </trkpt>
      <trkpt lat="43.46366" lon="2.33948">
        <ele>677.79998779297</ele>
        <time>2019-06-02T12:27:46Z</time>
      </trkpt>
      <trkpt lat="43.46369" lon="2.33952">
        <ele>677.59997558594</ele>
        <time>2019-06-02T12:27:49Z</time>
      </trkpt>
      <trkpt lat="43.46372" lon="2.33955">
        <ele>677.59997558594</ele>
        <time>2019-06-02T12:27:53Z</time>
      </trkpt>
      <trkpt lat="43.46377" lon="2.3396">
        <ele>677.59997558594</ele>
        <time>2019-06-02T12:28:00Z</time>
      </trkpt>
      <trkpt lat="43.46377" lon="2.33962">
        <ele>677.59997558594</ele>
        <time>2019-06-02T12:28:01Z</time>
      </trkpt>
      <trkpt lat="43.46379" lon="2.33967">
        <ele>677.59997558594</ele>
        <time>2019-06-02T12:28:06Z</time>
      </trkpt>
      <trkpt lat="43.46383" lon="2.33975">
        <ele>677.20001220703</ele>
        <time>2019-06-02T12:28:13Z</time>
      </trkpt>
      <trkpt lat="43.46383" lon="2.33976">
        <ele>677.40002441406</ele>
        <time>2019-06-02T12:28:14Z</time>
      </trkpt>
      <trkpt lat="43.46385" lon="2.33982">
        <ele>677.20001220703</ele>
        <time>2019-06-02T12:28:19Z</time>
      </trkpt>
      <trkpt lat="43.46387" lon="2.33984">
        <ele>677.20001220703</ele>
        <time>2019-06-02T12:28:21Z</time>
      </trkpt>
      <trkpt lat="43.46392" lon="2.33994">
        <ele>677.40002441406</ele>
        <time>2019-06-02T12:28:28Z</time>
      </trkpt>
      <trkpt lat="43.46393" lon="2.33995">
        <ele>677.40002441406</ele>
        <time>2019-06-02T12:28:30Z</time>
      </trkpt>
      <trkpt lat="43.46394" lon="2.33996">
        <ele>677.40002441406</ele>
        <time>2019-06-02T12:28:31Z</time>
      </trkpt>
      <trkpt lat="43.46398" lon="2.34006">
        <ele>677.40002441406</ele>
        <time>2019-06-02T12:28:38Z</time>
      </trkpt>
      <trkpt lat="43.46401" lon="2.34012">
        <ele>677.40002441406</ele>
        <time>2019-06-02T12:28:43Z</time>
      </trkpt>
      <trkpt lat="43.46401" lon="2.34016">
        <ele>677.40002441406</ele>
        <time>2019-06-02T12:28:47Z</time>
      </trkpt>
      <trkpt lat="43.464" lon="2.34017">
        <ele>677.40002441406</ele>
        <time>2019-06-02T12:28:48Z</time>
      </trkpt>
      <trkpt lat="43.46402" lon="2.34029">
        <ele>677.40002441406</ele>
        <time>2019-06-02T12:28:56Z</time>
      </trkpt>
      <trkpt lat="43.46403" lon="2.34032">
        <ele>677.40002441406</ele>
        <time>2019-06-02T12:28:58Z</time>
      </trkpt>
      <trkpt lat="43.46404" lon="2.34037">
        <ele>677</ele>
        <time>2019-06-02T12:29:02Z</time>
      </trkpt>
      <trkpt lat="43.46406" lon="2.34044">
        <ele>677</ele>
        <time>2019-06-02T12:29:08Z</time>
      </trkpt>
      <trkpt lat="43.46407" lon="2.34047">
        <ele>677.20001220703</ele>
        <time>2019-06-02T12:29:10Z</time>
      </trkpt>
      <trkpt lat="43.46407" lon="2.34056">
        <ele>677</ele>
        <time>2019-06-02T12:29:16Z</time>
      </trkpt>
      <trkpt lat="43.46409" lon="2.34062">
        <ele>677.40002441406</ele>
        <time>2019-06-02T12:29:22Z</time>
      </trkpt>
      <trkpt lat="43.46408" lon="2.34075">
        <ele>677.40002441406</ele>
        <time>2019-06-02T12:29:30Z</time>
      </trkpt>
      <trkpt lat="43.46408" lon="2.34082">
        <ele>677.40002441406</ele>
        <time>2019-06-02T12:29:34Z</time>
      </trkpt>
      <trkpt lat="43.46411" lon="2.34088">
        <ele>677.40002441406</ele>
        <time>2019-06-02T12:29:40Z</time>
      </trkpt>
      <trkpt lat="43.46414" lon="2.34099">
        <ele>677.40002441406</ele>
        <time>2019-06-02T12:29:48Z</time>
      </trkpt>
      <trkpt lat="43.46417" lon="2.3411">
        <ele>677.40002441406</ele>
        <time>2019-06-02T12:29:55Z</time>
      </trkpt>
      <trkpt lat="43.46419" lon="2.34118">
        <ele>677.40002441406</ele>
        <time>2019-06-02T12:29:59Z</time>
      </trkpt>
      <trkpt lat="43.46423" lon="2.34125">
        <ele>677.40002441406</ele>
        <time>2019-06-02T12:30:04Z</time>
      </trkpt>
      <trkpt lat="43.46426" lon="2.34132">
        <ele>677.40002441406</ele>
        <time>2019-06-02T12:30:10Z</time>
      </trkpt>
      <trkpt lat="43.46427" lon="2.34134">
        <ele>677.40002441406</ele>
        <time>2019-06-02T12:30:12Z</time>
      </trkpt>
      <trkpt lat="43.46428" lon="2.34138">
        <ele>677.40002441406</ele>
        <time>2019-06-02T12:30:15Z</time>
      </trkpt>
      <trkpt lat="43.46429" lon="2.34142">
        <ele>677.40002441406</ele>
        <time>2019-06-02T12:30:19Z</time>
      </trkpt>
      <trkpt lat="43.46438" lon="2.34149">
        <ele>677.40002441406</ele>
        <time>2019-06-02T12:30:27Z</time>
      </trkpt>
      <trkpt lat="43.46439" lon="2.34151">
        <ele>677.40002441406</ele>
        <time>2019-06-02T12:30:28Z</time>
      </trkpt>
      <trkpt lat="43.4644" lon="2.34155">
        <ele>677.40002441406</ele>
        <time>2019-06-02T12:30:30Z</time>
      </trkpt>
      <trkpt lat="43.46441" lon="2.34159">
        <ele>677.40002441406</ele>
        <time>2019-06-02T12:30:32Z</time>
      </trkpt>
      <trkpt lat="43.46444" lon="2.34171">
        <ele>678</ele>
        <time>2019-06-02T12:30:39Z</time>
      </trkpt>
      <trkpt lat="43.46446" lon="2.34174">
        <ele>678.20001220703</ele>
        <time>2019-06-02T12:30:41Z</time>
      </trkpt>
      <trkpt lat="43.46447" lon="2.34176">
        <ele>678.40002441406</ele>
        <time>2019-06-02T12:30:43Z</time>
      </trkpt>
      <trkpt lat="43.46451" lon="2.34179">
        <ele>678.20001220703</ele>
        <time>2019-06-02T12:30:46Z</time>
      </trkpt>
      <trkpt lat="43.46451" lon="2.34181">
        <ele>678</ele>
        <time>2019-06-02T12:30:47Z</time>
      </trkpt>
      <trkpt lat="43.46455" lon="2.34188">
        <ele>677.40002441406</ele>
        <time>2019-06-02T12:30:54Z</time>
      </trkpt>
      <trkpt lat="43.46455" lon="2.34189">
        <ele>677.40002441406</ele>
        <time>2019-06-02T12:30:55Z</time>
      </trkpt>
      <trkpt lat="43.46455" lon="2.34191">
        <ele>677.40002441406</ele>
        <time>2019-06-02T12:30:56Z</time>
      </trkpt>
      <trkpt lat="43.46458" lon="2.34199">
        <ele>677.79998779297</ele>
        <time>2019-06-02T12:31:02Z</time>
      </trkpt>
      <trkpt lat="43.46459" lon="2.342">
        <ele>677.79998779297</ele>
        <time>2019-06-02T12:31:03Z</time>
      </trkpt>
      <trkpt lat="43.46463" lon="2.34207">
        <ele>677.59997558594</ele>
        <time>2019-06-02T12:31:11Z</time>
      </trkpt>
      <trkpt lat="43.46464" lon="2.34209">
        <ele>677.59997558594</ele>
        <time>2019-06-02T12:31:12Z</time>
      </trkpt>
      <trkpt lat="43.46468" lon="2.34217">
        <ele>677.40002441406</ele>
        <time>2019-06-02T12:31:18Z</time>
      </trkpt>
      <trkpt lat="43.4647" lon="2.34224">
        <ele>677.40002441406</ele>
        <time>2019-06-02T12:31:24Z</time>
      </trkpt>
      <trkpt lat="43.46469" lon="2.34226">
        <ele>677.40002441406</ele>
        <time>2019-06-02T12:31:26Z</time>
      </trkpt>
      <trkpt lat="43.46472" lon="2.34238">
        <ele>677.20001220703</ele>
        <time>2019-06-02T12:31:35Z</time>
      </trkpt>
      <trkpt lat="43.46474" lon="2.34243">
        <ele>677.20001220703</ele>
        <time>2019-06-02T12:31:39Z</time>
      </trkpt>
      <trkpt lat="43.46475" lon="2.34247">
        <ele>677.40002441406</ele>
        <time>2019-06-02T12:31:42Z</time>
      </trkpt>
      <trkpt lat="43.4648" lon="2.34255">
        <ele>677.20001220703</ele>
        <time>2019-06-02T12:31:50Z</time>
      </trkpt>
      <trkpt lat="43.46482" lon="2.34261">
        <ele>677.20001220703</ele>
        <time>2019-06-02T12:31:54Z</time>
      </trkpt>
      <trkpt lat="43.46484" lon="2.34271">
        <ele>677.20001220703</ele>
        <time>2019-06-02T12:32:00Z</time>
      </trkpt>
      <trkpt lat="43.46489" lon="2.3428">
        <ele>677.40002441406</ele>
        <time>2019-06-02T12:32:10Z</time>
      </trkpt>
      <trkpt lat="43.46493" lon="2.34281">
        <ele>678</ele>
        <time>2019-06-02T12:32:15Z</time>
      </trkpt>
      <trkpt lat="43.46495" lon="2.34282">
        <ele>678.40002441406</ele>
        <time>2019-06-02T12:32:18Z</time>
      </trkpt>
      <trkpt lat="43.46499" lon="2.34284">
        <ele>678.79998779297</ele>
        <time>2019-06-02T12:32:23Z</time>
      </trkpt>
      <trkpt lat="43.46503" lon="2.34284">
        <ele>679</ele>
        <time>2019-06-02T12:32:25Z</time>
      </trkpt>
      <trkpt lat="43.46506" lon="2.34285">
        <ele>679.40002441406</ele>
        <time>2019-06-02T12:32:28Z</time>
      </trkpt>
      <trkpt lat="43.46507" lon="2.34286">
        <ele>679.40002441406</ele>
        <time>2019-06-02T12:32:30Z</time>
      </trkpt>
      <trkpt lat="43.46507" lon="2.34286">
        <ele>679.59997558594</ele>
        <time>2019-06-02T12:32:31Z</time>
      </trkpt>
      <trkpt lat="43.46507" lon="2.34283">
        <ele>679.79998779297</ele>
        <time>2019-06-02T12:32:39Z</time>
      </trkpt>
      <trkpt lat="43.46509" lon="2.34278">
        <ele>680</ele>
        <time>2019-06-02T12:32:44Z</time>
      </trkpt>
      <trkpt lat="43.46509" lon="2.34276">
        <ele>680</ele>
        <time>2019-06-02T12:32:46Z</time>
      </trkpt>
      <trkpt lat="43.46508" lon="2.34276">
        <ele>680</ele>
        <time>2019-06-02T12:32:47Z</time>
      </trkpt>
      <trkpt lat="43.46505" lon="2.34268">
        <ele>680</ele>
        <time>2019-06-02T12:32:55Z</time>
      </trkpt>
      <trkpt lat="43.46507" lon="2.3427">
        <ele>680.20001220703</ele>
        <time>2019-06-02T12:33:03Z</time>
      </trkpt>
      <trkpt lat="43.46507" lon="2.3427">
        <ele>680.40002441406</ele>
        <time>2019-06-02T12:33:10Z</time>
      </trkpt>
      <trkpt lat="43.46507" lon="2.34266">
        <ele>680.59997558594</ele>
        <time>2019-06-02T12:33:16Z</time>
      </trkpt>
      <trkpt lat="43.46507" lon="2.34265">
        <ele>680.59997558594</ele>
        <time>2019-06-02T12:33:17Z</time>
      </trkpt>
      <trkpt lat="43.46508" lon="2.34261">
        <ele>680.79998779297</ele>
        <time>2019-06-02T12:33:20Z</time>
      </trkpt>
      <trkpt lat="43.46509" lon="2.34256">
        <ele>680.79998779297</ele>
        <time>2019-06-02T12:33:24Z</time>
      </trkpt>
      <trkpt lat="43.46508" lon="2.3425">
        <ele>680.79998779297</ele>
        <time>2019-06-02T12:33:28Z</time>
      </trkpt>
      <trkpt lat="43.4651" lon="2.34247">
        <ele>681.20001220703</ele>
        <time>2019-06-02T12:33:31Z</time>
      </trkpt>
      <trkpt lat="43.4651" lon="2.34246">
        <ele>681.40002441406</ele>
        <time>2019-06-02T12:33:32Z</time>
      </trkpt>
      <trkpt lat="43.46511" lon="2.34244">
        <ele>681.59997558594</ele>
        <time>2019-06-02T12:33:34Z</time>
      </trkpt>
      <trkpt lat="43.46511" lon="2.34243">
        <ele>681.59997558594</ele>
        <time>2019-06-02T12:33:35Z</time>
      </trkpt>
      <trkpt lat="43.46513" lon="2.34239">
        <ele>681.79998779297</ele>
        <time>2019-06-02T12:33:38Z</time>
      </trkpt>
      <trkpt lat="43.46515" lon="2.34229">
        <ele>681.59997558594</ele>
        <time>2019-06-02T12:33:45Z</time>
      </trkpt>
      <trkpt lat="43.46516" lon="2.34228">
        <ele>681.59997558594</ele>
        <time>2019-06-02T12:33:46Z</time>
      </trkpt>
      <trkpt lat="43.46517" lon="2.34225">
        <ele>681.59997558594</ele>
        <time>2019-06-02T12:33:49Z</time>
      </trkpt>
      <trkpt lat="43.46518" lon="2.34223">
        <ele>681.40002441406</ele>
        <time>2019-06-02T12:33:51Z</time>
      </trkpt>
      <trkpt lat="43.46518" lon="2.34223">
        <ele>681.40002441406</ele>
        <time>2019-06-02T12:33:52Z</time>
      </trkpt>
      <trkpt lat="43.46519" lon="2.34221">
        <ele>681.59997558594</ele>
        <time>2019-06-02T12:33:54Z</time>
      </trkpt>
      <trkpt lat="43.4652" lon="2.34217">
        <ele>681.79998779297</ele>
        <time>2019-06-02T12:33:57Z</time>
      </trkpt>
      <trkpt lat="43.46521" lon="2.3421">
        <ele>682.59997558594</ele>
        <time>2019-06-02T12:34:01Z</time>
      </trkpt>
      <trkpt lat="43.46522" lon="2.34209">
        <ele>682.59997558594</ele>
        <time>2019-06-02T12:34:02Z</time>
      </trkpt>
      <trkpt lat="43.46526" lon="2.34201">
        <ele>683.20001220703</ele>
        <time>2019-06-02T12:34:10Z</time>
      </trkpt>
      <trkpt lat="43.46526" lon="2.342">
        <ele>683.40002441406</ele>
        <time>2019-06-02T12:34:11Z</time>
      </trkpt>
      <trkpt lat="43.46527" lon="2.34199">
        <ele>683.59997558594</ele>
        <time>2019-06-02T12:34:12Z</time>
      </trkpt>
      <trkpt lat="43.46529" lon="2.34193">
        <ele>683.79998779297</ele>
        <time>2019-06-02T12:34:17Z</time>
      </trkpt>
      <trkpt lat="43.4653" lon="2.34193">
        <ele>683.79998779297</ele>
        <time>2019-06-02T12:34:18Z</time>
      </trkpt>
      <trkpt lat="43.4653" lon="2.34192">
        <ele>683.79998779297</ele>
        <time>2019-06-02T12:34:19Z</time>
      </trkpt>
      <trkpt lat="43.46531" lon="2.34191">
        <ele>684</ele>
        <time>2019-06-02T12:34:20Z</time>
      </trkpt>
      <trkpt lat="43.46531" lon="2.3419">
        <ele>684</ele>
        <time>2019-06-02T12:34:21Z</time>
      </trkpt>
      <trkpt lat="43.46532" lon="2.34189">
        <ele>684.20001220703</ele>
        <time>2019-06-02T12:34:22Z</time>
      </trkpt>
      <trkpt lat="43.46533" lon="2.34188">
        <ele>684.20001220703</ele>
        <time>2019-06-02T12:34:23Z</time>
      </trkpt>
      <trkpt lat="43.46533" lon="2.34186">
        <ele>684.20001220703</ele>
        <time>2019-06-02T12:34:24Z</time>
      </trkpt>
      <trkpt lat="43.46533" lon="2.34185">
        <ele>684.20001220703</ele>
        <time>2019-06-02T12:34:25Z</time>
      </trkpt>
      <trkpt lat="43.46534" lon="2.34182">
        <ele>684.40002441406</ele>
        <time>2019-06-02T12:34:27Z</time>
      </trkpt>
      <trkpt lat="43.46536" lon="2.34179">
        <ele>684.59997558594</ele>
        <time>2019-06-02T12:34:30Z</time>
      </trkpt>
      <trkpt lat="43.46537" lon="2.34176">
        <ele>684.79998779297</ele>
        <time>2019-06-02T12:34:33Z</time>
      </trkpt>
      <trkpt lat="43.46538" lon="2.34174">
        <ele>684.79998779297</ele>
        <time>2019-06-02T12:34:35Z</time>
      </trkpt>
      <trkpt lat="43.4654" lon="2.3417">
        <ele>685.40002441406</ele>
        <time>2019-06-02T12:34:39Z</time>
      </trkpt>
      <trkpt lat="43.46541" lon="2.34168">
        <ele>685.40002441406</ele>
        <time>2019-06-02T12:34:41Z</time>
      </trkpt>
      <trkpt lat="43.46541" lon="2.34165">
        <ele>685.59997558594</ele>
        <time>2019-06-02T12:34:43Z</time>
      </trkpt>
      <trkpt lat="43.46542" lon="2.34163">
        <ele>685.59997558594</ele>
        <time>2019-06-02T12:34:45Z</time>
      </trkpt>
      <trkpt lat="43.46545" lon="2.34159">
        <ele>686</ele>
        <time>2019-06-02T12:34:49Z</time>
      </trkpt>
      <trkpt lat="43.46547" lon="2.34157">
        <ele>686.20001220703</ele>
        <time>2019-06-02T12:34:52Z</time>
      </trkpt>
      <trkpt lat="43.46548" lon="2.34153">
        <ele>686.59997558594</ele>
        <time>2019-06-02T12:34:55Z</time>
      </trkpt>
      <trkpt lat="43.46549" lon="2.34152">
        <ele>686.79998779297</ele>
        <time>2019-06-02T12:34:56Z</time>
      </trkpt>
      <trkpt lat="43.46549" lon="2.34149">
        <ele>687</ele>
        <time>2019-06-02T12:34:59Z</time>
      </trkpt>
      <trkpt lat="43.46552" lon="2.34143">
        <ele>687.20001220703</ele>
        <time>2019-06-02T12:35:04Z</time>
      </trkpt>
      <trkpt lat="43.46553" lon="2.34136">
        <ele>687.59997558594</ele>
        <time>2019-06-02T12:35:12Z</time>
      </trkpt>
      <trkpt lat="43.46554" lon="2.34135">
        <ele>687.79998779297</ele>
        <time>2019-06-02T12:35:13Z</time>
      </trkpt>
      <trkpt lat="43.46558" lon="2.34129">
        <ele>688.20001220703</ele>
        <time>2019-06-02T12:35:20Z</time>
      </trkpt>
      <trkpt lat="43.46558" lon="2.34127">
        <ele>688.20001220703</ele>
        <time>2019-06-02T12:35:22Z</time>
      </trkpt>
      <trkpt lat="43.4656" lon="2.34125">
        <ele>688.79998779297</ele>
        <time>2019-06-02T12:35:25Z</time>
      </trkpt>
      <trkpt lat="43.4656" lon="2.34122">
        <ele>689</ele>
        <time>2019-06-02T12:35:27Z</time>
      </trkpt>
      <trkpt lat="43.46565" lon="2.34119">
        <ele>689.40002441406</ele>
        <time>2019-06-02T12:35:33Z</time>
      </trkpt>
      <trkpt lat="43.46565" lon="2.34118">
        <ele>689.40002441406</ele>
        <time>2019-06-02T12:35:34Z</time>
      </trkpt>
      <trkpt lat="43.46568" lon="2.34112">
        <ele>689.79998779297</ele>
        <time>2019-06-02T12:35:40Z</time>
      </trkpt>
      <trkpt lat="43.46569" lon="2.34111">
        <ele>690</ele>
        <time>2019-06-02T12:35:41Z</time>
      </trkpt>
      <trkpt lat="43.46571" lon="2.34103">
        <ele>690.59997558594</ele>
        <time>2019-06-02T12:35:48Z</time>
      </trkpt>
      <trkpt lat="43.46572" lon="2.34102">
        <ele>690.59997558594</ele>
        <time>2019-06-02T12:35:49Z</time>
      </trkpt>
      <trkpt lat="43.46574" lon="2.34095">
        <ele>690.79998779297</ele>
        <time>2019-06-02T12:35:56Z</time>
      </trkpt>
      <trkpt lat="43.46574" lon="2.34094">
        <ele>691</ele>
        <time>2019-06-02T12:35:57Z</time>
      </trkpt>
      <trkpt lat="43.46578" lon="2.34087">
        <ele>691.59997558594</ele>
        <time>2019-06-02T12:36:03Z</time>
      </trkpt>
      <trkpt lat="43.4658" lon="2.34084">
        <ele>692</ele>
        <time>2019-06-02T12:36:09Z</time>
      </trkpt>
      <trkpt lat="43.46581" lon="2.34083">
        <ele>692</ele>
        <time>2019-06-02T12:36:10Z</time>
      </trkpt>
      <trkpt lat="43.46581" lon="2.34082">
        <ele>692.20001220703</ele>
        <time>2019-06-02T12:36:11Z</time>
      </trkpt>
      <trkpt lat="43.46582" lon="2.34081">
        <ele>692.20001220703</ele>
        <time>2019-06-02T12:36:12Z</time>
      </trkpt>
      <trkpt lat="43.46584" lon="2.34078">
        <ele>693</ele>
        <time>2019-06-02T12:36:16Z</time>
      </trkpt>
      <trkpt lat="43.46585" lon="2.34076">
        <ele>693.20001220703</ele>
        <time>2019-06-02T12:36:17Z</time>
      </trkpt>
      <trkpt lat="43.46587" lon="2.34073">
        <ele>693.59997558594</ele>
        <time>2019-06-02T12:36:21Z</time>
      </trkpt>
      <trkpt lat="43.46588" lon="2.34072">
        <ele>693.59997558594</ele>
        <time>2019-06-02T12:36:22Z</time>
      </trkpt>
      <trkpt lat="43.4659" lon="2.34066">
        <ele>694</ele>
        <time>2019-06-02T12:36:28Z</time>
      </trkpt>
      <trkpt lat="43.46591" lon="2.34064">
        <ele>694.20001220703</ele>
        <time>2019-06-02T12:36:30Z</time>
      </trkpt>
      <trkpt lat="43.46591" lon="2.34063">
        <ele>694.40002441406</ele>
        <time>2019-06-02T12:36:31Z</time>
      </trkpt>
      <trkpt lat="43.46593" lon="2.34059">
        <ele>695</ele>
        <time>2019-06-02T12:36:35Z</time>
      </trkpt>
      <trkpt lat="43.46593" lon="2.34056">
        <ele>695.40002441406</ele>
        <time>2019-06-02T12:36:38Z</time>
      </trkpt>
      <trkpt lat="43.46593" lon="2.34052">
        <ele>695.59997558594</ele>
        <time>2019-06-02T12:36:41Z</time>
      </trkpt>
      <trkpt lat="43.46593" lon="2.34051">
        <ele>695.59997558594</ele>
        <time>2019-06-02T12:36:42Z</time>
      </trkpt>
      <trkpt lat="43.46594" lon="2.34043">
        <ele>695.79998779297</ele>
        <time>2019-06-02T12:36:47Z</time>
      </trkpt>
      <trkpt lat="43.46594" lon="2.34041">
        <ele>695.79998779297</ele>
        <time>2019-06-02T12:36:48Z</time>
      </trkpt>
      <trkpt lat="43.46594" lon="2.34035">
        <ele>696.40002441406</ele>
        <time>2019-06-02T12:36:53Z</time>
      </trkpt>
      <trkpt lat="43.46593" lon="2.3403">
        <ele>696.79998779297</ele>
        <time>2019-06-02T12:36:57Z</time>
      </trkpt>
      <trkpt lat="43.46593" lon="2.34027">
        <ele>697</ele>
        <time>2019-06-02T12:36:59Z</time>
      </trkpt>
      <trkpt lat="43.46592" lon="2.3402">
        <ele>697.20001220703</ele>
        <time>2019-06-02T12:37:04Z</time>
      </trkpt>
      <trkpt lat="43.46591" lon="2.34015">
        <ele>697.20001220703</ele>
        <time>2019-06-02T12:37:08Z</time>
      </trkpt>
      <trkpt lat="43.46592" lon="2.34014">
        <ele>697.20001220703</ele>
        <time>2019-06-02T12:37:11Z</time>
      </trkpt>
      <trkpt lat="43.46592" lon="2.34014">
        <ele>697.40002441406</ele>
        <time>2019-06-02T12:37:15Z</time>
      </trkpt>
      <trkpt lat="43.46592" lon="2.34014">
        <ele>697.59997558594</ele>
        <time>2019-06-02T12:37:18Z</time>
      </trkpt>
      <trkpt lat="43.46591" lon="2.34012">
        <ele>697.79998779297</ele>
        <time>2019-06-02T12:37:21Z</time>
      </trkpt>
      <trkpt lat="43.4659" lon="2.34008">
        <ele>698.40002441406</ele>
        <time>2019-06-02T12:37:24Z</time>
      </trkpt>
      <trkpt lat="43.46589" lon="2.34006">
        <ele>698.59997558594</ele>
        <time>2019-06-02T12:37:26Z</time>
      </trkpt>
      <trkpt lat="43.46587" lon="2.34002">
        <ele>699</ele>
        <time>2019-06-02T12:37:32Z</time>
      </trkpt>
      <trkpt lat="43.46586" lon="2.34">
        <ele>699.59997558594</ele>
        <time>2019-06-02T12:37:37Z</time>
      </trkpt>
      <trkpt lat="43.46585" lon="2.33999">
        <ele>699.59997558594</ele>
        <time>2019-06-02T12:37:38Z</time>
      </trkpt>
      <trkpt lat="43.46585" lon="2.33998">
        <ele>699.59997558594</ele>
        <time>2019-06-02T12:37:39Z</time>
      </trkpt>
      <trkpt lat="43.46585" lon="2.33998">
        <ele>699.79998779297</ele>
        <time>2019-06-02T12:37:40Z</time>
      </trkpt>
      <trkpt lat="43.46585" lon="2.33998">
        <ele>699.79998779297</ele>
        <time>2019-06-02T12:37:41Z</time>
      </trkpt>
      <trkpt lat="43.46584" lon="2.33997">
        <ele>700</ele>
        <time>2019-06-02T12:37:42Z</time>
      </trkpt>
      <trkpt lat="43.46584" lon="2.33994">
        <ele>700</ele>
        <time>2019-06-02T12:37:44Z</time>
      </trkpt>
      <trkpt lat="43.46583" lon="2.33993">
        <ele>700</ele>
        <time>2019-06-02T12:37:45Z</time>
      </trkpt>
      <trkpt lat="43.46583" lon="2.33992">
        <ele>700</ele>
        <time>2019-06-02T12:37:46Z</time>
      </trkpt>
      <trkpt lat="43.46582" lon="2.33991">
        <ele>700</ele>
        <time>2019-06-02T12:37:47Z</time>
      </trkpt>
      <trkpt lat="43.46581" lon="2.33989">
        <ele>700.20001220703</ele>
        <time>2019-06-02T12:37:49Z</time>
      </trkpt>
      <trkpt lat="43.46581" lon="2.33987">
        <ele>700.40002441406</ele>
        <time>2019-06-02T12:37:50Z</time>
      </trkpt>
      <trkpt lat="43.4658" lon="2.33984">
        <ele>700.59997558594</ele>
        <time>2019-06-02T12:37:52Z</time>
      </trkpt>
      <trkpt lat="43.46577" lon="2.33976">
        <ele>701.20001220703</ele>
        <time>2019-06-02T12:37:58Z</time>
      </trkpt>
      <trkpt lat="43.46577" lon="2.33975">
        <ele>701.40002441406</ele>
        <time>2019-06-02T12:37:59Z</time>
      </trkpt>
      <trkpt lat="43.46577" lon="2.33968">
        <ele>701.59997558594</ele>
        <time>2019-06-02T12:38:04Z</time>
      </trkpt>
      <trkpt lat="43.46578" lon="2.33965">
        <ele>702</ele>
        <time>2019-06-02T12:38:06Z</time>
      </trkpt>
      <trkpt lat="43.46579" lon="2.33959">
        <ele>702.20001220703</ele>
        <time>2019-06-02T12:38:09Z</time>
      </trkpt>
      <trkpt lat="43.46582" lon="2.3395">
        <ele>702.59997558594</ele>
        <time>2019-06-02T12:38:18Z</time>
      </trkpt>
      <trkpt lat="43.46584" lon="2.33944">
        <ele>703.40002441406</ele>
        <time>2019-06-02T12:38:24Z</time>
      </trkpt>
      <trkpt lat="43.46585" lon="2.33941">
        <ele>703.59997558594</ele>
        <time>2019-06-02T12:38:26Z</time>
      </trkpt>
      <trkpt lat="43.46587" lon="2.33939">
        <ele>704</ele>
        <time>2019-06-02T12:38:29Z</time>
      </trkpt>
      <trkpt lat="43.46589" lon="2.33939">
        <ele>704.20001220703</ele>
        <time>2019-06-02T12:38:31Z</time>
      </trkpt>
      <trkpt lat="43.4659" lon="2.33936">
        <ele>704.59997558594</ele>
        <time>2019-06-02T12:38:34Z</time>
      </trkpt>
      <trkpt lat="43.46592" lon="2.33934">
        <ele>704.79998779297</ele>
        <time>2019-06-02T12:38:36Z</time>
      </trkpt>
      <trkpt lat="43.46592" lon="2.33932">
        <ele>705</ele>
        <time>2019-06-02T12:38:37Z</time>
      </trkpt>
      <trkpt lat="43.46594" lon="2.33927">
        <ele>705</ele>
        <time>2019-06-02T12:38:41Z</time>
      </trkpt>
      <trkpt lat="43.46595" lon="2.33923">
        <ele>705.40002441406</ele>
        <time>2019-06-02T12:38:44Z</time>
      </trkpt>
      <trkpt lat="43.46596" lon="2.3392">
        <ele>705.59997558594</ele>
        <time>2019-06-02T12:38:46Z</time>
      </trkpt>
      <trkpt lat="43.46599" lon="2.33914">
        <ele>705.79998779297</ele>
        <time>2019-06-02T12:38:51Z</time>
      </trkpt>
      <trkpt lat="43.466" lon="2.33912">
        <ele>705.79998779297</ele>
        <time>2019-06-02T12:38:52Z</time>
      </trkpt>
      <trkpt lat="43.46602" lon="2.33904">
        <ele>706.40002441406</ele>
        <time>2019-06-02T12:38:58Z</time>
      </trkpt>
      <trkpt lat="43.46602" lon="2.33901">
        <ele>706.59997558594</ele>
        <time>2019-06-02T12:39:00Z</time>
      </trkpt>
      <trkpt lat="43.46604" lon="2.33899">
        <ele>706.79998779297</ele>
        <time>2019-06-02T12:39:02Z</time>
      </trkpt>
      <trkpt lat="43.46607" lon="2.33892">
        <ele>707.20001220703</ele>
        <time>2019-06-02T12:39:08Z</time>
      </trkpt>
      <trkpt lat="43.46611" lon="2.33886">
        <ele>707.79998779297</ele>
        <time>2019-06-02T12:39:16Z</time>
      </trkpt>
      <trkpt lat="43.46611" lon="2.33885">
        <ele>707.79998779297</ele>
        <time>2019-06-02T12:39:17Z</time>
      </trkpt>
      <trkpt lat="43.46616" lon="2.33881">
        <ele>708.20001220703</ele>
        <time>2019-06-02T12:39:24Z</time>
      </trkpt>
      <trkpt lat="43.46618" lon="2.3388">
        <ele>708.40002441406</ele>
        <time>2019-06-02T12:39:26Z</time>
      </trkpt>
      <trkpt lat="43.4662" lon="2.3388">
        <ele>708.59997558594</ele>
        <time>2019-06-02T12:39:28Z</time>
      </trkpt>
      <trkpt lat="43.46624" lon="2.33885">
        <ele>708.79998779297</ele>
        <time>2019-06-02T12:39:32Z</time>
      </trkpt>
      <trkpt lat="43.4663" lon="2.33894">
        <ele>709.20001220703</ele>
        <time>2019-06-02T12:39:39Z</time>
      </trkpt>
      <trkpt lat="43.46633" lon="2.33899">
        <ele>710</ele>
        <time>2019-06-02T12:39:43Z</time>
      </trkpt>
      <trkpt lat="43.46637" lon="2.33903">
        <ele>710</ele>
        <time>2019-06-02T12:39:48Z</time>
      </trkpt>
      <trkpt lat="43.46645" lon="2.33914">
        <ele>710.59997558594</ele>
        <time>2019-06-02T12:39:57Z</time>
      </trkpt>
      <trkpt lat="43.46647" lon="2.33922">
        <ele>710.79998779297</ele>
        <time>2019-06-02T12:40:05Z</time>
      </trkpt>
      <trkpt lat="43.4665" lon="2.33927">
        <ele>711</ele>
        <time>2019-06-02T12:40:09Z</time>
      </trkpt>
      <trkpt lat="43.46652" lon="2.33929">
        <ele>711.20001220703</ele>
        <time>2019-06-02T12:40:12Z</time>
      </trkpt>
      <trkpt lat="43.46658" lon="2.33937">
        <ele>711.40002441406</ele>
        <time>2019-06-02T12:40:19Z</time>
      </trkpt>
      <trkpt lat="43.46661" lon="2.33946">
        <ele>712</ele>
        <time>2019-06-02T12:40:26Z</time>
      </trkpt>
      <trkpt lat="43.46662" lon="2.33947">
        <ele>712</ele>
        <time>2019-06-02T12:40:27Z</time>
      </trkpt>
      <trkpt lat="43.46665" lon="2.33955">
        <ele>711.59997558594</ele>
        <time>2019-06-02T12:40:33Z</time>
      </trkpt>
      <trkpt lat="43.46665" lon="2.33957">
        <ele>711.59997558594</ele>
        <time>2019-06-02T12:40:34Z</time>
      </trkpt>
      <trkpt lat="43.46671" lon="2.33966">
        <ele>712</ele>
        <time>2019-06-02T12:40:42Z</time>
      </trkpt>
      <trkpt lat="43.4667" lon="2.3398">
        <ele>712</ele>
        <time>2019-06-02T12:40:49Z</time>
      </trkpt>
      <trkpt lat="43.46671" lon="2.33989">
        <ele>712.20001220703</ele>
        <time>2019-06-02T12:40:57Z</time>
      </trkpt>
      <trkpt lat="43.46676" lon="2.33998">
        <ele>712.59997558594</ele>
        <time>2019-06-02T12:41:04Z</time>
      </trkpt>
      <trkpt lat="43.46677" lon="2.34001">
        <ele>712.40002441406</ele>
        <time>2019-06-02T12:41:06Z</time>
      </trkpt>
      <trkpt lat="43.4668" lon="2.34008">
        <ele>712.79998779297</ele>
        <time>2019-06-02T12:41:11Z</time>
      </trkpt>
      <trkpt lat="43.46682" lon="2.34011">
        <ele>713</ele>
        <time>2019-06-02T12:41:15Z</time>
      </trkpt>
      <trkpt lat="43.46686" lon="2.34018">
        <ele>713</ele>
        <time>2019-06-02T12:41:20Z</time>
      </trkpt>
      <trkpt lat="43.46695" lon="2.3403">
        <ele>713.59997558594</ele>
        <time>2019-06-02T12:41:28Z</time>
      </trkpt>
      <trkpt lat="43.46699" lon="2.34036">
        <ele>714</ele>
        <time>2019-06-02T12:41:33Z</time>
      </trkpt>
      <trkpt lat="43.46702" lon="2.34041">
        <ele>714.40002441406</ele>
        <time>2019-06-02T12:41:37Z</time>
      </trkpt>
      <trkpt lat="43.46705" lon="2.34043">
        <ele>714.59997558594</ele>
        <time>2019-06-02T12:41:40Z</time>
      </trkpt>
      <trkpt lat="43.46709" lon="2.34045">
        <ele>714.59997558594</ele>
        <time>2019-06-02T12:41:44Z</time>
      </trkpt>
      <trkpt lat="43.46714" lon="2.34047">
        <ele>714.40002441406</ele>
        <time>2019-06-02T12:41:53Z</time>
      </trkpt>
      <trkpt lat="43.46717" lon="2.34049">
        <ele>714.40002441406</ele>
        <time>2019-06-02T12:41:56Z</time>
      </trkpt>
      <trkpt lat="43.46721" lon="2.3405">
        <ele>715</ele>
        <time>2019-06-02T12:41:59Z</time>
      </trkpt>
      <trkpt lat="43.46723" lon="2.34051">
        <ele>715</ele>
        <time>2019-06-02T12:42:01Z</time>
      </trkpt>
      <trkpt lat="43.46728" lon="2.34053">
        <ele>715</ele>
        <time>2019-06-02T12:42:07Z</time>
      </trkpt>
      <trkpt lat="43.46739" lon="2.34054">
        <ele>715.20001220703</ele>
        <time>2019-06-02T12:42:16Z</time>
      </trkpt>
      <trkpt lat="43.46749" lon="2.34059">
        <ele>715.20001220703</ele>
        <time>2019-06-02T12:42:24Z</time>
      </trkpt>
      <trkpt lat="43.46759" lon="2.34063">
        <ele>715.59997558594</ele>
        <time>2019-06-02T12:42:32Z</time>
      </trkpt>
      <trkpt lat="43.4676" lon="2.34064">
        <ele>716</ele>
        <time>2019-06-02T12:42:33Z</time>
      </trkpt>
      <trkpt lat="43.46761" lon="2.34064">
        <ele>716</ele>
        <time>2019-06-02T12:42:34Z</time>
      </trkpt>
      <trkpt lat="43.46765" lon="2.34063">
        <ele>715.79998779297</ele>
        <time>2019-06-02T12:42:38Z</time>
      </trkpt>
      <trkpt lat="43.46774" lon="2.34069">
        <ele>715.79998779297</ele>
        <time>2019-06-02T12:42:48Z</time>
      </trkpt>
      <trkpt lat="43.46776" lon="2.34069">
        <ele>715.79998779297</ele>
        <time>2019-06-02T12:42:49Z</time>
      </trkpt>
      <trkpt lat="43.46783" lon="2.34074">
        <ele>715.79998779297</ele>
        <time>2019-06-02T12:42:57Z</time>
      </trkpt>
      <trkpt lat="43.46785" lon="2.34084">
        <ele>716.40002441406</ele>
        <time>2019-06-02T12:43:04Z</time>
      </trkpt>
      <trkpt lat="43.46784" lon="2.34097">
        <ele>716.79998779297</ele>
        <time>2019-06-02T12:43:12Z</time>
      </trkpt>
      <trkpt lat="43.46785" lon="2.34103">
        <ele>717.20001220703</ele>
        <time>2019-06-02T12:43:17Z</time>
      </trkpt>
      <trkpt lat="43.46786" lon="2.34104">
        <ele>717</ele>
        <time>2019-06-02T12:43:19Z</time>
      </trkpt>
      <trkpt lat="43.46784" lon="2.34109">
        <ele>717.20001220703</ele>
        <time>2019-06-02T12:43:27Z</time>
      </trkpt>
      <trkpt lat="43.46785" lon="2.34109">
        <ele>717</ele>
        <time>2019-06-02T12:43:32Z</time>
      </trkpt>
      <trkpt lat="43.46787" lon="2.34111">
        <ele>716.59997558594</ele>
        <time>2019-06-02T12:43:37Z</time>
      </trkpt>
      <trkpt lat="43.46789" lon="2.34111">
        <ele>716.59997558594</ele>
        <time>2019-06-02T12:43:46Z</time>
      </trkpt>
      <trkpt lat="43.46788" lon="2.34111">
        <ele>716.59997558594</ele>
        <time>2019-06-02T12:43:51Z</time>
      </trkpt>
      <trkpt lat="43.46788" lon="2.34111">
        <ele>716.59997558594</ele>
        <time>2019-06-02T12:43:53Z</time>
      </trkpt>
      <trkpt lat="43.46787" lon="2.34112">
        <ele>716.59997558594</ele>
        <time>2019-06-02T12:43:55Z</time>
      </trkpt>
      <trkpt lat="43.46788" lon="2.34111">
        <ele>716.59997558594</ele>
        <time>2019-06-02T12:44:03Z</time>
      </trkpt>
      <trkpt lat="43.46788" lon="2.34113">
        <ele>716.59997558594</ele>
        <time>2019-06-02T12:44:11Z</time>
      </trkpt>
      <trkpt lat="43.46788" lon="2.34113">
        <ele>716.59997558594</ele>
        <time>2019-06-02T12:44:12Z</time>
      </trkpt>
      <trkpt lat="43.46788" lon="2.34111">
        <ele>716.79998779297</ele>
        <time>2019-06-02T12:44:21Z</time>
      </trkpt>
      <trkpt lat="43.46789" lon="2.3411">
        <ele>717.20001220703</ele>
        <time>2019-06-02T12:44:28Z</time>
      </trkpt>
      <trkpt lat="43.46789" lon="2.3411">
        <ele>717</ele>
        <time>2019-06-02T12:44:29Z</time>
      </trkpt>
      <trkpt lat="43.46788" lon="2.34109">
        <ele>716.79998779297</ele>
        <time>2019-06-02T12:44:31Z</time>
      </trkpt>
      <trkpt lat="43.46788" lon="2.34109">
        <ele>716.59997558594</ele>
        <time>2019-06-02T12:44:33Z</time>
      </trkpt>
      <trkpt lat="43.46789" lon="2.3411">
        <ele>716.40002441406</ele>
        <time>2019-06-02T12:44:36Z</time>
      </trkpt>
      <trkpt lat="43.4679" lon="2.34111">
        <ele>716.59997558594</ele>
        <time>2019-06-02T12:44:43Z</time>
      </trkpt>
      <trkpt lat="43.46791" lon="2.34112">
        <ele>716.79998779297</ele>
        <time>2019-06-02T12:44:44Z</time>
      </trkpt>
      <trkpt lat="43.46791" lon="2.34116">
        <ele>717.40002441406</ele>
        <time>2019-06-02T12:44:47Z</time>
      </trkpt>
      <trkpt lat="43.46791" lon="2.34119">
        <ele>717.40002441406</ele>
        <time>2019-06-02T12:44:50Z</time>
      </trkpt>
      <trkpt lat="43.46791" lon="2.3412">
        <ele>717.40002441406</ele>
        <time>2019-06-02T12:44:51Z</time>
      </trkpt>
      <trkpt lat="43.46791" lon="2.34125">
        <ele>717.40002441406</ele>
        <time>2019-06-02T12:44:56Z</time>
      </trkpt>
      <trkpt lat="43.46797" lon="2.34128">
        <ele>717.59997558594</ele>
        <time>2019-06-02T12:45:03Z</time>
      </trkpt>
      <trkpt lat="43.46795" lon="2.3413">
        <ele>717.40002441406</ele>
        <time>2019-06-02T12:45:10Z</time>
      </trkpt>
      <trkpt lat="43.46795" lon="2.34131">
        <ele>717.59997558594</ele>
        <time>2019-06-02T12:45:17Z</time>
      </trkpt>
      <trkpt lat="43.46792" lon="2.34126">
        <ele>717.40002441406</ele>
        <time>2019-06-02T12:45:26Z</time>
      </trkpt>
      <trkpt lat="43.46792" lon="2.34126">
        <ele>717.20001220703</ele>
        <time>2019-06-02T12:45:30Z</time>
      </trkpt>
      <trkpt lat="43.46792" lon="2.34126">
        <ele>717</ele>
        <time>2019-06-02T12:45:33Z</time>
      </trkpt>
      <trkpt lat="43.46792" lon="2.34126">
        <ele>716.79998779297</ele>
        <time>2019-06-02T12:45:34Z</time>
      </trkpt>
      <trkpt lat="43.46793" lon="2.34126">
        <ele>716.79998779297</ele>
        <time>2019-06-02T12:45:40Z</time>
      </trkpt>
      <trkpt lat="43.46793" lon="2.34126">
        <ele>716.79998779297</ele>
        <time>2019-06-02T12:45:43Z</time>
      </trkpt>
      <trkpt lat="43.4679" lon="2.34131">
        <ele>716.79998779297</ele>
        <time>2019-06-02T12:45:51Z</time>
      </trkpt>
      <trkpt lat="43.46799" lon="2.34125">
        <ele>717</ele>
        <time>2019-06-02T12:45:59Z</time>
      </trkpt>
      <trkpt lat="43.46795" lon="2.34123">
        <ele>717</ele>
        <time>2019-06-02T12:46:05Z</time>
      </trkpt>
      <trkpt lat="43.46794" lon="2.34122">
        <ele>717</ele>
        <time>2019-06-02T12:46:11Z</time>
      </trkpt>
      <trkpt lat="43.46794" lon="2.34123">
        <ele>717</ele>
        <time>2019-06-02T12:46:14Z</time>
      </trkpt>
      <trkpt lat="43.46795" lon="2.34123">
        <ele>717</ele>
        <time>2019-06-02T12:46:16Z</time>
      </trkpt>
      <trkpt lat="43.46796" lon="2.34124">
        <ele>716.79998779297</ele>
        <time>2019-06-02T12:46:18Z</time>
      </trkpt>
      <trkpt lat="43.46796" lon="2.34126">
        <ele>717</ele>
        <time>2019-06-02T12:46:20Z</time>
      </trkpt>
      <trkpt lat="43.46797" lon="2.34127">
        <ele>717.20001220703</ele>
        <time>2019-06-02T12:46:22Z</time>
      </trkpt>
      <trkpt lat="43.46796" lon="2.34128">
        <ele>717</ele>
        <time>2019-06-02T12:46:31Z</time>
      </trkpt>
      <trkpt lat="43.46792" lon="2.34124">
        <ele>717.20001220703</ele>
        <time>2019-06-02T12:46:38Z</time>
      </trkpt>
      <trkpt lat="43.4679" lon="2.3412">
        <ele>717.20001220703</ele>
        <time>2019-06-02T12:46:41Z</time>
      </trkpt>
      <trkpt lat="43.46788" lon="2.34117">
        <ele>717</ele>
        <time>2019-06-02T12:46:45Z</time>
      </trkpt>
      <trkpt lat="43.4679" lon="2.34116">
        <ele>717.20001220703</ele>
        <time>2019-06-02T12:46:53Z</time>
      </trkpt>
      <trkpt lat="43.46788" lon="2.34113">
        <ele>716</ele>
        <time>2019-06-02T12:47:01Z</time>
      </trkpt>
      <trkpt lat="43.46789" lon="2.34113">
        <ele>716.40002441406</ele>
        <time>2019-06-02T12:47:02Z</time>
      </trkpt>
      <trkpt lat="43.46791" lon="2.34112">
        <ele>716.79998779297</ele>
        <time>2019-06-02T12:47:09Z</time>
      </trkpt>
      <trkpt lat="43.46792" lon="2.34112">
        <ele>716.79998779297</ele>
        <time>2019-06-02T12:47:11Z</time>
      </trkpt>
      <trkpt lat="43.46791" lon="2.34112">
        <ele>716.79998779297</ele>
        <time>2019-06-02T12:47:12Z</time>
      </trkpt>
      <trkpt lat="43.46788" lon="2.34115">
        <ele>716.79998779297</ele>
        <time>2019-06-02T12:47:18Z</time>
      </trkpt>
      <trkpt lat="43.46787" lon="2.34117">
        <ele>716.79998779297</ele>
        <time>2019-06-02T12:47:21Z</time>
      </trkpt>
      <trkpt lat="43.46789" lon="2.34112">
        <ele>716.79998779297</ele>
        <time>2019-06-02T12:47:30Z</time>
      </trkpt>
      <trkpt lat="43.4679" lon="2.34111">
        <ele>716.79998779297</ele>
        <time>2019-06-02T12:47:31Z</time>
      </trkpt>
      <trkpt lat="43.46791" lon="2.3411">
        <ele>716.79998779297</ele>
        <time>2019-06-02T12:47:33Z</time>
      </trkpt>
      <trkpt lat="43.46788" lon="2.3411">
        <ele>716.79998779297</ele>
        <time>2019-06-02T12:47:40Z</time>
      </trkpt>
      <trkpt lat="43.46785" lon="2.34114">
        <ele>716.79998779297</ele>
        <time>2019-06-02T12:47:44Z</time>
      </trkpt>
      <trkpt lat="43.46785" lon="2.34114">
        <ele>716.79998779297</ele>
        <time>2019-06-02T12:47:50Z</time>
      </trkpt>
      <trkpt lat="43.46786" lon="2.34115">
        <ele>716.79998779297</ele>
        <time>2019-06-02T12:47:51Z</time>
      </trkpt>
      <trkpt lat="43.46786" lon="2.34119">
        <ele>717.20001220703</ele>
        <time>2019-06-02T12:47:55Z</time>
      </trkpt>
      <trkpt lat="43.46786" lon="2.3412">
        <ele>717.40002441406</ele>
        <time>2019-06-02T12:47:56Z</time>
      </trkpt>
      <trkpt lat="43.46788" lon="2.34122">
        <ele>717.79998779297</ele>
        <time>2019-06-02T12:48:00Z</time>
      </trkpt>
      <trkpt lat="43.46789" lon="2.34123">
        <ele>717.79998779297</ele>
        <time>2019-06-02T12:48:01Z</time>
      </trkpt>
      <trkpt lat="43.46789" lon="2.34125">
        <ele>717.79998779297</ele>
        <time>2019-06-02T12:48:03Z</time>
      </trkpt>
      <trkpt lat="43.46793" lon="2.34128">
        <ele>718</ele>
        <time>2019-06-02T12:48:08Z</time>
      </trkpt>
      <trkpt lat="43.46792" lon="2.34131">
        <ele>718.20001220703</ele>
        <time>2019-06-02T12:48:13Z</time>
      </trkpt>
      <trkpt lat="43.46792" lon="2.34132">
        <ele>718.20001220703</ele>
        <time>2019-06-02T12:48:14Z</time>
      </trkpt>
      <trkpt lat="43.46794" lon="2.34136">
        <ele>718.40002441406</ele>
        <time>2019-06-02T12:48:21Z</time>
      </trkpt>
      <trkpt lat="43.46793" lon="2.34138">
        <ele>718.59997558594</ele>
        <time>2019-06-02T12:48:24Z</time>
      </trkpt>
      <trkpt lat="43.46794" lon="2.3414">
        <ele>718.59997558594</ele>
        <time>2019-06-02T12:48:25Z</time>
      </trkpt>
      <trkpt lat="43.46794" lon="2.34142">
        <ele>718.79998779297</ele>
        <time>2019-06-02T12:48:27Z</time>
      </trkpt>
      <trkpt lat="43.46797" lon="2.34147">
        <ele>719.20001220703</ele>
        <time>2019-06-02T12:48:32Z</time>
      </trkpt>
      <trkpt lat="43.46797" lon="2.34149">
        <ele>719.40002441406</ele>
        <time>2019-06-02T12:48:34Z</time>
      </trkpt>
      <trkpt lat="43.46801" lon="2.34156">
        <ele>719.79998779297</ele>
        <time>2019-06-02T12:48:40Z</time>
      </trkpt>
      <trkpt lat="43.46802" lon="2.34157">
        <ele>719.79998779297</ele>
        <time>2019-06-02T12:48:41Z</time>
      </trkpt>
      <trkpt lat="43.46803" lon="2.34158">
        <ele>719.79998779297</ele>
        <time>2019-06-02T12:48:42Z</time>
      </trkpt>
      <trkpt lat="43.46805" lon="2.34166">
        <ele>720</ele>
        <time>2019-06-02T12:48:47Z</time>
      </trkpt>
      <trkpt lat="43.46803" lon="2.34169">
        <ele>720.20001220703</ele>
        <time>2019-06-02T12:48:49Z</time>
      </trkpt>
      <trkpt lat="43.46805" lon="2.34172">
        <ele>720.20001220703</ele>
        <time>2019-06-02T12:48:54Z</time>
      </trkpt>
      <trkpt lat="43.46806" lon="2.34172">
        <ele>720.40002441406</ele>
        <time>2019-06-02T12:48:55Z</time>
      </trkpt>
      <trkpt lat="43.46805" lon="2.34172">
        <ele>720.40002441406</ele>
        <time>2019-06-02T12:48:59Z</time>
      </trkpt>
      <trkpt lat="43.46805" lon="2.34172">
        <ele>720.40002441406</ele>
        <time>2019-06-02T12:49:03Z</time>
      </trkpt>
      <trkpt lat="43.46805" lon="2.34173">
        <ele>720.59997558594</ele>
        <time>2019-06-02T12:49:08Z</time>
      </trkpt>
      <trkpt lat="43.46805" lon="2.34175">
        <ele>720.40002441406</ele>
        <time>2019-06-02T12:49:11Z</time>
      </trkpt>
      <trkpt lat="43.46804" lon="2.34181">
        <ele>720.59997558594</ele>
        <time>2019-06-02T12:49:19Z</time>
      </trkpt>
      <trkpt lat="43.46805" lon="2.34185">
        <ele>720.79998779297</ele>
        <time>2019-06-02T12:49:26Z</time>
      </trkpt>
      <trkpt lat="43.46806" lon="2.34188">
        <ele>721</ele>
        <time>2019-06-02T12:49:29Z</time>
      </trkpt>
      <trkpt lat="43.46808" lon="2.3419">
        <ele>721.40002441406</ele>
        <time>2019-06-02T12:49:32Z</time>
      </trkpt>
      <trkpt lat="43.46809" lon="2.34191">
        <ele>721.59997558594</ele>
        <time>2019-06-02T12:49:33Z</time>
      </trkpt>
      <trkpt lat="43.46817" lon="2.34197">
        <ele>722.20001220703</ele>
        <time>2019-06-02T12:49:38Z</time>
      </trkpt>
      <trkpt lat="43.46819" lon="2.342">
        <ele>722.40002441406</ele>
        <time>2019-06-02T12:49:40Z</time>
      </trkpt>
      <trkpt lat="43.4682" lon="2.34201">
        <ele>722.59997558594</ele>
        <time>2019-06-02T12:49:41Z</time>
      </trkpt>
      <trkpt lat="43.46821" lon="2.34202">
        <ele>722.59997558594</ele>
        <time>2019-06-02T12:49:42Z</time>
      </trkpt>
      <trkpt lat="43.46824" lon="2.34203">
        <ele>722.79998779297</ele>
        <time>2019-06-02T12:49:43Z</time>
      </trkpt>
      <trkpt lat="43.46825" lon="2.34204">
        <ele>723</ele>
        <time>2019-06-02T12:49:45Z</time>
      </trkpt>
      <trkpt lat="43.46828" lon="2.34206">
        <ele>723</ele>
        <time>2019-06-02T12:49:47Z</time>
      </trkpt>
      <trkpt lat="43.46829" lon="2.34208">
        <ele>723</ele>
        <time>2019-06-02T12:49:48Z</time>
      </trkpt>
      <trkpt lat="43.4683" lon="2.3421">
        <ele>723.20001220703</ele>
        <time>2019-06-02T12:49:50Z</time>
      </trkpt>
      <trkpt lat="43.4683" lon="2.34211">
        <ele>723.20001220703</ele>
        <time>2019-06-02T12:49:51Z</time>
      </trkpt>
      <trkpt lat="43.4683" lon="2.34212">
        <ele>723.20001220703</ele>
        <time>2019-06-02T12:49:52Z</time>
      </trkpt>
      <trkpt lat="43.46831" lon="2.34213">
        <ele>723.20001220703</ele>
        <time>2019-06-02T12:49:53Z</time>
      </trkpt>
      <trkpt lat="43.46832" lon="2.34215">
        <ele>723.40002441406</ele>
        <time>2019-06-02T12:49:55Z</time>
      </trkpt>
      <trkpt lat="43.46832" lon="2.34216">
        <ele>723.59997558594</ele>
        <time>2019-06-02T12:49:56Z</time>
      </trkpt>
      <trkpt lat="43.46834" lon="2.3422">
        <ele>723.59997558594</ele>
        <time>2019-06-02T12:49:59Z</time>
      </trkpt>
      <trkpt lat="43.46837" lon="2.34224">
        <ele>723.79998779297</ele>
        <time>2019-06-02T12:50:02Z</time>
      </trkpt>
      <trkpt lat="43.46837" lon="2.34225">
        <ele>723.79998779297</ele>
        <time>2019-06-02T12:50:03Z</time>
      </trkpt>
      <trkpt lat="43.46839" lon="2.34235">
        <ele>723.79998779297</ele>
        <time>2019-06-02T12:50:12Z</time>
      </trkpt>
      <trkpt lat="43.46843" lon="2.3424">
        <ele>724.40002441406</ele>
        <time>2019-06-02T12:50:16Z</time>
      </trkpt>
      <trkpt lat="43.46846" lon="2.34245">
        <ele>724.59997558594</ele>
        <time>2019-06-02T12:50:20Z</time>
      </trkpt>
      <trkpt lat="43.46846" lon="2.34246">
        <ele>724.40002441406</ele>
        <time>2019-06-02T12:50:21Z</time>
      </trkpt>
      <trkpt lat="43.46848" lon="2.34251">
        <ele>724.20001220703</ele>
        <time>2019-06-02T12:50:25Z</time>
      </trkpt>
      <trkpt lat="43.46852" lon="2.34257">
        <ele>724.20001220703</ele>
        <time>2019-06-02T12:50:29Z</time>
      </trkpt>
      <trkpt lat="43.46854" lon="2.34261">
        <ele>724</ele>
        <time>2019-06-02T12:50:33Z</time>
      </trkpt>
      <trkpt lat="43.46857" lon="2.3427">
        <ele>723.20001220703</ele>
        <time>2019-06-02T12:50:40Z</time>
      </trkpt>
      <trkpt lat="43.4686" lon="2.34275">
        <ele>722.79998779297</ele>
        <time>2019-06-02T12:50:45Z</time>
      </trkpt>
      <trkpt lat="43.46861" lon="2.34276">
        <ele>722.79998779297</ele>
        <time>2019-06-02T12:50:46Z</time>
      </trkpt>
      <trkpt lat="43.46864" lon="2.34281">
        <ele>722.40002441406</ele>
        <time>2019-06-02T12:50:51Z</time>
      </trkpt>
      <trkpt lat="43.46865" lon="2.34282">
        <ele>722.40002441406</ele>
        <time>2019-06-02T12:50:52Z</time>
      </trkpt>
      <trkpt lat="43.46868" lon="2.34288">
        <ele>722.79998779297</ele>
        <time>2019-06-02T12:50:59Z</time>
      </trkpt>
      <trkpt lat="43.46868" lon="2.3429">
        <ele>722.79998779297</ele>
        <time>2019-06-02T12:51:00Z</time>
      </trkpt>
      <trkpt lat="43.46869" lon="2.34294">
        <ele>722.59997558594</ele>
        <time>2019-06-02T12:51:02Z</time>
      </trkpt>
      <trkpt lat="43.46872" lon="2.34299">
        <ele>721.79998779297</ele>
        <time>2019-06-02T12:51:06Z</time>
      </trkpt>
      <trkpt lat="43.46873" lon="2.34302">
        <ele>721.40002441406</ele>
        <time>2019-06-02T12:51:08Z</time>
      </trkpt>
      <trkpt lat="43.46875" lon="2.34305">
        <ele>721.20001220703</ele>
        <time>2019-06-02T12:51:10Z</time>
      </trkpt>
      <trkpt lat="43.46878" lon="2.34309">
        <ele>721.59997558594</ele>
        <time>2019-06-02T12:51:13Z</time>
      </trkpt>
      <trkpt lat="43.46883" lon="2.34314">
        <ele>721.79998779297</ele>
        <time>2019-06-02T12:51:18Z</time>
      </trkpt>
      <trkpt lat="43.46886" lon="2.34314">
        <ele>721.79998779297</ele>
        <time>2019-06-02T12:51:20Z</time>
      </trkpt>
      <trkpt lat="43.46891" lon="2.34322">
        <ele>721.79998779297</ele>
        <time>2019-06-02T12:51:28Z</time>
      </trkpt>
      <trkpt lat="43.46894" lon="2.34323">
        <ele>721.79998779297</ele>
        <time>2019-06-02T12:51:31Z</time>
      </trkpt>
      <trkpt lat="43.46897" lon="2.34325">
        <ele>721.59997558594</ele>
        <time>2019-06-02T12:51:34Z</time>
      </trkpt>
      <trkpt lat="43.46901" lon="2.34332">
        <ele>721.79998779297</ele>
        <time>2019-06-02T12:51:41Z</time>
      </trkpt>
      <trkpt lat="43.46903" lon="2.34336">
        <ele>721.59997558594</ele>
        <time>2019-06-02T12:51:44Z</time>
      </trkpt>
      <trkpt lat="43.46903" lon="2.34338">
        <ele>721.59997558594</ele>
        <time>2019-06-02T12:51:45Z</time>
      </trkpt>
      <trkpt lat="43.46904" lon="2.34339">
        <ele>721.59997558594</ele>
        <time>2019-06-02T12:51:46Z</time>
      </trkpt>
      <trkpt lat="43.46904" lon="2.34344">
        <ele>721.79998779297</ele>
        <time>2019-06-02T12:51:50Z</time>
      </trkpt>
      <trkpt lat="43.46904" lon="2.34347">
        <ele>721.79998779297</ele>
        <time>2019-06-02T12:51:52Z</time>
      </trkpt>
      <trkpt lat="43.46907" lon="2.34356">
        <ele>721.59997558594</ele>
        <time>2019-06-02T12:51:58Z</time>
      </trkpt>
      <trkpt lat="43.46913" lon="2.34369">
        <ele>721.79998779297</ele>
        <time>2019-06-02T12:52:07Z</time>
      </trkpt>
      <trkpt lat="43.46914" lon="2.34372">
        <ele>722</ele>
        <time>2019-06-02T12:52:09Z</time>
      </trkpt>
      <trkpt lat="43.46917" lon="2.34378">
        <ele>722.20001220703</ele>
        <time>2019-06-02T12:52:13Z</time>
      </trkpt>
      <trkpt lat="43.4692" lon="2.34385">
        <ele>722.40002441406</ele>
        <time>2019-06-02T12:52:19Z</time>
      </trkpt>
      <trkpt lat="43.4692" lon="2.34385">
        <ele>722.40002441406</ele>
        <time>2019-06-02T12:52:20Z</time>
      </trkpt>
      <trkpt lat="43.46921" lon="2.34386">
        <ele>722.59997558594</ele>
        <time>2019-06-02T12:52:22Z</time>
      </trkpt>
      <trkpt lat="43.46924" lon="2.34388">
        <ele>723</ele>
        <time>2019-06-02T12:52:26Z</time>
      </trkpt>
      <trkpt lat="43.46927" lon="2.34391">
        <ele>723.20001220703</ele>
        <time>2019-06-02T12:52:29Z</time>
      </trkpt>
      <trkpt lat="43.4693" lon="2.34393">
        <ele>723.20001220703</ele>
        <time>2019-06-02T12:52:32Z</time>
      </trkpt>
      <trkpt lat="43.46933" lon="2.34395">
        <ele>723</ele>
        <time>2019-06-02T12:52:35Z</time>
      </trkpt>
      <trkpt lat="43.46935" lon="2.34396">
        <ele>723</ele>
        <time>2019-06-02T12:52:38Z</time>
      </trkpt>
      <trkpt lat="43.46936" lon="2.34397">
        <ele>723.20001220703</ele>
        <time>2019-06-02T12:52:40Z</time>
      </trkpt>
      <trkpt lat="43.46942" lon="2.34401">
        <ele>722.79998779297</ele>
        <time>2019-06-02T12:52:47Z</time>
      </trkpt>
      <trkpt lat="43.46943" lon="2.34402">
        <ele>722.79998779297</ele>
        <time>2019-06-02T12:52:48Z</time>
      </trkpt>
      <trkpt lat="43.46949" lon="2.34409">
        <ele>722.20001220703</ele>
        <time>2019-06-02T12:52:55Z</time>
      </trkpt>
      <trkpt lat="43.46951" lon="2.3441">
        <ele>722.20001220703</ele>
        <time>2019-06-02T12:52:56Z</time>
      </trkpt>
      <trkpt lat="43.46956" lon="2.34411">
        <ele>721.79998779297</ele>
        <time>2019-06-02T12:53:01Z</time>
      </trkpt>
      <trkpt lat="43.46957" lon="2.3441">
        <ele>721.40002441406</ele>
        <time>2019-06-02T12:53:03Z</time>
      </trkpt>
      <trkpt lat="43.46958" lon="2.34409">
        <ele>721.20001220703</ele>
        <time>2019-06-02T12:53:04Z</time>
      </trkpt>
      <trkpt lat="43.46963" lon="2.34408">
        <ele>721</ele>
        <time>2019-06-02T12:53:08Z</time>
      </trkpt>
      <trkpt lat="43.46964" lon="2.34408">
        <ele>721</ele>
        <time>2019-06-02T12:53:09Z</time>
      </trkpt>
      <trkpt lat="43.46966" lon="2.34409">
        <ele>720.79998779297</ele>
        <time>2019-06-02T12:53:10Z</time>
      </trkpt>
      <trkpt lat="43.46967" lon="2.34409">
        <ele>720.79998779297</ele>
        <time>2019-06-02T12:53:11Z</time>
      </trkpt>
      <trkpt lat="43.4697" lon="2.34411">
        <ele>720.59997558594</ele>
        <time>2019-06-02T12:53:16Z</time>
      </trkpt>
      <trkpt lat="43.46971" lon="2.34411">
        <ele>720.59997558594</ele>
        <time>2019-06-02T12:53:17Z</time>
      </trkpt>
      <trkpt lat="43.46974" lon="2.34412">
        <ele>720.20001220703</ele>
        <time>2019-06-02T12:53:20Z</time>
      </trkpt>
      <trkpt lat="43.46975" lon="2.34412">
        <ele>720.20001220703</ele>
        <time>2019-06-02T12:53:22Z</time>
      </trkpt>
      <trkpt lat="43.46983" lon="2.34416">
        <ele>720.20001220703</ele>
        <time>2019-06-02T12:53:29Z</time>
      </trkpt>
      <trkpt lat="43.4699" lon="2.3442">
        <ele>719.79998779297</ele>
        <time>2019-06-02T12:53:35Z</time>
      </trkpt>
      <trkpt lat="43.46998" lon="2.34421">
        <ele>720.40002441406</ele>
        <time>2019-06-02T12:53:41Z</time>
      </trkpt>
      <trkpt lat="43.46999" lon="2.34421">
        <ele>720.40002441406</ele>
        <time>2019-06-02T12:53:42Z</time>
      </trkpt>
      <trkpt lat="43.47004" lon="2.34421">
        <ele>720.79998779297</ele>
        <time>2019-06-02T12:53:48Z</time>
      </trkpt>
      <trkpt lat="43.47009" lon="2.34423">
        <ele>720.79998779297</ele>
        <time>2019-06-02T12:53:52Z</time>
      </trkpt>
      <trkpt lat="43.47013" lon="2.34426">
        <ele>720.79998779297</ele>
        <time>2019-06-02T12:53:55Z</time>
      </trkpt>
      <trkpt lat="43.47018" lon="2.34425">
        <ele>721.20001220703</ele>
        <time>2019-06-02T12:54:02Z</time>
      </trkpt>
      <trkpt lat="43.47025" lon="2.34427">
        <ele>721</ele>
        <time>2019-06-02T12:54:09Z</time>
      </trkpt>
      <trkpt lat="43.47034" lon="2.34428">
        <ele>720.40002441406</ele>
        <time>2019-06-02T12:54:17Z</time>
      </trkpt>
      <trkpt lat="43.47041" lon="2.34428">
        <ele>719.59997558594</ele>
        <time>2019-06-02T12:54:24Z</time>
      </trkpt>
      <trkpt lat="43.47048" lon="2.34432">
        <ele>719.20001220703</ele>
        <time>2019-06-02T12:54:30Z</time>
      </trkpt>
      <trkpt lat="43.4705" lon="2.34433">
        <ele>719</ele>
        <time>2019-06-02T12:54:31Z</time>
      </trkpt>
      <trkpt lat="43.47057" lon="2.34435">
        <ele>718.59997558594</ele>
        <time>2019-06-02T12:54:38Z</time>
      </trkpt>
      <trkpt lat="43.4706" lon="2.34437">
        <ele>718.20001220703</ele>
        <time>2019-06-02T12:54:42Z</time>
      </trkpt>
      <trkpt lat="43.47063" lon="2.34438">
        <ele>717.79998779297</ele>
        <time>2019-06-02T12:54:44Z</time>
      </trkpt>
      <trkpt lat="43.47066" lon="2.34439">
        <ele>717.79998779297</ele>
        <time>2019-06-02T12:54:45Z</time>
      </trkpt>
      <trkpt lat="43.47073" lon="2.34442">
        <ele>717.20001220703</ele>
        <time>2019-06-02T12:54:51Z</time>
      </trkpt>
      <trkpt lat="43.47075" lon="2.34443">
        <ele>717</ele>
        <time>2019-06-02T12:54:53Z</time>
      </trkpt>
      <trkpt lat="43.4708" lon="2.34443">
        <ele>716.59997558594</ele>
        <time>2019-06-02T12:54:56Z</time>
      </trkpt>
      <trkpt lat="43.47081" lon="2.34443">
        <ele>716.59997558594</ele>
        <time>2019-06-02T12:54:58Z</time>
      </trkpt>
      <trkpt lat="43.47085" lon="2.34444">
        <ele>716.40002441406</ele>
        <time>2019-06-02T12:55:02Z</time>
      </trkpt>
      <trkpt lat="43.47086" lon="2.34443">
        <ele>716.20001220703</ele>
        <time>2019-06-02T12:55:04Z</time>
      </trkpt>
      <trkpt lat="43.47087" lon="2.34444">
        <ele>716</ele>
        <time>2019-06-02T12:55:05Z</time>
      </trkpt>
      <trkpt lat="43.47093" lon="2.34445">
        <ele>715.59997558594</ele>
        <time>2019-06-02T12:55:11Z</time>
      </trkpt>
      <trkpt lat="43.47096" lon="2.34445">
        <ele>715.20001220703</ele>
        <time>2019-06-02T12:55:13Z</time>
      </trkpt>
      <trkpt lat="43.47096" lon="2.34444">
        <ele>715</ele>
        <time>2019-06-02T12:55:14Z</time>
      </trkpt>
      <trkpt lat="43.471" lon="2.34442">
        <ele>714.79998779297</ele>
        <time>2019-06-02T12:55:17Z</time>
      </trkpt>
      <trkpt lat="43.47105" lon="2.34444">
        <ele>714.40002441406</ele>
        <time>2019-06-02T12:55:21Z</time>
      </trkpt>
      <trkpt lat="43.47106" lon="2.34445">
        <ele>714.20001220703</ele>
        <time>2019-06-02T12:55:22Z</time>
      </trkpt>
      <trkpt lat="43.47107" lon="2.34446">
        <ele>714</ele>
        <time>2019-06-02T12:55:23Z</time>
      </trkpt>
      <trkpt lat="43.47108" lon="2.34446">
        <ele>714</ele>
        <time>2019-06-02T12:55:24Z</time>
      </trkpt>
      <trkpt lat="43.47113" lon="2.34449">
        <ele>713.40002441406</ele>
        <time>2019-06-02T12:55:30Z</time>
      </trkpt>
      <trkpt lat="43.47117" lon="2.34451">
        <ele>713.20001220703</ele>
        <time>2019-06-02T12:55:33Z</time>
      </trkpt>
      <trkpt lat="43.47119" lon="2.34452">
        <ele>713</ele>
        <time>2019-06-02T12:55:35Z</time>
      </trkpt>
      <trkpt lat="43.47121" lon="2.34452">
        <ele>713</ele>
        <time>2019-06-02T12:55:36Z</time>
      </trkpt>
      <trkpt lat="43.47126" lon="2.34455">
        <ele>712.79998779297</ele>
        <time>2019-06-02T12:55:39Z</time>
      </trkpt>
      <trkpt lat="43.47128" lon="2.34455">
        <ele>712.59997558594</ele>
        <time>2019-06-02T12:55:41Z</time>
      </trkpt>
      <trkpt lat="43.4714" lon="2.34454">
        <ele>712</ele>
        <time>2019-06-02T12:55:49Z</time>
      </trkpt>
      <trkpt lat="43.47144" lon="2.34455">
        <ele>711.79998779297</ele>
        <time>2019-06-02T12:55:53Z</time>
      </trkpt>
      <trkpt lat="43.47145" lon="2.34455">
        <ele>711.40002441406</ele>
        <time>2019-06-02T12:55:55Z</time>
      </trkpt>
      <trkpt lat="43.47149" lon="2.34458">
        <ele>710.59997558594</ele>
        <time>2019-06-02T12:55:58Z</time>
      </trkpt>
      <trkpt lat="43.47152" lon="2.34461">
        <ele>710.20001220703</ele>
        <time>2019-06-02T12:56:01Z</time>
      </trkpt>
      <trkpt lat="43.47155" lon="2.34463">
        <ele>710.20001220703</ele>
        <time>2019-06-02T12:56:04Z</time>
      </trkpt>
      <trkpt lat="43.4716" lon="2.34464">
        <ele>710.59997558594</ele>
        <time>2019-06-02T12:56:07Z</time>
      </trkpt>
      <trkpt lat="43.47168" lon="2.34464">
        <ele>710.20001220703</ele>
        <time>2019-06-02T12:56:14Z</time>
      </trkpt>
      <trkpt lat="43.47176" lon="2.34461">
        <ele>709.79998779297</ele>
        <time>2019-06-02T12:56:23Z</time>
      </trkpt>
      <trkpt lat="43.47177" lon="2.34461">
        <ele>709.79998779297</ele>
        <time>2019-06-02T12:56:24Z</time>
      </trkpt>
      <trkpt lat="43.47179" lon="2.34461">
        <ele>710</ele>
        <time>2019-06-02T12:56:26Z</time>
      </trkpt>
      <trkpt lat="43.47184" lon="2.34459">
        <ele>709.59997558594</ele>
        <time>2019-06-02T12:56:30Z</time>
      </trkpt>
      <trkpt lat="43.47185" lon="2.34459">
        <ele>709.40002441406</ele>
        <time>2019-06-02T12:56:31Z</time>
      </trkpt>
      <trkpt lat="43.47193" lon="2.34454">
        <ele>708.79998779297</ele>
        <time>2019-06-02T12:56:40Z</time>
      </trkpt>
      <trkpt lat="43.47198" lon="2.34452">
        <ele>708.40002441406</ele>
        <time>2019-06-02T12:56:45Z</time>
      </trkpt>
      <trkpt lat="43.47203" lon="2.3445">
        <ele>707.79998779297</ele>
        <time>2019-06-02T12:56:50Z</time>
      </trkpt>
      <trkpt lat="43.47213" lon="2.34448">
        <ele>707.20001220703</ele>
        <time>2019-06-02T12:56:59Z</time>
      </trkpt>
      <trkpt lat="43.47223" lon="2.34446">
        <ele>706.59997558594</ele>
        <time>2019-06-02T12:57:09Z</time>
      </trkpt>
      <trkpt lat="43.47224" lon="2.34442">
        <ele>706.20001220703</ele>
        <time>2019-06-02T12:57:11Z</time>
      </trkpt>
      <trkpt lat="43.47227" lon="2.34439">
        <ele>705.79998779297</ele>
        <time>2019-06-02T12:57:16Z</time>
      </trkpt>
      <trkpt lat="43.47234" lon="2.34436">
        <ele>705.20001220703</ele>
        <time>2019-06-02T12:57:23Z</time>
      </trkpt>
      <trkpt lat="43.47235" lon="2.34436">
        <ele>705.20001220703</ele>
        <time>2019-06-02T12:57:24Z</time>
      </trkpt>
      <trkpt lat="43.47241" lon="2.34433">
        <ele>704.59997558594</ele>
        <time>2019-06-02T12:57:30Z</time>
      </trkpt>
      <trkpt lat="43.47244" lon="2.34432">
        <ele>704.20001220703</ele>
        <time>2019-06-02T12:57:34Z</time>
      </trkpt>
      <trkpt lat="43.47245" lon="2.34431">
        <ele>704</ele>
        <time>2019-06-02T12:57:35Z</time>
      </trkpt>
      <trkpt lat="43.47247" lon="2.34431">
        <ele>704</ele>
        <time>2019-06-02T12:57:37Z</time>
      </trkpt>
      <trkpt lat="43.47249" lon="2.34429">
        <ele>703.79998779297</ele>
        <time>2019-06-02T12:57:39Z</time>
      </trkpt>
      <trkpt lat="43.47253" lon="2.34426">
        <ele>703</ele>
        <time>2019-06-02T12:57:43Z</time>
      </trkpt>
      <trkpt lat="43.47254" lon="2.34426">
        <ele>703</ele>
        <time>2019-06-02T12:57:44Z</time>
      </trkpt>
      <trkpt lat="43.47261" lon="2.34424">
        <ele>702.79998779297</ele>
        <time>2019-06-02T12:57:49Z</time>
      </trkpt>
      <trkpt lat="43.47264" lon="2.34425">
        <ele>702.79998779297</ele>
        <time>2019-06-02T12:57:51Z</time>
      </trkpt>
      <trkpt lat="43.47271" lon="2.34425">
        <ele>702.40002441406</ele>
        <time>2019-06-02T12:57:56Z</time>
      </trkpt>
      <trkpt lat="43.4728" lon="2.34422">
        <ele>702</ele>
        <time>2019-06-02T12:58:02Z</time>
      </trkpt>
      <trkpt lat="43.47281" lon="2.34421">
        <ele>702</ele>
        <time>2019-06-02T12:58:03Z</time>
      </trkpt>
      <trkpt lat="43.47289" lon="2.34418">
        <ele>701.20001220703</ele>
        <time>2019-06-02T12:58:10Z</time>
      </trkpt>
      <trkpt lat="43.4729" lon="2.34418">
        <ele>701.20001220703</ele>
        <time>2019-06-02T12:58:11Z</time>
      </trkpt>
      <trkpt lat="43.47293" lon="2.34418">
        <ele>701.20001220703</ele>
        <time>2019-06-02T12:58:16Z</time>
      </trkpt>
      <trkpt lat="43.47294" lon="2.34417">
        <ele>700.79998779297</ele>
        <time>2019-06-02T12:58:18Z</time>
      </trkpt>
      <trkpt lat="43.47299" lon="2.34416">
        <ele>700.40002441406</ele>
        <time>2019-06-02T12:58:22Z</time>
      </trkpt>
      <trkpt lat="43.47304" lon="2.34415">
        <ele>700.20001220703</ele>
        <time>2019-06-02T12:58:27Z</time>
      </trkpt>
      <trkpt lat="43.47307" lon="2.34416">
        <ele>700</ele>
        <time>2019-06-02T12:58:29Z</time>
      </trkpt>
      <trkpt lat="43.47315" lon="2.34414">
        <ele>700</ele>
        <time>2019-06-02T12:58:36Z</time>
      </trkpt>
      <trkpt lat="43.47316" lon="2.34412">
        <ele>699.59997558594</ele>
        <time>2019-06-02T12:58:37Z</time>
      </trkpt>
      <trkpt lat="43.47322" lon="2.34409">
        <ele>698.79998779297</ele>
        <time>2019-06-02T12:58:42Z</time>
      </trkpt>
      <trkpt lat="43.47323" lon="2.34409">
        <ele>698.59997558594</ele>
        <time>2019-06-02T12:58:43Z</time>
      </trkpt>
      <trkpt lat="43.47326" lon="2.34409">
        <ele>698</ele>
        <time>2019-06-02T12:58:47Z</time>
      </trkpt>
      <trkpt lat="43.47328" lon="2.34409">
        <ele>698</ele>
        <time>2019-06-02T12:58:48Z</time>
      </trkpt>
      <trkpt lat="43.47335" lon="2.34409">
        <ele>697.59997558594</ele>
        <time>2019-06-02T12:58:54Z</time>
      </trkpt>
      <trkpt lat="43.47347" lon="2.3441">
        <ele>696.79998779297</ele>
        <time>2019-06-02T12:59:02Z</time>
      </trkpt>
      <trkpt lat="43.47349" lon="2.34411">
        <ele>696.40002441406</ele>
        <time>2019-06-02T12:59:04Z</time>
      </trkpt>
      <trkpt lat="43.47351" lon="2.34411">
        <ele>696</ele>
        <time>2019-06-02T12:59:07Z</time>
      </trkpt>
      <trkpt lat="43.47352" lon="2.34412">
        <ele>696</ele>
        <time>2019-06-02T12:59:08Z</time>
      </trkpt>
      <trkpt lat="43.47358" lon="2.34413">
        <ele>696</ele>
        <time>2019-06-02T12:59:13Z</time>
      </trkpt>
      <trkpt lat="43.47362" lon="2.34414">
        <ele>695.79998779297</ele>
        <time>2019-06-02T12:59:16Z</time>
      </trkpt>
      <trkpt lat="43.47363" lon="2.34415">
        <ele>695.79998779297</ele>
        <time>2019-06-02T12:59:17Z</time>
      </trkpt>
      <trkpt lat="43.47369" lon="2.34417">
        <ele>695.59997558594</ele>
        <time>2019-06-02T12:59:23Z</time>
      </trkpt>
      <trkpt lat="43.4737" lon="2.34417">
        <ele>695.40002441406</ele>
        <time>2019-06-02T12:59:24Z</time>
      </trkpt>
      <trkpt lat="43.47374" lon="2.34419">
        <ele>695.20001220703</ele>
        <time>2019-06-02T12:59:29Z</time>
      </trkpt>
      <trkpt lat="43.47375" lon="2.34419">
        <ele>695.20001220703</ele>
        <time>2019-06-02T12:59:30Z</time>
      </trkpt>
      <trkpt lat="43.47381" lon="2.34421">
        <ele>694.79998779297</ele>
        <time>2019-06-02T12:59:36Z</time>
      </trkpt>
      <trkpt lat="43.47387" lon="2.3443">
        <ele>694.40002441406</ele>
        <time>2019-06-02T12:59:40Z</time>
      </trkpt>
      <trkpt lat="43.47391" lon="2.34434">
        <ele>693.59997558594</ele>
        <time>2019-06-02T12:59:44Z</time>
      </trkpt>
      <trkpt lat="43.47398" lon="2.34434">
        <ele>693.20001220703</ele>
        <time>2019-06-02T12:59:51Z</time>
      </trkpt>
      <trkpt lat="43.47399" lon="2.34434">
        <ele>693</ele>
        <time>2019-06-02T12:59:52Z</time>
      </trkpt>
      <trkpt lat="43.47402" lon="2.34435">
        <ele>692.79998779297</ele>
        <time>2019-06-02T12:59:54Z</time>
      </trkpt>
      <trkpt lat="43.47406" lon="2.34431">
        <ele>693</ele>
        <time>2019-06-02T12:59:58Z</time>
      </trkpt>
      <trkpt lat="43.47414" lon="2.3443">
        <ele>692.79998779297</ele>
        <time>2019-06-02T13:00:06Z</time>
      </trkpt>
      <trkpt lat="43.47423" lon="2.3443">
        <ele>692.40002441406</ele>
        <time>2019-06-02T13:00:13Z</time>
      </trkpt>
      <trkpt lat="43.47425" lon="2.3443">
        <ele>692.40002441406</ele>
        <time>2019-06-02T13:00:14Z</time>
      </trkpt>
      <trkpt lat="43.47427" lon="2.3443">
        <ele>692.20001220703</ele>
        <time>2019-06-02T13:00:16Z</time>
      </trkpt>
      <trkpt lat="43.47433" lon="2.34429">
        <ele>691.79998779297</ele>
        <time>2019-06-02T13:00:22Z</time>
      </trkpt>
      <trkpt lat="43.47438" lon="2.3443">
        <ele>691.79998779297</ele>
        <time>2019-06-02T13:00:26Z</time>
      </trkpt>
      <trkpt lat="43.47443" lon="2.34429">
        <ele>691.59997558594</ele>
        <time>2019-06-02T13:00:30Z</time>
      </trkpt>
      <trkpt lat="43.47445" lon="2.34429">
        <ele>691.20001220703</ele>
        <time>2019-06-02T13:00:32Z</time>
      </trkpt>
      <trkpt lat="43.47454" lon="2.34429">
        <ele>690.79998779297</ele>
        <time>2019-06-02T13:00:38Z</time>
      </trkpt>
      <trkpt lat="43.47458" lon="2.34427">
        <ele>690.79998779297</ele>
        <time>2019-06-02T13:00:43Z</time>
      </trkpt>
      <trkpt lat="43.47461" lon="2.34426">
        <ele>690.59997558594</ele>
        <time>2019-06-02T13:00:45Z</time>
      </trkpt>
      <trkpt lat="43.47465" lon="2.34427">
        <ele>690.40002441406</ele>
        <time>2019-06-02T13:00:52Z</time>
      </trkpt>
      <trkpt lat="43.47466" lon="2.34427">
        <ele>690.20001220703</ele>
        <time>2019-06-02T13:00:55Z</time>
      </trkpt>
      <trkpt lat="43.47467" lon="2.34427">
        <ele>690.20001220703</ele>
        <time>2019-06-02T13:00:56Z</time>
      </trkpt>
      <trkpt lat="43.4747" lon="2.34428">
        <ele>690.20001220703</ele>
        <time>2019-06-02T13:00:58Z</time>
      </trkpt>
      <trkpt lat="43.47477" lon="2.34423">
        <ele>690</ele>
        <time>2019-06-02T13:01:05Z</time>
      </trkpt>
      <trkpt lat="43.47488" lon="2.34422">
        <ele>690</ele>
        <time>2019-06-02T13:01:13Z</time>
      </trkpt>
      <trkpt lat="43.47494" lon="2.34417">
        <ele>689.59997558594</ele>
        <time>2019-06-02T13:01:21Z</time>
      </trkpt>
      <trkpt lat="43.47499" lon="2.34419">
        <ele>689.59997558594</ele>
        <time>2019-06-02T13:01:28Z</time>
      </trkpt>
      <trkpt lat="43.47507" lon="2.34426">
        <ele>690</ele>
        <time>2019-06-02T13:01:32Z</time>
      </trkpt>
      <trkpt lat="43.4751" lon="2.34428">
        <ele>690</ele>
        <time>2019-06-02T13:01:34Z</time>
      </trkpt>
      <trkpt lat="43.4752" lon="2.34434">
        <ele>690.40002441406</ele>
        <time>2019-06-02T13:01:40Z</time>
      </trkpt>
      <trkpt lat="43.47522" lon="2.34435">
        <ele>690.40002441406</ele>
        <time>2019-06-02T13:01:41Z</time>
      </trkpt>
      <trkpt lat="43.47525" lon="2.34437">
        <ele>690.20001220703</ele>
        <time>2019-06-02T13:01:44Z</time>
      </trkpt>
      <trkpt lat="43.47526" lon="2.34438">
        <ele>690.20001220703</ele>
        <time>2019-06-02T13:01:45Z</time>
      </trkpt>
      <trkpt lat="43.47527" lon="2.34439">
        <ele>690</ele>
        <time>2019-06-02T13:01:46Z</time>
      </trkpt>
      <trkpt lat="43.4753" lon="2.34442">
        <ele>689.20001220703</ele>
        <time>2019-06-02T13:01:49Z</time>
      </trkpt>
      <trkpt lat="43.47532" lon="2.34444">
        <ele>688.59997558594</ele>
        <time>2019-06-02T13:01:53Z</time>
      </trkpt>
      <trkpt lat="43.47533" lon="2.34444">
        <ele>688.40002441406</ele>
        <time>2019-06-02T13:01:54Z</time>
      </trkpt>
      <trkpt lat="43.47535" lon="2.34446">
        <ele>688.20001220703</ele>
        <time>2019-06-02T13:01:56Z</time>
      </trkpt>
      <trkpt lat="43.47537" lon="2.34446">
        <ele>688</ele>
        <time>2019-06-02T13:01:59Z</time>
      </trkpt>
      <trkpt lat="43.47543" lon="2.34443">
        <ele>687.79998779297</ele>
        <time>2019-06-02T13:02:03Z</time>
      </trkpt>
      <trkpt lat="43.47546" lon="2.34442">
        <ele>687.59997558594</ele>
        <time>2019-06-02T13:02:06Z</time>
      </trkpt>
      <trkpt lat="43.47548" lon="2.34439">
        <ele>687.79998779297</ele>
        <time>2019-06-02T13:02:10Z</time>
      </trkpt>
      <trkpt lat="43.47551" lon="2.34433">
        <ele>688.20001220703</ele>
        <time>2019-06-02T13:02:14Z</time>
      </trkpt>
      <trkpt lat="43.47555" lon="2.34427">
        <ele>689</ele>
        <time>2019-06-02T13:02:21Z</time>
      </trkpt>
      <trkpt lat="43.47561" lon="2.34416">
        <ele>688.79998779297</ele>
        <time>2019-06-02T13:02:29Z</time>
      </trkpt>
      <trkpt lat="43.47566" lon="2.34406">
        <ele>688.59997558594</ele>
        <time>2019-06-02T13:02:36Z</time>
      </trkpt>
      <trkpt lat="43.47571" lon="2.34399">
        <ele>688.79998779297</ele>
        <time>2019-06-02T13:02:43Z</time>
      </trkpt>
      <trkpt lat="43.47576" lon="2.34389">
        <ele>688.20001220703</ele>
        <time>2019-06-02T13:02:50Z</time>
      </trkpt>
      <trkpt lat="43.47581" lon="2.34383">
        <ele>688</ele>
        <time>2019-06-02T13:02:56Z</time>
      </trkpt>
      <trkpt lat="43.47587" lon="2.34377">
        <ele>687.79998779297</ele>
        <time>2019-06-02T13:03:03Z</time>
      </trkpt>
      <trkpt lat="43.4759" lon="2.34376">
        <ele>687.79998779297</ele>
        <time>2019-06-02T13:03:05Z</time>
      </trkpt>
      <trkpt lat="43.47595" lon="2.34371">
        <ele>687.59997558594</ele>
        <time>2019-06-02T13:03:10Z</time>
      </trkpt>
      <trkpt lat="43.47598" lon="2.3437">
        <ele>686.79998779297</ele>
        <time>2019-06-02T13:03:12Z</time>
      </trkpt>
      <trkpt lat="43.47603" lon="2.34368">
        <ele>686.40002441406</ele>
        <time>2019-06-02T13:03:17Z</time>
      </trkpt>
      <trkpt lat="43.47606" lon="2.34369">
        <ele>686.40002441406</ele>
        <time>2019-06-02T13:03:19Z</time>
      </trkpt>
      <trkpt lat="43.47611" lon="2.34369">
        <ele>686.79998779297</ele>
        <time>2019-06-02T13:03:26Z</time>
      </trkpt>
      <trkpt lat="43.47613" lon="2.34369">
        <ele>687</ele>
        <time>2019-06-02T13:03:32Z</time>
      </trkpt>
      <trkpt lat="43.47618" lon="2.34375">
        <ele>686.59997558594</ele>
        <time>2019-06-02T13:03:41Z</time>
      </trkpt>
      <trkpt lat="43.47617" lon="2.34375">
        <ele>686.40002441406</ele>
        <time>2019-06-02T13:03:44Z</time>
      </trkpt>
      <trkpt lat="43.47618" lon="2.34376">
        <ele>686.20001220703</ele>
        <time>2019-06-02T13:03:46Z</time>
      </trkpt>
      <trkpt lat="43.47615" lon="2.3438">
        <ele>686.59997558594</ele>
        <time>2019-06-02T13:03:54Z</time>
      </trkpt>
      <trkpt lat="43.47614" lon="2.34379">
        <ele>686.40002441406</ele>
        <time>2019-06-02T13:03:59Z</time>
      </trkpt>
      <trkpt lat="43.47614" lon="2.3438">
        <ele>686.40002441406</ele>
        <time>2019-06-02T13:04:00Z</time>
      </trkpt>
      <trkpt lat="43.47615" lon="2.3438">
        <ele>686.40002441406</ele>
        <time>2019-06-02T13:04:01Z</time>
      </trkpt>
      <trkpt lat="43.47615" lon="2.3438">
        <ele>686.40002441406</ele>
        <time>2019-06-02T13:04:03Z</time>
      </trkpt>
      <trkpt lat="43.47617" lon="2.3438">
        <ele>685.79998779297</ele>
        <time>2019-06-02T13:04:10Z</time>
      </trkpt>
      <trkpt lat="43.47617" lon="2.3438">
        <ele>686.20001220703</ele>
        <time>2019-06-02T13:04:13Z</time>
      </trkpt>
      <trkpt lat="43.47615" lon="2.34381">
        <ele>686.40002441406</ele>
        <time>2019-06-02T13:04:23Z</time>
      </trkpt>
      <trkpt lat="43.47617" lon="2.34379">
        <ele>686.59997558594</ele>
        <time>2019-06-02T13:04:24Z</time>
      </trkpt>
      <trkpt lat="43.47615" lon="2.34379">
        <ele>686.59997558594</ele>
        <time>2019-06-02T13:04:30Z</time>
      </trkpt>
      <trkpt lat="43.47613" lon="2.34378">
        <ele>686.79998779297</ele>
        <time>2019-06-02T13:04:38Z</time>
      </trkpt>
      <trkpt lat="43.47612" lon="2.34379">
        <ele>686.59997558594</ele>
        <time>2019-06-02T13:04:41Z</time>
      </trkpt>
      <trkpt lat="43.47612" lon="2.34382">
        <ele>686.40002441406</ele>
        <time>2019-06-02T13:04:45Z</time>
      </trkpt>
      <trkpt lat="43.47613" lon="2.34382">
        <ele>686.20001220703</ele>
        <time>2019-06-02T13:04:53Z</time>
      </trkpt>
      <trkpt lat="43.47614" lon="2.34381">
        <ele>686.20001220703</ele>
        <time>2019-06-02T13:04:56Z</time>
      </trkpt>
      <trkpt lat="43.47617" lon="2.34379">
        <ele>685.79998779297</ele>
        <time>2019-06-02T13:05:01Z</time>
      </trkpt>
      <trkpt lat="43.47617" lon="2.34379">
        <ele>685.59997558594</ele>
        <time>2019-06-02T13:05:04Z</time>
      </trkpt>
      <trkpt lat="43.47617" lon="2.34379">
        <ele>685.59997558594</ele>
        <time>2019-06-02T13:05:08Z</time>
      </trkpt>
      <trkpt lat="43.47616" lon="2.34376">
        <ele>685.59997558594</ele>
        <time>2019-06-02T13:05:15Z</time>
      </trkpt>
      <trkpt lat="43.47614" lon="2.34377">
        <ele>686</ele>
        <time>2019-06-02T13:05:23Z</time>
      </trkpt>
      <trkpt lat="43.47614" lon="2.3438">
        <ele>686.40002441406</ele>
        <time>2019-06-02T13:05:31Z</time>
      </trkpt>
      <trkpt lat="43.47614" lon="2.3438">
        <ele>686.40002441406</ele>
        <time>2019-06-02T13:05:34Z</time>
      </trkpt>
      <trkpt lat="43.47616" lon="2.34379">
        <ele>686.40002441406</ele>
        <time>2019-06-02T13:05:41Z</time>
      </trkpt>
      <trkpt lat="43.47615" lon="2.34382">
        <ele>686.40002441406</ele>
        <time>2019-06-02T13:05:50Z</time>
      </trkpt>
      <trkpt lat="43.47614" lon="2.3438">
        <ele>686.40002441406</ele>
        <time>2019-06-02T13:05:57Z</time>
      </trkpt>
      <trkpt lat="43.47616" lon="2.34379">
        <ele>686.40002441406</ele>
        <time>2019-06-02T13:06:02Z</time>
      </trkpt>
      <trkpt lat="43.47616" lon="2.34378">
        <ele>686.40002441406</ele>
        <time>2019-06-02T13:06:05Z</time>
      </trkpt>
      <trkpt lat="43.47623" lon="2.34373">
        <ele>686.40002441406</ele>
        <time>2019-06-02T13:06:13Z</time>
      </trkpt>
      <trkpt lat="43.47625" lon="2.34376">
        <ele>686.40002441406</ele>
        <time>2019-06-02T13:06:22Z</time>
      </trkpt>
      <trkpt lat="43.47626" lon="2.34377">
        <ele>686.40002441406</ele>
        <time>2019-06-02T13:06:23Z</time>
      </trkpt>
      <trkpt lat="43.47618" lon="2.34376">
        <ele>686.40002441406</ele>
        <time>2019-06-02T13:06:29Z</time>
      </trkpt>
      <trkpt lat="43.47616" lon="2.34374">
        <ele>686.40002441406</ele>
        <time>2019-06-02T13:06:39Z</time>
      </trkpt>
      <trkpt lat="43.4762" lon="2.34374">
        <ele>686.40002441406</ele>
        <time>2019-06-02T13:06:47Z</time>
      </trkpt>
      <trkpt lat="43.47621" lon="2.34382">
        <ele>686.40002441406</ele>
        <time>2019-06-02T13:06:57Z</time>
      </trkpt>
      <trkpt lat="43.4762" lon="2.34384">
        <ele>686.40002441406</ele>
        <time>2019-06-02T13:07:01Z</time>
      </trkpt>
      <trkpt lat="43.47622" lon="2.34385">
        <ele>686.40002441406</ele>
        <time>2019-06-02T13:07:07Z</time>
      </trkpt>
      <trkpt lat="43.47622" lon="2.34385">
        <ele>686.40002441406</ele>
        <time>2019-06-02T13:07:15Z</time>
      </trkpt>
      <trkpt lat="43.47624" lon="2.34383">
        <ele>686.40002441406</ele>
        <time>2019-06-02T13:07:24Z</time>
      </trkpt>
      <trkpt lat="43.47624" lon="2.34382">
        <ele>686.40002441406</ele>
        <time>2019-06-02T13:07:34Z</time>
      </trkpt>
      <trkpt lat="43.47625" lon="2.34381">
        <ele>686.40002441406</ele>
        <time>2019-06-02T13:07:41Z</time>
      </trkpt>
      <trkpt lat="43.47615" lon="2.34383">
        <ele>686.40002441406</ele>
        <time>2019-06-02T13:07:49Z</time>
      </trkpt>
      <trkpt lat="43.47611" lon="2.34387">
        <ele>686.40002441406</ele>
        <time>2019-06-02T13:07:58Z</time>
      </trkpt>
      <trkpt lat="43.47608" lon="2.34389">
        <ele>686.40002441406</ele>
        <time>2019-06-02T13:08:09Z</time>
      </trkpt>
      <trkpt lat="43.47607" lon="2.3439">
        <ele>686.40002441406</ele>
        <time>2019-06-02T13:08:20Z</time>
      </trkpt>
      <trkpt lat="43.47607" lon="2.34388">
        <ele>686.40002441406</ele>
        <time>2019-06-02T13:08:30Z</time>
      </trkpt>
      <trkpt lat="43.47612" lon="2.34384">
        <ele>686.40002441406</ele>
        <time>2019-06-02T13:08:38Z</time>
      </trkpt>
      <trkpt lat="43.47608" lon="2.34385">
        <ele>686.40002441406</ele>
        <time>2019-06-02T13:08:44Z</time>
      </trkpt>
      <trkpt lat="43.47607" lon="2.34386">
        <ele>686.40002441406</ele>
        <time>2019-06-02T13:08:47Z</time>
      </trkpt>
      <trkpt lat="43.47604" lon="2.34381">
        <ele>686.40002441406</ele>
        <time>2019-06-02T13:08:55Z</time>
      </trkpt>
      <trkpt lat="43.47606" lon="2.34379">
        <ele>686.40002441406</ele>
        <time>2019-06-02T13:09:02Z</time>
      </trkpt>
      <trkpt lat="43.47608" lon="2.34377">
        <ele>686.40002441406</ele>
        <time>2019-06-02T13:09:08Z</time>
      </trkpt>
      <trkpt lat="43.47608" lon="2.34379">
        <ele>686.40002441406</ele>
        <time>2019-06-02T13:09:16Z</time>
      </trkpt>
      <trkpt lat="43.47611" lon="2.34378">
        <ele>686.40002441406</ele>
        <time>2019-06-02T13:09:25Z</time>
      </trkpt>
      <trkpt lat="43.4761" lon="2.34385">
        <ele>686.40002441406</ele>
        <time>2019-06-02T13:09:32Z</time>
      </trkpt>
      <trkpt lat="43.47612" lon="2.34385">
        <ele>686.40002441406</ele>
        <time>2019-06-02T13:09:40Z</time>
      </trkpt>
      <trkpt lat="43.47612" lon="2.34385">
        <ele>686.40002441406</ele>
        <time>2019-06-02T13:09:44Z</time>
      </trkpt>
      <trkpt lat="43.47611" lon="2.34385">
        <ele>686.40002441406</ele>
        <time>2019-06-02T13:09:46Z</time>
      </trkpt>
      <trkpt lat="43.47611" lon="2.34385">
        <ele>686.40002441406</ele>
        <time>2019-06-02T13:09:48Z</time>
      </trkpt>
      <trkpt lat="43.47614" lon="2.34385">
        <ele>686.40002441406</ele>
        <time>2019-06-02T13:09:55Z</time>
      </trkpt>
      <trkpt lat="43.47621" lon="2.34379">
        <ele>686.40002441406</ele>
        <time>2019-06-02T13:10:02Z</time>
      </trkpt>
      <trkpt lat="43.47625" lon="2.34377">
        <ele>686.59997558594</ele>
        <time>2019-06-02T13:10:07Z</time>
      </trkpt>
      <trkpt lat="43.47626" lon="2.34377">
        <ele>686.79998779297</ele>
        <time>2019-06-02T13:10:09Z</time>
      </trkpt>
      <trkpt lat="43.47627" lon="2.34377">
        <ele>686.79998779297</ele>
        <time>2019-06-02T13:10:10Z</time>
      </trkpt>
      <trkpt lat="43.4763" lon="2.34378">
        <ele>686.59997558594</ele>
        <time>2019-06-02T13:10:13Z</time>
      </trkpt>
      <trkpt lat="43.47633" lon="2.3438">
        <ele>686.40002441406</ele>
        <time>2019-06-02T13:10:16Z</time>
      </trkpt>
      <trkpt lat="43.47634" lon="2.34382">
        <ele>686.40002441406</ele>
        <time>2019-06-02T13:10:18Z</time>
      </trkpt>
      <trkpt lat="43.4764" lon="2.3439">
        <ele>686.40002441406</ele>
        <time>2019-06-02T13:10:25Z</time>
      </trkpt>
      <trkpt lat="43.47643" lon="2.34397">
        <ele>686</ele>
        <time>2019-06-02T13:10:32Z</time>
      </trkpt>
      <trkpt lat="43.47643" lon="2.344">
        <ele>685.79998779297</ele>
        <time>2019-06-02T13:10:34Z</time>
      </trkpt>
      <trkpt lat="43.47645" lon="2.34406">
        <ele>685.79998779297</ele>
        <time>2019-06-02T13:10:39Z</time>
      </trkpt>
      <trkpt lat="43.47647" lon="2.34411">
        <ele>685.79998779297</ele>
        <time>2019-06-02T13:10:43Z</time>
      </trkpt>
      <trkpt lat="43.47649" lon="2.34416">
        <ele>685.59997558594</ele>
        <time>2019-06-02T13:10:48Z</time>
      </trkpt>
      <trkpt lat="43.4765" lon="2.34423">
        <ele>685.40002441406</ele>
        <time>2019-06-02T13:10:52Z</time>
      </trkpt>
      <trkpt lat="43.4765" lon="2.34428">
        <ele>685</ele>
        <time>2019-06-02T13:10:55Z</time>
      </trkpt>
      <trkpt lat="43.4765" lon="2.34434">
        <ele>685</ele>
        <time>2019-06-02T13:10:59Z</time>
      </trkpt>
      <trkpt lat="43.4765" lon="2.3444">
        <ele>685</ele>
        <time>2019-06-02T13:11:03Z</time>
      </trkpt>
      <trkpt lat="43.47652" lon="2.34446">
        <ele>684.79998779297</ele>
        <time>2019-06-02T13:11:07Z</time>
      </trkpt>
      <trkpt lat="43.47652" lon="2.34447">
        <ele>684.59997558594</ele>
        <time>2019-06-02T13:11:08Z</time>
      </trkpt>
      <trkpt lat="43.47653" lon="2.34454">
        <ele>684.59997558594</ele>
        <time>2019-06-02T13:11:12Z</time>
      </trkpt>
      <trkpt lat="43.47654" lon="2.34461">
        <ele>684.59997558594</ele>
        <time>2019-06-02T13:11:16Z</time>
      </trkpt>
      <trkpt lat="43.47655" lon="2.34466">
        <ele>684.20001220703</ele>
        <time>2019-06-02T13:11:19Z</time>
      </trkpt>
      <trkpt lat="43.47656" lon="2.34471">
        <ele>684.20001220703</ele>
        <time>2019-06-02T13:11:25Z</time>
      </trkpt>
      <trkpt lat="43.47655" lon="2.34477">
        <ele>684</ele>
        <time>2019-06-02T13:11:29Z</time>
      </trkpt>
      <trkpt lat="43.47655" lon="2.34482">
        <ele>684.20001220703</ele>
        <time>2019-06-02T13:11:32Z</time>
      </trkpt>
      <trkpt lat="43.47655" lon="2.34484">
        <ele>684.20001220703</ele>
        <time>2019-06-02T13:11:33Z</time>
      </trkpt>
      <trkpt lat="43.47654" lon="2.34486">
        <ele>684.20001220703</ele>
        <time>2019-06-02T13:11:34Z</time>
      </trkpt>
      <trkpt lat="43.47651" lon="2.34492">
        <ele>683.79998779297</ele>
        <time>2019-06-02T13:11:40Z</time>
      </trkpt>
      <trkpt lat="43.47651" lon="2.34494">
        <ele>683.79998779297</ele>
        <time>2019-06-02T13:11:42Z</time>
      </trkpt>
      <trkpt lat="43.47651" lon="2.34495">
        <ele>683.79998779297</ele>
        <time>2019-06-02T13:11:43Z</time>
      </trkpt>
      <trkpt lat="43.47652" lon="2.34504">
        <ele>683.79998779297</ele>
        <time>2019-06-02T13:11:48Z</time>
      </trkpt>
      <trkpt lat="43.47652" lon="2.34515">
        <ele>683.20001220703</ele>
        <time>2019-06-02T13:11:55Z</time>
      </trkpt>
      <trkpt lat="43.47653" lon="2.34517">
        <ele>683</ele>
        <time>2019-06-02T13:11:56Z</time>
      </trkpt>
      <trkpt lat="43.47653" lon="2.34521">
        <ele>682.59997558594</ele>
        <time>2019-06-02T13:11:58Z</time>
      </trkpt>
      <trkpt lat="43.47656" lon="2.34533">
        <ele>683</ele>
        <time>2019-06-02T13:12:04Z</time>
      </trkpt>
      <trkpt lat="43.47656" lon="2.34535">
        <ele>683</ele>
        <time>2019-06-02T13:12:05Z</time>
      </trkpt>
      <trkpt lat="43.4766" lon="2.34545">
        <ele>682.59997558594</ele>
        <time>2019-06-02T13:12:11Z</time>
      </trkpt>
      <trkpt lat="43.47662" lon="2.3455">
        <ele>682.59997558594</ele>
        <time>2019-06-02T13:12:15Z</time>
      </trkpt>
      <trkpt lat="43.47664" lon="2.34553">
        <ele>682.59997558594</ele>
        <time>2019-06-02T13:12:18Z</time>
      </trkpt>
      <trkpt lat="43.47664" lon="2.34563">
        <ele>682.79998779297</ele>
        <time>2019-06-02T13:12:25Z</time>
      </trkpt>
      <trkpt lat="43.47661" lon="2.3457">
        <ele>682.20001220703</ele>
        <time>2019-06-02T13:12:30Z</time>
      </trkpt>
      <trkpt lat="43.4766" lon="2.34575">
        <ele>682.40002441406</ele>
        <time>2019-06-02T13:12:33Z</time>
      </trkpt>
      <trkpt lat="43.47664" lon="2.34582">
        <ele>682.40002441406</ele>
        <time>2019-06-02T13:12:37Z</time>
      </trkpt>
      <trkpt lat="43.47665" lon="2.34584">
        <ele>682.40002441406</ele>
        <time>2019-06-02T13:12:38Z</time>
      </trkpt>
      <trkpt lat="43.47666" lon="2.34587">
        <ele>682.20001220703</ele>
        <time>2019-06-02T13:12:40Z</time>
      </trkpt>
      <trkpt lat="43.4767" lon="2.34593">
        <ele>682.20001220703</ele>
        <time>2019-06-02T13:12:44Z</time>
      </trkpt>
      <trkpt lat="43.47671" lon="2.34596">
        <ele>682</ele>
        <time>2019-06-02T13:12:46Z</time>
      </trkpt>
      <trkpt lat="43.47675" lon="2.34601">
        <ele>682</ele>
        <time>2019-06-02T13:12:49Z</time>
      </trkpt>
      <trkpt lat="43.47677" lon="2.34603">
        <ele>681.59997558594</ele>
        <time>2019-06-02T13:12:51Z</time>
      </trkpt>
      <trkpt lat="43.47682" lon="2.34606">
        <ele>681.40002441406</ele>
        <time>2019-06-02T13:12:53Z</time>
      </trkpt>
      <trkpt lat="43.47689" lon="2.34612">
        <ele>680.79998779297</ele>
        <time>2019-06-02T13:12:59Z</time>
      </trkpt>
      <trkpt lat="43.4769" lon="2.34613">
        <ele>680.79998779297</ele>
        <time>2019-06-02T13:13:00Z</time>
      </trkpt>
      <trkpt lat="43.47689" lon="2.34617">
        <ele>680.79998779297</ele>
        <time>2019-06-02T13:13:07Z</time>
      </trkpt>
      <trkpt lat="43.47691" lon="2.34617">
        <ele>680.59997558594</ele>
        <time>2019-06-02T13:13:09Z</time>
      </trkpt>
      <trkpt lat="43.47696" lon="2.34621">
        <ele>680.20001220703</ele>
        <time>2019-06-02T13:13:14Z</time>
      </trkpt>
      <trkpt lat="43.47702" lon="2.34625">
        <ele>680.20001220703</ele>
        <time>2019-06-02T13:13:19Z</time>
      </trkpt>
      <trkpt lat="43.47703" lon="2.34626">
        <ele>680.40002441406</ele>
        <time>2019-06-02T13:13:20Z</time>
      </trkpt>
      <trkpt lat="43.47711" lon="2.34633">
        <ele>680</ele>
        <time>2019-06-02T13:13:25Z</time>
      </trkpt>
      <trkpt lat="43.47713" lon="2.34635">
        <ele>679.40002441406</ele>
        <time>2019-06-02T13:13:28Z</time>
      </trkpt>
      <trkpt lat="43.47713" lon="2.34637">
        <ele>679</ele>
        <time>2019-06-02T13:13:30Z</time>
      </trkpt>
      <trkpt lat="43.47714" lon="2.34639">
        <ele>678.59997558594</ele>
        <time>2019-06-02T13:13:32Z</time>
      </trkpt>
      <trkpt lat="43.47714" lon="2.3464">
        <ele>678.20001220703</ele>
        <time>2019-06-02T13:13:33Z</time>
      </trkpt>
      <trkpt lat="43.47717" lon="2.34645">
        <ele>677.79998779297</ele>
        <time>2019-06-02T13:13:37Z</time>
      </trkpt>
      <trkpt lat="43.47722" lon="2.34656">
        <ele>677.79998779297</ele>
        <time>2019-06-02T13:13:44Z</time>
      </trkpt>
      <trkpt lat="43.47722" lon="2.34659">
        <ele>678</ele>
        <time>2019-06-02T13:13:45Z</time>
      </trkpt>
      <trkpt lat="43.47727" lon="2.34666">
        <ele>677.59997558594</ele>
        <time>2019-06-02T13:13:50Z</time>
      </trkpt>
      <trkpt lat="43.47733" lon="2.34673">
        <ele>677.40002441406</ele>
        <time>2019-06-02T13:13:56Z</time>
      </trkpt>
      <trkpt lat="43.4774" lon="2.34678">
        <ele>677.59997558594</ele>
        <time>2019-06-02T13:14:02Z</time>
      </trkpt>
      <trkpt lat="43.47741" lon="2.3468">
        <ele>677.20001220703</ele>
        <time>2019-06-02T13:14:04Z</time>
      </trkpt>
      <trkpt lat="43.47742" lon="2.34681">
        <ele>677.20001220703</ele>
        <time>2019-06-02T13:14:05Z</time>
      </trkpt>
      <trkpt lat="43.47742" lon="2.34684">
        <ele>677.20001220703</ele>
        <time>2019-06-02T13:14:07Z</time>
      </trkpt>
      <trkpt lat="43.47743" lon="2.34689">
        <ele>677</ele>
        <time>2019-06-02T13:14:10Z</time>
      </trkpt>
      <trkpt lat="43.47746" lon="2.34694">
        <ele>677</ele>
        <time>2019-06-02T13:14:13Z</time>
      </trkpt>
      <trkpt lat="43.4775" lon="2.34698">
        <ele>676.79998779297</ele>
        <time>2019-06-02T13:14:16Z</time>
      </trkpt>
      <trkpt lat="43.47751" lon="2.34701">
        <ele>676</ele>
        <time>2019-06-02T13:14:18Z</time>
      </trkpt>
      <trkpt lat="43.47752" lon="2.34702">
        <ele>675.79998779297</ele>
        <time>2019-06-02T13:14:19Z</time>
      </trkpt>
      <trkpt lat="43.47755" lon="2.34707">
        <ele>676.20001220703</ele>
        <time>2019-06-02T13:14:25Z</time>
      </trkpt>
      <trkpt lat="43.47755" lon="2.34709">
        <ele>676.40002441406</ele>
        <time>2019-06-02T13:14:26Z</time>
      </trkpt>
      <trkpt lat="43.47757" lon="2.34718">
        <ele>676.40002441406</ele>
        <time>2019-06-02T13:14:32Z</time>
      </trkpt>
      <trkpt lat="43.47756" lon="2.34725">
        <ele>675.79998779297</ele>
        <time>2019-06-02T13:14:37Z</time>
      </trkpt>
      <trkpt lat="43.47756" lon="2.34732">
        <ele>675</ele>
        <time>2019-06-02T13:14:40Z</time>
      </trkpt>
      <trkpt lat="43.47756" lon="2.34734">
        <ele>674.79998779297</ele>
        <time>2019-06-02T13:14:41Z</time>
      </trkpt>
      <trkpt lat="43.47756" lon="2.34742">
        <ele>676</ele>
        <time>2019-06-02T13:14:47Z</time>
      </trkpt>
      <trkpt lat="43.47754" lon="2.34753">
        <ele>676.20001220703</ele>
        <time>2019-06-02T13:14:53Z</time>
      </trkpt>
      <trkpt lat="43.47752" lon="2.34757">
        <ele>676.20001220703</ele>
        <time>2019-06-02T13:14:56Z</time>
      </trkpt>
      <trkpt lat="43.47751" lon="2.3476">
        <ele>676.20001220703</ele>
        <time>2019-06-02T13:14:58Z</time>
      </trkpt>
      <trkpt lat="43.4775" lon="2.34762">
        <ele>676.20001220703</ele>
        <time>2019-06-02T13:14:59Z</time>
      </trkpt>
      <trkpt lat="43.47749" lon="2.34763">
        <ele>676.20001220703</ele>
        <time>2019-06-02T13:15:00Z</time>
      </trkpt>
      <trkpt lat="43.47743" lon="2.34769">
        <ele>676.20001220703</ele>
        <time>2019-06-02T13:15:04Z</time>
      </trkpt>
      <trkpt lat="43.47742" lon="2.34771">
        <ele>676</ele>
        <time>2019-06-02T13:15:07Z</time>
      </trkpt>
      <trkpt lat="43.47742" lon="2.34772">
        <ele>676</ele>
        <time>2019-06-02T13:15:08Z</time>
      </trkpt>
      <trkpt lat="43.47742" lon="2.34777">
        <ele>675.79998779297</ele>
        <time>2019-06-02T13:15:11Z</time>
      </trkpt>
      <trkpt lat="43.47741" lon="2.34778">
        <ele>675.59997558594</ele>
        <time>2019-06-02T13:15:12Z</time>
      </trkpt>
      <trkpt lat="43.47741" lon="2.3478">
        <ele>675.59997558594</ele>
        <time>2019-06-02T13:15:14Z</time>
      </trkpt>
      <trkpt lat="43.47744" lon="2.34793">
        <ele>675.79998779297</ele>
        <time>2019-06-02T13:15:19Z</time>
      </trkpt>
      <trkpt lat="43.47745" lon="2.34807">
        <ele>675</ele>
        <time>2019-06-02T13:15:26Z</time>
      </trkpt>
      <trkpt lat="43.47738" lon="2.34816">
        <ele>675.59997558594</ele>
        <time>2019-06-02T13:15:32Z</time>
      </trkpt>
      <trkpt lat="43.47742" lon="2.34827">
        <ele>676</ele>
        <time>2019-06-02T13:15:37Z</time>
      </trkpt>
      <trkpt lat="43.47741" lon="2.34831">
        <ele>676</ele>
        <time>2019-06-02T13:15:39Z</time>
      </trkpt>
      <trkpt lat="43.47734" lon="2.34844">
        <ele>675.40002441406</ele>
        <time>2019-06-02T13:15:47Z</time>
      </trkpt>
      <trkpt lat="43.4773" lon="2.34855">
        <ele>675.40002441406</ele>
        <time>2019-06-02T13:15:55Z</time>
      </trkpt>
      <trkpt lat="43.4774" lon="2.34864">
        <ele>675.20001220703</ele>
        <time>2019-06-02T13:16:02Z</time>
      </trkpt>
      <trkpt lat="43.4775" lon="2.34864">
        <ele>675.20001220703</ele>
        <time>2019-06-02T13:16:08Z</time>
      </trkpt>
      <trkpt lat="43.47752" lon="2.34863">
        <ele>675</ele>
        <time>2019-06-02T13:16:09Z</time>
      </trkpt>
      <trkpt lat="43.47755" lon="2.34863">
        <ele>674.79998779297</ele>
        <time>2019-06-02T13:16:11Z</time>
      </trkpt>
      <trkpt lat="43.47758" lon="2.34859">
        <ele>674.40002441406</ele>
        <time>2019-06-02T13:16:15Z</time>
      </trkpt>
      <trkpt lat="43.47759" lon="2.34857">
        <ele>674.40002441406</ele>
        <time>2019-06-02T13:16:16Z</time>
      </trkpt>
      <trkpt lat="43.4776" lon="2.34854">
        <ele>673.79998779297</ele>
        <time>2019-06-02T13:16:21Z</time>
      </trkpt>
      <trkpt lat="43.47761" lon="2.34853">
        <ele>673.79998779297</ele>
        <time>2019-06-02T13:16:22Z</time>
      </trkpt>
      <trkpt lat="43.47762" lon="2.34852">
        <ele>673.59997558594</ele>
        <time>2019-06-02T13:16:23Z</time>
      </trkpt>
      <trkpt lat="43.47764" lon="2.34851">
        <ele>672.59997558594</ele>
        <time>2019-06-02T13:16:26Z</time>
      </trkpt>
      <trkpt lat="43.47768" lon="2.3485">
        <ele>672.40002441406</ele>
        <time>2019-06-02T13:16:30Z</time>
      </trkpt>
      <trkpt lat="43.47775" lon="2.34854">
        <ele>672.79998779297</ele>
        <time>2019-06-02T13:16:37Z</time>
      </trkpt>
      <trkpt lat="43.47782" lon="2.34862">
        <ele>672</ele>
        <time>2019-06-02T13:16:43Z</time>
      </trkpt>
      <trkpt lat="43.47792" lon="2.34861">
        <ele>671.59997558594</ele>
        <time>2019-06-02T13:16:51Z</time>
      </trkpt>
      <trkpt lat="43.478" lon="2.34861">
        <ele>671.59997558594</ele>
        <time>2019-06-02T13:16:56Z</time>
      </trkpt>
      <trkpt lat="43.47804" lon="2.34861">
        <ele>670.79998779297</ele>
        <time>2019-06-02T13:17:00Z</time>
      </trkpt>
      <trkpt lat="43.47812" lon="2.34863">
        <ele>670.59997558594</ele>
        <time>2019-06-02T13:17:08Z</time>
      </trkpt>
      <trkpt lat="43.47813" lon="2.34864">
        <ele>670.40002441406</ele>
        <time>2019-06-02T13:17:09Z</time>
      </trkpt>
      <trkpt lat="43.47818" lon="2.34869">
        <ele>669.59997558594</ele>
        <time>2019-06-02T13:17:14Z</time>
      </trkpt>
      <trkpt lat="43.47821" lon="2.34871">
        <ele>669.20001220703</ele>
        <time>2019-06-02T13:17:16Z</time>
      </trkpt>
      <trkpt lat="43.47822" lon="2.34873">
        <ele>669.20001220703</ele>
        <time>2019-06-02T13:17:17Z</time>
      </trkpt>
      <trkpt lat="43.47825" lon="2.34878">
        <ele>669</ele>
        <time>2019-06-02T13:17:20Z</time>
      </trkpt>
      <trkpt lat="43.47835" lon="2.34892">
        <ele>668.79998779297</ele>
        <time>2019-06-02T13:17:29Z</time>
      </trkpt>
      <trkpt lat="43.47839" lon="2.34897">
        <ele>668.20001220703</ele>
        <time>2019-06-02T13:17:33Z</time>
      </trkpt>
      <trkpt lat="43.47839" lon="2.34898">
        <ele>668.20001220703</ele>
        <time>2019-06-02T13:17:34Z</time>
      </trkpt>
      <trkpt lat="43.47842" lon="2.34902">
        <ele>667.59997558594</ele>
        <time>2019-06-02T13:17:37Z</time>
      </trkpt>
      <trkpt lat="43.47848" lon="2.34909">
        <ele>667.40002441406</ele>
        <time>2019-06-02T13:17:43Z</time>
      </trkpt>
      <trkpt lat="43.47852" lon="2.34918">
        <ele>667.59997558594</ele>
        <time>2019-06-02T13:17:51Z</time>
      </trkpt>
      <trkpt lat="43.47849" lon="2.34924">
        <ele>666.79998779297</ele>
        <time>2019-06-02T13:17:55Z</time>
      </trkpt>
      <trkpt lat="43.47849" lon="2.34925">
        <ele>666.79998779297</ele>
        <time>2019-06-02T13:17:56Z</time>
      </trkpt>
      <trkpt lat="43.4785" lon="2.34928">
        <ele>666.59997558594</ele>
        <time>2019-06-02T13:17:58Z</time>
      </trkpt>
      <trkpt lat="43.47851" lon="2.34938">
        <ele>666.40002441406</ele>
        <time>2019-06-02T13:18:04Z</time>
      </trkpt>
      <trkpt lat="43.47853" lon="2.34941">
        <ele>666.20001220703</ele>
        <time>2019-06-02T13:18:06Z</time>
      </trkpt>
      <trkpt lat="43.47854" lon="2.34946">
        <ele>665.79998779297</ele>
        <time>2019-06-02T13:18:10Z</time>
      </trkpt>
      <trkpt lat="43.47855" lon="2.34951">
        <ele>664.79998779297</ele>
        <time>2019-06-02T13:18:14Z</time>
      </trkpt>
      <trkpt lat="43.47855" lon="2.34952">
        <ele>664.79998779297</ele>
        <time>2019-06-02T13:18:15Z</time>
      </trkpt>
      <trkpt lat="43.47855" lon="2.34954">
        <ele>664.79998779297</ele>
        <time>2019-06-02T13:18:16Z</time>
      </trkpt>
      <trkpt lat="43.47858" lon="2.3496">
        <ele>664.59997558594</ele>
        <time>2019-06-02T13:18:21Z</time>
      </trkpt>
      <trkpt lat="43.47858" lon="2.34963">
        <ele>664.59997558594</ele>
        <time>2019-06-02T13:18:24Z</time>
      </trkpt>
      <trkpt lat="43.47859" lon="2.34968">
        <ele>664.40002441406</ele>
        <time>2019-06-02T13:18:27Z</time>
      </trkpt>
      <trkpt lat="43.47863" lon="2.34976">
        <ele>664.79998779297</ele>
        <time>2019-06-02T13:18:32Z</time>
      </trkpt>
      <trkpt lat="43.47864" lon="2.34979">
        <ele>665</ele>
        <time>2019-06-02T13:18:34Z</time>
      </trkpt>
      <trkpt lat="43.47866" lon="2.34982">
        <ele>665.40002441406</ele>
        <time>2019-06-02T13:18:36Z</time>
      </trkpt>
      <trkpt lat="43.47867" lon="2.34984">
        <ele>665.40002441406</ele>
        <time>2019-06-02T13:18:37Z</time>
      </trkpt>
      <trkpt lat="43.47869" lon="2.34988">
        <ele>665.59997558594</ele>
        <time>2019-06-02T13:18:40Z</time>
      </trkpt>
      <trkpt lat="43.47868" lon="2.34994">
        <ele>665.59997558594</ele>
        <time>2019-06-02T13:18:43Z</time>
      </trkpt>
      <trkpt lat="43.47869" lon="2.34997">
        <ele>665.59997558594</ele>
        <time>2019-06-02T13:18:45Z</time>
      </trkpt>
      <trkpt lat="43.4787" lon="2.35">
        <ele>665.59997558594</ele>
        <time>2019-06-02T13:18:47Z</time>
      </trkpt>
      <trkpt lat="43.47868" lon="2.35009">
        <ele>665.20001220703</ele>
        <time>2019-06-02T13:18:53Z</time>
      </trkpt>
      <trkpt lat="43.47869" lon="2.35012">
        <ele>664.79998779297</ele>
        <time>2019-06-02T13:18:55Z</time>
      </trkpt>
      <trkpt lat="43.47868" lon="2.35017">
        <ele>664.79998779297</ele>
        <time>2019-06-02T13:18:59Z</time>
      </trkpt>
      <trkpt lat="43.47866" lon="2.35022">
        <ele>665</ele>
        <time>2019-06-02T13:19:03Z</time>
      </trkpt>
      <trkpt lat="43.47865" lon="2.35024">
        <ele>665</ele>
        <time>2019-06-02T13:19:07Z</time>
      </trkpt>
      <trkpt lat="43.47873" lon="2.35023">
        <ele>665</ele>
        <time>2019-06-02T13:19:13Z</time>
      </trkpt>
      <trkpt lat="43.47871" lon="2.35029">
        <ele>665</ele>
        <time>2019-06-02T13:19:21Z</time>
      </trkpt>
      <trkpt lat="43.47871" lon="2.3503">
        <ele>665</ele>
        <time>2019-06-02T13:19:22Z</time>
      </trkpt>
      <trkpt lat="43.4787" lon="2.3503">
        <ele>665</ele>
        <time>2019-06-02T13:19:26Z</time>
      </trkpt>
      <trkpt lat="43.47869" lon="2.3503">
        <ele>665</ele>
        <time>2019-06-02T13:19:27Z</time>
      </trkpt>
      <trkpt lat="43.47876" lon="2.35033">
        <ele>664.79998779297</ele>
        <time>2019-06-02T13:19:33Z</time>
      </trkpt>
      <trkpt lat="43.47876" lon="2.35034">
        <ele>664.79998779297</ele>
        <time>2019-06-02T13:19:36Z</time>
      </trkpt>
      <trkpt lat="43.47871" lon="2.35036">
        <ele>664.79998779297</ele>
        <time>2019-06-02T13:19:43Z</time>
      </trkpt>
      <trkpt lat="43.47871" lon="2.35033">
        <ele>664.79998779297</ele>
        <time>2019-06-02T13:19:49Z</time>
      </trkpt>
      <trkpt lat="43.47871" lon="2.35035">
        <ele>665</ele>
        <time>2019-06-02T13:19:53Z</time>
      </trkpt>
      <trkpt lat="43.47871" lon="2.35034">
        <ele>665.20001220703</ele>
        <time>2019-06-02T13:19:57Z</time>
      </trkpt>
      <trkpt lat="43.47871" lon="2.35032">
        <ele>665</ele>
        <time>2019-06-02T13:20:03Z</time>
      </trkpt>
      <trkpt lat="43.4787" lon="2.35031">
        <ele>665.20001220703</ele>
        <time>2019-06-02T13:20:07Z</time>
      </trkpt>
      <trkpt lat="43.47869" lon="2.3503">
        <ele>665.40002441406</ele>
        <time>2019-06-02T13:20:14Z</time>
      </trkpt>
      <trkpt lat="43.47868" lon="2.3503">
        <ele>665.40002441406</ele>
        <time>2019-06-02T13:20:16Z</time>
      </trkpt>
      <trkpt lat="43.47867" lon="2.35031">
        <ele>665</ele>
        <time>2019-06-02T13:20:20Z</time>
      </trkpt>
      <trkpt lat="43.47867" lon="2.35032">
        <ele>665</ele>
        <time>2019-06-02T13:20:25Z</time>
      </trkpt>
      <trkpt lat="43.47867" lon="2.35031">
        <ele>665</ele>
        <time>2019-06-02T13:20:26Z</time>
      </trkpt>
      <trkpt lat="43.47867" lon="2.3503">
        <ele>664.59997558594</ele>
        <time>2019-06-02T13:20:33Z</time>
      </trkpt>
      <trkpt lat="43.47869" lon="2.3503">
        <ele>664.59997558594</ele>
        <time>2019-06-02T13:20:37Z</time>
      </trkpt>
      <trkpt lat="43.4787" lon="2.3503">
        <ele>664.59997558594</ele>
        <time>2019-06-02T13:20:41Z</time>
      </trkpt>
      <trkpt lat="43.47871" lon="2.35031">
        <ele>664.59997558594</ele>
        <time>2019-06-02T13:20:49Z</time>
      </trkpt>
      <trkpt lat="43.47867" lon="2.3503">
        <ele>664.40002441406</ele>
        <time>2019-06-02T13:20:57Z</time>
      </trkpt>
      <trkpt lat="43.47868" lon="2.35028">
        <ele>664.59997558594</ele>
        <time>2019-06-02T13:21:04Z</time>
      </trkpt>
      <trkpt lat="43.4787" lon="2.35028">
        <ele>664.40002441406</ele>
        <time>2019-06-02T13:21:10Z</time>
      </trkpt>
      <trkpt lat="43.47869" lon="2.3503">
        <ele>664.20001220703</ele>
        <time>2019-06-02T13:21:12Z</time>
      </trkpt>
      <trkpt lat="43.4787" lon="2.35032">
        <ele>664.79998779297</ele>
        <time>2019-06-02T13:21:15Z</time>
      </trkpt>
      <trkpt lat="43.47866" lon="2.35041">
        <ele>665.59997558594</ele>
        <time>2019-06-02T13:21:21Z</time>
      </trkpt>
      <trkpt lat="43.47866" lon="2.35041">
        <ele>665.59997558594</ele>
        <time>2019-06-02T13:21:22Z</time>
      </trkpt>
      <trkpt lat="43.47866" lon="2.35042">
        <ele>665.79998779297</ele>
        <time>2019-06-02T13:21:23Z</time>
      </trkpt>
      <trkpt lat="43.47867" lon="2.35045">
        <ele>666</ele>
        <time>2019-06-02T13:21:25Z</time>
      </trkpt>
      <trkpt lat="43.47866" lon="2.35046">
        <ele>666</ele>
        <time>2019-06-02T13:21:26Z</time>
      </trkpt>
      <trkpt lat="43.47866" lon="2.35047">
        <ele>666</ele>
        <time>2019-06-02T13:21:27Z</time>
      </trkpt>
      <trkpt lat="43.47868" lon="2.35052">
        <ele>665.79998779297</ele>
        <time>2019-06-02T13:21:31Z</time>
      </trkpt>
      <trkpt lat="43.47868" lon="2.35055">
        <ele>665.79998779297</ele>
        <time>2019-06-02T13:21:33Z</time>
      </trkpt>
      <trkpt lat="43.47862" lon="2.35065">
        <ele>665.59997558594</ele>
        <time>2019-06-02T13:21:39Z</time>
      </trkpt>
      <trkpt lat="43.4786" lon="2.35069">
        <ele>665.40002441406</ele>
        <time>2019-06-02T13:21:41Z</time>
      </trkpt>
      <trkpt lat="43.47858" lon="2.35072">
        <ele>665.20001220703</ele>
        <time>2019-06-02T13:21:43Z</time>
      </trkpt>
      <trkpt lat="43.4785" lon="2.3508">
        <ele>665.20001220703</ele>
        <time>2019-06-02T13:21:48Z</time>
      </trkpt>
      <trkpt lat="43.47847" lon="2.35083">
        <ele>665.59997558594</ele>
        <time>2019-06-02T13:21:51Z</time>
      </trkpt>
      <trkpt lat="43.47846" lon="2.35087">
        <ele>665.59997558594</ele>
        <time>2019-06-02T13:21:54Z</time>
      </trkpt>
      <trkpt lat="43.47848" lon="2.35097">
        <ele>664.59997558594</ele>
        <time>2019-06-02T13:21:58Z</time>
      </trkpt>
      <trkpt lat="43.47848" lon="2.351">
        <ele>664.20001220703</ele>
        <time>2019-06-02T13:22:00Z</time>
      </trkpt>
      <trkpt lat="43.47847" lon="2.35105">
        <ele>663.40002441406</ele>
        <time>2019-06-02T13:22:03Z</time>
      </trkpt>
      <trkpt lat="43.47847" lon="2.35109">
        <ele>662.59997558594</ele>
        <time>2019-06-02T13:22:06Z</time>
      </trkpt>
      <trkpt lat="43.47846" lon="2.3511">
        <ele>662.59997558594</ele>
        <time>2019-06-02T13:22:07Z</time>
      </trkpt>
      <trkpt lat="43.47848" lon="2.35112">
        <ele>662.79998779297</ele>
        <time>2019-06-02T13:22:09Z</time>
      </trkpt>
      <trkpt lat="43.47847" lon="2.35119">
        <ele>663.40002441406</ele>
        <time>2019-06-02T13:22:13Z</time>
      </trkpt>
      <trkpt lat="43.47841" lon="2.35127">
        <ele>663</ele>
        <time>2019-06-02T13:22:18Z</time>
      </trkpt>
      <trkpt lat="43.47838" lon="2.35135">
        <ele>662.40002441406</ele>
        <time>2019-06-02T13:22:22Z</time>
      </trkpt>
      <trkpt lat="43.4784" lon="2.35144">
        <ele>662.20001220703</ele>
        <time>2019-06-02T13:22:26Z</time>
      </trkpt>
      <trkpt lat="43.47842" lon="2.35152">
        <ele>662.79998779297</ele>
        <time>2019-06-02T13:22:30Z</time>
      </trkpt>
      <trkpt lat="43.47843" lon="2.35153">
        <ele>662.79998779297</ele>
        <time>2019-06-02T13:22:31Z</time>
      </trkpt>
      <trkpt lat="43.47842" lon="2.35154">
        <ele>663</ele>
        <time>2019-06-02T13:22:32Z</time>
      </trkpt>
      <trkpt lat="43.47841" lon="2.35157">
        <ele>663</ele>
        <time>2019-06-02T13:22:34Z</time>
      </trkpt>
      <trkpt lat="43.47842" lon="2.35162">
        <ele>662.59997558594</ele>
        <time>2019-06-02T13:22:37Z</time>
      </trkpt>
      <trkpt lat="43.4783" lon="2.35165">
        <ele>661.59997558594</ele>
        <time>2019-06-02T13:22:43Z</time>
      </trkpt>
      <trkpt lat="43.47823" lon="2.35172">
        <ele>661.59997558594</ele>
        <time>2019-06-02T13:22:49Z</time>
      </trkpt>
      <trkpt lat="43.47822" lon="2.35174">
        <ele>661.40002441406</ele>
        <time>2019-06-02T13:22:50Z</time>
      </trkpt>
      <trkpt lat="43.4782" lon="2.3518">
        <ele>661.79998779297</ele>
        <time>2019-06-02T13:22:55Z</time>
      </trkpt>
      <trkpt lat="43.47821" lon="2.35185">
        <ele>662</ele>
        <time>2019-06-02T13:22:58Z</time>
      </trkpt>
      <trkpt lat="43.47821" lon="2.35186">
        <ele>662</ele>
        <time>2019-06-02T13:22:59Z</time>
      </trkpt>
      <trkpt lat="43.47821" lon="2.35188">
        <ele>662</ele>
        <time>2019-06-02T13:23:00Z</time>
      </trkpt>
      <trkpt lat="43.47809" lon="2.35193">
        <ele>661.40002441406</ele>
        <time>2019-06-02T13:23:07Z</time>
      </trkpt>
      <trkpt lat="43.47805" lon="2.35195">
        <ele>661.59997558594</ele>
        <time>2019-06-02T13:23:09Z</time>
      </trkpt>
      <trkpt lat="43.47799" lon="2.35196">
        <ele>661.40002441406</ele>
        <time>2019-06-02T13:23:13Z</time>
      </trkpt>
      <trkpt lat="43.47798" lon="2.35201">
        <ele>661</ele>
        <time>2019-06-02T13:23:16Z</time>
      </trkpt>
      <trkpt lat="43.47794" lon="2.35203">
        <ele>661.20001220703</ele>
        <time>2019-06-02T13:23:18Z</time>
      </trkpt>
      <trkpt lat="43.47797" lon="2.35216">
        <ele>661.59997558594</ele>
        <time>2019-06-02T13:23:24Z</time>
      </trkpt>
      <trkpt lat="43.47799" lon="2.35221">
        <ele>661.40002441406</ele>
        <time>2019-06-02T13:23:27Z</time>
      </trkpt>
      <trkpt lat="43.478" lon="2.35228">
        <ele>661.40002441406</ele>
        <time>2019-06-02T13:23:30Z</time>
      </trkpt>
      <trkpt lat="43.47798" lon="2.3523">
        <ele>661.40002441406</ele>
        <time>2019-06-02T13:23:31Z</time>
      </trkpt>
      <trkpt lat="43.47791" lon="2.35233">
        <ele>661.40002441406</ele>
        <time>2019-06-02T13:23:34Z</time>
      </trkpt>
      <trkpt lat="43.47786" lon="2.35237">
        <ele>661</ele>
        <time>2019-06-02T13:23:37Z</time>
      </trkpt>
      <trkpt lat="43.47785" lon="2.35247">
        <ele>660.40002441406</ele>
        <time>2019-06-02T13:23:43Z</time>
      </trkpt>
      <trkpt lat="43.47787" lon="2.35249">
        <ele>660.20001220703</ele>
        <time>2019-06-02T13:23:44Z</time>
      </trkpt>
      <trkpt lat="43.47783" lon="2.35252">
        <ele>660</ele>
        <time>2019-06-02T13:23:48Z</time>
      </trkpt>
      <trkpt lat="43.47781" lon="2.35253">
        <ele>659.79998779297</ele>
        <time>2019-06-02T13:23:49Z</time>
      </trkpt>
      <trkpt lat="43.47783" lon="2.35261">
        <ele>659.40002441406</ele>
        <time>2019-06-02T13:23:55Z</time>
      </trkpt>
      <trkpt lat="43.47786" lon="2.35268">
        <ele>659.20001220703</ele>
        <time>2019-06-02T13:23:58Z</time>
      </trkpt>
      <trkpt lat="43.47787" lon="2.3527">
        <ele>658.79998779297</ele>
        <time>2019-06-02T13:23:59Z</time>
      </trkpt>
      <trkpt lat="43.47788" lon="2.35272">
        <ele>658.59997558594</ele>
        <time>2019-06-02T13:24:00Z</time>
      </trkpt>
      <trkpt lat="43.47789" lon="2.35274">
        <ele>658.40002441406</ele>
        <time>2019-06-02T13:24:01Z</time>
      </trkpt>
      <trkpt lat="43.47793" lon="2.35281">
        <ele>658.40002441406</ele>
        <time>2019-06-02T13:24:05Z</time>
      </trkpt>
      <trkpt lat="43.47794" lon="2.35284">
        <ele>659</ele>
        <time>2019-06-02T13:24:11Z</time>
      </trkpt>
      <trkpt lat="43.47795" lon="2.35291">
        <ele>658.79998779297</ele>
        <time>2019-06-02T13:24:17Z</time>
      </trkpt>
      <trkpt lat="43.47799" lon="2.35299">
        <ele>658.79998779297</ele>
        <time>2019-06-02T13:24:24Z</time>
      </trkpt>
      <trkpt lat="43.478" lon="2.35304">
        <ele>658.79998779297</ele>
        <time>2019-06-02T13:24:28Z</time>
      </trkpt>
      <trkpt lat="43.47799" lon="2.35308">
        <ele>658.59997558594</ele>
        <time>2019-06-02T13:24:31Z</time>
      </trkpt>
      <trkpt lat="43.478" lon="2.35319">
        <ele>658.20001220703</ele>
        <time>2019-06-02T13:24:38Z</time>
      </trkpt>
      <trkpt lat="43.47802" lon="2.35322">
        <ele>658</ele>
        <time>2019-06-02T13:24:40Z</time>
      </trkpt>
      <trkpt lat="43.47802" lon="2.35324">
        <ele>658</ele>
        <time>2019-06-02T13:24:41Z</time>
      </trkpt>
      <trkpt lat="43.47803" lon="2.35327">
        <ele>658</ele>
        <time>2019-06-02T13:24:43Z</time>
      </trkpt>
      <trkpt lat="43.47818" lon="2.3535">
        <ele>658</ele>
        <time>2019-06-02T13:24:51Z</time>
      </trkpt>
      <trkpt lat="43.47819" lon="2.35358">
        <ele>657.59997558594</ele>
        <time>2019-06-02T13:24:57Z</time>
      </trkpt>
      <trkpt lat="43.4782" lon="2.35363">
        <ele>657</ele>
        <time>2019-06-02T13:25:00Z</time>
      </trkpt>
      <trkpt lat="43.47821" lon="2.3537">
        <ele>656.79998779297</ele>
        <time>2019-06-02T13:25:04Z</time>
      </trkpt>
      <trkpt lat="43.47822" lon="2.35372">
        <ele>656.79998779297</ele>
        <time>2019-06-02T13:25:05Z</time>
      </trkpt>
      <trkpt lat="43.4782" lon="2.35381">
        <ele>656.79998779297</ele>
        <time>2019-06-02T13:25:10Z</time>
      </trkpt>
      <trkpt lat="43.4782" lon="2.35392">
        <ele>656.40002441406</ele>
        <time>2019-06-02T13:25:17Z</time>
      </trkpt>
      <trkpt lat="43.47821" lon="2.35393">
        <ele>656.40002441406</ele>
        <time>2019-06-02T13:25:18Z</time>
      </trkpt>
      <trkpt lat="43.47821" lon="2.35397">
        <ele>656.20001220703</ele>
        <time>2019-06-02T13:25:20Z</time>
      </trkpt>
      <trkpt lat="43.47819" lon="2.354">
        <ele>656.20001220703</ele>
        <time>2019-06-02T13:25:22Z</time>
      </trkpt>
      <trkpt lat="43.47816" lon="2.35411">
        <ele>655.79998779297</ele>
        <time>2019-06-02T13:25:28Z</time>
      </trkpt>
      <trkpt lat="43.47815" lon="2.35416">
        <ele>655.79998779297</ele>
        <time>2019-06-02T13:25:31Z</time>
      </trkpt>
      <trkpt lat="43.47816" lon="2.35418">
        <ele>655.59997558594</ele>
        <time>2019-06-02T13:25:32Z</time>
      </trkpt>
      <trkpt lat="43.47815" lon="2.35423">
        <ele>655.20001220703</ele>
        <time>2019-06-02T13:25:35Z</time>
      </trkpt>
      <trkpt lat="43.47814" lon="2.35425">
        <ele>655.20001220703</ele>
        <time>2019-06-02T13:25:37Z</time>
      </trkpt>
      <trkpt lat="43.47814" lon="2.35428">
        <ele>655</ele>
        <time>2019-06-02T13:25:39Z</time>
      </trkpt>
      <trkpt lat="43.47809" lon="2.35437">
        <ele>655.20001220703</ele>
        <time>2019-06-02T13:25:46Z</time>
      </trkpt>
      <trkpt lat="43.47813" lon="2.35456">
        <ele>655.40002441406</ele>
        <time>2019-06-02T13:25:54Z</time>
      </trkpt>
      <trkpt lat="43.47819" lon="2.35461">
        <ele>655.40002441406</ele>
        <time>2019-06-02T13:25:56Z</time>
      </trkpt>
      <trkpt lat="43.47824" lon="2.35465">
        <ele>655.40002441406</ele>
        <time>2019-06-02T13:25:58Z</time>
      </trkpt>
      <trkpt lat="43.47824" lon="2.35467">
        <ele>655.40002441406</ele>
        <time>2019-06-02T13:25:59Z</time>
      </trkpt>
      <trkpt lat="43.47833" lon="2.35479">
        <ele>655.79998779297</ele>
        <time>2019-06-02T13:26:06Z</time>
      </trkpt>
      <trkpt lat="43.47837" lon="2.35491">
        <ele>655.79998779297</ele>
        <time>2019-06-02T13:26:13Z</time>
      </trkpt>
      <trkpt lat="43.47836" lon="2.35493">
        <ele>655.79998779297</ele>
        <time>2019-06-02T13:26:14Z</time>
      </trkpt>
      <trkpt lat="43.47831" lon="2.35498">
        <ele>655.59997558594</ele>
        <time>2019-06-02T13:26:18Z</time>
      </trkpt>
      <trkpt lat="43.47827" lon="2.35506">
        <ele>655.20001220703</ele>
        <time>2019-06-02T13:26:23Z</time>
      </trkpt>
      <trkpt lat="43.47825" lon="2.35508">
        <ele>655.20001220703</ele>
        <time>2019-06-02T13:26:25Z</time>
      </trkpt>
      <trkpt lat="43.47824" lon="2.35513">
        <ele>654.79998779297</ele>
        <time>2019-06-02T13:26:28Z</time>
      </trkpt>
      <trkpt lat="43.47821" lon="2.35517">
        <ele>654.79998779297</ele>
        <time>2019-06-02T13:26:31Z</time>
      </trkpt>
      <trkpt lat="43.47821" lon="2.35518">
        <ele>654.59997558594</ele>
        <time>2019-06-02T13:26:32Z</time>
      </trkpt>
      <trkpt lat="43.47816" lon="2.35523">
        <ele>654.59997558594</ele>
        <time>2019-06-02T13:26:36Z</time>
      </trkpt>
      <trkpt lat="43.47815" lon="2.35524">
        <ele>654.59997558594</ele>
        <time>2019-06-02T13:26:37Z</time>
      </trkpt>
      <trkpt lat="43.47806" lon="2.35532">
        <ele>655.20001220703</ele>
        <time>2019-06-02T13:26:44Z</time>
      </trkpt>
      <trkpt lat="43.47792" lon="2.35539">
        <ele>654.59997558594</ele>
        <time>2019-06-02T13:26:51Z</time>
      </trkpt>
      <trkpt lat="43.47792" lon="2.35548">
        <ele>654</ele>
        <time>2019-06-02T13:26:55Z</time>
      </trkpt>
      <trkpt lat="43.47796" lon="2.35553">
        <ele>653.79998779297</ele>
        <time>2019-06-02T13:26:57Z</time>
      </trkpt>
      <trkpt lat="43.47798" lon="2.35555">
        <ele>653.79998779297</ele>
        <time>2019-06-02T13:26:58Z</time>
      </trkpt>
      <trkpt lat="43.47794" lon="2.35564">
        <ele>653.59997558594</ele>
        <time>2019-06-02T13:27:04Z</time>
      </trkpt>
      <trkpt lat="43.47796" lon="2.35571">
        <ele>653.59997558594</ele>
        <time>2019-06-02T13:27:08Z</time>
      </trkpt>
      <trkpt lat="43.47796" lon="2.35574">
        <ele>653.79998779297</ele>
        <time>2019-06-02T13:27:10Z</time>
      </trkpt>
      <trkpt lat="43.47793" lon="2.35576">
        <ele>654</ele>
        <time>2019-06-02T13:27:12Z</time>
      </trkpt>
      <trkpt lat="43.47794" lon="2.35579">
        <ele>654</ele>
        <time>2019-06-02T13:27:14Z</time>
      </trkpt>
      <trkpt lat="43.47792" lon="2.35588">
        <ele>653.40002441406</ele>
        <time>2019-06-02T13:27:21Z</time>
      </trkpt>
      <trkpt lat="43.47781" lon="2.35587">
        <ele>653</ele>
        <time>2019-06-02T13:27:25Z</time>
      </trkpt>
      <trkpt lat="43.47779" lon="2.35589">
        <ele>652.59997558594</ele>
        <time>2019-06-02T13:27:27Z</time>
      </trkpt>
      <trkpt lat="43.47778" lon="2.35591">
        <ele>652.40002441406</ele>
        <time>2019-06-02T13:27:28Z</time>
      </trkpt>
      <trkpt lat="43.47774" lon="2.356">
        <ele>652</ele>
        <time>2019-06-02T13:27:35Z</time>
      </trkpt>
      <trkpt lat="43.47773" lon="2.35601">
        <ele>652</ele>
        <time>2019-06-02T13:27:36Z</time>
      </trkpt>
      <trkpt lat="43.4777" lon="2.35609">
        <ele>651.59997558594</ele>
        <time>2019-06-02T13:27:41Z</time>
      </trkpt>
      <trkpt lat="43.47773" lon="2.3561">
        <ele>651.59997558594</ele>
        <time>2019-06-02T13:27:42Z</time>
      </trkpt>
      <trkpt lat="43.47775" lon="2.35619">
        <ele>651.20001220703</ele>
        <time>2019-06-02T13:27:47Z</time>
      </trkpt>
      <trkpt lat="43.47773" lon="2.35621">
        <ele>651.20001220703</ele>
        <time>2019-06-02T13:27:48Z</time>
      </trkpt>
      <trkpt lat="43.47771" lon="2.35631">
        <ele>650.79998779297</ele>
        <time>2019-06-02T13:27:54Z</time>
      </trkpt>
      <trkpt lat="43.4777" lon="2.35642">
        <ele>651</ele>
        <time>2019-06-02T13:28:01Z</time>
      </trkpt>
      <trkpt lat="43.47769" lon="2.35646">
        <ele>651</ele>
        <time>2019-06-02T13:28:03Z</time>
      </trkpt>
      <trkpt lat="43.47772" lon="2.35651">
        <ele>650.79998779297</ele>
        <time>2019-06-02T13:28:07Z</time>
      </trkpt>
      <trkpt lat="43.47773" lon="2.35658">
        <ele>650.59997558594</ele>
        <time>2019-06-02T13:28:12Z</time>
      </trkpt>
      <trkpt lat="43.47772" lon="2.35662">
        <ele>650.59997558594</ele>
        <time>2019-06-02T13:28:14Z</time>
      </trkpt>
      <trkpt lat="43.47775" lon="2.35676">
        <ele>650.59997558594</ele>
        <time>2019-06-02T13:28:22Z</time>
      </trkpt>
      <trkpt lat="43.47777" lon="2.3568">
        <ele>650.40002441406</ele>
        <time>2019-06-02T13:28:24Z</time>
      </trkpt>
      <trkpt lat="43.47779" lon="2.35686">
        <ele>650.20001220703</ele>
        <time>2019-06-02T13:28:27Z</time>
      </trkpt>
      <trkpt lat="43.47775" lon="2.35699">
        <ele>650.59997558594</ele>
        <time>2019-06-02T13:28:35Z</time>
      </trkpt>
      <trkpt lat="43.47774" lon="2.35713">
        <ele>650.20001220703</ele>
        <time>2019-06-02T13:28:43Z</time>
      </trkpt>
      <trkpt lat="43.47778" lon="2.35723">
        <ele>649.59997558594</ele>
        <time>2019-06-02T13:28:50Z</time>
      </trkpt>
      <trkpt lat="43.4777" lon="2.35738">
        <ele>649.79998779297</ele>
        <time>2019-06-02T13:28:58Z</time>
      </trkpt>
      <trkpt lat="43.47769" lon="2.35749">
        <ele>649.59997558594</ele>
        <time>2019-06-02T13:29:04Z</time>
      </trkpt>
      <trkpt lat="43.47775" lon="2.35764">
        <ele>649</ele>
        <time>2019-06-02T13:29:11Z</time>
      </trkpt>
      <trkpt lat="43.47774" lon="2.35766">
        <ele>648.79998779297</ele>
        <time>2019-06-02T13:29:14Z</time>
      </trkpt>
      <trkpt lat="43.47775" lon="2.35769">
        <ele>648.79998779297</ele>
        <time>2019-06-02T13:29:16Z</time>
      </trkpt>
      <trkpt lat="43.47776" lon="2.35783">
        <ele>649</ele>
        <time>2019-06-02T13:29:24Z</time>
      </trkpt>
      <trkpt lat="43.47771" lon="2.3579">
        <ele>648.59997558594</ele>
        <time>2019-06-02T13:29:30Z</time>
      </trkpt>
      <trkpt lat="43.47773" lon="2.35793">
        <ele>648.59997558594</ele>
        <time>2019-06-02T13:29:31Z</time>
      </trkpt>
      <trkpt lat="43.47774" lon="2.35796">
        <ele>648.40002441406</ele>
        <time>2019-06-02T13:29:33Z</time>
      </trkpt>
      <trkpt lat="43.47775" lon="2.35802">
        <ele>648.40002441406</ele>
        <time>2019-06-02T13:29:35Z</time>
      </trkpt>
      <trkpt lat="43.47774" lon="2.35805">
        <ele>648.40002441406</ele>
        <time>2019-06-02T13:29:37Z</time>
      </trkpt>
      <trkpt lat="43.47771" lon="2.35809">
        <ele>648.79998779297</ele>
        <time>2019-06-02T13:29:40Z</time>
      </trkpt>
      <trkpt lat="43.47767" lon="2.35819">
        <ele>649</ele>
        <time>2019-06-02T13:29:46Z</time>
      </trkpt>
      <trkpt lat="43.47765" lon="2.35821">
        <ele>649</ele>
        <time>2019-06-02T13:29:47Z</time>
      </trkpt>
      <trkpt lat="43.47762" lon="2.35826">
        <ele>649</ele>
        <time>2019-06-02T13:29:52Z</time>
      </trkpt>
      <trkpt lat="43.47761" lon="2.35829">
        <ele>648.79998779297</ele>
        <time>2019-06-02T13:29:54Z</time>
      </trkpt>
      <trkpt lat="43.47762" lon="2.3584">
        <ele>648.20001220703</ele>
        <time>2019-06-02T13:30:00Z</time>
      </trkpt>
      <trkpt lat="43.47761" lon="2.35852">
        <ele>648.40002441406</ele>
        <time>2019-06-02T13:30:08Z</time>
      </trkpt>
      <trkpt lat="43.4776" lon="2.35862">
        <ele>647.59997558594</ele>
        <time>2019-06-02T13:30:14Z</time>
      </trkpt>
      <trkpt lat="43.47759" lon="2.35866">
        <ele>647.40002441406</ele>
        <time>2019-06-02T13:30:16Z</time>
      </trkpt>
      <trkpt lat="43.47756" lon="2.35873">
        <ele>647.40002441406</ele>
        <time>2019-06-02T13:30:21Z</time>
      </trkpt>
      <trkpt lat="43.47749" lon="2.35883">
        <ele>647.20001220703</ele>
        <time>2019-06-02T13:30:28Z</time>
      </trkpt>
      <trkpt lat="43.47751" lon="2.35894">
        <ele>647.20001220703</ele>
        <time>2019-06-02T13:30:34Z</time>
      </trkpt>
      <trkpt lat="43.4775" lon="2.35908">
        <ele>647.40002441406</ele>
        <time>2019-06-02T13:30:42Z</time>
      </trkpt>
      <trkpt lat="43.47753" lon="2.35916">
        <ele>647</ele>
        <time>2019-06-02T13:30:47Z</time>
      </trkpt>
      <trkpt lat="43.47754" lon="2.35917">
        <ele>646.79998779297</ele>
        <time>2019-06-02T13:30:48Z</time>
      </trkpt>
      <trkpt lat="43.47756" lon="2.35918">
        <ele>646.79998779297</ele>
        <time>2019-06-02T13:30:51Z</time>
      </trkpt>
      <trkpt lat="43.47756" lon="2.35918">
        <ele>647</ele>
        <time>2019-06-02T13:30:52Z</time>
      </trkpt>
      <trkpt lat="43.47761" lon="2.35916">
        <ele>646.20001220703</ele>
        <time>2019-06-02T13:30:55Z</time>
      </trkpt>
      <trkpt lat="43.47764" lon="2.35914">
        <ele>645.79998779297</ele>
        <time>2019-06-02T13:30:57Z</time>
      </trkpt>
      <trkpt lat="43.47767" lon="2.35909">
        <ele>645.40002441406</ele>
        <time>2019-06-02T13:31:01Z</time>
      </trkpt>
      <trkpt lat="43.4777" lon="2.35906">
        <ele>645</ele>
        <time>2019-06-02T13:31:05Z</time>
      </trkpt>
      <trkpt lat="43.47769" lon="2.35905">
        <ele>644.79998779297</ele>
        <time>2019-06-02T13:31:06Z</time>
      </trkpt>
      <trkpt lat="43.47769" lon="2.35904">
        <ele>644.40002441406</ele>
        <time>2019-06-02T13:31:07Z</time>
      </trkpt>
      <trkpt lat="43.4777" lon="2.35902">
        <ele>644</ele>
        <time>2019-06-02T13:31:08Z</time>
      </trkpt>
      <trkpt lat="43.4777" lon="2.35901">
        <ele>643.79998779297</ele>
        <time>2019-06-02T13:31:09Z</time>
      </trkpt>
      <trkpt lat="43.47772" lon="2.35899">
        <ele>643.40002441406</ele>
        <time>2019-06-02T13:31:11Z</time>
      </trkpt>
      <trkpt lat="43.47773" lon="2.35895">
        <ele>643.59997558594</ele>
        <time>2019-06-02T13:31:14Z</time>
      </trkpt>
      <trkpt lat="43.47773" lon="2.35891">
        <ele>643.79998779297</ele>
        <time>2019-06-02T13:31:16Z</time>
      </trkpt>
      <trkpt lat="43.47775" lon="2.35884">
        <ele>643.40002441406</ele>
        <time>2019-06-02T13:31:20Z</time>
      </trkpt>
      <trkpt lat="43.47776" lon="2.35879">
        <ele>643</ele>
        <time>2019-06-02T13:31:23Z</time>
      </trkpt>
      <trkpt lat="43.47777" lon="2.35874">
        <ele>643</ele>
        <time>2019-06-02T13:31:26Z</time>
      </trkpt>
      <trkpt lat="43.47776" lon="2.3587">
        <ele>642.59997558594</ele>
        <time>2019-06-02T13:31:28Z</time>
      </trkpt>
      <trkpt lat="43.47779" lon="2.35863">
        <ele>642.20001220703</ele>
        <time>2019-06-02T13:31:32Z</time>
      </trkpt>
      <trkpt lat="43.47779" lon="2.35861">
        <ele>642.40002441406</ele>
        <time>2019-06-02T13:31:33Z</time>
      </trkpt>
      <trkpt lat="43.4778" lon="2.35854">
        <ele>642.40002441406</ele>
        <time>2019-06-02T13:31:38Z</time>
      </trkpt>
      <trkpt lat="43.47779" lon="2.35849">
        <ele>642</ele>
        <time>2019-06-02T13:31:42Z</time>
      </trkpt>
      <trkpt lat="43.47778" lon="2.35846">
        <ele>641.79998779297</ele>
        <time>2019-06-02T13:31:44Z</time>
      </trkpt>
      <trkpt lat="43.47778" lon="2.35836">
        <ele>641.59997558594</ele>
        <time>2019-06-02T13:31:50Z</time>
      </trkpt>
      <trkpt lat="43.47778" lon="2.35835">
        <ele>641.59997558594</ele>
        <time>2019-06-02T13:31:51Z</time>
      </trkpt>
      <trkpt lat="43.47778" lon="2.35829">
        <ele>641.20001220703</ele>
        <time>2019-06-02T13:31:55Z</time>
      </trkpt>
      <trkpt lat="43.4778" lon="2.35827">
        <ele>641.20001220703</ele>
        <time>2019-06-02T13:31:56Z</time>
      </trkpt>
      <trkpt lat="43.47783" lon="2.35821">
        <ele>641.40002441406</ele>
        <time>2019-06-02T13:32:00Z</time>
      </trkpt>
      <trkpt lat="43.47783" lon="2.35817">
        <ele>641.20001220703</ele>
        <time>2019-06-02T13:32:02Z</time>
      </trkpt>
      <trkpt lat="43.47785" lon="2.35815">
        <ele>640.79998779297</ele>
        <time>2019-06-02T13:32:03Z</time>
      </trkpt>
      <trkpt lat="43.47788" lon="2.35812">
        <ele>640.40002441406</ele>
        <time>2019-06-02T13:32:06Z</time>
      </trkpt>
      <trkpt lat="43.47788" lon="2.3581">
        <ele>640.40002441406</ele>
        <time>2019-06-02T13:32:07Z</time>
      </trkpt>
      <trkpt lat="43.47786" lon="2.35807">
        <ele>640</ele>
        <time>2019-06-02T13:32:09Z</time>
      </trkpt>
      <trkpt lat="43.47786" lon="2.35803">
        <ele>640</ele>
        <time>2019-06-02T13:32:11Z</time>
      </trkpt>
      <trkpt lat="43.47787" lon="2.35799">
        <ele>639.79998779297</ele>
        <time>2019-06-02T13:32:13Z</time>
      </trkpt>
      <trkpt lat="43.47794" lon="2.35792">
        <ele>639.40002441406</ele>
        <time>2019-06-02T13:32:18Z</time>
      </trkpt>
      <trkpt lat="43.47798" lon="2.35788">
        <ele>639</ele>
        <time>2019-06-02T13:32:21Z</time>
      </trkpt>
      <trkpt lat="43.47806" lon="2.35777">
        <ele>638.40002441406</ele>
        <time>2019-06-02T13:32:28Z</time>
      </trkpt>
      <trkpt lat="43.47808" lon="2.35776">
        <ele>638.20001220703</ele>
        <time>2019-06-02T13:32:29Z</time>
      </trkpt>
      <trkpt lat="43.47811" lon="2.35768">
        <ele>638</ele>
        <time>2019-06-02T13:32:34Z</time>
      </trkpt>
      <trkpt lat="43.47813" lon="2.35765">
        <ele>637.79998779297</ele>
        <time>2019-06-02T13:32:36Z</time>
      </trkpt>
      <trkpt lat="43.47812" lon="2.35763">
        <ele>637.79998779297</ele>
        <time>2019-06-02T13:32:37Z</time>
      </trkpt>
      <trkpt lat="43.47812" lon="2.3576">
        <ele>637.20001220703</ele>
        <time>2019-06-02T13:32:39Z</time>
      </trkpt>
      <trkpt lat="43.47812" lon="2.35759">
        <ele>637.40002441406</ele>
        <time>2019-06-02T13:32:40Z</time>
      </trkpt>
      <trkpt lat="43.47812" lon="2.35752">
        <ele>636.59997558594</ele>
        <time>2019-06-02T13:32:45Z</time>
      </trkpt>
      <trkpt lat="43.47812" lon="2.3575">
        <ele>636.59997558594</ele>
        <time>2019-06-02T13:32:46Z</time>
      </trkpt>
      <trkpt lat="43.4781" lon="2.35741">
        <ele>636.20001220703</ele>
        <time>2019-06-02T13:32:51Z</time>
      </trkpt>
      <trkpt lat="43.4781" lon="2.35739">
        <ele>636.20001220703</ele>
        <time>2019-06-02T13:32:52Z</time>
      </trkpt>
      <trkpt lat="43.4781" lon="2.35733">
        <ele>635.79998779297</ele>
        <time>2019-06-02T13:32:55Z</time>
      </trkpt>
      <trkpt lat="43.4781" lon="2.3573">
        <ele>635.59997558594</ele>
        <time>2019-06-02T13:32:57Z</time>
      </trkpt>
      <trkpt lat="43.47808" lon="2.35722">
        <ele>635.59997558594</ele>
        <time>2019-06-02T13:33:02Z</time>
      </trkpt>
      <trkpt lat="43.47807" lon="2.35718">
        <ele>635.40002441406</ele>
        <time>2019-06-02T13:33:04Z</time>
      </trkpt>
      <trkpt lat="43.47808" lon="2.35715">
        <ele>635.20001220703</ele>
        <time>2019-06-02T13:33:06Z</time>
      </trkpt>
      <trkpt lat="43.47808" lon="2.35705">
        <ele>634.40002441406</ele>
        <time>2019-06-02T13:33:11Z</time>
      </trkpt>
      <trkpt lat="43.47807" lon="2.35699">
        <ele>634.20001220703</ele>
        <time>2019-06-02T13:33:14Z</time>
      </trkpt>
      <trkpt lat="43.47807" lon="2.35696">
        <ele>634</ele>
        <time>2019-06-02T13:33:16Z</time>
      </trkpt>
      <trkpt lat="43.47808" lon="2.35693">
        <ele>633.40002441406</ele>
        <time>2019-06-02T13:33:18Z</time>
      </trkpt>
      <trkpt lat="43.47809" lon="2.3569">
        <ele>633</ele>
        <time>2019-06-02T13:33:20Z</time>
      </trkpt>
      <trkpt lat="43.47817" lon="2.35683">
        <ele>632.40002441406</ele>
        <time>2019-06-02T13:33:25Z</time>
      </trkpt>
      <trkpt lat="43.47817" lon="2.35678">
        <ele>632.40002441406</ele>
        <time>2019-06-02T13:33:28Z</time>
      </trkpt>
      <trkpt lat="43.47816" lon="2.35673">
        <ele>631.79998779297</ele>
        <time>2019-06-02T13:33:31Z</time>
      </trkpt>
      <trkpt lat="43.47816" lon="2.35671">
        <ele>631.59997558594</ele>
        <time>2019-06-02T13:33:32Z</time>
      </trkpt>
      <trkpt lat="43.47816" lon="2.35669">
        <ele>631.59997558594</ele>
        <time>2019-06-02T13:33:33Z</time>
      </trkpt>
      <trkpt lat="43.47816" lon="2.35664">
        <ele>631</ele>
        <time>2019-06-02T13:33:36Z</time>
      </trkpt>
      <trkpt lat="43.47813" lon="2.35661">
        <ele>630.79998779297</ele>
        <time>2019-06-02T13:33:38Z</time>
      </trkpt>
      <trkpt lat="43.47811" lon="2.35658">
        <ele>630.59997558594</ele>
        <time>2019-06-02T13:33:40Z</time>
      </trkpt>
      <trkpt lat="43.4781" lon="2.35655">
        <ele>630.40002441406</ele>
        <time>2019-06-02T13:33:43Z</time>
      </trkpt>
      <trkpt lat="43.47811" lon="2.35653">
        <ele>630.40002441406</ele>
        <time>2019-06-02T13:33:44Z</time>
      </trkpt>
      <trkpt lat="43.47816" lon="2.35644">
        <ele>630.20001220703</ele>
        <time>2019-06-02T13:33:49Z</time>
      </trkpt>
      <trkpt lat="43.47817" lon="2.3564">
        <ele>629.79998779297</ele>
        <time>2019-06-02T13:33:51Z</time>
      </trkpt>
      <trkpt lat="43.47815" lon="2.35638">
        <ele>629.59997558594</ele>
        <time>2019-06-02T13:33:52Z</time>
      </trkpt>
      <trkpt lat="43.47815" lon="2.35629">
        <ele>629</ele>
        <time>2019-06-02T13:33:57Z</time>
      </trkpt>
      <trkpt lat="43.47811" lon="2.35626">
        <ele>629</ele>
        <time>2019-06-02T13:33:59Z</time>
      </trkpt>
      <trkpt lat="43.47808" lon="2.35621">
        <ele>628.40002441406</ele>
        <time>2019-06-02T13:34:02Z</time>
      </trkpt>
      <trkpt lat="43.47805" lon="2.35614">
        <ele>628.40002441406</ele>
        <time>2019-06-02T13:34:07Z</time>
      </trkpt>
      <trkpt lat="43.47806" lon="2.35613">
        <ele>628.59997558594</ele>
        <time>2019-06-02T13:34:08Z</time>
      </trkpt>
      <trkpt lat="43.47805" lon="2.35601">
        <ele>627.79998779297</ele>
        <time>2019-06-02T13:34:13Z</time>
      </trkpt>
      <trkpt lat="43.47806" lon="2.35593">
        <ele>627.40002441406</ele>
        <time>2019-06-02T13:34:18Z</time>
      </trkpt>
      <trkpt lat="43.478" lon="2.35588">
        <ele>627.20001220703</ele>
        <time>2019-06-02T13:34:21Z</time>
      </trkpt>
      <trkpt lat="43.47799" lon="2.35585">
        <ele>627.20001220703</ele>
        <time>2019-06-02T13:34:23Z</time>
      </trkpt>
      <trkpt lat="43.47799" lon="2.35579">
        <ele>627.20001220703</ele>
        <time>2019-06-02T13:34:27Z</time>
      </trkpt>
      <trkpt lat="43.478" lon="2.35571">
        <ele>627.20001220703</ele>
        <time>2019-06-02T13:34:34Z</time>
      </trkpt>
      <trkpt lat="43.47801" lon="2.35568">
        <ele>627</ele>
        <time>2019-06-02T13:34:36Z</time>
      </trkpt>
      <trkpt lat="43.47804" lon="2.35562">
        <ele>626.40002441406</ele>
        <time>2019-06-02T13:34:40Z</time>
      </trkpt>
      <trkpt lat="43.47805" lon="2.35562">
        <ele>626.40002441406</ele>
        <time>2019-06-02T13:34:41Z</time>
      </trkpt>
      <trkpt lat="43.47806" lon="2.35561">
        <ele>626.40002441406</ele>
        <time>2019-06-02T13:34:42Z</time>
      </trkpt>
      <trkpt lat="43.47808" lon="2.35553">
        <ele>626.59997558594</ele>
        <time>2019-06-02T13:34:47Z</time>
      </trkpt>
      <trkpt lat="43.47811" lon="2.35553">
        <ele>626.20001220703</ele>
        <time>2019-06-02T13:34:52Z</time>
      </trkpt>
      <trkpt lat="43.47817" lon="2.35554">
        <ele>626.20001220703</ele>
        <time>2019-06-02T13:34:56Z</time>
      </trkpt>
      <trkpt lat="43.47818" lon="2.35553">
        <ele>626</ele>
        <time>2019-06-02T13:34:58Z</time>
      </trkpt>
      <trkpt lat="43.47822" lon="2.35554">
        <ele>626</ele>
        <time>2019-06-02T13:35:05Z</time>
      </trkpt>
      <trkpt lat="43.47823" lon="2.35554">
        <ele>625.79998779297</ele>
        <time>2019-06-02T13:35:06Z</time>
      </trkpt>
      <trkpt lat="43.47824" lon="2.35556">
        <ele>625.79998779297</ele>
        <time>2019-06-02T13:35:10Z</time>
      </trkpt>
      <trkpt lat="43.47824" lon="2.35557">
        <ele>625.79998779297</ele>
        <time>2019-06-02T13:35:11Z</time>
      </trkpt>
      <trkpt lat="43.47825" lon="2.35557">
        <ele>625.79998779297</ele>
        <time>2019-06-02T13:35:13Z</time>
      </trkpt>
      <trkpt lat="43.47826" lon="2.35558">
        <ele>626</ele>
        <time>2019-06-02T13:35:15Z</time>
      </trkpt>
      <trkpt lat="43.47828" lon="2.3556">
        <ele>626</ele>
        <time>2019-06-02T13:35:17Z</time>
      </trkpt>
      <trkpt lat="43.47827" lon="2.35554">
        <ele>626</ele>
        <time>2019-06-02T13:35:22Z</time>
      </trkpt>
      <trkpt lat="43.47831" lon="2.35551">
        <ele>626</ele>
        <time>2019-06-02T13:35:31Z</time>
      </trkpt>
      <trkpt lat="43.47834" lon="2.3555">
        <ele>626</ele>
        <time>2019-06-02T13:35:32Z</time>
      </trkpt>
      <trkpt lat="43.47835" lon="2.35549">
        <ele>625.59997558594</ele>
        <time>2019-06-02T13:35:38Z</time>
      </trkpt>
      <trkpt lat="43.4783" lon="2.35548">
        <ele>622</ele>
        <time>2019-06-02T13:35:48Z</time>
      </trkpt>
      <trkpt lat="43.47829" lon="2.35548">
        <ele>624</ele>
        <time>2019-06-02T13:35:49Z</time>
      </trkpt>
      <trkpt lat="43.47828" lon="2.35548">
        <ele>625.40002441406</ele>
        <time>2019-06-02T13:35:51Z</time>
      </trkpt>
      <trkpt lat="43.47825" lon="2.35547">
        <ele>625.79998779297</ele>
        <time>2019-06-02T13:35:54Z</time>
      </trkpt>
      <trkpt lat="43.47826" lon="2.35547">
        <ele>625.79998779297</ele>
        <time>2019-06-02T13:35:56Z</time>
      </trkpt>
      <trkpt lat="43.47825" lon="2.35546">
        <ele>625.79998779297</ele>
        <time>2019-06-02T13:36:03Z</time>
      </trkpt>
      <trkpt lat="43.47825" lon="2.35546">
        <ele>625.79998779297</ele>
        <time>2019-06-02T13:36:04Z</time>
      </trkpt>
      <trkpt lat="43.47818" lon="2.35553">
        <ele>625.79998779297</ele>
        <time>2019-06-02T13:36:10Z</time>
      </trkpt>
      <trkpt lat="43.47823" lon="2.35558">
        <ele>625.79998779297</ele>
        <time>2019-06-02T13:36:15Z</time>
      </trkpt>
      <trkpt lat="43.47823" lon="2.35558">
        <ele>625.79998779297</ele>
        <time>2019-06-02T13:36:17Z</time>
      </trkpt>
      <trkpt lat="43.4782" lon="2.35557">
        <ele>625.79998779297</ele>
        <time>2019-06-02T13:36:21Z</time>
      </trkpt>
      <trkpt lat="43.47822" lon="2.35557">
        <ele>625.79998779297</ele>
        <time>2019-06-02T13:36:24Z</time>
      </trkpt>
      <trkpt lat="43.47823" lon="2.35556">
        <ele>625.79998779297</ele>
        <time>2019-06-02T13:36:30Z</time>
      </trkpt>
      <trkpt lat="43.47823" lon="2.35556">
        <ele>625.79998779297</ele>
        <time>2019-06-02T13:36:33Z</time>
      </trkpt>
      <trkpt lat="43.4782" lon="2.35554">
        <ele>625.79998779297</ele>
        <time>2019-06-02T13:36:39Z</time>
      </trkpt>
      <trkpt lat="43.47814" lon="2.35554">
        <ele>625.79998779297</ele>
        <time>2019-06-02T13:36:48Z</time>
      </trkpt>
      <trkpt lat="43.47816" lon="2.35555">
        <ele>625.79998779297</ele>
        <time>2019-06-02T13:36:56Z</time>
      </trkpt>
      <trkpt lat="43.47811" lon="2.35559">
        <ele>625.79998779297</ele>
        <time>2019-06-02T13:37:02Z</time>
      </trkpt>
      <trkpt lat="43.47808" lon="2.35559">
        <ele>625.79998779297</ele>
        <time>2019-06-02T13:37:06Z</time>
      </trkpt>
      <trkpt lat="43.47805" lon="2.35559">
        <ele>625.79998779297</ele>
        <time>2019-06-02T13:37:10Z</time>
      </trkpt>
      <trkpt lat="43.47807" lon="2.35554">
        <ele>625.79998779297</ele>
        <time>2019-06-02T13:37:11Z</time>
      </trkpt>
      <trkpt lat="43.47814" lon="2.3555">
        <ele>625.79998779297</ele>
        <time>2019-06-02T13:37:14Z</time>
      </trkpt>
      <trkpt lat="43.47822" lon="2.35553">
        <ele>625.79998779297</ele>
        <time>2019-06-02T13:37:20Z</time>
      </trkpt>
      <trkpt lat="43.47819" lon="2.35554">
        <ele>625.79998779297</ele>
        <time>2019-06-02T13:37:22Z</time>
      </trkpt>
      <trkpt lat="43.47815" lon="2.35549">
        <ele>625.79998779297</ele>
        <time>2019-06-02T13:37:30Z</time>
      </trkpt>
      <trkpt lat="43.47817" lon="2.35548">
        <ele>625.79998779297</ele>
        <time>2019-06-02T13:37:39Z</time>
      </trkpt>
      <trkpt lat="43.47825" lon="2.35551">
        <ele>625.79998779297</ele>
        <time>2019-06-02T13:37:48Z</time>
      </trkpt>
      <trkpt lat="43.47826" lon="2.3555">
        <ele>625.79998779297</ele>
        <time>2019-06-02T13:37:49Z</time>
      </trkpt>
      <trkpt lat="43.47829" lon="2.35549">
        <ele>625.79998779297</ele>
        <time>2019-06-02T13:37:57Z</time>
      </trkpt>
      <trkpt lat="43.47825" lon="2.35548">
        <ele>625.79998779297</ele>
        <time>2019-06-02T13:38:04Z</time>
      </trkpt>
      <trkpt lat="43.47825" lon="2.35551">
        <ele>625.79998779297</ele>
        <time>2019-06-02T13:38:14Z</time>
      </trkpt>
      <trkpt lat="43.47822" lon="2.35551">
        <ele>625.79998779297</ele>
        <time>2019-06-02T13:38:20Z</time>
      </trkpt>
      <trkpt lat="43.47821" lon="2.35554">
        <ele>625.79998779297</ele>
        <time>2019-06-02T13:38:22Z</time>
      </trkpt>
      <trkpt lat="43.47816" lon="2.35554">
        <ele>625.79998779297</ele>
        <time>2019-06-02T13:38:30Z</time>
      </trkpt>
      <trkpt lat="43.47818" lon="2.35555">
        <ele>625.79998779297</ele>
        <time>2019-06-02T13:38:32Z</time>
      </trkpt>
      <trkpt lat="43.47819" lon="2.35556">
        <ele>625.79998779297</ele>
        <time>2019-06-02T13:38:34Z</time>
      </trkpt>
      <trkpt lat="43.47827" lon="2.35558">
        <ele>625.79998779297</ele>
        <time>2019-06-02T13:38:41Z</time>
      </trkpt>
      <trkpt lat="43.47827" lon="2.35557">
        <ele>625.79998779297</ele>
        <time>2019-06-02T13:38:45Z</time>
      </trkpt>
      <trkpt lat="43.47826" lon="2.35557">
        <ele>625.79998779297</ele>
        <time>2019-06-02T13:38:47Z</time>
      </trkpt>
      <trkpt lat="43.47828" lon="2.35556">
        <ele>625.79998779297</ele>
        <time>2019-06-02T13:38:49Z</time>
      </trkpt>
      <trkpt lat="43.47829" lon="2.3555">
        <ele>625.79998779297</ele>
        <time>2019-06-02T13:38:56Z</time>
      </trkpt>
      <trkpt lat="43.47822" lon="2.35552">
        <ele>625.79998779297</ele>
        <time>2019-06-02T13:39:00Z</time>
      </trkpt>
      <trkpt lat="43.47819" lon="2.35551">
        <ele>625.79998779297</ele>
        <time>2019-06-02T13:39:03Z</time>
      </trkpt>
      <trkpt lat="43.47818" lon="2.35545">
        <ele>625.79998779297</ele>
        <time>2019-06-02T13:39:10Z</time>
      </trkpt>
      <trkpt lat="43.47815" lon="2.35544">
        <ele>625.79998779297</ele>
        <time>2019-06-02T13:39:19Z</time>
      </trkpt>
      <trkpt lat="43.47813" lon="2.35544">
        <ele>625.79998779297</ele>
        <time>2019-06-02T13:39:21Z</time>
      </trkpt>
      <trkpt lat="43.47815" lon="2.35545">
        <ele>625.79998779297</ele>
        <time>2019-06-02T13:39:23Z</time>
      </trkpt>
      <trkpt lat="43.47815" lon="2.35545">
        <ele>625.79998779297</ele>
        <time>2019-06-02T13:39:27Z</time>
      </trkpt>
      <trkpt lat="43.47814" lon="2.35545">
        <ele>625.79998779297</ele>
        <time>2019-06-02T13:39:34Z</time>
      </trkpt>
      <trkpt lat="43.47815" lon="2.35544">
        <ele>625.79998779297</ele>
        <time>2019-06-02T13:39:41Z</time>
      </trkpt>
      <trkpt lat="43.47819" lon="2.35544">
        <ele>625.79998779297</ele>
        <time>2019-06-02T13:39:49Z</time>
      </trkpt>
      <trkpt lat="43.47821" lon="2.35546">
        <ele>625.79998779297</ele>
        <time>2019-06-02T13:39:56Z</time>
      </trkpt>
      <trkpt lat="43.47824" lon="2.35546">
        <ele>625.79998779297</ele>
        <time>2019-06-02T13:39:59Z</time>
      </trkpt>
      <trkpt lat="43.47809" lon="2.35546">
        <ele>625.79998779297</ele>
        <time>2019-06-02T13:40:11Z</time>
      </trkpt>
      <trkpt lat="43.47808" lon="2.35545">
        <ele>625.79998779297</ele>
        <time>2019-06-02T13:40:12Z</time>
      </trkpt>
      <trkpt lat="43.47806" lon="2.35544">
        <ele>625.79998779297</ele>
        <time>2019-06-02T13:40:14Z</time>
      </trkpt>
      <trkpt lat="43.47805" lon="2.35541">
        <ele>626</ele>
        <time>2019-06-02T13:40:19Z</time>
      </trkpt>
      <trkpt lat="43.47817" lon="2.35542">
        <ele>625.79998779297</ele>
        <time>2019-06-02T13:40:26Z</time>
      </trkpt>
      <trkpt lat="43.47824" lon="2.35546">
        <ele>626</ele>
        <time>2019-06-02T13:40:34Z</time>
      </trkpt>
      <trkpt lat="43.47823" lon="2.35547">
        <ele>626</ele>
        <time>2019-06-02T13:40:40Z</time>
      </trkpt>
      <trkpt lat="43.47819" lon="2.35548">
        <ele>626</ele>
        <time>2019-06-02T13:40:49Z</time>
      </trkpt>
      <trkpt lat="43.47818" lon="2.35551">
        <ele>625.79998779297</ele>
        <time>2019-06-02T13:40:58Z</time>
      </trkpt>
      <trkpt lat="43.4782" lon="2.35556">
        <ele>626.20001220703</ele>
        <time>2019-06-02T13:41:06Z</time>
      </trkpt>
      <trkpt lat="43.47821" lon="2.35557">
        <ele>626.20001220703</ele>
        <time>2019-06-02T13:41:07Z</time>
      </trkpt>
      <trkpt lat="43.47814" lon="2.35556">
        <ele>626.20001220703</ele>
        <time>2019-06-02T13:41:14Z</time>
      </trkpt>
      <trkpt lat="43.47824" lon="2.35558">
        <ele>626.20001220703</ele>
        <time>2019-06-02T13:41:17Z</time>
      </trkpt>
      <trkpt lat="43.47833" lon="2.35559">
        <ele>626.40002441406</ele>
        <time>2019-06-02T13:41:21Z</time>
      </trkpt>
      <trkpt lat="43.47834" lon="2.3556">
        <ele>626.40002441406</ele>
        <time>2019-06-02T13:41:22Z</time>
      </trkpt>
      <trkpt lat="43.47832" lon="2.35551">
        <ele>626.20001220703</ele>
        <time>2019-06-02T13:41:26Z</time>
      </trkpt>
      <trkpt lat="43.47832" lon="2.35548">
        <ele>626.20001220703</ele>
        <time>2019-06-02T13:41:27Z</time>
      </trkpt>
      <trkpt lat="43.47824" lon="2.35535">
        <ele>626.40002441406</ele>
        <time>2019-06-02T13:41:34Z</time>
      </trkpt>
      <trkpt lat="43.47823" lon="2.35526">
        <ele>626.20001220703</ele>
        <time>2019-06-02T13:41:40Z</time>
      </trkpt>
      <trkpt lat="43.47823" lon="2.35524">
        <ele>626.20001220703</ele>
        <time>2019-06-02T13:41:41Z</time>
      </trkpt>
      <trkpt lat="43.47824" lon="2.35523">
        <ele>626.20001220703</ele>
        <time>2019-06-02T13:41:42Z</time>
      </trkpt>
      <trkpt lat="43.47826" lon="2.3552">
        <ele>626.20001220703</ele>
        <time>2019-06-02T13:41:45Z</time>
      </trkpt>
      <trkpt lat="43.47828" lon="2.3552">
        <ele>626.20001220703</ele>
        <time>2019-06-02T13:41:46Z</time>
      </trkpt>
      <trkpt lat="43.47834" lon="2.35516">
        <ele>626.20001220703</ele>
        <time>2019-06-02T13:41:49Z</time>
      </trkpt>
      <trkpt lat="43.47837" lon="2.35514">
        <ele>625.40002441406</ele>
        <time>2019-06-02T13:41:53Z</time>
      </trkpt>
      <trkpt lat="43.47838" lon="2.35513">
        <ele>625</ele>
        <time>2019-06-02T13:41:54Z</time>
      </trkpt>
      <trkpt lat="43.47839" lon="2.35512">
        <ele>624.59997558594</ele>
        <time>2019-06-02T13:41:56Z</time>
      </trkpt>
      <trkpt lat="43.47837" lon="2.35499">
        <ele>623.79998779297</ele>
        <time>2019-06-02T13:42:02Z</time>
      </trkpt>
      <trkpt lat="43.47837" lon="2.35497">
        <ele>623.79998779297</ele>
        <time>2019-06-02T13:42:04Z</time>
      </trkpt>
      <trkpt lat="43.47842" lon="2.35486">
        <ele>623</ele>
        <time>2019-06-02T13:42:12Z</time>
      </trkpt>
      <trkpt lat="43.47843" lon="2.35485">
        <ele>622.79998779297</ele>
        <time>2019-06-02T13:42:13Z</time>
      </trkpt>
      <trkpt lat="43.47848" lon="2.35485">
        <ele>622.59997558594</ele>
        <time>2019-06-02T13:42:16Z</time>
      </trkpt>
      <trkpt lat="43.4786" lon="2.35486">
        <ele>622.20001220703</ele>
        <time>2019-06-02T13:42:19Z</time>
      </trkpt>
      <trkpt lat="43.47872" lon="2.35483">
        <ele>622.40002441406</ele>
        <time>2019-06-02T13:42:26Z</time>
      </trkpt>
      <trkpt lat="43.47871" lon="2.3548">
        <ele>622.40002441406</ele>
        <time>2019-06-02T13:42:27Z</time>
      </trkpt>
      <trkpt lat="43.47877" lon="2.35474">
        <ele>622.20001220703</ele>
        <time>2019-06-02T13:42:32Z</time>
      </trkpt>
      <trkpt lat="43.4788" lon="2.35473">
        <ele>621.59997558594</ele>
        <time>2019-06-02T13:42:34Z</time>
      </trkpt>
      <trkpt lat="43.47882" lon="2.35468">
        <ele>620.59997558594</ele>
        <time>2019-06-02T13:42:38Z</time>
      </trkpt>
      <trkpt lat="43.47882" lon="2.35468">
        <ele>620.59997558594</ele>
        <time>2019-06-02T13:42:40Z</time>
      </trkpt>
      <trkpt lat="43.47882" lon="2.35467">
        <ele>620.79998779297</ele>
        <time>2019-06-02T13:42:41Z</time>
      </trkpt>
      <trkpt lat="43.47887" lon="2.35464">
        <ele>620.20001220703</ele>
        <time>2019-06-02T13:42:47Z</time>
      </trkpt>
      <trkpt lat="43.47891" lon="2.3546">
        <ele>619.79998779297</ele>
        <time>2019-06-02T13:42:52Z</time>
      </trkpt>
      <trkpt lat="43.47893" lon="2.35458">
        <ele>619.40002441406</ele>
        <time>2019-06-02T13:42:54Z</time>
      </trkpt>
      <trkpt lat="43.47895" lon="2.35454">
        <ele>619.59997558594</ele>
        <time>2019-06-02T13:43:00Z</time>
      </trkpt>
      <trkpt lat="43.47898" lon="2.35449">
        <ele>618.79998779297</ele>
        <time>2019-06-02T13:43:06Z</time>
      </trkpt>
      <trkpt lat="43.47899" lon="2.35449">
        <ele>618.59997558594</ele>
        <time>2019-06-02T13:43:07Z</time>
      </trkpt>
      <trkpt lat="43.47902" lon="2.35446">
        <ele>618.40002441406</ele>
        <time>2019-06-02T13:43:09Z</time>
      </trkpt>
      <trkpt lat="43.47906" lon="2.35444">
        <ele>618</ele>
        <time>2019-06-02T13:43:12Z</time>
      </trkpt>
      <trkpt lat="43.47907" lon="2.35444">
        <ele>618</ele>
        <time>2019-06-02T13:43:13Z</time>
      </trkpt>
      <trkpt lat="43.4791" lon="2.35442">
        <ele>617.79998779297</ele>
        <time>2019-06-02T13:43:15Z</time>
      </trkpt>
      <trkpt lat="43.47914" lon="2.35437">
        <ele>618</ele>
        <time>2019-06-02T13:43:20Z</time>
      </trkpt>
      <trkpt lat="43.47914" lon="2.35434">
        <ele>618</ele>
        <time>2019-06-02T13:43:22Z</time>
      </trkpt>
      <trkpt lat="43.47917" lon="2.35428">
        <ele>618</ele>
        <time>2019-06-02T13:43:26Z</time>
      </trkpt>
      <trkpt lat="43.47919" lon="2.35425">
        <ele>617.40002441406</ele>
        <time>2019-06-02T13:43:28Z</time>
      </trkpt>
      <trkpt lat="43.47922" lon="2.35423">
        <ele>617</ele>
        <time>2019-06-02T13:43:30Z</time>
      </trkpt>
      <trkpt lat="43.47929" lon="2.35422">
        <ele>616.79998779297</ele>
        <time>2019-06-02T13:43:33Z</time>
      </trkpt>
      <trkpt lat="43.47932" lon="2.35418">
        <ele>616.40002441406</ele>
        <time>2019-06-02T13:43:36Z</time>
      </trkpt>
      <trkpt lat="43.47933" lon="2.35417">
        <ele>616.20001220703</ele>
        <time>2019-06-02T13:43:37Z</time>
      </trkpt>
      <trkpt lat="43.47938" lon="2.35411">
        <ele>615.59997558594</ele>
        <time>2019-06-02T13:43:42Z</time>
      </trkpt>
      <trkpt lat="43.4794" lon="2.35408">
        <ele>615.59997558594</ele>
        <time>2019-06-02T13:43:45Z</time>
      </trkpt>
      <trkpt lat="43.47943" lon="2.35404">
        <ele>615.20001220703</ele>
        <time>2019-06-02T13:43:48Z</time>
      </trkpt>
      <trkpt lat="43.47943" lon="2.35403">
        <ele>614.79998779297</ele>
        <time>2019-06-02T13:43:49Z</time>
      </trkpt>
      <trkpt lat="43.47948" lon="2.35397">
        <ele>614.40002441406</ele>
        <time>2019-06-02T13:43:55Z</time>
      </trkpt>
      <trkpt lat="43.47953" lon="2.35392">
        <ele>613.79998779297</ele>
        <time>2019-06-02T13:43:59Z</time>
      </trkpt>
      <trkpt lat="43.47954" lon="2.3539">
        <ele>613.40002441406</ele>
        <time>2019-06-02T13:44:01Z</time>
      </trkpt>
      <trkpt lat="43.47954" lon="2.35388">
        <ele>613.40002441406</ele>
        <time>2019-06-02T13:44:02Z</time>
      </trkpt>
      <trkpt lat="43.47955" lon="2.35385">
        <ele>613</ele>
        <time>2019-06-02T13:44:04Z</time>
      </trkpt>
      <trkpt lat="43.47956" lon="2.35382">
        <ele>612.59997558594</ele>
        <time>2019-06-02T13:44:06Z</time>
      </trkpt>
      <trkpt lat="43.47956" lon="2.35381">
        <ele>612.59997558594</ele>
        <time>2019-06-02T13:44:07Z</time>
      </trkpt>
      <trkpt lat="43.47957" lon="2.35376">
        <ele>612</ele>
        <time>2019-06-02T13:44:12Z</time>
      </trkpt>
      <trkpt lat="43.47957" lon="2.35373">
        <ele>611.79998779297</ele>
        <time>2019-06-02T13:44:14Z</time>
      </trkpt>
      <trkpt lat="43.47957" lon="2.35372">
        <ele>611.59997558594</ele>
        <time>2019-06-02T13:44:15Z</time>
      </trkpt>
      <trkpt lat="43.47958" lon="2.35365">
        <ele>611.20001220703</ele>
        <time>2019-06-02T13:44:20Z</time>
      </trkpt>
      <trkpt lat="43.47957" lon="2.35364">
        <ele>611.20001220703</ele>
        <time>2019-06-02T13:44:21Z</time>
      </trkpt>
      <trkpt lat="43.47957" lon="2.35362">
        <ele>611.20001220703</ele>
        <time>2019-06-02T13:44:22Z</time>
      </trkpt>
      <trkpt lat="43.47957" lon="2.35361">
        <ele>611.20001220703</ele>
        <time>2019-06-02T13:44:23Z</time>
      </trkpt>
      <trkpt lat="43.47955" lon="2.35358">
        <ele>610.59997558594</ele>
        <time>2019-06-02T13:44:25Z</time>
      </trkpt>
      <trkpt lat="43.47956" lon="2.35355">
        <ele>610</ele>
        <time>2019-06-02T13:44:27Z</time>
      </trkpt>
      <trkpt lat="43.47955" lon="2.35351">
        <ele>610</ele>
        <time>2019-06-02T13:44:31Z</time>
      </trkpt>
      <trkpt lat="43.47955" lon="2.35347">
        <ele>610</ele>
        <time>2019-06-02T13:44:34Z</time>
      </trkpt>
      <trkpt lat="43.47955" lon="2.35344">
        <ele>609.20001220703</ele>
        <time>2019-06-02T13:44:36Z</time>
      </trkpt>
      <trkpt lat="43.47956" lon="2.3534">
        <ele>608</ele>
        <time>2019-06-02T13:44:39Z</time>
      </trkpt>
      <trkpt lat="43.47957" lon="2.35338">
        <ele>608</ele>
        <time>2019-06-02T13:44:40Z</time>
      </trkpt>
      <trkpt lat="43.47958" lon="2.35336">
        <ele>608</ele>
        <time>2019-06-02T13:44:41Z</time>
      </trkpt>
      <trkpt lat="43.47959" lon="2.35331">
        <ele>608.20001220703</ele>
        <time>2019-06-02T13:44:45Z</time>
      </trkpt>
      <trkpt lat="43.47959" lon="2.35328">
        <ele>608.20001220703</ele>
        <time>2019-06-02T13:44:47Z</time>
      </trkpt>
      <trkpt lat="43.47959" lon="2.35321">
        <ele>608.20001220703</ele>
        <time>2019-06-02T13:44:51Z</time>
      </trkpt>
      <trkpt lat="43.47959" lon="2.35319">
        <ele>608.20001220703</ele>
        <time>2019-06-02T13:44:52Z</time>
      </trkpt>
      <trkpt lat="43.47959" lon="2.35312">
        <ele>607.79998779297</ele>
        <time>2019-06-02T13:44:57Z</time>
      </trkpt>
      <trkpt lat="43.47958" lon="2.35307">
        <ele>607.20001220703</ele>
        <time>2019-06-02T13:44:59Z</time>
      </trkpt>
      <trkpt lat="43.47957" lon="2.35304">
        <ele>607</ele>
        <time>2019-06-02T13:45:01Z</time>
      </trkpt>
      <trkpt lat="43.47956" lon="2.35303">
        <ele>607</ele>
        <time>2019-06-02T13:45:02Z</time>
      </trkpt>
      <trkpt lat="43.47957" lon="2.35299">
        <ele>606.79998779297</ele>
        <time>2019-06-02T13:45:05Z</time>
      </trkpt>
      <trkpt lat="43.47956" lon="2.35294">
        <ele>606.40002441406</ele>
        <time>2019-06-02T13:45:09Z</time>
      </trkpt>
      <trkpt lat="43.47956" lon="2.35292">
        <ele>606.40002441406</ele>
        <time>2019-06-02T13:45:11Z</time>
      </trkpt>
      <trkpt lat="43.47958" lon="2.35286">
        <ele>606</ele>
        <time>2019-06-02T13:45:15Z</time>
      </trkpt>
      <trkpt lat="43.47956" lon="2.35284">
        <ele>606</ele>
        <time>2019-06-02T13:45:17Z</time>
      </trkpt>
      <trkpt lat="43.47956" lon="2.35283">
        <ele>606</ele>
        <time>2019-06-02T13:45:18Z</time>
      </trkpt>
      <trkpt lat="43.47953" lon="2.3528">
        <ele>605.59997558594</ele>
        <time>2019-06-02T13:45:20Z</time>
      </trkpt>
      <trkpt lat="43.4795" lon="2.35274">
        <ele>605</ele>
        <time>2019-06-02T13:45:24Z</time>
      </trkpt>
      <trkpt lat="43.47948" lon="2.35272">
        <ele>604.79998779297</ele>
        <time>2019-06-02T13:45:26Z</time>
      </trkpt>
      <trkpt lat="43.47943" lon="2.3527">
        <ele>604.79998779297</ele>
        <time>2019-06-02T13:45:30Z</time>
      </trkpt>
      <trkpt lat="43.47939" lon="2.35268">
        <ele>604.40002441406</ele>
        <time>2019-06-02T13:45:32Z</time>
      </trkpt>
      <trkpt lat="43.47933" lon="2.35267">
        <ele>604.20001220703</ele>
        <time>2019-06-02T13:45:36Z</time>
      </trkpt>
      <trkpt lat="43.47933" lon="2.35266">
        <ele>604</ele>
        <time>2019-06-02T13:45:38Z</time>
      </trkpt>
      <trkpt lat="43.47932" lon="2.35266">
        <ele>603.79998779297</ele>
        <time>2019-06-02T13:45:40Z</time>
      </trkpt>
      <trkpt lat="43.47934" lon="2.35265">
        <ele>602.59997558594</ele>
        <time>2019-06-02T13:45:44Z</time>
      </trkpt>
      <trkpt lat="43.47934" lon="2.35262">
        <ele>601.59997558594</ele>
        <time>2019-06-02T13:45:48Z</time>
      </trkpt>
      <trkpt lat="43.47932" lon="2.3526">
        <ele>601.40002441406</ele>
        <time>2019-06-02T13:45:50Z</time>
      </trkpt>
      <trkpt lat="43.47932" lon="2.35253">
        <ele>600.40002441406</ele>
        <time>2019-06-02T13:45:54Z</time>
      </trkpt>
      <trkpt lat="43.47932" lon="2.35252">
        <ele>600.20001220703</ele>
        <time>2019-06-02T13:45:55Z</time>
      </trkpt>
      <trkpt lat="43.47933" lon="2.35248">
        <ele>600</ele>
        <time>2019-06-02T13:45:59Z</time>
      </trkpt>
      <trkpt lat="43.47932" lon="2.35236">
        <ele>600.20001220703</ele>
        <time>2019-06-02T13:46:03Z</time>
      </trkpt>
      <trkpt lat="43.47932" lon="2.35233">
        <ele>600.20001220703</ele>
        <time>2019-06-02T13:46:04Z</time>
      </trkpt>
      <trkpt lat="43.47937" lon="2.3522">
        <ele>600.20001220703</ele>
        <time>2019-06-02T13:46:09Z</time>
      </trkpt>
      <trkpt lat="43.47938" lon="2.35214">
        <ele>600</ele>
        <time>2019-06-02T13:46:10Z</time>
      </trkpt>
      <trkpt lat="43.47939" lon="2.35203">
        <ele>599.40002441406</ele>
        <time>2019-06-02T13:46:14Z</time>
      </trkpt>
      <trkpt lat="43.4794" lon="2.35202">
        <ele>599</ele>
        <time>2019-06-02T13:46:15Z</time>
      </trkpt>
      <trkpt lat="43.47942" lon="2.35196">
        <ele>598.40002441406</ele>
        <time>2019-06-02T13:46:19Z</time>
      </trkpt>
      <trkpt lat="43.47942" lon="2.35195">
        <ele>598.40002441406</ele>
        <time>2019-06-02T13:46:20Z</time>
      </trkpt>
      <trkpt lat="43.47943" lon="2.35192">
        <ele>598.20001220703</ele>
        <time>2019-06-02T13:46:22Z</time>
      </trkpt>
      <trkpt lat="43.47947" lon="2.35184">
        <ele>597.79998779297</ele>
        <time>2019-06-02T13:46:31Z</time>
      </trkpt>
      <trkpt lat="43.47949" lon="2.35181">
        <ele>597.59997558594</ele>
        <time>2019-06-02T13:46:34Z</time>
      </trkpt>
      <trkpt lat="43.47951" lon="2.35177">
        <ele>597.59997558594</ele>
        <time>2019-06-02T13:46:37Z</time>
      </trkpt>
      <trkpt lat="43.47952" lon="2.35171">
        <ele>597.20001220703</ele>
        <time>2019-06-02T13:46:40Z</time>
      </trkpt>
      <trkpt lat="43.47954" lon="2.35166">
        <ele>596.79998779297</ele>
        <time>2019-06-02T13:46:43Z</time>
      </trkpt>
      <trkpt lat="43.47955" lon="2.35163">
        <ele>596.79998779297</ele>
        <time>2019-06-02T13:46:45Z</time>
      </trkpt>
      <trkpt lat="43.47957" lon="2.35157">
        <ele>596.20001220703</ele>
        <time>2019-06-02T13:46:49Z</time>
      </trkpt>
      <trkpt lat="43.47957" lon="2.35155">
        <ele>596.20001220703</ele>
        <time>2019-06-02T13:46:50Z</time>
      </trkpt>
      <trkpt lat="43.47961" lon="2.35147">
        <ele>595.40002441406</ele>
        <time>2019-06-02T13:46:56Z</time>
      </trkpt>
      <trkpt lat="43.47962" lon="2.35143">
        <ele>595.40002441406</ele>
        <time>2019-06-02T13:46:59Z</time>
      </trkpt>
      <trkpt lat="43.47964" lon="2.35138">
        <ele>595.40002441406</ele>
        <time>2019-06-02T13:47:02Z</time>
      </trkpt>
      <trkpt lat="43.47966" lon="2.35132">
        <ele>595</ele>
        <time>2019-06-02T13:47:06Z</time>
      </trkpt>
      <trkpt lat="43.47969" lon="2.35128">
        <ele>594.79998779297</ele>
        <time>2019-06-02T13:47:09Z</time>
      </trkpt>
      <trkpt lat="43.4797" lon="2.35126">
        <ele>594.79998779297</ele>
        <time>2019-06-02T13:47:11Z</time>
      </trkpt>
      <trkpt lat="43.47969" lon="2.35125">
        <ele>594.59997558594</ele>
        <time>2019-06-02T13:47:14Z</time>
      </trkpt>
      <trkpt lat="43.47971" lon="2.35126">
        <ele>594.40002441406</ele>
        <time>2019-06-02T13:47:18Z</time>
      </trkpt>
      <trkpt lat="43.47973" lon="2.35127">
        <ele>594.40002441406</ele>
        <time>2019-06-02T13:47:20Z</time>
      </trkpt>
      <trkpt lat="43.47977" lon="2.3513">
        <ele>594.40002441406</ele>
        <time>2019-06-02T13:47:27Z</time>
      </trkpt>
      <trkpt lat="43.47978" lon="2.35131">
        <ele>594.40002441406</ele>
        <time>2019-06-02T13:47:30Z</time>
      </trkpt>
      <trkpt lat="43.4798" lon="2.35131">
        <ele>594.40002441406</ele>
        <time>2019-06-02T13:47:31Z</time>
      </trkpt>
      <trkpt lat="43.47982" lon="2.35131">
        <ele>594.40002441406</ele>
        <time>2019-06-02T13:47:33Z</time>
      </trkpt>
      <trkpt lat="43.47983" lon="2.35131">
        <ele>594.40002441406</ele>
        <time>2019-06-02T13:47:34Z</time>
      </trkpt>
      <trkpt lat="43.47986" lon="2.35126">
        <ele>594.40002441406</ele>
        <time>2019-06-02T13:47:41Z</time>
      </trkpt>
      <trkpt lat="43.4799" lon="2.35117">
        <ele>594.20001220703</ele>
        <time>2019-06-02T13:47:49Z</time>
      </trkpt>
      <trkpt lat="43.47991" lon="2.35116">
        <ele>594.20001220703</ele>
        <time>2019-06-02T13:47:50Z</time>
      </trkpt>
      <trkpt lat="43.47993" lon="2.35112">
        <ele>594</ele>
        <time>2019-06-02T13:47:53Z</time>
      </trkpt>
      <trkpt lat="43.47995" lon="2.35107">
        <ele>594</ele>
        <time>2019-06-02T13:47:57Z</time>
      </trkpt>
      <trkpt lat="43.47996" lon="2.35106">
        <ele>593.79998779297</ele>
        <time>2019-06-02T13:47:58Z</time>
      </trkpt>
      <trkpt lat="43.47999" lon="2.35103">
        <ele>593</ele>
        <time>2019-06-02T13:48:02Z</time>
      </trkpt>
      <trkpt lat="43.48002" lon="2.35101">
        <ele>592.59997558594</ele>
        <time>2019-06-02T13:48:04Z</time>
      </trkpt>
      <trkpt lat="43.48008" lon="2.35099">
        <ele>592.79998779297</ele>
        <time>2019-06-02T13:48:07Z</time>
      </trkpt>
      <trkpt lat="43.48013" lon="2.35099">
        <ele>592.79998779297</ele>
        <time>2019-06-02T13:48:14Z</time>
      </trkpt>
      <trkpt lat="43.48014" lon="2.35093">
        <ele>592.40002441406</ele>
        <time>2019-06-02T13:48:17Z</time>
      </trkpt>
      <trkpt lat="43.48017" lon="2.35092">
        <ele>592.40002441406</ele>
        <time>2019-06-02T13:48:20Z</time>
      </trkpt>
      <trkpt lat="43.48017" lon="2.35091">
        <ele>592.40002441406</ele>
        <time>2019-06-02T13:48:21Z</time>
      </trkpt>
      <trkpt lat="43.48018" lon="2.3509">
        <ele>592.40002441406</ele>
        <time>2019-06-02T13:48:22Z</time>
      </trkpt>
      <trkpt lat="43.48022" lon="2.35086">
        <ele>592.59997558594</ele>
        <time>2019-06-02T13:48:27Z</time>
      </trkpt>
      <trkpt lat="43.48028" lon="2.35081">
        <ele>592</ele>
        <time>2019-06-02T13:48:33Z</time>
      </trkpt>
      <trkpt lat="43.48029" lon="2.35081">
        <ele>591.79998779297</ele>
        <time>2019-06-02T13:48:34Z</time>
      </trkpt>
      <trkpt lat="43.48033" lon="2.35079">
        <ele>590.59997558594</ele>
        <time>2019-06-02T13:48:37Z</time>
      </trkpt>
      <trkpt lat="43.48034" lon="2.35076">
        <ele>590</ele>
        <time>2019-06-02T13:48:39Z</time>
      </trkpt>
      <trkpt lat="43.48033" lon="2.35076">
        <ele>589.59997558594</ele>
        <time>2019-06-02T13:48:42Z</time>
      </trkpt>
      <trkpt lat="43.48034" lon="2.35075">
        <ele>589.40002441406</ele>
        <time>2019-06-02T13:48:45Z</time>
      </trkpt>
      <trkpt lat="43.48036" lon="2.35074">
        <ele>589.20001220703</ele>
        <time>2019-06-02T13:48:46Z</time>
      </trkpt>
      <trkpt lat="43.48039" lon="2.35073">
        <ele>588.79998779297</ele>
        <time>2019-06-02T13:48:48Z</time>
      </trkpt>
      <trkpt lat="43.4804" lon="2.35073">
        <ele>588.59997558594</ele>
        <time>2019-06-02T13:48:49Z</time>
      </trkpt>
      <trkpt lat="43.48045" lon="2.35073">
        <ele>588</ele>
        <time>2019-06-02T13:48:52Z</time>
      </trkpt>
      <trkpt lat="43.4805" lon="2.35068">
        <ele>587.59997558594</ele>
        <time>2019-06-02T13:48:57Z</time>
      </trkpt>
      <trkpt lat="43.48051" lon="2.35067">
        <ele>587.40002441406</ele>
        <time>2019-06-02T13:48:58Z</time>
      </trkpt>
      <trkpt lat="43.48053" lon="2.35065">
        <ele>586.79998779297</ele>
        <time>2019-06-02T13:49:04Z</time>
      </trkpt>
      <trkpt lat="43.48052" lon="2.35064">
        <ele>586.40002441406</ele>
        <time>2019-06-02T13:49:06Z</time>
      </trkpt>
      <trkpt lat="43.48054" lon="2.35064">
        <ele>585.40002441406</ele>
        <time>2019-06-02T13:49:10Z</time>
      </trkpt>
      <trkpt lat="43.48055" lon="2.35064">
        <ele>585.20001220703</ele>
        <time>2019-06-02T13:49:11Z</time>
      </trkpt>
      <trkpt lat="43.48062" lon="2.35063">
        <ele>584.20001220703</ele>
        <time>2019-06-02T13:49:15Z</time>
      </trkpt>
      <trkpt lat="43.48064" lon="2.35063">
        <ele>583.59997558594</ele>
        <time>2019-06-02T13:49:17Z</time>
      </trkpt>
      <trkpt lat="43.48071" lon="2.35063">
        <ele>583.20001220703</ele>
        <time>2019-06-02T13:49:22Z</time>
      </trkpt>
      <trkpt lat="43.48075" lon="2.35062">
        <ele>582.59997558594</ele>
        <time>2019-06-02T13:49:24Z</time>
      </trkpt>
      <trkpt lat="43.48078" lon="2.35061">
        <ele>582</ele>
        <time>2019-06-02T13:49:27Z</time>
      </trkpt>
      <trkpt lat="43.4808" lon="2.35053">
        <ele>581.20001220703</ele>
        <time>2019-06-02T13:49:33Z</time>
      </trkpt>
      <trkpt lat="43.48084" lon="2.35051">
        <ele>581</ele>
        <time>2019-06-02T13:49:38Z</time>
      </trkpt>
      <trkpt lat="43.48087" lon="2.35048">
        <ele>581.59997558594</ele>
        <time>2019-06-02T13:49:42Z</time>
      </trkpt>
      <trkpt lat="43.48087" lon="2.35047">
        <ele>581.59997558594</ele>
        <time>2019-06-02T13:49:43Z</time>
      </trkpt>
      <trkpt lat="43.4809" lon="2.35052">
        <ele>581.20001220703</ele>
        <time>2019-06-02T13:49:48Z</time>
      </trkpt>
      <trkpt lat="43.48094" lon="2.35056">
        <ele>581</ele>
        <time>2019-06-02T13:49:50Z</time>
      </trkpt>
      <trkpt lat="43.48096" lon="2.35057">
        <ele>581</ele>
        <time>2019-06-02T13:49:51Z</time>
      </trkpt>
      <trkpt lat="43.48097" lon="2.35058">
        <ele>580</ele>
        <time>2019-06-02T13:49:54Z</time>
      </trkpt>
      <trkpt lat="43.48097" lon="2.35059">
        <ele>579.59997558594</ele>
        <time>2019-06-02T13:49:55Z</time>
      </trkpt>
      <trkpt lat="43.481" lon="2.3506">
        <ele>578.79998779297</ele>
        <time>2019-06-02T13:50:04Z</time>
      </trkpt>
      <trkpt lat="43.48101" lon="2.35059">
        <ele>578.59997558594</ele>
        <time>2019-06-02T13:50:05Z</time>
      </trkpt>
      <trkpt lat="43.48108" lon="2.35058">
        <ele>577.40002441406</ele>
        <time>2019-06-02T13:50:09Z</time>
      </trkpt>
      <trkpt lat="43.48109" lon="2.35058">
        <ele>577</ele>
        <time>2019-06-02T13:50:10Z</time>
      </trkpt>
      <trkpt lat="43.48113" lon="2.35058">
        <ele>576.59997558594</ele>
        <time>2019-06-02T13:50:13Z</time>
      </trkpt>
      <trkpt lat="43.48117" lon="2.35057">
        <ele>576.59997558594</ele>
        <time>2019-06-02T13:50:15Z</time>
      </trkpt>
      <trkpt lat="43.48122" lon="2.35056">
        <ele>576.40002441406</ele>
        <time>2019-06-02T13:50:17Z</time>
      </trkpt>
      <trkpt lat="43.48125" lon="2.35055">
        <ele>576.20001220703</ele>
        <time>2019-06-02T13:50:19Z</time>
      </trkpt>
      <trkpt lat="43.48129" lon="2.35053">
        <ele>575.59997558594</ele>
        <time>2019-06-02T13:50:22Z</time>
      </trkpt>
      <trkpt lat="43.4813" lon="2.35053">
        <ele>575.59997558594</ele>
        <time>2019-06-02T13:50:23Z</time>
      </trkpt>
      <trkpt lat="43.48132" lon="2.35051">
        <ele>575.40002441406</ele>
        <time>2019-06-02T13:50:26Z</time>
      </trkpt>
      <trkpt lat="43.48131" lon="2.35049">
        <ele>575.20001220703</ele>
        <time>2019-06-02T13:50:28Z</time>
      </trkpt>
      <trkpt lat="43.48135" lon="2.35045">
        <ele>575</ele>
        <time>2019-06-02T13:50:31Z</time>
      </trkpt>
      <trkpt lat="43.48139" lon="2.35039">
        <ele>574</ele>
        <time>2019-06-02T13:50:35Z</time>
      </trkpt>
      <trkpt lat="43.48143" lon="2.35031">
        <ele>573.59997558594</ele>
        <time>2019-06-02T13:50:40Z</time>
      </trkpt>
      <trkpt lat="43.48147" lon="2.35024">
        <ele>573</ele>
        <time>2019-06-02T13:50:45Z</time>
      </trkpt>
      <trkpt lat="43.48148" lon="2.35019">
        <ele>572.20001220703</ele>
        <time>2019-06-02T13:50:48Z</time>
      </trkpt>
      <trkpt lat="43.48151" lon="2.35016">
        <ele>572</ele>
        <time>2019-06-02T13:50:50Z</time>
      </trkpt>
      <trkpt lat="43.48149" lon="2.3501">
        <ele>572</ele>
        <time>2019-06-02T13:50:53Z</time>
      </trkpt>
      <trkpt lat="43.48148" lon="2.35008">
        <ele>572</ele>
        <time>2019-06-02T13:50:54Z</time>
      </trkpt>
      <trkpt lat="43.48143" lon="2.35001">
        <ele>571</ele>
        <time>2019-06-02T13:50:58Z</time>
      </trkpt>
      <trkpt lat="43.4814" lon="2.34998">
        <ele>570.79998779297</ele>
        <time>2019-06-02T13:51:00Z</time>
      </trkpt>
      <trkpt lat="43.48139" lon="2.34994">
        <ele>570.79998779297</ele>
        <time>2019-06-02T13:51:02Z</time>
      </trkpt>
      <trkpt lat="43.48139" lon="2.3499">
        <ele>570.40002441406</ele>
        <time>2019-06-02T13:51:05Z</time>
      </trkpt>
      <trkpt lat="43.48139" lon="2.34988">
        <ele>570.20001220703</ele>
        <time>2019-06-02T13:51:06Z</time>
      </trkpt>
      <trkpt lat="43.48137" lon="2.34986">
        <ele>569.79998779297</ele>
        <time>2019-06-02T13:51:08Z</time>
      </trkpt>
      <trkpt lat="43.48139" lon="2.34984">
        <ele>569.40002441406</ele>
        <time>2019-06-02T13:51:09Z</time>
      </trkpt>
      <trkpt lat="43.4814" lon="2.3498">
        <ele>569</ele>
        <time>2019-06-02T13:51:11Z</time>
      </trkpt>
      <trkpt lat="43.4814" lon="2.34979">
        <ele>568.79998779297</ele>
        <time>2019-06-02T13:51:12Z</time>
      </trkpt>
      <trkpt lat="43.4814" lon="2.34977">
        <ele>568.59997558594</ele>
        <time>2019-06-02T13:51:13Z</time>
      </trkpt>
      <trkpt lat="43.48139" lon="2.3497">
        <ele>568</ele>
        <time>2019-06-02T13:51:17Z</time>
      </trkpt>
      <trkpt lat="43.48139" lon="2.34968">
        <ele>567.79998779297</ele>
        <time>2019-06-02T13:51:18Z</time>
      </trkpt>
      <trkpt lat="43.48141" lon="2.34965">
        <ele>567.79998779297</ele>
        <time>2019-06-02T13:51:20Z</time>
      </trkpt>
      <trkpt lat="43.48139" lon="2.34961">
        <ele>567.40002441406</ele>
        <time>2019-06-02T13:51:23Z</time>
      </trkpt>
      <trkpt lat="43.48131" lon="2.34954">
        <ele>566.59997558594</ele>
        <time>2019-06-02T13:51:30Z</time>
      </trkpt>
      <trkpt lat="43.4813" lon="2.34952">
        <ele>566.40002441406</ele>
        <time>2019-06-02T13:51:32Z</time>
      </trkpt>
      <trkpt lat="43.48125" lon="2.34947">
        <ele>566.20001220703</ele>
        <time>2019-06-02T13:51:37Z</time>
      </trkpt>
      <trkpt lat="43.4812" lon="2.34943">
        <ele>565.59997558594</ele>
        <time>2019-06-02T13:51:41Z</time>
      </trkpt>
      <trkpt lat="43.48119" lon="2.34941">
        <ele>565.20001220703</ele>
        <time>2019-06-02T13:51:42Z</time>
      </trkpt>
      <trkpt lat="43.48118" lon="2.34937">
        <ele>564.59997558594</ele>
        <time>2019-06-02T13:51:45Z</time>
      </trkpt>
      <trkpt lat="43.48116" lon="2.34934">
        <ele>564.20001220703</ele>
        <time>2019-06-02T13:51:48Z</time>
      </trkpt>
      <trkpt lat="43.4811" lon="2.3493">
        <ele>563.59997558594</ele>
        <time>2019-06-02T13:51:54Z</time>
      </trkpt>
      <trkpt lat="43.48103" lon="2.34924">
        <ele>563.40002441406</ele>
        <time>2019-06-02T13:52:01Z</time>
      </trkpt>
      <trkpt lat="43.48092" lon="2.34922">
        <ele>562.79998779297</ele>
        <time>2019-06-02T13:52:06Z</time>
      </trkpt>
      <trkpt lat="43.4809" lon="2.34921">
        <ele>562.59997558594</ele>
        <time>2019-06-02T13:52:07Z</time>
      </trkpt>
      <trkpt lat="43.48089" lon="2.34921">
        <ele>562.40002441406</ele>
        <time>2019-06-02T13:52:08Z</time>
      </trkpt>
      <trkpt lat="43.4808" lon="2.34919">
        <ele>561.59997558594</ele>
        <time>2019-06-02T13:52:13Z</time>
      </trkpt>
      <trkpt lat="43.4808" lon="2.34917">
        <ele>561.59997558594</ele>
        <time>2019-06-02T13:52:15Z</time>
      </trkpt>
      <trkpt lat="43.48078" lon="2.34914">
        <ele>561.40002441406</ele>
        <time>2019-06-02T13:52:18Z</time>
      </trkpt>
      <trkpt lat="43.48077" lon="2.34912">
        <ele>561</ele>
        <time>2019-06-02T13:52:19Z</time>
      </trkpt>
      <trkpt lat="43.48078" lon="2.34908">
        <ele>560.40002441406</ele>
        <time>2019-06-02T13:52:23Z</time>
      </trkpt>
      <trkpt lat="43.48078" lon="2.34906">
        <ele>560.40002441406</ele>
        <time>2019-06-02T13:52:24Z</time>
      </trkpt>
      <trkpt lat="43.48078" lon="2.34899">
        <ele>560</ele>
        <time>2019-06-02T13:52:27Z</time>
      </trkpt>
      <trkpt lat="43.48077" lon="2.34891">
        <ele>559.20001220703</ele>
        <time>2019-06-02T13:52:31Z</time>
      </trkpt>
      <trkpt lat="43.48076" lon="2.34883">
        <ele>559.40002441406</ele>
        <time>2019-06-02T13:52:36Z</time>
      </trkpt>
      <trkpt lat="43.48076" lon="2.34882">
        <ele>559.40002441406</ele>
        <time>2019-06-02T13:52:37Z</time>
      </trkpt>
      <trkpt lat="43.48077" lon="2.3488">
        <ele>559</ele>
        <time>2019-06-02T13:52:38Z</time>
      </trkpt>
      <trkpt lat="43.48078" lon="2.34876">
        <ele>558</ele>
        <time>2019-06-02T13:52:41Z</time>
      </trkpt>
      <trkpt lat="43.48078" lon="2.34875">
        <ele>557.79998779297</ele>
        <time>2019-06-02T13:52:42Z</time>
      </trkpt>
      <trkpt lat="43.48078" lon="2.34873">
        <ele>557.59997558594</ele>
        <time>2019-06-02T13:52:44Z</time>
      </trkpt>
      <trkpt lat="43.48078" lon="2.34868">
        <ele>557</ele>
        <time>2019-06-02T13:52:48Z</time>
      </trkpt>
      <trkpt lat="43.48076" lon="2.34865">
        <ele>556.40002441406</ele>
        <time>2019-06-02T13:52:51Z</time>
      </trkpt>
      <trkpt lat="43.48077" lon="2.3486">
        <ele>556.20001220703</ele>
        <time>2019-06-02T13:52:54Z</time>
      </trkpt>
      <trkpt lat="43.4808" lon="2.34855">
        <ele>555.79998779297</ele>
        <time>2019-06-02T13:52:57Z</time>
      </trkpt>
      <trkpt lat="43.48081" lon="2.34854">
        <ele>555.59997558594</ele>
        <time>2019-06-02T13:52:58Z</time>
      </trkpt>
      <trkpt lat="43.48086" lon="2.34853">
        <ele>554.59997558594</ele>
        <time>2019-06-02T13:53:01Z</time>
      </trkpt>
      <trkpt lat="43.48087" lon="2.34855">
        <ele>554.40002441406</ele>
        <time>2019-06-02T13:53:02Z</time>
      </trkpt>
      <trkpt lat="43.48088" lon="2.34856">
        <ele>554</ele>
        <time>2019-06-02T13:53:04Z</time>
      </trkpt>
      <trkpt lat="43.4809" lon="2.34859">
        <ele>553.40002441406</ele>
        <time>2019-06-02T13:53:07Z</time>
      </trkpt>
      <trkpt lat="43.4809" lon="2.34861">
        <ele>553.20001220703</ele>
        <time>2019-06-02T13:53:08Z</time>
      </trkpt>
      <trkpt lat="43.4809" lon="2.34866">
        <ele>552.79998779297</ele>
        <time>2019-06-02T13:53:11Z</time>
      </trkpt>
      <trkpt lat="43.48091" lon="2.34869">
        <ele>552.40002441406</ele>
        <time>2019-06-02T13:53:13Z</time>
      </trkpt>
      <trkpt lat="43.48092" lon="2.3487">
        <ele>552</ele>
        <time>2019-06-02T13:53:14Z</time>
      </trkpt>
      <trkpt lat="43.48093" lon="2.34872">
        <ele>551.79998779297</ele>
        <time>2019-06-02T13:53:15Z</time>
      </trkpt>
      <trkpt lat="43.48094" lon="2.34879">
        <ele>551</ele>
        <time>2019-06-02T13:53:19Z</time>
      </trkpt>
      <trkpt lat="43.48094" lon="2.3488">
        <ele>550.79998779297</ele>
        <time>2019-06-02T13:53:20Z</time>
      </trkpt>
      <trkpt lat="43.48094" lon="2.34883">
        <ele>550.59997558594</ele>
        <time>2019-06-02T13:53:22Z</time>
      </trkpt>
      <trkpt lat="43.48095" lon="2.34888">
        <ele>549.79998779297</ele>
        <time>2019-06-02T13:53:26Z</time>
      </trkpt>
      <trkpt lat="43.48097" lon="2.34892">
        <ele>549.40002441406</ele>
        <time>2019-06-02T13:53:31Z</time>
      </trkpt>
      <trkpt lat="43.48102" lon="2.34894">
        <ele>549</ele>
        <time>2019-06-02T13:53:33Z</time>
      </trkpt>
      <trkpt lat="43.48106" lon="2.34894">
        <ele>548.59997558594</ele>
        <time>2019-06-02T13:53:34Z</time>
      </trkpt>
      <trkpt lat="43.48114" lon="2.34899">
        <ele>547.79998779297</ele>
        <time>2019-06-02T13:53:38Z</time>
      </trkpt>
      <trkpt lat="43.48117" lon="2.349">
        <ele>547.59997558594</ele>
        <time>2019-06-02T13:53:41Z</time>
      </trkpt>
      <trkpt lat="43.48118" lon="2.34901">
        <ele>547</ele>
        <time>2019-06-02T13:53:45Z</time>
      </trkpt>
      <trkpt lat="43.48121" lon="2.34901">
        <ele>546.59997558594</ele>
        <time>2019-06-02T13:53:50Z</time>
      </trkpt>
      <trkpt lat="43.48122" lon="2.34901">
        <ele>546</ele>
        <time>2019-06-02T13:53:52Z</time>
      </trkpt>
      <trkpt lat="43.48125" lon="2.349">
        <ele>545.40002441406</ele>
        <time>2019-06-02T13:53:55Z</time>
      </trkpt>
      <trkpt lat="43.48135" lon="2.349">
        <ele>545</ele>
        <time>2019-06-02T13:54:00Z</time>
      </trkpt>
      <trkpt lat="43.48142" lon="2.349">
        <ele>544.20001220703</ele>
        <time>2019-06-02T13:54:06Z</time>
      </trkpt>
      <trkpt lat="43.48146" lon="2.34898">
        <ele>543.40002441406</ele>
        <time>2019-06-02T13:54:10Z</time>
      </trkpt>
      <trkpt lat="43.48152" lon="2.34894">
        <ele>543.59997558594</ele>
        <time>2019-06-02T13:54:17Z</time>
      </trkpt>
      <trkpt lat="43.48153" lon="2.34892">
        <ele>543</ele>
        <time>2019-06-02T13:54:19Z</time>
      </trkpt>
      <trkpt lat="43.48156" lon="2.3489">
        <ele>542.20001220703</ele>
        <time>2019-06-02T13:54:23Z</time>
      </trkpt>
      <trkpt lat="43.48161" lon="2.3489">
        <ele>541.79998779297</ele>
        <time>2019-06-02T13:54:27Z</time>
      </trkpt>
      <trkpt lat="43.48165" lon="2.3489">
        <ele>541.79998779297</ele>
        <time>2019-06-02T13:54:31Z</time>
      </trkpt>
      <trkpt lat="43.48177" lon="2.34891">
        <ele>540.79998779297</ele>
        <time>2019-06-02T13:54:40Z</time>
      </trkpt>
      <trkpt lat="43.48182" lon="2.34893">
        <ele>540</ele>
        <time>2019-06-02T13:54:46Z</time>
      </trkpt>
      <trkpt lat="43.48185" lon="2.34894">
        <ele>539.79998779297</ele>
        <time>2019-06-02T13:54:51Z</time>
      </trkpt>
      <trkpt lat="43.48187" lon="2.34895">
        <ele>539.59997558594</ele>
        <time>2019-06-02T13:54:52Z</time>
      </trkpt>
      <trkpt lat="43.48189" lon="2.34896">
        <ele>539.40002441406</ele>
        <time>2019-06-02T13:54:53Z</time>
      </trkpt>
      <trkpt lat="43.48198" lon="2.34905">
        <ele>538.40002441406</ele>
        <time>2019-06-02T13:54:59Z</time>
      </trkpt>
      <trkpt lat="43.48199" lon="2.34905">
        <ele>538.40002441406</ele>
        <time>2019-06-02T13:55:00Z</time>
      </trkpt>
      <trkpt lat="43.48202" lon="2.34917">
        <ele>537.20001220703</ele>
        <time>2019-06-02T13:55:07Z</time>
      </trkpt>
      <trkpt lat="43.48202" lon="2.34918">
        <ele>537</ele>
        <time>2019-06-02T13:55:08Z</time>
      </trkpt>
      <trkpt lat="43.48203" lon="2.34922">
        <ele>536.79998779297</ele>
        <time>2019-06-02T13:55:10Z</time>
      </trkpt>
      <trkpt lat="43.48204" lon="2.34926">
        <ele>536.59997558594</ele>
        <time>2019-06-02T13:55:13Z</time>
      </trkpt>
      <trkpt lat="43.48205" lon="2.34927">
        <ele>536.59997558594</ele>
        <time>2019-06-02T13:55:14Z</time>
      </trkpt>
      <trkpt lat="43.48207" lon="2.3493">
        <ele>536.40002441406</ele>
        <time>2019-06-02T13:55:16Z</time>
      </trkpt>
      <trkpt lat="43.48208" lon="2.34933">
        <ele>536.20001220703</ele>
        <time>2019-06-02T13:55:18Z</time>
      </trkpt>
      <trkpt lat="43.48209" lon="2.34934">
        <ele>535.79998779297</ele>
        <time>2019-06-02T13:55:20Z</time>
      </trkpt>
      <trkpt lat="43.48209" lon="2.34935">
        <ele>535.79998779297</ele>
        <time>2019-06-02T13:55:21Z</time>
      </trkpt>
      <trkpt lat="43.48211" lon="2.3494">
        <ele>535.20001220703</ele>
        <time>2019-06-02T13:55:25Z</time>
      </trkpt>
      <trkpt lat="43.48212" lon="2.34941">
        <ele>535</ele>
        <time>2019-06-02T13:55:26Z</time>
      </trkpt>
      <trkpt lat="43.48215" lon="2.34946">
        <ele>534</ele>
        <time>2019-06-02T13:55:30Z</time>
      </trkpt>
      <trkpt lat="43.48216" lon="2.34949">
        <ele>533.59997558594</ele>
        <time>2019-06-02T13:55:33Z</time>
      </trkpt>
      <trkpt lat="43.48214" lon="2.34954">
        <ele>533.20001220703</ele>
        <time>2019-06-02T13:55:38Z</time>
      </trkpt>
      <trkpt lat="43.48214" lon="2.34955">
        <ele>533.20001220703</ele>
        <time>2019-06-02T13:55:39Z</time>
      </trkpt>
      <trkpt lat="43.48216" lon="2.34958">
        <ele>532.79998779297</ele>
        <time>2019-06-02T13:55:41Z</time>
      </trkpt>
      <trkpt lat="43.48216" lon="2.34967">
        <ele>531.59997558594</ele>
        <time>2019-06-02T13:55:48Z</time>
      </trkpt>
      <trkpt lat="43.48217" lon="2.3497">
        <ele>530.40002441406</ele>
        <time>2019-06-02T13:55:51Z</time>
      </trkpt>
      <trkpt lat="43.48216" lon="2.34975">
        <ele>530</ele>
        <time>2019-06-02T13:55:55Z</time>
      </trkpt>
      <trkpt lat="43.48217" lon="2.34981">
        <ele>529.40002441406</ele>
        <time>2019-06-02T13:56:00Z</time>
      </trkpt>
      <trkpt lat="43.48219" lon="2.34984">
        <ele>529</ele>
        <time>2019-06-02T13:56:03Z</time>
      </trkpt>
      <trkpt lat="43.48219" lon="2.34986">
        <ele>529</ele>
        <time>2019-06-02T13:56:04Z</time>
      </trkpt>
      <trkpt lat="43.48219" lon="2.34992">
        <ele>528.20001220703</ele>
        <time>2019-06-02T13:56:08Z</time>
      </trkpt>
      <trkpt lat="43.48218" lon="2.34993">
        <ele>528</ele>
        <time>2019-06-02T13:56:09Z</time>
      </trkpt>
      <trkpt lat="43.48217" lon="2.34993">
        <ele>528</ele>
        <time>2019-06-02T13:56:10Z</time>
      </trkpt>
      <trkpt lat="43.48219" lon="2.34997">
        <ele>528</ele>
        <time>2019-06-02T13:56:14Z</time>
      </trkpt>
      <trkpt lat="43.48223" lon="2.34994">
        <ele>527.79998779297</ele>
        <time>2019-06-02T13:56:17Z</time>
      </trkpt>
      <trkpt lat="43.48226" lon="2.3499">
        <ele>527.20001220703</ele>
        <time>2019-06-02T13:56:20Z</time>
      </trkpt>
      <trkpt lat="43.48227" lon="2.34988">
        <ele>527</ele>
        <time>2019-06-02T13:56:22Z</time>
      </trkpt>
      <trkpt lat="43.48234" lon="2.34982">
        <ele>525.79998779297</ele>
        <time>2019-06-02T13:56:26Z</time>
      </trkpt>
      <trkpt lat="43.48235" lon="2.34981">
        <ele>525.59997558594</ele>
        <time>2019-06-02T13:56:27Z</time>
      </trkpt>
      <trkpt lat="43.48241" lon="2.34973">
        <ele>524.79998779297</ele>
        <time>2019-06-02T13:56:34Z</time>
      </trkpt>
      <trkpt lat="43.48237" lon="2.34962">
        <ele>523.79998779297</ele>
        <time>2019-06-02T13:56:41Z</time>
      </trkpt>
      <trkpt lat="43.48236" lon="2.3496">
        <ele>523.79998779297</ele>
        <time>2019-06-02T13:56:42Z</time>
      </trkpt>
      <trkpt lat="43.48236" lon="2.34957">
        <ele>523.40002441406</ele>
        <time>2019-06-02T13:56:44Z</time>
      </trkpt>
      <trkpt lat="43.4824" lon="2.34949">
        <ele>523</ele>
        <time>2019-06-02T13:56:49Z</time>
      </trkpt>
      <trkpt lat="43.48243" lon="2.34944">
        <ele>522.59997558594</ele>
        <time>2019-06-02T13:56:52Z</time>
      </trkpt>
      <trkpt lat="43.48247" lon="2.34941">
        <ele>522.20001220703</ele>
        <time>2019-06-02T13:56:54Z</time>
      </trkpt>
      <trkpt lat="43.48248" lon="2.34939">
        <ele>522</ele>
        <time>2019-06-02T13:56:55Z</time>
      </trkpt>
      <trkpt lat="43.48248" lon="2.34935">
        <ele>522</ele>
        <time>2019-06-02T13:56:57Z</time>
      </trkpt>
      <trkpt lat="43.48248" lon="2.34928">
        <ele>521.59997558594</ele>
        <time>2019-06-02T13:57:01Z</time>
      </trkpt>
      <trkpt lat="43.48247" lon="2.34925">
        <ele>521</ele>
        <time>2019-06-02T13:57:04Z</time>
      </trkpt>
      <trkpt lat="43.48245" lon="2.3492">
        <ele>520.40002441406</ele>
        <time>2019-06-02T13:57:07Z</time>
      </trkpt>
      <trkpt lat="43.48244" lon="2.34916">
        <ele>520.20001220703</ele>
        <time>2019-06-02T13:57:10Z</time>
      </trkpt>
      <trkpt lat="43.48242" lon="2.34913">
        <ele>520</ele>
        <time>2019-06-02T13:57:13Z</time>
      </trkpt>
      <trkpt lat="43.4824" lon="2.34906">
        <ele>519.59997558594</ele>
        <time>2019-06-02T13:57:17Z</time>
      </trkpt>
      <trkpt lat="43.48239" lon="2.34904">
        <ele>519.40002441406</ele>
        <time>2019-06-02T13:57:18Z</time>
      </trkpt>
      <trkpt lat="43.48235" lon="2.34895">
        <ele>518.40002441406</ele>
        <time>2019-06-02T13:57:23Z</time>
      </trkpt>
      <trkpt lat="43.48233" lon="2.34893">
        <ele>518.40002441406</ele>
        <time>2019-06-02T13:57:24Z</time>
      </trkpt>
      <trkpt lat="43.48219" lon="2.34886">
        <ele>518.20001220703</ele>
        <time>2019-06-02T13:57:30Z</time>
      </trkpt>
      <trkpt lat="43.48218" lon="2.34885">
        <ele>518</ele>
        <time>2019-06-02T13:57:31Z</time>
      </trkpt>
      <trkpt lat="43.48216" lon="2.34883">
        <ele>517.79998779297</ele>
        <time>2019-06-02T13:57:32Z</time>
      </trkpt>
      <trkpt lat="43.48216" lon="2.34882">
        <ele>517.40002441406</ele>
        <time>2019-06-02T13:57:33Z</time>
      </trkpt>
      <trkpt lat="43.48214" lon="2.34875">
        <ele>516.59997558594</ele>
        <time>2019-06-02T13:57:37Z</time>
      </trkpt>
      <trkpt lat="43.48218" lon="2.34868">
        <ele>516.40002441406</ele>
        <time>2019-06-02T13:57:41Z</time>
      </trkpt>
      <trkpt lat="43.48218" lon="2.34864">
        <ele>515.40002441406</ele>
        <time>2019-06-02T13:57:44Z</time>
      </trkpt>
      <trkpt lat="43.48216" lon="2.34864">
        <ele>515.20001220703</ele>
        <time>2019-06-02T13:57:46Z</time>
      </trkpt>
      <trkpt lat="43.48212" lon="2.3486">
        <ele>515</ele>
        <time>2019-06-02T13:57:50Z</time>
      </trkpt>
      <trkpt lat="43.48211" lon="2.34851">
        <ele>514.20001220703</ele>
        <time>2019-06-02T13:57:55Z</time>
      </trkpt>
      <trkpt lat="43.48212" lon="2.3485">
        <ele>513.79998779297</ele>
        <time>2019-06-02T13:57:56Z</time>
      </trkpt>
      <trkpt lat="43.48208" lon="2.34845">
        <ele>513.20001220703</ele>
        <time>2019-06-02T13:58:01Z</time>
      </trkpt>
      <trkpt lat="43.48206" lon="2.34842">
        <ele>513</ele>
        <time>2019-06-02T13:58:03Z</time>
      </trkpt>
      <trkpt lat="43.48205" lon="2.34839">
        <ele>512.79998779297</ele>
        <time>2019-06-02T13:58:05Z</time>
      </trkpt>
      <trkpt lat="43.48205" lon="2.34838">
        <ele>512.59997558594</ele>
        <time>2019-06-02T13:58:06Z</time>
      </trkpt>
      <trkpt lat="43.48205" lon="2.34835">
        <ele>512.40002441406</ele>
        <time>2019-06-02T13:58:08Z</time>
      </trkpt>
      <trkpt lat="43.48201" lon="2.34832">
        <ele>512.59997558594</ele>
        <time>2019-06-02T13:58:11Z</time>
      </trkpt>
      <trkpt lat="43.48198" lon="2.34831">
        <ele>512.20001220703</ele>
        <time>2019-06-02T13:58:13Z</time>
      </trkpt>
      <trkpt lat="43.48197" lon="2.34831">
        <ele>512</ele>
        <time>2019-06-02T13:58:14Z</time>
      </trkpt>
      <trkpt lat="43.48194" lon="2.3483">
        <ele>511.39999389648</ele>
        <time>2019-06-02T13:58:16Z</time>
      </trkpt>
      <trkpt lat="43.48192" lon="2.3483">
        <ele>511.20001220703</ele>
        <time>2019-06-02T13:58:18Z</time>
      </trkpt>
      <trkpt lat="43.48189" lon="2.34827">
        <ele>511.20001220703</ele>
        <time>2019-06-02T13:58:22Z</time>
      </trkpt>
      <trkpt lat="43.48189" lon="2.34825">
        <ele>511</ele>
        <time>2019-06-02T13:58:24Z</time>
      </trkpt>
      <trkpt lat="43.48191" lon="2.34823">
        <ele>510.20001220703</ele>
        <time>2019-06-02T13:58:26Z</time>
      </trkpt>
      <trkpt lat="43.48191" lon="2.34822">
        <ele>509.79998779297</ele>
        <time>2019-06-02T13:58:27Z</time>
      </trkpt>
      <trkpt lat="43.48191" lon="2.34821">
        <ele>509.60000610352</ele>
        <time>2019-06-02T13:58:28Z</time>
      </trkpt>
      <trkpt lat="43.48192" lon="2.34816">
        <ele>509</ele>
        <time>2019-06-02T13:58:31Z</time>
      </trkpt>
      <trkpt lat="43.48193" lon="2.34815">
        <ele>508.79998779297</ele>
        <time>2019-06-02T13:58:33Z</time>
      </trkpt>
      <trkpt lat="43.48193" lon="2.34814">
        <ele>508.79998779297</ele>
        <time>2019-06-02T13:58:34Z</time>
      </trkpt>
      <trkpt lat="43.48198" lon="2.34813">
        <ele>507.79998779297</ele>
        <time>2019-06-02T13:58:38Z</time>
      </trkpt>
      <trkpt lat="43.48201" lon="2.34813">
        <ele>507.20001220703</ele>
        <time>2019-06-02T13:58:40Z</time>
      </trkpt>
      <trkpt lat="43.48202" lon="2.34813">
        <ele>507.20001220703</ele>
        <time>2019-06-02T13:58:41Z</time>
      </trkpt>
      <trkpt lat="43.48208" lon="2.34817">
        <ele>507</ele>
        <time>2019-06-02T13:58:45Z</time>
      </trkpt>
      <trkpt lat="43.4821" lon="2.34818">
        <ele>506.79998779297</ele>
        <time>2019-06-02T13:58:46Z</time>
      </trkpt>
      <trkpt lat="43.48208" lon="2.34819">
        <ele>506.60000610352</ele>
        <time>2019-06-02T13:58:47Z</time>
      </trkpt>
      <trkpt lat="43.48209" lon="2.34821">
        <ele>505.79998779297</ele>
        <time>2019-06-02T13:58:52Z</time>
      </trkpt>
      <trkpt lat="43.48211" lon="2.34822">
        <ele>505.60000610352</ele>
        <time>2019-06-02T13:58:53Z</time>
      </trkpt>
      <trkpt lat="43.48212" lon="2.34823">
        <ele>505.20001220703</ele>
        <time>2019-06-02T13:58:54Z</time>
      </trkpt>
      <trkpt lat="43.48213" lon="2.34825">
        <ele>504.20001220703</ele>
        <time>2019-06-02T13:58:57Z</time>
      </trkpt>
      <trkpt lat="43.48213" lon="2.34826">
        <ele>504</ele>
        <time>2019-06-02T13:58:58Z</time>
      </trkpt>
      <trkpt lat="43.48216" lon="2.3483">
        <ele>503.20001220703</ele>
        <time>2019-06-02T13:59:02Z</time>
      </trkpt>
      <trkpt lat="43.48217" lon="2.34831">
        <ele>503.20001220703</ele>
        <time>2019-06-02T13:59:03Z</time>
      </trkpt>
      <trkpt lat="43.48219" lon="2.34832">
        <ele>503</ele>
        <time>2019-06-02T13:59:04Z</time>
      </trkpt>
      <trkpt lat="43.48224" lon="2.34837">
        <ele>502</ele>
        <time>2019-06-02T13:59:08Z</time>
      </trkpt>
      <trkpt lat="43.48228" lon="2.34839">
        <ele>501.60000610352</ele>
        <time>2019-06-02T13:59:11Z</time>
      </trkpt>
      <trkpt lat="43.48236" lon="2.34842">
        <ele>500.79998779297</ele>
        <time>2019-06-02T13:59:18Z</time>
      </trkpt>
      <trkpt lat="43.48242" lon="2.34847">
        <ele>499.79998779297</ele>
        <time>2019-06-02T13:59:23Z</time>
      </trkpt>
      <trkpt lat="43.48243" lon="2.34849">
        <ele>499.39999389648</ele>
        <time>2019-06-02T13:59:25Z</time>
      </trkpt>
      <trkpt lat="43.48249" lon="2.34855">
        <ele>499</ele>
        <time>2019-06-02T13:59:31Z</time>
      </trkpt>
      <trkpt lat="43.4825" lon="2.34856">
        <ele>499</ele>
        <time>2019-06-02T13:59:32Z</time>
      </trkpt>
      <trkpt lat="43.48252" lon="2.34858">
        <ele>498.60000610352</ele>
        <time>2019-06-02T13:59:35Z</time>
      </trkpt>
      <trkpt lat="43.48254" lon="2.34861">
        <ele>497.79998779297</ele>
        <time>2019-06-02T13:59:39Z</time>
      </trkpt>
      <trkpt lat="43.48255" lon="2.34862">
        <ele>497.60000610352</ele>
        <time>2019-06-02T13:59:40Z</time>
      </trkpt>
      <trkpt lat="43.48255" lon="2.34868">
        <ele>496.79998779297</ele>
        <time>2019-06-02T13:59:46Z</time>
      </trkpt>
      <trkpt lat="43.48256" lon="2.34871">
        <ele>496.79998779297</ele>
        <time>2019-06-02T13:59:49Z</time>
      </trkpt>
      <trkpt lat="43.4826" lon="2.34873">
        <ele>496.39999389648</ele>
        <time>2019-06-02T13:59:51Z</time>
      </trkpt>
      <trkpt lat="43.48261" lon="2.34874">
        <ele>496.20001220703</ele>
        <time>2019-06-02T13:59:52Z</time>
      </trkpt>
      <trkpt lat="43.48263" lon="2.34876">
        <ele>495.39999389648</ele>
        <time>2019-06-02T13:59:54Z</time>
      </trkpt>
      <trkpt lat="43.48266" lon="2.3488">
        <ele>494.79998779297</ele>
        <time>2019-06-02T13:59:59Z</time>
      </trkpt>
      <trkpt lat="43.48267" lon="2.34884">
        <ele>494.60000610352</ele>
        <time>2019-06-02T14:00:03Z</time>
      </trkpt>
      <trkpt lat="43.48268" lon="2.34886">
        <ele>494.20001220703</ele>
        <time>2019-06-02T14:00:05Z</time>
      </trkpt>
      <trkpt lat="43.48268" lon="2.34887">
        <ele>494</ele>
        <time>2019-06-02T14:00:06Z</time>
      </trkpt>
      <trkpt lat="43.48273" lon="2.34892">
        <ele>493.39999389648</ele>
        <time>2019-06-02T14:00:12Z</time>
      </trkpt>
      <trkpt lat="43.48276" lon="2.34893">
        <ele>493</ele>
        <time>2019-06-02T14:00:14Z</time>
      </trkpt>
      <trkpt lat="43.48279" lon="2.34896">
        <ele>492.60000610352</ele>
        <time>2019-06-02T14:00:17Z</time>
      </trkpt>
      <trkpt lat="43.4828" lon="2.34897">
        <ele>492.60000610352</ele>
        <time>2019-06-02T14:00:19Z</time>
      </trkpt>
      <trkpt lat="43.4828" lon="2.34898">
        <ele>492.39999389648</ele>
        <time>2019-06-02T14:00:20Z</time>
      </trkpt>
      <trkpt lat="43.4828" lon="2.34899">
        <ele>492.39999389648</ele>
        <time>2019-06-02T14:00:22Z</time>
      </trkpt>
      <trkpt lat="43.48281" lon="2.34901">
        <ele>491.79998779297</ele>
        <time>2019-06-02T14:00:25Z</time>
      </trkpt>
      <trkpt lat="43.48285" lon="2.34905">
        <ele>490.79998779297</ele>
        <time>2019-06-02T14:00:31Z</time>
      </trkpt>
      <trkpt lat="43.48287" lon="2.34905">
        <ele>490.60000610352</ele>
        <time>2019-06-02T14:00:32Z</time>
      </trkpt>
      <trkpt lat="43.48295" lon="2.34911">
        <ele>490.20001220703</ele>
        <time>2019-06-02T14:00:38Z</time>
      </trkpt>
      <trkpt lat="43.48296" lon="2.34912">
        <ele>489.39999389648</ele>
        <time>2019-06-02T14:00:41Z</time>
      </trkpt>
      <trkpt lat="43.48298" lon="2.34916">
        <ele>489</ele>
        <time>2019-06-02T14:00:44Z</time>
      </trkpt>
      <trkpt lat="43.48303" lon="2.34921">
        <ele>489</ele>
        <time>2019-06-02T14:00:47Z</time>
      </trkpt>
      <trkpt lat="43.48307" lon="2.34926">
        <ele>488.39999389648</ele>
        <time>2019-06-02T14:00:50Z</time>
      </trkpt>
      <trkpt lat="43.48308" lon="2.34935">
        <ele>487.39999389648</ele>
        <time>2019-06-02T14:00:56Z</time>
      </trkpt>
      <trkpt lat="43.4831" lon="2.34939">
        <ele>487</ele>
        <time>2019-06-02T14:00:59Z</time>
      </trkpt>
      <trkpt lat="43.48311" lon="2.34941">
        <ele>486.60000610352</ele>
        <time>2019-06-02T14:01:01Z</time>
      </trkpt>
      <trkpt lat="43.48311" lon="2.34944">
        <ele>486.20001220703</ele>
        <time>2019-06-02T14:01:03Z</time>
      </trkpt>
      <trkpt lat="43.48312" lon="2.34947">
        <ele>485.60000610352</ele>
        <time>2019-06-02T14:01:07Z</time>
      </trkpt>
      <trkpt lat="43.48312" lon="2.34949">
        <ele>485.20001220703</ele>
        <time>2019-06-02T14:01:10Z</time>
      </trkpt>
      <trkpt lat="43.4831" lon="2.34951">
        <ele>484.79998779297</ele>
        <time>2019-06-02T14:01:14Z</time>
      </trkpt>
      <trkpt lat="43.48308" lon="2.34954">
        <ele>484.60000610352</ele>
        <time>2019-06-02T14:01:20Z</time>
      </trkpt>
      <trkpt lat="43.48312" lon="2.34955">
        <ele>484</ele>
        <time>2019-06-02T14:01:25Z</time>
      </trkpt>
      <trkpt lat="43.48314" lon="2.34955">
        <ele>483.79998779297</ele>
        <time>2019-06-02T14:01:27Z</time>
      </trkpt>
      <trkpt lat="43.48315" lon="2.34954">
        <ele>483.60000610352</ele>
        <time>2019-06-02T14:01:35Z</time>
      </trkpt>
      <trkpt lat="43.48309" lon="2.34955">
        <ele>483.60000610352</ele>
        <time>2019-06-02T14:01:37Z</time>
      </trkpt>
      <trkpt lat="43.48309" lon="2.34955">
        <ele>483.39999389648</ele>
        <time>2019-06-02T14:01:43Z</time>
      </trkpt>
      <trkpt lat="43.48316" lon="2.34954">
        <ele>483.60000610352</ele>
        <time>2019-06-02T14:01:53Z</time>
      </trkpt>
      <trkpt lat="43.48318" lon="2.34954">
        <ele>483.39999389648</ele>
        <time>2019-06-02T14:02:00Z</time>
      </trkpt>
      <trkpt lat="43.48312" lon="2.34952">
        <ele>483.20001220703</ele>
        <time>2019-06-02T14:02:08Z</time>
      </trkpt>
      <trkpt lat="43.48312" lon="2.34952">
        <ele>483</ele>
        <time>2019-06-02T14:02:10Z</time>
      </trkpt>
      <trkpt lat="43.48313" lon="2.34953">
        <ele>483.20001220703</ele>
        <time>2019-06-02T14:02:16Z</time>
      </trkpt>
      <trkpt lat="43.48315" lon="2.34954">
        <ele>483.39999389648</ele>
        <time>2019-06-02T14:02:23Z</time>
      </trkpt>
      <trkpt lat="43.48313" lon="2.34954">
        <ele>483.39999389648</ele>
        <time>2019-06-02T14:02:31Z</time>
      </trkpt>
      <trkpt lat="43.4831" lon="2.34955">
        <ele>483.39999389648</ele>
        <time>2019-06-02T14:02:36Z</time>
      </trkpt>
      <trkpt lat="43.48308" lon="2.34955">
        <ele>483.39999389648</ele>
        <time>2019-06-02T14:02:39Z</time>
      </trkpt>
      <trkpt lat="43.48308" lon="2.34957">
        <ele>483.39999389648</ele>
        <time>2019-06-02T14:02:46Z</time>
      </trkpt>
      <trkpt lat="43.48308" lon="2.34957">
        <ele>483.39999389648</ele>
        <time>2019-06-02T14:02:47Z</time>
      </trkpt>
      <trkpt lat="43.48313" lon="2.3496">
        <ele>483.20001220703</ele>
        <time>2019-06-02T14:02:53Z</time>
      </trkpt>
      <trkpt lat="43.48312" lon="2.34961">
        <ele>483.39999389648</ele>
        <time>2019-06-02T14:02:57Z</time>
      </trkpt>
      <trkpt lat="43.48306" lon="2.34972">
        <ele>483.20001220703</ele>
        <time>2019-06-02T14:03:01Z</time>
      </trkpt>
      <trkpt lat="43.48307" lon="2.34972">
        <ele>483</ele>
        <time>2019-06-02T14:03:05Z</time>
      </trkpt>
      <trkpt lat="43.48309" lon="2.34976">
        <ele>483</ele>
        <time>2019-06-02T14:03:08Z</time>
      </trkpt>
      <trkpt lat="43.48312" lon="2.34973">
        <ele>483.39999389648</ele>
        <time>2019-06-02T14:03:16Z</time>
      </trkpt>
      <trkpt lat="43.48312" lon="2.34965">
        <ele>483.39999389648</ele>
        <time>2019-06-02T14:03:23Z</time>
      </trkpt>
      <trkpt lat="43.48312" lon="2.34964">
        <ele>483.39999389648</ele>
        <time>2019-06-02T14:03:24Z</time>
      </trkpt>
      <trkpt lat="43.48313" lon="2.34964">
        <ele>483.39999389648</ele>
        <time>2019-06-02T14:03:28Z</time>
      </trkpt>
      <trkpt lat="43.48311" lon="2.34964">
        <ele>483.20001220703</ele>
        <time>2019-06-02T14:03:33Z</time>
      </trkpt>
      <trkpt lat="43.4831" lon="2.34959">
        <ele>483</ele>
        <time>2019-06-02T14:03:40Z</time>
      </trkpt>
      <trkpt lat="43.48312" lon="2.34958">
        <ele>483.39999389648</ele>
        <time>2019-06-02T14:03:43Z</time>
      </trkpt>
      <trkpt lat="43.48311" lon="2.34958">
        <ele>483.39999389648</ele>
        <time>2019-06-02T14:03:47Z</time>
      </trkpt>
      <trkpt lat="43.48309" lon="2.34958">
        <ele>482.60000610352</ele>
        <time>2019-06-02T14:03:55Z</time>
      </trkpt>
      <trkpt lat="43.4831" lon="2.34958">
        <ele>482.39999389648</ele>
        <time>2019-06-02T14:04:00Z</time>
      </trkpt>
      <trkpt lat="43.4831" lon="2.34958">
        <ele>482.39999389648</ele>
        <time>2019-06-02T14:04:03Z</time>
      </trkpt>
      <trkpt lat="43.48316" lon="2.34958">
        <ele>482.60000610352</ele>
        <time>2019-06-02T14:04:11Z</time>
      </trkpt>
      <trkpt lat="43.48321" lon="2.34956">
        <ele>482.60000610352</ele>
        <time>2019-06-02T14:04:21Z</time>
      </trkpt>
      <trkpt lat="43.4832" lon="2.34958">
        <ele>482</ele>
        <time>2019-06-02T14:04:29Z</time>
      </trkpt>
      <trkpt lat="43.48319" lon="2.34958">
        <ele>482.60000610352</ele>
        <time>2019-06-02T14:04:33Z</time>
      </trkpt>
      <trkpt lat="43.48319" lon="2.34959">
        <ele>483</ele>
        <time>2019-06-02T14:04:37Z</time>
      </trkpt>
      <trkpt lat="43.48317" lon="2.34959">
        <ele>482.20001220703</ele>
        <time>2019-06-02T14:04:46Z</time>
      </trkpt>
      <trkpt lat="43.48318" lon="2.3496">
        <ele>482</ele>
        <time>2019-06-02T14:04:49Z</time>
      </trkpt>
      <trkpt lat="43.48317" lon="2.34961">
        <ele>481.79998779297</ele>
        <time>2019-06-02T14:04:54Z</time>
      </trkpt>
      <trkpt lat="43.48316" lon="2.34961">
        <ele>481.79998779297</ele>
        <time>2019-06-02T14:04:55Z</time>
      </trkpt>
      <trkpt lat="43.48317" lon="2.34957">
        <ele>482</ele>
        <time>2019-06-02T14:05:01Z</time>
      </trkpt>
      <trkpt lat="43.48315" lon="2.34953">
        <ele>482.20001220703</ele>
        <time>2019-06-02T14:05:08Z</time>
      </trkpt>
      <trkpt lat="43.48315" lon="2.34953">
        <ele>482</ele>
        <time>2019-06-02T14:05:10Z</time>
      </trkpt>
      <trkpt lat="43.48313" lon="2.34955">
        <ele>477</ele>
        <time>2019-06-02T14:05:18Z</time>
      </trkpt>
      <trkpt lat="43.48312" lon="2.34956">
        <ele>479.39999389648</ele>
        <time>2019-06-02T14:05:19Z</time>
      </trkpt>
      <trkpt lat="43.48312" lon="2.34956">
        <ele>480.39999389648</ele>
        <time>2019-06-02T14:05:20Z</time>
      </trkpt>
      <trkpt lat="43.48309" lon="2.34959">
        <ele>481.60000610352</ele>
        <time>2019-06-02T14:05:24Z</time>
      </trkpt>
      <trkpt lat="43.48307" lon="2.34958">
        <ele>481.60000610352</ele>
        <time>2019-06-02T14:05:26Z</time>
      </trkpt>
      <trkpt lat="43.48303" lon="2.34957">
        <ele>481.60000610352</ele>
        <time>2019-06-02T14:05:33Z</time>
      </trkpt>
      <trkpt lat="43.48299" lon="2.34959">
        <ele>481.60000610352</ele>
        <time>2019-06-02T14:05:41Z</time>
      </trkpt>
      <trkpt lat="43.48298" lon="2.34959">
        <ele>481.60000610352</ele>
        <time>2019-06-02T14:05:42Z</time>
      </trkpt>
      <trkpt lat="43.48299" lon="2.34957">
        <ele>481.60000610352</ele>
        <time>2019-06-02T14:05:49Z</time>
      </trkpt>
      <trkpt lat="43.48298" lon="2.34956">
        <ele>481.60000610352</ele>
        <time>2019-06-02T14:05:59Z</time>
      </trkpt>
      <trkpt lat="43.48305" lon="2.34953">
        <ele>481.60000610352</ele>
        <time>2019-06-02T14:06:09Z</time>
      </trkpt>
      <trkpt lat="43.48307" lon="2.34958">
        <ele>481.60000610352</ele>
        <time>2019-06-02T14:06:17Z</time>
      </trkpt>
      <trkpt lat="43.48307" lon="2.34963">
        <ele>481.60000610352</ele>
        <time>2019-06-02T14:06:26Z</time>
      </trkpt>
      <trkpt lat="43.4831" lon="2.34962">
        <ele>481.60000610352</ele>
        <time>2019-06-02T14:06:34Z</time>
      </trkpt>
      <trkpt lat="43.48311" lon="2.34963">
        <ele>481.60000610352</ele>
        <time>2019-06-02T14:06:38Z</time>
      </trkpt>
      <trkpt lat="43.4831" lon="2.34963">
        <ele>481.60000610352</ele>
        <time>2019-06-02T14:06:40Z</time>
      </trkpt>
      <trkpt lat="43.4831" lon="2.34963">
        <ele>481.60000610352</ele>
        <time>2019-06-02T14:06:41Z</time>
      </trkpt>
      <trkpt lat="43.48309" lon="2.34962">
        <ele>481.60000610352</ele>
        <time>2019-06-02T14:06:48Z</time>
      </trkpt>
      <trkpt lat="43.4831" lon="2.34963">
        <ele>481.60000610352</ele>
        <time>2019-06-02T14:06:50Z</time>
      </trkpt>
      <trkpt lat="43.48306" lon="2.3496">
        <ele>481.60000610352</ele>
        <time>2019-06-02T14:06:58Z</time>
      </trkpt>
      <trkpt lat="43.48303" lon="2.34962">
        <ele>481.60000610352</ele>
        <time>2019-06-02T14:07:05Z</time>
      </trkpt>
      <trkpt lat="43.48304" lon="2.34963">
        <ele>481.60000610352</ele>
        <time>2019-06-02T14:07:07Z</time>
      </trkpt>
      <trkpt lat="43.48305" lon="2.34965">
        <ele>481.60000610352</ele>
        <time>2019-06-02T14:07:13Z</time>
      </trkpt>
      <trkpt lat="43.48307" lon="2.34961">
        <ele>481.60000610352</ele>
        <time>2019-06-02T14:07:20Z</time>
      </trkpt>
      <trkpt lat="43.48306" lon="2.34958">
        <ele>481.60000610352</ele>
        <time>2019-06-02T14:07:28Z</time>
      </trkpt>
      <trkpt lat="43.48306" lon="2.3496">
        <ele>481.60000610352</ele>
        <time>2019-06-02T14:07:36Z</time>
      </trkpt>
      <trkpt lat="43.48306" lon="2.3496">
        <ele>481.60000610352</ele>
        <time>2019-06-02T14:07:37Z</time>
      </trkpt>
      <trkpt lat="43.48308" lon="2.34962">
        <ele>481.60000610352</ele>
        <time>2019-06-02T14:07:46Z</time>
      </trkpt>
      <trkpt lat="43.48307" lon="2.34962">
        <ele>481.60000610352</ele>
        <time>2019-06-02T14:07:52Z</time>
      </trkpt>
      <trkpt lat="43.48307" lon="2.34962">
        <ele>481.60000610352</ele>
        <time>2019-06-02T14:07:53Z</time>
      </trkpt>
      <trkpt lat="43.48307" lon="2.34962">
        <ele>481.60000610352</ele>
        <time>2019-06-02T14:07:55Z</time>
      </trkpt>
      <trkpt lat="43.48308" lon="2.34961">
        <ele>481.60000610352</ele>
        <time>2019-06-02T14:07:58Z</time>
      </trkpt>
      <trkpt lat="43.48316" lon="2.34961">
        <ele>481.60000610352</ele>
        <time>2019-06-02T14:08:06Z</time>
      </trkpt>
      <trkpt lat="43.48319" lon="2.34961">
        <ele>481.60000610352</ele>
        <time>2019-06-02T14:08:14Z</time>
      </trkpt>
      <trkpt lat="43.48316" lon="2.34959">
        <ele>481.60000610352</ele>
        <time>2019-06-02T14:08:21Z</time>
      </trkpt>
      <trkpt lat="43.48314" lon="2.34959">
        <ele>481.60000610352</ele>
        <time>2019-06-02T14:08:28Z</time>
      </trkpt>
      <trkpt lat="43.48313" lon="2.3496">
        <ele>481.60000610352</ele>
        <time>2019-06-02T14:08:30Z</time>
      </trkpt>
      <trkpt lat="43.48312" lon="2.34962">
        <ele>481.60000610352</ele>
        <time>2019-06-02T14:08:37Z</time>
      </trkpt>
      <trkpt lat="43.48311" lon="2.34963">
        <ele>481.60000610352</ele>
        <time>2019-06-02T14:08:38Z</time>
      </trkpt>
      <trkpt lat="43.48311" lon="2.34964">
        <ele>481.60000610352</ele>
        <time>2019-06-02T14:08:49Z</time>
      </trkpt>
      <trkpt lat="43.48311" lon="2.34963">
        <ele>481.60000610352</ele>
        <time>2019-06-02T14:08:57Z</time>
      </trkpt>
      <trkpt lat="43.48308" lon="2.3496">
        <ele>481.60000610352</ele>
        <time>2019-06-02T14:09:05Z</time>
      </trkpt>
      <trkpt lat="43.48307" lon="2.3496">
        <ele>481.60000610352</ele>
        <time>2019-06-02T14:09:09Z</time>
      </trkpt>
      <trkpt lat="43.48307" lon="2.34957">
        <ele>481.60000610352</ele>
        <time>2019-06-02T14:09:15Z</time>
      </trkpt>
      <trkpt lat="43.48307" lon="2.34957">
        <ele>481.60000610352</ele>
        <time>2019-06-02T14:09:20Z</time>
      </trkpt>
      <trkpt lat="43.48304" lon="2.34954">
        <ele>481.60000610352</ele>
        <time>2019-06-02T14:09:23Z</time>
      </trkpt>
      <trkpt lat="43.48306" lon="2.34954">
        <ele>481.60000610352</ele>
        <time>2019-06-02T14:09:27Z</time>
      </trkpt>
      <trkpt lat="43.48306" lon="2.34955">
        <ele>481.60000610352</ele>
        <time>2019-06-02T14:09:30Z</time>
      </trkpt>
      <trkpt lat="43.48312" lon="2.34956">
        <ele>481.60000610352</ele>
        <time>2019-06-02T14:09:36Z</time>
      </trkpt>
      <trkpt lat="43.48307" lon="2.34953">
        <ele>481.60000610352</ele>
        <time>2019-06-02T14:09:42Z</time>
      </trkpt>
      <trkpt lat="43.48305" lon="2.34952">
        <ele>483.20001220703</ele>
        <time>2019-06-02T14:09:46Z</time>
      </trkpt>
      <trkpt lat="43.48303" lon="2.34951">
        <ele>484</ele>
        <time>2019-06-02T14:09:48Z</time>
      </trkpt>
      <trkpt lat="43.483" lon="2.34948">
        <ele>484.39999389648</ele>
        <time>2019-06-02T14:09:51Z</time>
      </trkpt>
      <trkpt lat="43.48299" lon="2.3495">
        <ele>484.60000610352</ele>
        <time>2019-06-02T14:09:56Z</time>
      </trkpt>
      <trkpt lat="43.48298" lon="2.34951">
        <ele>484.79998779297</ele>
        <time>2019-06-02T14:10:03Z</time>
      </trkpt>
      <trkpt lat="43.48298" lon="2.34951">
        <ele>484.79998779297</ele>
        <time>2019-06-02T14:10:04Z</time>
      </trkpt>
      <trkpt lat="43.48297" lon="2.34952">
        <ele>484.79998779297</ele>
        <time>2019-06-02T14:10:05Z</time>
      </trkpt>
      <trkpt lat="43.48297" lon="2.34953">
        <ele>484.60000610352</ele>
        <time>2019-06-02T14:10:14Z</time>
      </trkpt>
      <trkpt lat="43.483" lon="2.34955">
        <ele>485</ele>
        <time>2019-06-02T14:10:22Z</time>
      </trkpt>
      <trkpt lat="43.48302" lon="2.34955">
        <ele>485</ele>
        <time>2019-06-02T14:10:29Z</time>
      </trkpt>
      <trkpt lat="43.48302" lon="2.34955">
        <ele>484.79998779297</ele>
        <time>2019-06-02T14:10:31Z</time>
      </trkpt>
      <trkpt lat="43.48298" lon="2.34958">
        <ele>485</ele>
        <time>2019-06-02T14:10:38Z</time>
      </trkpt>
      <trkpt lat="43.48293" lon="2.34956">
        <ele>484.79998779297</ele>
        <time>2019-06-02T14:10:41Z</time>
      </trkpt>
      <trkpt lat="43.48292" lon="2.34953">
        <ele>484.79998779297</ele>
        <time>2019-06-02T14:10:47Z</time>
      </trkpt>
      <trkpt lat="43.4829" lon="2.34951">
        <ele>484.79998779297</ele>
        <time>2019-06-02T14:10:49Z</time>
      </trkpt>
      <trkpt lat="43.48298" lon="2.34952">
        <ele>484.60000610352</ele>
        <time>2019-06-02T14:10:57Z</time>
      </trkpt>
      <trkpt lat="43.48298" lon="2.34952">
        <ele>484.60000610352</ele>
        <time>2019-06-02T14:11:01Z</time>
      </trkpt>
      <trkpt lat="43.48295" lon="2.3495">
        <ele>484.60000610352</ele>
        <time>2019-06-02T14:11:05Z</time>
      </trkpt>
      <trkpt lat="43.48294" lon="2.34955">
        <ele>484.60000610352</ele>
        <time>2019-06-02T14:11:09Z</time>
      </trkpt>
      <trkpt lat="43.48293" lon="2.34955">
        <ele>484.60000610352</ele>
        <time>2019-06-02T14:11:12Z</time>
      </trkpt>
      <trkpt lat="43.48309" lon="2.34956">
        <ele>484.60000610352</ele>
        <time>2019-06-02T14:11:21Z</time>
      </trkpt>
      <trkpt lat="43.48316" lon="2.34956">
        <ele>484.60000610352</ele>
        <time>2019-06-02T14:11:28Z</time>
      </trkpt>
      <trkpt lat="43.48318" lon="2.34956">
        <ele>484.60000610352</ele>
        <time>2019-06-02T14:11:31Z</time>
      </trkpt>
      <trkpt lat="43.4832" lon="2.34955">
        <ele>484.60000610352</ele>
        <time>2019-06-02T14:11:35Z</time>
      </trkpt>
      <trkpt lat="43.48321" lon="2.34954">
        <ele>484.60000610352</ele>
        <time>2019-06-02T14:11:37Z</time>
      </trkpt>
      <trkpt lat="43.48317" lon="2.34951">
        <ele>484.60000610352</ele>
        <time>2019-06-02T14:11:42Z</time>
      </trkpt>
      <trkpt lat="43.48315" lon="2.34949">
        <ele>484.60000610352</ele>
        <time>2019-06-02T14:11:45Z</time>
      </trkpt>
      <trkpt lat="43.48312" lon="2.34949">
        <ele>484.60000610352</ele>
        <time>2019-06-02T14:11:48Z</time>
      </trkpt>
      <trkpt lat="43.48314" lon="2.34945">
        <ele>484.60000610352</ele>
        <time>2019-06-02T14:11:56Z</time>
      </trkpt>
      <trkpt lat="43.48313" lon="2.34947">
        <ele>484.60000610352</ele>
        <time>2019-06-02T14:12:03Z</time>
      </trkpt>
      <trkpt lat="43.4831" lon="2.34948">
        <ele>484.60000610352</ele>
        <time>2019-06-02T14:12:11Z</time>
      </trkpt>
      <trkpt lat="43.48304" lon="2.34952">
        <ele>484.60000610352</ele>
        <time>2019-06-02T14:12:17Z</time>
      </trkpt>
      <trkpt lat="43.48304" lon="2.34953">
        <ele>484.60000610352</ele>
        <time>2019-06-02T14:12:20Z</time>
      </trkpt>
      <trkpt lat="43.48303" lon="2.34953">
        <ele>484.60000610352</ele>
        <time>2019-06-02T14:12:28Z</time>
      </trkpt>
      <trkpt lat="43.48304" lon="2.34949">
        <ele>484.60000610352</ele>
        <time>2019-06-02T14:12:34Z</time>
      </trkpt>
      <trkpt lat="43.48306" lon="2.34949">
        <ele>484.60000610352</ele>
        <time>2019-06-02T14:12:37Z</time>
      </trkpt>
      <trkpt lat="43.48308" lon="2.34944">
        <ele>484.60000610352</ele>
        <time>2019-06-02T14:12:44Z</time>
      </trkpt>
      <trkpt lat="43.48307" lon="2.34943">
        <ele>484.60000610352</ele>
        <time>2019-06-02T14:12:45Z</time>
      </trkpt>
      <trkpt lat="43.48306" lon="2.34939">
        <ele>484.60000610352</ele>
        <time>2019-06-02T14:12:47Z</time>
      </trkpt>
      <trkpt lat="43.48305" lon="2.34933">
        <ele>484.60000610352</ele>
        <time>2019-06-02T14:12:52Z</time>
      </trkpt>
      <trkpt lat="43.48303" lon="2.34931">
        <ele>484.60000610352</ele>
        <time>2019-06-02T14:12:53Z</time>
      </trkpt>
      <trkpt lat="43.483" lon="2.34925">
        <ele>482.79998779297</ele>
        <time>2019-06-02T14:12:57Z</time>
      </trkpt>
      <trkpt lat="43.48299" lon="2.34924">
        <ele>481.39999389648</ele>
        <time>2019-06-02T14:12:58Z</time>
      </trkpt>
      <trkpt lat="43.48298" lon="2.34922">
        <ele>480.20001220703</ele>
        <time>2019-06-02T14:13:00Z</time>
      </trkpt>
      <trkpt lat="43.48296" lon="2.3492">
        <ele>479.39999389648</ele>
        <time>2019-06-02T14:13:04Z</time>
      </trkpt>
      <trkpt lat="43.48297" lon="2.3492">
        <ele>479.20001220703</ele>
        <time>2019-06-02T14:13:06Z</time>
      </trkpt>
      <trkpt lat="43.48298" lon="2.34919">
        <ele>479.39999389648</ele>
        <time>2019-06-02T14:13:09Z</time>
      </trkpt>
      <trkpt lat="43.48298" lon="2.34919">
        <ele>479.39999389648</ele>
        <time>2019-06-02T14:13:10Z</time>
      </trkpt>
      <trkpt lat="43.48299" lon="2.34918">
        <ele>479.39999389648</ele>
        <time>2019-06-02T14:13:13Z</time>
      </trkpt>
      <trkpt lat="43.48297" lon="2.34912">
        <ele>479.20001220703</ele>
        <time>2019-06-02T14:13:18Z</time>
      </trkpt>
      <trkpt lat="43.48297" lon="2.34912">
        <ele>479.20001220703</ele>
        <time>2019-06-02T14:13:19Z</time>
      </trkpt>
      <trkpt lat="43.48298" lon="2.34904">
        <ele>478.79998779297</ele>
        <time>2019-06-02T14:13:25Z</time>
      </trkpt>
      <trkpt lat="43.48298" lon="2.34903">
        <ele>478.60000610352</ele>
        <time>2019-06-02T14:13:26Z</time>
      </trkpt>
      <trkpt lat="43.48298" lon="2.34898">
        <ele>478</ele>
        <time>2019-06-02T14:13:32Z</time>
      </trkpt>
      <trkpt lat="43.48297" lon="2.34897">
        <ele>477.79998779297</ele>
        <time>2019-06-02T14:13:33Z</time>
      </trkpt>
      <trkpt lat="43.48296" lon="2.34892">
        <ele>477.39999389648</ele>
        <time>2019-06-02T14:13:38Z</time>
      </trkpt>
      <trkpt lat="43.48295" lon="2.34891">
        <ele>477</ele>
        <time>2019-06-02T14:13:40Z</time>
      </trkpt>
      <trkpt lat="43.48292" lon="2.34888">
        <ele>476.39999389648</ele>
        <time>2019-06-02T14:13:42Z</time>
      </trkpt>
      <trkpt lat="43.48291" lon="2.34886">
        <ele>476.20001220703</ele>
        <time>2019-06-02T14:13:44Z</time>
      </trkpt>
      <trkpt lat="43.4829" lon="2.34885">
        <ele>476.20001220703</ele>
        <time>2019-06-02T14:13:45Z</time>
      </trkpt>
      <trkpt lat="43.48286" lon="2.34879">
        <ele>476</ele>
        <time>2019-06-02T14:13:50Z</time>
      </trkpt>
      <trkpt lat="43.48284" lon="2.34878">
        <ele>475.79998779297</ele>
        <time>2019-06-02T14:13:51Z</time>
      </trkpt>
      <trkpt lat="43.4828" lon="2.34874">
        <ele>475</ele>
        <time>2019-06-02T14:13:56Z</time>
      </trkpt>
      <trkpt lat="43.48279" lon="2.34868">
        <ele>474.60000610352</ele>
        <time>2019-06-02T14:13:59Z</time>
      </trkpt>
      <trkpt lat="43.48281" lon="2.34864">
        <ele>473.60000610352</ele>
        <time>2019-06-02T14:14:02Z</time>
      </trkpt>
      <trkpt lat="43.4828" lon="2.34863">
        <ele>473.20001220703</ele>
        <time>2019-06-02T14:14:03Z</time>
      </trkpt>
      <trkpt lat="43.4828" lon="2.34853">
        <ele>472.79998779297</ele>
        <time>2019-06-02T14:14:10Z</time>
      </trkpt>
      <trkpt lat="43.48279" lon="2.3485">
        <ele>472.39999389648</ele>
        <time>2019-06-02T14:14:14Z</time>
      </trkpt>
      <trkpt lat="43.48279" lon="2.34848">
        <ele>472.20001220703</ele>
        <time>2019-06-02T14:14:16Z</time>
      </trkpt>
      <trkpt lat="43.48279" lon="2.34842">
        <ele>471.20001220703</ele>
        <time>2019-06-02T14:14:21Z</time>
      </trkpt>
      <trkpt lat="43.48278" lon="2.34841">
        <ele>471.20001220703</ele>
        <time>2019-06-02T14:14:22Z</time>
      </trkpt>
      <trkpt lat="43.48275" lon="2.34838">
        <ele>470.60000610352</ele>
        <time>2019-06-02T14:14:25Z</time>
      </trkpt>
      <trkpt lat="43.48271" lon="2.34833">
        <ele>470.20001220703</ele>
        <time>2019-06-02T14:14:29Z</time>
      </trkpt>
      <trkpt lat="43.48266" lon="2.34825">
        <ele>469.39999389648</ele>
        <time>2019-06-02T14:14:35Z</time>
      </trkpt>
      <trkpt lat="43.48266" lon="2.34823">
        <ele>469.20001220703</ele>
        <time>2019-06-02T14:14:36Z</time>
      </trkpt>
      <trkpt lat="43.48263" lon="2.34817">
        <ele>469</ele>
        <time>2019-06-02T14:14:41Z</time>
      </trkpt>
      <trkpt lat="43.48265" lon="2.34813">
        <ele>468.60000610352</ele>
        <time>2019-06-02T14:14:43Z</time>
      </trkpt>
      <trkpt lat="43.48269" lon="2.3481">
        <ele>468</ele>
        <time>2019-06-02T14:14:46Z</time>
      </trkpt>
      <trkpt lat="43.48271" lon="2.34805">
        <ele>466.79998779297</ele>
        <time>2019-06-02T14:14:51Z</time>
      </trkpt>
      <trkpt lat="43.48271" lon="2.34804">
        <ele>466.60000610352</ele>
        <time>2019-06-02T14:14:52Z</time>
      </trkpt>
      <trkpt lat="43.48272" lon="2.34805">
        <ele>465.60000610352</ele>
        <time>2019-06-02T14:14:56Z</time>
      </trkpt>
      <trkpt lat="43.48274" lon="2.34806">
        <ele>465.20001220703</ele>
        <time>2019-06-02T14:14:58Z</time>
      </trkpt>
      <trkpt lat="43.48275" lon="2.34807">
        <ele>465</ele>
        <time>2019-06-02T14:14:59Z</time>
      </trkpt>
      <trkpt lat="43.48276" lon="2.34808">
        <ele>464.60000610352</ele>
        <time>2019-06-02T14:15:01Z</time>
      </trkpt>
      <trkpt lat="43.48277" lon="2.3481">
        <ele>464.20001220703</ele>
        <time>2019-06-02T14:15:03Z</time>
      </trkpt>
      <trkpt lat="43.48278" lon="2.34811">
        <ele>464</ele>
        <time>2019-06-02T14:15:04Z</time>
      </trkpt>
      <trkpt lat="43.4828" lon="2.34812">
        <ele>464</ele>
        <time>2019-06-02T14:15:06Z</time>
      </trkpt>
      <trkpt lat="43.48285" lon="2.34814">
        <ele>463.20001220703</ele>
        <time>2019-06-02T14:15:11Z</time>
      </trkpt>
      <trkpt lat="43.4829" lon="2.34816">
        <ele>462</ele>
        <time>2019-06-02T14:15:14Z</time>
      </trkpt>
      <trkpt lat="43.48291" lon="2.3482">
        <ele>461.60000610352</ele>
        <time>2019-06-02T14:15:17Z</time>
      </trkpt>
      <trkpt lat="43.48296" lon="2.34824">
        <ele>461.20001220703</ele>
        <time>2019-06-02T14:15:22Z</time>
      </trkpt>
      <trkpt lat="43.48298" lon="2.34826">
        <ele>460.60000610352</ele>
        <time>2019-06-02T14:15:23Z</time>
      </trkpt>
      <trkpt lat="43.483" lon="2.34826">
        <ele>460.20001220703</ele>
        <time>2019-06-02T14:15:24Z</time>
      </trkpt>
      <trkpt lat="43.48308" lon="2.34832">
        <ele>459.79998779297</ele>
        <time>2019-06-02T14:15:31Z</time>
      </trkpt>
      <trkpt lat="43.48309" lon="2.34833">
        <ele>459.60000610352</ele>
        <time>2019-06-02T14:15:32Z</time>
      </trkpt>
      <trkpt lat="43.48309" lon="2.34836">
        <ele>458.60000610352</ele>
        <time>2019-06-02T14:15:35Z</time>
      </trkpt>
      <trkpt lat="43.4831" lon="2.34838">
        <ele>457.60000610352</ele>
        <time>2019-06-02T14:15:37Z</time>
      </trkpt>
      <trkpt lat="43.48312" lon="2.34839">
        <ele>457.39999389648</ele>
        <time>2019-06-02T14:15:38Z</time>
      </trkpt>
      <trkpt lat="43.48321" lon="2.34843">
        <ele>456.79998779297</ele>
        <time>2019-06-02T14:15:44Z</time>
      </trkpt>
      <trkpt lat="43.48323" lon="2.34847">
        <ele>456.20001220703</ele>
        <time>2019-06-02T14:15:49Z</time>
      </trkpt>
      <trkpt lat="43.48324" lon="2.34847">
        <ele>455.79998779297</ele>
        <time>2019-06-02T14:15:50Z</time>
      </trkpt>
      <trkpt lat="43.48329" lon="2.34852">
        <ele>455.20001220703</ele>
        <time>2019-06-02T14:15:56Z</time>
      </trkpt>
      <trkpt lat="43.48331" lon="2.34853">
        <ele>455.20001220703</ele>
        <time>2019-06-02T14:15:58Z</time>
      </trkpt>
      <trkpt lat="43.48334" lon="2.34853">
        <ele>454.39999389648</ele>
        <time>2019-06-02T14:16:02Z</time>
      </trkpt>
      <trkpt lat="43.48335" lon="2.34855">
        <ele>454.20001220703</ele>
        <time>2019-06-02T14:16:03Z</time>
      </trkpt>
      <trkpt lat="43.48338" lon="2.34859">
        <ele>453.39999389648</ele>
        <time>2019-06-02T14:16:08Z</time>
      </trkpt>
      <trkpt lat="43.48339" lon="2.3486">
        <ele>453.20001220703</ele>
        <time>2019-06-02T14:16:13Z</time>
      </trkpt>
      <trkpt lat="43.48341" lon="2.34861">
        <ele>452.79998779297</ele>
        <time>2019-06-02T14:16:15Z</time>
      </trkpt>
      <trkpt lat="43.48346" lon="2.34864">
        <ele>452</ele>
        <time>2019-06-02T14:16:18Z</time>
      </trkpt>
      <trkpt lat="43.48351" lon="2.34868">
        <ele>451.60000610352</ele>
        <time>2019-06-02T14:16:21Z</time>
      </trkpt>
      <trkpt lat="43.48355" lon="2.34872">
        <ele>450.79998779297</ele>
        <time>2019-06-02T14:16:25Z</time>
      </trkpt>
      <trkpt lat="43.4836" lon="2.34876">
        <ele>450.60000610352</ele>
        <time>2019-06-02T14:16:28Z</time>
      </trkpt>
      <trkpt lat="43.48365" lon="2.34882">
        <ele>449.79998779297</ele>
        <time>2019-06-02T14:16:31Z</time>
      </trkpt>
      <trkpt lat="43.48365" lon="2.34885">
        <ele>449.20001220703</ele>
        <time>2019-06-02T14:16:34Z</time>
      </trkpt>
      <trkpt lat="43.48366" lon="2.34894">
        <ele>448.79998779297</ele>
        <time>2019-06-02T14:16:41Z</time>
      </trkpt>
      <trkpt lat="43.48367" lon="2.34895">
        <ele>448.60000610352</ele>
        <time>2019-06-02T14:16:42Z</time>
      </trkpt>
      <trkpt lat="43.48367" lon="2.34899">
        <ele>447.60000610352</ele>
        <time>2019-06-02T14:16:45Z</time>
      </trkpt>
      <trkpt lat="43.48368" lon="2.34902">
        <ele>447.20001220703</ele>
        <time>2019-06-02T14:16:47Z</time>
      </trkpt>
      <trkpt lat="43.48368" lon="2.34903">
        <ele>447.20001220703</ele>
        <time>2019-06-02T14:16:48Z</time>
      </trkpt>
      <trkpt lat="43.48376" lon="2.34915">
        <ele>446.39999389648</ele>
        <time>2019-06-02T14:16:55Z</time>
      </trkpt>
      <trkpt lat="43.48376" lon="2.34917">
        <ele>446.20001220703</ele>
        <time>2019-06-02T14:16:56Z</time>
      </trkpt>
      <trkpt lat="43.4838" lon="2.34926">
        <ele>445.20001220703</ele>
        <time>2019-06-02T14:17:01Z</time>
      </trkpt>
      <trkpt lat="43.4838" lon="2.34928">
        <ele>445</ele>
        <time>2019-06-02T14:17:02Z</time>
      </trkpt>
      <trkpt lat="43.48383" lon="2.3494">
        <ele>444.60000610352</ele>
        <time>2019-06-02T14:17:09Z</time>
      </trkpt>
      <trkpt lat="43.48385" lon="2.34947">
        <ele>444.20001220703</ele>
        <time>2019-06-02T14:17:13Z</time>
      </trkpt>
      <trkpt lat="43.48385" lon="2.34949">
        <ele>444.20001220703</ele>
        <time>2019-06-02T14:17:15Z</time>
      </trkpt>
      <trkpt lat="43.48386" lon="2.34954">
        <ele>443.79998779297</ele>
        <time>2019-06-02T14:17:21Z</time>
      </trkpt>
      <trkpt lat="43.48387" lon="2.34956">
        <ele>443.79998779297</ele>
        <time>2019-06-02T14:17:22Z</time>
      </trkpt>
      <trkpt lat="43.48387" lon="2.34958">
        <ele>443.60000610352</ele>
        <time>2019-06-02T14:17:23Z</time>
      </trkpt>
      <trkpt lat="43.48389" lon="2.3496">
        <ele>443.20001220703</ele>
        <time>2019-06-02T14:17:25Z</time>
      </trkpt>
      <trkpt lat="43.48389" lon="2.34962">
        <ele>442.79998779297</ele>
        <time>2019-06-02T14:17:26Z</time>
      </trkpt>
      <trkpt lat="43.48389" lon="2.34963">
        <ele>442.39999389648</ele>
        <time>2019-06-02T14:17:27Z</time>
      </trkpt>
      <trkpt lat="43.48389" lon="2.34966">
        <ele>442.20001220703</ele>
        <time>2019-06-02T14:17:29Z</time>
      </trkpt>
      <trkpt lat="43.48392" lon="2.34972">
        <ele>442.20001220703</ele>
        <time>2019-06-02T14:17:34Z</time>
      </trkpt>
      <trkpt lat="43.4839" lon="2.34978">
        <ele>441</ele>
        <time>2019-06-02T14:17:38Z</time>
      </trkpt>
      <trkpt lat="43.48391" lon="2.34981">
        <ele>440.79998779297</ele>
        <time>2019-06-02T14:17:40Z</time>
      </trkpt>
      <trkpt lat="43.48392" lon="2.34983">
        <ele>440.60000610352</ele>
        <time>2019-06-02T14:17:41Z</time>
      </trkpt>
      <trkpt lat="43.48393" lon="2.34984">
        <ele>440.60000610352</ele>
        <time>2019-06-02T14:17:42Z</time>
      </trkpt>
      <trkpt lat="43.48393" lon="2.3499">
        <ele>440</ele>
        <time>2019-06-02T14:17:46Z</time>
      </trkpt>
      <trkpt lat="43.48394" lon="2.34991">
        <ele>439.79998779297</ele>
        <time>2019-06-02T14:17:47Z</time>
      </trkpt>
      <trkpt lat="43.48395" lon="2.34994">
        <ele>439.60000610352</ele>
        <time>2019-06-02T14:17:49Z</time>
      </trkpt>
      <trkpt lat="43.48398" lon="2.35001">
        <ele>439.39999389648</ele>
        <time>2019-06-02T14:17:53Z</time>
      </trkpt>
      <trkpt lat="43.48396" lon="2.35008">
        <ele>438.79998779297</ele>
        <time>2019-06-02T14:17:59Z</time>
      </trkpt>
      <trkpt lat="43.48391" lon="2.35011">
        <ele>438.60000610352</ele>
        <time>2019-06-02T14:18:04Z</time>
      </trkpt>
      <trkpt lat="43.4839" lon="2.35012">
        <ele>438.60000610352</ele>
        <time>2019-06-02T14:18:05Z</time>
      </trkpt>
      <trkpt lat="43.48384" lon="2.35022">
        <ele>437.60000610352</ele>
        <time>2019-06-02T14:18:13Z</time>
      </trkpt>
      <trkpt lat="43.48381" lon="2.35023">
        <ele>437.60000610352</ele>
        <time>2019-06-02T14:18:16Z</time>
      </trkpt>
      <trkpt lat="43.48379" lon="2.35026">
        <ele>437.60000610352</ele>
        <time>2019-06-02T14:18:18Z</time>
      </trkpt>
      <trkpt lat="43.48377" lon="2.35028">
        <ele>437.39999389648</ele>
        <time>2019-06-02T14:18:20Z</time>
      </trkpt>
      <trkpt lat="43.48374" lon="2.35032">
        <ele>436.39999389648</ele>
        <time>2019-06-02T14:18:23Z</time>
      </trkpt>
      <trkpt lat="43.4837" lon="2.35039">
        <ele>436.20001220703</ele>
        <time>2019-06-02T14:18:26Z</time>
      </trkpt>
      <trkpt lat="43.48366" lon="2.35044">
        <ele>436</ele>
        <time>2019-06-02T14:18:31Z</time>
      </trkpt>
      <trkpt lat="43.48364" lon="2.3505">
        <ele>435.39999389648</ele>
        <time>2019-06-02T14:18:37Z</time>
      </trkpt>
      <trkpt lat="43.48362" lon="2.35053">
        <ele>435</ele>
        <time>2019-06-02T14:18:39Z</time>
      </trkpt>
      <trkpt lat="43.48358" lon="2.35056">
        <ele>435</ele>
        <time>2019-06-02T14:18:42Z</time>
      </trkpt>
      <trkpt lat="43.48353" lon="2.35062">
        <ele>435.20001220703</ele>
        <time>2019-06-02T14:18:49Z</time>
      </trkpt>
      <trkpt lat="43.48351" lon="2.35068">
        <ele>435</ele>
        <time>2019-06-02T14:18:52Z</time>
      </trkpt>
      <trkpt lat="43.48348" lon="2.35072">
        <ele>434.79998779297</ele>
        <time>2019-06-02T14:18:55Z</time>
      </trkpt>
      <trkpt lat="43.48347" lon="2.35077">
        <ele>434.60000610352</ele>
        <time>2019-06-02T14:19:01Z</time>
      </trkpt>
      <trkpt lat="43.48348" lon="2.35076">
        <ele>434.60000610352</ele>
        <time>2019-06-02T14:19:08Z</time>
      </trkpt>
      <trkpt lat="43.4835" lon="2.35076">
        <ele>434.20001220703</ele>
        <time>2019-06-02T14:19:10Z</time>
      </trkpt>
      <trkpt lat="43.48352" lon="2.35074">
        <ele>434</ele>
        <time>2019-06-02T14:19:15Z</time>
      </trkpt>
      <trkpt lat="43.48357" lon="2.3507">
        <ele>433.60000610352</ele>
        <time>2019-06-02T14:19:19Z</time>
      </trkpt>
      <trkpt lat="43.4836" lon="2.35069">
        <ele>433.20001220703</ele>
        <time>2019-06-02T14:19:21Z</time>
      </trkpt>
      <trkpt lat="43.48369" lon="2.35066">
        <ele>432.39999389648</ele>
        <time>2019-06-02T14:19:27Z</time>
      </trkpt>
      <trkpt lat="43.48371" lon="2.35066">
        <ele>432.20001220703</ele>
        <time>2019-06-02T14:19:28Z</time>
      </trkpt>
      <trkpt lat="43.48376" lon="2.35066">
        <ele>431.79998779297</ele>
        <time>2019-06-02T14:19:33Z</time>
      </trkpt>
      <trkpt lat="43.4838" lon="2.35065">
        <ele>431</ele>
        <time>2019-06-02T14:19:38Z</time>
      </trkpt>
      <trkpt lat="43.48381" lon="2.35065">
        <ele>431</ele>
        <time>2019-06-02T14:19:39Z</time>
      </trkpt>
      <trkpt lat="43.48388" lon="2.35067">
        <ele>430.20001220703</ele>
        <time>2019-06-02T14:19:47Z</time>
      </trkpt>
      <trkpt lat="43.48394" lon="2.35066">
        <ele>430</ele>
        <time>2019-06-02T14:19:51Z</time>
      </trkpt>
      <trkpt lat="43.48396" lon="2.35065">
        <ele>429.20001220703</ele>
        <time>2019-06-02T14:19:54Z</time>
      </trkpt>
      <trkpt lat="43.48397" lon="2.35065">
        <ele>429</ele>
        <time>2019-06-02T14:19:55Z</time>
      </trkpt>
      <trkpt lat="43.48402" lon="2.35067">
        <ele>428.39999389648</ele>
        <time>2019-06-02T14:19:58Z</time>
      </trkpt>
      <trkpt lat="43.48406" lon="2.35068">
        <ele>428</ele>
        <time>2019-06-02T14:20:00Z</time>
      </trkpt>
      <trkpt lat="43.48407" lon="2.35068">
        <ele>428</ele>
        <time>2019-06-02T14:20:01Z</time>
      </trkpt>
      <trkpt lat="43.48409" lon="2.35068">
        <ele>427.79998779297</ele>
        <time>2019-06-02T14:20:02Z</time>
      </trkpt>
      <trkpt lat="43.48415" lon="2.35073">
        <ele>427.79998779297</ele>
        <time>2019-06-02T14:20:08Z</time>
      </trkpt>
      <trkpt lat="43.48424" lon="2.35081">
        <ele>426.79998779297</ele>
        <time>2019-06-02T14:20:14Z</time>
      </trkpt>
      <trkpt lat="43.48426" lon="2.35084">
        <ele>425.79998779297</ele>
        <time>2019-06-02T14:20:17Z</time>
      </trkpt>
      <trkpt lat="43.48429" lon="2.35084">
        <ele>425.20001220703</ele>
        <time>2019-06-02T14:20:21Z</time>
      </trkpt>
      <trkpt lat="43.4843" lon="2.35084">
        <ele>425.60000610352</ele>
        <time>2019-06-02T14:20:23Z</time>
      </trkpt>
      <trkpt lat="43.48435" lon="2.35086">
        <ele>425.79998779297</ele>
        <time>2019-06-02T14:20:27Z</time>
      </trkpt>
      <trkpt lat="43.48437" lon="2.35088">
        <ele>425.79998779297</ele>
        <time>2019-06-02T14:20:28Z</time>
      </trkpt>
      <trkpt lat="43.48441" lon="2.35092">
        <ele>425.60000610352</ele>
        <time>2019-06-02T14:20:30Z</time>
      </trkpt>
      <trkpt lat="43.48447" lon="2.35098">
        <ele>425.20001220703</ele>
        <time>2019-06-02T14:20:33Z</time>
      </trkpt>
      <trkpt lat="43.48449" lon="2.35101">
        <ele>424.60000610352</ele>
        <time>2019-06-02T14:20:35Z</time>
      </trkpt>
      <trkpt lat="43.48453" lon="2.35111">
        <ele>424.39999389648</ele>
        <time>2019-06-02T14:20:41Z</time>
      </trkpt>
      <trkpt lat="43.48453" lon="2.35113">
        <ele>424.39999389648</ele>
        <time>2019-06-02T14:20:42Z</time>
      </trkpt>
      <trkpt lat="43.48453" lon="2.35117">
        <ele>424.39999389648</ele>
        <time>2019-06-02T14:20:44Z</time>
      </trkpt>
      <trkpt lat="43.48454" lon="2.3512">
        <ele>424.20001220703</ele>
        <time>2019-06-02T14:20:46Z</time>
      </trkpt>
      <trkpt lat="43.48453" lon="2.35121">
        <ele>424</ele>
        <time>2019-06-02T14:20:47Z</time>
      </trkpt>
      <trkpt lat="43.48453" lon="2.3513">
        <ele>424.60000610352</ele>
        <time>2019-06-02T14:20:54Z</time>
      </trkpt>
      <trkpt lat="43.48454" lon="2.35133">
        <ele>424.39999389648</ele>
        <time>2019-06-02T14:20:57Z</time>
      </trkpt>
      <trkpt lat="43.48454" lon="2.35134">
        <ele>423.60000610352</ele>
        <time>2019-06-02T14:20:59Z</time>
      </trkpt>
      <trkpt lat="43.48456" lon="2.35133">
        <ele>423</ele>
        <time>2019-06-02T14:21:01Z</time>
      </trkpt>
      <trkpt lat="43.48459" lon="2.35132">
        <ele>422.60000610352</ele>
        <time>2019-06-02T14:21:04Z</time>
      </trkpt>
      <trkpt lat="43.48464" lon="2.3513">
        <ele>422.39999389648</ele>
        <time>2019-06-02T14:21:08Z</time>
      </trkpt>
      <trkpt lat="43.48467" lon="2.35128">
        <ele>421.39999389648</ele>
        <time>2019-06-02T14:21:11Z</time>
      </trkpt>
      <trkpt lat="43.48469" lon="2.35124">
        <ele>421</ele>
        <time>2019-06-02T14:21:15Z</time>
      </trkpt>
      <trkpt lat="43.48469" lon="2.35123">
        <ele>421</ele>
        <time>2019-06-02T14:21:16Z</time>
      </trkpt>
      <trkpt lat="43.48469" lon="2.35117">
        <ele>420.79998779297</ele>
        <time>2019-06-02T14:21:21Z</time>
      </trkpt>
      <trkpt lat="43.48467" lon="2.35115">
        <ele>420.79998779297</ele>
        <time>2019-06-02T14:21:23Z</time>
      </trkpt>
      <trkpt lat="43.48464" lon="2.35111">
        <ele>420.20001220703</ele>
        <time>2019-06-02T14:21:26Z</time>
      </trkpt>
      <trkpt lat="43.48462" lon="2.35109">
        <ele>419.20001220703</ele>
        <time>2019-06-02T14:21:29Z</time>
      </trkpt>
      <trkpt lat="43.48461" lon="2.35109">
        <ele>419</ele>
        <time>2019-06-02T14:21:30Z</time>
      </trkpt>
      <trkpt lat="43.48459" lon="2.35105">
        <ele>418</ele>
        <time>2019-06-02T14:21:35Z</time>
      </trkpt>
      <trkpt lat="43.48459" lon="2.35104">
        <ele>417.60000610352</ele>
        <time>2019-06-02T14:21:36Z</time>
      </trkpt>
      <trkpt lat="43.48457" lon="2.351">
        <ele>417</ele>
        <time>2019-06-02T14:21:42Z</time>
      </trkpt>
      <trkpt lat="43.48456" lon="2.35098">
        <ele>416.79998779297</ele>
        <time>2019-06-02T14:21:43Z</time>
      </trkpt>
      <trkpt lat="43.48446" lon="2.35085">
        <ele>416.39999389648</ele>
        <time>2019-06-02T14:21:49Z</time>
      </trkpt>
      <trkpt lat="43.4844" lon="2.35081">
        <ele>416.39999389648</ele>
        <time>2019-06-02T14:21:53Z</time>
      </trkpt>
      <trkpt lat="43.48437" lon="2.35078">
        <ele>415.60000610352</ele>
        <time>2019-06-02T14:21:57Z</time>
      </trkpt>
      <trkpt lat="43.48434" lon="2.35077">
        <ele>415</ele>
        <time>2019-06-02T14:22:00Z</time>
      </trkpt>
      <trkpt lat="43.48433" lon="2.35076">
        <ele>414.79998779297</ele>
        <time>2019-06-02T14:22:01Z</time>
      </trkpt>
      <trkpt lat="43.48429" lon="2.35074">
        <ele>414.60000610352</ele>
        <time>2019-06-02T14:22:05Z</time>
      </trkpt>
      <trkpt lat="43.48428" lon="2.35073">
        <ele>414.60000610352</ele>
        <time>2019-06-02T14:22:06Z</time>
      </trkpt>
      <trkpt lat="43.48426" lon="2.35071">
        <ele>414.39999389648</ele>
        <time>2019-06-02T14:22:08Z</time>
      </trkpt>
      <trkpt lat="43.48423" lon="2.35068">
        <ele>413.60000610352</ele>
        <time>2019-06-02T14:22:11Z</time>
      </trkpt>
      <trkpt lat="43.48422" lon="2.35062">
        <ele>413.20001220703</ele>
        <time>2019-06-02T14:22:15Z</time>
      </trkpt>
      <trkpt lat="43.4842" lon="2.35058">
        <ele>413</ele>
        <time>2019-06-02T14:22:18Z</time>
      </trkpt>
      <trkpt lat="43.48417" lon="2.35049">
        <ele>412.20001220703</ele>
        <time>2019-06-02T14:22:23Z</time>
      </trkpt>
      <trkpt lat="43.48418" lon="2.35045">
        <ele>411.79998779297</ele>
        <time>2019-06-02T14:22:25Z</time>
      </trkpt>
      <trkpt lat="43.4842" lon="2.35041">
        <ele>411.20001220703</ele>
        <time>2019-06-02T14:22:29Z</time>
      </trkpt>
      <trkpt lat="43.48424" lon="2.35034">
        <ele>411</ele>
        <time>2019-06-02T14:22:34Z</time>
      </trkpt>
      <trkpt lat="43.4843" lon="2.35029">
        <ele>410</ele>
        <time>2019-06-02T14:22:40Z</time>
      </trkpt>
      <trkpt lat="43.48431" lon="2.35029">
        <ele>409.79998779297</ele>
        <time>2019-06-02T14:22:41Z</time>
      </trkpt>
      <trkpt lat="43.48434" lon="2.35026">
        <ele>408.60000610352</ele>
        <time>2019-06-02T14:22:44Z</time>
      </trkpt>
      <trkpt lat="43.48436" lon="2.35023">
        <ele>408.20001220703</ele>
        <time>2019-06-02T14:22:47Z</time>
      </trkpt>
      <trkpt lat="43.48438" lon="2.3502">
        <ele>407.60000610352</ele>
        <time>2019-06-02T14:22:51Z</time>
      </trkpt>
      <trkpt lat="43.48439" lon="2.35019">
        <ele>407</ele>
        <time>2019-06-02T14:22:53Z</time>
      </trkpt>
      <trkpt lat="43.4844" lon="2.35018">
        <ele>406.60000610352</ele>
        <time>2019-06-02T14:22:56Z</time>
      </trkpt>
      <trkpt lat="43.4844" lon="2.35017">
        <ele>406.20001220703</ele>
        <time>2019-06-02T14:22:57Z</time>
      </trkpt>
      <trkpt lat="43.48443" lon="2.35016">
        <ele>405.79998779297</ele>
        <time>2019-06-02T14:22:59Z</time>
      </trkpt>
      <trkpt lat="43.48444" lon="2.35015">
        <ele>405.60000610352</ele>
        <time>2019-06-02T14:23:00Z</time>
      </trkpt>
      <trkpt lat="43.48446" lon="2.35013">
        <ele>405.39999389648</ele>
        <time>2019-06-02T14:23:02Z</time>
      </trkpt>
      <trkpt lat="43.48447" lon="2.35011">
        <ele>405.39999389648</ele>
        <time>2019-06-02T14:23:04Z</time>
      </trkpt>
      <trkpt lat="43.4845" lon="2.35009">
        <ele>404.39999389648</ele>
        <time>2019-06-02T14:23:07Z</time>
      </trkpt>
      <trkpt lat="43.48452" lon="2.35006">
        <ele>404</ele>
        <time>2019-06-02T14:23:09Z</time>
      </trkpt>
      <trkpt lat="43.48454" lon="2.35002">
        <ele>403.39999389648</ele>
        <time>2019-06-02T14:23:12Z</time>
      </trkpt>
      <trkpt lat="43.48456" lon="2.35002">
        <ele>403</ele>
        <time>2019-06-02T14:23:14Z</time>
      </trkpt>
      <trkpt lat="43.48458" lon="2.35001">
        <ele>403</ele>
        <time>2019-06-02T14:23:15Z</time>
      </trkpt>
      <trkpt lat="43.48462" lon="2.35003">
        <ele>403</ele>
        <time>2019-06-02T14:23:18Z</time>
      </trkpt>
      <trkpt lat="43.48464" lon="2.35007">
        <ele>403</ele>
        <time>2019-06-02T14:23:21Z</time>
      </trkpt>
      <trkpt lat="43.48471" lon="2.35018">
        <ele>402.39999389648</ele>
        <time>2019-06-02T14:23:27Z</time>
      </trkpt>
      <trkpt lat="43.48475" lon="2.35025">
        <ele>401.60000610352</ele>
        <time>2019-06-02T14:23:34Z</time>
      </trkpt>
      <trkpt lat="43.48475" lon="2.35027">
        <ele>401</ele>
        <time>2019-06-02T14:23:37Z</time>
      </trkpt>
      <trkpt lat="43.48476" lon="2.35029">
        <ele>400.60000610352</ele>
        <time>2019-06-02T14:23:40Z</time>
      </trkpt>
      <trkpt lat="43.48476" lon="2.3503">
        <ele>400.60000610352</ele>
        <time>2019-06-02T14:23:41Z</time>
      </trkpt>
      <trkpt lat="43.48477" lon="2.35035">
        <ele>400.39999389648</ele>
        <time>2019-06-02T14:23:46Z</time>
      </trkpt>
      <trkpt lat="43.48478" lon="2.35036">
        <ele>400</ele>
        <time>2019-06-02T14:23:47Z</time>
      </trkpt>
      <trkpt lat="43.48484" lon="2.35041">
        <ele>399.39999389648</ele>
        <time>2019-06-02T14:23:52Z</time>
      </trkpt>
      <trkpt lat="43.48488" lon="2.35044">
        <ele>398.79998779297</ele>
        <time>2019-06-02T14:23:58Z</time>
      </trkpt>
      <trkpt lat="43.48495" lon="2.35047">
        <ele>398.20001220703</ele>
        <time>2019-06-02T14:24:04Z</time>
      </trkpt>
      <trkpt lat="43.48497" lon="2.35048">
        <ele>397.79998779297</ele>
        <time>2019-06-02T14:24:06Z</time>
      </trkpt>
      <trkpt lat="43.48501" lon="2.35053">
        <ele>397.39999389648</ele>
        <time>2019-06-02T14:24:11Z</time>
      </trkpt>
      <trkpt lat="43.48507" lon="2.35056">
        <ele>396.79998779297</ele>
        <time>2019-06-02T14:24:17Z</time>
      </trkpt>
      <trkpt lat="43.48509" lon="2.35056">
        <ele>396.60000610352</ele>
        <time>2019-06-02T14:24:18Z</time>
      </trkpt>
      <trkpt lat="43.4851" lon="2.35056">
        <ele>396.60000610352</ele>
        <time>2019-06-02T14:24:19Z</time>
      </trkpt>
      <trkpt lat="43.48514" lon="2.35058">
        <ele>395.60000610352</ele>
        <time>2019-06-02T14:24:22Z</time>
      </trkpt>
      <trkpt lat="43.48514" lon="2.35058">
        <ele>395.39999389648</ele>
        <time>2019-06-02T14:24:23Z</time>
      </trkpt>
      <trkpt lat="43.48517" lon="2.35059">
        <ele>395.39999389648</ele>
        <time>2019-06-02T14:24:26Z</time>
      </trkpt>
      <trkpt lat="43.48522" lon="2.35061">
        <ele>395.60000610352</ele>
        <time>2019-06-02T14:24:29Z</time>
      </trkpt>
      <trkpt lat="43.4853" lon="2.35067">
        <ele>394.60000610352</ele>
        <time>2019-06-02T14:24:35Z</time>
      </trkpt>
      <trkpt lat="43.48535" lon="2.35076">
        <ele>393.79998779297</ele>
        <time>2019-06-02T14:24:41Z</time>
      </trkpt>
      <trkpt lat="43.48536" lon="2.35078">
        <ele>393.39999389648</ele>
        <time>2019-06-02T14:24:43Z</time>
      </trkpt>
      <trkpt lat="43.48536" lon="2.35079">
        <ele>392.79998779297</ele>
        <time>2019-06-02T14:24:48Z</time>
      </trkpt>
      <trkpt lat="43.48537" lon="2.35079">
        <ele>392.60000610352</ele>
        <time>2019-06-02T14:24:49Z</time>
      </trkpt>
      <trkpt lat="43.48537" lon="2.35081">
        <ele>392.39999389648</ele>
        <time>2019-06-02T14:24:51Z</time>
      </trkpt>
      <trkpt lat="43.4854" lon="2.35083">
        <ele>391.39999389648</ele>
        <time>2019-06-02T14:24:55Z</time>
      </trkpt>
      <trkpt lat="43.48542" lon="2.35084">
        <ele>391.39999389648</ele>
        <time>2019-06-02T14:24:56Z</time>
      </trkpt>
      <trkpt lat="43.48544" lon="2.35087">
        <ele>391</ele>
        <time>2019-06-02T14:24:59Z</time>
      </trkpt>
      <trkpt lat="43.48546" lon="2.3509">
        <ele>390.60000610352</ele>
        <time>2019-06-02T14:25:03Z</time>
      </trkpt>
      <trkpt lat="43.48549" lon="2.3509">
        <ele>390.39999389648</ele>
        <time>2019-06-02T14:25:05Z</time>
      </trkpt>
      <trkpt lat="43.4855" lon="2.35092">
        <ele>390.20001220703</ele>
        <time>2019-06-02T14:25:07Z</time>
      </trkpt>
      <trkpt lat="43.48553" lon="2.35093">
        <ele>390</ele>
        <time>2019-06-02T14:25:08Z</time>
      </trkpt>
      <trkpt lat="43.48553" lon="2.35095">
        <ele>390</ele>
        <time>2019-06-02T14:25:09Z</time>
      </trkpt>
      <trkpt lat="43.48553" lon="2.35096">
        <ele>389.79998779297</ele>
        <time>2019-06-02T14:25:10Z</time>
      </trkpt>
      <trkpt lat="43.48557" lon="2.35102">
        <ele>389.39999389648</ele>
        <time>2019-06-02T14:25:13Z</time>
      </trkpt>
      <trkpt lat="43.48559" lon="2.35107">
        <ele>388.60000610352</ele>
        <time>2019-06-02T14:25:18Z</time>
      </trkpt>
      <trkpt lat="43.48559" lon="2.35109">
        <ele>388</ele>
        <time>2019-06-02T14:25:19Z</time>
      </trkpt>
      <trkpt lat="43.48561" lon="2.35112">
        <ele>387</ele>
        <time>2019-06-02T14:25:22Z</time>
      </trkpt>
      <trkpt lat="43.48563" lon="2.35114">
        <ele>386.20001220703</ele>
        <time>2019-06-02T14:25:25Z</time>
      </trkpt>
      <trkpt lat="43.48564" lon="2.35116">
        <ele>385.79998779297</ele>
        <time>2019-06-02T14:25:27Z</time>
      </trkpt>
      <trkpt lat="43.48569" lon="2.35123">
        <ele>385</ele>
        <time>2019-06-02T14:25:32Z</time>
      </trkpt>
      <trkpt lat="43.48569" lon="2.35124">
        <ele>384.60000610352</ele>
        <time>2019-06-02T14:25:33Z</time>
      </trkpt>
      <trkpt lat="43.48572" lon="2.35127">
        <ele>384.20001220703</ele>
        <time>2019-06-02T14:25:35Z</time>
      </trkpt>
      <trkpt lat="43.48573" lon="2.3513">
        <ele>383.79998779297</ele>
        <time>2019-06-02T14:25:38Z</time>
      </trkpt>
      <trkpt lat="43.48574" lon="2.35132">
        <ele>383.39999389648</ele>
        <time>2019-06-02T14:25:40Z</time>
      </trkpt>
      <trkpt lat="43.48575" lon="2.35136">
        <ele>383.39999389648</ele>
        <time>2019-06-02T14:25:43Z</time>
      </trkpt>
      <trkpt lat="43.48578" lon="2.35138">
        <ele>383.39999389648</ele>
        <time>2019-06-02T14:25:45Z</time>
      </trkpt>
      <trkpt lat="43.48584" lon="2.35147">
        <ele>382.20001220703</ele>
        <time>2019-06-02T14:25:52Z</time>
      </trkpt>
      <trkpt lat="43.48585" lon="2.35148">
        <ele>382</ele>
        <time>2019-06-02T14:25:53Z</time>
      </trkpt>
      <trkpt lat="43.48589" lon="2.35159">
        <ele>381.79998779297</ele>
        <time>2019-06-02T14:26:00Z</time>
      </trkpt>
      <trkpt lat="43.4859" lon="2.35161">
        <ele>381.20001220703</ele>
        <time>2019-06-02T14:26:01Z</time>
      </trkpt>
      <trkpt lat="43.48591" lon="2.35163">
        <ele>380.60000610352</ele>
        <time>2019-06-02T14:26:02Z</time>
      </trkpt>
      <trkpt lat="43.48593" lon="2.35169">
        <ele>379.39999389648</ele>
        <time>2019-06-02T14:26:06Z</time>
      </trkpt>
      <trkpt lat="43.48593" lon="2.3517">
        <ele>379.20001220703</ele>
        <time>2019-06-02T14:26:07Z</time>
      </trkpt>
      <trkpt lat="43.48594" lon="2.35174">
        <ele>378.39999389648</ele>
        <time>2019-06-02T14:26:10Z</time>
      </trkpt>
      <trkpt lat="43.48595" lon="2.35178">
        <ele>378</ele>
        <time>2019-06-02T14:26:13Z</time>
      </trkpt>
      <trkpt lat="43.48596" lon="2.35179">
        <ele>378</ele>
        <time>2019-06-02T14:26:14Z</time>
      </trkpt>
      <trkpt lat="43.48602" lon="2.3519">
        <ele>377.39999389648</ele>
        <time>2019-06-02T14:26:20Z</time>
      </trkpt>
      <trkpt lat="43.48602" lon="2.35191">
        <ele>377.39999389648</ele>
        <time>2019-06-02T14:26:21Z</time>
      </trkpt>
      <trkpt lat="43.48602" lon="2.35193">
        <ele>377</ele>
        <time>2019-06-02T14:26:23Z</time>
      </trkpt>
      <trkpt lat="43.48602" lon="2.35194">
        <ele>376.60000610352</ele>
        <time>2019-06-02T14:26:24Z</time>
      </trkpt>
      <trkpt lat="43.48602" lon="2.35199">
        <ele>376.20001220703</ele>
        <time>2019-06-02T14:26:26Z</time>
      </trkpt>
      <trkpt lat="43.48602" lon="2.35202">
        <ele>376</ele>
        <time>2019-06-02T14:26:28Z</time>
      </trkpt>
      <trkpt lat="43.486" lon="2.35208">
        <ele>375.39999389648</ele>
        <time>2019-06-02T14:26:33Z</time>
      </trkpt>
      <trkpt lat="43.486" lon="2.35209">
        <ele>375.20001220703</ele>
        <time>2019-06-02T14:26:34Z</time>
      </trkpt>
      <trkpt lat="43.486" lon="2.3521">
        <ele>375.20001220703</ele>
        <time>2019-06-02T14:26:35Z</time>
      </trkpt>
      <trkpt lat="43.48601" lon="2.35217">
        <ele>374.20001220703</ele>
        <time>2019-06-02T14:26:40Z</time>
      </trkpt>
      <trkpt lat="43.48601" lon="2.35218">
        <ele>374</ele>
        <time>2019-06-02T14:26:41Z</time>
      </trkpt>
      <trkpt lat="43.48602" lon="2.3523">
        <ele>373</ele>
        <time>2019-06-02T14:26:49Z</time>
      </trkpt>
      <trkpt lat="43.486" lon="2.35234">
        <ele>373</ele>
        <time>2019-06-02T14:26:51Z</time>
      </trkpt>
      <trkpt lat="43.486" lon="2.35237">
        <ele>372.79998779297</ele>
        <time>2019-06-02T14:26:53Z</time>
      </trkpt>
      <trkpt lat="43.48603" lon="2.35243">
        <ele>372.79998779297</ele>
        <time>2019-06-02T14:26:57Z</time>
      </trkpt>
      <trkpt lat="43.48604" lon="2.35245">
        <ele>372.79998779297</ele>
        <time>2019-06-02T14:26:58Z</time>
      </trkpt>
      <trkpt lat="43.48603" lon="2.35253">
        <ele>373</ele>
        <time>2019-06-02T14:27:03Z</time>
      </trkpt>
      <trkpt lat="43.48604" lon="2.35254">
        <ele>372.79998779297</ele>
        <time>2019-06-02T14:27:04Z</time>
      </trkpt>
      <trkpt lat="43.48607" lon="2.35263">
        <ele>371.60000610352</ele>
        <time>2019-06-02T14:27:10Z</time>
      </trkpt>
      <trkpt lat="43.48606" lon="2.35269">
        <ele>370.60000610352</ele>
        <time>2019-06-02T14:27:14Z</time>
      </trkpt>
      <trkpt lat="43.48603" lon="2.35271">
        <ele>370</ele>
        <time>2019-06-02T14:27:17Z</time>
      </trkpt>
      <trkpt lat="43.48602" lon="2.35274">
        <ele>369.60000610352</ele>
        <time>2019-06-02T14:27:20Z</time>
      </trkpt>
      <trkpt lat="43.48603" lon="2.35278">
        <ele>369.39999389648</ele>
        <time>2019-06-02T14:27:22Z</time>
      </trkpt>
      <trkpt lat="43.48602" lon="2.35281">
        <ele>369.39999389648</ele>
        <time>2019-06-02T14:27:23Z</time>
      </trkpt>
      <trkpt lat="43.48605" lon="2.35289">
        <ele>369.60000610352</ele>
        <time>2019-06-02T14:27:25Z</time>
      </trkpt>
      <trkpt lat="43.48606" lon="2.35297">
        <ele>369.60000610352</ele>
        <time>2019-06-02T14:27:28Z</time>
      </trkpt>
      <trkpt lat="43.48608" lon="2.353">
        <ele>368.39999389648</ele>
        <time>2019-06-02T14:27:32Z</time>
      </trkpt>
      <trkpt lat="43.4861" lon="2.353">
        <ele>367.20001220703</ele>
        <time>2019-06-02T14:27:35Z</time>
      </trkpt>
      <trkpt lat="43.4861" lon="2.35302">
        <ele>367.20001220703</ele>
        <time>2019-06-02T14:27:37Z</time>
      </trkpt>
      <trkpt lat="43.48611" lon="2.35308">
        <ele>367.20001220703</ele>
        <time>2019-06-02T14:27:41Z</time>
      </trkpt>
      <trkpt lat="43.48611" lon="2.35315">
        <ele>366.60000610352</ele>
        <time>2019-06-02T14:27:46Z</time>
      </trkpt>
      <trkpt lat="43.48611" lon="2.35316">
        <ele>366.60000610352</ele>
        <time>2019-06-02T14:27:47Z</time>
      </trkpt>
      <trkpt lat="43.48612" lon="2.35319">
        <ele>366</ele>
        <time>2019-06-02T14:27:49Z</time>
      </trkpt>
      <trkpt lat="43.48614" lon="2.35324">
        <ele>365.20001220703</ele>
        <time>2019-06-02T14:27:53Z</time>
      </trkpt>
      <trkpt lat="43.48618" lon="2.35335">
        <ele>365</ele>
        <time>2019-06-02T14:28:00Z</time>
      </trkpt>
      <trkpt lat="43.4862" lon="2.35338">
        <ele>365</ele>
        <time>2019-06-02T14:28:02Z</time>
      </trkpt>
      <trkpt lat="43.48622" lon="2.35343">
        <ele>364</ele>
        <time>2019-06-02T14:28:06Z</time>
      </trkpt>
      <trkpt lat="43.48623" lon="2.35344">
        <ele>363.79998779297</ele>
        <time>2019-06-02T14:28:07Z</time>
      </trkpt>
      <trkpt lat="43.48623" lon="2.35345">
        <ele>363.79998779297</ele>
        <time>2019-06-02T14:28:08Z</time>
      </trkpt>
      <trkpt lat="43.48624" lon="2.35352">
        <ele>364</ele>
        <time>2019-06-02T14:28:12Z</time>
      </trkpt>
      <trkpt lat="43.48627" lon="2.3536">
        <ele>363.20001220703</ele>
        <time>2019-06-02T14:28:17Z</time>
      </trkpt>
      <trkpt lat="43.48628" lon="2.35363">
        <ele>363</ele>
        <time>2019-06-02T14:28:19Z</time>
      </trkpt>
      <trkpt lat="43.48632" lon="2.35368">
        <ele>363.20001220703</ele>
        <time>2019-06-02T14:28:25Z</time>
      </trkpt>
      <trkpt lat="43.48633" lon="2.35371">
        <ele>363</ele>
        <time>2019-06-02T14:28:27Z</time>
      </trkpt>
      <trkpt lat="43.48633" lon="2.35373">
        <ele>362.60000610352</ele>
        <time>2019-06-02T14:28:28Z</time>
      </trkpt>
      <trkpt lat="43.48635" lon="2.3538">
        <ele>362</ele>
        <time>2019-06-02T14:28:34Z</time>
      </trkpt>
      <trkpt lat="43.48637" lon="2.35386">
        <ele>362</ele>
        <time>2019-06-02T14:28:38Z</time>
      </trkpt>
      <trkpt lat="43.48638" lon="2.35391">
        <ele>362</ele>
        <time>2019-06-02T14:28:41Z</time>
      </trkpt>
      <trkpt lat="43.48642" lon="2.35402">
        <ele>361.39999389648</ele>
        <time>2019-06-02T14:28:48Z</time>
      </trkpt>
      <trkpt lat="43.48643" lon="2.35404">
        <ele>361.20001220703</ele>
        <time>2019-06-02T14:28:50Z</time>
      </trkpt>
      <trkpt lat="43.48645" lon="2.35407">
        <ele>360.79998779297</ele>
        <time>2019-06-02T14:28:52Z</time>
      </trkpt>
      <trkpt lat="43.48646" lon="2.35409">
        <ele>360.60000610352</ele>
        <time>2019-06-02T14:28:53Z</time>
      </trkpt>
      <trkpt lat="43.48647" lon="2.35411">
        <ele>360.60000610352</ele>
        <time>2019-06-02T14:28:55Z</time>
      </trkpt>
      <trkpt lat="43.48648" lon="2.35412">
        <ele>360.60000610352</ele>
        <time>2019-06-02T14:28:56Z</time>
      </trkpt>
      <trkpt lat="43.4865" lon="2.35417">
        <ele>360.60000610352</ele>
        <time>2019-06-02T14:28:59Z</time>
      </trkpt>
      <trkpt lat="43.48651" lon="2.3542">
        <ele>360.79998779297</ele>
        <time>2019-06-02T14:29:01Z</time>
      </trkpt>
      <trkpt lat="43.48653" lon="2.35422">
        <ele>361</ele>
        <time>2019-06-02T14:29:03Z</time>
      </trkpt>
      <trkpt lat="43.48655" lon="2.35434">
        <ele>360.39999389648</ele>
        <time>2019-06-02T14:29:11Z</time>
      </trkpt>
      <trkpt lat="43.48656" lon="2.35441">
        <ele>360</ele>
        <time>2019-06-02T14:29:15Z</time>
      </trkpt>
      <trkpt lat="43.48659" lon="2.35442">
        <ele>359.79998779297</ele>
        <time>2019-06-02T14:29:17Z</time>
      </trkpt>
      <trkpt lat="43.48661" lon="2.35443">
        <ele>359.79998779297</ele>
        <time>2019-06-02T14:29:18Z</time>
      </trkpt>
      <trkpt lat="43.48664" lon="2.35445">
        <ele>359.60000610352</ele>
        <time>2019-06-02T14:29:20Z</time>
      </trkpt>
      <trkpt lat="43.48664" lon="2.35446">
        <ele>359.39999389648</ele>
        <time>2019-06-02T14:29:21Z</time>
      </trkpt>
      <trkpt lat="43.4867" lon="2.3545">
        <ele>359.39999389648</ele>
        <time>2019-06-02T14:29:25Z</time>
      </trkpt>
      <trkpt lat="43.48675" lon="2.35457">
        <ele>359.39999389648</ele>
        <time>2019-06-02T14:29:31Z</time>
      </trkpt>
      <trkpt lat="43.48678" lon="2.35459">
        <ele>359.20001220703</ele>
        <time>2019-06-02T14:29:33Z</time>
      </trkpt>
      <trkpt lat="43.48685" lon="2.35461">
        <ele>358.39999389648</ele>
        <time>2019-06-02T14:29:37Z</time>
      </trkpt>
      <trkpt lat="43.48688" lon="2.35463">
        <ele>358</ele>
        <time>2019-06-02T14:29:39Z</time>
      </trkpt>
      <trkpt lat="43.48693" lon="2.35469">
        <ele>357.39999389648</ele>
        <time>2019-06-02T14:29:45Z</time>
      </trkpt>
      <trkpt lat="43.48695" lon="2.3547">
        <ele>357.20001220703</ele>
        <time>2019-06-02T14:29:46Z</time>
      </trkpt>
      <trkpt lat="43.48702" lon="2.35474">
        <ele>357</ele>
        <time>2019-06-02T14:29:53Z</time>
      </trkpt>
      <trkpt lat="43.48705" lon="2.35477">
        <ele>356.79998779297</ele>
        <time>2019-06-02T14:29:56Z</time>
      </trkpt>
      <trkpt lat="43.48709" lon="2.35478">
        <ele>356.20001220703</ele>
        <time>2019-06-02T14:29:59Z</time>
      </trkpt>
      <trkpt lat="43.48711" lon="2.35478">
        <ele>355.79998779297</ele>
        <time>2019-06-02T14:30:02Z</time>
      </trkpt>
      <trkpt lat="43.48712" lon="2.35478">
        <ele>355.60000610352</ele>
        <time>2019-06-02T14:30:03Z</time>
      </trkpt>
      <trkpt lat="43.48712" lon="2.35477">
        <ele>355.39999389648</ele>
        <time>2019-06-02T14:30:04Z</time>
      </trkpt>
      <trkpt lat="43.48713" lon="2.35475">
        <ele>355.20001220703</ele>
        <time>2019-06-02T14:30:06Z</time>
      </trkpt>
      <trkpt lat="43.48712" lon="2.35473">
        <ele>355</ele>
        <time>2019-06-02T14:30:07Z</time>
      </trkpt>
      <trkpt lat="43.48714" lon="2.3547">
        <ele>354.60000610352</ele>
        <time>2019-06-02T14:30:10Z</time>
      </trkpt>
      <trkpt lat="43.48716" lon="2.3547">
        <ele>354</ele>
        <time>2019-06-02T14:30:12Z</time>
      </trkpt>
      <trkpt lat="43.48717" lon="2.35471">
        <ele>354</ele>
        <time>2019-06-02T14:30:13Z</time>
      </trkpt>
      <trkpt lat="43.48718" lon="2.35472">
        <ele>353.79998779297</ele>
        <time>2019-06-02T14:30:14Z</time>
      </trkpt>
      <trkpt lat="43.48718" lon="2.35473">
        <ele>353.60000610352</ele>
        <time>2019-06-02T14:30:15Z</time>
      </trkpt>
      <trkpt lat="43.4872" lon="2.35473">
        <ele>353.39999389648</ele>
        <time>2019-06-02T14:30:17Z</time>
      </trkpt>
      <trkpt lat="43.48725" lon="2.35479">
        <ele>353</ele>
        <time>2019-06-02T14:30:19Z</time>
      </trkpt>
      <trkpt lat="43.48728" lon="2.35476">
        <ele>353</ele>
        <time>2019-06-02T14:30:22Z</time>
      </trkpt>
      <trkpt lat="43.4873" lon="2.35476">
        <ele>353</ele>
        <time>2019-06-02T14:30:23Z</time>
      </trkpt>
      <trkpt lat="43.4873" lon="2.35473">
        <ele>352.20001220703</ele>
        <time>2019-06-02T14:30:28Z</time>
      </trkpt>
      <trkpt lat="43.4873" lon="2.35473">
        <ele>351.79998779297</ele>
        <time>2019-06-02T14:30:29Z</time>
      </trkpt>
      <trkpt lat="43.48731" lon="2.35472">
        <ele>351.60000610352</ele>
        <time>2019-06-02T14:30:30Z</time>
      </trkpt>
      <trkpt lat="43.48733" lon="2.35471">
        <ele>350.60000610352</ele>
        <time>2019-06-02T14:30:33Z</time>
      </trkpt>
      <trkpt lat="43.48734" lon="2.35472">
        <ele>350.60000610352</ele>
        <time>2019-06-02T14:30:34Z</time>
      </trkpt>
      <trkpt lat="43.48735" lon="2.35472">
        <ele>350.39999389648</ele>
        <time>2019-06-02T14:30:35Z</time>
      </trkpt>
      <trkpt lat="43.48736" lon="2.35472">
        <ele>350.39999389648</ele>
        <time>2019-06-02T14:30:36Z</time>
      </trkpt>
      <trkpt lat="43.48745" lon="2.35474">
        <ele>349.60000610352</ele>
        <time>2019-06-02T14:30:42Z</time>
      </trkpt>
      <trkpt lat="43.48747" lon="2.35474">
        <ele>349.60000610352</ele>
        <time>2019-06-02T14:30:43Z</time>
      </trkpt>
      <trkpt lat="43.48754" lon="2.35479">
        <ele>348.60000610352</ele>
        <time>2019-06-02T14:30:49Z</time>
      </trkpt>
      <trkpt lat="43.48754" lon="2.35478">
        <ele>348.39999389648</ele>
        <time>2019-06-02T14:30:50Z</time>
      </trkpt>
      <trkpt lat="43.48756" lon="2.35478">
        <ele>348</ele>
        <time>2019-06-02T14:30:52Z</time>
      </trkpt>
      <trkpt lat="43.48759" lon="2.3548">
        <ele>347</ele>
        <time>2019-06-02T14:30:55Z</time>
      </trkpt>
      <trkpt lat="43.48759" lon="2.3548">
        <ele>346.79998779297</ele>
        <time>2019-06-02T14:30:56Z</time>
      </trkpt>
      <trkpt lat="43.48758" lon="2.35481">
        <ele>346.79998779297</ele>
        <time>2019-06-02T14:31:00Z</time>
      </trkpt>
      <trkpt lat="43.48757" lon="2.3548">
        <ele>346.79998779297</ele>
        <time>2019-06-02T14:31:03Z</time>
      </trkpt>
      <trkpt lat="43.48757" lon="2.35477">
        <ele>346.39999389648</ele>
        <time>2019-06-02T14:31:10Z</time>
      </trkpt>
      <trkpt lat="43.48759" lon="2.35482">
        <ele>346.20001220703</ele>
        <time>2019-06-02T14:31:18Z</time>
      </trkpt>
      <trkpt lat="43.48764" lon="2.35481">
        <ele>346.20001220703</ele>
        <time>2019-06-02T14:31:23Z</time>
      </trkpt>
      <trkpt lat="43.48766" lon="2.3548">
        <ele>346.20001220703</ele>
        <time>2019-06-02T14:31:24Z</time>
      </trkpt>
      <trkpt lat="43.48769" lon="2.35477">
        <ele>346.20001220703</ele>
        <time>2019-06-02T14:31:28Z</time>
      </trkpt>
      <trkpt lat="43.48772" lon="2.35476">
        <ele>346.39999389648</ele>
        <time>2019-06-02T14:31:30Z</time>
      </trkpt>
      <trkpt lat="43.48777" lon="2.35475">
        <ele>346</ele>
        <time>2019-06-02T14:31:33Z</time>
      </trkpt>
      <trkpt lat="43.48778" lon="2.35475">
        <ele>346</ele>
        <time>2019-06-02T14:31:34Z</time>
      </trkpt>
      <trkpt lat="43.48781" lon="2.35471">
        <ele>345.60000610352</ele>
        <time>2019-06-02T14:31:37Z</time>
      </trkpt>
      <trkpt lat="43.48784" lon="2.35469">
        <ele>345.39999389648</ele>
        <time>2019-06-02T14:31:40Z</time>
      </trkpt>
      <trkpt lat="43.48787" lon="2.35466">
        <ele>345</ele>
        <time>2019-06-02T14:31:43Z</time>
      </trkpt>
      <trkpt lat="43.48787" lon="2.35464">
        <ele>344.79998779297</ele>
        <time>2019-06-02T14:31:44Z</time>
      </trkpt>
      <trkpt lat="43.4879" lon="2.35456">
        <ele>343.79998779297</ele>
        <time>2019-06-02T14:31:49Z</time>
      </trkpt>
      <trkpt lat="43.48791" lon="2.35455">
        <ele>343.60000610352</ele>
        <time>2019-06-02T14:31:50Z</time>
      </trkpt>
      <trkpt lat="43.48795" lon="2.35453">
        <ele>343.39999389648</ele>
        <time>2019-06-02T14:31:53Z</time>
      </trkpt>
      <trkpt lat="43.48797" lon="2.35452">
        <ele>343.20001220703</ele>
        <time>2019-06-02T14:31:55Z</time>
      </trkpt>
      <trkpt lat="43.48799" lon="2.35451">
        <ele>343.20001220703</ele>
        <time>2019-06-02T14:31:56Z</time>
      </trkpt>
      <trkpt lat="43.48804" lon="2.35451">
        <ele>342.60000610352</ele>
        <time>2019-06-02T14:32:00Z</time>
      </trkpt>
      <trkpt lat="43.48805" lon="2.35449">
        <ele>342.39999389648</ele>
        <time>2019-06-02T14:32:01Z</time>
      </trkpt>
      <trkpt lat="43.48809" lon="2.35445">
        <ele>341.39999389648</ele>
        <time>2019-06-02T14:32:05Z</time>
      </trkpt>
      <trkpt lat="43.48811" lon="2.35443">
        <ele>341.20001220703</ele>
        <time>2019-06-02T14:32:07Z</time>
      </trkpt>
      <trkpt lat="43.48814" lon="2.35441">
        <ele>340.20001220703</ele>
        <time>2019-06-02T14:32:10Z</time>
      </trkpt>
      <trkpt lat="43.48816" lon="2.35438">
        <ele>338.79998779297</ele>
        <time>2019-06-02T14:32:13Z</time>
      </trkpt>
      <trkpt lat="43.48823" lon="2.35438">
        <ele>337.79998779297</ele>
        <time>2019-06-02T14:32:19Z</time>
      </trkpt>
      <trkpt lat="43.4883" lon="2.35439">
        <ele>337</ele>
        <time>2019-06-02T14:32:26Z</time>
      </trkpt>
      <trkpt lat="43.48831" lon="2.35439">
        <ele>336.79998779297</ele>
        <time>2019-06-02T14:32:27Z</time>
      </trkpt>
      <trkpt lat="43.48832" lon="2.35439">
        <ele>336.79998779297</ele>
        <time>2019-06-02T14:32:28Z</time>
      </trkpt>
      <trkpt lat="43.48838" lon="2.35443">
        <ele>336.60000610352</ele>
        <time>2019-06-02T14:32:33Z</time>
      </trkpt>
      <trkpt lat="43.48849" lon="2.35447">
        <ele>336.60000610352</ele>
        <time>2019-06-02T14:32:41Z</time>
      </trkpt>
      <trkpt lat="43.4885" lon="2.35447">
        <ele>336.60000610352</ele>
        <time>2019-06-02T14:32:42Z</time>
      </trkpt>
      <trkpt lat="43.48855" lon="2.35448">
        <ele>335.79998779297</ele>
        <time>2019-06-02T14:32:47Z</time>
      </trkpt>
      <trkpt lat="43.48856" lon="2.35448">
        <ele>335.79998779297</ele>
        <time>2019-06-02T14:32:48Z</time>
      </trkpt>
      <trkpt lat="43.48863" lon="2.3545">
        <ele>335</ele>
        <time>2019-06-02T14:32:53Z</time>
      </trkpt>
      <trkpt lat="43.48872" lon="2.35454">
        <ele>334.79998779297</ele>
        <time>2019-06-02T14:33:00Z</time>
      </trkpt>
      <trkpt lat="43.48875" lon="2.35455">
        <ele>334.39999389648</ele>
        <time>2019-06-02T14:33:02Z</time>
      </trkpt>
      <trkpt lat="43.48879" lon="2.35457">
        <ele>333.79998779297</ele>
        <time>2019-06-02T14:33:05Z</time>
      </trkpt>
      <trkpt lat="43.48887" lon="2.3546">
        <ele>333.60000610352</ele>
        <time>2019-06-02T14:33:12Z</time>
      </trkpt>
      <trkpt lat="43.48889" lon="2.3546">
        <ele>333.60000610352</ele>
        <time>2019-06-02T14:33:13Z</time>
      </trkpt>
      <trkpt lat="43.48896" lon="2.35458">
        <ele>333.39999389648</ele>
        <time>2019-06-02T14:33:18Z</time>
      </trkpt>
      <trkpt lat="43.48902" lon="2.35456">
        <ele>332.79998779297</ele>
        <time>2019-06-02T14:33:23Z</time>
      </trkpt>
      <trkpt lat="43.48905" lon="2.35454">
        <ele>332.79998779297</ele>
        <time>2019-06-02T14:33:25Z</time>
      </trkpt>
      <trkpt lat="43.48909" lon="2.35453">
        <ele>332.60000610352</ele>
        <time>2019-06-02T14:33:29Z</time>
      </trkpt>
      <trkpt lat="43.4891" lon="2.35452">
        <ele>332.60000610352</ele>
        <time>2019-06-02T14:33:30Z</time>
      </trkpt>
      <trkpt lat="43.48915" lon="2.35451">
        <ele>331.39999389648</ele>
        <time>2019-06-02T14:33:34Z</time>
      </trkpt>
      <trkpt lat="43.48916" lon="2.35451">
        <ele>331.39999389648</ele>
        <time>2019-06-02T14:33:35Z</time>
      </trkpt>
      <trkpt lat="43.48922" lon="2.3545">
        <ele>331</ele>
        <time>2019-06-02T14:33:41Z</time>
      </trkpt>
      <trkpt lat="43.4893" lon="2.35445">
        <ele>330.79998779297</ele>
        <time>2019-06-02T14:33:47Z</time>
      </trkpt>
      <trkpt lat="43.48932" lon="2.35445">
        <ele>330.39999389648</ele>
        <time>2019-06-02T14:33:49Z</time>
      </trkpt>
      <trkpt lat="43.48937" lon="2.35446">
        <ele>329.39999389648</ele>
        <time>2019-06-02T14:33:52Z</time>
      </trkpt>
      <trkpt lat="43.48939" lon="2.35446">
        <ele>329</ele>
        <time>2019-06-02T14:33:54Z</time>
      </trkpt>
      <trkpt lat="43.4894" lon="2.35447">
        <ele>329</ele>
        <time>2019-06-02T14:33:55Z</time>
      </trkpt>
      <trkpt lat="43.48946" lon="2.35451">
        <ele>328.79998779297</ele>
        <time>2019-06-02T14:34:00Z</time>
      </trkpt>
      <trkpt lat="43.48957" lon="2.3546">
        <ele>328.79998779297</ele>
        <time>2019-06-02T14:34:08Z</time>
      </trkpt>
      <trkpt lat="43.48965" lon="2.35469">
        <ele>328.60000610352</ele>
        <time>2019-06-02T14:34:17Z</time>
      </trkpt>
      <trkpt lat="43.48966" lon="2.35469">
        <ele>328.60000610352</ele>
        <time>2019-06-02T14:34:18Z</time>
      </trkpt>
      <trkpt lat="43.4897" lon="2.3547">
        <ele>328.39999389648</ele>
        <time>2019-06-02T14:34:22Z</time>
      </trkpt>
      <trkpt lat="43.48971" lon="2.3547">
        <ele>328.20001220703</ele>
        <time>2019-06-02T14:34:23Z</time>
      </trkpt>
      <trkpt lat="43.48975" lon="2.35468">
        <ele>328</ele>
        <time>2019-06-02T14:34:26Z</time>
      </trkpt>
      <trkpt lat="43.48977" lon="2.35466">
        <ele>327.79998779297</ele>
        <time>2019-06-02T14:34:29Z</time>
      </trkpt>
      <trkpt lat="43.48979" lon="2.35466">
        <ele>327.60000610352</ele>
        <time>2019-06-02T14:34:30Z</time>
      </trkpt>
      <trkpt lat="43.48981" lon="2.35466">
        <ele>327.20001220703</ele>
        <time>2019-06-02T14:34:32Z</time>
      </trkpt>
      <trkpt lat="43.48988" lon="2.35464">
        <ele>327</ele>
        <time>2019-06-02T14:34:37Z</time>
      </trkpt>
      <trkpt lat="43.48998" lon="2.35467">
        <ele>327.60000610352</ele>
        <time>2019-06-02T14:34:43Z</time>
      </trkpt>
      <trkpt lat="43.49006" lon="2.35471">
        <ele>326.79998779297</ele>
        <time>2019-06-02T14:34:49Z</time>
      </trkpt>
      <trkpt lat="43.49006" lon="2.35471">
        <ele>326.60000610352</ele>
        <time>2019-06-02T14:34:50Z</time>
      </trkpt>
      <trkpt lat="43.49012" lon="2.35472">
        <ele>326.20001220703</ele>
        <time>2019-06-02T14:34:55Z</time>
      </trkpt>
      <trkpt lat="43.49018" lon="2.35473">
        <ele>325.20001220703</ele>
        <time>2019-06-02T14:35:02Z</time>
      </trkpt>
      <trkpt lat="43.49019" lon="2.35473">
        <ele>325</ele>
        <time>2019-06-02T14:35:03Z</time>
      </trkpt>
      <trkpt lat="43.49024" lon="2.35475">
        <ele>324.60000610352</ele>
        <time>2019-06-02T14:35:08Z</time>
      </trkpt>
      <trkpt lat="43.49026" lon="2.35477">
        <ele>324.60000610352</ele>
        <time>2019-06-02T14:35:10Z</time>
      </trkpt>
      <trkpt lat="43.49032" lon="2.35477">
        <ele>324.39999389648</ele>
        <time>2019-06-02T14:35:15Z</time>
      </trkpt>
      <trkpt lat="43.49035" lon="2.3548">
        <ele>324.20001220703</ele>
        <time>2019-06-02T14:35:18Z</time>
      </trkpt>
      <trkpt lat="43.49036" lon="2.35481">
        <ele>324</ele>
        <time>2019-06-02T14:35:19Z</time>
      </trkpt>
      <trkpt lat="43.49039" lon="2.35484">
        <ele>323.60000610352</ele>
        <time>2019-06-02T14:35:22Z</time>
      </trkpt>
      <trkpt lat="43.49045" lon="2.3549">
        <ele>323.20001220703</ele>
        <time>2019-06-02T14:35:26Z</time>
      </trkpt>
      <trkpt lat="43.49046" lon="2.35491">
        <ele>323</ele>
        <time>2019-06-02T14:35:27Z</time>
      </trkpt>
      <trkpt lat="43.49051" lon="2.35498">
        <ele>322.39999389648</ele>
        <time>2019-06-02T14:35:32Z</time>
      </trkpt>
      <trkpt lat="43.49052" lon="2.355">
        <ele>322.39999389648</ele>
        <time>2019-06-02T14:35:33Z</time>
      </trkpt>
      <trkpt lat="43.49053" lon="2.35501">
        <ele>322.20001220703</ele>
        <time>2019-06-02T14:35:34Z</time>
      </trkpt>
      <trkpt lat="43.49054" lon="2.35501">
        <ele>322</ele>
        <time>2019-06-02T14:35:35Z</time>
      </trkpt>
      <trkpt lat="43.4906" lon="2.35506">
        <ele>321.39999389648</ele>
        <time>2019-06-02T14:35:40Z</time>
      </trkpt>
      <trkpt lat="43.49062" lon="2.35508">
        <ele>321.39999389648</ele>
        <time>2019-06-02T14:35:42Z</time>
      </trkpt>
      <trkpt lat="43.49063" lon="2.35509">
        <ele>321.39999389648</ele>
        <time>2019-06-02T14:35:43Z</time>
      </trkpt>
      <trkpt lat="43.49066" lon="2.35512">
        <ele>321.39999389648</ele>
        <time>2019-06-02T14:35:46Z</time>
      </trkpt>
      <trkpt lat="43.49067" lon="2.35513">
        <ele>321.39999389648</ele>
        <time>2019-06-02T14:35:47Z</time>
      </trkpt>
    </trkseg>
  </trk>
</gpx>